<?xml version="1.0" encoding="UTF-8"?>
<gpx version="1.1" creator="https://www.youtrack.es" xsi:schemaLocation="http://www.topografix.com/GPX/1/1 http://www.topografix.com/GPX/1/1/gpx.xsd http://www.garmin.com/xmlschemas/GpxExtensions/v3 http://www.garmin.com/xmlschemas/GpxExtensionsv3.xsd http://www.garmin.com/xmlschemas/TrackPointExtension/v1 http://www.garmin.com/xmlschemas/TrackPointExtensionv1.xsd" xmlns:gpxtpx="http://www.garmin.com/xmlschemas/TrackPointExtension/v1" xmlns:gpxx="http://www.garmin.com/xmlschemas/GpxExtensions/v3" xmlns:xsi="http://www.w3.org/2001/XMLSchema-instance">
  <metadata>
    <link href="https://www.youtrack.es">
      <text>YouTrack.es</text>
    </link>
    <time>2026-05-08T04:33:00Z</time>
  </metadata>
  <trk>
    <src>https://www.youtrack.es</src>
    <link href="https://www.youtrack.es/ruta/29375-etapa-reina-urbion">
      <text>YouTrack.es</text>
    </link>
    <trkseg>
      <trkpt lat="41.9279780" lon="-2.8837600">
        <ele>1206.0</ele>
        <time>2022-02-08T08:31:27Z</time>
      </trkpt>
      <trkpt lat="41.9279780" lon="-2.8837600">
        <ele>1206.0</ele>
        <time>2022-02-08T08:31:28Z</time>
      </trkpt>
      <trkpt lat="41.9279900" lon="-2.8837780">
        <ele>1206.1</ele>
        <time>2022-02-08T08:31:29Z</time>
      </trkpt>
      <trkpt lat="41.9280100" lon="-2.8838000">
        <ele>1206.1</ele>
        <time>2022-02-08T08:31:30Z</time>
      </trkpt>
      <trkpt lat="41.9280350" lon="-2.8838250">
        <ele>1206.2</ele>
        <time>2022-02-08T08:31:31Z</time>
      </trkpt>
      <trkpt lat="41.9280650" lon="-2.8838670">
        <ele>1206.2</ele>
        <time>2022-02-08T08:31:32Z</time>
      </trkpt>
      <trkpt lat="41.9280920" lon="-2.8839170">
        <ele>1206.2</ele>
        <time>2022-02-08T08:31:33Z</time>
      </trkpt>
      <trkpt lat="41.9281170" lon="-2.8839670">
        <ele>1206.2</ele>
        <time>2022-02-08T08:31:34Z</time>
      </trkpt>
      <trkpt lat="41.9281430" lon="-2.8840230">
        <ele>1206.1</ele>
        <time>2022-02-08T08:31:35Z</time>
      </trkpt>
      <trkpt lat="41.9281700" lon="-2.8840780">
        <ele>1206.0</ele>
        <time>2022-02-08T08:31:36Z</time>
      </trkpt>
      <trkpt lat="41.9281980" lon="-2.8841380">
        <ele>1205.9</ele>
        <time>2022-02-08T08:31:37Z</time>
      </trkpt>
      <trkpt lat="41.9282280" lon="-2.8842030">
        <ele>1205.8</ele>
        <time>2022-02-08T08:31:38Z</time>
      </trkpt>
      <trkpt lat="41.9282570" lon="-2.8842670">
        <ele>1205.7</ele>
        <time>2022-02-08T08:31:39Z</time>
      </trkpt>
      <trkpt lat="41.9282870" lon="-2.8843330">
        <ele>1205.5</ele>
        <time>2022-02-08T08:31:40Z</time>
      </trkpt>
      <trkpt lat="41.9283170" lon="-2.8844020">
        <ele>1205.4</ele>
        <time>2022-02-08T08:31:41Z</time>
      </trkpt>
      <trkpt lat="41.9283480" lon="-2.8844720">
        <ele>1205.2</ele>
        <time>2022-02-08T08:31:42Z</time>
      </trkpt>
      <trkpt lat="41.9283780" lon="-2.8845470">
        <ele>1205.1</ele>
        <time>2022-02-08T08:31:43Z</time>
      </trkpt>
      <trkpt lat="41.9284100" lon="-2.8846220">
        <ele>1204.9</ele>
        <time>2022-02-08T08:31:44Z</time>
      </trkpt>
      <trkpt lat="41.9284430" lon="-2.8846980">
        <ele>1204.8</ele>
        <time>2022-02-08T08:31:45Z</time>
      </trkpt>
      <trkpt lat="41.9284770" lon="-2.8847750">
        <ele>1204.6</ele>
        <time>2022-02-08T08:31:46Z</time>
      </trkpt>
      <trkpt lat="41.9285100" lon="-2.8848530">
        <ele>1204.5</ele>
        <time>2022-02-08T08:31:47Z</time>
      </trkpt>
      <trkpt lat="41.9285450" lon="-2.8849320">
        <ele>1204.3</ele>
        <time>2022-02-08T08:31:48Z</time>
      </trkpt>
      <trkpt lat="41.9285800" lon="-2.8850120">
        <ele>1204.2</ele>
        <time>2022-02-08T08:31:49Z</time>
      </trkpt>
      <trkpt lat="41.9286170" lon="-2.8850930">
        <ele>1204.0</ele>
        <time>2022-02-08T08:31:50Z</time>
      </trkpt>
      <trkpt lat="41.9286550" lon="-2.8851730">
        <ele>1203.8</ele>
        <time>2022-02-08T08:31:51Z</time>
      </trkpt>
      <trkpt lat="41.9286930" lon="-2.8852570">
        <ele>1203.6</ele>
        <time>2022-02-08T08:31:52Z</time>
      </trkpt>
      <trkpt lat="41.9287330" lon="-2.8853420">
        <ele>1203.4</ele>
        <time>2022-02-08T08:31:53Z</time>
      </trkpt>
      <trkpt lat="41.9287730" lon="-2.8854280">
        <ele>1203.1</ele>
        <time>2022-02-08T08:31:54Z</time>
      </trkpt>
      <trkpt lat="41.9288150" lon="-2.8855120">
        <ele>1202.9</ele>
        <time>2022-02-08T08:31:55Z</time>
      </trkpt>
      <trkpt lat="41.9288580" lon="-2.8855970">
        <ele>1202.8</ele>
        <time>2022-02-08T08:31:56Z</time>
      </trkpt>
      <trkpt lat="41.9289030" lon="-2.8856800">
        <ele>1202.7</ele>
        <time>2022-02-08T08:31:57Z</time>
      </trkpt>
      <trkpt lat="41.9289530" lon="-2.8857620">
        <ele>1202.6</ele>
        <time>2022-02-08T08:31:58Z</time>
      </trkpt>
      <trkpt lat="41.9290030" lon="-2.8858400">
        <ele>1202.5</ele>
        <time>2022-02-08T08:31:59Z</time>
      </trkpt>
      <trkpt lat="41.9290550" lon="-2.8859150">
        <ele>1202.5</ele>
        <time>2022-02-08T08:32:00Z</time>
      </trkpt>
      <trkpt lat="41.9291100" lon="-2.8859870">
        <ele>1202.5</ele>
        <time>2022-02-08T08:32:01Z</time>
      </trkpt>
      <trkpt lat="41.9291630" lon="-2.8860520">
        <ele>1202.6</ele>
        <time>2022-02-08T08:32:02Z</time>
      </trkpt>
      <trkpt lat="41.9292180" lon="-2.8861120">
        <ele>1202.7</ele>
        <time>2022-02-08T08:32:03Z</time>
      </trkpt>
      <trkpt lat="41.9292730" lon="-2.8861680">
        <ele>1202.8</ele>
        <time>2022-02-08T08:32:04Z</time>
      </trkpt>
      <trkpt lat="41.9293280" lon="-2.8862220">
        <ele>1202.9</ele>
        <time>2022-02-08T08:32:05Z</time>
      </trkpt>
      <trkpt lat="41.9293800" lon="-2.8862730">
        <ele>1203.0</ele>
        <time>2022-02-08T08:32:06Z</time>
      </trkpt>
      <trkpt lat="41.9294320" lon="-2.8863220">
        <ele>1203.2</ele>
        <time>2022-02-08T08:32:07Z</time>
      </trkpt>
      <trkpt lat="41.9294830" lon="-2.8863680">
        <ele>1203.3</ele>
        <time>2022-02-08T08:32:08Z</time>
      </trkpt>
      <trkpt lat="41.9295330" lon="-2.8864130">
        <ele>1203.4</ele>
        <time>2022-02-08T08:32:09Z</time>
      </trkpt>
      <trkpt lat="41.9295820" lon="-2.8864580">
        <ele>1203.5</ele>
        <time>2022-02-08T08:32:10Z</time>
      </trkpt>
      <trkpt lat="41.9296300" lon="-2.8865030">
        <ele>1203.6</ele>
        <time>2022-02-08T08:32:11Z</time>
      </trkpt>
      <trkpt lat="41.9296750" lon="-2.8865470">
        <ele>1203.8</ele>
        <time>2022-02-08T08:32:12Z</time>
      </trkpt>
      <trkpt lat="41.9297180" lon="-2.8865930">
        <ele>1203.9</ele>
        <time>2022-02-08T08:32:13Z</time>
      </trkpt>
      <trkpt lat="41.9297620" lon="-2.8866400">
        <ele>1204.0</ele>
        <time>2022-02-08T08:32:14Z</time>
      </trkpt>
      <trkpt lat="41.9298000" lon="-2.8866900">
        <ele>1204.1</ele>
        <time>2022-02-08T08:32:15Z</time>
      </trkpt>
      <trkpt lat="41.9298350" lon="-2.8867400">
        <ele>1204.2</ele>
        <time>2022-02-08T08:32:16Z</time>
      </trkpt>
      <trkpt lat="41.9298680" lon="-2.8867950">
        <ele>1204.3</ele>
        <time>2022-02-08T08:32:17Z</time>
      </trkpt>
      <trkpt lat="41.9298970" lon="-2.8868530">
        <ele>1204.5</ele>
        <time>2022-02-08T08:32:18Z</time>
      </trkpt>
      <trkpt lat="41.9299250" lon="-2.8869130">
        <ele>1204.6</ele>
        <time>2022-02-08T08:32:19Z</time>
      </trkpt>
      <trkpt lat="41.9299480" lon="-2.8869720">
        <ele>1204.7</ele>
        <time>2022-02-08T08:32:20Z</time>
      </trkpt>
      <trkpt lat="41.9299670" lon="-2.8870350">
        <ele>1204.8</ele>
        <time>2022-02-08T08:32:21Z</time>
      </trkpt>
      <trkpt lat="41.9299800" lon="-2.8870980">
        <ele>1204.9</ele>
        <time>2022-02-08T08:32:22Z</time>
      </trkpt>
      <trkpt lat="41.9299920" lon="-2.8871630">
        <ele>1204.9</ele>
        <time>2022-02-08T08:32:23Z</time>
      </trkpt>
      <trkpt lat="41.9300020" lon="-2.8872300">
        <ele>1205.0</ele>
        <time>2022-02-08T08:32:24Z</time>
      </trkpt>
      <trkpt lat="41.9300120" lon="-2.8873000">
        <ele>1205.0</ele>
        <time>2022-02-08T08:32:25Z</time>
      </trkpt>
      <trkpt lat="41.9300230" lon="-2.8873680">
        <ele>1205.0</ele>
        <time>2022-02-08T08:32:26Z</time>
      </trkpt>
      <trkpt lat="41.9300370" lon="-2.8874200">
        <ele>1205.0</ele>
        <time>2022-02-08T08:32:27Z</time>
      </trkpt>
      <trkpt lat="41.9300630" lon="-2.8874920">
        <ele>1205.0</ele>
        <time>2022-02-08T08:32:28Z</time>
      </trkpt>
      <trkpt lat="41.9300900" lon="-2.8875480">
        <ele>1204.9</ele>
        <time>2022-02-08T08:32:29Z</time>
      </trkpt>
      <trkpt lat="41.9301180" lon="-2.8876050">
        <ele>1204.9</ele>
        <time>2022-02-08T08:32:30Z</time>
      </trkpt>
      <trkpt lat="41.9301500" lon="-2.8876620">
        <ele>1204.8</ele>
        <time>2022-02-08T08:32:31Z</time>
      </trkpt>
      <trkpt lat="41.9301850" lon="-2.8877220">
        <ele>1204.7</ele>
        <time>2022-02-08T08:32:32Z</time>
      </trkpt>
      <trkpt lat="41.9302220" lon="-2.8877820">
        <ele>1204.6</ele>
        <time>2022-02-08T08:32:33Z</time>
      </trkpt>
      <trkpt lat="41.9302630" lon="-2.8878400">
        <ele>1204.5</ele>
        <time>2022-02-08T08:32:34Z</time>
      </trkpt>
      <trkpt lat="41.9303070" lon="-2.8878950">
        <ele>1204.4</ele>
        <time>2022-02-08T08:32:35Z</time>
      </trkpt>
      <trkpt lat="41.9303450" lon="-2.8879370">
        <ele>1204.2</ele>
        <time>2022-02-08T08:32:36Z</time>
      </trkpt>
      <trkpt lat="41.9304070" lon="-2.8879880">
        <ele>1204.0</ele>
        <time>2022-02-08T08:32:37Z</time>
      </trkpt>
      <trkpt lat="41.9304630" lon="-2.8880230">
        <ele>1203.7</ele>
        <time>2022-02-08T08:32:38Z</time>
      </trkpt>
      <trkpt lat="41.9305220" lon="-2.8880550">
        <ele>1203.4</ele>
        <time>2022-02-08T08:32:39Z</time>
      </trkpt>
      <trkpt lat="41.9305820" lon="-2.8880870">
        <ele>1203.0</ele>
        <time>2022-02-08T08:32:40Z</time>
      </trkpt>
      <trkpt lat="41.9306430" lon="-2.8881220">
        <ele>1202.7</ele>
        <time>2022-02-08T08:32:41Z</time>
      </trkpt>
      <trkpt lat="41.9307030" lon="-2.8881600">
        <ele>1202.3</ele>
        <time>2022-02-08T08:32:42Z</time>
      </trkpt>
      <trkpt lat="41.9307670" lon="-2.8882050">
        <ele>1201.8</ele>
        <time>2022-02-08T08:32:43Z</time>
      </trkpt>
      <trkpt lat="41.9308300" lon="-2.8882550">
        <ele>1201.4</ele>
        <time>2022-02-08T08:32:44Z</time>
      </trkpt>
      <trkpt lat="41.9308920" lon="-2.8883080">
        <ele>1200.8</ele>
        <time>2022-02-08T08:32:45Z</time>
      </trkpt>
      <trkpt lat="41.9309550" lon="-2.8883680">
        <ele>1200.3</ele>
        <time>2022-02-08T08:32:46Z</time>
      </trkpt>
      <trkpt lat="41.9310150" lon="-2.8884350">
        <ele>1199.6</ele>
        <time>2022-02-08T08:32:47Z</time>
      </trkpt>
      <trkpt lat="41.9310780" lon="-2.8885050">
        <ele>1198.8</ele>
        <time>2022-02-08T08:32:48Z</time>
      </trkpt>
      <trkpt lat="41.9311470" lon="-2.8885770">
        <ele>1197.9</ele>
        <time>2022-02-08T08:32:49Z</time>
      </trkpt>
      <trkpt lat="41.9312220" lon="-2.8886470">
        <ele>1196.9</ele>
        <time>2022-02-08T08:32:50Z</time>
      </trkpt>
      <trkpt lat="41.9313070" lon="-2.8887070">
        <ele>1195.8</ele>
        <time>2022-02-08T08:32:51Z</time>
      </trkpt>
      <trkpt lat="41.9314000" lon="-2.8887520">
        <ele>1194.6</ele>
        <time>2022-02-08T08:32:52Z</time>
      </trkpt>
      <trkpt lat="41.9314980" lon="-2.8887720">
        <ele>1193.5</ele>
        <time>2022-02-08T08:32:53Z</time>
      </trkpt>
      <trkpt lat="41.9315950" lon="-2.8887650">
        <ele>1192.3</ele>
        <time>2022-02-08T08:32:54Z</time>
      </trkpt>
      <trkpt lat="41.9316850" lon="-2.8887280">
        <ele>1191.1</ele>
        <time>2022-02-08T08:32:55Z</time>
      </trkpt>
      <trkpt lat="41.9317630" lon="-2.8886630">
        <ele>1189.9</ele>
        <time>2022-02-08T08:32:56Z</time>
      </trkpt>
      <trkpt lat="41.9318280" lon="-2.8885800">
        <ele>1188.8</ele>
        <time>2022-02-08T08:32:57Z</time>
      </trkpt>
      <trkpt lat="41.9318970" lon="-2.8885030">
        <ele>1187.7</ele>
        <time>2022-02-08T08:32:58Z</time>
      </trkpt>
      <trkpt lat="41.9319650" lon="-2.8884380">
        <ele>1185.6</ele>
        <time>2022-02-08T08:32:59Z</time>
      </trkpt>
      <trkpt lat="41.9320470" lon="-2.8884020">
        <ele>1185.1</ele>
        <time>2022-02-08T08:33:00Z</time>
      </trkpt>
      <trkpt lat="41.9321380" lon="-2.8884030">
        <ele>1184.4</ele>
        <time>2022-02-08T08:33:01Z</time>
      </trkpt>
      <trkpt lat="41.9322270" lon="-2.8884120">
        <ele>1183.8</ele>
        <time>2022-02-08T08:33:02Z</time>
      </trkpt>
      <trkpt lat="41.9323200" lon="-2.8884270">
        <ele>1183.2</ele>
        <time>2022-02-08T08:33:03Z</time>
      </trkpt>
      <trkpt lat="41.9324120" lon="-2.8884450">
        <ele>1182.5</ele>
        <time>2022-02-08T08:33:04Z</time>
      </trkpt>
      <trkpt lat="41.9325070" lon="-2.8884670">
        <ele>1181.8</ele>
        <time>2022-02-08T08:33:05Z</time>
      </trkpt>
      <trkpt lat="41.9326020" lon="-2.8884950">
        <ele>1181.2</ele>
        <time>2022-02-08T08:33:06Z</time>
      </trkpt>
      <trkpt lat="41.9326980" lon="-2.8885330">
        <ele>1180.5</ele>
        <time>2022-02-08T08:33:07Z</time>
      </trkpt>
      <trkpt lat="41.9327970" lon="-2.8885780">
        <ele>1179.9</ele>
        <time>2022-02-08T08:33:08Z</time>
      </trkpt>
      <trkpt lat="41.9328900" lon="-2.8886330">
        <ele>1179.3</ele>
        <time>2022-02-08T08:33:09Z</time>
      </trkpt>
      <trkpt lat="41.9329850" lon="-2.8886950">
        <ele>1178.7</ele>
        <time>2022-02-08T08:33:10Z</time>
      </trkpt>
      <trkpt lat="41.9330780" lon="-2.8887600">
        <ele>1178.2</ele>
        <time>2022-02-08T08:33:11Z</time>
      </trkpt>
      <trkpt lat="41.9331720" lon="-2.8888270">
        <ele>1177.7</ele>
        <time>2022-02-08T08:33:12Z</time>
      </trkpt>
      <trkpt lat="41.9332700" lon="-2.8888900">
        <ele>1177.2</ele>
        <time>2022-02-08T08:33:13Z</time>
      </trkpt>
      <trkpt lat="41.9333700" lon="-2.8889400">
        <ele>1176.8</ele>
        <time>2022-02-08T08:33:14Z</time>
      </trkpt>
      <trkpt lat="41.9334720" lon="-2.8889680">
        <ele>1176.5</ele>
        <time>2022-02-08T08:33:15Z</time>
      </trkpt>
      <trkpt lat="41.9335730" lon="-2.8889770">
        <ele>1176.4</ele>
        <time>2022-02-08T08:33:16Z</time>
      </trkpt>
      <trkpt lat="41.9336730" lon="-2.8889770">
        <ele>1176.3</ele>
        <time>2022-02-08T08:33:17Z</time>
      </trkpt>
      <trkpt lat="41.9337680" lon="-2.8889700">
        <ele>1176.3</ele>
        <time>2022-02-08T08:33:18Z</time>
      </trkpt>
      <trkpt lat="41.9338600" lon="-2.8889630">
        <ele>1176.3</ele>
        <time>2022-02-08T08:33:19Z</time>
      </trkpt>
      <trkpt lat="41.9339470" lon="-2.8889580">
        <ele>1176.5</ele>
        <time>2022-02-08T08:33:20Z</time>
      </trkpt>
      <trkpt lat="41.9340320" lon="-2.8889580">
        <ele>1176.7</ele>
        <time>2022-02-08T08:33:21Z</time>
      </trkpt>
      <trkpt lat="41.9341120" lon="-2.8889620">
        <ele>1177.0</ele>
        <time>2022-02-08T08:33:22Z</time>
      </trkpt>
      <trkpt lat="41.9341870" lon="-2.8889670">
        <ele>1177.3</ele>
        <time>2022-02-08T08:33:23Z</time>
      </trkpt>
      <trkpt lat="41.9342580" lon="-2.8889720">
        <ele>1177.7</ele>
        <time>2022-02-08T08:33:24Z</time>
      </trkpt>
      <trkpt lat="41.9343250" lon="-2.8889750">
        <ele>1178.2</ele>
        <time>2022-02-08T08:33:25Z</time>
      </trkpt>
      <trkpt lat="41.9343850" lon="-2.8889750">
        <ele>1178.6</ele>
        <time>2022-02-08T08:33:26Z</time>
      </trkpt>
      <trkpt lat="41.9344400" lon="-2.8889730">
        <ele>1179.0</ele>
        <time>2022-02-08T08:33:27Z</time>
      </trkpt>
      <trkpt lat="41.9344920" lon="-2.8889750">
        <ele>1179.4</ele>
        <time>2022-02-08T08:33:28Z</time>
      </trkpt>
      <trkpt lat="41.9345380" lon="-2.8889720">
        <ele>1179.7</ele>
        <time>2022-02-08T08:33:29Z</time>
      </trkpt>
      <trkpt lat="41.9345820" lon="-2.8889630">
        <ele>1180.0</ele>
        <time>2022-02-08T08:33:30Z</time>
      </trkpt>
      <trkpt lat="41.9346200" lon="-2.8889470">
        <ele>1180.3</ele>
        <time>2022-02-08T08:33:31Z</time>
      </trkpt>
      <trkpt lat="41.9346550" lon="-2.8889200">
        <ele>1180.6</ele>
        <time>2022-02-08T08:33:32Z</time>
      </trkpt>
      <trkpt lat="41.9346830" lon="-2.8888850">
        <ele>1180.8</ele>
        <time>2022-02-08T08:33:33Z</time>
      </trkpt>
      <trkpt lat="41.9347070" lon="-2.8888470">
        <ele>1181.1</ele>
        <time>2022-02-08T08:33:34Z</time>
      </trkpt>
      <trkpt lat="41.9347250" lon="-2.8888070">
        <ele>1181.3</ele>
        <time>2022-02-08T08:33:35Z</time>
      </trkpt>
      <trkpt lat="41.9347380" lon="-2.8887620">
        <ele>1181.6</ele>
        <time>2022-02-08T08:33:36Z</time>
      </trkpt>
      <trkpt lat="41.9347480" lon="-2.8887150">
        <ele>1181.8</ele>
        <time>2022-02-08T08:33:37Z</time>
      </trkpt>
      <trkpt lat="41.9347550" lon="-2.8886680">
        <ele>1182.0</ele>
        <time>2022-02-08T08:33:38Z</time>
      </trkpt>
      <trkpt lat="41.9347620" lon="-2.8886250">
        <ele>1182.2</ele>
        <time>2022-02-08T08:33:39Z</time>
      </trkpt>
      <trkpt lat="41.9347700" lon="-2.8885820">
        <ele>1182.4</ele>
        <time>2022-02-08T08:33:40Z</time>
      </trkpt>
      <trkpt lat="41.9347800" lon="-2.8885380">
        <ele>1182.6</ele>
        <time>2022-02-08T08:33:41Z</time>
      </trkpt>
      <trkpt lat="41.9347930" lon="-2.8884980">
        <ele>1182.8</ele>
        <time>2022-02-08T08:33:42Z</time>
      </trkpt>
      <trkpt lat="41.9348130" lon="-2.8884650">
        <ele>1182.9</ele>
        <time>2022-02-08T08:33:43Z</time>
      </trkpt>
      <trkpt lat="41.9348370" lon="-2.8884430">
        <ele>1183.1</ele>
        <time>2022-02-08T08:33:44Z</time>
      </trkpt>
      <trkpt lat="41.9348630" lon="-2.8884330">
        <ele>1183.2</ele>
        <time>2022-02-08T08:33:45Z</time>
      </trkpt>
      <trkpt lat="41.9348870" lon="-2.8884420">
        <ele>1183.3</ele>
        <time>2022-02-08T08:33:46Z</time>
      </trkpt>
      <trkpt lat="41.9348980" lon="-2.8884650">
        <ele>1183.3</ele>
        <time>2022-02-08T08:33:47Z</time>
      </trkpt>
      <trkpt lat="41.9348980" lon="-2.8885020">
        <ele>1183.4</ele>
        <time>2022-02-08T08:33:48Z</time>
      </trkpt>
      <trkpt lat="41.9348880" lon="-2.8885480">
        <ele>1183.5</ele>
        <time>2022-02-08T08:33:49Z</time>
      </trkpt>
      <trkpt lat="41.9348770" lon="-2.8886020">
        <ele>1183.5</ele>
        <time>2022-02-08T08:33:50Z</time>
      </trkpt>
      <trkpt lat="41.9348670" lon="-2.8886580">
        <ele>1183.6</ele>
        <time>2022-02-08T08:33:51Z</time>
      </trkpt>
      <trkpt lat="41.9348620" lon="-2.8887170">
        <ele>1183.7</ele>
        <time>2022-02-08T08:33:52Z</time>
      </trkpt>
      <trkpt lat="41.9348570" lon="-2.8887880">
        <ele>1183.9</ele>
        <time>2022-02-08T08:33:53Z</time>
      </trkpt>
      <trkpt lat="41.9348550" lon="-2.8888500">
        <ele>1183.9</ele>
        <time>2022-02-08T08:33:54Z</time>
      </trkpt>
      <trkpt lat="41.9348580" lon="-2.8889120">
        <ele>1184.0</ele>
        <time>2022-02-08T08:33:55Z</time>
      </trkpt>
      <trkpt lat="41.9348650" lon="-2.8889680">
        <ele>1184.1</ele>
        <time>2022-02-08T08:33:56Z</time>
      </trkpt>
      <trkpt lat="41.9348750" lon="-2.8890200">
        <ele>1184.1</ele>
        <time>2022-02-08T08:33:57Z</time>
      </trkpt>
      <trkpt lat="41.9348880" lon="-2.8890720">
        <ele>1184.2</ele>
        <time>2022-02-08T08:33:58Z</time>
      </trkpt>
      <trkpt lat="41.9349050" lon="-2.8891200">
        <ele>1184.3</ele>
        <time>2022-02-08T08:33:59Z</time>
      </trkpt>
      <trkpt lat="41.9349220" lon="-2.8891670">
        <ele>1184.4</ele>
        <time>2022-02-08T08:34:00Z</time>
      </trkpt>
      <trkpt lat="41.9349380" lon="-2.8892130">
        <ele>1184.5</ele>
        <time>2022-02-08T08:34:01Z</time>
      </trkpt>
      <trkpt lat="41.9349550" lon="-2.8892620">
        <ele>1184.7</ele>
        <time>2022-02-08T08:34:02Z</time>
      </trkpt>
      <trkpt lat="41.9349720" lon="-2.8893080">
        <ele>1184.8</ele>
        <time>2022-02-08T08:34:03Z</time>
      </trkpt>
      <trkpt lat="41.9349880" lon="-2.8893570">
        <ele>1184.9</ele>
        <time>2022-02-08T08:34:04Z</time>
      </trkpt>
      <trkpt lat="41.9350050" lon="-2.8894050">
        <ele>1185.0</ele>
        <time>2022-02-08T08:34:05Z</time>
      </trkpt>
      <trkpt lat="41.9350180" lon="-2.8894520">
        <ele>1185.1</ele>
        <time>2022-02-08T08:34:06Z</time>
      </trkpt>
      <trkpt lat="41.9350350" lon="-2.8894980">
        <ele>1185.2</ele>
        <time>2022-02-08T08:34:07Z</time>
      </trkpt>
      <trkpt lat="41.9350520" lon="-2.8895420">
        <ele>1185.3</ele>
        <time>2022-02-08T08:34:08Z</time>
      </trkpt>
      <trkpt lat="41.9350720" lon="-2.8895820">
        <ele>1185.3</ele>
        <time>2022-02-08T08:34:09Z</time>
      </trkpt>
      <trkpt lat="41.9350920" lon="-2.8896230">
        <ele>1185.4</ele>
        <time>2022-02-08T08:34:10Z</time>
      </trkpt>
      <trkpt lat="41.9351120" lon="-2.8896630">
        <ele>1185.4</ele>
        <time>2022-02-08T08:34:11Z</time>
      </trkpt>
      <trkpt lat="41.9351320" lon="-2.8897070">
        <ele>1185.5</ele>
        <time>2022-02-08T08:34:12Z</time>
      </trkpt>
      <trkpt lat="41.9351530" lon="-2.8897480">
        <ele>1185.5</ele>
        <time>2022-02-08T08:34:13Z</time>
      </trkpt>
      <trkpt lat="41.9351820" lon="-2.8897900">
        <ele>1185.5</ele>
        <time>2022-02-08T08:34:14Z</time>
      </trkpt>
      <trkpt lat="41.9352120" lon="-2.8898270">
        <ele>1185.6</ele>
        <time>2022-02-08T08:34:15Z</time>
      </trkpt>
      <trkpt lat="41.9352430" lon="-2.8898600">
        <ele>1185.5</ele>
        <time>2022-02-08T08:34:16Z</time>
      </trkpt>
      <trkpt lat="41.9352770" lon="-2.8898900">
        <ele>1185.5</ele>
        <time>2022-02-08T08:34:17Z</time>
      </trkpt>
      <trkpt lat="41.9353120" lon="-2.8899230">
        <ele>1185.5</ele>
        <time>2022-02-08T08:34:18Z</time>
      </trkpt>
      <trkpt lat="41.9353470" lon="-2.8899580">
        <ele>1185.4</ele>
        <time>2022-02-08T08:34:19Z</time>
      </trkpt>
      <trkpt lat="41.9353820" lon="-2.8899980">
        <ele>1185.4</ele>
        <time>2022-02-08T08:34:20Z</time>
      </trkpt>
      <trkpt lat="41.9354130" lon="-2.8900400">
        <ele>1185.4</ele>
        <time>2022-02-08T08:34:21Z</time>
      </trkpt>
      <trkpt lat="41.9354450" lon="-2.8900800">
        <ele>1185.3</ele>
        <time>2022-02-08T08:34:22Z</time>
      </trkpt>
      <trkpt lat="41.9354730" lon="-2.8901230">
        <ele>1185.3</ele>
        <time>2022-02-08T08:34:23Z</time>
      </trkpt>
      <trkpt lat="41.9355020" lon="-2.8901700">
        <ele>1185.2</ele>
        <time>2022-02-08T08:34:24Z</time>
      </trkpt>
      <trkpt lat="41.9355250" lon="-2.8902200">
        <ele>1185.1</ele>
        <time>2022-02-08T08:34:25Z</time>
      </trkpt>
      <trkpt lat="41.9355470" lon="-2.8902730">
        <ele>1185.0</ele>
        <time>2022-02-08T08:34:26Z</time>
      </trkpt>
      <trkpt lat="41.9355680" lon="-2.8903280">
        <ele>1184.9</ele>
        <time>2022-02-08T08:34:27Z</time>
      </trkpt>
      <trkpt lat="41.9355920" lon="-2.8903880">
        <ele>1184.8</ele>
        <time>2022-02-08T08:34:28Z</time>
      </trkpt>
      <trkpt lat="41.9356130" lon="-2.8904480">
        <ele>1184.7</ele>
        <time>2022-02-08T08:34:29Z</time>
      </trkpt>
      <trkpt lat="41.9356370" lon="-2.8905080">
        <ele>1184.6</ele>
        <time>2022-02-08T08:34:30Z</time>
      </trkpt>
      <trkpt lat="41.9356570" lon="-2.8905670">
        <ele>1184.5</ele>
        <time>2022-02-08T08:34:31Z</time>
      </trkpt>
      <trkpt lat="41.9356780" lon="-2.8906280">
        <ele>1184.3</ele>
        <time>2022-02-08T08:34:32Z</time>
      </trkpt>
      <trkpt lat="41.9356980" lon="-2.8906880">
        <ele>1184.2</ele>
        <time>2022-02-08T08:34:33Z</time>
      </trkpt>
      <trkpt lat="41.9357170" lon="-2.8907500">
        <ele>1184.1</ele>
        <time>2022-02-08T08:34:34Z</time>
      </trkpt>
      <trkpt lat="41.9357380" lon="-2.8908150">
        <ele>1184.0</ele>
        <time>2022-02-08T08:34:35Z</time>
      </trkpt>
      <trkpt lat="41.9357620" lon="-2.8908800">
        <ele>1183.9</ele>
        <time>2022-02-08T08:34:36Z</time>
      </trkpt>
      <trkpt lat="41.9357880" lon="-2.8909450">
        <ele>1183.8</ele>
        <time>2022-02-08T08:34:37Z</time>
      </trkpt>
      <trkpt lat="41.9358150" lon="-2.8910080">
        <ele>1183.6</ele>
        <time>2022-02-08T08:34:38Z</time>
      </trkpt>
      <trkpt lat="41.9358430" lon="-2.8910700">
        <ele>1183.4</ele>
        <time>2022-02-08T08:34:39Z</time>
      </trkpt>
      <trkpt lat="41.9358700" lon="-2.8911350">
        <ele>1183.2</ele>
        <time>2022-02-08T08:34:40Z</time>
      </trkpt>
      <trkpt lat="41.9359020" lon="-2.8912050">
        <ele>1183.0</ele>
        <time>2022-02-08T08:34:41Z</time>
      </trkpt>
      <trkpt lat="41.9359330" lon="-2.8912770">
        <ele>1182.8</ele>
        <time>2022-02-08T08:34:42Z</time>
      </trkpt>
      <trkpt lat="41.9359670" lon="-2.8913530">
        <ele>1182.5</ele>
        <time>2022-02-08T08:34:43Z</time>
      </trkpt>
      <trkpt lat="41.9359970" lon="-2.8914350">
        <ele>1182.2</ele>
        <time>2022-02-08T08:34:44Z</time>
      </trkpt>
      <trkpt lat="41.9360250" lon="-2.8915180">
        <ele>1182.0</ele>
        <time>2022-02-08T08:34:45Z</time>
      </trkpt>
      <trkpt lat="41.9360480" lon="-2.8916050">
        <ele>1181.8</ele>
        <time>2022-02-08T08:34:46Z</time>
      </trkpt>
      <trkpt lat="41.9360700" lon="-2.8916930">
        <ele>1181.6</ele>
        <time>2022-02-08T08:34:47Z</time>
      </trkpt>
      <trkpt lat="41.9360920" lon="-2.8917780">
        <ele>1181.5</ele>
        <time>2022-02-08T08:34:48Z</time>
      </trkpt>
      <trkpt lat="41.9361170" lon="-2.8918600">
        <ele>1181.4</ele>
        <time>2022-02-08T08:34:49Z</time>
      </trkpt>
      <trkpt lat="41.9361430" lon="-2.8919380">
        <ele>1181.4</ele>
        <time>2022-02-08T08:34:50Z</time>
      </trkpt>
      <trkpt lat="41.9361770" lon="-2.8920130">
        <ele>1181.3</ele>
        <time>2022-02-08T08:34:51Z</time>
      </trkpt>
      <trkpt lat="41.9362150" lon="-2.8920850">
        <ele>1181.3</ele>
        <time>2022-02-08T08:34:52Z</time>
      </trkpt>
      <trkpt lat="41.9362570" lon="-2.8921480">
        <ele>1181.3</ele>
        <time>2022-02-08T08:34:53Z</time>
      </trkpt>
      <trkpt lat="41.9363000" lon="-2.8922100">
        <ele>1181.2</ele>
        <time>2022-02-08T08:34:54Z</time>
      </trkpt>
      <trkpt lat="41.9363450" lon="-2.8922630">
        <ele>1181.2</ele>
        <time>2022-02-08T08:34:55Z</time>
      </trkpt>
      <trkpt lat="41.9363920" lon="-2.8923130">
        <ele>1181.1</ele>
        <time>2022-02-08T08:34:56Z</time>
      </trkpt>
      <trkpt lat="41.9364380" lon="-2.8923620">
        <ele>1181.0</ele>
        <time>2022-02-08T08:34:57Z</time>
      </trkpt>
      <trkpt lat="41.9364850" lon="-2.8924070">
        <ele>1180.9</ele>
        <time>2022-02-08T08:34:58Z</time>
      </trkpt>
      <trkpt lat="41.9365320" lon="-2.8924480">
        <ele>1180.8</ele>
        <time>2022-02-08T08:34:59Z</time>
      </trkpt>
      <trkpt lat="41.9365780" lon="-2.8924900">
        <ele>1180.7</ele>
        <time>2022-02-08T08:35:00Z</time>
      </trkpt>
      <trkpt lat="41.9366230" lon="-2.8925330">
        <ele>1180.6</ele>
        <time>2022-02-08T08:35:01Z</time>
      </trkpt>
      <trkpt lat="41.9366670" lon="-2.8925830">
        <ele>1180.6</ele>
        <time>2022-02-08T08:35:02Z</time>
      </trkpt>
      <trkpt lat="41.9367080" lon="-2.8926350">
        <ele>1180.5</ele>
        <time>2022-02-08T08:35:03Z</time>
      </trkpt>
      <trkpt lat="41.9367530" lon="-2.8926850">
        <ele>1180.5</ele>
        <time>2022-02-08T08:35:04Z</time>
      </trkpt>
      <trkpt lat="41.9367970" lon="-2.8927330">
        <ele>1180.5</ele>
        <time>2022-02-08T08:35:05Z</time>
      </trkpt>
      <trkpt lat="41.9368370" lon="-2.8927830">
        <ele>1180.6</ele>
        <time>2022-02-08T08:35:06Z</time>
      </trkpt>
      <trkpt lat="41.9368700" lon="-2.8928350">
        <ele>1180.6</ele>
        <time>2022-02-08T08:35:07Z</time>
      </trkpt>
      <trkpt lat="41.9368930" lon="-2.8928930">
        <ele>1180.7</ele>
        <time>2022-02-08T08:35:08Z</time>
      </trkpt>
      <trkpt lat="41.9369100" lon="-2.8929530">
        <ele>1180.6</ele>
        <time>2022-02-08T08:35:09Z</time>
      </trkpt>
      <trkpt lat="41.9369250" lon="-2.8930170">
        <ele>1180.5</ele>
        <time>2022-02-08T08:35:10Z</time>
      </trkpt>
      <trkpt lat="41.9369330" lon="-2.8930820">
        <ele>1180.5</ele>
        <time>2022-02-08T08:35:11Z</time>
      </trkpt>
      <trkpt lat="41.9369420" lon="-2.8931470">
        <ele>1180.4</ele>
        <time>2022-02-08T08:35:12Z</time>
      </trkpt>
      <trkpt lat="41.9369480" lon="-2.8932170">
        <ele>1180.3</ele>
        <time>2022-02-08T08:35:13Z</time>
      </trkpt>
      <trkpt lat="41.9369570" lon="-2.8932830">
        <ele>1180.2</ele>
        <time>2022-02-08T08:35:14Z</time>
      </trkpt>
      <trkpt lat="41.9369650" lon="-2.8933520">
        <ele>1180.2</ele>
        <time>2022-02-08T08:35:15Z</time>
      </trkpt>
      <trkpt lat="41.9369730" lon="-2.8934170">
        <ele>1180.2</ele>
        <time>2022-02-08T08:35:16Z</time>
      </trkpt>
      <trkpt lat="41.9369830" lon="-2.8934830">
        <ele>1180.2</ele>
        <time>2022-02-08T08:35:17Z</time>
      </trkpt>
      <trkpt lat="41.9369930" lon="-2.8935500">
        <ele>1180.2</ele>
        <time>2022-02-08T08:35:18Z</time>
      </trkpt>
      <trkpt lat="41.9370050" lon="-2.8936170">
        <ele>1180.2</ele>
        <time>2022-02-08T08:35:19Z</time>
      </trkpt>
      <trkpt lat="41.9370200" lon="-2.8936800">
        <ele>1180.2</ele>
        <time>2022-02-08T08:35:20Z</time>
      </trkpt>
      <trkpt lat="41.9370380" lon="-2.8937420">
        <ele>1180.2</ele>
        <time>2022-02-08T08:35:21Z</time>
      </trkpt>
      <trkpt lat="41.9370580" lon="-2.8938030">
        <ele>1180.2</ele>
        <time>2022-02-08T08:35:22Z</time>
      </trkpt>
      <trkpt lat="41.9370780" lon="-2.8938630">
        <ele>1180.2</ele>
        <time>2022-02-08T08:35:23Z</time>
      </trkpt>
      <trkpt lat="41.9370970" lon="-2.8939220">
        <ele>1180.3</ele>
        <time>2022-02-08T08:35:24Z</time>
      </trkpt>
      <trkpt lat="41.9371120" lon="-2.8939780">
        <ele>1180.4</ele>
        <time>2022-02-08T08:35:25Z</time>
      </trkpt>
      <trkpt lat="41.9371270" lon="-2.8940350">
        <ele>1180.4</ele>
        <time>2022-02-08T08:35:26Z</time>
      </trkpt>
      <trkpt lat="41.9371400" lon="-2.8940930">
        <ele>1180.5</ele>
        <time>2022-02-08T08:35:27Z</time>
      </trkpt>
      <trkpt lat="41.9371520" lon="-2.8941520">
        <ele>1180.6</ele>
        <time>2022-02-08T08:35:28Z</time>
      </trkpt>
      <trkpt lat="41.9371630" lon="-2.8942100">
        <ele>1180.7</ele>
        <time>2022-02-08T08:35:29Z</time>
      </trkpt>
      <trkpt lat="41.9371720" lon="-2.8942650">
        <ele>1180.8</ele>
        <time>2022-02-08T08:35:30Z</time>
      </trkpt>
      <trkpt lat="41.9371800" lon="-2.8943200">
        <ele>1181.0</ele>
        <time>2022-02-08T08:35:31Z</time>
      </trkpt>
      <trkpt lat="41.9371880" lon="-2.8943700">
        <ele>1181.1</ele>
        <time>2022-02-08T08:35:32Z</time>
      </trkpt>
      <trkpt lat="41.9371930" lon="-2.8944130">
        <ele>1181.2</ele>
        <time>2022-02-08T08:35:33Z</time>
      </trkpt>
      <trkpt lat="41.9371950" lon="-2.8944450">
        <ele>1181.3</ele>
        <time>2022-02-08T08:35:34Z</time>
      </trkpt>
      <trkpt lat="41.9371970" lon="-2.8944630">
        <ele>1181.3</ele>
        <time>2022-02-08T08:35:35Z</time>
      </trkpt>
      <trkpt lat="41.9371970" lon="-2.8944780">
        <ele>1181.3</ele>
        <time>2022-02-08T08:35:36Z</time>
      </trkpt>
      <trkpt lat="41.9371980" lon="-2.8944820">
        <ele>1181.3</ele>
        <time>2022-02-08T08:35:37Z</time>
      </trkpt>
      <trkpt lat="41.9371970" lon="-2.8944780">
        <ele>1181.3</ele>
        <time>2022-02-08T08:35:38Z</time>
      </trkpt>
      <trkpt lat="41.9371930" lon="-2.8944720">
        <ele>1181.3</ele>
        <time>2022-02-08T08:35:39Z</time>
      </trkpt>
      <trkpt lat="41.9371920" lon="-2.8944670">
        <ele>1181.3</ele>
        <time>2022-02-08T08:35:40Z</time>
      </trkpt>
      <trkpt lat="41.9371900" lon="-2.8944670">
        <ele>1181.3</ele>
        <time>2022-02-08T08:35:41Z</time>
      </trkpt>
      <trkpt lat="41.9371900" lon="-2.8944680">
        <ele>1181.3</ele>
        <time>2022-02-08T08:35:42Z</time>
      </trkpt>
      <trkpt lat="41.9371880" lon="-2.8944730">
        <ele>1181.3</ele>
        <time>2022-02-08T08:35:43Z</time>
      </trkpt>
      <trkpt lat="41.9371850" lon="-2.8944780">
        <ele>1181.4</ele>
        <time>2022-02-08T08:35:44Z</time>
      </trkpt>
      <trkpt lat="41.9371820" lon="-2.8944770">
        <ele>1181.4</ele>
        <time>2022-02-08T08:35:45Z</time>
      </trkpt>
      <trkpt lat="41.9371800" lon="-2.8944770">
        <ele>1181.4</ele>
        <time>2022-02-08T08:35:46Z</time>
      </trkpt>
      <trkpt lat="41.9371820" lon="-2.8944750">
        <ele>1181.4</ele>
        <time>2022-02-08T08:35:47Z</time>
      </trkpt>
      <trkpt lat="41.9371830" lon="-2.8944750">
        <ele>1181.4</ele>
        <time>2022-02-08T08:35:48Z</time>
      </trkpt>
      <trkpt lat="41.9371780" lon="-2.8944750">
        <ele>1181.4</ele>
        <time>2022-02-08T08:35:49Z</time>
      </trkpt>
      <trkpt lat="41.9371680" lon="-2.8944800">
        <ele>1181.4</ele>
        <time>2022-02-08T08:35:50Z</time>
      </trkpt>
      <trkpt lat="41.9371580" lon="-2.8944930">
        <ele>1181.4</ele>
        <time>2022-02-08T08:35:51Z</time>
      </trkpt>
      <trkpt lat="41.9371480" lon="-2.8945130">
        <ele>1181.4</ele>
        <time>2022-02-08T08:35:52Z</time>
      </trkpt>
      <trkpt lat="41.9371420" lon="-2.8945420">
        <ele>1181.3</ele>
        <time>2022-02-08T08:35:53Z</time>
      </trkpt>
      <trkpt lat="41.9371330" lon="-2.8945800">
        <ele>1181.3</ele>
        <time>2022-02-08T08:35:54Z</time>
      </trkpt>
      <trkpt lat="41.9371250" lon="-2.8946200">
        <ele>1181.2</ele>
        <time>2022-02-08T08:35:55Z</time>
      </trkpt>
      <trkpt lat="41.9371150" lon="-2.8946670">
        <ele>1181.2</ele>
        <time>2022-02-08T08:35:56Z</time>
      </trkpt>
      <trkpt lat="41.9371030" lon="-2.8947170">
        <ele>1181.1</ele>
        <time>2022-02-08T08:35:57Z</time>
      </trkpt>
      <trkpt lat="41.9370900" lon="-2.8947700">
        <ele>1181.0</ele>
        <time>2022-02-08T08:35:58Z</time>
      </trkpt>
      <trkpt lat="41.9370780" lon="-2.8948230">
        <ele>1181.0</ele>
        <time>2022-02-08T08:35:59Z</time>
      </trkpt>
      <trkpt lat="41.9370650" lon="-2.8948750">
        <ele>1180.9</ele>
        <time>2022-02-08T08:36:00Z</time>
      </trkpt>
      <trkpt lat="41.9370530" lon="-2.8949270">
        <ele>1180.8</ele>
        <time>2022-02-08T08:36:01Z</time>
      </trkpt>
      <trkpt lat="41.9370430" lon="-2.8949780">
        <ele>1180.8</ele>
        <time>2022-02-08T08:36:02Z</time>
      </trkpt>
      <trkpt lat="41.9370350" lon="-2.8950300">
        <ele>1180.7</ele>
        <time>2022-02-08T08:36:03Z</time>
      </trkpt>
      <trkpt lat="41.9370300" lon="-2.8950800">
        <ele>1180.6</ele>
        <time>2022-02-08T08:36:04Z</time>
      </trkpt>
      <trkpt lat="41.9370250" lon="-2.8951300">
        <ele>1180.5</ele>
        <time>2022-02-08T08:36:05Z</time>
      </trkpt>
      <trkpt lat="41.9370220" lon="-2.8951780">
        <ele>1180.4</ele>
        <time>2022-02-08T08:36:06Z</time>
      </trkpt>
      <trkpt lat="41.9370150" lon="-2.8952230">
        <ele>1180.4</ele>
        <time>2022-02-08T08:36:07Z</time>
      </trkpt>
      <trkpt lat="41.9370050" lon="-2.8952720">
        <ele>1180.3</ele>
        <time>2022-02-08T08:36:08Z</time>
      </trkpt>
      <trkpt lat="41.9369950" lon="-2.8953200">
        <ele>1180.2</ele>
        <time>2022-02-08T08:36:09Z</time>
      </trkpt>
      <trkpt lat="41.9369870" lon="-2.8953770">
        <ele>1180.1</ele>
        <time>2022-02-08T08:36:10Z</time>
      </trkpt>
      <trkpt lat="41.9369780" lon="-2.8954380">
        <ele>1180.0</ele>
        <time>2022-02-08T08:36:11Z</time>
      </trkpt>
      <trkpt lat="41.9369680" lon="-2.8955020">
        <ele>1179.9</ele>
        <time>2022-02-08T08:36:12Z</time>
      </trkpt>
      <trkpt lat="41.9369620" lon="-2.8955580">
        <ele>1179.9</ele>
        <time>2022-02-08T08:36:13Z</time>
      </trkpt>
      <trkpt lat="41.9369550" lon="-2.8956050">
        <ele>1179.9</ele>
        <time>2022-02-08T08:36:14Z</time>
      </trkpt>
      <trkpt lat="41.9369470" lon="-2.8956380">
        <ele>1179.9</ele>
        <time>2022-02-08T08:36:15Z</time>
      </trkpt>
      <trkpt lat="41.9369400" lon="-2.8956570">
        <ele>1179.9</ele>
        <time>2022-02-08T08:36:16Z</time>
      </trkpt>
      <trkpt lat="41.9369350" lon="-2.8956680">
        <ele>1179.9</ele>
        <time>2022-02-08T08:36:17Z</time>
      </trkpt>
      <trkpt lat="41.9369300" lon="-2.8956730">
        <ele>1179.9</ele>
        <time>2022-02-08T08:36:18Z</time>
      </trkpt>
      <trkpt lat="41.9369270" lon="-2.8956800">
        <ele>1179.9</ele>
        <time>2022-02-08T08:36:19Z</time>
      </trkpt>
      <trkpt lat="41.9369250" lon="-2.8956870">
        <ele>1179.9</ele>
        <time>2022-02-08T08:36:20Z</time>
      </trkpt>
      <trkpt lat="41.9369250" lon="-2.8956980">
        <ele>1179.9</ele>
        <time>2022-02-08T08:36:21Z</time>
      </trkpt>
      <trkpt lat="41.9369250" lon="-2.8957120">
        <ele>1179.9</ele>
        <time>2022-02-08T08:36:22Z</time>
      </trkpt>
      <trkpt lat="41.9369230" lon="-2.8957200">
        <ele>1179.9</ele>
        <time>2022-02-08T08:36:23Z</time>
      </trkpt>
      <trkpt lat="41.9369250" lon="-2.8957250">
        <ele>1179.9</ele>
        <time>2022-02-08T08:36:24Z</time>
      </trkpt>
      <trkpt lat="41.9369250" lon="-2.8957320">
        <ele>1179.9</ele>
        <time>2022-02-08T08:36:25Z</time>
      </trkpt>
      <trkpt lat="41.9369250" lon="-2.8957370">
        <ele>1179.9</ele>
        <time>2022-02-08T08:36:26Z</time>
      </trkpt>
      <trkpt lat="41.9369250" lon="-2.8957400">
        <ele>1179.9</ele>
        <time>2022-02-08T08:36:27Z</time>
      </trkpt>
      <trkpt lat="41.9369250" lon="-2.8957420">
        <ele>1179.9</ele>
        <time>2022-02-08T08:36:28Z</time>
      </trkpt>
      <trkpt lat="41.9369250" lon="-2.8957380">
        <ele>1179.9</ele>
        <time>2022-02-08T08:36:29Z</time>
      </trkpt>
      <trkpt lat="41.9369250" lon="-2.8957330">
        <ele>1179.9</ele>
        <time>2022-02-08T08:36:30Z</time>
      </trkpt>
      <trkpt lat="41.9369230" lon="-2.8957370">
        <ele>1179.9</ele>
        <time>2022-02-08T08:36:31Z</time>
      </trkpt>
      <trkpt lat="41.9369220" lon="-2.8957450">
        <ele>1179.9</ele>
        <time>2022-02-08T08:36:32Z</time>
      </trkpt>
      <trkpt lat="41.9369170" lon="-2.8957570">
        <ele>1179.9</ele>
        <time>2022-02-08T08:36:33Z</time>
      </trkpt>
      <trkpt lat="41.9369120" lon="-2.8957720">
        <ele>1180.0</ele>
        <time>2022-02-08T08:36:34Z</time>
      </trkpt>
      <trkpt lat="41.9369050" lon="-2.8957900">
        <ele>1180.0</ele>
        <time>2022-02-08T08:36:35Z</time>
      </trkpt>
      <trkpt lat="41.9369020" lon="-2.8958100">
        <ele>1180.0</ele>
        <time>2022-02-08T08:36:36Z</time>
      </trkpt>
      <trkpt lat="41.9368980" lon="-2.8958350">
        <ele>1180.1</ele>
        <time>2022-02-08T08:36:37Z</time>
      </trkpt>
      <trkpt lat="41.9368950" lon="-2.8958670">
        <ele>1180.2</ele>
        <time>2022-02-08T08:36:38Z</time>
      </trkpt>
      <trkpt lat="41.9368920" lon="-2.8958980">
        <ele>1180.3</ele>
        <time>2022-02-08T08:36:39Z</time>
      </trkpt>
      <trkpt lat="41.9368880" lon="-2.8959320">
        <ele>1180.4</ele>
        <time>2022-02-08T08:36:40Z</time>
      </trkpt>
      <trkpt lat="41.9368780" lon="-2.8959680">
        <ele>1180.5</ele>
        <time>2022-02-08T08:36:41Z</time>
      </trkpt>
      <trkpt lat="41.9368670" lon="-2.8960030">
        <ele>1180.7</ele>
        <time>2022-02-08T08:36:42Z</time>
      </trkpt>
      <trkpt lat="41.9368530" lon="-2.8960350">
        <ele>1180.8</ele>
        <time>2022-02-08T08:36:43Z</time>
      </trkpt>
      <trkpt lat="41.9368370" lon="-2.8960670">
        <ele>1181.0</ele>
        <time>2022-02-08T08:36:44Z</time>
      </trkpt>
      <trkpt lat="41.9368180" lon="-2.8960970">
        <ele>1181.1</ele>
        <time>2022-02-08T08:36:45Z</time>
      </trkpt>
      <trkpt lat="41.9367950" lon="-2.8961230">
        <ele>1181.3</ele>
        <time>2022-02-08T08:36:46Z</time>
      </trkpt>
      <trkpt lat="41.9367700" lon="-2.8961470">
        <ele>1181.5</ele>
        <time>2022-02-08T08:36:47Z</time>
      </trkpt>
      <trkpt lat="41.9367400" lon="-2.8961670">
        <ele>1181.5</ele>
        <time>2022-02-08T08:36:48Z</time>
      </trkpt>
      <trkpt lat="41.9367100" lon="-2.8961850">
        <ele>1181.5</ele>
        <time>2022-02-08T08:36:49Z</time>
      </trkpt>
      <trkpt lat="41.9366800" lon="-2.8962020">
        <ele>1181.5</ele>
        <time>2022-02-08T08:36:50Z</time>
      </trkpt>
      <trkpt lat="41.9366470" lon="-2.8962130">
        <ele>1181.5</ele>
        <time>2022-02-08T08:36:51Z</time>
      </trkpt>
      <trkpt lat="41.9366100" lon="-2.8962230">
        <ele>1181.6</ele>
        <time>2022-02-08T08:36:52Z</time>
      </trkpt>
      <trkpt lat="41.9365670" lon="-2.8962320">
        <ele>1181.6</ele>
        <time>2022-02-08T08:36:53Z</time>
      </trkpt>
      <trkpt lat="41.9365200" lon="-2.8962330">
        <ele>1181.6</ele>
        <time>2022-02-08T08:36:54Z</time>
      </trkpt>
      <trkpt lat="41.9364800" lon="-2.8962280">
        <ele>1181.6</ele>
        <time>2022-02-08T08:36:55Z</time>
      </trkpt>
      <trkpt lat="41.9364470" lon="-2.8962170">
        <ele>1181.6</ele>
        <time>2022-02-08T08:36:56Z</time>
      </trkpt>
      <trkpt lat="41.9364180" lon="-2.8962030">
        <ele>1181.6</ele>
        <time>2022-02-08T08:36:57Z</time>
      </trkpt>
      <trkpt lat="41.9363930" lon="-2.8961870">
        <ele>1181.6</ele>
        <time>2022-02-08T08:36:58Z</time>
      </trkpt>
      <trkpt lat="41.9363680" lon="-2.8961650">
        <ele>1181.8</ele>
        <time>2022-02-08T08:36:59Z</time>
      </trkpt>
      <trkpt lat="41.9363450" lon="-2.8961430">
        <ele>1181.8</ele>
        <time>2022-02-08T08:37:00Z</time>
      </trkpt>
      <trkpt lat="41.9363300" lon="-2.8961170">
        <ele>1181.8</ele>
        <time>2022-02-08T08:37:01Z</time>
      </trkpt>
      <trkpt lat="41.9363180" lon="-2.8960830">
        <ele>1180.6</ele>
        <time>2022-02-08T08:37:02Z</time>
      </trkpt>
      <trkpt lat="41.9363080" lon="-2.8960500">
        <ele>1180.6</ele>
        <time>2022-02-08T08:37:03Z</time>
      </trkpt>
      <trkpt lat="41.9362970" lon="-2.8960150">
        <ele>1180.5</ele>
        <time>2022-02-08T08:37:04Z</time>
      </trkpt>
      <trkpt lat="41.9362800" lon="-2.8959800">
        <ele>1180.5</ele>
        <time>2022-02-08T08:37:05Z</time>
      </trkpt>
      <trkpt lat="41.9362620" lon="-2.8959450">
        <ele>1180.5</ele>
        <time>2022-02-08T08:37:06Z</time>
      </trkpt>
      <trkpt lat="41.9362420" lon="-2.8959100">
        <ele>1180.2</ele>
        <time>2022-02-08T08:37:07Z</time>
      </trkpt>
      <trkpt lat="41.9362220" lon="-2.8958780">
        <ele>1180.2</ele>
        <time>2022-02-08T08:37:08Z</time>
      </trkpt>
      <trkpt lat="41.9362020" lon="-2.8958420">
        <ele>1180.2</ele>
        <time>2022-02-08T08:37:09Z</time>
      </trkpt>
      <trkpt lat="41.9361900" lon="-2.8958080">
        <ele>1180.2</ele>
        <time>2022-02-08T08:37:10Z</time>
      </trkpt>
      <trkpt lat="41.9361730" lon="-2.8957650">
        <ele>1180.2</ele>
        <time>2022-02-08T08:37:11Z</time>
      </trkpt>
      <trkpt lat="41.9361570" lon="-2.8957200">
        <ele>1180.1</ele>
        <time>2022-02-08T08:37:12Z</time>
      </trkpt>
      <trkpt lat="41.9361400" lon="-2.8956770">
        <ele>1180.1</ele>
        <time>2022-02-08T08:37:13Z</time>
      </trkpt>
      <trkpt lat="41.9361230" lon="-2.8956330">
        <ele>1180.6</ele>
        <time>2022-02-08T08:37:14Z</time>
      </trkpt>
      <trkpt lat="41.9361030" lon="-2.8955930">
        <ele>1180.6</ele>
        <time>2022-02-08T08:37:15Z</time>
      </trkpt>
      <trkpt lat="41.9360800" lon="-2.8955570">
        <ele>1180.5</ele>
        <time>2022-02-08T08:37:16Z</time>
      </trkpt>
      <trkpt lat="41.9360550" lon="-2.8955220">
        <ele>1180.5</ele>
        <time>2022-02-08T08:37:17Z</time>
      </trkpt>
      <trkpt lat="41.9360280" lon="-2.8954870">
        <ele>1180.5</ele>
        <time>2022-02-08T08:37:18Z</time>
      </trkpt>
      <trkpt lat="41.9360000" lon="-2.8954500">
        <ele>1180.5</ele>
        <time>2022-02-08T08:37:19Z</time>
      </trkpt>
      <trkpt lat="41.9359720" lon="-2.8954120">
        <ele>1181.5</ele>
        <time>2022-02-08T08:37:20Z</time>
      </trkpt>
      <trkpt lat="41.9359470" lon="-2.8953730">
        <ele>1181.4</ele>
        <time>2022-02-08T08:37:21Z</time>
      </trkpt>
      <trkpt lat="41.9359250" lon="-2.8953330">
        <ele>1181.4</ele>
        <time>2022-02-08T08:37:22Z</time>
      </trkpt>
      <trkpt lat="41.9359030" lon="-2.8952920">
        <ele>1181.4</ele>
        <time>2022-02-08T08:37:23Z</time>
      </trkpt>
      <trkpt lat="41.9358800" lon="-2.8952500">
        <ele>1181.4</ele>
        <time>2022-02-08T08:37:24Z</time>
      </trkpt>
      <trkpt lat="41.9358530" lon="-2.8952130">
        <ele>1182.3</ele>
        <time>2022-02-08T08:37:25Z</time>
      </trkpt>
      <trkpt lat="41.9358250" lon="-2.8951830">
        <ele>1182.3</ele>
        <time>2022-02-08T08:37:26Z</time>
      </trkpt>
      <trkpt lat="41.9357950" lon="-2.8951550">
        <ele>1182.3</ele>
        <time>2022-02-08T08:37:27Z</time>
      </trkpt>
      <trkpt lat="41.9357620" lon="-2.8951280">
        <ele>1182.3</ele>
        <time>2022-02-08T08:37:28Z</time>
      </trkpt>
      <trkpt lat="41.9357280" lon="-2.8951080">
        <ele>1183.3</ele>
        <time>2022-02-08T08:37:29Z</time>
      </trkpt>
      <trkpt lat="41.9356930" lon="-2.8950870">
        <ele>1183.3</ele>
        <time>2022-02-08T08:37:30Z</time>
      </trkpt>
      <trkpt lat="41.9356600" lon="-2.8950620">
        <ele>1183.3</ele>
        <time>2022-02-08T08:37:31Z</time>
      </trkpt>
      <trkpt lat="41.9356320" lon="-2.8950370">
        <ele>1183.3</ele>
        <time>2022-02-08T08:37:32Z</time>
      </trkpt>
      <trkpt lat="41.9356030" lon="-2.8950120">
        <ele>1184.4</ele>
        <time>2022-02-08T08:37:33Z</time>
      </trkpt>
      <trkpt lat="41.9355720" lon="-2.8949880">
        <ele>1184.4</ele>
        <time>2022-02-08T08:37:34Z</time>
      </trkpt>
      <trkpt lat="41.9355430" lon="-2.8949680">
        <ele>1184.4</ele>
        <time>2022-02-08T08:37:35Z</time>
      </trkpt>
      <trkpt lat="41.9355170" lon="-2.8949530">
        <ele>1184.4</ele>
        <time>2022-02-08T08:37:36Z</time>
      </trkpt>
      <trkpt lat="41.9354870" lon="-2.8949420">
        <ele>1185.6</ele>
        <time>2022-02-08T08:37:37Z</time>
      </trkpt>
      <trkpt lat="41.9354570" lon="-2.8949320">
        <ele>1185.6</ele>
        <time>2022-02-08T08:37:38Z</time>
      </trkpt>
      <trkpt lat="41.9354270" lon="-2.8949230">
        <ele>1185.6</ele>
        <time>2022-02-08T08:37:39Z</time>
      </trkpt>
      <trkpt lat="41.9354050" lon="-2.8949150">
        <ele>1185.5</ele>
        <time>2022-02-08T08:37:40Z</time>
      </trkpt>
      <trkpt lat="41.9353880" lon="-2.8949030">
        <ele>1185.5</ele>
        <time>2022-02-08T08:37:41Z</time>
      </trkpt>
      <trkpt lat="41.9353730" lon="-2.8948900">
        <ele>1185.3</ele>
        <time>2022-02-08T08:37:42Z</time>
      </trkpt>
      <trkpt lat="41.9353580" lon="-2.8948800">
        <ele>1186.5</ele>
        <time>2022-02-08T08:37:43Z</time>
      </trkpt>
      <trkpt lat="41.9353430" lon="-2.8948650">
        <ele>1186.5</ele>
        <time>2022-02-08T08:37:44Z</time>
      </trkpt>
      <trkpt lat="41.9353300" lon="-2.8948380">
        <ele>1186.5</ele>
        <time>2022-02-08T08:37:45Z</time>
      </trkpt>
      <trkpt lat="41.9353180" lon="-2.8948070">
        <ele>1186.5</ele>
        <time>2022-02-08T08:37:46Z</time>
      </trkpt>
      <trkpt lat="41.9353070" lon="-2.8947700">
        <ele>1186.5</ele>
        <time>2022-02-08T08:37:47Z</time>
      </trkpt>
      <trkpt lat="41.9352950" lon="-2.8947420">
        <ele>1186.5</ele>
        <time>2022-02-08T08:37:48Z</time>
      </trkpt>
      <trkpt lat="41.9352750" lon="-2.8947120">
        <ele>1185.8</ele>
        <time>2022-02-08T08:37:49Z</time>
      </trkpt>
      <trkpt lat="41.9352570" lon="-2.8946820">
        <ele>1185.8</ele>
        <time>2022-02-08T08:37:50Z</time>
      </trkpt>
      <trkpt lat="41.9352380" lon="-2.8946530">
        <ele>1185.8</ele>
        <time>2022-02-08T08:37:51Z</time>
      </trkpt>
      <trkpt lat="41.9352230" lon="-2.8946230">
        <ele>1187.1</ele>
        <time>2022-02-08T08:37:52Z</time>
      </trkpt>
      <trkpt lat="41.9352080" lon="-2.8945930">
        <ele>1187.1</ele>
        <time>2022-02-08T08:37:53Z</time>
      </trkpt>
      <trkpt lat="41.9351950" lon="-2.8945650">
        <ele>1187.1</ele>
        <time>2022-02-08T08:37:54Z</time>
      </trkpt>
      <trkpt lat="41.9351830" lon="-2.8945370">
        <ele>1186.1</ele>
        <time>2022-02-08T08:37:55Z</time>
      </trkpt>
      <trkpt lat="41.9351700" lon="-2.8945070">
        <ele>1186.1</ele>
        <time>2022-02-08T08:37:56Z</time>
      </trkpt>
      <trkpt lat="41.9351580" lon="-2.8944720">
        <ele>1186.1</ele>
        <time>2022-02-08T08:37:57Z</time>
      </trkpt>
      <trkpt lat="41.9351480" lon="-2.8944370">
        <ele>1186.0</ele>
        <time>2022-02-08T08:37:58Z</time>
      </trkpt>
      <trkpt lat="41.9351430" lon="-2.8944020">
        <ele>1186.0</ele>
        <time>2022-02-08T08:37:59Z</time>
      </trkpt>
      <trkpt lat="41.9351380" lon="-2.8943650">
        <ele>1185.0</ele>
        <time>2022-02-08T08:38:00Z</time>
      </trkpt>
      <trkpt lat="41.9351350" lon="-2.8943230">
        <ele>1185.0</ele>
        <time>2022-02-08T08:38:01Z</time>
      </trkpt>
      <trkpt lat="41.9351350" lon="-2.8942800">
        <ele>1185.0</ele>
        <time>2022-02-08T08:38:02Z</time>
      </trkpt>
      <trkpt lat="41.9351330" lon="-2.8942350">
        <ele>1185.0</ele>
        <time>2022-02-08T08:38:03Z</time>
      </trkpt>
      <trkpt lat="41.9351320" lon="-2.8941880">
        <ele>1184.3</ele>
        <time>2022-02-08T08:38:04Z</time>
      </trkpt>
      <trkpt lat="41.9351280" lon="-2.8941400">
        <ele>1184.3</ele>
        <time>2022-02-08T08:38:05Z</time>
      </trkpt>
      <trkpt lat="41.9351250" lon="-2.8940920">
        <ele>1184.3</ele>
        <time>2022-02-08T08:38:06Z</time>
      </trkpt>
      <trkpt lat="41.9351180" lon="-2.8940450">
        <ele>1184.3</ele>
        <time>2022-02-08T08:38:07Z</time>
      </trkpt>
      <trkpt lat="41.9351100" lon="-2.8940020">
        <ele>1183.7</ele>
        <time>2022-02-08T08:38:08Z</time>
      </trkpt>
      <trkpt lat="41.9351050" lon="-2.8939620">
        <ele>1183.7</ele>
        <time>2022-02-08T08:38:09Z</time>
      </trkpt>
      <trkpt lat="41.9350980" lon="-2.8939200">
        <ele>1184.5</ele>
        <time>2022-02-08T08:38:10Z</time>
      </trkpt>
      <trkpt lat="41.9350880" lon="-2.8938820">
        <ele>1184.5</ele>
        <time>2022-02-08T08:38:11Z</time>
      </trkpt>
      <trkpt lat="41.9350730" lon="-2.8938500">
        <ele>1183.8</ele>
        <time>2022-02-08T08:38:12Z</time>
      </trkpt>
      <trkpt lat="41.9350530" lon="-2.8938250">
        <ele>1183.8</ele>
        <time>2022-02-08T08:38:13Z</time>
      </trkpt>
      <trkpt lat="41.9350330" lon="-2.8938080">
        <ele>1183.8</ele>
        <time>2022-02-08T08:38:14Z</time>
      </trkpt>
      <trkpt lat="41.9350100" lon="-2.8937920">
        <ele>1183.8</ele>
        <time>2022-02-08T08:38:15Z</time>
      </trkpt>
      <trkpt lat="41.9349850" lon="-2.8937770">
        <ele>1183.8</ele>
        <time>2022-02-08T08:38:16Z</time>
      </trkpt>
      <trkpt lat="41.9349620" lon="-2.8937650">
        <ele>1185.0</ele>
        <time>2022-02-08T08:38:17Z</time>
      </trkpt>
      <trkpt lat="41.9349420" lon="-2.8937570">
        <ele>1185.0</ele>
        <time>2022-02-08T08:38:18Z</time>
      </trkpt>
      <trkpt lat="41.9349230" lon="-2.8937520">
        <ele>1185.0</ele>
        <time>2022-02-08T08:38:19Z</time>
      </trkpt>
      <trkpt lat="41.9348980" lon="-2.8937470">
        <ele>1185.0</ele>
        <time>2022-02-08T08:38:20Z</time>
      </trkpt>
      <trkpt lat="41.9348730" lon="-2.8937450">
        <ele>1184.9</ele>
        <time>2022-02-08T08:38:21Z</time>
      </trkpt>
      <trkpt lat="41.9348480" lon="-2.8937500">
        <ele>1186.0</ele>
        <time>2022-02-08T08:38:22Z</time>
      </trkpt>
      <trkpt lat="41.9348250" lon="-2.8937600">
        <ele>1185.9</ele>
        <time>2022-02-08T08:38:23Z</time>
      </trkpt>
      <trkpt lat="41.9348020" lon="-2.8937780">
        <ele>1185.9</ele>
        <time>2022-02-08T08:38:24Z</time>
      </trkpt>
      <trkpt lat="41.9347800" lon="-2.8937970">
        <ele>1185.9</ele>
        <time>2022-02-08T08:38:25Z</time>
      </trkpt>
      <trkpt lat="41.9347620" lon="-2.8938100">
        <ele>1185.9</ele>
        <time>2022-02-08T08:38:26Z</time>
      </trkpt>
      <trkpt lat="41.9347400" lon="-2.8938220">
        <ele>1185.9</ele>
        <time>2022-02-08T08:38:27Z</time>
      </trkpt>
      <trkpt lat="41.9347200" lon="-2.8938280">
        <ele>1187.4</ele>
        <time>2022-02-08T08:38:28Z</time>
      </trkpt>
      <trkpt lat="41.9347000" lon="-2.8938370">
        <ele>1187.4</ele>
        <time>2022-02-08T08:38:29Z</time>
      </trkpt>
      <trkpt lat="41.9346820" lon="-2.8938420">
        <ele>1187.4</ele>
        <time>2022-02-08T08:38:30Z</time>
      </trkpt>
      <trkpt lat="41.9346650" lon="-2.8938380">
        <ele>1187.4</ele>
        <time>2022-02-08T08:38:31Z</time>
      </trkpt>
      <trkpt lat="41.9346450" lon="-2.8938330">
        <ele>1187.4</ele>
        <time>2022-02-08T08:38:32Z</time>
      </trkpt>
      <trkpt lat="41.9346200" lon="-2.8938250">
        <ele>1187.4</ele>
        <time>2022-02-08T08:38:33Z</time>
      </trkpt>
      <trkpt lat="41.9345970" lon="-2.8938130">
        <ele>1187.4</ele>
        <time>2022-02-08T08:38:34Z</time>
      </trkpt>
      <trkpt lat="41.9345750" lon="-2.8938030">
        <ele>1189.0</ele>
        <time>2022-02-08T08:38:35Z</time>
      </trkpt>
      <trkpt lat="41.9345580" lon="-2.8937920">
        <ele>1189.0</ele>
        <time>2022-02-08T08:38:36Z</time>
      </trkpt>
      <trkpt lat="41.9345380" lon="-2.8937780">
        <ele>1189.0</ele>
        <time>2022-02-08T08:38:37Z</time>
      </trkpt>
      <trkpt lat="41.9345170" lon="-2.8937720">
        <ele>1188.9</ele>
        <time>2022-02-08T08:38:38Z</time>
      </trkpt>
      <trkpt lat="41.9344950" lon="-2.8937670">
        <ele>1188.9</ele>
        <time>2022-02-08T08:38:39Z</time>
      </trkpt>
      <trkpt lat="41.9344720" lon="-2.8937600">
        <ele>1188.9</ele>
        <time>2022-02-08T08:38:40Z</time>
      </trkpt>
      <trkpt lat="41.9344470" lon="-2.8937600">
        <ele>1191.4</ele>
        <time>2022-02-08T08:38:41Z</time>
      </trkpt>
      <trkpt lat="41.9344230" lon="-2.8937650">
        <ele>1191.4</ele>
        <time>2022-02-08T08:38:42Z</time>
      </trkpt>
      <trkpt lat="41.9344020" lon="-2.8937700">
        <ele>1191.4</ele>
        <time>2022-02-08T08:38:43Z</time>
      </trkpt>
      <trkpt lat="41.9343800" lon="-2.8937700">
        <ele>1191.4</ele>
        <time>2022-02-08T08:38:44Z</time>
      </trkpt>
      <trkpt lat="41.9343580" lon="-2.8937730">
        <ele>1191.4</ele>
        <time>2022-02-08T08:38:45Z</time>
      </trkpt>
      <trkpt lat="41.9343370" lon="-2.8937770">
        <ele>1193.8</ele>
        <time>2022-02-08T08:38:46Z</time>
      </trkpt>
      <trkpt lat="41.9343150" lon="-2.8937800">
        <ele>1193.8</ele>
        <time>2022-02-08T08:38:47Z</time>
      </trkpt>
      <trkpt lat="41.9342950" lon="-2.8937850">
        <ele>1193.8</ele>
        <time>2022-02-08T08:38:48Z</time>
      </trkpt>
      <trkpt lat="41.9342730" lon="-2.8937920">
        <ele>1193.8</ele>
        <time>2022-02-08T08:38:49Z</time>
      </trkpt>
      <trkpt lat="41.9342550" lon="-2.8938000">
        <ele>1193.8</ele>
        <time>2022-02-08T08:38:50Z</time>
      </trkpt>
      <trkpt lat="41.9342300" lon="-2.8938030">
        <ele>1193.8</ele>
        <time>2022-02-08T08:38:51Z</time>
      </trkpt>
      <trkpt lat="41.9342050" lon="-2.8938100">
        <ele>1196.8</ele>
        <time>2022-02-08T08:38:52Z</time>
      </trkpt>
      <trkpt lat="41.9341820" lon="-2.8938180">
        <ele>1196.7</ele>
        <time>2022-02-08T08:38:53Z</time>
      </trkpt>
      <trkpt lat="41.9341580" lon="-2.8938250">
        <ele>1196.7</ele>
        <time>2022-02-08T08:38:54Z</time>
      </trkpt>
      <trkpt lat="41.9341350" lon="-2.8938280">
        <ele>1196.7</ele>
        <time>2022-02-08T08:38:55Z</time>
      </trkpt>
      <trkpt lat="41.9341130" lon="-2.8938330">
        <ele>1196.7</ele>
        <time>2022-02-08T08:38:56Z</time>
      </trkpt>
      <trkpt lat="41.9340920" lon="-2.8938380">
        <ele>1196.7</ele>
        <time>2022-02-08T08:38:57Z</time>
      </trkpt>
      <trkpt lat="41.9340680" lon="-2.8938420">
        <ele>1199.9</ele>
        <time>2022-02-08T08:38:58Z</time>
      </trkpt>
      <trkpt lat="41.9340430" lon="-2.8938450">
        <ele>1199.9</ele>
        <time>2022-02-08T08:38:59Z</time>
      </trkpt>
      <trkpt lat="41.9340180" lon="-2.8938480">
        <ele>1199.9</ele>
        <time>2022-02-08T08:39:00Z</time>
      </trkpt>
      <trkpt lat="41.9339930" lon="-2.8938530">
        <ele>1199.9</ele>
        <time>2022-02-08T08:39:01Z</time>
      </trkpt>
      <trkpt lat="41.9339670" lon="-2.8938650">
        <ele>1199.8</ele>
        <time>2022-02-08T08:39:02Z</time>
      </trkpt>
      <trkpt lat="41.9339430" lon="-2.8938830">
        <ele>1203.4</ele>
        <time>2022-02-08T08:39:03Z</time>
      </trkpt>
      <trkpt lat="41.9339200" lon="-2.8939000">
        <ele>1203.4</ele>
        <time>2022-02-08T08:39:04Z</time>
      </trkpt>
      <trkpt lat="41.9338980" lon="-2.8939180">
        <ele>1203.4</ele>
        <time>2022-02-08T08:39:05Z</time>
      </trkpt>
      <trkpt lat="41.9338770" lon="-2.8939380">
        <ele>1203.3</ele>
        <time>2022-02-08T08:39:06Z</time>
      </trkpt>
      <trkpt lat="41.9338550" lon="-2.8939580">
        <ele>1203.3</ele>
        <time>2022-02-08T08:39:07Z</time>
      </trkpt>
      <trkpt lat="41.9338330" lon="-2.8939780">
        <ele>1203.3</ele>
        <time>2022-02-08T08:39:08Z</time>
      </trkpt>
      <trkpt lat="41.9338100" lon="-2.8939980">
        <ele>1206.9</ele>
        <time>2022-02-08T08:39:09Z</time>
      </trkpt>
      <trkpt lat="41.9337850" lon="-2.8940150">
        <ele>1206.9</ele>
        <time>2022-02-08T08:39:10Z</time>
      </trkpt>
      <trkpt lat="41.9337620" lon="-2.8940370">
        <ele>1206.9</ele>
        <time>2022-02-08T08:39:11Z</time>
      </trkpt>
      <trkpt lat="41.9337400" lon="-2.8940600">
        <ele>1206.7</ele>
        <time>2022-02-08T08:39:12Z</time>
      </trkpt>
      <trkpt lat="41.9337170" lon="-2.8940780">
        <ele>1206.6</ele>
        <time>2022-02-08T08:39:13Z</time>
      </trkpt>
      <trkpt lat="41.9336950" lon="-2.8940970">
        <ele>1210.0</ele>
        <time>2022-02-08T08:39:14Z</time>
      </trkpt>
      <trkpt lat="41.9336720" lon="-2.8941170">
        <ele>1210.0</ele>
        <time>2022-02-08T08:39:15Z</time>
      </trkpt>
      <trkpt lat="41.9336520" lon="-2.8941380">
        <ele>1210.0</ele>
        <time>2022-02-08T08:39:16Z</time>
      </trkpt>
      <trkpt lat="41.9336300" lon="-2.8941550">
        <ele>1210.0</ele>
        <time>2022-02-08T08:39:17Z</time>
      </trkpt>
      <trkpt lat="41.9336100" lon="-2.8941680">
        <ele>1210.0</ele>
        <time>2022-02-08T08:39:18Z</time>
      </trkpt>
      <trkpt lat="41.9335930" lon="-2.8941780">
        <ele>1209.9</ele>
        <time>2022-02-08T08:39:19Z</time>
      </trkpt>
      <trkpt lat="41.9335770" lon="-2.8941900">
        <ele>1209.9</ele>
        <time>2022-02-08T08:39:20Z</time>
      </trkpt>
      <trkpt lat="41.9335600" lon="-2.8942030">
        <ele>1213.1</ele>
        <time>2022-02-08T08:39:21Z</time>
      </trkpt>
      <trkpt lat="41.9335470" lon="-2.8942150">
        <ele>1212.4</ele>
        <time>2022-02-08T08:39:22Z</time>
      </trkpt>
      <trkpt lat="41.9335320" lon="-2.8942320">
        <ele>1212.4</ele>
        <time>2022-02-08T08:39:23Z</time>
      </trkpt>
      <trkpt lat="41.9335180" lon="-2.8942450">
        <ele>1212.4</ele>
        <time>2022-02-08T08:39:24Z</time>
      </trkpt>
      <trkpt lat="41.9335020" lon="-2.8942620">
        <ele>1212.4</ele>
        <time>2022-02-08T08:39:25Z</time>
      </trkpt>
      <trkpt lat="41.9334850" lon="-2.8942800">
        <ele>1212.4</ele>
        <time>2022-02-08T08:39:26Z</time>
      </trkpt>
      <trkpt lat="41.9334720" lon="-2.8942970">
        <ele>1212.4</ele>
        <time>2022-02-08T08:39:27Z</time>
      </trkpt>
      <trkpt lat="41.9334570" lon="-2.8943150">
        <ele>1212.3</ele>
        <time>2022-02-08T08:39:28Z</time>
      </trkpt>
      <trkpt lat="41.9334420" lon="-2.8943300">
        <ele>1214.3</ele>
        <time>2022-02-08T08:39:29Z</time>
      </trkpt>
      <trkpt lat="41.9334270" lon="-2.8943430">
        <ele>1214.3</ele>
        <time>2022-02-08T08:39:30Z</time>
      </trkpt>
      <trkpt lat="41.9334100" lon="-2.8943580">
        <ele>1214.3</ele>
        <time>2022-02-08T08:39:31Z</time>
      </trkpt>
      <trkpt lat="41.9333930" lon="-2.8943770">
        <ele>1214.3</ele>
        <time>2022-02-08T08:39:32Z</time>
      </trkpt>
      <trkpt lat="41.9333770" lon="-2.8943980">
        <ele>1213.2</ele>
        <time>2022-02-08T08:39:33Z</time>
      </trkpt>
      <trkpt lat="41.9333630" lon="-2.8944250">
        <ele>1213.2</ele>
        <time>2022-02-08T08:39:34Z</time>
      </trkpt>
      <trkpt lat="41.9333500" lon="-2.8944570">
        <ele>1213.1</ele>
        <time>2022-02-08T08:39:35Z</time>
      </trkpt>
      <trkpt lat="41.9333400" lon="-2.8944850">
        <ele>1213.1</ele>
        <time>2022-02-08T08:39:36Z</time>
      </trkpt>
      <trkpt lat="41.9333250" lon="-2.8945150">
        <ele>1213.1</ele>
        <time>2022-02-08T08:39:37Z</time>
      </trkpt>
      <trkpt lat="41.9333070" lon="-2.8945400">
        <ele>1214.5</ele>
        <time>2022-02-08T08:39:38Z</time>
      </trkpt>
      <trkpt lat="41.9332880" lon="-2.8945670">
        <ele>1213.5</ele>
        <time>2022-02-08T08:39:39Z</time>
      </trkpt>
      <trkpt lat="41.9332700" lon="-2.8945950">
        <ele>1213.5</ele>
        <time>2022-02-08T08:39:40Z</time>
      </trkpt>
      <trkpt lat="41.9332530" lon="-2.8946230">
        <ele>1213.5</ele>
        <time>2022-02-08T08:39:41Z</time>
      </trkpt>
      <trkpt lat="41.9332350" lon="-2.8946500">
        <ele>1213.4</ele>
        <time>2022-02-08T08:39:42Z</time>
      </trkpt>
      <trkpt lat="41.9332180" lon="-2.8946750">
        <ele>1213.4</ele>
        <time>2022-02-08T08:39:43Z</time>
      </trkpt>
      <trkpt lat="41.9332020" lon="-2.8947020">
        <ele>1213.4</ele>
        <time>2022-02-08T08:39:44Z</time>
      </trkpt>
      <trkpt lat="41.9331870" lon="-2.8947280">
        <ele>1213.7</ele>
        <time>2022-02-08T08:39:45Z</time>
      </trkpt>
      <trkpt lat="41.9331720" lon="-2.8947530">
        <ele>1213.7</ele>
        <time>2022-02-08T08:39:46Z</time>
      </trkpt>
      <trkpt lat="41.9331570" lon="-2.8947770">
        <ele>1213.7</ele>
        <time>2022-02-08T08:39:47Z</time>
      </trkpt>
      <trkpt lat="41.9331420" lon="-2.8948000">
        <ele>1213.7</ele>
        <time>2022-02-08T08:39:48Z</time>
      </trkpt>
      <trkpt lat="41.9331230" lon="-2.8948200">
        <ele>1213.7</ele>
        <time>2022-02-08T08:39:49Z</time>
      </trkpt>
      <trkpt lat="41.9331070" lon="-2.8948400">
        <ele>1213.7</ele>
        <time>2022-02-08T08:39:50Z</time>
      </trkpt>
      <trkpt lat="41.9330870" lon="-2.8948580">
        <ele>1213.7</ele>
        <time>2022-02-08T08:39:51Z</time>
      </trkpt>
      <trkpt lat="41.9330680" lon="-2.8948720">
        <ele>1213.6</ele>
        <time>2022-02-08T08:39:52Z</time>
      </trkpt>
      <trkpt lat="41.9330470" lon="-2.8948820">
        <ele>1214.8</ele>
        <time>2022-02-08T08:39:53Z</time>
      </trkpt>
      <trkpt lat="41.9330280" lon="-2.8948930">
        <ele>1214.8</ele>
        <time>2022-02-08T08:39:54Z</time>
      </trkpt>
      <trkpt lat="41.9330100" lon="-2.8949070">
        <ele>1214.5</ele>
        <time>2022-02-08T08:39:55Z</time>
      </trkpt>
      <trkpt lat="41.9329900" lon="-2.8949180">
        <ele>1214.4</ele>
        <time>2022-02-08T08:39:56Z</time>
      </trkpt>
      <trkpt lat="41.9329680" lon="-2.8949350">
        <ele>1214.4</ele>
        <time>2022-02-08T08:39:57Z</time>
      </trkpt>
      <trkpt lat="41.9329450" lon="-2.8949530">
        <ele>1214.4</ele>
        <time>2022-02-08T08:39:58Z</time>
      </trkpt>
      <trkpt lat="41.9329230" lon="-2.8949750">
        <ele>1214.9</ele>
        <time>2022-02-08T08:39:59Z</time>
      </trkpt>
      <trkpt lat="41.9329020" lon="-2.8949980">
        <ele>1214.9</ele>
        <time>2022-02-08T08:40:00Z</time>
      </trkpt>
      <trkpt lat="41.9328820" lon="-2.8950180">
        <ele>1214.9</ele>
        <time>2022-02-08T08:40:01Z</time>
      </trkpt>
      <trkpt lat="41.9328600" lon="-2.8950400">
        <ele>1214.9</ele>
        <time>2022-02-08T08:40:02Z</time>
      </trkpt>
      <trkpt lat="41.9328420" lon="-2.8950650">
        <ele>1214.9</ele>
        <time>2022-02-08T08:40:03Z</time>
      </trkpt>
      <trkpt lat="41.9328230" lon="-2.8950930">
        <ele>1214.4</ele>
        <time>2022-02-08T08:40:04Z</time>
      </trkpt>
      <trkpt lat="41.9328070" lon="-2.8951220">
        <ele>1214.4</ele>
        <time>2022-02-08T08:40:05Z</time>
      </trkpt>
      <trkpt lat="41.9327900" lon="-2.8951530">
        <ele>1214.3</ele>
        <time>2022-02-08T08:40:06Z</time>
      </trkpt>
      <trkpt lat="41.9327780" lon="-2.8951850">
        <ele>1214.3</ele>
        <time>2022-02-08T08:40:07Z</time>
      </trkpt>
      <trkpt lat="41.9327670" lon="-2.8952150">
        <ele>1214.3</ele>
        <time>2022-02-08T08:40:08Z</time>
      </trkpt>
      <trkpt lat="41.9327550" lon="-2.8952470">
        <ele>1213.5</ele>
        <time>2022-02-08T08:40:09Z</time>
      </trkpt>
      <trkpt lat="41.9327430" lon="-2.8952730">
        <ele>1213.5</ele>
        <time>2022-02-08T08:40:10Z</time>
      </trkpt>
      <trkpt lat="41.9327350" lon="-2.8953020">
        <ele>1213.5</ele>
        <time>2022-02-08T08:40:11Z</time>
      </trkpt>
      <trkpt lat="41.9327270" lon="-2.8953300">
        <ele>1213.5</ele>
        <time>2022-02-08T08:40:12Z</time>
      </trkpt>
      <trkpt lat="41.9327180" lon="-2.8953620">
        <ele>1213.5</ele>
        <time>2022-02-08T08:40:13Z</time>
      </trkpt>
      <trkpt lat="41.9327120" lon="-2.8953930">
        <ele>1213.5</ele>
        <time>2022-02-08T08:40:14Z</time>
      </trkpt>
      <trkpt lat="41.9327020" lon="-2.8954230">
        <ele>1212.6</ele>
        <time>2022-02-08T08:40:15Z</time>
      </trkpt>
      <trkpt lat="41.9326920" lon="-2.8954550">
        <ele>1212.6</ele>
        <time>2022-02-08T08:40:16Z</time>
      </trkpt>
      <trkpt lat="41.9326820" lon="-2.8954880">
        <ele>1212.6</ele>
        <time>2022-02-08T08:40:17Z</time>
      </trkpt>
      <trkpt lat="41.9326720" lon="-2.8955200">
        <ele>1212.2</ele>
        <time>2022-02-08T08:40:18Z</time>
      </trkpt>
      <trkpt lat="41.9326580" lon="-2.8955500">
        <ele>1212.2</ele>
        <time>2022-02-08T08:40:19Z</time>
      </trkpt>
      <trkpt lat="41.9326450" lon="-2.8955780">
        <ele>1212.2</ele>
        <time>2022-02-08T08:40:20Z</time>
      </trkpt>
      <trkpt lat="41.9326330" lon="-2.8956100">
        <ele>1211.8</ele>
        <time>2022-02-08T08:40:21Z</time>
      </trkpt>
      <trkpt lat="41.9326220" lon="-2.8956430">
        <ele>1211.8</ele>
        <time>2022-02-08T08:40:22Z</time>
      </trkpt>
      <trkpt lat="41.9326100" lon="-2.8956770">
        <ele>1211.8</ele>
        <time>2022-02-08T08:40:23Z</time>
      </trkpt>
      <trkpt lat="41.9326000" lon="-2.8957100">
        <ele>1211.8</ele>
        <time>2022-02-08T08:40:24Z</time>
      </trkpt>
      <trkpt lat="41.9325920" lon="-2.8957430">
        <ele>1211.8</ele>
        <time>2022-02-08T08:40:25Z</time>
      </trkpt>
      <trkpt lat="41.9325820" lon="-2.8957770">
        <ele>1211.5</ele>
        <time>2022-02-08T08:40:26Z</time>
      </trkpt>
      <trkpt lat="41.9325720" lon="-2.8958120">
        <ele>1211.5</ele>
        <time>2022-02-08T08:40:27Z</time>
      </trkpt>
      <trkpt lat="41.9325620" lon="-2.8958480">
        <ele>1211.5</ele>
        <time>2022-02-08T08:40:28Z</time>
      </trkpt>
      <trkpt lat="41.9325480" lon="-2.8958880">
        <ele>1211.8</ele>
        <time>2022-02-08T08:40:29Z</time>
      </trkpt>
      <trkpt lat="41.9325370" lon="-2.8959270">
        <ele>1211.7</ele>
        <time>2022-02-08T08:40:30Z</time>
      </trkpt>
      <trkpt lat="41.9325230" lon="-2.8959650">
        <ele>1211.7</ele>
        <time>2022-02-08T08:40:31Z</time>
      </trkpt>
      <trkpt lat="41.9325100" lon="-2.8960030">
        <ele>1211.7</ele>
        <time>2022-02-08T08:40:32Z</time>
      </trkpt>
      <trkpt lat="41.9324950" lon="-2.8960450">
        <ele>1211.7</ele>
        <time>2022-02-08T08:40:33Z</time>
      </trkpt>
      <trkpt lat="41.9324820" lon="-2.8960920">
        <ele>1211.6</ele>
        <time>2022-02-08T08:40:34Z</time>
      </trkpt>
      <trkpt lat="41.9324680" lon="-2.8961430">
        <ele>1211.6</ele>
        <time>2022-02-08T08:40:35Z</time>
      </trkpt>
      <trkpt lat="41.9324570" lon="-2.8961980">
        <ele>1211.5</ele>
        <time>2022-02-08T08:40:36Z</time>
      </trkpt>
      <trkpt lat="41.9324500" lon="-2.8962530">
        <ele>1211.5</ele>
        <time>2022-02-08T08:40:37Z</time>
      </trkpt>
      <trkpt lat="41.9324430" lon="-2.8963050">
        <ele>1211.4</ele>
        <time>2022-02-08T08:40:38Z</time>
      </trkpt>
      <trkpt lat="41.9324370" lon="-2.8963570">
        <ele>1211.4</ele>
        <time>2022-02-08T08:40:39Z</time>
      </trkpt>
      <trkpt lat="41.9324300" lon="-2.8964080">
        <ele>1211.4</ele>
        <time>2022-02-08T08:40:40Z</time>
      </trkpt>
      <trkpt lat="41.9324230" lon="-2.8964570">
        <ele>1211.2</ele>
        <time>2022-02-08T08:40:41Z</time>
      </trkpt>
      <trkpt lat="41.9324170" lon="-2.8965030">
        <ele>1211.3</ele>
        <time>2022-02-08T08:40:42Z</time>
      </trkpt>
      <trkpt lat="41.9324050" lon="-2.8965480">
        <ele>1211.3</ele>
        <time>2022-02-08T08:40:43Z</time>
      </trkpt>
      <trkpt lat="41.9323930" lon="-2.8965920">
        <ele>1211.3</ele>
        <time>2022-02-08T08:40:44Z</time>
      </trkpt>
      <trkpt lat="41.9323820" lon="-2.8966370">
        <ele>1211.0</ele>
        <time>2022-02-08T08:40:45Z</time>
      </trkpt>
      <trkpt lat="41.9323700" lon="-2.8966850">
        <ele>1211.0</ele>
        <time>2022-02-08T08:40:46Z</time>
      </trkpt>
      <trkpt lat="41.9323620" lon="-2.8967330">
        <ele>1211.0</ele>
        <time>2022-02-08T08:40:47Z</time>
      </trkpt>
      <trkpt lat="41.9323530" lon="-2.8967830">
        <ele>1211.0</ele>
        <time>2022-02-08T08:40:48Z</time>
      </trkpt>
      <trkpt lat="41.9323450" lon="-2.8968350">
        <ele>1210.8</ele>
        <time>2022-02-08T08:40:49Z</time>
      </trkpt>
      <trkpt lat="41.9323420" lon="-2.8968850">
        <ele>1210.8</ele>
        <time>2022-02-08T08:40:50Z</time>
      </trkpt>
      <trkpt lat="41.9323370" lon="-2.8969370">
        <ele>1210.8</ele>
        <time>2022-02-08T08:40:51Z</time>
      </trkpt>
      <trkpt lat="41.9323300" lon="-2.8969880">
        <ele>1210.5</ele>
        <time>2022-02-08T08:40:52Z</time>
      </trkpt>
      <trkpt lat="41.9323170" lon="-2.8970380">
        <ele>1210.5</ele>
        <time>2022-02-08T08:40:53Z</time>
      </trkpt>
      <trkpt lat="41.9323000" lon="-2.8970880">
        <ele>1210.5</ele>
        <time>2022-02-08T08:40:54Z</time>
      </trkpt>
      <trkpt lat="41.9322800" lon="-2.8971370">
        <ele>1210.1</ele>
        <time>2022-02-08T08:40:55Z</time>
      </trkpt>
      <trkpt lat="41.9322570" lon="-2.8971870">
        <ele>1210.0</ele>
        <time>2022-02-08T08:40:56Z</time>
      </trkpt>
      <trkpt lat="41.9322300" lon="-2.8972350">
        <ele>1210.0</ele>
        <time>2022-02-08T08:40:57Z</time>
      </trkpt>
      <trkpt lat="41.9322020" lon="-2.8972820">
        <ele>1210.0</ele>
        <time>2022-02-08T08:40:58Z</time>
      </trkpt>
      <trkpt lat="41.9321720" lon="-2.8973300">
        <ele>1209.5</ele>
        <time>2022-02-08T08:40:59Z</time>
      </trkpt>
      <trkpt lat="41.9321400" lon="-2.8973830">
        <ele>1209.5</ele>
        <time>2022-02-08T08:41:00Z</time>
      </trkpt>
      <trkpt lat="41.9321070" lon="-2.8974400">
        <ele>1209.5</ele>
        <time>2022-02-08T08:41:01Z</time>
      </trkpt>
      <trkpt lat="41.9320720" lon="-2.8974970">
        <ele>1208.7</ele>
        <time>2022-02-08T08:41:02Z</time>
      </trkpt>
      <trkpt lat="41.9320370" lon="-2.8975570">
        <ele>1208.7</ele>
        <time>2022-02-08T08:41:03Z</time>
      </trkpt>
      <trkpt lat="41.9320020" lon="-2.8976170">
        <ele>1208.7</ele>
        <time>2022-02-08T08:41:04Z</time>
      </trkpt>
      <trkpt lat="41.9319670" lon="-2.8976780">
        <ele>1208.0</ele>
        <time>2022-02-08T08:41:05Z</time>
      </trkpt>
      <trkpt lat="41.9319370" lon="-2.8977430">
        <ele>1208.0</ele>
        <time>2022-02-08T08:41:06Z</time>
      </trkpt>
      <trkpt lat="41.9319080" lon="-2.8978070">
        <ele>1207.9</ele>
        <time>2022-02-08T08:41:07Z</time>
      </trkpt>
      <trkpt lat="41.9318800" lon="-2.8978700">
        <ele>1207.2</ele>
        <time>2022-02-08T08:41:08Z</time>
      </trkpt>
      <trkpt lat="41.9318500" lon="-2.8979330">
        <ele>1207.2</ele>
        <time>2022-02-08T08:41:09Z</time>
      </trkpt>
      <trkpt lat="41.9318220" lon="-2.8979970">
        <ele>1206.5</ele>
        <time>2022-02-08T08:41:10Z</time>
      </trkpt>
      <trkpt lat="41.9317970" lon="-2.8980630">
        <ele>1206.4</ele>
        <time>2022-02-08T08:41:11Z</time>
      </trkpt>
      <trkpt lat="41.9317770" lon="-2.8981330">
        <ele>1206.4</ele>
        <time>2022-02-08T08:41:12Z</time>
      </trkpt>
      <trkpt lat="41.9317570" lon="-2.8982050">
        <ele>1205.3</ele>
        <time>2022-02-08T08:41:13Z</time>
      </trkpt>
      <trkpt lat="41.9317350" lon="-2.8982730">
        <ele>1205.3</ele>
        <time>2022-02-08T08:41:14Z</time>
      </trkpt>
      <trkpt lat="41.9317080" lon="-2.8983350">
        <ele>1203.8</ele>
        <time>2022-02-08T08:41:15Z</time>
      </trkpt>
      <trkpt lat="41.9316750" lon="-2.8983900">
        <ele>1203.8</ele>
        <time>2022-02-08T08:41:16Z</time>
      </trkpt>
      <trkpt lat="41.9316450" lon="-2.8984470">
        <ele>1203.2</ele>
        <time>2022-02-08T08:41:17Z</time>
      </trkpt>
      <trkpt lat="41.9316250" lon="-2.8985080">
        <ele>1201.8</ele>
        <time>2022-02-08T08:41:18Z</time>
      </trkpt>
      <trkpt lat="41.9316150" lon="-2.8985770">
        <ele>1201.8</ele>
        <time>2022-02-08T08:41:19Z</time>
      </trkpt>
      <trkpt lat="41.9316020" lon="-2.8986450">
        <ele>1201.8</ele>
        <time>2022-02-08T08:41:20Z</time>
      </trkpt>
      <trkpt lat="41.9315820" lon="-2.8987070">
        <ele>1200.4</ele>
        <time>2022-02-08T08:41:21Z</time>
      </trkpt>
      <trkpt lat="41.9315580" lon="-2.8987670">
        <ele>1200.4</ele>
        <time>2022-02-08T08:41:22Z</time>
      </trkpt>
      <trkpt lat="41.9315350" lon="-2.8988300">
        <ele>1200.4</ele>
        <time>2022-02-08T08:41:23Z</time>
      </trkpt>
      <trkpt lat="41.9315100" lon="-2.8988970">
        <ele>1198.4</ele>
        <time>2022-02-08T08:41:24Z</time>
      </trkpt>
      <trkpt lat="41.9314820" lon="-2.8989620">
        <ele>1198.4</ele>
        <time>2022-02-08T08:41:25Z</time>
      </trkpt>
      <trkpt lat="41.9314500" lon="-2.8990280">
        <ele>1197.2</ele>
        <time>2022-02-08T08:41:26Z</time>
      </trkpt>
      <trkpt lat="41.9314180" lon="-2.8990970">
        <ele>1197.2</ele>
        <time>2022-02-08T08:41:27Z</time>
      </trkpt>
      <trkpt lat="41.9313880" lon="-2.8991720">
        <ele>1197.0</ele>
        <time>2022-02-08T08:41:28Z</time>
      </trkpt>
      <trkpt lat="41.9313600" lon="-2.8992480">
        <ele>1196.0</ele>
        <time>2022-02-08T08:41:29Z</time>
      </trkpt>
      <trkpt lat="41.9313280" lon="-2.8993230">
        <ele>1196.0</ele>
        <time>2022-02-08T08:41:30Z</time>
      </trkpt>
      <trkpt lat="41.9312930" lon="-2.8993980">
        <ele>1195.2</ele>
        <time>2022-02-08T08:41:31Z</time>
      </trkpt>
      <trkpt lat="41.9312570" lon="-2.8994720">
        <ele>1195.2</ele>
        <time>2022-02-08T08:41:32Z</time>
      </trkpt>
      <trkpt lat="41.9312180" lon="-2.8995450">
        <ele>1194.4</ele>
        <time>2022-02-08T08:41:33Z</time>
      </trkpt>
      <trkpt lat="41.9311780" lon="-2.8996130">
        <ele>1194.4</ele>
        <time>2022-02-08T08:41:34Z</time>
      </trkpt>
      <trkpt lat="41.9311400" lon="-2.8996820">
        <ele>1194.7</ele>
        <time>2022-02-08T08:41:35Z</time>
      </trkpt>
      <trkpt lat="41.9311000" lon="-2.8997450">
        <ele>1194.0</ele>
        <time>2022-02-08T08:41:36Z</time>
      </trkpt>
      <trkpt lat="41.9310620" lon="-2.8998100">
        <ele>1194.0</ele>
        <time>2022-02-08T08:41:37Z</time>
      </trkpt>
      <trkpt lat="41.9310230" lon="-2.8998770">
        <ele>1193.7</ele>
        <time>2022-02-08T08:41:38Z</time>
      </trkpt>
      <trkpt lat="41.9309900" lon="-2.8999420">
        <ele>1194.3</ele>
        <time>2022-02-08T08:41:39Z</time>
      </trkpt>
      <trkpt lat="41.9309570" lon="-2.9000080">
        <ele>1194.3</ele>
        <time>2022-02-08T08:41:40Z</time>
      </trkpt>
      <trkpt lat="41.9309230" lon="-2.9000780">
        <ele>1194.2</ele>
        <time>2022-02-08T08:41:41Z</time>
      </trkpt>
      <trkpt lat="41.9308900" lon="-2.9001500">
        <ele>1194.1</ele>
        <time>2022-02-08T08:41:42Z</time>
      </trkpt>
      <trkpt lat="41.9308600" lon="-2.9002220">
        <ele>1194.8</ele>
        <time>2022-02-08T08:41:43Z</time>
      </trkpt>
      <trkpt lat="41.9308320" lon="-2.9002930">
        <ele>1194.8</ele>
        <time>2022-02-08T08:41:44Z</time>
      </trkpt>
      <trkpt lat="41.9308050" lon="-2.9003650">
        <ele>1194.8</ele>
        <time>2022-02-08T08:41:45Z</time>
      </trkpt>
      <trkpt lat="41.9307800" lon="-2.9004320">
        <ele>1195.0</ele>
        <time>2022-02-08T08:41:46Z</time>
      </trkpt>
      <trkpt lat="41.9307570" lon="-2.9004970">
        <ele>1195.7</ele>
        <time>2022-02-08T08:41:47Z</time>
      </trkpt>
      <trkpt lat="41.9307400" lon="-2.9005580">
        <ele>1195.7</ele>
        <time>2022-02-08T08:41:48Z</time>
      </trkpt>
      <trkpt lat="41.9307270" lon="-2.9006170">
        <ele>1196.0</ele>
        <time>2022-02-08T08:41:49Z</time>
      </trkpt>
      <trkpt lat="41.9307150" lon="-2.9006770">
        <ele>1196.0</ele>
        <time>2022-02-08T08:41:50Z</time>
      </trkpt>
      <trkpt lat="41.9307070" lon="-2.9007330">
        <ele>1196.0</ele>
        <time>2022-02-08T08:41:51Z</time>
      </trkpt>
      <trkpt lat="41.9307000" lon="-2.9007880">
        <ele>1196.2</ele>
        <time>2022-02-08T08:41:52Z</time>
      </trkpt>
      <trkpt lat="41.9306930" lon="-2.9008400">
        <ele>1196.2</ele>
        <time>2022-02-08T08:41:53Z</time>
      </trkpt>
      <trkpt lat="41.9306850" lon="-2.9008920">
        <ele>1196.2</ele>
        <time>2022-02-08T08:41:54Z</time>
      </trkpt>
      <trkpt lat="41.9306750" lon="-2.9009380">
        <ele>1196.0</ele>
        <time>2022-02-08T08:41:55Z</time>
      </trkpt>
      <trkpt lat="41.9306670" lon="-2.9009870">
        <ele>1196.0</ele>
        <time>2022-02-08T08:41:56Z</time>
      </trkpt>
      <trkpt lat="41.9306630" lon="-2.9010380">
        <ele>1196.0</ele>
        <time>2022-02-08T08:41:57Z</time>
      </trkpt>
      <trkpt lat="41.9306620" lon="-2.9010920">
        <ele>1195.8</ele>
        <time>2022-02-08T08:41:58Z</time>
      </trkpt>
      <trkpt lat="41.9306600" lon="-2.9011430">
        <ele>1195.8</ele>
        <time>2022-02-08T08:41:59Z</time>
      </trkpt>
      <trkpt lat="41.9306620" lon="-2.9011950">
        <ele>1195.8</ele>
        <time>2022-02-08T08:42:00Z</time>
      </trkpt>
      <trkpt lat="41.9306680" lon="-2.9012430">
        <ele>1195.8</ele>
        <time>2022-02-08T08:42:01Z</time>
      </trkpt>
      <trkpt lat="41.9306770" lon="-2.9012880">
        <ele>1196.0</ele>
        <time>2022-02-08T08:42:02Z</time>
      </trkpt>
      <trkpt lat="41.9306850" lon="-2.9013330">
        <ele>1195.9</ele>
        <time>2022-02-08T08:42:03Z</time>
      </trkpt>
      <trkpt lat="41.9306950" lon="-2.9013730">
        <ele>1195.9</ele>
        <time>2022-02-08T08:42:04Z</time>
      </trkpt>
      <trkpt lat="41.9307080" lon="-2.9014150">
        <ele>1195.9</ele>
        <time>2022-02-08T08:42:05Z</time>
      </trkpt>
      <trkpt lat="41.9307270" lon="-2.9014600">
        <ele>1196.6</ele>
        <time>2022-02-08T08:42:06Z</time>
      </trkpt>
      <trkpt lat="41.9307450" lon="-2.9015070">
        <ele>1196.6</ele>
        <time>2022-02-08T08:42:07Z</time>
      </trkpt>
      <trkpt lat="41.9307670" lon="-2.9015500">
        <ele>1195.2</ele>
        <time>2022-02-08T08:42:08Z</time>
      </trkpt>
      <trkpt lat="41.9307900" lon="-2.9015900">
        <ele>1195.2</ele>
        <time>2022-02-08T08:42:09Z</time>
      </trkpt>
      <trkpt lat="41.9308130" lon="-2.9016300">
        <ele>1195.7</ele>
        <time>2022-02-08T08:42:10Z</time>
      </trkpt>
      <trkpt lat="41.9308400" lon="-2.9016680">
        <ele>1195.7</ele>
        <time>2022-02-08T08:42:11Z</time>
      </trkpt>
      <trkpt lat="41.9308680" lon="-2.9017070">
        <ele>1195.7</ele>
        <time>2022-02-08T08:42:12Z</time>
      </trkpt>
      <trkpt lat="41.9308950" lon="-2.9017500">
        <ele>1194.5</ele>
        <time>2022-02-08T08:42:13Z</time>
      </trkpt>
      <trkpt lat="41.9309200" lon="-2.9017970">
        <ele>1195.0</ele>
        <time>2022-02-08T08:42:14Z</time>
      </trkpt>
      <trkpt lat="41.9309470" lon="-2.9018430">
        <ele>1195.0</ele>
        <time>2022-02-08T08:42:15Z</time>
      </trkpt>
      <trkpt lat="41.9309700" lon="-2.9018930">
        <ele>1195.0</ele>
        <time>2022-02-08T08:42:16Z</time>
      </trkpt>
      <trkpt lat="41.9309830" lon="-2.9019480">
        <ele>1195.8</ele>
        <time>2022-02-08T08:42:17Z</time>
      </trkpt>
      <trkpt lat="41.9309870" lon="-2.9020080">
        <ele>1195.8</ele>
        <time>2022-02-08T08:42:18Z</time>
      </trkpt>
      <trkpt lat="41.9309900" lon="-2.9020700">
        <ele>1195.8</ele>
        <time>2022-02-08T08:42:19Z</time>
      </trkpt>
      <trkpt lat="41.9309930" lon="-2.9021330">
        <ele>1196.6</ele>
        <time>2022-02-08T08:42:20Z</time>
      </trkpt>
      <trkpt lat="41.9310020" lon="-2.9021920">
        <ele>1196.5</ele>
        <time>2022-02-08T08:42:21Z</time>
      </trkpt>
      <trkpt lat="41.9310150" lon="-2.9022520">
        <ele>1196.5</ele>
        <time>2022-02-08T08:42:22Z</time>
      </trkpt>
      <trkpt lat="41.9310300" lon="-2.9023100">
        <ele>1196.4</ele>
        <time>2022-02-08T08:42:23Z</time>
      </trkpt>
      <trkpt lat="41.9310500" lon="-2.9023680">
        <ele>1196.4</ele>
        <time>2022-02-08T08:42:24Z</time>
      </trkpt>
      <trkpt lat="41.9310750" lon="-2.9024230">
        <ele>1196.4</ele>
        <time>2022-02-08T08:42:25Z</time>
      </trkpt>
      <trkpt lat="41.9310930" lon="-2.9024750">
        <ele>1197.0</ele>
        <time>2022-02-08T08:42:26Z</time>
      </trkpt>
      <trkpt lat="41.9311080" lon="-2.9025200">
        <ele>1197.0</ele>
        <time>2022-02-08T08:42:27Z</time>
      </trkpt>
      <trkpt lat="41.9311180" lon="-2.9025630">
        <ele>1197.0</ele>
        <time>2022-02-08T08:42:28Z</time>
      </trkpt>
      <trkpt lat="41.9311380" lon="-2.9026000">
        <ele>1197.0</ele>
        <time>2022-02-08T08:42:29Z</time>
      </trkpt>
      <trkpt lat="41.9311580" lon="-2.9026420">
        <ele>1197.1</ele>
        <time>2022-02-08T08:42:30Z</time>
      </trkpt>
      <trkpt lat="41.9311770" lon="-2.9026950">
        <ele>1197.1</ele>
        <time>2022-02-08T08:42:31Z</time>
      </trkpt>
      <trkpt lat="41.9311870" lon="-2.9027550">
        <ele>1197.1</ele>
        <time>2022-02-08T08:42:32Z</time>
      </trkpt>
      <trkpt lat="41.9311970" lon="-2.9028200">
        <ele>1197.9</ele>
        <time>2022-02-08T08:42:33Z</time>
      </trkpt>
      <trkpt lat="41.9312100" lon="-2.9028800">
        <ele>1197.9</ele>
        <time>2022-02-08T08:42:34Z</time>
      </trkpt>
      <trkpt lat="41.9312320" lon="-2.9029330">
        <ele>1197.9</ele>
        <time>2022-02-08T08:42:35Z</time>
      </trkpt>
      <trkpt lat="41.9312550" lon="-2.9029830">
        <ele>1198.3</ele>
        <time>2022-02-08T08:42:36Z</time>
      </trkpt>
      <trkpt lat="41.9312820" lon="-2.9030330">
        <ele>1198.2</ele>
        <time>2022-02-08T08:42:37Z</time>
      </trkpt>
      <trkpt lat="41.9313070" lon="-2.9030880">
        <ele>1198.2</ele>
        <time>2022-02-08T08:42:38Z</time>
      </trkpt>
      <trkpt lat="41.9313330" lon="-2.9031470">
        <ele>1198.4</ele>
        <time>2022-02-08T08:42:39Z</time>
      </trkpt>
      <trkpt lat="41.9313650" lon="-2.9032030">
        <ele>1198.4</ele>
        <time>2022-02-08T08:42:40Z</time>
      </trkpt>
      <trkpt lat="41.9313970" lon="-2.9032580">
        <ele>1198.4</ele>
        <time>2022-02-08T08:42:41Z</time>
      </trkpt>
      <trkpt lat="41.9314200" lon="-2.9033120">
        <ele>1198.6</ele>
        <time>2022-02-08T08:42:42Z</time>
      </trkpt>
      <trkpt lat="41.9314370" lon="-2.9033670">
        <ele>1198.6</ele>
        <time>2022-02-08T08:42:43Z</time>
      </trkpt>
      <trkpt lat="41.9314500" lon="-2.9034220">
        <ele>1198.6</ele>
        <time>2022-02-08T08:42:44Z</time>
      </trkpt>
      <trkpt lat="41.9314620" lon="-2.9034830">
        <ele>1198.8</ele>
        <time>2022-02-08T08:42:45Z</time>
      </trkpt>
      <trkpt lat="41.9314700" lon="-2.9035430">
        <ele>1198.8</ele>
        <time>2022-02-08T08:42:46Z</time>
      </trkpt>
      <trkpt lat="41.9314770" lon="-2.9036050">
        <ele>1198.7</ele>
        <time>2022-02-08T08:42:47Z</time>
      </trkpt>
      <trkpt lat="41.9314830" lon="-2.9036700">
        <ele>1198.6</ele>
        <time>2022-02-08T08:42:48Z</time>
      </trkpt>
      <trkpt lat="41.9314920" lon="-2.9037330">
        <ele>1198.6</ele>
        <time>2022-02-08T08:42:49Z</time>
      </trkpt>
      <trkpt lat="41.9315030" lon="-2.9037980">
        <ele>1198.6</ele>
        <time>2022-02-08T08:42:50Z</time>
      </trkpt>
      <trkpt lat="41.9315220" lon="-2.9038620">
        <ele>1198.1</ele>
        <time>2022-02-08T08:42:51Z</time>
      </trkpt>
      <trkpt lat="41.9315430" lon="-2.9039280">
        <ele>1197.8</ele>
        <time>2022-02-08T08:42:52Z</time>
      </trkpt>
      <trkpt lat="41.9315680" lon="-2.9039950">
        <ele>1197.8</ele>
        <time>2022-02-08T08:42:53Z</time>
      </trkpt>
      <trkpt lat="41.9315950" lon="-2.9040580">
        <ele>1197.4</ele>
        <time>2022-02-08T08:42:54Z</time>
      </trkpt>
      <trkpt lat="41.9316180" lon="-2.9041170">
        <ele>1197.4</ele>
        <time>2022-02-08T08:42:55Z</time>
      </trkpt>
      <trkpt lat="41.9316430" lon="-2.9041750">
        <ele>1197.2</ele>
        <time>2022-02-08T08:42:56Z</time>
      </trkpt>
      <trkpt lat="41.9316720" lon="-2.9042330">
        <ele>1196.2</ele>
        <time>2022-02-08T08:42:57Z</time>
      </trkpt>
      <trkpt lat="41.9316920" lon="-2.9042900">
        <ele>1196.2</ele>
        <time>2022-02-08T08:42:58Z</time>
      </trkpt>
      <trkpt lat="41.9317080" lon="-2.9043470">
        <ele>1195.7</ele>
        <time>2022-02-08T08:42:59Z</time>
      </trkpt>
      <trkpt lat="41.9317230" lon="-2.9044030">
        <ele>1195.7</ele>
        <time>2022-02-08T08:43:00Z</time>
      </trkpt>
      <trkpt lat="41.9317330" lon="-2.9044580">
        <ele>1195.6</ele>
        <time>2022-02-08T08:43:01Z</time>
      </trkpt>
      <trkpt lat="41.9317400" lon="-2.9045200">
        <ele>1194.8</ele>
        <time>2022-02-08T08:43:02Z</time>
      </trkpt>
      <trkpt lat="41.9317430" lon="-2.9045880">
        <ele>1194.8</ele>
        <time>2022-02-08T08:43:03Z</time>
      </trkpt>
      <trkpt lat="41.9317450" lon="-2.9046620">
        <ele>1194.8</ele>
        <time>2022-02-08T08:43:04Z</time>
      </trkpt>
      <trkpt lat="41.9317480" lon="-2.9047380">
        <ele>1193.7</ele>
        <time>2022-02-08T08:43:05Z</time>
      </trkpt>
      <trkpt lat="41.9317600" lon="-2.9048130">
        <ele>1193.7</ele>
        <time>2022-02-08T08:43:06Z</time>
      </trkpt>
      <trkpt lat="41.9317730" lon="-2.9048830">
        <ele>1192.9</ele>
        <time>2022-02-08T08:43:07Z</time>
      </trkpt>
      <trkpt lat="41.9317870" lon="-2.9049520">
        <ele>1191.4</ele>
        <time>2022-02-08T08:43:08Z</time>
      </trkpt>
      <trkpt lat="41.9317950" lon="-2.9050200">
        <ele>1191.4</ele>
        <time>2022-02-08T08:43:09Z</time>
      </trkpt>
      <trkpt lat="41.9317970" lon="-2.9050900">
        <ele>1190.6</ele>
        <time>2022-02-08T08:43:10Z</time>
      </trkpt>
      <trkpt lat="41.9317970" lon="-2.9051580">
        <ele>1190.6</ele>
        <time>2022-02-08T08:43:11Z</time>
      </trkpt>
      <trkpt lat="41.9317920" lon="-2.9052280">
        <ele>1190.1</ele>
        <time>2022-02-08T08:43:12Z</time>
      </trkpt>
      <trkpt lat="41.9317830" lon="-2.9053000">
        <ele>1191.6</ele>
        <time>2022-02-08T08:43:13Z</time>
      </trkpt>
      <trkpt lat="41.9317700" lon="-2.9053650">
        <ele>1191.6</ele>
        <time>2022-02-08T08:43:14Z</time>
      </trkpt>
      <trkpt lat="41.9317520" lon="-2.9054250">
        <ele>1191.2</ele>
        <time>2022-02-08T08:43:15Z</time>
      </trkpt>
      <trkpt lat="41.9317330" lon="-2.9054750">
        <ele>1191.2</ele>
        <time>2022-02-08T08:43:16Z</time>
      </trkpt>
      <trkpt lat="41.9317200" lon="-2.9055220">
        <ele>1191.2</ele>
        <time>2022-02-08T08:43:17Z</time>
      </trkpt>
      <trkpt lat="41.9317070" lon="-2.9055620">
        <ele>1191.0</ele>
        <time>2022-02-08T08:43:18Z</time>
      </trkpt>
      <trkpt lat="41.9316980" lon="-2.9056000">
        <ele>1191.0</ele>
        <time>2022-02-08T08:43:19Z</time>
      </trkpt>
      <trkpt lat="41.9316880" lon="-2.9056330">
        <ele>1191.0</ele>
        <time>2022-02-08T08:43:20Z</time>
      </trkpt>
      <trkpt lat="41.9316770" lon="-2.9056620">
        <ele>1191.0</ele>
        <time>2022-02-08T08:43:21Z</time>
      </trkpt>
      <trkpt lat="41.9316620" lon="-2.9056980">
        <ele>1191.0</ele>
        <time>2022-02-08T08:43:22Z</time>
      </trkpt>
      <trkpt lat="41.9316530" lon="-2.9057320">
        <ele>1192.7</ele>
        <time>2022-02-08T08:43:23Z</time>
      </trkpt>
      <trkpt lat="41.9316480" lon="-2.9057670">
        <ele>1192.7</ele>
        <time>2022-02-08T08:43:24Z</time>
      </trkpt>
      <trkpt lat="41.9316380" lon="-2.9058100">
        <ele>1192.7</ele>
        <time>2022-02-08T08:43:25Z</time>
      </trkpt>
      <trkpt lat="41.9316250" lon="-2.9058530">
        <ele>1192.7</ele>
        <time>2022-02-08T08:43:26Z</time>
      </trkpt>
      <trkpt lat="41.9316050" lon="-2.9058920">
        <ele>1192.7</ele>
        <time>2022-02-08T08:43:27Z</time>
      </trkpt>
      <trkpt lat="41.9315850" lon="-2.9059300">
        <ele>1192.7</ele>
        <time>2022-02-08T08:43:28Z</time>
      </trkpt>
      <trkpt lat="41.9315650" lon="-2.9059680">
        <ele>1192.7</ele>
        <time>2022-02-08T08:43:29Z</time>
      </trkpt>
      <trkpt lat="41.9315450" lon="-2.9060100">
        <ele>1192.7</ele>
        <time>2022-02-08T08:43:30Z</time>
      </trkpt>
      <trkpt lat="41.9315270" lon="-2.9060500">
        <ele>1194.2</ele>
        <time>2022-02-08T08:43:31Z</time>
      </trkpt>
      <trkpt lat="41.9315070" lon="-2.9060920">
        <ele>1194.4</ele>
        <time>2022-02-08T08:43:32Z</time>
      </trkpt>
      <trkpt lat="41.9314880" lon="-2.9061330">
        <ele>1194.4</ele>
        <time>2022-02-08T08:43:33Z</time>
      </trkpt>
      <trkpt lat="41.9314650" lon="-2.9061730">
        <ele>1194.4</ele>
        <time>2022-02-08T08:43:34Z</time>
      </trkpt>
      <trkpt lat="41.9314420" lon="-2.9062130">
        <ele>1194.4</ele>
        <time>2022-02-08T08:43:35Z</time>
      </trkpt>
      <trkpt lat="41.9314150" lon="-2.9062530">
        <ele>1194.9</ele>
        <time>2022-02-08T08:43:36Z</time>
      </trkpt>
      <trkpt lat="41.9313900" lon="-2.9062950">
        <ele>1196.7</ele>
        <time>2022-02-08T08:43:37Z</time>
      </trkpt>
      <trkpt lat="41.9313620" lon="-2.9063350">
        <ele>1196.7</ele>
        <time>2022-02-08T08:43:38Z</time>
      </trkpt>
      <trkpt lat="41.9313320" lon="-2.9063800">
        <ele>1196.7</ele>
        <time>2022-02-08T08:43:39Z</time>
      </trkpt>
      <trkpt lat="41.9313050" lon="-2.9064270">
        <ele>1197.5</ele>
        <time>2022-02-08T08:43:40Z</time>
      </trkpt>
      <trkpt lat="41.9312900" lon="-2.9064730">
        <ele>1197.5</ele>
        <time>2022-02-08T08:43:41Z</time>
      </trkpt>
      <trkpt lat="41.9312880" lon="-2.9065230">
        <ele>1197.5</ele>
        <time>2022-02-08T08:43:42Z</time>
      </trkpt>
      <trkpt lat="41.9312970" lon="-2.9065750">
        <ele>1198.4</ele>
        <time>2022-02-08T08:43:43Z</time>
      </trkpt>
      <trkpt lat="41.9313100" lon="-2.9066300">
        <ele>1198.4</ele>
        <time>2022-02-08T08:43:44Z</time>
      </trkpt>
      <trkpt lat="41.9313270" lon="-2.9066780">
        <ele>1198.4</ele>
        <time>2022-02-08T08:43:45Z</time>
      </trkpt>
      <trkpt lat="41.9313450" lon="-2.9067200">
        <ele>1198.4</ele>
        <time>2022-02-08T08:43:46Z</time>
      </trkpt>
      <trkpt lat="41.9313650" lon="-2.9067570">
        <ele>1199.1</ele>
        <time>2022-02-08T08:43:47Z</time>
      </trkpt>
      <trkpt lat="41.9313850" lon="-2.9067880">
        <ele>1199.1</ele>
        <time>2022-02-08T08:43:48Z</time>
      </trkpt>
      <trkpt lat="41.9314020" lon="-2.9068200">
        <ele>1197.2</ele>
        <time>2022-02-08T08:43:49Z</time>
      </trkpt>
      <trkpt lat="41.9314170" lon="-2.9068520">
        <ele>1197.2</ele>
        <time>2022-02-08T08:43:50Z</time>
      </trkpt>
      <trkpt lat="41.9314350" lon="-2.9068820">
        <ele>1197.2</ele>
        <time>2022-02-08T08:43:51Z</time>
      </trkpt>
      <trkpt lat="41.9314580" lon="-2.9069130">
        <ele>1197.2</ele>
        <time>2022-02-08T08:43:52Z</time>
      </trkpt>
      <trkpt lat="41.9314800" lon="-2.9069500">
        <ele>1197.7</ele>
        <time>2022-02-08T08:43:53Z</time>
      </trkpt>
      <trkpt lat="41.9315000" lon="-2.9069900">
        <ele>1197.7</ele>
        <time>2022-02-08T08:43:54Z</time>
      </trkpt>
      <trkpt lat="41.9315180" lon="-2.9070300">
        <ele>1197.7</ele>
        <time>2022-02-08T08:43:55Z</time>
      </trkpt>
      <trkpt lat="41.9315400" lon="-2.9070700">
        <ele>1195.9</ele>
        <time>2022-02-08T08:43:56Z</time>
      </trkpt>
      <trkpt lat="41.9315600" lon="-2.9071120">
        <ele>1196.6</ele>
        <time>2022-02-08T08:43:57Z</time>
      </trkpt>
      <trkpt lat="41.9315780" lon="-2.9071520">
        <ele>1196.5</ele>
        <time>2022-02-08T08:43:58Z</time>
      </trkpt>
      <trkpt lat="41.9316000" lon="-2.9071900">
        <ele>1196.5</ele>
        <time>2022-02-08T08:43:59Z</time>
      </trkpt>
      <trkpt lat="41.9316280" lon="-2.9072220">
        <ele>1196.5</ele>
        <time>2022-02-08T08:44:00Z</time>
      </trkpt>
      <trkpt lat="41.9316580" lon="-2.9072530">
        <ele>1194.6</ele>
        <time>2022-02-08T08:44:01Z</time>
      </trkpt>
      <trkpt lat="41.9316880" lon="-2.9072920">
        <ele>1195.4</ele>
        <time>2022-02-08T08:44:02Z</time>
      </trkpt>
      <trkpt lat="41.9317130" lon="-2.9073350">
        <ele>1195.4</ele>
        <time>2022-02-08T08:44:03Z</time>
      </trkpt>
      <trkpt lat="41.9317420" lon="-2.9073850">
        <ele>1195.4</ele>
        <time>2022-02-08T08:44:04Z</time>
      </trkpt>
      <trkpt lat="41.9317650" lon="-2.9074330">
        <ele>1195.8</ele>
        <time>2022-02-08T08:44:05Z</time>
      </trkpt>
      <trkpt lat="41.9317830" lon="-2.9074880">
        <ele>1195.8</ele>
        <time>2022-02-08T08:44:06Z</time>
      </trkpt>
      <trkpt lat="41.9317970" lon="-2.9075420">
        <ele>1194.3</ele>
        <time>2022-02-08T08:44:07Z</time>
      </trkpt>
      <trkpt lat="41.9318120" lon="-2.9076000">
        <ele>1194.3</ele>
        <time>2022-02-08T08:44:08Z</time>
      </trkpt>
      <trkpt lat="41.9318280" lon="-2.9076530">
        <ele>1194.9</ele>
        <time>2022-02-08T08:44:09Z</time>
      </trkpt>
      <trkpt lat="41.9318500" lon="-2.9077000">
        <ele>1194.9</ele>
        <time>2022-02-08T08:44:10Z</time>
      </trkpt>
      <trkpt lat="41.9318700" lon="-2.9077470">
        <ele>1194.9</ele>
        <time>2022-02-08T08:44:11Z</time>
      </trkpt>
      <trkpt lat="41.9318870" lon="-2.9077880">
        <ele>1195.6</ele>
        <time>2022-02-08T08:44:12Z</time>
      </trkpt>
      <trkpt lat="41.9318980" lon="-2.9078320">
        <ele>1195.6</ele>
        <time>2022-02-08T08:44:13Z</time>
      </trkpt>
      <trkpt lat="41.9319030" lon="-2.9078700">
        <ele>1195.6</ele>
        <time>2022-02-08T08:44:14Z</time>
      </trkpt>
      <trkpt lat="41.9319030" lon="-2.9079050">
        <ele>1195.6</ele>
        <time>2022-02-08T08:44:15Z</time>
      </trkpt>
      <trkpt lat="41.9319050" lon="-2.9079400">
        <ele>1195.6</ele>
        <time>2022-02-08T08:44:16Z</time>
      </trkpt>
      <trkpt lat="41.9319100" lon="-2.9079730">
        <ele>1195.8</ele>
        <time>2022-02-08T08:44:17Z</time>
      </trkpt>
      <trkpt lat="41.9319150" lon="-2.9080100">
        <ele>1194.7</ele>
        <time>2022-02-08T08:44:18Z</time>
      </trkpt>
      <trkpt lat="41.9319230" lon="-2.9080520">
        <ele>1194.7</ele>
        <time>2022-02-08T08:44:19Z</time>
      </trkpt>
      <trkpt lat="41.9319370" lon="-2.9080950">
        <ele>1194.6</ele>
        <time>2022-02-08T08:44:20Z</time>
      </trkpt>
      <trkpt lat="41.9319530" lon="-2.9081370">
        <ele>1194.9</ele>
        <time>2022-02-08T08:44:21Z</time>
      </trkpt>
      <trkpt lat="41.9319730" lon="-2.9082000">
        <ele>1194.9</ele>
        <time>2022-02-08T08:44:22Z</time>
      </trkpt>
      <trkpt lat="41.9319950" lon="-2.9082550">
        <ele>1194.9</ele>
        <time>2022-02-08T08:44:23Z</time>
      </trkpt>
      <trkpt lat="41.9320080" lon="-2.9083080">
        <ele>1195.4</ele>
        <time>2022-02-08T08:44:24Z</time>
      </trkpt>
      <trkpt lat="41.9320230" lon="-2.9083500">
        <ele>1195.4</ele>
        <time>2022-02-08T08:44:25Z</time>
      </trkpt>
      <trkpt lat="41.9320370" lon="-2.9083930">
        <ele>1195.4</ele>
        <time>2022-02-08T08:44:26Z</time>
      </trkpt>
      <trkpt lat="41.9320480" lon="-2.9084400">
        <ele>1194.7</ele>
        <time>2022-02-08T08:44:27Z</time>
      </trkpt>
      <trkpt lat="41.9320600" lon="-2.9084770">
        <ele>1195.4</ele>
        <time>2022-02-08T08:44:28Z</time>
      </trkpt>
      <trkpt lat="41.9320670" lon="-2.9085180">
        <ele>1195.4</ele>
        <time>2022-02-08T08:44:29Z</time>
      </trkpt>
      <trkpt lat="41.9320680" lon="-2.9085620">
        <ele>1195.4</ele>
        <time>2022-02-08T08:44:30Z</time>
      </trkpt>
      <trkpt lat="41.9320670" lon="-2.9086080">
        <ele>1195.4</ele>
        <time>2022-02-08T08:44:31Z</time>
      </trkpt>
      <trkpt lat="41.9320630" lon="-2.9086570">
        <ele>1196.4</ele>
        <time>2022-02-08T08:44:32Z</time>
      </trkpt>
      <trkpt lat="41.9320620" lon="-2.9087030">
        <ele>1196.3</ele>
        <time>2022-02-08T08:44:33Z</time>
      </trkpt>
      <trkpt lat="41.9320620" lon="-2.9087470">
        <ele>1196.3</ele>
        <time>2022-02-08T08:44:34Z</time>
      </trkpt>
      <trkpt lat="41.9320600" lon="-2.9087870">
        <ele>1196.3</ele>
        <time>2022-02-08T08:44:35Z</time>
      </trkpt>
      <trkpt lat="41.9320570" lon="-2.9088270">
        <ele>1197.2</ele>
        <time>2022-02-08T08:44:36Z</time>
      </trkpt>
      <trkpt lat="41.9320600" lon="-2.9088630">
        <ele>1197.2</ele>
        <time>2022-02-08T08:44:37Z</time>
      </trkpt>
      <trkpt lat="41.9320670" lon="-2.9088980">
        <ele>1197.2</ele>
        <time>2022-02-08T08:44:38Z</time>
      </trkpt>
      <trkpt lat="41.9320770" lon="-2.9089330">
        <ele>1197.2</ele>
        <time>2022-02-08T08:44:39Z</time>
      </trkpt>
      <trkpt lat="41.9320870" lon="-2.9089680">
        <ele>1197.2</ele>
        <time>2022-02-08T08:44:40Z</time>
      </trkpt>
      <trkpt lat="41.9320980" lon="-2.9090050">
        <ele>1198.0</ele>
        <time>2022-02-08T08:44:41Z</time>
      </trkpt>
      <trkpt lat="41.9321120" lon="-2.9090400">
        <ele>1198.0</ele>
        <time>2022-02-08T08:44:42Z</time>
      </trkpt>
      <trkpt lat="41.9321270" lon="-2.9090770">
        <ele>1198.0</ele>
        <time>2022-02-08T08:44:43Z</time>
      </trkpt>
      <trkpt lat="41.9321400" lon="-2.9091150">
        <ele>1198.0</ele>
        <time>2022-02-08T08:44:44Z</time>
      </trkpt>
      <trkpt lat="41.9321570" lon="-2.9091550">
        <ele>1198.7</ele>
        <time>2022-02-08T08:44:45Z</time>
      </trkpt>
      <trkpt lat="41.9321730" lon="-2.9091900">
        <ele>1197.3</ele>
        <time>2022-02-08T08:44:46Z</time>
      </trkpt>
      <trkpt lat="41.9321930" lon="-2.9092250">
        <ele>1197.3</ele>
        <time>2022-02-08T08:44:47Z</time>
      </trkpt>
      <trkpt lat="41.9322100" lon="-2.9092580">
        <ele>1197.3</ele>
        <time>2022-02-08T08:44:48Z</time>
      </trkpt>
      <trkpt lat="41.9322270" lon="-2.9092950">
        <ele>1197.3</ele>
        <time>2022-02-08T08:44:49Z</time>
      </trkpt>
      <trkpt lat="41.9322400" lon="-2.9093320">
        <ele>1197.8</ele>
        <time>2022-02-08T08:44:50Z</time>
      </trkpt>
      <trkpt lat="41.9322530" lon="-2.9093670">
        <ele>1197.8</ele>
        <time>2022-02-08T08:44:51Z</time>
      </trkpt>
      <trkpt lat="41.9322650" lon="-2.9094030">
        <ele>1197.8</ele>
        <time>2022-02-08T08:44:52Z</time>
      </trkpt>
      <trkpt lat="41.9322750" lon="-2.9094380">
        <ele>1197.8</ele>
        <time>2022-02-08T08:44:53Z</time>
      </trkpt>
      <trkpt lat="41.9322830" lon="-2.9094770">
        <ele>1197.8</ele>
        <time>2022-02-08T08:44:54Z</time>
      </trkpt>
      <trkpt lat="41.9322880" lon="-2.9095200">
        <ele>1198.1</ele>
        <time>2022-02-08T08:44:55Z</time>
      </trkpt>
      <trkpt lat="41.9322930" lon="-2.9095630">
        <ele>1198.1</ele>
        <time>2022-02-08T08:44:56Z</time>
      </trkpt>
      <trkpt lat="41.9322980" lon="-2.9096020">
        <ele>1196.8</ele>
        <time>2022-02-08T08:44:57Z</time>
      </trkpt>
      <trkpt lat="41.9323020" lon="-2.9096420">
        <ele>1196.8</ele>
        <time>2022-02-08T08:44:58Z</time>
      </trkpt>
      <trkpt lat="41.9323080" lon="-2.9096850">
        <ele>1196.6</ele>
        <time>2022-02-08T08:44:59Z</time>
      </trkpt>
      <trkpt lat="41.9323130" lon="-2.9097270">
        <ele>1196.6</ele>
        <time>2022-02-08T08:45:00Z</time>
      </trkpt>
      <trkpt lat="41.9323200" lon="-2.9097720">
        <ele>1196.6</ele>
        <time>2022-02-08T08:45:01Z</time>
      </trkpt>
      <trkpt lat="41.9323250" lon="-2.9098180">
        <ele>1196.6</ele>
        <time>2022-02-08T08:45:02Z</time>
      </trkpt>
      <trkpt lat="41.9323330" lon="-2.9098650">
        <ele>1196.2</ele>
        <time>2022-02-08T08:45:03Z</time>
      </trkpt>
      <trkpt lat="41.9323420" lon="-2.9099150">
        <ele>1196.2</ele>
        <time>2022-02-08T08:45:04Z</time>
      </trkpt>
      <trkpt lat="41.9323530" lon="-2.9099670">
        <ele>1196.2</ele>
        <time>2022-02-08T08:45:05Z</time>
      </trkpt>
      <trkpt lat="41.9323670" lon="-2.9100220">
        <ele>1195.7</ele>
        <time>2022-02-08T08:45:06Z</time>
      </trkpt>
      <trkpt lat="41.9323780" lon="-2.9100780">
        <ele>1195.7</ele>
        <time>2022-02-08T08:45:07Z</time>
      </trkpt>
      <trkpt lat="41.9323830" lon="-2.9101380">
        <ele>1195.7</ele>
        <time>2022-02-08T08:45:08Z</time>
      </trkpt>
      <trkpt lat="41.9323870" lon="-2.9102020">
        <ele>1195.3</ele>
        <time>2022-02-08T08:45:09Z</time>
      </trkpt>
      <trkpt lat="41.9323920" lon="-2.9102680">
        <ele>1195.3</ele>
        <time>2022-02-08T08:45:10Z</time>
      </trkpt>
      <trkpt lat="41.9323950" lon="-2.9103350">
        <ele>1195.3</ele>
        <time>2022-02-08T08:45:11Z</time>
      </trkpt>
      <trkpt lat="41.9323950" lon="-2.9104070">
        <ele>1194.9</ele>
        <time>2022-02-08T08:45:12Z</time>
      </trkpt>
      <trkpt lat="41.9323930" lon="-2.9104750">
        <ele>1194.9</ele>
        <time>2022-02-08T08:45:13Z</time>
      </trkpt>
      <trkpt lat="41.9323950" lon="-2.9105380">
        <ele>1194.6</ele>
        <time>2022-02-08T08:45:14Z</time>
      </trkpt>
      <trkpt lat="41.9323980" lon="-2.9106020">
        <ele>1194.6</ele>
        <time>2022-02-08T08:45:15Z</time>
      </trkpt>
      <trkpt lat="41.9323980" lon="-2.9106650">
        <ele>1194.6</ele>
        <time>2022-02-08T08:45:16Z</time>
      </trkpt>
      <trkpt lat="41.9323920" lon="-2.9107250">
        <ele>1194.1</ele>
        <time>2022-02-08T08:45:17Z</time>
      </trkpt>
      <trkpt lat="41.9323800" lon="-2.9107830">
        <ele>1194.1</ele>
        <time>2022-02-08T08:45:18Z</time>
      </trkpt>
      <trkpt lat="41.9323680" lon="-2.9108400">
        <ele>1194.1</ele>
        <time>2022-02-08T08:45:19Z</time>
      </trkpt>
      <trkpt lat="41.9323570" lon="-2.9108980">
        <ele>1193.3</ele>
        <time>2022-02-08T08:45:20Z</time>
      </trkpt>
      <trkpt lat="41.9323520" lon="-2.9109520">
        <ele>1193.3</ele>
        <time>2022-02-08T08:45:21Z</time>
      </trkpt>
      <trkpt lat="41.9323420" lon="-2.9110120">
        <ele>1193.3</ele>
        <time>2022-02-08T08:45:22Z</time>
      </trkpt>
      <trkpt lat="41.9323320" lon="-2.9110680">
        <ele>1192.5</ele>
        <time>2022-02-08T08:45:23Z</time>
      </trkpt>
      <trkpt lat="41.9323150" lon="-2.9111270">
        <ele>1192.5</ele>
        <time>2022-02-08T08:45:24Z</time>
      </trkpt>
      <trkpt lat="41.9322970" lon="-2.9111820">
        <ele>1192.5</ele>
        <time>2022-02-08T08:45:25Z</time>
      </trkpt>
      <trkpt lat="41.9322780" lon="-2.9112370">
        <ele>1191.7</ele>
        <time>2022-02-08T08:45:26Z</time>
      </trkpt>
      <trkpt lat="41.9322600" lon="-2.9112880">
        <ele>1191.7</ele>
        <time>2022-02-08T08:45:27Z</time>
      </trkpt>
      <trkpt lat="41.9322380" lon="-2.9113420">
        <ele>1191.7</ele>
        <time>2022-02-08T08:45:28Z</time>
      </trkpt>
      <trkpt lat="41.9322150" lon="-2.9113980">
        <ele>1190.4</ele>
        <time>2022-02-08T08:45:29Z</time>
      </trkpt>
      <trkpt lat="41.9321900" lon="-2.9114580">
        <ele>1190.3</ele>
        <time>2022-02-08T08:45:30Z</time>
      </trkpt>
      <trkpt lat="41.9321620" lon="-2.9115170">
        <ele>1190.4</ele>
        <time>2022-02-08T08:45:31Z</time>
      </trkpt>
      <trkpt lat="41.9321300" lon="-2.9115820">
        <ele>1188.8</ele>
        <time>2022-02-08T08:45:32Z</time>
      </trkpt>
      <trkpt lat="41.9320980" lon="-2.9116500">
        <ele>1188.8</ele>
        <time>2022-02-08T08:45:33Z</time>
      </trkpt>
      <trkpt lat="41.9320680" lon="-2.9117150">
        <ele>1188.8</ele>
        <time>2022-02-08T08:45:34Z</time>
      </trkpt>
      <trkpt lat="41.9320330" lon="-2.9117730">
        <ele>1186.8</ele>
        <time>2022-02-08T08:45:35Z</time>
      </trkpt>
      <trkpt lat="41.9319950" lon="-2.9118280">
        <ele>1186.8</ele>
        <time>2022-02-08T08:45:36Z</time>
      </trkpt>
      <trkpt lat="41.9319530" lon="-2.9118800">
        <ele>1186.7</ele>
        <time>2022-02-08T08:45:37Z</time>
      </trkpt>
      <trkpt lat="41.9319130" lon="-2.9119300">
        <ele>1184.9</ele>
        <time>2022-02-08T08:45:38Z</time>
      </trkpt>
      <trkpt lat="41.9318750" lon="-2.9119820">
        <ele>1184.8</ele>
        <time>2022-02-08T08:45:39Z</time>
      </trkpt>
      <trkpt lat="41.9318330" lon="-2.9120280">
        <ele>1184.8</ele>
        <time>2022-02-08T08:45:40Z</time>
      </trkpt>
      <trkpt lat="41.9317920" lon="-2.9120720">
        <ele>1182.9</ele>
        <time>2022-02-08T08:45:41Z</time>
      </trkpt>
      <trkpt lat="41.9317480" lon="-2.9121150">
        <ele>1182.8</ele>
        <time>2022-02-08T08:45:42Z</time>
      </trkpt>
      <trkpt lat="41.9317070" lon="-2.9121550">
        <ele>1182.8</ele>
        <time>2022-02-08T08:45:43Z</time>
      </trkpt>
      <trkpt lat="41.9316620" lon="-2.9121920">
        <ele>1182.8</ele>
        <time>2022-02-08T08:45:44Z</time>
      </trkpt>
      <trkpt lat="41.9316130" lon="-2.9122250">
        <ele>1183.0</ele>
        <time>2022-02-08T08:45:45Z</time>
      </trkpt>
      <trkpt lat="41.9315650" lon="-2.9122630">
        <ele>1180.7</ele>
        <time>2022-02-08T08:45:46Z</time>
      </trkpt>
      <trkpt lat="41.9315170" lon="-2.9123050">
        <ele>1180.8</ele>
        <time>2022-02-08T08:45:47Z</time>
      </trkpt>
      <trkpt lat="41.9314570" lon="-2.9123480">
        <ele>1180.7</ele>
        <time>2022-02-08T08:45:48Z</time>
      </trkpt>
      <trkpt lat="41.9314170" lon="-2.9123770">
        <ele>1180.7</ele>
        <time>2022-02-08T08:45:49Z</time>
      </trkpt>
      <trkpt lat="41.9313650" lon="-2.9124070">
        <ele>1178.8</ele>
        <time>2022-02-08T08:45:50Z</time>
      </trkpt>
      <trkpt lat="41.9313150" lon="-2.9124350">
        <ele>1178.8</ele>
        <time>2022-02-08T08:45:51Z</time>
      </trkpt>
      <trkpt lat="41.9312650" lon="-2.9124600">
        <ele>1179.2</ele>
        <time>2022-02-08T08:45:52Z</time>
      </trkpt>
      <trkpt lat="41.9312150" lon="-2.9124800">
        <ele>1179.2</ele>
        <time>2022-02-08T08:45:53Z</time>
      </trkpt>
      <trkpt lat="41.9311650" lon="-2.9124950">
        <ele>1179.2</ele>
        <time>2022-02-08T08:45:54Z</time>
      </trkpt>
      <trkpt lat="41.9311130" lon="-2.9125120">
        <ele>1179.2</ele>
        <time>2022-02-08T08:45:55Z</time>
      </trkpt>
      <trkpt lat="41.9310670" lon="-2.9125370">
        <ele>1179.2</ele>
        <time>2022-02-08T08:45:56Z</time>
      </trkpt>
      <trkpt lat="41.9310200" lon="-2.9125700">
        <ele>1179.2</ele>
        <time>2022-02-08T08:45:57Z</time>
      </trkpt>
      <trkpt lat="41.9309730" lon="-2.9126150">
        <ele>1179.2</ele>
        <time>2022-02-08T08:45:58Z</time>
      </trkpt>
      <trkpt lat="41.9309230" lon="-2.9126620">
        <ele>1179.2</ele>
        <time>2022-02-08T08:45:59Z</time>
      </trkpt>
      <trkpt lat="41.9308720" lon="-2.9127100">
        <ele>1179.2</ele>
        <time>2022-02-08T08:46:00Z</time>
      </trkpt>
      <trkpt lat="41.9308230" lon="-2.9127520">
        <ele>1179.1</ele>
        <time>2022-02-08T08:46:01Z</time>
      </trkpt>
      <trkpt lat="41.9307770" lon="-2.9127900">
        <ele>1179.1</ele>
        <time>2022-02-08T08:46:02Z</time>
      </trkpt>
      <trkpt lat="41.9307380" lon="-2.9128250">
        <ele>1179.1</ele>
        <time>2022-02-08T08:46:03Z</time>
      </trkpt>
      <trkpt lat="41.9307070" lon="-2.9128520">
        <ele>1179.0</ele>
        <time>2022-02-08T08:46:04Z</time>
      </trkpt>
      <trkpt lat="41.9306870" lon="-2.9128750">
        <ele>1178.6</ele>
        <time>2022-02-08T08:46:05Z</time>
      </trkpt>
      <trkpt lat="41.9306770" lon="-2.9128880">
        <ele>1178.6</ele>
        <time>2022-02-08T08:46:06Z</time>
      </trkpt>
      <trkpt lat="41.9306720" lon="-2.9128970">
        <ele>1178.6</ele>
        <time>2022-02-08T08:46:07Z</time>
      </trkpt>
      <trkpt lat="41.9306670" lon="-2.9129080">
        <ele>1178.6</ele>
        <time>2022-02-08T08:46:08Z</time>
      </trkpt>
      <trkpt lat="41.9306550" lon="-2.9129170">
        <ele>1178.6</ele>
        <time>2022-02-08T08:46:09Z</time>
      </trkpt>
      <trkpt lat="41.9306380" lon="-2.9129300">
        <ele>1178.5</ele>
        <time>2022-02-08T08:46:10Z</time>
      </trkpt>
      <trkpt lat="41.9306170" lon="-2.9129400">
        <ele>1178.5</ele>
        <time>2022-02-08T08:46:11Z</time>
      </trkpt>
      <trkpt lat="41.9305930" lon="-2.9129400">
        <ele>1178.4</ele>
        <time>2022-02-08T08:46:12Z</time>
      </trkpt>
      <trkpt lat="41.9305530" lon="-2.9129350">
        <ele>1178.4</ele>
        <time>2022-02-08T08:46:13Z</time>
      </trkpt>
      <trkpt lat="41.9305250" lon="-2.9129300">
        <ele>1178.3</ele>
        <time>2022-02-08T08:46:14Z</time>
      </trkpt>
      <trkpt lat="41.9305020" lon="-2.9129430">
        <ele>1178.3</ele>
        <time>2022-02-08T08:46:15Z</time>
      </trkpt>
      <trkpt lat="41.9304780" lon="-2.9129570">
        <ele>1178.2</ele>
        <time>2022-02-08T08:46:16Z</time>
      </trkpt>
      <trkpt lat="41.9304570" lon="-2.9129700">
        <ele>1178.2</ele>
        <time>2022-02-08T08:46:17Z</time>
      </trkpt>
      <trkpt lat="41.9304350" lon="-2.9129800">
        <ele>1178.2</ele>
        <time>2022-02-08T08:46:18Z</time>
      </trkpt>
      <trkpt lat="41.9304150" lon="-2.9129880">
        <ele>1178.1</ele>
        <time>2022-02-08T08:46:19Z</time>
      </trkpt>
      <trkpt lat="41.9303920" lon="-2.9129970">
        <ele>1178.1</ele>
        <time>2022-02-08T08:46:20Z</time>
      </trkpt>
      <trkpt lat="41.9303700" lon="-2.9130020">
        <ele>1178.1</ele>
        <time>2022-02-08T08:46:21Z</time>
      </trkpt>
      <trkpt lat="41.9303470" lon="-2.9130080">
        <ele>1178.1</ele>
        <time>2022-02-08T08:46:22Z</time>
      </trkpt>
      <trkpt lat="41.9303230" lon="-2.9130180">
        <ele>1178.1</ele>
        <time>2022-02-08T08:46:23Z</time>
      </trkpt>
      <trkpt lat="41.9303020" lon="-2.9130280">
        <ele>1178.1</ele>
        <time>2022-02-08T08:46:24Z</time>
      </trkpt>
      <trkpt lat="41.9302800" lon="-2.9130430">
        <ele>1178.1</ele>
        <time>2022-02-08T08:46:25Z</time>
      </trkpt>
      <trkpt lat="41.9302550" lon="-2.9130650">
        <ele>1178.0</ele>
        <time>2022-02-08T08:46:26Z</time>
      </trkpt>
      <trkpt lat="41.9302250" lon="-2.9130920">
        <ele>1178.0</ele>
        <time>2022-02-08T08:46:27Z</time>
      </trkpt>
      <trkpt lat="41.9301880" lon="-2.9131150">
        <ele>1178.0</ele>
        <time>2022-02-08T08:46:28Z</time>
      </trkpt>
      <trkpt lat="41.9301470" lon="-2.9131430">
        <ele>1178.0</ele>
        <time>2022-02-08T08:46:29Z</time>
      </trkpt>
      <trkpt lat="41.9301080" lon="-2.9131800">
        <ele>1177.9</ele>
        <time>2022-02-08T08:46:30Z</time>
      </trkpt>
      <trkpt lat="41.9300750" lon="-2.9132200">
        <ele>1177.9</ele>
        <time>2022-02-08T08:46:31Z</time>
      </trkpt>
      <trkpt lat="41.9300470" lon="-2.9132680">
        <ele>1177.8</ele>
        <time>2022-02-08T08:46:32Z</time>
      </trkpt>
      <trkpt lat="41.9300220" lon="-2.9133250">
        <ele>1177.7</ele>
        <time>2022-02-08T08:46:33Z</time>
      </trkpt>
      <trkpt lat="41.9300050" lon="-2.9133930">
        <ele>1177.7</ele>
        <time>2022-02-08T08:46:34Z</time>
      </trkpt>
      <trkpt lat="41.9300070" lon="-2.9134520">
        <ele>1177.6</ele>
        <time>2022-02-08T08:46:35Z</time>
      </trkpt>
      <trkpt lat="41.9300220" lon="-2.9134980">
        <ele>1177.7</ele>
        <time>2022-02-08T08:46:36Z</time>
      </trkpt>
      <trkpt lat="41.9300480" lon="-2.9135330">
        <ele>1177.7</ele>
        <time>2022-02-08T08:46:37Z</time>
      </trkpt>
      <trkpt lat="41.9300820" lon="-2.9135500">
        <ele>1177.8</ele>
        <time>2022-02-08T08:46:38Z</time>
      </trkpt>
      <trkpt lat="41.9301220" lon="-2.9135470">
        <ele>1177.8</ele>
        <time>2022-02-08T08:46:39Z</time>
      </trkpt>
      <trkpt lat="41.9301580" lon="-2.9135330">
        <ele>1177.9</ele>
        <time>2022-02-08T08:46:40Z</time>
      </trkpt>
      <trkpt lat="41.9301930" lon="-2.9135130">
        <ele>1177.9</ele>
        <time>2022-02-08T08:46:41Z</time>
      </trkpt>
      <trkpt lat="41.9302280" lon="-2.9134920">
        <ele>1178.0</ele>
        <time>2022-02-08T08:46:42Z</time>
      </trkpt>
      <trkpt lat="41.9302730" lon="-2.9134650">
        <ele>1178.0</ele>
        <time>2022-02-08T08:46:43Z</time>
      </trkpt>
      <trkpt lat="41.9303050" lon="-2.9134480">
        <ele>1178.0</ele>
        <time>2022-02-08T08:46:44Z</time>
      </trkpt>
      <trkpt lat="41.9303400" lon="-2.9134250">
        <ele>1178.1</ele>
        <time>2022-02-08T08:46:45Z</time>
      </trkpt>
      <trkpt lat="41.9303750" lon="-2.9134050">
        <ele>1178.1</ele>
        <time>2022-02-08T08:46:46Z</time>
      </trkpt>
      <trkpt lat="41.9304100" lon="-2.9133830">
        <ele>1178.1</ele>
        <time>2022-02-08T08:46:47Z</time>
      </trkpt>
      <trkpt lat="41.9304450" lon="-2.9133630">
        <ele>1178.1</ele>
        <time>2022-02-08T08:46:48Z</time>
      </trkpt>
      <trkpt lat="41.9304820" lon="-2.9133450">
        <ele>1178.2</ele>
        <time>2022-02-08T08:46:49Z</time>
      </trkpt>
      <trkpt lat="41.9305200" lon="-2.9133320">
        <ele>1178.2</ele>
        <time>2022-02-08T08:46:50Z</time>
      </trkpt>
      <trkpt lat="41.9305580" lon="-2.9133180">
        <ele>1178.3</ele>
        <time>2022-02-08T08:46:51Z</time>
      </trkpt>
      <trkpt lat="41.9305970" lon="-2.9133020">
        <ele>1178.4</ele>
        <time>2022-02-08T08:46:52Z</time>
      </trkpt>
      <trkpt lat="41.9306300" lon="-2.9132880">
        <ele>1178.4</ele>
        <time>2022-02-08T08:46:53Z</time>
      </trkpt>
      <trkpt lat="41.9306630" lon="-2.9132730">
        <ele>1178.5</ele>
        <time>2022-02-08T08:46:54Z</time>
      </trkpt>
      <trkpt lat="41.9306950" lon="-2.9132620">
        <ele>1178.6</ele>
        <time>2022-02-08T08:46:55Z</time>
      </trkpt>
      <trkpt lat="41.9307250" lon="-2.9132520">
        <ele>1178.6</ele>
        <time>2022-02-08T08:46:56Z</time>
      </trkpt>
      <trkpt lat="41.9307530" lon="-2.9132430">
        <ele>1178.7</ele>
        <time>2022-02-08T08:46:57Z</time>
      </trkpt>
      <trkpt lat="41.9307830" lon="-2.9132400">
        <ele>1178.7</ele>
        <time>2022-02-08T08:46:58Z</time>
      </trkpt>
      <trkpt lat="41.9308120" lon="-2.9132450">
        <ele>1178.8</ele>
        <time>2022-02-08T08:46:59Z</time>
      </trkpt>
      <trkpt lat="41.9308370" lon="-2.9132620">
        <ele>1178.8</ele>
        <time>2022-02-08T08:47:00Z</time>
      </trkpt>
      <trkpt lat="41.9308530" lon="-2.9132870">
        <ele>1178.8</ele>
        <time>2022-02-08T08:47:01Z</time>
      </trkpt>
      <trkpt lat="41.9308620" lon="-2.9133230">
        <ele>1178.8</ele>
        <time>2022-02-08T08:47:02Z</time>
      </trkpt>
      <trkpt lat="41.9308670" lon="-2.9133650">
        <ele>1178.8</ele>
        <time>2022-02-08T08:47:03Z</time>
      </trkpt>
      <trkpt lat="41.9308650" lon="-2.9134100">
        <ele>1178.8</ele>
        <time>2022-02-08T08:47:04Z</time>
      </trkpt>
      <trkpt lat="41.9308630" lon="-2.9134580">
        <ele>1178.8</ele>
        <time>2022-02-08T08:47:05Z</time>
      </trkpt>
      <trkpt lat="41.9308600" lon="-2.9135070">
        <ele>1178.8</ele>
        <time>2022-02-08T08:47:06Z</time>
      </trkpt>
      <trkpt lat="41.9308620" lon="-2.9135520">
        <ele>1178.8</ele>
        <time>2022-02-08T08:47:07Z</time>
      </trkpt>
      <trkpt lat="41.9308650" lon="-2.9135970">
        <ele>1178.8</ele>
        <time>2022-02-08T08:47:08Z</time>
      </trkpt>
      <trkpt lat="41.9308680" lon="-2.9136370">
        <ele>1178.8</ele>
        <time>2022-02-08T08:47:09Z</time>
      </trkpt>
      <trkpt lat="41.9308680" lon="-2.9136820">
        <ele>1178.8</ele>
        <time>2022-02-08T08:47:10Z</time>
      </trkpt>
      <trkpt lat="41.9308680" lon="-2.9137270">
        <ele>1178.8</ele>
        <time>2022-02-08T08:47:11Z</time>
      </trkpt>
      <trkpt lat="41.9308670" lon="-2.9137700">
        <ele>1178.8</ele>
        <time>2022-02-08T08:47:12Z</time>
      </trkpt>
      <trkpt lat="41.9308700" lon="-2.9138170">
        <ele>1178.8</ele>
        <time>2022-02-08T08:47:13Z</time>
      </trkpt>
      <trkpt lat="41.9308770" lon="-2.9138630">
        <ele>1178.9</ele>
        <time>2022-02-08T08:47:14Z</time>
      </trkpt>
      <trkpt lat="41.9308880" lon="-2.9139180">
        <ele>1178.9</ele>
        <time>2022-02-08T08:47:15Z</time>
      </trkpt>
      <trkpt lat="41.9309030" lon="-2.9139850">
        <ele>1178.9</ele>
        <time>2022-02-08T08:47:16Z</time>
      </trkpt>
      <trkpt lat="41.9309180" lon="-2.9140530">
        <ele>1178.9</ele>
        <time>2022-02-08T08:47:17Z</time>
      </trkpt>
      <trkpt lat="41.9309300" lon="-2.9141230">
        <ele>1178.8</ele>
        <time>2022-02-08T08:47:18Z</time>
      </trkpt>
      <trkpt lat="41.9309350" lon="-2.9141970">
        <ele>1178.8</ele>
        <time>2022-02-08T08:47:19Z</time>
      </trkpt>
      <trkpt lat="41.9309370" lon="-2.9142680">
        <ele>1178.8</ele>
        <time>2022-02-08T08:47:20Z</time>
      </trkpt>
      <trkpt lat="41.9309370" lon="-2.9143420">
        <ele>1178.8</ele>
        <time>2022-02-08T08:47:21Z</time>
      </trkpt>
      <trkpt lat="41.9309370" lon="-2.9144130">
        <ele>1178.8</ele>
        <time>2022-02-08T08:47:22Z</time>
      </trkpt>
      <trkpt lat="41.9309380" lon="-2.9144800">
        <ele>1178.8</ele>
        <time>2022-02-08T08:47:23Z</time>
      </trkpt>
      <trkpt lat="41.9309400" lon="-2.9145480">
        <ele>1178.8</ele>
        <time>2022-02-08T08:47:24Z</time>
      </trkpt>
      <trkpt lat="41.9309480" lon="-2.9146100">
        <ele>1178.9</ele>
        <time>2022-02-08T08:47:25Z</time>
      </trkpt>
      <trkpt lat="41.9309580" lon="-2.9146750">
        <ele>1178.9</ele>
        <time>2022-02-08T08:47:26Z</time>
      </trkpt>
      <trkpt lat="41.9309770" lon="-2.9147320">
        <ele>1178.8</ele>
        <time>2022-02-08T08:47:27Z</time>
      </trkpt>
      <trkpt lat="41.9310050" lon="-2.9147770">
        <ele>1178.7</ele>
        <time>2022-02-08T08:47:28Z</time>
      </trkpt>
      <trkpt lat="41.9310420" lon="-2.9148120">
        <ele>1178.7</ele>
        <time>2022-02-08T08:47:29Z</time>
      </trkpt>
      <trkpt lat="41.9310820" lon="-2.9148330">
        <ele>1178.6</ele>
        <time>2022-02-08T08:47:30Z</time>
      </trkpt>
      <trkpt lat="41.9311230" lon="-2.9148500">
        <ele>1178.6</ele>
        <time>2022-02-08T08:47:31Z</time>
      </trkpt>
      <trkpt lat="41.9311680" lon="-2.9148720">
        <ele>1178.6</ele>
        <time>2022-02-08T08:47:32Z</time>
      </trkpt>
      <trkpt lat="41.9312070" lon="-2.9149000">
        <ele>1178.5</ele>
        <time>2022-02-08T08:47:33Z</time>
      </trkpt>
      <trkpt lat="41.9312420" lon="-2.9149350">
        <ele>1178.5</ele>
        <time>2022-02-08T08:47:34Z</time>
      </trkpt>
      <trkpt lat="41.9312750" lon="-2.9149800">
        <ele>1178.5</ele>
        <time>2022-02-08T08:47:35Z</time>
      </trkpt>
      <trkpt lat="41.9313070" lon="-2.9150280">
        <ele>1178.5</ele>
        <time>2022-02-08T08:47:36Z</time>
      </trkpt>
      <trkpt lat="41.9313380" lon="-2.9150770">
        <ele>1178.4</ele>
        <time>2022-02-08T08:47:37Z</time>
      </trkpt>
      <trkpt lat="41.9313670" lon="-2.9151280">
        <ele>1178.4</ele>
        <time>2022-02-08T08:47:38Z</time>
      </trkpt>
      <trkpt lat="41.9314000" lon="-2.9151770">
        <ele>1178.3</ele>
        <time>2022-02-08T08:47:39Z</time>
      </trkpt>
      <trkpt lat="41.9314350" lon="-2.9152250">
        <ele>1178.3</ele>
        <time>2022-02-08T08:47:40Z</time>
      </trkpt>
      <trkpt lat="41.9314700" lon="-2.9152720">
        <ele>1178.2</ele>
        <time>2022-02-08T08:47:41Z</time>
      </trkpt>
      <trkpt lat="41.9315070" lon="-2.9153200">
        <ele>1178.2</ele>
        <time>2022-02-08T08:47:42Z</time>
      </trkpt>
      <trkpt lat="41.9315380" lon="-2.9153650">
        <ele>1178.1</ele>
        <time>2022-02-08T08:47:43Z</time>
      </trkpt>
      <trkpt lat="41.9315750" lon="-2.9154100">
        <ele>1178.1</ele>
        <time>2022-02-08T08:47:44Z</time>
      </trkpt>
      <trkpt lat="41.9316130" lon="-2.9154530">
        <ele>1178.1</ele>
        <time>2022-02-08T08:47:45Z</time>
      </trkpt>
      <trkpt lat="41.9316530" lon="-2.9154930">
        <ele>1178.0</ele>
        <time>2022-02-08T08:47:46Z</time>
      </trkpt>
      <trkpt lat="41.9316950" lon="-2.9155330">
        <ele>1178.0</ele>
        <time>2022-02-08T08:47:47Z</time>
      </trkpt>
      <trkpt lat="41.9317370" lon="-2.9155750">
        <ele>1178.0</ele>
        <time>2022-02-08T08:47:48Z</time>
      </trkpt>
      <trkpt lat="41.9317770" lon="-2.9156150">
        <ele>1177.9</ele>
        <time>2022-02-08T08:47:49Z</time>
      </trkpt>
      <trkpt lat="41.9318180" lon="-2.9156570">
        <ele>1177.9</ele>
        <time>2022-02-08T08:47:50Z</time>
      </trkpt>
      <trkpt lat="41.9318570" lon="-2.9157020">
        <ele>1177.9</ele>
        <time>2022-02-08T08:47:51Z</time>
      </trkpt>
      <trkpt lat="41.9318930" lon="-2.9157480">
        <ele>1178.0</ele>
        <time>2022-02-08T08:47:52Z</time>
      </trkpt>
      <trkpt lat="41.9319300" lon="-2.9157970">
        <ele>1178.0</ele>
        <time>2022-02-08T08:47:53Z</time>
      </trkpt>
      <trkpt lat="41.9319650" lon="-2.9158430">
        <ele>1178.0</ele>
        <time>2022-02-08T08:47:54Z</time>
      </trkpt>
      <trkpt lat="41.9320000" lon="-2.9158880">
        <ele>1178.0</ele>
        <time>2022-02-08T08:47:55Z</time>
      </trkpt>
      <trkpt lat="41.9320320" lon="-2.9159330">
        <ele>1178.0</ele>
        <time>2022-02-08T08:47:56Z</time>
      </trkpt>
      <trkpt lat="41.9320630" lon="-2.9159750">
        <ele>1178.0</ele>
        <time>2022-02-08T08:47:57Z</time>
      </trkpt>
      <trkpt lat="41.9320980" lon="-2.9160130">
        <ele>1178.0</ele>
        <time>2022-02-08T08:47:58Z</time>
      </trkpt>
      <trkpt lat="41.9321320" lon="-2.9160500">
        <ele>1178.1</ele>
        <time>2022-02-08T08:47:59Z</time>
      </trkpt>
      <trkpt lat="41.9321680" lon="-2.9160850">
        <ele>1178.1</ele>
        <time>2022-02-08T08:48:00Z</time>
      </trkpt>
      <trkpt lat="41.9322080" lon="-2.9161180">
        <ele>1178.2</ele>
        <time>2022-02-08T08:48:01Z</time>
      </trkpt>
      <trkpt lat="41.9322500" lon="-2.9161470">
        <ele>1178.2</ele>
        <time>2022-02-08T08:48:02Z</time>
      </trkpt>
      <trkpt lat="41.9322950" lon="-2.9161730">
        <ele>1178.3</ele>
        <time>2022-02-08T08:48:03Z</time>
      </trkpt>
      <trkpt lat="41.9323420" lon="-2.9161950">
        <ele>1178.4</ele>
        <time>2022-02-08T08:48:04Z</time>
      </trkpt>
      <trkpt lat="41.9323880" lon="-2.9162150">
        <ele>1178.4</ele>
        <time>2022-02-08T08:48:05Z</time>
      </trkpt>
      <trkpt lat="41.9324330" lon="-2.9162350">
        <ele>1178.5</ele>
        <time>2022-02-08T08:48:06Z</time>
      </trkpt>
      <trkpt lat="41.9324750" lon="-2.9162580">
        <ele>1178.5</ele>
        <time>2022-02-08T08:48:07Z</time>
      </trkpt>
      <trkpt lat="41.9325180" lon="-2.9162820">
        <ele>1178.6</ele>
        <time>2022-02-08T08:48:08Z</time>
      </trkpt>
      <trkpt lat="41.9325620" lon="-2.9163030">
        <ele>1178.6</ele>
        <time>2022-02-08T08:48:09Z</time>
      </trkpt>
      <trkpt lat="41.9326000" lon="-2.9163280">
        <ele>1178.6</ele>
        <time>2022-02-08T08:48:10Z</time>
      </trkpt>
      <trkpt lat="41.9326330" lon="-2.9163570">
        <ele>1178.6</ele>
        <time>2022-02-08T08:48:11Z</time>
      </trkpt>
      <trkpt lat="41.9326620" lon="-2.9163880">
        <ele>1178.6</ele>
        <time>2022-02-08T08:48:12Z</time>
      </trkpt>
      <trkpt lat="41.9326900" lon="-2.9164170">
        <ele>1178.6</ele>
        <time>2022-02-08T08:48:13Z</time>
      </trkpt>
      <trkpt lat="41.9327170" lon="-2.9164380">
        <ele>1178.6</ele>
        <time>2022-02-08T08:48:14Z</time>
      </trkpt>
      <trkpt lat="41.9327450" lon="-2.9164550">
        <ele>1178.5</ele>
        <time>2022-02-08T08:48:15Z</time>
      </trkpt>
      <trkpt lat="41.9327720" lon="-2.9164650">
        <ele>1178.5</ele>
        <time>2022-02-08T08:48:16Z</time>
      </trkpt>
      <trkpt lat="41.9328050" lon="-2.9164730">
        <ele>1178.4</ele>
        <time>2022-02-08T08:48:17Z</time>
      </trkpt>
      <trkpt lat="41.9328400" lon="-2.9164850">
        <ele>1178.3</ele>
        <time>2022-02-08T08:48:18Z</time>
      </trkpt>
      <trkpt lat="41.9328780" lon="-2.9164980">
        <ele>1178.1</ele>
        <time>2022-02-08T08:48:19Z</time>
      </trkpt>
      <trkpt lat="41.9329250" lon="-2.9165080">
        <ele>1177.9</ele>
        <time>2022-02-08T08:48:20Z</time>
      </trkpt>
      <trkpt lat="41.9329780" lon="-2.9165170">
        <ele>1177.7</ele>
        <time>2022-02-08T08:48:21Z</time>
      </trkpt>
      <trkpt lat="41.9330350" lon="-2.9165220">
        <ele>1177.6</ele>
        <time>2022-02-08T08:48:22Z</time>
      </trkpt>
      <trkpt lat="41.9330950" lon="-2.9165270">
        <ele>1177.5</ele>
        <time>2022-02-08T08:48:23Z</time>
      </trkpt>
      <trkpt lat="41.9331530" lon="-2.9165300">
        <ele>1177.5</ele>
        <time>2022-02-08T08:48:24Z</time>
      </trkpt>
      <trkpt lat="41.9332080" lon="-2.9165330">
        <ele>1177.5</ele>
        <time>2022-02-08T08:48:25Z</time>
      </trkpt>
      <trkpt lat="41.9332600" lon="-2.9165370">
        <ele>1177.6</ele>
        <time>2022-02-08T08:48:26Z</time>
      </trkpt>
      <trkpt lat="41.9333120" lon="-2.9165370">
        <ele>1177.6</ele>
        <time>2022-02-08T08:48:27Z</time>
      </trkpt>
      <trkpt lat="41.9333600" lon="-2.9165320">
        <ele>1177.7</ele>
        <time>2022-02-08T08:48:28Z</time>
      </trkpt>
      <trkpt lat="41.9334050" lon="-2.9165200">
        <ele>1177.8</ele>
        <time>2022-02-08T08:48:29Z</time>
      </trkpt>
      <trkpt lat="41.9334480" lon="-2.9165030">
        <ele>1177.8</ele>
        <time>2022-02-08T08:48:30Z</time>
      </trkpt>
      <trkpt lat="41.9334930" lon="-2.9164880">
        <ele>1177.9</ele>
        <time>2022-02-08T08:48:31Z</time>
      </trkpt>
      <trkpt lat="41.9335330" lon="-2.9164780">
        <ele>1177.9</ele>
        <time>2022-02-08T08:48:32Z</time>
      </trkpt>
      <trkpt lat="41.9335750" lon="-2.9164700">
        <ele>1178.0</ele>
        <time>2022-02-08T08:48:33Z</time>
      </trkpt>
      <trkpt lat="41.9336130" lon="-2.9164680">
        <ele>1178.0</ele>
        <time>2022-02-08T08:48:34Z</time>
      </trkpt>
      <trkpt lat="41.9336520" lon="-2.9164680">
        <ele>1178.0</ele>
        <time>2022-02-08T08:48:35Z</time>
      </trkpt>
      <trkpt lat="41.9336930" lon="-2.9164670">
        <ele>1178.1</ele>
        <time>2022-02-08T08:48:36Z</time>
      </trkpt>
      <trkpt lat="41.9337350" lon="-2.9164580">
        <ele>1178.1</ele>
        <time>2022-02-08T08:48:37Z</time>
      </trkpt>
      <trkpt lat="41.9337770" lon="-2.9164470">
        <ele>1178.1</ele>
        <time>2022-02-08T08:48:38Z</time>
      </trkpt>
      <trkpt lat="41.9338220" lon="-2.9164330">
        <ele>1178.1</ele>
        <time>2022-02-08T08:48:39Z</time>
      </trkpt>
      <trkpt lat="41.9338630" lon="-2.9164200">
        <ele>1178.1</ele>
        <time>2022-02-08T08:48:40Z</time>
      </trkpt>
      <trkpt lat="41.9339070" lon="-2.9164050">
        <ele>1178.2</ele>
        <time>2022-02-08T08:48:41Z</time>
      </trkpt>
      <trkpt lat="41.9339480" lon="-2.9163920">
        <ele>1178.2</ele>
        <time>2022-02-08T08:48:42Z</time>
      </trkpt>
      <trkpt lat="41.9339900" lon="-2.9163820">
        <ele>1178.2</ele>
        <time>2022-02-08T08:48:43Z</time>
      </trkpt>
      <trkpt lat="41.9340330" lon="-2.9163700">
        <ele>1178.2</ele>
        <time>2022-02-08T08:48:44Z</time>
      </trkpt>
      <trkpt lat="41.9340750" lon="-2.9163600">
        <ele>1178.2</ele>
        <time>2022-02-08T08:48:45Z</time>
      </trkpt>
      <trkpt lat="41.9341200" lon="-2.9163500">
        <ele>1178.2</ele>
        <time>2022-02-08T08:48:46Z</time>
      </trkpt>
      <trkpt lat="41.9341650" lon="-2.9163470">
        <ele>1178.2</ele>
        <time>2022-02-08T08:48:47Z</time>
      </trkpt>
      <trkpt lat="41.9342080" lon="-2.9163530">
        <ele>1178.2</ele>
        <time>2022-02-08T08:48:48Z</time>
      </trkpt>
      <trkpt lat="41.9342530" lon="-2.9163700">
        <ele>1178.2</ele>
        <time>2022-02-08T08:48:49Z</time>
      </trkpt>
      <trkpt lat="41.9342920" lon="-2.9163920">
        <ele>1178.2</ele>
        <time>2022-02-08T08:48:50Z</time>
      </trkpt>
      <trkpt lat="41.9343330" lon="-2.9164150">
        <ele>1178.2</ele>
        <time>2022-02-08T08:48:51Z</time>
      </trkpt>
      <trkpt lat="41.9343730" lon="-2.9164450">
        <ele>1178.2</ele>
        <time>2022-02-08T08:48:52Z</time>
      </trkpt>
      <trkpt lat="41.9344150" lon="-2.9164800">
        <ele>1178.2</ele>
        <time>2022-02-08T08:48:53Z</time>
      </trkpt>
      <trkpt lat="41.9344550" lon="-2.9165170">
        <ele>1178.2</ele>
        <time>2022-02-08T08:48:54Z</time>
      </trkpt>
      <trkpt lat="41.9344920" lon="-2.9165550">
        <ele>1178.2</ele>
        <time>2022-02-08T08:48:55Z</time>
      </trkpt>
      <trkpt lat="41.9345250" lon="-2.9165970">
        <ele>1178.2</ele>
        <time>2022-02-08T08:48:56Z</time>
      </trkpt>
      <trkpt lat="41.9345570" lon="-2.9166400">
        <ele>1178.3</ele>
        <time>2022-02-08T08:48:57Z</time>
      </trkpt>
      <trkpt lat="41.9345920" lon="-2.9166800">
        <ele>1178.3</ele>
        <time>2022-02-08T08:48:58Z</time>
      </trkpt>
      <trkpt lat="41.9346250" lon="-2.9167220">
        <ele>1178.3</ele>
        <time>2022-02-08T08:48:59Z</time>
      </trkpt>
      <trkpt lat="41.9346580" lon="-2.9167620">
        <ele>1178.3</ele>
        <time>2022-02-08T08:49:00Z</time>
      </trkpt>
      <trkpt lat="41.9346930" lon="-2.9168020">
        <ele>1178.3</ele>
        <time>2022-02-08T08:49:01Z</time>
      </trkpt>
      <trkpt lat="41.9347280" lon="-2.9168420">
        <ele>1178.3</ele>
        <time>2022-02-08T08:49:02Z</time>
      </trkpt>
      <trkpt lat="41.9347630" lon="-2.9168820">
        <ele>1178.3</ele>
        <time>2022-02-08T08:49:03Z</time>
      </trkpt>
      <trkpt lat="41.9347980" lon="-2.9169200">
        <ele>1178.3</ele>
        <time>2022-02-08T08:49:04Z</time>
      </trkpt>
      <trkpt lat="41.9348350" lon="-2.9169570">
        <ele>1178.3</ele>
        <time>2022-02-08T08:49:05Z</time>
      </trkpt>
      <trkpt lat="41.9348720" lon="-2.9169970">
        <ele>1178.3</ele>
        <time>2022-02-08T08:49:06Z</time>
      </trkpt>
      <trkpt lat="41.9349050" lon="-2.9170350">
        <ele>1178.3</ele>
        <time>2022-02-08T08:49:07Z</time>
      </trkpt>
      <trkpt lat="41.9349370" lon="-2.9170770">
        <ele>1178.3</ele>
        <time>2022-02-08T08:49:08Z</time>
      </trkpt>
      <trkpt lat="41.9349680" lon="-2.9171170">
        <ele>1178.4</ele>
        <time>2022-02-08T08:49:09Z</time>
      </trkpt>
      <trkpt lat="41.9349970" lon="-2.9171600">
        <ele>1178.4</ele>
        <time>2022-02-08T08:49:10Z</time>
      </trkpt>
      <trkpt lat="41.9350320" lon="-2.9171970">
        <ele>1178.4</ele>
        <time>2022-02-08T08:49:11Z</time>
      </trkpt>
      <trkpt lat="41.9350720" lon="-2.9172470">
        <ele>1178.4</ele>
        <time>2022-02-08T08:49:12Z</time>
      </trkpt>
      <trkpt lat="41.9351130" lon="-2.9172880">
        <ele>1178.4</ele>
        <time>2022-02-08T08:49:13Z</time>
      </trkpt>
      <trkpt lat="41.9351520" lon="-2.9173320">
        <ele>1178.5</ele>
        <time>2022-02-08T08:49:14Z</time>
      </trkpt>
      <trkpt lat="41.9351900" lon="-2.9173730">
        <ele>1178.5</ele>
        <time>2022-02-08T08:49:15Z</time>
      </trkpt>
      <trkpt lat="41.9352270" lon="-2.9174170">
        <ele>1178.6</ele>
        <time>2022-02-08T08:49:16Z</time>
      </trkpt>
      <trkpt lat="41.9352650" lon="-2.9174550">
        <ele>1178.6</ele>
        <time>2022-02-08T08:49:17Z</time>
      </trkpt>
      <trkpt lat="41.9353030" lon="-2.9174920">
        <ele>1178.6</ele>
        <time>2022-02-08T08:49:18Z</time>
      </trkpt>
      <trkpt lat="41.9353370" lon="-2.9175300">
        <ele>1178.7</ele>
        <time>2022-02-08T08:49:19Z</time>
      </trkpt>
      <trkpt lat="41.9353700" lon="-2.9175720">
        <ele>1178.7</ele>
        <time>2022-02-08T08:49:20Z</time>
      </trkpt>
      <trkpt lat="41.9354020" lon="-2.9176170">
        <ele>1178.7</ele>
        <time>2022-02-08T08:49:21Z</time>
      </trkpt>
      <trkpt lat="41.9354330" lon="-2.9176630">
        <ele>1178.8</ele>
        <time>2022-02-08T08:49:22Z</time>
      </trkpt>
      <trkpt lat="41.9354630" lon="-2.9177100">
        <ele>1178.8</ele>
        <time>2022-02-08T08:49:23Z</time>
      </trkpt>
      <trkpt lat="41.9354950" lon="-2.9177570">
        <ele>1178.8</ele>
        <time>2022-02-08T08:49:24Z</time>
      </trkpt>
      <trkpt lat="41.9355320" lon="-2.9177970">
        <ele>1178.8</ele>
        <time>2022-02-08T08:49:25Z</time>
      </trkpt>
      <trkpt lat="41.9355670" lon="-2.9178320">
        <ele>1178.8</ele>
        <time>2022-02-08T08:49:26Z</time>
      </trkpt>
      <trkpt lat="41.9356050" lon="-2.9178630">
        <ele>1178.8</ele>
        <time>2022-02-08T08:49:27Z</time>
      </trkpt>
      <trkpt lat="41.9356430" lon="-2.9178950">
        <ele>1178.8</ele>
        <time>2022-02-08T08:49:28Z</time>
      </trkpt>
      <trkpt lat="41.9356800" lon="-2.9179300">
        <ele>1178.9</ele>
        <time>2022-02-08T08:49:29Z</time>
      </trkpt>
      <trkpt lat="41.9357170" lon="-2.9179650">
        <ele>1178.9</ele>
        <time>2022-02-08T08:49:30Z</time>
      </trkpt>
      <trkpt lat="41.9357500" lon="-2.9180030">
        <ele>1178.9</ele>
        <time>2022-02-08T08:49:31Z</time>
      </trkpt>
      <trkpt lat="41.9357820" lon="-2.9180480">
        <ele>1178.9</ele>
        <time>2022-02-08T08:49:32Z</time>
      </trkpt>
      <trkpt lat="41.9358130" lon="-2.9180930">
        <ele>1179.0</ele>
        <time>2022-02-08T08:49:33Z</time>
      </trkpt>
      <trkpt lat="41.9358450" lon="-2.9181380">
        <ele>1179.0</ele>
        <time>2022-02-08T08:49:34Z</time>
      </trkpt>
      <trkpt lat="41.9358750" lon="-2.9181850">
        <ele>1179.0</ele>
        <time>2022-02-08T08:49:35Z</time>
      </trkpt>
      <trkpt lat="41.9359050" lon="-2.9182300">
        <ele>1179.0</ele>
        <time>2022-02-08T08:49:36Z</time>
      </trkpt>
      <trkpt lat="41.9359370" lon="-2.9182780">
        <ele>1179.0</ele>
        <time>2022-02-08T08:49:37Z</time>
      </trkpt>
      <trkpt lat="41.9359670" lon="-2.9183320">
        <ele>1178.9</ele>
        <time>2022-02-08T08:49:38Z</time>
      </trkpt>
      <trkpt lat="41.9359950" lon="-2.9183820">
        <ele>1178.9</ele>
        <time>2022-02-08T08:49:39Z</time>
      </trkpt>
      <trkpt lat="41.9360250" lon="-2.9184330">
        <ele>1178.9</ele>
        <time>2022-02-08T08:49:40Z</time>
      </trkpt>
      <trkpt lat="41.9360530" lon="-2.9184870">
        <ele>1178.9</ele>
        <time>2022-02-08T08:49:41Z</time>
      </trkpt>
      <trkpt lat="41.9360800" lon="-2.9185380">
        <ele>1178.9</ele>
        <time>2022-02-08T08:49:42Z</time>
      </trkpt>
      <trkpt lat="41.9361080" lon="-2.9185920">
        <ele>1178.9</ele>
        <time>2022-02-08T08:49:43Z</time>
      </trkpt>
      <trkpt lat="41.9361370" lon="-2.9186450">
        <ele>1178.9</ele>
        <time>2022-02-08T08:49:44Z</time>
      </trkpt>
      <trkpt lat="41.9361650" lon="-2.9187000">
        <ele>1178.9</ele>
        <time>2022-02-08T08:49:45Z</time>
      </trkpt>
      <trkpt lat="41.9361950" lon="-2.9187550">
        <ele>1178.9</ele>
        <time>2022-02-08T08:49:46Z</time>
      </trkpt>
      <trkpt lat="41.9362230" lon="-2.9188120">
        <ele>1178.9</ele>
        <time>2022-02-08T08:49:47Z</time>
      </trkpt>
      <trkpt lat="41.9362500" lon="-2.9188680">
        <ele>1178.9</ele>
        <time>2022-02-08T08:49:48Z</time>
      </trkpt>
      <trkpt lat="41.9362770" lon="-2.9189270">
        <ele>1178.9</ele>
        <time>2022-02-08T08:49:49Z</time>
      </trkpt>
      <trkpt lat="41.9362980" lon="-2.9189870">
        <ele>1179.0</ele>
        <time>2022-02-08T08:49:50Z</time>
      </trkpt>
      <trkpt lat="41.9363200" lon="-2.9190470">
        <ele>1179.0</ele>
        <time>2022-02-08T08:49:51Z</time>
      </trkpt>
      <trkpt lat="41.9363380" lon="-2.9191070">
        <ele>1179.1</ele>
        <time>2022-02-08T08:49:52Z</time>
      </trkpt>
      <trkpt lat="41.9363570" lon="-2.9191670">
        <ele>1179.2</ele>
        <time>2022-02-08T08:49:53Z</time>
      </trkpt>
      <trkpt lat="41.9363780" lon="-2.9192220">
        <ele>1179.2</ele>
        <time>2022-02-08T08:49:54Z</time>
      </trkpt>
      <trkpt lat="41.9364020" lon="-2.9192720">
        <ele>1179.3</ele>
        <time>2022-02-08T08:49:55Z</time>
      </trkpt>
      <trkpt lat="41.9364280" lon="-2.9193200">
        <ele>1179.4</ele>
        <time>2022-02-08T08:49:56Z</time>
      </trkpt>
      <trkpt lat="41.9364530" lon="-2.9193680">
        <ele>1179.5</ele>
        <time>2022-02-08T08:49:57Z</time>
      </trkpt>
      <trkpt lat="41.9364780" lon="-2.9194170">
        <ele>1179.5</ele>
        <time>2022-02-08T08:49:58Z</time>
      </trkpt>
      <trkpt lat="41.9365070" lon="-2.9194630">
        <ele>1179.6</ele>
        <time>2022-02-08T08:49:59Z</time>
      </trkpt>
      <trkpt lat="41.9365330" lon="-2.9195120">
        <ele>1179.6</ele>
        <time>2022-02-08T08:50:00Z</time>
      </trkpt>
      <trkpt lat="41.9365630" lon="-2.9195570">
        <ele>1179.7</ele>
        <time>2022-02-08T08:50:01Z</time>
      </trkpt>
      <trkpt lat="41.9365900" lon="-2.9196080">
        <ele>1179.7</ele>
        <time>2022-02-08T08:50:02Z</time>
      </trkpt>
      <trkpt lat="41.9366170" lon="-2.9196600">
        <ele>1179.7</ele>
        <time>2022-02-08T08:50:03Z</time>
      </trkpt>
      <trkpt lat="41.9366420" lon="-2.9197120">
        <ele>1179.7</ele>
        <time>2022-02-08T08:50:04Z</time>
      </trkpt>
      <trkpt lat="41.9366670" lon="-2.9197650">
        <ele>1179.7</ele>
        <time>2022-02-08T08:50:05Z</time>
      </trkpt>
      <trkpt lat="41.9366920" lon="-2.9198170">
        <ele>1179.8</ele>
        <time>2022-02-08T08:50:06Z</time>
      </trkpt>
      <trkpt lat="41.9367180" lon="-2.9198650">
        <ele>1179.8</ele>
        <time>2022-02-08T08:50:07Z</time>
      </trkpt>
      <trkpt lat="41.9367430" lon="-2.9199200">
        <ele>1179.7</ele>
        <time>2022-02-08T08:50:08Z</time>
      </trkpt>
      <trkpt lat="41.9367630" lon="-2.9199730">
        <ele>1179.7</ele>
        <time>2022-02-08T08:50:09Z</time>
      </trkpt>
      <trkpt lat="41.9367850" lon="-2.9200280">
        <ele>1179.7</ele>
        <time>2022-02-08T08:50:10Z</time>
      </trkpt>
      <trkpt lat="41.9368080" lon="-2.9200830">
        <ele>1179.6</ele>
        <time>2022-02-08T08:50:11Z</time>
      </trkpt>
      <trkpt lat="41.9368330" lon="-2.9201400">
        <ele>1179.6</ele>
        <time>2022-02-08T08:50:12Z</time>
      </trkpt>
      <trkpt lat="41.9368650" lon="-2.9201950">
        <ele>1179.5</ele>
        <time>2022-02-08T08:50:13Z</time>
      </trkpt>
      <trkpt lat="41.9369020" lon="-2.9202470">
        <ele>1179.5</ele>
        <time>2022-02-08T08:50:14Z</time>
      </trkpt>
      <trkpt lat="41.9369380" lon="-2.9202980">
        <ele>1179.4</ele>
        <time>2022-02-08T08:50:15Z</time>
      </trkpt>
      <trkpt lat="41.9369700" lon="-2.9203570">
        <ele>1179.3</ele>
        <time>2022-02-08T08:50:16Z</time>
      </trkpt>
      <trkpt lat="41.9369920" lon="-2.9204200">
        <ele>1179.3</ele>
        <time>2022-02-08T08:50:17Z</time>
      </trkpt>
      <trkpt lat="41.9370100" lon="-2.9204850">
        <ele>1179.3</ele>
        <time>2022-02-08T08:50:18Z</time>
      </trkpt>
      <trkpt lat="41.9370220" lon="-2.9205520">
        <ele>1179.4</ele>
        <time>2022-02-08T08:50:19Z</time>
      </trkpt>
      <trkpt lat="41.9370300" lon="-2.9206180">
        <ele>1179.4</ele>
        <time>2022-02-08T08:50:20Z</time>
      </trkpt>
      <trkpt lat="41.9370370" lon="-2.9206830">
        <ele>1179.4</ele>
        <time>2022-02-08T08:50:21Z</time>
      </trkpt>
      <trkpt lat="41.9370420" lon="-2.9207500">
        <ele>1179.4</ele>
        <time>2022-02-08T08:50:22Z</time>
      </trkpt>
      <trkpt lat="41.9370450" lon="-2.9208130">
        <ele>1179.5</ele>
        <time>2022-02-08T08:50:23Z</time>
      </trkpt>
      <trkpt lat="41.9370450" lon="-2.9208770">
        <ele>1179.5</ele>
        <time>2022-02-08T08:50:24Z</time>
      </trkpt>
      <trkpt lat="41.9370480" lon="-2.9209380">
        <ele>1179.5</ele>
        <time>2022-02-08T08:50:25Z</time>
      </trkpt>
      <trkpt lat="41.9370550" lon="-2.9209950">
        <ele>1179.5</ele>
        <time>2022-02-08T08:50:26Z</time>
      </trkpt>
      <trkpt lat="41.9370650" lon="-2.9210520">
        <ele>1179.5</ele>
        <time>2022-02-08T08:50:27Z</time>
      </trkpt>
      <trkpt lat="41.9370800" lon="-2.9211100">
        <ele>1179.5</ele>
        <time>2022-02-08T08:50:28Z</time>
      </trkpt>
      <trkpt lat="41.9370970" lon="-2.9211680">
        <ele>1179.5</ele>
        <time>2022-02-08T08:50:29Z</time>
      </trkpt>
      <trkpt lat="41.9371150" lon="-2.9212250">
        <ele>1179.6</ele>
        <time>2022-02-08T08:50:30Z</time>
      </trkpt>
      <trkpt lat="41.9371370" lon="-2.9212800">
        <ele>1179.6</ele>
        <time>2022-02-08T08:50:31Z</time>
      </trkpt>
      <trkpt lat="41.9371580" lon="-2.9213330">
        <ele>1179.6</ele>
        <time>2022-02-08T08:50:32Z</time>
      </trkpt>
      <trkpt lat="41.9371820" lon="-2.9213820">
        <ele>1179.6</ele>
        <time>2022-02-08T08:50:33Z</time>
      </trkpt>
      <trkpt lat="41.9372070" lon="-2.9214300">
        <ele>1179.6</ele>
        <time>2022-02-08T08:50:34Z</time>
      </trkpt>
      <trkpt lat="41.9372320" lon="-2.9214780">
        <ele>1179.6</ele>
        <time>2022-02-08T08:50:35Z</time>
      </trkpt>
      <trkpt lat="41.9372630" lon="-2.9215280">
        <ele>1179.6</ele>
        <time>2022-02-08T08:50:36Z</time>
      </trkpt>
      <trkpt lat="41.9372980" lon="-2.9215680">
        <ele>1179.7</ele>
        <time>2022-02-08T08:50:37Z</time>
      </trkpt>
      <trkpt lat="41.9373380" lon="-2.9215970">
        <ele>1179.7</ele>
        <time>2022-02-08T08:50:38Z</time>
      </trkpt>
      <trkpt lat="41.9373820" lon="-2.9216220">
        <ele>1179.7</ele>
        <time>2022-02-08T08:50:39Z</time>
      </trkpt>
      <trkpt lat="41.9374270" lon="-2.9216480">
        <ele>1179.8</ele>
        <time>2022-02-08T08:50:40Z</time>
      </trkpt>
      <trkpt lat="41.9374700" lon="-2.9216730">
        <ele>1179.9</ele>
        <time>2022-02-08T08:50:41Z</time>
      </trkpt>
      <trkpt lat="41.9375150" lon="-2.9216950">
        <ele>1179.9</ele>
        <time>2022-02-08T08:50:42Z</time>
      </trkpt>
      <trkpt lat="41.9375600" lon="-2.9217150">
        <ele>1180.0</ele>
        <time>2022-02-08T08:50:43Z</time>
      </trkpt>
      <trkpt lat="41.9376050" lon="-2.9217330">
        <ele>1180.1</ele>
        <time>2022-02-08T08:50:44Z</time>
      </trkpt>
      <trkpt lat="41.9376500" lon="-2.9217480">
        <ele>1180.1</ele>
        <time>2022-02-08T08:50:45Z</time>
      </trkpt>
      <trkpt lat="41.9376920" lon="-2.9217570">
        <ele>1180.1</ele>
        <time>2022-02-08T08:50:46Z</time>
      </trkpt>
      <trkpt lat="41.9377370" lon="-2.9217650">
        <ele>1180.2</ele>
        <time>2022-02-08T08:50:47Z</time>
      </trkpt>
      <trkpt lat="41.9377830" lon="-2.9217750">
        <ele>1180.2</ele>
        <time>2022-02-08T08:50:48Z</time>
      </trkpt>
      <trkpt lat="41.9378320" lon="-2.9217870">
        <ele>1180.2</ele>
        <time>2022-02-08T08:50:49Z</time>
      </trkpt>
      <trkpt lat="41.9378780" lon="-2.9217970">
        <ele>1180.3</ele>
        <time>2022-02-08T08:50:50Z</time>
      </trkpt>
      <trkpt lat="41.9379250" lon="-2.9218130">
        <ele>1180.3</ele>
        <time>2022-02-08T08:50:51Z</time>
      </trkpt>
      <trkpt lat="41.9379700" lon="-2.9218270">
        <ele>1180.3</ele>
        <time>2022-02-08T08:50:52Z</time>
      </trkpt>
      <trkpt lat="41.9380170" lon="-2.9218300">
        <ele>1180.3</ele>
        <time>2022-02-08T08:50:53Z</time>
      </trkpt>
      <trkpt lat="41.9380630" lon="-2.9218250">
        <ele>1180.3</ele>
        <time>2022-02-08T08:50:54Z</time>
      </trkpt>
      <trkpt lat="41.9381120" lon="-2.9218150">
        <ele>1180.3</ele>
        <time>2022-02-08T08:50:55Z</time>
      </trkpt>
      <trkpt lat="41.9381580" lon="-2.9218020">
        <ele>1180.3</ele>
        <time>2022-02-08T08:50:56Z</time>
      </trkpt>
      <trkpt lat="41.9382080" lon="-2.9217900">
        <ele>1180.3</ele>
        <time>2022-02-08T08:50:57Z</time>
      </trkpt>
      <trkpt lat="41.9382570" lon="-2.9217820">
        <ele>1180.3</ele>
        <time>2022-02-08T08:50:58Z</time>
      </trkpt>
      <trkpt lat="41.9383050" lon="-2.9217830">
        <ele>1180.3</ele>
        <time>2022-02-08T08:50:59Z</time>
      </trkpt>
      <trkpt lat="41.9383500" lon="-2.9217970">
        <ele>1180.3</ele>
        <time>2022-02-08T08:51:00Z</time>
      </trkpt>
      <trkpt lat="41.9383950" lon="-2.9218220">
        <ele>1180.3</ele>
        <time>2022-02-08T08:51:01Z</time>
      </trkpt>
      <trkpt lat="41.9384350" lon="-2.9218480">
        <ele>1180.3</ele>
        <time>2022-02-08T08:51:02Z</time>
      </trkpt>
      <trkpt lat="41.9384730" lon="-2.9218750">
        <ele>1180.3</ele>
        <time>2022-02-08T08:51:03Z</time>
      </trkpt>
      <trkpt lat="41.9385120" lon="-2.9219070">
        <ele>1180.3</ele>
        <time>2022-02-08T08:51:04Z</time>
      </trkpt>
      <trkpt lat="41.9385550" lon="-2.9219320">
        <ele>1180.3</ele>
        <time>2022-02-08T08:51:05Z</time>
      </trkpt>
      <trkpt lat="41.9386020" lon="-2.9219570">
        <ele>1180.3</ele>
        <time>2022-02-08T08:51:06Z</time>
      </trkpt>
      <trkpt lat="41.9386450" lon="-2.9219830">
        <ele>1180.3</ele>
        <time>2022-02-08T08:51:07Z</time>
      </trkpt>
      <trkpt lat="41.9386880" lon="-2.9220130">
        <ele>1180.3</ele>
        <time>2022-02-08T08:51:08Z</time>
      </trkpt>
      <trkpt lat="41.9387280" lon="-2.9220420">
        <ele>1180.3</ele>
        <time>2022-02-08T08:51:09Z</time>
      </trkpt>
      <trkpt lat="41.9387670" lon="-2.9220730">
        <ele>1180.2</ele>
        <time>2022-02-08T08:51:10Z</time>
      </trkpt>
      <trkpt lat="41.9388070" lon="-2.9221080">
        <ele>1180.2</ele>
        <time>2022-02-08T08:51:11Z</time>
      </trkpt>
      <trkpt lat="41.9388420" lon="-2.9221480">
        <ele>1180.2</ele>
        <time>2022-02-08T08:51:12Z</time>
      </trkpt>
      <trkpt lat="41.9388670" lon="-2.9221980">
        <ele>1180.2</ele>
        <time>2022-02-08T08:51:13Z</time>
      </trkpt>
      <trkpt lat="41.9388850" lon="-2.9222570">
        <ele>1180.3</ele>
        <time>2022-02-08T08:51:14Z</time>
      </trkpt>
      <trkpt lat="41.9389020" lon="-2.9223180">
        <ele>1180.5</ele>
        <time>2022-02-08T08:51:15Z</time>
      </trkpt>
      <trkpt lat="41.9389170" lon="-2.9223850">
        <ele>1180.7</ele>
        <time>2022-02-08T08:51:16Z</time>
      </trkpt>
      <trkpt lat="41.9389280" lon="-2.9224480">
        <ele>1180.8</ele>
        <time>2022-02-08T08:51:17Z</time>
      </trkpt>
      <trkpt lat="41.9389380" lon="-2.9225100">
        <ele>1181.0</ele>
        <time>2022-02-08T08:51:18Z</time>
      </trkpt>
      <trkpt lat="41.9389470" lon="-2.9225700">
        <ele>1181.1</ele>
        <time>2022-02-08T08:51:19Z</time>
      </trkpt>
      <trkpt lat="41.9389550" lon="-2.9226330">
        <ele>1181.3</ele>
        <time>2022-02-08T08:51:20Z</time>
      </trkpt>
      <trkpt lat="41.9389630" lon="-2.9226950">
        <ele>1181.4</ele>
        <time>2022-02-08T08:51:21Z</time>
      </trkpt>
      <trkpt lat="41.9389700" lon="-2.9227570">
        <ele>1181.6</ele>
        <time>2022-02-08T08:51:22Z</time>
      </trkpt>
      <trkpt lat="41.9389770" lon="-2.9228170">
        <ele>1181.7</ele>
        <time>2022-02-08T08:51:23Z</time>
      </trkpt>
      <trkpt lat="41.9389820" lon="-2.9228750">
        <ele>1181.9</ele>
        <time>2022-02-08T08:51:24Z</time>
      </trkpt>
      <trkpt lat="41.9389900" lon="-2.9229330">
        <ele>1182.1</ele>
        <time>2022-02-08T08:51:25Z</time>
      </trkpt>
      <trkpt lat="41.9390000" lon="-2.9229920">
        <ele>1182.2</ele>
        <time>2022-02-08T08:51:26Z</time>
      </trkpt>
      <trkpt lat="41.9390080" lon="-2.9230530">
        <ele>1182.4</ele>
        <time>2022-02-08T08:51:27Z</time>
      </trkpt>
      <trkpt lat="41.9390170" lon="-2.9231150">
        <ele>1182.6</ele>
        <time>2022-02-08T08:51:28Z</time>
      </trkpt>
      <trkpt lat="41.9390270" lon="-2.9231720">
        <ele>1182.7</ele>
        <time>2022-02-08T08:51:29Z</time>
      </trkpt>
      <trkpt lat="41.9390350" lon="-2.9232280">
        <ele>1182.8</ele>
        <time>2022-02-08T08:51:30Z</time>
      </trkpt>
      <trkpt lat="41.9390430" lon="-2.9232870">
        <ele>1183.0</ele>
        <time>2022-02-08T08:51:31Z</time>
      </trkpt>
      <trkpt lat="41.9390530" lon="-2.9233450">
        <ele>1183.1</ele>
        <time>2022-02-08T08:51:32Z</time>
      </trkpt>
      <trkpt lat="41.9390650" lon="-2.9234050">
        <ele>1183.3</ele>
        <time>2022-02-08T08:51:33Z</time>
      </trkpt>
      <trkpt lat="41.9390750" lon="-2.9234650">
        <ele>1183.4</ele>
        <time>2022-02-08T08:51:34Z</time>
      </trkpt>
      <trkpt lat="41.9390850" lon="-2.9235280">
        <ele>1183.6</ele>
        <time>2022-02-08T08:51:35Z</time>
      </trkpt>
      <trkpt lat="41.9390970" lon="-2.9235880">
        <ele>1183.7</ele>
        <time>2022-02-08T08:51:36Z</time>
      </trkpt>
      <trkpt lat="41.9391050" lon="-2.9236500">
        <ele>1183.8</ele>
        <time>2022-02-08T08:51:37Z</time>
      </trkpt>
      <trkpt lat="41.9391130" lon="-2.9237130">
        <ele>1184.0</ele>
        <time>2022-02-08T08:51:38Z</time>
      </trkpt>
      <trkpt lat="41.9391220" lon="-2.9237780">
        <ele>1184.1</ele>
        <time>2022-02-08T08:51:39Z</time>
      </trkpt>
      <trkpt lat="41.9391300" lon="-2.9238400">
        <ele>1184.3</ele>
        <time>2022-02-08T08:51:40Z</time>
      </trkpt>
      <trkpt lat="41.9391350" lon="-2.9239000">
        <ele>1184.4</ele>
        <time>2022-02-08T08:51:41Z</time>
      </trkpt>
      <trkpt lat="41.9391380" lon="-2.9239630">
        <ele>1184.6</ele>
        <time>2022-02-08T08:51:42Z</time>
      </trkpt>
      <trkpt lat="41.9391430" lon="-2.9240250">
        <ele>1184.8</ele>
        <time>2022-02-08T08:51:43Z</time>
      </trkpt>
      <trkpt lat="41.9391450" lon="-2.9240880">
        <ele>1184.9</ele>
        <time>2022-02-08T08:51:44Z</time>
      </trkpt>
      <trkpt lat="41.9391470" lon="-2.9241500">
        <ele>1185.1</ele>
        <time>2022-02-08T08:51:45Z</time>
      </trkpt>
      <trkpt lat="41.9391470" lon="-2.9242100">
        <ele>1185.3</ele>
        <time>2022-02-08T08:51:46Z</time>
      </trkpt>
      <trkpt lat="41.9391450" lon="-2.9242700">
        <ele>1185.0</ele>
        <time>2022-02-08T08:51:47Z</time>
      </trkpt>
      <trkpt lat="41.9391420" lon="-2.9243330">
        <ele>1184.7</ele>
        <time>2022-02-08T08:51:48Z</time>
      </trkpt>
      <trkpt lat="41.9391380" lon="-2.9243970">
        <ele>1184.4</ele>
        <time>2022-02-08T08:51:49Z</time>
      </trkpt>
      <trkpt lat="41.9391320" lon="-2.9244580">
        <ele>1184.1</ele>
        <time>2022-02-08T08:51:50Z</time>
      </trkpt>
      <trkpt lat="41.9391220" lon="-2.9245150">
        <ele>1183.8</ele>
        <time>2022-02-08T08:51:51Z</time>
      </trkpt>
      <trkpt lat="41.9391080" lon="-2.9245680">
        <ele>1183.5</ele>
        <time>2022-02-08T08:51:52Z</time>
      </trkpt>
      <trkpt lat="41.9390900" lon="-2.9246170">
        <ele>1183.2</ele>
        <time>2022-02-08T08:51:53Z</time>
      </trkpt>
      <trkpt lat="41.9390730" lon="-2.9246600">
        <ele>1182.9</ele>
        <time>2022-02-08T08:51:54Z</time>
      </trkpt>
      <trkpt lat="41.9390530" lon="-2.9246980">
        <ele>1182.7</ele>
        <time>2022-02-08T08:51:55Z</time>
      </trkpt>
      <trkpt lat="41.9390370" lon="-2.9247380">
        <ele>1182.4</ele>
        <time>2022-02-08T08:51:56Z</time>
      </trkpt>
      <trkpt lat="41.9390180" lon="-2.9247800">
        <ele>1182.2</ele>
        <time>2022-02-08T08:51:57Z</time>
      </trkpt>
      <trkpt lat="41.9390020" lon="-2.9248220">
        <ele>1182.0</ele>
        <time>2022-02-08T08:51:58Z</time>
      </trkpt>
      <trkpt lat="41.9389850" lon="-2.9248650">
        <ele>1181.7</ele>
        <time>2022-02-08T08:51:59Z</time>
      </trkpt>
      <trkpt lat="41.9389680" lon="-2.9249070">
        <ele>1181.5</ele>
        <time>2022-02-08T08:52:00Z</time>
      </trkpt>
      <trkpt lat="41.9389500" lon="-2.9249450">
        <ele>1181.3</ele>
        <time>2022-02-08T08:52:01Z</time>
      </trkpt>
      <trkpt lat="41.9389300" lon="-2.9249830">
        <ele>1181.1</ele>
        <time>2022-02-08T08:52:02Z</time>
      </trkpt>
      <trkpt lat="41.9389100" lon="-2.9250180">
        <ele>1181.1</ele>
        <time>2022-02-08T08:52:03Z</time>
      </trkpt>
      <trkpt lat="41.9388870" lon="-2.9250470">
        <ele>1181.1</ele>
        <time>2022-02-08T08:52:04Z</time>
      </trkpt>
      <trkpt lat="41.9388630" lon="-2.9250700">
        <ele>1181.1</ele>
        <time>2022-02-08T08:52:05Z</time>
      </trkpt>
      <trkpt lat="41.9388380" lon="-2.9250900">
        <ele>1181.1</ele>
        <time>2022-02-08T08:52:06Z</time>
      </trkpt>
      <trkpt lat="41.9388130" lon="-2.9251080">
        <ele>1181.1</ele>
        <time>2022-02-08T08:52:07Z</time>
      </trkpt>
      <trkpt lat="41.9387920" lon="-2.9251280">
        <ele>1181.0</ele>
        <time>2022-02-08T08:52:08Z</time>
      </trkpt>
      <trkpt lat="41.9387680" lon="-2.9251430">
        <ele>1181.0</ele>
        <time>2022-02-08T08:52:09Z</time>
      </trkpt>
      <trkpt lat="41.9387450" lon="-2.9251550">
        <ele>1181.0</ele>
        <time>2022-02-08T08:52:10Z</time>
      </trkpt>
      <trkpt lat="41.9387230" lon="-2.9251630">
        <ele>1181.0</ele>
        <time>2022-02-08T08:52:11Z</time>
      </trkpt>
      <trkpt lat="41.9387030" lon="-2.9251700">
        <ele>1181.0</ele>
        <time>2022-02-08T08:52:12Z</time>
      </trkpt>
      <trkpt lat="41.9386850" lon="-2.9251820">
        <ele>1181.0</ele>
        <time>2022-02-08T08:52:13Z</time>
      </trkpt>
      <trkpt lat="41.9386670" lon="-2.9251870">
        <ele>1181.2</ele>
        <time>2022-02-08T08:52:14Z</time>
      </trkpt>
      <trkpt lat="41.9386520" lon="-2.9251880">
        <ele>1181.2</ele>
        <time>2022-02-08T08:52:15Z</time>
      </trkpt>
      <trkpt lat="41.9386330" lon="-2.9251900">
        <ele>1181.2</ele>
        <time>2022-02-08T08:52:16Z</time>
      </trkpt>
      <trkpt lat="41.9386170" lon="-2.9251900">
        <ele>1181.2</ele>
        <time>2022-02-08T08:52:17Z</time>
      </trkpt>
      <trkpt lat="41.9386000" lon="-2.9251930">
        <ele>1181.2</ele>
        <time>2022-02-08T08:52:18Z</time>
      </trkpt>
      <trkpt lat="41.9385850" lon="-2.9251930">
        <ele>1181.2</ele>
        <time>2022-02-08T08:52:19Z</time>
      </trkpt>
      <trkpt lat="41.9385700" lon="-2.9251950">
        <ele>1181.2</ele>
        <time>2022-02-08T08:52:20Z</time>
      </trkpt>
      <trkpt lat="41.9385520" lon="-2.9252000">
        <ele>1181.2</ele>
        <time>2022-02-08T08:52:21Z</time>
      </trkpt>
      <trkpt lat="41.9385330" lon="-2.9252030">
        <ele>1181.5</ele>
        <time>2022-02-08T08:52:22Z</time>
      </trkpt>
      <trkpt lat="41.9385150" lon="-2.9252050">
        <ele>1181.5</ele>
        <time>2022-02-08T08:52:23Z</time>
      </trkpt>
      <trkpt lat="41.9384980" lon="-2.9252070">
        <ele>1181.5</ele>
        <time>2022-02-08T08:52:24Z</time>
      </trkpt>
      <trkpt lat="41.9384820" lon="-2.9252100">
        <ele>1181.5</ele>
        <time>2022-02-08T08:52:25Z</time>
      </trkpt>
      <trkpt lat="41.9384650" lon="-2.9252130">
        <ele>1181.5</ele>
        <time>2022-02-08T08:52:26Z</time>
      </trkpt>
      <trkpt lat="41.9384470" lon="-2.9252180">
        <ele>1181.5</ele>
        <time>2022-02-08T08:52:27Z</time>
      </trkpt>
      <trkpt lat="41.9384320" lon="-2.9252230">
        <ele>1181.5</ele>
        <time>2022-02-08T08:52:28Z</time>
      </trkpt>
      <trkpt lat="41.9384170" lon="-2.9252330">
        <ele>1182.2</ele>
        <time>2022-02-08T08:52:29Z</time>
      </trkpt>
      <trkpt lat="41.9384000" lon="-2.9252420">
        <ele>1182.2</ele>
        <time>2022-02-08T08:52:30Z</time>
      </trkpt>
      <trkpt lat="41.9383870" lon="-2.9252520">
        <ele>1182.2</ele>
        <time>2022-02-08T08:52:31Z</time>
      </trkpt>
      <trkpt lat="41.9383720" lon="-2.9252580">
        <ele>1182.2</ele>
        <time>2022-02-08T08:52:32Z</time>
      </trkpt>
      <trkpt lat="41.9383550" lon="-2.9252600">
        <ele>1182.2</ele>
        <time>2022-02-08T08:52:33Z</time>
      </trkpt>
      <trkpt lat="41.9383370" lon="-2.9252620">
        <ele>1182.2</ele>
        <time>2022-02-08T08:52:34Z</time>
      </trkpt>
      <trkpt lat="41.9383200" lon="-2.9252630">
        <ele>1182.3</ele>
        <time>2022-02-08T08:52:35Z</time>
      </trkpt>
      <trkpt lat="41.9383030" lon="-2.9252650">
        <ele>1182.3</ele>
        <time>2022-02-08T08:52:36Z</time>
      </trkpt>
      <trkpt lat="41.9382870" lon="-2.9252720">
        <ele>1183.7</ele>
        <time>2022-02-08T08:52:37Z</time>
      </trkpt>
      <trkpt lat="41.9382720" lon="-2.9252820">
        <ele>1184.4</ele>
        <time>2022-02-08T08:52:38Z</time>
      </trkpt>
      <trkpt lat="41.9382550" lon="-2.9252880">
        <ele>1184.4</ele>
        <time>2022-02-08T08:52:39Z</time>
      </trkpt>
      <trkpt lat="41.9382330" lon="-2.9252820">
        <ele>1184.4</ele>
        <time>2022-02-08T08:52:40Z</time>
      </trkpt>
      <trkpt lat="41.9382130" lon="-2.9252820">
        <ele>1184.4</ele>
        <time>2022-02-08T08:52:41Z</time>
      </trkpt>
      <trkpt lat="41.9381970" lon="-2.9252930">
        <ele>1184.4</ele>
        <time>2022-02-08T08:52:42Z</time>
      </trkpt>
      <trkpt lat="41.9381820" lon="-2.9253050">
        <ele>1184.4</ele>
        <time>2022-02-08T08:52:43Z</time>
      </trkpt>
      <trkpt lat="41.9381650" lon="-2.9253100">
        <ele>1186.2</ele>
        <time>2022-02-08T08:52:44Z</time>
      </trkpt>
      <trkpt lat="41.9381520" lon="-2.9253180">
        <ele>1186.2</ele>
        <time>2022-02-08T08:52:45Z</time>
      </trkpt>
      <trkpt lat="41.9381380" lon="-2.9253270">
        <ele>1186.2</ele>
        <time>2022-02-08T08:52:46Z</time>
      </trkpt>
      <trkpt lat="41.9381230" lon="-2.9253350">
        <ele>1186.2</ele>
        <time>2022-02-08T08:52:47Z</time>
      </trkpt>
      <trkpt lat="41.9381080" lon="-2.9253400">
        <ele>1186.2</ele>
        <time>2022-02-08T08:52:48Z</time>
      </trkpt>
      <trkpt lat="41.9380970" lon="-2.9253430">
        <ele>1186.2</ele>
        <time>2022-02-08T08:52:49Z</time>
      </trkpt>
      <trkpt lat="41.9380800" lon="-2.9253520">
        <ele>1186.2</ele>
        <time>2022-02-08T08:52:50Z</time>
      </trkpt>
      <trkpt lat="41.9380670" lon="-2.9253580">
        <ele>1186.2</ele>
        <time>2022-02-08T08:52:51Z</time>
      </trkpt>
      <trkpt lat="41.9380530" lon="-2.9253630">
        <ele>1186.2</ele>
        <time>2022-02-08T08:52:52Z</time>
      </trkpt>
      <trkpt lat="41.9380400" lon="-2.9253700">
        <ele>1188.6</ele>
        <time>2022-02-08T08:52:53Z</time>
      </trkpt>
      <trkpt lat="41.9380270" lon="-2.9253750">
        <ele>1188.6</ele>
        <time>2022-02-08T08:52:54Z</time>
      </trkpt>
      <trkpt lat="41.9380130" lon="-2.9253820">
        <ele>1188.6</ele>
        <time>2022-02-08T08:52:55Z</time>
      </trkpt>
      <trkpt lat="41.9380000" lon="-2.9253870">
        <ele>1188.6</ele>
        <time>2022-02-08T08:52:56Z</time>
      </trkpt>
      <trkpt lat="41.9379870" lon="-2.9253920">
        <ele>1188.6</ele>
        <time>2022-02-08T08:52:57Z</time>
      </trkpt>
      <trkpt lat="41.9379700" lon="-2.9253950">
        <ele>1188.6</ele>
        <time>2022-02-08T08:52:58Z</time>
      </trkpt>
      <trkpt lat="41.9379570" lon="-2.9254020">
        <ele>1188.7</ele>
        <time>2022-02-08T08:52:59Z</time>
      </trkpt>
      <trkpt lat="41.9379430" lon="-2.9254080">
        <ele>1188.7</ele>
        <time>2022-02-08T08:53:00Z</time>
      </trkpt>
      <trkpt lat="41.9379270" lon="-2.9254150">
        <ele>1188.7</ele>
        <time>2022-02-08T08:53:01Z</time>
      </trkpt>
      <trkpt lat="41.9379150" lon="-2.9254220">
        <ele>1188.7</ele>
        <time>2022-02-08T08:53:02Z</time>
      </trkpt>
      <trkpt lat="41.9379030" lon="-2.9254270">
        <ele>1191.4</ele>
        <time>2022-02-08T08:53:03Z</time>
      </trkpt>
      <trkpt lat="41.9378900" lon="-2.9254320">
        <ele>1191.4</ele>
        <time>2022-02-08T08:53:04Z</time>
      </trkpt>
      <trkpt lat="41.9378750" lon="-2.9254350">
        <ele>1191.4</ele>
        <time>2022-02-08T08:53:05Z</time>
      </trkpt>
      <trkpt lat="41.9378580" lon="-2.9254380">
        <ele>1191.4</ele>
        <time>2022-02-08T08:53:06Z</time>
      </trkpt>
      <trkpt lat="41.9378430" lon="-2.9254380">
        <ele>1191.4</ele>
        <time>2022-02-08T08:53:07Z</time>
      </trkpt>
      <trkpt lat="41.9378270" lon="-2.9254420">
        <ele>1191.5</ele>
        <time>2022-02-08T08:53:08Z</time>
      </trkpt>
      <trkpt lat="41.9378120" lon="-2.9254450">
        <ele>1191.5</ele>
        <time>2022-02-08T08:53:09Z</time>
      </trkpt>
      <trkpt lat="41.9377980" lon="-2.9254520">
        <ele>1191.5</ele>
        <time>2022-02-08T08:53:10Z</time>
      </trkpt>
      <trkpt lat="41.9377870" lon="-2.9254580">
        <ele>1191.9</ele>
        <time>2022-02-08T08:53:11Z</time>
      </trkpt>
      <trkpt lat="41.9377700" lon="-2.9254680">
        <ele>1195.1</ele>
        <time>2022-02-08T08:53:12Z</time>
      </trkpt>
      <trkpt lat="41.9377530" lon="-2.9254720">
        <ele>1195.1</ele>
        <time>2022-02-08T08:53:13Z</time>
      </trkpt>
      <trkpt lat="41.9377370" lon="-2.9254730">
        <ele>1195.1</ele>
        <time>2022-02-08T08:53:14Z</time>
      </trkpt>
      <trkpt lat="41.9377220" lon="-2.9254770">
        <ele>1195.1</ele>
        <time>2022-02-08T08:53:15Z</time>
      </trkpt>
      <trkpt lat="41.9377050" lon="-2.9254830">
        <ele>1195.1</ele>
        <time>2022-02-08T08:53:16Z</time>
      </trkpt>
      <trkpt lat="41.9376900" lon="-2.9254930">
        <ele>1195.1</ele>
        <time>2022-02-08T08:53:17Z</time>
      </trkpt>
      <trkpt lat="41.9376750" lon="-2.9255030">
        <ele>1195.1</ele>
        <time>2022-02-08T08:53:18Z</time>
      </trkpt>
      <trkpt lat="41.9376630" lon="-2.9255120">
        <ele>1195.1</ele>
        <time>2022-02-08T08:53:19Z</time>
      </trkpt>
      <trkpt lat="41.9376500" lon="-2.9255200">
        <ele>1197.7</ele>
        <time>2022-02-08T08:53:20Z</time>
      </trkpt>
      <trkpt lat="41.9376370" lon="-2.9255280">
        <ele>1197.7</ele>
        <time>2022-02-08T08:53:21Z</time>
      </trkpt>
      <trkpt lat="41.9376220" lon="-2.9255350">
        <ele>1197.7</ele>
        <time>2022-02-08T08:53:22Z</time>
      </trkpt>
      <trkpt lat="41.9376070" lon="-2.9255380">
        <ele>1197.7</ele>
        <time>2022-02-08T08:53:23Z</time>
      </trkpt>
      <trkpt lat="41.9375920" lon="-2.9255420">
        <ele>1197.7</ele>
        <time>2022-02-08T08:53:24Z</time>
      </trkpt>
      <trkpt lat="41.9375780" lon="-2.9255450">
        <ele>1197.7</ele>
        <time>2022-02-08T08:53:25Z</time>
      </trkpt>
      <trkpt lat="41.9375650" lon="-2.9255520">
        <ele>1197.7</ele>
        <time>2022-02-08T08:53:26Z</time>
      </trkpt>
      <trkpt lat="41.9375520" lon="-2.9255600">
        <ele>1197.7</ele>
        <time>2022-02-08T08:53:27Z</time>
      </trkpt>
      <trkpt lat="41.9375370" lon="-2.9255670">
        <ele>1197.7</ele>
        <time>2022-02-08T08:53:28Z</time>
      </trkpt>
      <trkpt lat="41.9375230" lon="-2.9255750">
        <ele>1199.9</ele>
        <time>2022-02-08T08:53:29Z</time>
      </trkpt>
      <trkpt lat="41.9375100" lon="-2.9255820">
        <ele>1199.9</ele>
        <time>2022-02-08T08:53:30Z</time>
      </trkpt>
      <trkpt lat="41.9374950" lon="-2.9255850">
        <ele>1199.9</ele>
        <time>2022-02-08T08:53:31Z</time>
      </trkpt>
      <trkpt lat="41.9374800" lon="-2.9255880">
        <ele>1199.9</ele>
        <time>2022-02-08T08:53:32Z</time>
      </trkpt>
      <trkpt lat="41.9374630" lon="-2.9255900">
        <ele>1199.9</ele>
        <time>2022-02-08T08:53:33Z</time>
      </trkpt>
      <trkpt lat="41.9374420" lon="-2.9255900">
        <ele>1199.9</ele>
        <time>2022-02-08T08:53:34Z</time>
      </trkpt>
      <trkpt lat="41.9374230" lon="-2.9255920">
        <ele>1199.9</ele>
        <time>2022-02-08T08:53:35Z</time>
      </trkpt>
      <trkpt lat="41.9374070" lon="-2.9255930">
        <ele>1199.9</ele>
        <time>2022-02-08T08:53:36Z</time>
      </trkpt>
      <trkpt lat="41.9373900" lon="-2.9255920">
        <ele>1201.6</ele>
        <time>2022-02-08T08:53:37Z</time>
      </trkpt>
      <trkpt lat="41.9373700" lon="-2.9255920">
        <ele>1201.6</ele>
        <time>2022-02-08T08:53:38Z</time>
      </trkpt>
      <trkpt lat="41.9373520" lon="-2.9255930">
        <ele>1201.6</ele>
        <time>2022-02-08T08:53:39Z</time>
      </trkpt>
      <trkpt lat="41.9373330" lon="-2.9255970">
        <ele>1201.6</ele>
        <time>2022-02-08T08:53:40Z</time>
      </trkpt>
      <trkpt lat="41.9373170" lon="-2.9256020">
        <ele>1201.6</ele>
        <time>2022-02-08T08:53:41Z</time>
      </trkpt>
      <trkpt lat="41.9372980" lon="-2.9256070">
        <ele>1201.6</ele>
        <time>2022-02-08T08:53:42Z</time>
      </trkpt>
      <trkpt lat="41.9372820" lon="-2.9256100">
        <ele>1201.6</ele>
        <time>2022-02-08T08:53:43Z</time>
      </trkpt>
      <trkpt lat="41.9372650" lon="-2.9256150">
        <ele>1203.4</ele>
        <time>2022-02-08T08:53:44Z</time>
      </trkpt>
      <trkpt lat="41.9372470" lon="-2.9256170">
        <ele>1203.4</ele>
        <time>2022-02-08T08:53:45Z</time>
      </trkpt>
      <trkpt lat="41.9372270" lon="-2.9256200">
        <ele>1203.4</ele>
        <time>2022-02-08T08:53:46Z</time>
      </trkpt>
      <trkpt lat="41.9372070" lon="-2.9256230">
        <ele>1203.4</ele>
        <time>2022-02-08T08:53:47Z</time>
      </trkpt>
      <trkpt lat="41.9371880" lon="-2.9256280">
        <ele>1203.7</ele>
        <time>2022-02-08T08:53:48Z</time>
      </trkpt>
      <trkpt lat="41.9371700" lon="-2.9256370">
        <ele>1203.7</ele>
        <time>2022-02-08T08:53:49Z</time>
      </trkpt>
      <trkpt lat="41.9371520" lon="-2.9256450">
        <ele>1203.7</ele>
        <time>2022-02-08T08:53:50Z</time>
      </trkpt>
      <trkpt lat="41.9371350" lon="-2.9256580">
        <ele>1205.3</ele>
        <time>2022-02-08T08:53:51Z</time>
      </trkpt>
      <trkpt lat="41.9371180" lon="-2.9256680">
        <ele>1205.3</ele>
        <time>2022-02-08T08:53:52Z</time>
      </trkpt>
      <trkpt lat="41.9371030" lon="-2.9256800">
        <ele>1205.3</ele>
        <time>2022-02-08T08:53:53Z</time>
      </trkpt>
      <trkpt lat="41.9370900" lon="-2.9256880">
        <ele>1205.3</ele>
        <time>2022-02-08T08:53:54Z</time>
      </trkpt>
      <trkpt lat="41.9370750" lon="-2.9256980">
        <ele>1205.3</ele>
        <time>2022-02-08T08:53:55Z</time>
      </trkpt>
      <trkpt lat="41.9370550" lon="-2.9257050">
        <ele>1205.3</ele>
        <time>2022-02-08T08:53:56Z</time>
      </trkpt>
      <trkpt lat="41.9370370" lon="-2.9257080">
        <ele>1205.3</ele>
        <time>2022-02-08T08:53:57Z</time>
      </trkpt>
      <trkpt lat="41.9370170" lon="-2.9257100">
        <ele>1206.7</ele>
        <time>2022-02-08T08:53:58Z</time>
      </trkpt>
      <trkpt lat="41.9369950" lon="-2.9257120">
        <ele>1206.7</ele>
        <time>2022-02-08T08:53:59Z</time>
      </trkpt>
      <trkpt lat="41.9369780" lon="-2.9257120">
        <ele>1206.7</ele>
        <time>2022-02-08T08:54:00Z</time>
      </trkpt>
      <trkpt lat="41.9369520" lon="-2.9257080">
        <ele>1206.7</ele>
        <time>2022-02-08T08:54:01Z</time>
      </trkpt>
      <trkpt lat="41.9369280" lon="-2.9257050">
        <ele>1206.7</ele>
        <time>2022-02-08T08:54:02Z</time>
      </trkpt>
      <trkpt lat="41.9369080" lon="-2.9257000">
        <ele>1206.7</ele>
        <time>2022-02-08T08:54:03Z</time>
      </trkpt>
      <trkpt lat="41.9368800" lon="-2.9256920">
        <ele>1207.7</ele>
        <time>2022-02-08T08:54:04Z</time>
      </trkpt>
      <trkpt lat="41.9368550" lon="-2.9256850">
        <ele>1207.7</ele>
        <time>2022-02-08T08:54:05Z</time>
      </trkpt>
      <trkpt lat="41.9368300" lon="-2.9256800">
        <ele>1207.7</ele>
        <time>2022-02-08T08:54:06Z</time>
      </trkpt>
      <trkpt lat="41.9368070" lon="-2.9256750">
        <ele>1207.7</ele>
        <time>2022-02-08T08:54:07Z</time>
      </trkpt>
      <trkpt lat="41.9367830" lon="-2.9256730">
        <ele>1207.7</ele>
        <time>2022-02-08T08:54:08Z</time>
      </trkpt>
      <trkpt lat="41.9367620" lon="-2.9256730">
        <ele>1207.9</ele>
        <time>2022-02-08T08:54:09Z</time>
      </trkpt>
      <trkpt lat="41.9367400" lon="-2.9256720">
        <ele>1207.9</ele>
        <time>2022-02-08T08:54:10Z</time>
      </trkpt>
      <trkpt lat="41.9367200" lon="-2.9256700">
        <ele>1207.9</ele>
        <time>2022-02-08T08:54:11Z</time>
      </trkpt>
      <trkpt lat="41.9367020" lon="-2.9256670">
        <ele>1207.9</ele>
        <time>2022-02-08T08:54:12Z</time>
      </trkpt>
      <trkpt lat="41.9366800" lon="-2.9256620">
        <ele>1207.9</ele>
        <time>2022-02-08T08:54:13Z</time>
      </trkpt>
      <trkpt lat="41.9366580" lon="-2.9256570">
        <ele>1207.9</ele>
        <time>2022-02-08T08:54:14Z</time>
      </trkpt>
      <trkpt lat="41.9366380" lon="-2.9256530">
        <ele>1207.9</ele>
        <time>2022-02-08T08:54:15Z</time>
      </trkpt>
      <trkpt lat="41.9366180" lon="-2.9256480">
        <ele>1208.1</ele>
        <time>2022-02-08T08:54:16Z</time>
      </trkpt>
      <trkpt lat="41.9365970" lon="-2.9256430">
        <ele>1208.1</ele>
        <time>2022-02-08T08:54:17Z</time>
      </trkpt>
      <trkpt lat="41.9365770" lon="-2.9256420">
        <ele>1208.2</ele>
        <time>2022-02-08T08:54:18Z</time>
      </trkpt>
      <trkpt lat="41.9365570" lon="-2.9256370">
        <ele>1208.2</ele>
        <time>2022-02-08T08:54:19Z</time>
      </trkpt>
      <trkpt lat="41.9365380" lon="-2.9256330">
        <ele>1208.2</ele>
        <time>2022-02-08T08:54:20Z</time>
      </trkpt>
      <trkpt lat="41.9365200" lon="-2.9256280">
        <ele>1208.2</ele>
        <time>2022-02-08T08:54:21Z</time>
      </trkpt>
      <trkpt lat="41.9365020" lon="-2.9256270">
        <ele>1208.4</ele>
        <time>2022-02-08T08:54:22Z</time>
      </trkpt>
      <trkpt lat="41.9364820" lon="-2.9256250">
        <ele>1208.4</ele>
        <time>2022-02-08T08:54:23Z</time>
      </trkpt>
      <trkpt lat="41.9364620" lon="-2.9256220">
        <ele>1207.7</ele>
        <time>2022-02-08T08:54:24Z</time>
      </trkpt>
      <trkpt lat="41.9364420" lon="-2.9256180">
        <ele>1207.7</ele>
        <time>2022-02-08T08:54:25Z</time>
      </trkpt>
      <trkpt lat="41.9364220" lon="-2.9256130">
        <ele>1207.7</ele>
        <time>2022-02-08T08:54:26Z</time>
      </trkpt>
      <trkpt lat="41.9364020" lon="-2.9256050">
        <ele>1207.7</ele>
        <time>2022-02-08T08:54:27Z</time>
      </trkpt>
      <trkpt lat="41.9363820" lon="-2.9255970">
        <ele>1207.7</ele>
        <time>2022-02-08T08:54:28Z</time>
      </trkpt>
      <trkpt lat="41.9363600" lon="-2.9255870">
        <ele>1209.2</ele>
        <time>2022-02-08T08:54:29Z</time>
      </trkpt>
      <trkpt lat="41.9363380" lon="-2.9255780">
        <ele>1209.2</ele>
        <time>2022-02-08T08:54:30Z</time>
      </trkpt>
      <trkpt lat="41.9363170" lon="-2.9255720">
        <ele>1209.2</ele>
        <time>2022-02-08T08:54:31Z</time>
      </trkpt>
      <trkpt lat="41.9362950" lon="-2.9255650">
        <ele>1209.2</ele>
        <time>2022-02-08T08:54:32Z</time>
      </trkpt>
      <trkpt lat="41.9362750" lon="-2.9255580">
        <ele>1209.2</ele>
        <time>2022-02-08T08:54:33Z</time>
      </trkpt>
      <trkpt lat="41.9362530" lon="-2.9255480">
        <ele>1211.1</ele>
        <time>2022-02-08T08:54:34Z</time>
      </trkpt>
      <trkpt lat="41.9362330" lon="-2.9255400">
        <ele>1211.1</ele>
        <time>2022-02-08T08:54:35Z</time>
      </trkpt>
      <trkpt lat="41.9362130" lon="-2.9255330">
        <ele>1211.1</ele>
        <time>2022-02-08T08:54:36Z</time>
      </trkpt>
      <trkpt lat="41.9361920" lon="-2.9255280">
        <ele>1211.1</ele>
        <time>2022-02-08T08:54:37Z</time>
      </trkpt>
      <trkpt lat="41.9361720" lon="-2.9255300">
        <ele>1211.1</ele>
        <time>2022-02-08T08:54:38Z</time>
      </trkpt>
      <trkpt lat="41.9361520" lon="-2.9255300">
        <ele>1211.1</ele>
        <time>2022-02-08T08:54:39Z</time>
      </trkpt>
      <trkpt lat="41.9361280" lon="-2.9255280">
        <ele>1211.1</ele>
        <time>2022-02-08T08:54:40Z</time>
      </trkpt>
      <trkpt lat="41.9361120" lon="-2.9255220">
        <ele>1213.8</ele>
        <time>2022-02-08T08:54:41Z</time>
      </trkpt>
      <trkpt lat="41.9360920" lon="-2.9255170">
        <ele>1213.8</ele>
        <time>2022-02-08T08:54:42Z</time>
      </trkpt>
      <trkpt lat="41.9360720" lon="-2.9255120">
        <ele>1213.8</ele>
        <time>2022-02-08T08:54:43Z</time>
      </trkpt>
      <trkpt lat="41.9360520" lon="-2.9255070">
        <ele>1213.8</ele>
        <time>2022-02-08T08:54:44Z</time>
      </trkpt>
      <trkpt lat="41.9360320" lon="-2.9255020">
        <ele>1213.8</ele>
        <time>2022-02-08T08:54:45Z</time>
      </trkpt>
      <trkpt lat="41.9360130" lon="-2.9254970">
        <ele>1213.8</ele>
        <time>2022-02-08T08:54:46Z</time>
      </trkpt>
      <trkpt lat="41.9359930" lon="-2.9254950">
        <ele>1216.8</ele>
        <time>2022-02-08T08:54:47Z</time>
      </trkpt>
      <trkpt lat="41.9359730" lon="-2.9254930">
        <ele>1216.8</ele>
        <time>2022-02-08T08:54:48Z</time>
      </trkpt>
      <trkpt lat="41.9359520" lon="-2.9254900">
        <ele>1216.8</ele>
        <time>2022-02-08T08:54:49Z</time>
      </trkpt>
      <trkpt lat="41.9359320" lon="-2.9254850">
        <ele>1216.8</ele>
        <time>2022-02-08T08:54:50Z</time>
      </trkpt>
      <trkpt lat="41.9359130" lon="-2.9254820">
        <ele>1216.8</ele>
        <time>2022-02-08T08:54:51Z</time>
      </trkpt>
      <trkpt lat="41.9358950" lon="-2.9254780">
        <ele>1216.8</ele>
        <time>2022-02-08T08:54:52Z</time>
      </trkpt>
      <trkpt lat="41.9358770" lon="-2.9254730">
        <ele>1216.8</ele>
        <time>2022-02-08T08:54:53Z</time>
      </trkpt>
      <trkpt lat="41.9358580" lon="-2.9254670">
        <ele>1220.1</ele>
        <time>2022-02-08T08:54:54Z</time>
      </trkpt>
      <trkpt lat="41.9358400" lon="-2.9254650">
        <ele>1220.1</ele>
        <time>2022-02-08T08:54:55Z</time>
      </trkpt>
      <trkpt lat="41.9358220" lon="-2.9254620">
        <ele>1220.1</ele>
        <time>2022-02-08T08:54:56Z</time>
      </trkpt>
      <trkpt lat="41.9358030" lon="-2.9254580">
        <ele>1220.1</ele>
        <time>2022-02-08T08:54:57Z</time>
      </trkpt>
      <trkpt lat="41.9357850" lon="-2.9254550">
        <ele>1220.1</ele>
        <time>2022-02-08T08:54:58Z</time>
      </trkpt>
      <trkpt lat="41.9357650" lon="-2.9254530">
        <ele>1220.4</ele>
        <time>2022-02-08T08:54:59Z</time>
      </trkpt>
      <trkpt lat="41.9357450" lon="-2.9254520">
        <ele>1220.4</ele>
        <time>2022-02-08T08:55:00Z</time>
      </trkpt>
      <trkpt lat="41.9357250" lon="-2.9254500">
        <ele>1223.1</ele>
        <time>2022-02-08T08:55:01Z</time>
      </trkpt>
      <trkpt lat="41.9357030" lon="-2.9254480">
        <ele>1223.1</ele>
        <time>2022-02-08T08:55:02Z</time>
      </trkpt>
      <trkpt lat="41.9356820" lon="-2.9254420">
        <ele>1223.1</ele>
        <time>2022-02-08T08:55:03Z</time>
      </trkpt>
      <trkpt lat="41.9356580" lon="-2.9254350">
        <ele>1223.1</ele>
        <time>2022-02-08T08:55:04Z</time>
      </trkpt>
      <trkpt lat="41.9356350" lon="-2.9254320">
        <ele>1223.1</ele>
        <time>2022-02-08T08:55:05Z</time>
      </trkpt>
      <trkpt lat="41.9356100" lon="-2.9254250">
        <ele>1225.4</ele>
        <time>2022-02-08T08:55:06Z</time>
      </trkpt>
      <trkpt lat="41.9355870" lon="-2.9254200">
        <ele>1225.4</ele>
        <time>2022-02-08T08:55:07Z</time>
      </trkpt>
      <trkpt lat="41.9355620" lon="-2.9254120">
        <ele>1225.4</ele>
        <time>2022-02-08T08:55:08Z</time>
      </trkpt>
      <trkpt lat="41.9355380" lon="-2.9254050">
        <ele>1225.4</ele>
        <time>2022-02-08T08:55:09Z</time>
      </trkpt>
      <trkpt lat="41.9355170" lon="-2.9253980">
        <ele>1225.4</ele>
        <time>2022-02-08T08:55:10Z</time>
      </trkpt>
      <trkpt lat="41.9354980" lon="-2.9253920">
        <ele>1225.4</ele>
        <time>2022-02-08T08:55:11Z</time>
      </trkpt>
      <trkpt lat="41.9354780" lon="-2.9253850">
        <ele>1227.2</ele>
        <time>2022-02-08T08:55:12Z</time>
      </trkpt>
      <trkpt lat="41.9354600" lon="-2.9253780">
        <ele>1227.2</ele>
        <time>2022-02-08T08:55:13Z</time>
      </trkpt>
      <trkpt lat="41.9354400" lon="-2.9253720">
        <ele>1227.2</ele>
        <time>2022-02-08T08:55:14Z</time>
      </trkpt>
      <trkpt lat="41.9354200" lon="-2.9253670">
        <ele>1227.2</ele>
        <time>2022-02-08T08:55:15Z</time>
      </trkpt>
      <trkpt lat="41.9354020" lon="-2.9253620">
        <ele>1227.2</ele>
        <time>2022-02-08T08:55:16Z</time>
      </trkpt>
      <trkpt lat="41.9353820" lon="-2.9253570">
        <ele>1227.2</ele>
        <time>2022-02-08T08:55:17Z</time>
      </trkpt>
      <trkpt lat="41.9353620" lon="-2.9253500">
        <ele>1227.2</ele>
        <time>2022-02-08T08:55:18Z</time>
      </trkpt>
      <trkpt lat="41.9353420" lon="-2.9253470">
        <ele>1228.7</ele>
        <time>2022-02-08T08:55:19Z</time>
      </trkpt>
      <trkpt lat="41.9353220" lon="-2.9253450">
        <ele>1228.7</ele>
        <time>2022-02-08T08:55:20Z</time>
      </trkpt>
      <trkpt lat="41.9352980" lon="-2.9253420">
        <ele>1228.7</ele>
        <time>2022-02-08T08:55:21Z</time>
      </trkpt>
      <trkpt lat="41.9352780" lon="-2.9253370">
        <ele>1228.7</ele>
        <time>2022-02-08T08:55:22Z</time>
      </trkpt>
      <trkpt lat="41.9352570" lon="-2.9253330">
        <ele>1228.7</ele>
        <time>2022-02-08T08:55:23Z</time>
      </trkpt>
      <trkpt lat="41.9352350" lon="-2.9253330">
        <ele>1228.7</ele>
        <time>2022-02-08T08:55:24Z</time>
      </trkpt>
      <trkpt lat="41.9352130" lon="-2.9253320">
        <ele>1230.0</ele>
        <time>2022-02-08T08:55:25Z</time>
      </trkpt>
      <trkpt lat="41.9351900" lon="-2.9253280">
        <ele>1230.0</ele>
        <time>2022-02-08T08:55:26Z</time>
      </trkpt>
      <trkpt lat="41.9351670" lon="-2.9253250">
        <ele>1230.0</ele>
        <time>2022-02-08T08:55:27Z</time>
      </trkpt>
      <trkpt lat="41.9351430" lon="-2.9253230">
        <ele>1230.1</ele>
        <time>2022-02-08T08:55:28Z</time>
      </trkpt>
      <trkpt lat="41.9351200" lon="-2.9253200">
        <ele>1230.1</ele>
        <time>2022-02-08T08:55:29Z</time>
      </trkpt>
      <trkpt lat="41.9350980" lon="-2.9253180">
        <ele>1231.1</ele>
        <time>2022-02-08T08:55:30Z</time>
      </trkpt>
      <trkpt lat="41.9350730" lon="-2.9253120">
        <ele>1231.1</ele>
        <time>2022-02-08T08:55:31Z</time>
      </trkpt>
      <trkpt lat="41.9350480" lon="-2.9253080">
        <ele>1231.1</ele>
        <time>2022-02-08T08:55:32Z</time>
      </trkpt>
      <trkpt lat="41.9350250" lon="-2.9253030">
        <ele>1231.1</ele>
        <time>2022-02-08T08:55:33Z</time>
      </trkpt>
      <trkpt lat="41.9350000" lon="-2.9252980">
        <ele>1231.1</ele>
        <time>2022-02-08T08:55:34Z</time>
      </trkpt>
      <trkpt lat="41.9349750" lon="-2.9252930">
        <ele>1232.1</ele>
        <time>2022-02-08T08:55:35Z</time>
      </trkpt>
      <trkpt lat="41.9349520" lon="-2.9252880">
        <ele>1232.2</ele>
        <time>2022-02-08T08:55:36Z</time>
      </trkpt>
      <trkpt lat="41.9349270" lon="-2.9252850">
        <ele>1232.2</ele>
        <time>2022-02-08T08:55:37Z</time>
      </trkpt>
      <trkpt lat="41.9349030" lon="-2.9252850">
        <ele>1232.2</ele>
        <time>2022-02-08T08:55:38Z</time>
      </trkpt>
      <trkpt lat="41.9348800" lon="-2.9252830">
        <ele>1232.2</ele>
        <time>2022-02-08T08:55:39Z</time>
      </trkpt>
      <trkpt lat="41.9348600" lon="-2.9252820">
        <ele>1232.2</ele>
        <time>2022-02-08T08:55:40Z</time>
      </trkpt>
      <trkpt lat="41.9348380" lon="-2.9252780">
        <ele>1233.1</ele>
        <time>2022-02-08T08:55:41Z</time>
      </trkpt>
      <trkpt lat="41.9348170" lon="-2.9252770">
        <ele>1233.1</ele>
        <time>2022-02-08T08:55:42Z</time>
      </trkpt>
      <trkpt lat="41.9347970" lon="-2.9252730">
        <ele>1233.1</ele>
        <time>2022-02-08T08:55:43Z</time>
      </trkpt>
      <trkpt lat="41.9347800" lon="-2.9252700">
        <ele>1233.1</ele>
        <time>2022-02-08T08:55:44Z</time>
      </trkpt>
      <trkpt lat="41.9347600" lon="-2.9252680">
        <ele>1233.1</ele>
        <time>2022-02-08T08:55:45Z</time>
      </trkpt>
      <trkpt lat="41.9347400" lon="-2.9252630">
        <ele>1233.1</ele>
        <time>2022-02-08T08:55:46Z</time>
      </trkpt>
      <trkpt lat="41.9347180" lon="-2.9252600">
        <ele>1233.4</ele>
        <time>2022-02-08T08:55:47Z</time>
      </trkpt>
      <trkpt lat="41.9347000" lon="-2.9252550">
        <ele>1233.4</ele>
        <time>2022-02-08T08:55:48Z</time>
      </trkpt>
      <trkpt lat="41.9346780" lon="-2.9252470">
        <ele>1233.4</ele>
        <time>2022-02-08T08:55:49Z</time>
      </trkpt>
      <trkpt lat="41.9346570" lon="-2.9252380">
        <ele>1233.4</ele>
        <time>2022-02-08T08:55:50Z</time>
      </trkpt>
      <trkpt lat="41.9346350" lon="-2.9252320">
        <ele>1233.4</ele>
        <time>2022-02-08T08:55:51Z</time>
      </trkpt>
      <trkpt lat="41.9346120" lon="-2.9252270">
        <ele>1233.4</ele>
        <time>2022-02-08T08:55:52Z</time>
      </trkpt>
      <trkpt lat="41.9345900" lon="-2.9252220">
        <ele>1233.2</ele>
        <time>2022-02-08T08:55:53Z</time>
      </trkpt>
      <trkpt lat="41.9345670" lon="-2.9252170">
        <ele>1233.2</ele>
        <time>2022-02-08T08:55:54Z</time>
      </trkpt>
      <trkpt lat="41.9345450" lon="-2.9252120">
        <ele>1233.2</ele>
        <time>2022-02-08T08:55:55Z</time>
      </trkpt>
      <trkpt lat="41.9345230" lon="-2.9252030">
        <ele>1233.2</ele>
        <time>2022-02-08T08:55:56Z</time>
      </trkpt>
      <trkpt lat="41.9345000" lon="-2.9251970">
        <ele>1233.2</ele>
        <time>2022-02-08T08:55:57Z</time>
      </trkpt>
      <trkpt lat="41.9344780" lon="-2.9251900">
        <ele>1233.2</ele>
        <time>2022-02-08T08:55:58Z</time>
      </trkpt>
      <trkpt lat="41.9344550" lon="-2.9251870">
        <ele>1232.9</ele>
        <time>2022-02-08T08:55:59Z</time>
      </trkpt>
      <trkpt lat="41.9344300" lon="-2.9251820">
        <ele>1232.9</ele>
        <time>2022-02-08T08:56:00Z</time>
      </trkpt>
      <trkpt lat="41.9344070" lon="-2.9251800">
        <ele>1232.9</ele>
        <time>2022-02-08T08:56:01Z</time>
      </trkpt>
      <trkpt lat="41.9343820" lon="-2.9251770">
        <ele>1232.9</ele>
        <time>2022-02-08T08:56:02Z</time>
      </trkpt>
      <trkpt lat="41.9343570" lon="-2.9251750">
        <ele>1232.9</ele>
        <time>2022-02-08T08:56:03Z</time>
      </trkpt>
      <trkpt lat="41.9343320" lon="-2.9251730">
        <ele>1232.5</ele>
        <time>2022-02-08T08:56:04Z</time>
      </trkpt>
      <trkpt lat="41.9343080" lon="-2.9251750">
        <ele>1232.5</ele>
        <time>2022-02-08T08:56:05Z</time>
      </trkpt>
      <trkpt lat="41.9342850" lon="-2.9251800">
        <ele>1232.5</ele>
        <time>2022-02-08T08:56:06Z</time>
      </trkpt>
      <trkpt lat="41.9342630" lon="-2.9251900">
        <ele>1232.5</ele>
        <time>2022-02-08T08:56:07Z</time>
      </trkpt>
      <trkpt lat="41.9342430" lon="-2.9252030">
        <ele>1232.5</ele>
        <time>2022-02-08T08:56:08Z</time>
      </trkpt>
      <trkpt lat="41.9342230" lon="-2.9252170">
        <ele>1232.5</ele>
        <time>2022-02-08T08:56:09Z</time>
      </trkpt>
      <trkpt lat="41.9342020" lon="-2.9252300">
        <ele>1232.4</ele>
        <time>2022-02-08T08:56:10Z</time>
      </trkpt>
      <trkpt lat="41.9341820" lon="-2.9252400">
        <ele>1232.4</ele>
        <time>2022-02-08T08:56:11Z</time>
      </trkpt>
      <trkpt lat="41.9341580" lon="-2.9252470">
        <ele>1232.4</ele>
        <time>2022-02-08T08:56:12Z</time>
      </trkpt>
      <trkpt lat="41.9341350" lon="-2.9252520">
        <ele>1232.4</ele>
        <time>2022-02-08T08:56:13Z</time>
      </trkpt>
      <trkpt lat="41.9341120" lon="-2.9252550">
        <ele>1232.4</ele>
        <time>2022-02-08T08:56:14Z</time>
      </trkpt>
      <trkpt lat="41.9340900" lon="-2.9252550">
        <ele>1232.4</ele>
        <time>2022-02-08T08:56:15Z</time>
      </trkpt>
      <trkpt lat="41.9340650" lon="-2.9252520">
        <ele>1232.7</ele>
        <time>2022-02-08T08:56:16Z</time>
      </trkpt>
      <trkpt lat="41.9340430" lon="-2.9252470">
        <ele>1232.7</ele>
        <time>2022-02-08T08:56:17Z</time>
      </trkpt>
      <trkpt lat="41.9340200" lon="-2.9252400">
        <ele>1232.7</ele>
        <time>2022-02-08T08:56:18Z</time>
      </trkpt>
      <trkpt lat="41.9339970" lon="-2.9252300">
        <ele>1232.7</ele>
        <time>2022-02-08T08:56:19Z</time>
      </trkpt>
      <trkpt lat="41.9339750" lon="-2.9252180">
        <ele>1232.7</ele>
        <time>2022-02-08T08:56:20Z</time>
      </trkpt>
      <trkpt lat="41.9339500" lon="-2.9252070">
        <ele>1233.4</ele>
        <time>2022-02-08T08:56:21Z</time>
      </trkpt>
      <trkpt lat="41.9339250" lon="-2.9251950">
        <ele>1233.4</ele>
        <time>2022-02-08T08:56:22Z</time>
      </trkpt>
      <trkpt lat="41.9338980" lon="-2.9251820">
        <ele>1233.4</ele>
        <time>2022-02-08T08:56:23Z</time>
      </trkpt>
      <trkpt lat="41.9338730" lon="-2.9251720">
        <ele>1233.4</ele>
        <time>2022-02-08T08:56:24Z</time>
      </trkpt>
      <trkpt lat="41.9338450" lon="-2.9251620">
        <ele>1233.4</ele>
        <time>2022-02-08T08:56:25Z</time>
      </trkpt>
      <trkpt lat="41.9338170" lon="-2.9251550">
        <ele>1234.4</ele>
        <time>2022-02-08T08:56:26Z</time>
      </trkpt>
      <trkpt lat="41.9337900" lon="-2.9251470">
        <ele>1234.4</ele>
        <time>2022-02-08T08:56:27Z</time>
      </trkpt>
      <trkpt lat="41.9337650" lon="-2.9251420">
        <ele>1234.4</ele>
        <time>2022-02-08T08:56:28Z</time>
      </trkpt>
      <trkpt lat="41.9337400" lon="-2.9251350">
        <ele>1234.4</ele>
        <time>2022-02-08T08:56:29Z</time>
      </trkpt>
      <trkpt lat="41.9337130" lon="-2.9251270">
        <ele>1234.4</ele>
        <time>2022-02-08T08:56:30Z</time>
      </trkpt>
      <trkpt lat="41.9336880" lon="-2.9251180">
        <ele>1235.6</ele>
        <time>2022-02-08T08:56:31Z</time>
      </trkpt>
      <trkpt lat="41.9336630" lon="-2.9251100">
        <ele>1235.6</ele>
        <time>2022-02-08T08:56:32Z</time>
      </trkpt>
      <trkpt lat="41.9336400" lon="-2.9251030">
        <ele>1236.7</ele>
        <time>2022-02-08T08:56:33Z</time>
      </trkpt>
      <trkpt lat="41.9336150" lon="-2.9250970">
        <ele>1236.7</ele>
        <time>2022-02-08T08:56:34Z</time>
      </trkpt>
      <trkpt lat="41.9335900" lon="-2.9250920">
        <ele>1236.7</ele>
        <time>2022-02-08T08:56:35Z</time>
      </trkpt>
      <trkpt lat="41.9335650" lon="-2.9250850">
        <ele>1237.9</ele>
        <time>2022-02-08T08:56:36Z</time>
      </trkpt>
      <trkpt lat="41.9335400" lon="-2.9250780">
        <ele>1237.9</ele>
        <time>2022-02-08T08:56:37Z</time>
      </trkpt>
      <trkpt lat="41.9335150" lon="-2.9250700">
        <ele>1237.9</ele>
        <time>2022-02-08T08:56:38Z</time>
      </trkpt>
      <trkpt lat="41.9334880" lon="-2.9250630">
        <ele>1237.9</ele>
        <time>2022-02-08T08:56:39Z</time>
      </trkpt>
      <trkpt lat="41.9334620" lon="-2.9250580">
        <ele>1237.9</ele>
        <time>2022-02-08T08:56:40Z</time>
      </trkpt>
      <trkpt lat="41.9334370" lon="-2.9250570">
        <ele>1239.2</ele>
        <time>2022-02-08T08:56:41Z</time>
      </trkpt>
      <trkpt lat="41.9334120" lon="-2.9250580">
        <ele>1239.2</ele>
        <time>2022-02-08T08:56:42Z</time>
      </trkpt>
      <trkpt lat="41.9333870" lon="-2.9250620">
        <ele>1239.2</ele>
        <time>2022-02-08T08:56:43Z</time>
      </trkpt>
      <trkpt lat="41.9333600" lon="-2.9250620">
        <ele>1239.2</ele>
        <time>2022-02-08T08:56:44Z</time>
      </trkpt>
      <trkpt lat="41.9333320" lon="-2.9250620">
        <ele>1239.2</ele>
        <time>2022-02-08T08:56:45Z</time>
      </trkpt>
      <trkpt lat="41.9333050" lon="-2.9250620">
        <ele>1240.6</ele>
        <time>2022-02-08T08:56:46Z</time>
      </trkpt>
      <trkpt lat="41.9332750" lon="-2.9250580">
        <ele>1240.6</ele>
        <time>2022-02-08T08:56:47Z</time>
      </trkpt>
      <trkpt lat="41.9332430" lon="-2.9250530">
        <ele>1240.6</ele>
        <time>2022-02-08T08:56:48Z</time>
      </trkpt>
      <trkpt lat="41.9332150" lon="-2.9250480">
        <ele>1240.6</ele>
        <time>2022-02-08T08:56:49Z</time>
      </trkpt>
      <trkpt lat="41.9331850" lon="-2.9250400">
        <ele>1241.6</ele>
        <time>2022-02-08T08:56:50Z</time>
      </trkpt>
      <trkpt lat="41.9331530" lon="-2.9250300">
        <ele>1241.6</ele>
        <time>2022-02-08T08:56:51Z</time>
      </trkpt>
      <trkpt lat="41.9331220" lon="-2.9250200">
        <ele>1241.6</ele>
        <time>2022-02-08T08:56:52Z</time>
      </trkpt>
      <trkpt lat="41.9330900" lon="-2.9250080">
        <ele>1241.6</ele>
        <time>2022-02-08T08:56:53Z</time>
      </trkpt>
      <trkpt lat="41.9330550" lon="-2.9249980">
        <ele>1242.4</ele>
        <time>2022-02-08T08:56:54Z</time>
      </trkpt>
      <trkpt lat="41.9330200" lon="-2.9249880">
        <ele>1242.4</ele>
        <time>2022-02-08T08:56:55Z</time>
      </trkpt>
      <trkpt lat="41.9329830" lon="-2.9249780">
        <ele>1242.4</ele>
        <time>2022-02-08T08:56:56Z</time>
      </trkpt>
      <trkpt lat="41.9329470" lon="-2.9249720">
        <ele>1242.4</ele>
        <time>2022-02-08T08:56:57Z</time>
      </trkpt>
      <trkpt lat="41.9329080" lon="-2.9249670">
        <ele>1242.8</ele>
        <time>2022-02-08T08:56:58Z</time>
      </trkpt>
      <trkpt lat="41.9328720" lon="-2.9249600">
        <ele>1242.8</ele>
        <time>2022-02-08T08:56:59Z</time>
      </trkpt>
      <trkpt lat="41.9328350" lon="-2.9249550">
        <ele>1242.8</ele>
        <time>2022-02-08T08:57:00Z</time>
      </trkpt>
      <trkpt lat="41.9328020" lon="-2.9249530">
        <ele>1243.0</ele>
        <time>2022-02-08T08:57:01Z</time>
      </trkpt>
      <trkpt lat="41.9327680" lon="-2.9249480">
        <ele>1243.0</ele>
        <time>2022-02-08T08:57:02Z</time>
      </trkpt>
      <trkpt lat="41.9327370" lon="-2.9249500">
        <ele>1243.0</ele>
        <time>2022-02-08T08:57:03Z</time>
      </trkpt>
      <trkpt lat="41.9327030" lon="-2.9249520">
        <ele>1243.0</ele>
        <time>2022-02-08T08:57:04Z</time>
      </trkpt>
      <trkpt lat="41.9326680" lon="-2.9249520">
        <ele>1242.7</ele>
        <time>2022-02-08T08:57:05Z</time>
      </trkpt>
      <trkpt lat="41.9326320" lon="-2.9249530">
        <ele>1242.7</ele>
        <time>2022-02-08T08:57:06Z</time>
      </trkpt>
      <trkpt lat="41.9325900" lon="-2.9249570">
        <ele>1242.7</ele>
        <time>2022-02-08T08:57:07Z</time>
      </trkpt>
      <trkpt lat="41.9325470" lon="-2.9249600">
        <ele>1242.1</ele>
        <time>2022-02-08T08:57:08Z</time>
      </trkpt>
      <trkpt lat="41.9325030" lon="-2.9249680">
        <ele>1242.1</ele>
        <time>2022-02-08T08:57:09Z</time>
      </trkpt>
      <trkpt lat="41.9324580" lon="-2.9249780">
        <ele>1242.1</ele>
        <time>2022-02-08T08:57:10Z</time>
      </trkpt>
      <trkpt lat="41.9324100" lon="-2.9249870">
        <ele>1241.3</ele>
        <time>2022-02-08T08:57:11Z</time>
      </trkpt>
      <trkpt lat="41.9323620" lon="-2.9249980">
        <ele>1241.3</ele>
        <time>2022-02-08T08:57:12Z</time>
      </trkpt>
      <trkpt lat="41.9323120" lon="-2.9250120">
        <ele>1241.3</ele>
        <time>2022-02-08T08:57:13Z</time>
      </trkpt>
      <trkpt lat="41.9322580" lon="-2.9250250">
        <ele>1240.4</ele>
        <time>2022-02-08T08:57:14Z</time>
      </trkpt>
      <trkpt lat="41.9322070" lon="-2.9250350">
        <ele>1240.4</ele>
        <time>2022-02-08T08:57:15Z</time>
      </trkpt>
      <trkpt lat="41.9321530" lon="-2.9250420">
        <ele>1239.3</ele>
        <time>2022-02-08T08:57:16Z</time>
      </trkpt>
      <trkpt lat="41.9321000" lon="-2.9250520">
        <ele>1239.3</ele>
        <time>2022-02-08T08:57:17Z</time>
      </trkpt>
      <trkpt lat="41.9320450" lon="-2.9250580">
        <ele>1239.3</ele>
        <time>2022-02-08T08:57:18Z</time>
      </trkpt>
      <trkpt lat="41.9319900" lon="-2.9250650">
        <ele>1238.3</ele>
        <time>2022-02-08T08:57:19Z</time>
      </trkpt>
      <trkpt lat="41.9319370" lon="-2.9250750">
        <ele>1238.3</ele>
        <time>2022-02-08T08:57:20Z</time>
      </trkpt>
      <trkpt lat="41.9318850" lon="-2.9250880">
        <ele>1237.2</ele>
        <time>2022-02-08T08:57:21Z</time>
      </trkpt>
      <trkpt lat="41.9318320" lon="-2.9251020">
        <ele>1237.2</ele>
        <time>2022-02-08T08:57:22Z</time>
      </trkpt>
      <trkpt lat="41.9317820" lon="-2.9251150">
        <ele>1237.8</ele>
        <time>2022-02-08T08:57:23Z</time>
      </trkpt>
      <trkpt lat="41.9317300" lon="-2.9251270">
        <ele>1237.8</ele>
        <time>2022-02-08T08:57:24Z</time>
      </trkpt>
      <trkpt lat="41.9316820" lon="-2.9251380">
        <ele>1237.8</ele>
        <time>2022-02-08T08:57:25Z</time>
      </trkpt>
      <trkpt lat="41.9316350" lon="-2.9251520">
        <ele>1236.8</ele>
        <time>2022-02-08T08:57:26Z</time>
      </trkpt>
      <trkpt lat="41.9315900" lon="-2.9251630">
        <ele>1236.8</ele>
        <time>2022-02-08T08:57:27Z</time>
      </trkpt>
      <trkpt lat="41.9315450" lon="-2.9251730">
        <ele>1236.8</ele>
        <time>2022-02-08T08:57:28Z</time>
      </trkpt>
      <trkpt lat="41.9315000" lon="-2.9251900">
        <ele>1236.1</ele>
        <time>2022-02-08T08:57:29Z</time>
      </trkpt>
      <trkpt lat="41.9314580" lon="-2.9252150">
        <ele>1236.1</ele>
        <time>2022-02-08T08:57:30Z</time>
      </trkpt>
      <trkpt lat="41.9314220" lon="-2.9252470">
        <ele>1236.1</ele>
        <time>2022-02-08T08:57:31Z</time>
      </trkpt>
      <trkpt lat="41.9313920" lon="-2.9252820">
        <ele>1236.1</ele>
        <time>2022-02-08T08:57:32Z</time>
      </trkpt>
      <trkpt lat="41.9313700" lon="-2.9253250">
        <ele>1236.2</ele>
        <time>2022-02-08T08:57:33Z</time>
      </trkpt>
      <trkpt lat="41.9313580" lon="-2.9253720">
        <ele>1236.2</ele>
        <time>2022-02-08T08:57:34Z</time>
      </trkpt>
      <trkpt lat="41.9313550" lon="-2.9254230">
        <ele>1236.3</ele>
        <time>2022-02-08T08:57:35Z</time>
      </trkpt>
      <trkpt lat="41.9313550" lon="-2.9254750">
        <ele>1236.4</ele>
        <time>2022-02-08T08:57:36Z</time>
      </trkpt>
      <trkpt lat="41.9313620" lon="-2.9255250">
        <ele>1236.5</ele>
        <time>2022-02-08T08:57:37Z</time>
      </trkpt>
      <trkpt lat="41.9313720" lon="-2.9255720">
        <ele>1236.6</ele>
        <time>2022-02-08T08:57:38Z</time>
      </trkpt>
      <trkpt lat="41.9313800" lon="-2.9256170">
        <ele>1236.6</ele>
        <time>2022-02-08T08:57:39Z</time>
      </trkpt>
      <trkpt lat="41.9313900" lon="-2.9256670">
        <ele>1236.7</ele>
        <time>2022-02-08T08:57:40Z</time>
      </trkpt>
      <trkpt lat="41.9313970" lon="-2.9257120">
        <ele>1236.8</ele>
        <time>2022-02-08T08:57:41Z</time>
      </trkpt>
      <trkpt lat="41.9314050" lon="-2.9257580">
        <ele>1236.8</ele>
        <time>2022-02-08T08:57:42Z</time>
      </trkpt>
      <trkpt lat="41.9314100" lon="-2.9258080">
        <ele>1236.9</ele>
        <time>2022-02-08T08:57:43Z</time>
      </trkpt>
      <trkpt lat="41.9314170" lon="-2.9258680">
        <ele>1237.0</ele>
        <time>2022-02-08T08:57:44Z</time>
      </trkpt>
      <trkpt lat="41.9314270" lon="-2.9259250">
        <ele>1237.0</ele>
        <time>2022-02-08T08:57:45Z</time>
      </trkpt>
      <trkpt lat="41.9314420" lon="-2.9259820">
        <ele>1237.1</ele>
        <time>2022-02-08T08:57:46Z</time>
      </trkpt>
      <trkpt lat="41.9314580" lon="-2.9260320">
        <ele>1237.1</ele>
        <time>2022-02-08T08:57:47Z</time>
      </trkpt>
      <trkpt lat="41.9314700" lon="-2.9260850">
        <ele>1237.2</ele>
        <time>2022-02-08T08:57:48Z</time>
      </trkpt>
      <trkpt lat="41.9314770" lon="-2.9261380">
        <ele>1237.2</ele>
        <time>2022-02-08T08:57:49Z</time>
      </trkpt>
      <trkpt lat="41.9314780" lon="-2.9261920">
        <ele>1237.3</ele>
        <time>2022-02-08T08:57:50Z</time>
      </trkpt>
      <trkpt lat="41.9314770" lon="-2.9262450">
        <ele>1237.3</ele>
        <time>2022-02-08T08:57:51Z</time>
      </trkpt>
      <trkpt lat="41.9314750" lon="-2.9263020">
        <ele>1237.3</ele>
        <time>2022-02-08T08:57:52Z</time>
      </trkpt>
      <trkpt lat="41.9314830" lon="-2.9263580">
        <ele>1237.3</ele>
        <time>2022-02-08T08:57:53Z</time>
      </trkpt>
      <trkpt lat="41.9315020" lon="-2.9264120">
        <ele>1237.3</ele>
        <time>2022-02-08T08:57:54Z</time>
      </trkpt>
      <trkpt lat="41.9315250" lon="-2.9264650">
        <ele>1237.2</ele>
        <time>2022-02-08T08:57:55Z</time>
      </trkpt>
      <trkpt lat="41.9315470" lon="-2.9265230">
        <ele>1237.1</ele>
        <time>2022-02-08T08:57:56Z</time>
      </trkpt>
      <trkpt lat="41.9315650" lon="-2.9265830">
        <ele>1237.1</ele>
        <time>2022-02-08T08:57:57Z</time>
      </trkpt>
      <trkpt lat="41.9315850" lon="-2.9266470">
        <ele>1236.9</ele>
        <time>2022-02-08T08:57:58Z</time>
      </trkpt>
      <trkpt lat="41.9316100" lon="-2.9267080">
        <ele>1236.8</ele>
        <time>2022-02-08T08:57:59Z</time>
      </trkpt>
      <trkpt lat="41.9316370" lon="-2.9267670">
        <ele>1236.7</ele>
        <time>2022-02-08T08:58:00Z</time>
      </trkpt>
      <trkpt lat="41.9316600" lon="-2.9268320">
        <ele>1236.5</ele>
        <time>2022-02-08T08:58:01Z</time>
      </trkpt>
      <trkpt lat="41.9316870" lon="-2.9268980">
        <ele>1236.4</ele>
        <time>2022-02-08T08:58:02Z</time>
      </trkpt>
      <trkpt lat="41.9317100" lon="-2.9269630">
        <ele>1236.2</ele>
        <time>2022-02-08T08:58:03Z</time>
      </trkpt>
      <trkpt lat="41.9317320" lon="-2.9270270">
        <ele>1236.1</ele>
        <time>2022-02-08T08:58:04Z</time>
      </trkpt>
      <trkpt lat="41.9317520" lon="-2.9270930">
        <ele>1235.9</ele>
        <time>2022-02-08T08:58:05Z</time>
      </trkpt>
      <trkpt lat="41.9317650" lon="-2.9271550">
        <ele>1235.8</ele>
        <time>2022-02-08T08:58:06Z</time>
      </trkpt>
      <trkpt lat="41.9317820" lon="-2.9272170">
        <ele>1235.6</ele>
        <time>2022-02-08T08:58:07Z</time>
      </trkpt>
      <trkpt lat="41.9317970" lon="-2.9272820">
        <ele>1235.4</ele>
        <time>2022-02-08T08:58:08Z</time>
      </trkpt>
      <trkpt lat="41.9318130" lon="-2.9273400">
        <ele>1235.3</ele>
        <time>2022-02-08T08:58:09Z</time>
      </trkpt>
      <trkpt lat="41.9318300" lon="-2.9274020">
        <ele>1235.1</ele>
        <time>2022-02-08T08:58:10Z</time>
      </trkpt>
      <trkpt lat="41.9318470" lon="-2.9274720">
        <ele>1234.8</ele>
        <time>2022-02-08T08:58:11Z</time>
      </trkpt>
      <trkpt lat="41.9318630" lon="-2.9275280">
        <ele>1234.6</ele>
        <time>2022-02-08T08:58:12Z</time>
      </trkpt>
      <trkpt lat="41.9318920" lon="-2.9276080">
        <ele>1234.3</ele>
        <time>2022-02-08T08:58:13Z</time>
      </trkpt>
      <trkpt lat="41.9319250" lon="-2.9276670">
        <ele>1234.0</ele>
        <time>2022-02-08T08:58:14Z</time>
      </trkpt>
      <trkpt lat="41.9319620" lon="-2.9277200">
        <ele>1233.8</ele>
        <time>2022-02-08T08:58:15Z</time>
      </trkpt>
      <trkpt lat="41.9319980" lon="-2.9277720">
        <ele>1233.5</ele>
        <time>2022-02-08T08:58:16Z</time>
      </trkpt>
      <trkpt lat="41.9320350" lon="-2.9278300">
        <ele>1233.2</ele>
        <time>2022-02-08T08:58:17Z</time>
      </trkpt>
      <trkpt lat="41.9320670" lon="-2.9279020">
        <ele>1232.8</ele>
        <time>2022-02-08T08:58:18Z</time>
      </trkpt>
      <trkpt lat="41.9320880" lon="-2.9279680">
        <ele>1232.3</ele>
        <time>2022-02-08T08:58:19Z</time>
      </trkpt>
      <trkpt lat="41.9320950" lon="-2.9280320">
        <ele>1231.7</ele>
        <time>2022-02-08T08:58:20Z</time>
      </trkpt>
      <trkpt lat="41.9320930" lon="-2.9280770">
        <ele>1231.5</ele>
        <time>2022-02-08T08:58:21Z</time>
      </trkpt>
      <trkpt lat="41.9320730" lon="-2.9281320">
        <ele>1231.2</ele>
        <time>2022-02-08T08:58:22Z</time>
      </trkpt>
      <trkpt lat="41.9320380" lon="-2.9281780">
        <ele>1230.9</ele>
        <time>2022-02-08T08:58:23Z</time>
      </trkpt>
      <trkpt lat="41.9320000" lon="-2.9282250">
        <ele>1230.6</ele>
        <time>2022-02-08T08:58:24Z</time>
      </trkpt>
      <trkpt lat="41.9319600" lon="-2.9282670">
        <ele>1230.4</ele>
        <time>2022-02-08T08:58:25Z</time>
      </trkpt>
      <trkpt lat="41.9319150" lon="-2.9283120">
        <ele>1230.1</ele>
        <time>2022-02-08T08:58:26Z</time>
      </trkpt>
      <trkpt lat="41.9318700" lon="-2.9283520">
        <ele>1229.9</ele>
        <time>2022-02-08T08:58:27Z</time>
      </trkpt>
      <trkpt lat="41.9318220" lon="-2.9283880">
        <ele>1229.7</ele>
        <time>2022-02-08T08:58:28Z</time>
      </trkpt>
      <trkpt lat="41.9317720" lon="-2.9284330">
        <ele>1229.6</ele>
        <time>2022-02-08T08:58:29Z</time>
      </trkpt>
      <trkpt lat="41.9317180" lon="-2.9284820">
        <ele>1229.4</ele>
        <time>2022-02-08T08:58:30Z</time>
      </trkpt>
      <trkpt lat="41.9316650" lon="-2.9285280">
        <ele>1229.2</ele>
        <time>2022-02-08T08:58:31Z</time>
      </trkpt>
      <trkpt lat="41.9316100" lon="-2.9285780">
        <ele>1229.1</ele>
        <time>2022-02-08T08:58:32Z</time>
      </trkpt>
      <trkpt lat="41.9315520" lon="-2.9286130">
        <ele>1229.0</ele>
        <time>2022-02-08T08:58:33Z</time>
      </trkpt>
      <trkpt lat="41.9314880" lon="-2.9286450">
        <ele>1228.9</ele>
        <time>2022-02-08T08:58:34Z</time>
      </trkpt>
      <trkpt lat="41.9314250" lon="-2.9286700">
        <ele>1228.8</ele>
        <time>2022-02-08T08:58:35Z</time>
      </trkpt>
      <trkpt lat="41.9313620" lon="-2.9286970">
        <ele>1228.7</ele>
        <time>2022-02-08T08:58:36Z</time>
      </trkpt>
      <trkpt lat="41.9313050" lon="-2.9287200">
        <ele>1228.6</ele>
        <time>2022-02-08T08:58:37Z</time>
      </trkpt>
      <trkpt lat="41.9312500" lon="-2.9287520">
        <ele>1228.5</ele>
        <time>2022-02-08T08:58:38Z</time>
      </trkpt>
      <trkpt lat="41.9312020" lon="-2.9287950">
        <ele>1228.3</ele>
        <time>2022-02-08T08:58:39Z</time>
      </trkpt>
      <trkpt lat="41.9311600" lon="-2.9288470">
        <ele>1228.1</ele>
        <time>2022-02-08T08:58:40Z</time>
      </trkpt>
      <trkpt lat="41.9311200" lon="-2.9289000">
        <ele>1227.9</ele>
        <time>2022-02-08T08:58:41Z</time>
      </trkpt>
      <trkpt lat="41.9310820" lon="-2.9289550">
        <ele>1227.7</ele>
        <time>2022-02-08T08:58:42Z</time>
      </trkpt>
      <trkpt lat="41.9310420" lon="-2.9290100">
        <ele>1227.5</ele>
        <time>2022-02-08T08:58:43Z</time>
      </trkpt>
      <trkpt lat="41.9309970" lon="-2.9290670">
        <ele>1227.2</ele>
        <time>2022-02-08T08:58:44Z</time>
      </trkpt>
      <trkpt lat="41.9309470" lon="-2.9291220">
        <ele>1227.0</ele>
        <time>2022-02-08T08:58:45Z</time>
      </trkpt>
      <trkpt lat="41.9308970" lon="-2.9291730">
        <ele>1226.7</ele>
        <time>2022-02-08T08:58:46Z</time>
      </trkpt>
      <trkpt lat="41.9308450" lon="-2.9292220">
        <ele>1226.4</ele>
        <time>2022-02-08T08:58:47Z</time>
      </trkpt>
      <trkpt lat="41.9307900" lon="-2.9292730">
        <ele>1226.0</ele>
        <time>2022-02-08T08:58:48Z</time>
      </trkpt>
      <trkpt lat="41.9307330" lon="-2.9293300">
        <ele>1225.7</ele>
        <time>2022-02-08T08:58:49Z</time>
      </trkpt>
      <trkpt lat="41.9306730" lon="-2.9293870">
        <ele>1225.3</ele>
        <time>2022-02-08T08:58:50Z</time>
      </trkpt>
      <trkpt lat="41.9306150" lon="-2.9294430">
        <ele>1224.9</ele>
        <time>2022-02-08T08:58:51Z</time>
      </trkpt>
      <trkpt lat="41.9305600" lon="-2.9295050">
        <ele>1224.6</ele>
        <time>2022-02-08T08:58:52Z</time>
      </trkpt>
      <trkpt lat="41.9305120" lon="-2.9295700">
        <ele>1224.3</ele>
        <time>2022-02-08T08:58:53Z</time>
      </trkpt>
      <trkpt lat="41.9304600" lon="-2.9296430">
        <ele>1224.0</ele>
        <time>2022-02-08T08:58:54Z</time>
      </trkpt>
      <trkpt lat="41.9304070" lon="-2.9297100">
        <ele>1223.7</ele>
        <time>2022-02-08T08:58:55Z</time>
      </trkpt>
      <trkpt lat="41.9303480" lon="-2.9297750">
        <ele>1223.4</ele>
        <time>2022-02-08T08:58:56Z</time>
      </trkpt>
      <trkpt lat="41.9302920" lon="-2.9298320">
        <ele>1223.2</ele>
        <time>2022-02-08T08:58:57Z</time>
      </trkpt>
      <trkpt lat="41.9302380" lon="-2.9298900">
        <ele>1222.9</ele>
        <time>2022-02-08T08:58:58Z</time>
      </trkpt>
      <trkpt lat="41.9301900" lon="-2.9299480">
        <ele>1222.7</ele>
        <time>2022-02-08T08:58:59Z</time>
      </trkpt>
      <trkpt lat="41.9301450" lon="-2.9300130">
        <ele>1222.5</ele>
        <time>2022-02-08T08:59:00Z</time>
      </trkpt>
      <trkpt lat="41.9301120" lon="-2.9300900">
        <ele>1222.3</ele>
        <time>2022-02-08T08:59:01Z</time>
      </trkpt>
      <trkpt lat="41.9300850" lon="-2.9301700">
        <ele>1222.1</ele>
        <time>2022-02-08T08:59:02Z</time>
      </trkpt>
      <trkpt lat="41.9300650" lon="-2.9302550">
        <ele>1221.9</ele>
        <time>2022-02-08T08:59:03Z</time>
      </trkpt>
      <trkpt lat="41.9300400" lon="-2.9303330">
        <ele>1221.8</ele>
        <time>2022-02-08T08:59:04Z</time>
      </trkpt>
      <trkpt lat="41.9300170" lon="-2.9304030">
        <ele>1221.6</ele>
        <time>2022-02-08T08:59:05Z</time>
      </trkpt>
      <trkpt lat="41.9299920" lon="-2.9304770">
        <ele>1221.5</ele>
        <time>2022-02-08T08:59:06Z</time>
      </trkpt>
      <trkpt lat="41.9299650" lon="-2.9305450">
        <ele>1221.4</ele>
        <time>2022-02-08T08:59:07Z</time>
      </trkpt>
      <trkpt lat="41.9299380" lon="-2.9306180">
        <ele>1221.3</ele>
        <time>2022-02-08T08:59:08Z</time>
      </trkpt>
      <trkpt lat="41.9299100" lon="-2.9306880">
        <ele>1221.2</ele>
        <time>2022-02-08T08:59:09Z</time>
      </trkpt>
      <trkpt lat="41.9298850" lon="-2.9307550">
        <ele>1221.1</ele>
        <time>2022-02-08T08:59:10Z</time>
      </trkpt>
      <trkpt lat="41.9298570" lon="-2.9308230">
        <ele>1221.1</ele>
        <time>2022-02-08T08:59:11Z</time>
      </trkpt>
      <trkpt lat="41.9298320" lon="-2.9308880">
        <ele>1221.1</ele>
        <time>2022-02-08T08:59:12Z</time>
      </trkpt>
      <trkpt lat="41.9298070" lon="-2.9309500">
        <ele>1221.0</ele>
        <time>2022-02-08T08:59:13Z</time>
      </trkpt>
      <trkpt lat="41.9297830" lon="-2.9310120">
        <ele>1221.0</ele>
        <time>2022-02-08T08:59:14Z</time>
      </trkpt>
      <trkpt lat="41.9297650" lon="-2.9310720">
        <ele>1221.0</ele>
        <time>2022-02-08T08:59:15Z</time>
      </trkpt>
      <trkpt lat="41.9297450" lon="-2.9311370">
        <ele>1220.9</ele>
        <time>2022-02-08T08:59:16Z</time>
      </trkpt>
      <trkpt lat="41.9297270" lon="-2.9312050">
        <ele>1220.8</ele>
        <time>2022-02-08T08:59:17Z</time>
      </trkpt>
      <trkpt lat="41.9297070" lon="-2.9312770">
        <ele>1220.8</ele>
        <time>2022-02-08T08:59:18Z</time>
      </trkpt>
      <trkpt lat="41.9296900" lon="-2.9313500">
        <ele>1220.6</ele>
        <time>2022-02-08T08:59:19Z</time>
      </trkpt>
      <trkpt lat="41.9296770" lon="-2.9314250">
        <ele>1220.5</ele>
        <time>2022-02-08T08:59:20Z</time>
      </trkpt>
      <trkpt lat="41.9296720" lon="-2.9315050">
        <ele>1220.4</ele>
        <time>2022-02-08T08:59:21Z</time>
      </trkpt>
      <trkpt lat="41.9296730" lon="-2.9315850">
        <ele>1220.2</ele>
        <time>2022-02-08T08:59:22Z</time>
      </trkpt>
      <trkpt lat="41.9296780" lon="-2.9316600">
        <ele>1220.0</ele>
        <time>2022-02-08T08:59:23Z</time>
      </trkpt>
      <trkpt lat="41.9296900" lon="-2.9317330">
        <ele>1219.8</ele>
        <time>2022-02-08T08:59:24Z</time>
      </trkpt>
      <trkpt lat="41.9297070" lon="-2.9318030">
        <ele>1219.5</ele>
        <time>2022-02-08T08:59:25Z</time>
      </trkpt>
      <trkpt lat="41.9297270" lon="-2.9318720">
        <ele>1219.2</ele>
        <time>2022-02-08T08:59:26Z</time>
      </trkpt>
      <trkpt lat="41.9297400" lon="-2.9319480">
        <ele>1218.9</ele>
        <time>2022-02-08T08:59:27Z</time>
      </trkpt>
      <trkpt lat="41.9297530" lon="-2.9320300">
        <ele>1218.5</ele>
        <time>2022-02-08T08:59:28Z</time>
      </trkpt>
      <trkpt lat="41.9297650" lon="-2.9321100">
        <ele>1218.1</ele>
        <time>2022-02-08T08:59:29Z</time>
      </trkpt>
      <trkpt lat="41.9297700" lon="-2.9321950">
        <ele>1217.6</ele>
        <time>2022-02-08T08:59:30Z</time>
      </trkpt>
      <trkpt lat="41.9297780" lon="-2.9322870">
        <ele>1217.0</ele>
        <time>2022-02-08T08:59:31Z</time>
      </trkpt>
      <trkpt lat="41.9297870" lon="-2.9323800">
        <ele>1216.4</ele>
        <time>2022-02-08T08:59:32Z</time>
      </trkpt>
      <trkpt lat="41.9297980" lon="-2.9324950">
        <ele>1215.6</ele>
        <time>2022-02-08T08:59:33Z</time>
      </trkpt>
      <trkpt lat="41.9297980" lon="-2.9326050">
        <ele>1214.9</ele>
        <time>2022-02-08T08:59:34Z</time>
      </trkpt>
      <trkpt lat="41.9298030" lon="-2.9327250">
        <ele>1214.0</ele>
        <time>2022-02-08T08:59:35Z</time>
      </trkpt>
      <trkpt lat="41.9298100" lon="-2.9328520">
        <ele>1213.1</ele>
        <time>2022-02-08T08:59:36Z</time>
      </trkpt>
      <trkpt lat="41.9298220" lon="-2.9329800">
        <ele>1212.0</ele>
        <time>2022-02-08T08:59:37Z</time>
      </trkpt>
      <trkpt lat="41.9298330" lon="-2.9331180">
        <ele>1211.0</ele>
        <time>2022-02-08T08:59:38Z</time>
      </trkpt>
      <trkpt lat="41.9298480" lon="-2.9332500">
        <ele>1210.0</ele>
        <time>2022-02-08T08:59:39Z</time>
      </trkpt>
      <trkpt lat="41.9298670" lon="-2.9333650">
        <ele>1209.3</ele>
        <time>2022-02-08T08:59:40Z</time>
      </trkpt>
      <trkpt lat="41.9298780" lon="-2.9334720">
        <ele>1208.7</ele>
        <time>2022-02-08T08:59:41Z</time>
      </trkpt>
      <trkpt lat="41.9298800" lon="-2.9335770">
        <ele>1208.2</ele>
        <time>2022-02-08T08:59:42Z</time>
      </trkpt>
      <trkpt lat="41.9298770" lon="-2.9336770">
        <ele>1207.8</ele>
        <time>2022-02-08T08:59:43Z</time>
      </trkpt>
      <trkpt lat="41.9298600" lon="-2.9337550">
        <ele>1207.5</ele>
        <time>2022-02-08T08:59:44Z</time>
      </trkpt>
      <trkpt lat="41.9298300" lon="-2.9338220">
        <ele>1207.2</ele>
        <time>2022-02-08T08:59:45Z</time>
      </trkpt>
      <trkpt lat="41.9297980" lon="-2.9338780">
        <ele>1207.1</ele>
        <time>2022-02-08T08:59:46Z</time>
      </trkpt>
      <trkpt lat="41.9297550" lon="-2.9339280">
        <ele>1206.9</ele>
        <time>2022-02-08T08:59:47Z</time>
      </trkpt>
      <trkpt lat="41.9297020" lon="-2.9339720">
        <ele>1206.8</ele>
        <time>2022-02-08T08:59:48Z</time>
      </trkpt>
      <trkpt lat="41.9296500" lon="-2.9340080">
        <ele>1206.8</ele>
        <time>2022-02-08T08:59:49Z</time>
      </trkpt>
      <trkpt lat="41.9295970" lon="-2.9340520">
        <ele>1206.8</ele>
        <time>2022-02-08T08:59:50Z</time>
      </trkpt>
      <trkpt lat="41.9295400" lon="-2.9340800">
        <ele>1206.8</ele>
        <time>2022-02-08T08:59:51Z</time>
      </trkpt>
      <trkpt lat="41.9294600" lon="-2.9340950">
        <ele>1206.8</ele>
        <time>2022-02-08T08:59:52Z</time>
      </trkpt>
      <trkpt lat="41.9293970" lon="-2.9341030">
        <ele>1206.8</ele>
        <time>2022-02-08T08:59:53Z</time>
      </trkpt>
      <trkpt lat="41.9293420" lon="-2.9341270">
        <ele>1206.8</ele>
        <time>2022-02-08T08:59:54Z</time>
      </trkpt>
      <trkpt lat="41.9292900" lon="-2.9341520">
        <ele>1206.8</ele>
        <time>2022-02-08T08:59:55Z</time>
      </trkpt>
      <trkpt lat="41.9292400" lon="-2.9341770">
        <ele>1206.8</ele>
        <time>2022-02-08T08:59:56Z</time>
      </trkpt>
      <trkpt lat="41.9291920" lon="-2.9342000">
        <ele>1206.9</ele>
        <time>2022-02-08T08:59:57Z</time>
      </trkpt>
      <trkpt lat="41.9291470" lon="-2.9342230">
        <ele>1207.0</ele>
        <time>2022-02-08T08:59:58Z</time>
      </trkpt>
      <trkpt lat="41.9291020" lon="-2.9342480">
        <ele>1207.0</ele>
        <time>2022-02-08T08:59:59Z</time>
      </trkpt>
      <trkpt lat="41.9290580" lon="-2.9342730">
        <ele>1207.1</ele>
        <time>2022-02-08T09:00:00Z</time>
      </trkpt>
      <trkpt lat="41.9290150" lon="-2.9342950">
        <ele>1207.2</ele>
        <time>2022-02-08T09:00:01Z</time>
      </trkpt>
      <trkpt lat="41.9289750" lon="-2.9343230">
        <ele>1207.3</ele>
        <time>2022-02-08T09:00:02Z</time>
      </trkpt>
      <trkpt lat="41.9289380" lon="-2.9343430">
        <ele>1207.4</ele>
        <time>2022-02-08T09:00:03Z</time>
      </trkpt>
      <trkpt lat="41.9288980" lon="-2.9343670">
        <ele>1207.5</ele>
        <time>2022-02-08T09:00:04Z</time>
      </trkpt>
      <trkpt lat="41.9288600" lon="-2.9343870">
        <ele>1207.6</ele>
        <time>2022-02-08T09:00:05Z</time>
      </trkpt>
      <trkpt lat="41.9288220" lon="-2.9344080">
        <ele>1207.7</ele>
        <time>2022-02-08T09:00:06Z</time>
      </trkpt>
      <trkpt lat="41.9287830" lon="-2.9344330">
        <ele>1207.7</ele>
        <time>2022-02-08T09:00:07Z</time>
      </trkpt>
      <trkpt lat="41.9287480" lon="-2.9344620">
        <ele>1207.8</ele>
        <time>2022-02-08T09:00:08Z</time>
      </trkpt>
      <trkpt lat="41.9287200" lon="-2.9344880">
        <ele>1207.9</ele>
        <time>2022-02-08T09:00:09Z</time>
      </trkpt>
      <trkpt lat="41.9286900" lon="-2.9345170">
        <ele>1208.0</ele>
        <time>2022-02-08T09:00:10Z</time>
      </trkpt>
      <trkpt lat="41.9286670" lon="-2.9345530">
        <ele>1208.1</ele>
        <time>2022-02-08T09:00:11Z</time>
      </trkpt>
      <trkpt lat="41.9286430" lon="-2.9345870">
        <ele>1208.1</ele>
        <time>2022-02-08T09:00:12Z</time>
      </trkpt>
      <trkpt lat="41.9286220" lon="-2.9346230">
        <ele>1208.2</ele>
        <time>2022-02-08T09:00:13Z</time>
      </trkpt>
      <trkpt lat="41.9285970" lon="-2.9346580">
        <ele>1208.3</ele>
        <time>2022-02-08T09:00:14Z</time>
      </trkpt>
      <trkpt lat="41.9285720" lon="-2.9346950">
        <ele>1208.3</ele>
        <time>2022-02-08T09:00:15Z</time>
      </trkpt>
      <trkpt lat="41.9285480" lon="-2.9347320">
        <ele>1208.4</ele>
        <time>2022-02-08T09:00:16Z</time>
      </trkpt>
      <trkpt lat="41.9285270" lon="-2.9347700">
        <ele>1208.5</ele>
        <time>2022-02-08T09:00:17Z</time>
      </trkpt>
      <trkpt lat="41.9285030" lon="-2.9348070">
        <ele>1208.6</ele>
        <time>2022-02-08T09:00:18Z</time>
      </trkpt>
      <trkpt lat="41.9284820" lon="-2.9348480">
        <ele>1208.6</ele>
        <time>2022-02-08T09:00:19Z</time>
      </trkpt>
      <trkpt lat="41.9284620" lon="-2.9348950">
        <ele>1208.7</ele>
        <time>2022-02-08T09:00:20Z</time>
      </trkpt>
      <trkpt lat="41.9284420" lon="-2.9349400">
        <ele>1208.8</ele>
        <time>2022-02-08T09:00:21Z</time>
      </trkpt>
      <trkpt lat="41.9284230" lon="-2.9349850">
        <ele>1208.9</ele>
        <time>2022-02-08T09:00:22Z</time>
      </trkpt>
      <trkpt lat="41.9284020" lon="-2.9350270">
        <ele>1209.0</ele>
        <time>2022-02-08T09:00:23Z</time>
      </trkpt>
      <trkpt lat="41.9283770" lon="-2.9350630">
        <ele>1209.1</ele>
        <time>2022-02-08T09:00:24Z</time>
      </trkpt>
      <trkpt lat="41.9283500" lon="-2.9351000">
        <ele>1209.1</ele>
        <time>2022-02-08T09:00:25Z</time>
      </trkpt>
      <trkpt lat="41.9283250" lon="-2.9351350">
        <ele>1209.2</ele>
        <time>2022-02-08T09:00:26Z</time>
      </trkpt>
      <trkpt lat="41.9283020" lon="-2.9351650">
        <ele>1209.3</ele>
        <time>2022-02-08T09:00:27Z</time>
      </trkpt>
      <trkpt lat="41.9282750" lon="-2.9351980">
        <ele>1209.4</ele>
        <time>2022-02-08T09:00:28Z</time>
      </trkpt>
      <trkpt lat="41.9282470" lon="-2.9352300">
        <ele>1209.4</ele>
        <time>2022-02-08T09:00:29Z</time>
      </trkpt>
      <trkpt lat="41.9282150" lon="-2.9352580">
        <ele>1209.5</ele>
        <time>2022-02-08T09:00:30Z</time>
      </trkpt>
      <trkpt lat="41.9281850" lon="-2.9352800">
        <ele>1209.5</ele>
        <time>2022-02-08T09:00:31Z</time>
      </trkpt>
      <trkpt lat="41.9281520" lon="-2.9352920">
        <ele>1209.6</ele>
        <time>2022-02-08T09:00:32Z</time>
      </trkpt>
      <trkpt lat="41.9281180" lon="-2.9352920">
        <ele>1209.6</ele>
        <time>2022-02-08T09:00:33Z</time>
      </trkpt>
      <trkpt lat="41.9280830" lon="-2.9352830">
        <ele>1209.6</ele>
        <time>2022-02-08T09:00:34Z</time>
      </trkpt>
      <trkpt lat="41.9280470" lon="-2.9352700">
        <ele>1209.6</ele>
        <time>2022-02-08T09:00:35Z</time>
      </trkpt>
      <trkpt lat="41.9280080" lon="-2.9352530">
        <ele>1209.6</ele>
        <time>2022-02-08T09:00:36Z</time>
      </trkpt>
      <trkpt lat="41.9279700" lon="-2.9352350">
        <ele>1209.7</ele>
        <time>2022-02-08T09:00:37Z</time>
      </trkpt>
      <trkpt lat="41.9279300" lon="-2.9352220">
        <ele>1209.8</ele>
        <time>2022-02-08T09:00:38Z</time>
      </trkpt>
      <trkpt lat="41.9278900" lon="-2.9352080">
        <ele>1209.8</ele>
        <time>2022-02-08T09:00:39Z</time>
      </trkpt>
      <trkpt lat="41.9278500" lon="-2.9351950">
        <ele>1209.9</ele>
        <time>2022-02-08T09:00:40Z</time>
      </trkpt>
      <trkpt lat="41.9278120" lon="-2.9351870">
        <ele>1209.9</ele>
        <time>2022-02-08T09:00:41Z</time>
      </trkpt>
      <trkpt lat="41.9277730" lon="-2.9351730">
        <ele>1210.0</ele>
        <time>2022-02-08T09:00:42Z</time>
      </trkpt>
      <trkpt lat="41.9277370" lon="-2.9351570">
        <ele>1210.0</ele>
        <time>2022-02-08T09:00:43Z</time>
      </trkpt>
      <trkpt lat="41.9277030" lon="-2.9351350">
        <ele>1210.0</ele>
        <time>2022-02-08T09:00:44Z</time>
      </trkpt>
      <trkpt lat="41.9276730" lon="-2.9351100">
        <ele>1210.0</ele>
        <time>2022-02-08T09:00:45Z</time>
      </trkpt>
      <trkpt lat="41.9276420" lon="-2.9350820">
        <ele>1210.0</ele>
        <time>2022-02-08T09:00:46Z</time>
      </trkpt>
      <trkpt lat="41.9276120" lon="-2.9350550">
        <ele>1210.0</ele>
        <time>2022-02-08T09:00:47Z</time>
      </trkpt>
      <trkpt lat="41.9275830" lon="-2.9350250">
        <ele>1210.0</ele>
        <time>2022-02-08T09:00:48Z</time>
      </trkpt>
      <trkpt lat="41.9275550" lon="-2.9349970">
        <ele>1210.0</ele>
        <time>2022-02-08T09:00:49Z</time>
      </trkpt>
      <trkpt lat="41.9275300" lon="-2.9349580">
        <ele>1210.1</ele>
        <time>2022-02-08T09:00:50Z</time>
      </trkpt>
      <trkpt lat="41.9275080" lon="-2.9349200">
        <ele>1210.1</ele>
        <time>2022-02-08T09:00:51Z</time>
      </trkpt>
      <trkpt lat="41.9274900" lon="-2.9348800">
        <ele>1210.1</ele>
        <time>2022-02-08T09:00:52Z</time>
      </trkpt>
      <trkpt lat="41.9274650" lon="-2.9348430">
        <ele>1210.1</ele>
        <time>2022-02-08T09:00:53Z</time>
      </trkpt>
      <trkpt lat="41.9274380" lon="-2.9348100">
        <ele>1210.1</ele>
        <time>2022-02-08T09:00:54Z</time>
      </trkpt>
      <trkpt lat="41.9274120" lon="-2.9347780">
        <ele>1210.0</ele>
        <time>2022-02-08T09:00:55Z</time>
      </trkpt>
      <trkpt lat="41.9273820" lon="-2.9347530">
        <ele>1210.0</ele>
        <time>2022-02-08T09:00:56Z</time>
      </trkpt>
      <trkpt lat="41.9273500" lon="-2.9347270">
        <ele>1210.0</ele>
        <time>2022-02-08T09:00:57Z</time>
      </trkpt>
      <trkpt lat="41.9273180" lon="-2.9347000">
        <ele>1210.0</ele>
        <time>2022-02-08T09:00:58Z</time>
      </trkpt>
      <trkpt lat="41.9272870" lon="-2.9346750">
        <ele>1209.9</ele>
        <time>2022-02-08T09:00:59Z</time>
      </trkpt>
      <trkpt lat="41.9272570" lon="-2.9346500">
        <ele>1209.9</ele>
        <time>2022-02-08T09:01:00Z</time>
      </trkpt>
      <trkpt lat="41.9272250" lon="-2.9346250">
        <ele>1209.9</ele>
        <time>2022-02-08T09:01:01Z</time>
      </trkpt>
      <trkpt lat="41.9271950" lon="-2.9345970">
        <ele>1209.9</ele>
        <time>2022-02-08T09:01:02Z</time>
      </trkpt>
      <trkpt lat="41.9271650" lon="-2.9345620">
        <ele>1209.9</ele>
        <time>2022-02-08T09:01:03Z</time>
      </trkpt>
      <trkpt lat="41.9271350" lon="-2.9345250">
        <ele>1209.9</ele>
        <time>2022-02-08T09:01:04Z</time>
      </trkpt>
      <trkpt lat="41.9271030" lon="-2.9344870">
        <ele>1209.9</ele>
        <time>2022-02-08T09:01:05Z</time>
      </trkpt>
      <trkpt lat="41.9270730" lon="-2.9344450">
        <ele>1210.0</ele>
        <time>2022-02-08T09:01:06Z</time>
      </trkpt>
      <trkpt lat="41.9270450" lon="-2.9344050">
        <ele>1210.0</ele>
        <time>2022-02-08T09:01:07Z</time>
      </trkpt>
      <trkpt lat="41.9270170" lon="-2.9343630">
        <ele>1210.1</ele>
        <time>2022-02-08T09:01:08Z</time>
      </trkpt>
      <trkpt lat="41.9269900" lon="-2.9343250">
        <ele>1210.2</ele>
        <time>2022-02-08T09:01:09Z</time>
      </trkpt>
      <trkpt lat="41.9269620" lon="-2.9342870">
        <ele>1210.2</ele>
        <time>2022-02-08T09:01:10Z</time>
      </trkpt>
      <trkpt lat="41.9269320" lon="-2.9342530">
        <ele>1210.3</ele>
        <time>2022-02-08T09:01:11Z</time>
      </trkpt>
      <trkpt lat="41.9269020" lon="-2.9342200">
        <ele>1210.4</ele>
        <time>2022-02-08T09:01:12Z</time>
      </trkpt>
      <trkpt lat="41.9268770" lon="-2.9341850">
        <ele>1210.5</ele>
        <time>2022-02-08T09:01:13Z</time>
      </trkpt>
      <trkpt lat="41.9268530" lon="-2.9341470">
        <ele>1210.5</ele>
        <time>2022-02-08T09:01:14Z</time>
      </trkpt>
      <trkpt lat="41.9268270" lon="-2.9341100">
        <ele>1210.6</ele>
        <time>2022-02-08T09:01:15Z</time>
      </trkpt>
      <trkpt lat="41.9267970" lon="-2.9340780">
        <ele>1210.7</ele>
        <time>2022-02-08T09:01:16Z</time>
      </trkpt>
      <trkpt lat="41.9267680" lon="-2.9340470">
        <ele>1210.8</ele>
        <time>2022-02-08T09:01:17Z</time>
      </trkpt>
      <trkpt lat="41.9267420" lon="-2.9340150">
        <ele>1210.8</ele>
        <time>2022-02-08T09:01:18Z</time>
      </trkpt>
      <trkpt lat="41.9267150" lon="-2.9339850">
        <ele>1210.9</ele>
        <time>2022-02-08T09:01:19Z</time>
      </trkpt>
      <trkpt lat="41.9266880" lon="-2.9339550">
        <ele>1211.0</ele>
        <time>2022-02-08T09:01:20Z</time>
      </trkpt>
      <trkpt lat="41.9266600" lon="-2.9339220">
        <ele>1211.1</ele>
        <time>2022-02-08T09:01:21Z</time>
      </trkpt>
      <trkpt lat="41.9266300" lon="-2.9338870">
        <ele>1211.2</ele>
        <time>2022-02-08T09:01:22Z</time>
      </trkpt>
      <trkpt lat="41.9266000" lon="-2.9338530">
        <ele>1211.2</ele>
        <time>2022-02-08T09:01:23Z</time>
      </trkpt>
      <trkpt lat="41.9265680" lon="-2.9338230">
        <ele>1211.4</ele>
        <time>2022-02-08T09:01:24Z</time>
      </trkpt>
      <trkpt lat="41.9265400" lon="-2.9337920">
        <ele>1211.5</ele>
        <time>2022-02-08T09:01:25Z</time>
      </trkpt>
      <trkpt lat="41.9265100" lon="-2.9337630">
        <ele>1211.6</ele>
        <time>2022-02-08T09:01:26Z</time>
      </trkpt>
      <trkpt lat="41.9264820" lon="-2.9337370">
        <ele>1211.7</ele>
        <time>2022-02-08T09:01:27Z</time>
      </trkpt>
      <trkpt lat="41.9264570" lon="-2.9337130">
        <ele>1211.9</ele>
        <time>2022-02-08T09:01:28Z</time>
      </trkpt>
      <trkpt lat="41.9264320" lon="-2.9336900">
        <ele>1212.0</ele>
        <time>2022-02-08T09:01:29Z</time>
      </trkpt>
      <trkpt lat="41.9264100" lon="-2.9336600">
        <ele>1212.1</ele>
        <time>2022-02-08T09:01:30Z</time>
      </trkpt>
      <trkpt lat="41.9263900" lon="-2.9336320">
        <ele>1212.2</ele>
        <time>2022-02-08T09:01:31Z</time>
      </trkpt>
      <trkpt lat="41.9263700" lon="-2.9336070">
        <ele>1212.3</ele>
        <time>2022-02-08T09:01:32Z</time>
      </trkpt>
      <trkpt lat="41.9263480" lon="-2.9335830">
        <ele>1212.4</ele>
        <time>2022-02-08T09:01:33Z</time>
      </trkpt>
      <trkpt lat="41.9263250" lon="-2.9335520">
        <ele>1212.5</ele>
        <time>2022-02-08T09:01:34Z</time>
      </trkpt>
      <trkpt lat="41.9263000" lon="-2.9335220">
        <ele>1212.6</ele>
        <time>2022-02-08T09:01:35Z</time>
      </trkpt>
      <trkpt lat="41.9262730" lon="-2.9334880">
        <ele>1212.8</ele>
        <time>2022-02-08T09:01:36Z</time>
      </trkpt>
      <trkpt lat="41.9262450" lon="-2.9334570">
        <ele>1213.0</ele>
        <time>2022-02-08T09:01:37Z</time>
      </trkpt>
      <trkpt lat="41.9262170" lon="-2.9334300">
        <ele>1213.1</ele>
        <time>2022-02-08T09:01:38Z</time>
      </trkpt>
      <trkpt lat="41.9261880" lon="-2.9334050">
        <ele>1213.3</ele>
        <time>2022-02-08T09:01:39Z</time>
      </trkpt>
      <trkpt lat="41.9261600" lon="-2.9333780">
        <ele>1213.4</ele>
        <time>2022-02-08T09:01:40Z</time>
      </trkpt>
      <trkpt lat="41.9261330" lon="-2.9333550">
        <ele>1213.6</ele>
        <time>2022-02-08T09:01:41Z</time>
      </trkpt>
      <trkpt lat="41.9261080" lon="-2.9333330">
        <ele>1213.7</ele>
        <time>2022-02-08T09:01:42Z</time>
      </trkpt>
      <trkpt lat="41.9260820" lon="-2.9333080">
        <ele>1213.9</ele>
        <time>2022-02-08T09:01:43Z</time>
      </trkpt>
      <trkpt lat="41.9260530" lon="-2.9332870">
        <ele>1214.0</ele>
        <time>2022-02-08T09:01:44Z</time>
      </trkpt>
      <trkpt lat="41.9260250" lon="-2.9332650">
        <ele>1214.2</ele>
        <time>2022-02-08T09:01:45Z</time>
      </trkpt>
      <trkpt lat="41.9259950" lon="-2.9332380">
        <ele>1214.3</ele>
        <time>2022-02-08T09:01:46Z</time>
      </trkpt>
      <trkpt lat="41.9259650" lon="-2.9332130">
        <ele>1214.4</ele>
        <time>2022-02-08T09:01:47Z</time>
      </trkpt>
      <trkpt lat="41.9259350" lon="-2.9331950">
        <ele>1214.5</ele>
        <time>2022-02-08T09:01:48Z</time>
      </trkpt>
      <trkpt lat="41.9259050" lon="-2.9331750">
        <ele>1214.6</ele>
        <time>2022-02-08T09:01:49Z</time>
      </trkpt>
      <trkpt lat="41.9258750" lon="-2.9331600">
        <ele>1214.6</ele>
        <time>2022-02-08T09:01:50Z</time>
      </trkpt>
      <trkpt lat="41.9258480" lon="-2.9331480">
        <ele>1214.7</ele>
        <time>2022-02-08T09:01:51Z</time>
      </trkpt>
      <trkpt lat="41.9258200" lon="-2.9331330">
        <ele>1214.8</ele>
        <time>2022-02-08T09:01:52Z</time>
      </trkpt>
      <trkpt lat="41.9257920" lon="-2.9331150">
        <ele>1214.8</ele>
        <time>2022-02-08T09:01:53Z</time>
      </trkpt>
      <trkpt lat="41.9257620" lon="-2.9330930">
        <ele>1214.9</ele>
        <time>2022-02-08T09:01:54Z</time>
      </trkpt>
      <trkpt lat="41.9257320" lon="-2.9330700">
        <ele>1215.0</ele>
        <time>2022-02-08T09:01:55Z</time>
      </trkpt>
      <trkpt lat="41.9256980" lon="-2.9330500">
        <ele>1215.0</ele>
        <time>2022-02-08T09:01:56Z</time>
      </trkpt>
      <trkpt lat="41.9256670" lon="-2.9330300">
        <ele>1215.1</ele>
        <time>2022-02-08T09:01:57Z</time>
      </trkpt>
      <trkpt lat="41.9256370" lon="-2.9330070">
        <ele>1215.1</ele>
        <time>2022-02-08T09:01:58Z</time>
      </trkpt>
      <trkpt lat="41.9256120" lon="-2.9329850">
        <ele>1215.1</ele>
        <time>2022-02-08T09:01:59Z</time>
      </trkpt>
      <trkpt lat="41.9255850" lon="-2.9329600">
        <ele>1215.1</ele>
        <time>2022-02-08T09:02:00Z</time>
      </trkpt>
      <trkpt lat="41.9255580" lon="-2.9329330">
        <ele>1215.1</ele>
        <time>2022-02-08T09:02:01Z</time>
      </trkpt>
      <trkpt lat="41.9255300" lon="-2.9329020">
        <ele>1215.1</ele>
        <time>2022-02-08T09:02:02Z</time>
      </trkpt>
      <trkpt lat="41.9254980" lon="-2.9328680">
        <ele>1215.1</ele>
        <time>2022-02-08T09:02:03Z</time>
      </trkpt>
      <trkpt lat="41.9254620" lon="-2.9328350">
        <ele>1215.1</ele>
        <time>2022-02-08T09:02:04Z</time>
      </trkpt>
      <trkpt lat="41.9254250" lon="-2.9328000">
        <ele>1215.0</ele>
        <time>2022-02-08T09:02:05Z</time>
      </trkpt>
      <trkpt lat="41.9253870" lon="-2.9327650">
        <ele>1215.0</ele>
        <time>2022-02-08T09:02:06Z</time>
      </trkpt>
      <trkpt lat="41.9253500" lon="-2.9327270">
        <ele>1214.9</ele>
        <time>2022-02-08T09:02:07Z</time>
      </trkpt>
      <trkpt lat="41.9253150" lon="-2.9326820">
        <ele>1214.9</ele>
        <time>2022-02-08T09:02:08Z</time>
      </trkpt>
      <trkpt lat="41.9252800" lon="-2.9326380">
        <ele>1214.9</ele>
        <time>2022-02-08T09:02:09Z</time>
      </trkpt>
      <trkpt lat="41.9252530" lon="-2.9326030">
        <ele>1215.0</ele>
        <time>2022-02-08T09:02:10Z</time>
      </trkpt>
      <trkpt lat="41.9252170" lon="-2.9325480">
        <ele>1215.0</ele>
        <time>2022-02-08T09:02:11Z</time>
      </trkpt>
      <trkpt lat="41.9251850" lon="-2.9325030">
        <ele>1215.0</ele>
        <time>2022-02-08T09:02:12Z</time>
      </trkpt>
      <trkpt lat="41.9251550" lon="-2.9324570">
        <ele>1215.0</ele>
        <time>2022-02-08T09:02:13Z</time>
      </trkpt>
      <trkpt lat="41.9251220" lon="-2.9324080">
        <ele>1215.0</ele>
        <time>2022-02-08T09:02:14Z</time>
      </trkpt>
      <trkpt lat="41.9250880" lon="-2.9323650">
        <ele>1215.1</ele>
        <time>2022-02-08T09:02:15Z</time>
      </trkpt>
      <trkpt lat="41.9250530" lon="-2.9323280">
        <ele>1215.1</ele>
        <time>2022-02-08T09:02:16Z</time>
      </trkpt>
      <trkpt lat="41.9250220" lon="-2.9322880">
        <ele>1215.1</ele>
        <time>2022-02-08T09:02:17Z</time>
      </trkpt>
      <trkpt lat="41.9249950" lon="-2.9322480">
        <ele>1215.1</ele>
        <time>2022-02-08T09:02:18Z</time>
      </trkpt>
      <trkpt lat="41.9249700" lon="-2.9322070">
        <ele>1215.2</ele>
        <time>2022-02-08T09:02:19Z</time>
      </trkpt>
      <trkpt lat="41.9249420" lon="-2.9321680">
        <ele>1215.2</ele>
        <time>2022-02-08T09:02:20Z</time>
      </trkpt>
      <trkpt lat="41.9249150" lon="-2.9321300">
        <ele>1215.3</ele>
        <time>2022-02-08T09:02:21Z</time>
      </trkpt>
      <trkpt lat="41.9248920" lon="-2.9320880">
        <ele>1215.3</ele>
        <time>2022-02-08T09:02:22Z</time>
      </trkpt>
      <trkpt lat="41.9248730" lon="-2.9320450">
        <ele>1215.4</ele>
        <time>2022-02-08T09:02:23Z</time>
      </trkpt>
      <trkpt lat="41.9248550" lon="-2.9320030">
        <ele>1215.4</ele>
        <time>2022-02-08T09:02:24Z</time>
      </trkpt>
      <trkpt lat="41.9248320" lon="-2.9319650">
        <ele>1215.5</ele>
        <time>2022-02-08T09:02:25Z</time>
      </trkpt>
      <trkpt lat="41.9248070" lon="-2.9319270">
        <ele>1215.6</ele>
        <time>2022-02-08T09:02:26Z</time>
      </trkpt>
      <trkpt lat="41.9247800" lon="-2.9318930">
        <ele>1215.7</ele>
        <time>2022-02-08T09:02:27Z</time>
      </trkpt>
      <trkpt lat="41.9247570" lon="-2.9318630">
        <ele>1215.7</ele>
        <time>2022-02-08T09:02:28Z</time>
      </trkpt>
      <trkpt lat="41.9247320" lon="-2.9318330">
        <ele>1215.8</ele>
        <time>2022-02-08T09:02:29Z</time>
      </trkpt>
      <trkpt lat="41.9247080" lon="-2.9318080">
        <ele>1215.9</ele>
        <time>2022-02-08T09:02:30Z</time>
      </trkpt>
      <trkpt lat="41.9246870" lon="-2.9317830">
        <ele>1216.0</ele>
        <time>2022-02-08T09:02:31Z</time>
      </trkpt>
      <trkpt lat="41.9246620" lon="-2.9317600">
        <ele>1216.1</ele>
        <time>2022-02-08T09:02:32Z</time>
      </trkpt>
      <trkpt lat="41.9246370" lon="-2.9317350">
        <ele>1216.1</ele>
        <time>2022-02-08T09:02:33Z</time>
      </trkpt>
      <trkpt lat="41.9246080" lon="-2.9317100">
        <ele>1216.2</ele>
        <time>2022-02-08T09:02:34Z</time>
      </trkpt>
      <trkpt lat="41.9245800" lon="-2.9316930">
        <ele>1216.3</ele>
        <time>2022-02-08T09:02:35Z</time>
      </trkpt>
      <trkpt lat="41.9245520" lon="-2.9316820">
        <ele>1216.4</ele>
        <time>2022-02-08T09:02:36Z</time>
      </trkpt>
      <trkpt lat="41.9245200" lon="-2.9316680">
        <ele>1216.4</ele>
        <time>2022-02-08T09:02:37Z</time>
      </trkpt>
      <trkpt lat="41.9244920" lon="-2.9316550">
        <ele>1216.5</ele>
        <time>2022-02-08T09:02:38Z</time>
      </trkpt>
      <trkpt lat="41.9244620" lon="-2.9316480">
        <ele>1216.6</ele>
        <time>2022-02-08T09:02:39Z</time>
      </trkpt>
      <trkpt lat="41.9244300" lon="-2.9316430">
        <ele>1216.6</ele>
        <time>2022-02-08T09:02:40Z</time>
      </trkpt>
      <trkpt lat="41.9244000" lon="-2.9316380">
        <ele>1216.7</ele>
        <time>2022-02-08T09:02:41Z</time>
      </trkpt>
      <trkpt lat="41.9243700" lon="-2.9316350">
        <ele>1216.7</ele>
        <time>2022-02-08T09:02:42Z</time>
      </trkpt>
      <trkpt lat="41.9243400" lon="-2.9316280">
        <ele>1216.8</ele>
        <time>2022-02-08T09:02:43Z</time>
      </trkpt>
      <trkpt lat="41.9243120" lon="-2.9316200">
        <ele>1216.8</ele>
        <time>2022-02-08T09:02:44Z</time>
      </trkpt>
      <trkpt lat="41.9242770" lon="-2.9316080">
        <ele>1216.9</ele>
        <time>2022-02-08T09:02:45Z</time>
      </trkpt>
      <trkpt lat="41.9242450" lon="-2.9316000">
        <ele>1216.9</ele>
        <time>2022-02-08T09:02:46Z</time>
      </trkpt>
      <trkpt lat="41.9242120" lon="-2.9315930">
        <ele>1216.9</ele>
        <time>2022-02-08T09:02:47Z</time>
      </trkpt>
      <trkpt lat="41.9241820" lon="-2.9315880">
        <ele>1217.0</ele>
        <time>2022-02-08T09:02:48Z</time>
      </trkpt>
      <trkpt lat="41.9241520" lon="-2.9315820">
        <ele>1217.0</ele>
        <time>2022-02-08T09:02:49Z</time>
      </trkpt>
      <trkpt lat="41.9241170" lon="-2.9315730">
        <ele>1217.0</ele>
        <time>2022-02-08T09:02:50Z</time>
      </trkpt>
      <trkpt lat="41.9240850" lon="-2.9315600">
        <ele>1217.0</ele>
        <time>2022-02-08T09:02:51Z</time>
      </trkpt>
      <trkpt lat="41.9240530" lon="-2.9315420">
        <ele>1217.0</ele>
        <time>2022-02-08T09:02:52Z</time>
      </trkpt>
      <trkpt lat="41.9240270" lon="-2.9315150">
        <ele>1217.0</ele>
        <time>2022-02-08T09:02:53Z</time>
      </trkpt>
      <trkpt lat="41.9240020" lon="-2.9314830">
        <ele>1217.0</ele>
        <time>2022-02-08T09:02:54Z</time>
      </trkpt>
      <trkpt lat="41.9239830" lon="-2.9314570">
        <ele>1217.0</ele>
        <time>2022-02-08T09:02:55Z</time>
      </trkpt>
      <trkpt lat="41.9239550" lon="-2.9314150">
        <ele>1217.0</ele>
        <time>2022-02-08T09:02:56Z</time>
      </trkpt>
      <trkpt lat="41.9239300" lon="-2.9313780">
        <ele>1216.9</ele>
        <time>2022-02-08T09:02:57Z</time>
      </trkpt>
      <trkpt lat="41.9239030" lon="-2.9313430">
        <ele>1216.9</ele>
        <time>2022-02-08T09:02:58Z</time>
      </trkpt>
      <trkpt lat="41.9238720" lon="-2.9313080">
        <ele>1216.8</ele>
        <time>2022-02-08T09:02:59Z</time>
      </trkpt>
      <trkpt lat="41.9238400" lon="-2.9312870">
        <ele>1216.8</ele>
        <time>2022-02-08T09:03:00Z</time>
      </trkpt>
      <trkpt lat="41.9238080" lon="-2.9312720">
        <ele>1216.7</ele>
        <time>2022-02-08T09:03:01Z</time>
      </trkpt>
      <trkpt lat="41.9237730" lon="-2.9312550">
        <ele>1216.6</ele>
        <time>2022-02-08T09:03:02Z</time>
      </trkpt>
      <trkpt lat="41.9237350" lon="-2.9312280">
        <ele>1216.5</ele>
        <time>2022-02-08T09:03:03Z</time>
      </trkpt>
      <trkpt lat="41.9236970" lon="-2.9312030">
        <ele>1216.3</ele>
        <time>2022-02-08T09:03:04Z</time>
      </trkpt>
      <trkpt lat="41.9236570" lon="-2.9311800">
        <ele>1216.1</ele>
        <time>2022-02-08T09:03:05Z</time>
      </trkpt>
      <trkpt lat="41.9236180" lon="-2.9311530">
        <ele>1215.8</ele>
        <time>2022-02-08T09:03:06Z</time>
      </trkpt>
      <trkpt lat="41.9235830" lon="-2.9311230">
        <ele>1215.4</ele>
        <time>2022-02-08T09:03:07Z</time>
      </trkpt>
      <trkpt lat="41.9235500" lon="-2.9310950">
        <ele>1215.0</ele>
        <time>2022-02-08T09:03:08Z</time>
      </trkpt>
      <trkpt lat="41.9235230" lon="-2.9310750">
        <ele>1214.7</ele>
        <time>2022-02-08T09:03:09Z</time>
      </trkpt>
      <trkpt lat="41.9234950" lon="-2.9310480">
        <ele>1214.3</ele>
        <time>2022-02-08T09:03:10Z</time>
      </trkpt>
      <trkpt lat="41.9234620" lon="-2.9310170">
        <ele>1213.9</ele>
        <time>2022-02-08T09:03:11Z</time>
      </trkpt>
      <trkpt lat="41.9234280" lon="-2.9309850">
        <ele>1213.4</ele>
        <time>2022-02-08T09:03:12Z</time>
      </trkpt>
      <trkpt lat="41.9234080" lon="-2.9309480">
        <ele>1213.0</ele>
        <time>2022-02-08T09:03:13Z</time>
      </trkpt>
      <trkpt lat="41.9234000" lon="-2.9309100">
        <ele>1212.3</ele>
        <time>2022-02-08T09:03:14Z</time>
      </trkpt>
      <trkpt lat="41.9234100" lon="-2.9308700">
        <ele>1211.9</ele>
        <time>2022-02-08T09:03:15Z</time>
      </trkpt>
      <trkpt lat="41.9234370" lon="-2.9308330">
        <ele>1211.3</ele>
        <time>2022-02-08T09:03:16Z</time>
      </trkpt>
      <trkpt lat="41.9234770" lon="-2.9307970">
        <ele>1210.7</ele>
        <time>2022-02-08T09:03:17Z</time>
      </trkpt>
      <trkpt lat="41.9235200" lon="-2.9307580">
        <ele>1210.0</ele>
        <time>2022-02-08T09:03:18Z</time>
      </trkpt>
      <trkpt lat="41.9235720" lon="-2.9307250">
        <ele>1209.4</ele>
        <time>2022-02-08T09:03:19Z</time>
      </trkpt>
      <trkpt lat="41.9236270" lon="-2.9306980">
        <ele>1208.8</ele>
        <time>2022-02-08T09:03:20Z</time>
      </trkpt>
      <trkpt lat="41.9236830" lon="-2.9306820">
        <ele>1208.4</ele>
        <time>2022-02-08T09:03:21Z</time>
      </trkpt>
      <trkpt lat="41.9237550" lon="-2.9306720">
        <ele>1207.9</ele>
        <time>2022-02-08T09:03:22Z</time>
      </trkpt>
      <trkpt lat="41.9238230" lon="-2.9306620">
        <ele>1207.5</ele>
        <time>2022-02-08T09:03:23Z</time>
      </trkpt>
      <trkpt lat="41.9238830" lon="-2.9306570">
        <ele>1207.2</ele>
        <time>2022-02-08T09:03:24Z</time>
      </trkpt>
      <trkpt lat="41.9239430" lon="-2.9306480">
        <ele>1207.0</ele>
        <time>2022-02-08T09:03:25Z</time>
      </trkpt>
      <trkpt lat="41.9239900" lon="-2.9306370">
        <ele>1206.8</ele>
        <time>2022-02-08T09:03:26Z</time>
      </trkpt>
      <trkpt lat="41.9240250" lon="-2.9306180">
        <ele>1206.7</ele>
        <time>2022-02-08T09:03:27Z</time>
      </trkpt>
      <trkpt lat="41.9240550" lon="-2.9306030">
        <ele>1206.6</ele>
        <time>2022-02-08T09:03:28Z</time>
      </trkpt>
      <trkpt lat="41.9240780" lon="-2.9305850">
        <ele>1206.5</ele>
        <time>2022-02-08T09:03:29Z</time>
      </trkpt>
      <trkpt lat="41.9241020" lon="-2.9305680">
        <ele>1206.4</ele>
        <time>2022-02-08T09:03:30Z</time>
      </trkpt>
      <trkpt lat="41.9241280" lon="-2.9305500">
        <ele>1206.3</ele>
        <time>2022-02-08T09:03:31Z</time>
      </trkpt>
      <trkpt lat="41.9241620" lon="-2.9305220">
        <ele>1206.2</ele>
        <time>2022-02-08T09:03:32Z</time>
      </trkpt>
      <trkpt lat="41.9241950" lon="-2.9304870">
        <ele>1206.0</ele>
        <time>2022-02-08T09:03:33Z</time>
      </trkpt>
      <trkpt lat="41.9242370" lon="-2.9304630">
        <ele>1206.0</ele>
        <time>2022-02-08T09:03:34Z</time>
      </trkpt>
      <trkpt lat="41.9242780" lon="-2.9304430">
        <ele>1205.9</ele>
        <time>2022-02-08T09:03:35Z</time>
      </trkpt>
      <trkpt lat="41.9243200" lon="-2.9304370">
        <ele>1205.8</ele>
        <time>2022-02-08T09:03:36Z</time>
      </trkpt>
      <trkpt lat="41.9243620" lon="-2.9304350">
        <ele>1205.8</ele>
        <time>2022-02-08T09:03:37Z</time>
      </trkpt>
      <trkpt lat="41.9244020" lon="-2.9304320">
        <ele>1205.8</ele>
        <time>2022-02-08T09:03:38Z</time>
      </trkpt>
      <trkpt lat="41.9244400" lon="-2.9304270">
        <ele>1205.8</ele>
        <time>2022-02-08T09:03:39Z</time>
      </trkpt>
      <trkpt lat="41.9244770" lon="-2.9304200">
        <ele>1205.8</ele>
        <time>2022-02-08T09:03:40Z</time>
      </trkpt>
      <trkpt lat="41.9245120" lon="-2.9304130">
        <ele>1205.8</ele>
        <time>2022-02-08T09:03:41Z</time>
      </trkpt>
      <trkpt lat="41.9245470" lon="-2.9304100">
        <ele>1205.9</ele>
        <time>2022-02-08T09:03:42Z</time>
      </trkpt>
      <trkpt lat="41.9245800" lon="-2.9304070">
        <ele>1205.9</ele>
        <time>2022-02-08T09:03:43Z</time>
      </trkpt>
      <trkpt lat="41.9246100" lon="-2.9303980">
        <ele>1205.9</ele>
        <time>2022-02-08T09:03:44Z</time>
      </trkpt>
      <trkpt lat="41.9246330" lon="-2.9303850">
        <ele>1206.0</ele>
        <time>2022-02-08T09:03:45Z</time>
      </trkpt>
      <trkpt lat="41.9246530" lon="-2.9303700">
        <ele>1206.0</ele>
        <time>2022-02-08T09:03:46Z</time>
      </trkpt>
      <trkpt lat="41.9246700" lon="-2.9303550">
        <ele>1206.0</ele>
        <time>2022-02-08T09:03:47Z</time>
      </trkpt>
      <trkpt lat="41.9246850" lon="-2.9303380">
        <ele>1206.0</ele>
        <time>2022-02-08T09:03:48Z</time>
      </trkpt>
      <trkpt lat="41.9247000" lon="-2.9303180">
        <ele>1205.9</ele>
        <time>2022-02-08T09:03:49Z</time>
      </trkpt>
      <trkpt lat="41.9247170" lon="-2.9302920">
        <ele>1205.9</ele>
        <time>2022-02-08T09:03:50Z</time>
      </trkpt>
      <trkpt lat="41.9247320" lon="-2.9302550">
        <ele>1205.8</ele>
        <time>2022-02-08T09:03:51Z</time>
      </trkpt>
      <trkpt lat="41.9247500" lon="-2.9302120">
        <ele>1205.6</ele>
        <time>2022-02-08T09:03:52Z</time>
      </trkpt>
      <trkpt lat="41.9247730" lon="-2.9301670">
        <ele>1205.4</ele>
        <time>2022-02-08T09:03:53Z</time>
      </trkpt>
      <trkpt lat="41.9248000" lon="-2.9301180">
        <ele>1205.2</ele>
        <time>2022-02-08T09:03:54Z</time>
      </trkpt>
      <trkpt lat="41.9248320" lon="-2.9300670">
        <ele>1204.9</ele>
        <time>2022-02-08T09:03:55Z</time>
      </trkpt>
      <trkpt lat="41.9248680" lon="-2.9300150">
        <ele>1204.6</ele>
        <time>2022-02-08T09:03:56Z</time>
      </trkpt>
      <trkpt lat="41.9249070" lon="-2.9299570">
        <ele>1204.3</ele>
        <time>2022-02-08T09:03:57Z</time>
      </trkpt>
      <trkpt lat="41.9249500" lon="-2.9299000">
        <ele>1204.0</ele>
        <time>2022-02-08T09:03:58Z</time>
      </trkpt>
      <trkpt lat="41.9249980" lon="-2.9298480">
        <ele>1203.7</ele>
        <time>2022-02-08T09:03:59Z</time>
      </trkpt>
      <trkpt lat="41.9250480" lon="-2.9298050">
        <ele>1203.4</ele>
        <time>2022-02-08T09:04:00Z</time>
      </trkpt>
      <trkpt lat="41.9250980" lon="-2.9297630">
        <ele>1203.1</ele>
        <time>2022-02-08T09:04:01Z</time>
      </trkpt>
      <trkpt lat="41.9251480" lon="-2.9297230">
        <ele>1202.8</ele>
        <time>2022-02-08T09:04:02Z</time>
      </trkpt>
      <trkpt lat="41.9251930" lon="-2.9296850">
        <ele>1202.5</ele>
        <time>2022-02-08T09:04:03Z</time>
      </trkpt>
      <trkpt lat="41.9252380" lon="-2.9296450">
        <ele>1202.3</ele>
        <time>2022-02-08T09:04:04Z</time>
      </trkpt>
      <trkpt lat="41.9252850" lon="-2.9296070">
        <ele>1202.2</ele>
        <time>2022-02-08T09:04:05Z</time>
      </trkpt>
      <trkpt lat="41.9253300" lon="-2.9295670">
        <ele>1202.0</ele>
        <time>2022-02-08T09:04:06Z</time>
      </trkpt>
      <trkpt lat="41.9253730" lon="-2.9295270">
        <ele>1201.9</ele>
        <time>2022-02-08T09:04:07Z</time>
      </trkpt>
      <trkpt lat="41.9254170" lon="-2.9294920">
        <ele>1201.7</ele>
        <time>2022-02-08T09:04:08Z</time>
      </trkpt>
      <trkpt lat="41.9254580" lon="-2.9294530">
        <ele>1201.6</ele>
        <time>2022-02-08T09:04:09Z</time>
      </trkpt>
      <trkpt lat="41.9254920" lon="-2.9294100">
        <ele>1201.6</ele>
        <time>2022-02-08T09:04:10Z</time>
      </trkpt>
      <trkpt lat="41.9255230" lon="-2.9293670">
        <ele>1201.5</ele>
        <time>2022-02-08T09:04:11Z</time>
      </trkpt>
      <trkpt lat="41.9255550" lon="-2.9293200">
        <ele>1201.4</ele>
        <time>2022-02-08T09:04:12Z</time>
      </trkpt>
      <trkpt lat="41.9255880" lon="-2.9292750">
        <ele>1201.3</ele>
        <time>2022-02-08T09:04:13Z</time>
      </trkpt>
      <trkpt lat="41.9256230" lon="-2.9292280">
        <ele>1201.2</ele>
        <time>2022-02-08T09:04:14Z</time>
      </trkpt>
      <trkpt lat="41.9256600" lon="-2.9291870">
        <ele>1201.1</ele>
        <time>2022-02-08T09:04:15Z</time>
      </trkpt>
      <trkpt lat="41.9256970" lon="-2.9291500">
        <ele>1201.0</ele>
        <time>2022-02-08T09:04:16Z</time>
      </trkpt>
      <trkpt lat="41.9257350" lon="-2.9291170">
        <ele>1200.9</ele>
        <time>2022-02-08T09:04:17Z</time>
      </trkpt>
      <trkpt lat="41.9257730" lon="-2.9290850">
        <ele>1200.8</ele>
        <time>2022-02-08T09:04:18Z</time>
      </trkpt>
      <trkpt lat="41.9258100" lon="-2.9290530">
        <ele>1200.8</ele>
        <time>2022-02-08T09:04:19Z</time>
      </trkpt>
      <trkpt lat="41.9258470" lon="-2.9290200">
        <ele>1200.7</ele>
        <time>2022-02-08T09:04:20Z</time>
      </trkpt>
      <trkpt lat="41.9258830" lon="-2.9289880">
        <ele>1200.7</ele>
        <time>2022-02-08T09:04:21Z</time>
      </trkpt>
      <trkpt lat="41.9259220" lon="-2.9289580">
        <ele>1200.6</ele>
        <time>2022-02-08T09:04:22Z</time>
      </trkpt>
      <trkpt lat="41.9259620" lon="-2.9289320">
        <ele>1200.6</ele>
        <time>2022-02-08T09:04:23Z</time>
      </trkpt>
      <trkpt lat="41.9260030" lon="-2.9289050">
        <ele>1200.6</ele>
        <time>2022-02-08T09:04:24Z</time>
      </trkpt>
      <trkpt lat="41.9260450" lon="-2.9288680">
        <ele>1200.6</ele>
        <time>2022-02-08T09:04:25Z</time>
      </trkpt>
      <trkpt lat="41.9260820" lon="-2.9288220">
        <ele>1200.6</ele>
        <time>2022-02-08T09:04:26Z</time>
      </trkpt>
      <trkpt lat="41.9261100" lon="-2.9287750">
        <ele>1200.6</ele>
        <time>2022-02-08T09:04:27Z</time>
      </trkpt>
      <trkpt lat="41.9261320" lon="-2.9287320">
        <ele>1200.6</ele>
        <time>2022-02-08T09:04:28Z</time>
      </trkpt>
      <trkpt lat="41.9261530" lon="-2.9286870">
        <ele>1200.6</ele>
        <time>2022-02-08T09:04:29Z</time>
      </trkpt>
      <trkpt lat="41.9261780" lon="-2.9286430">
        <ele>1200.5</ele>
        <time>2022-02-08T09:04:30Z</time>
      </trkpt>
      <trkpt lat="41.9262030" lon="-2.9286050">
        <ele>1200.4</ele>
        <time>2022-02-08T09:04:31Z</time>
      </trkpt>
      <trkpt lat="41.9262270" lon="-2.9285730">
        <ele>1200.3</ele>
        <time>2022-02-08T09:04:32Z</time>
      </trkpt>
      <trkpt lat="41.9262500" lon="-2.9285500">
        <ele>1200.3</ele>
        <time>2022-02-08T09:04:33Z</time>
      </trkpt>
      <trkpt lat="41.9262680" lon="-2.9285330">
        <ele>1200.2</ele>
        <time>2022-02-08T09:04:34Z</time>
      </trkpt>
      <trkpt lat="41.9262850" lon="-2.9285200">
        <ele>1200.1</ele>
        <time>2022-02-08T09:04:35Z</time>
      </trkpt>
      <trkpt lat="41.9263030" lon="-2.9285050">
        <ele>1200.1</ele>
        <time>2022-02-08T09:04:36Z</time>
      </trkpt>
      <trkpt lat="41.9263270" lon="-2.9284900">
        <ele>1200.0</ele>
        <time>2022-02-08T09:04:37Z</time>
      </trkpt>
      <trkpt lat="41.9263470" lon="-2.9284720">
        <ele>1199.9</ele>
        <time>2022-02-08T09:04:38Z</time>
      </trkpt>
      <trkpt lat="41.9263630" lon="-2.9284470">
        <ele>1199.8</ele>
        <time>2022-02-08T09:04:39Z</time>
      </trkpt>
      <trkpt lat="41.9263750" lon="-2.9284150">
        <ele>1199.8</ele>
        <time>2022-02-08T09:04:40Z</time>
      </trkpt>
      <trkpt lat="41.9263820" lon="-2.9283800">
        <ele>1199.7</ele>
        <time>2022-02-08T09:04:41Z</time>
      </trkpt>
      <trkpt lat="41.9263830" lon="-2.9283430">
        <ele>1199.6</ele>
        <time>2022-02-08T09:04:42Z</time>
      </trkpt>
      <trkpt lat="41.9263850" lon="-2.9283070">
        <ele>1199.5</ele>
        <time>2022-02-08T09:04:43Z</time>
      </trkpt>
      <trkpt lat="41.9263880" lon="-2.9282680">
        <ele>1199.5</ele>
        <time>2022-02-08T09:04:44Z</time>
      </trkpt>
      <trkpt lat="41.9263970" lon="-2.9282300">
        <ele>1199.4</ele>
        <time>2022-02-08T09:04:45Z</time>
      </trkpt>
      <trkpt lat="41.9264030" lon="-2.9281920">
        <ele>1199.4</ele>
        <time>2022-02-08T09:04:46Z</time>
      </trkpt>
      <trkpt lat="41.9264120" lon="-2.9281530">
        <ele>1199.4</ele>
        <time>2022-02-08T09:04:47Z</time>
      </trkpt>
      <trkpt lat="41.9264180" lon="-2.9281170">
        <ele>1199.4</ele>
        <time>2022-02-08T09:04:48Z</time>
      </trkpt>
      <trkpt lat="41.9264230" lon="-2.9280800">
        <ele>1199.4</ele>
        <time>2022-02-08T09:04:49Z</time>
      </trkpt>
      <trkpt lat="41.9264270" lon="-2.9280400">
        <ele>1199.4</ele>
        <time>2022-02-08T09:04:50Z</time>
      </trkpt>
      <trkpt lat="41.9264320" lon="-2.9280000">
        <ele>1199.5</ele>
        <time>2022-02-08T09:04:51Z</time>
      </trkpt>
      <trkpt lat="41.9264350" lon="-2.9279600">
        <ele>1199.5</ele>
        <time>2022-02-08T09:04:52Z</time>
      </trkpt>
      <trkpt lat="41.9264380" lon="-2.9279170">
        <ele>1199.6</ele>
        <time>2022-02-08T09:04:53Z</time>
      </trkpt>
      <trkpt lat="41.9264430" lon="-2.9278780">
        <ele>1199.7</ele>
        <time>2022-02-08T09:04:54Z</time>
      </trkpt>
      <trkpt lat="41.9264450" lon="-2.9278400">
        <ele>1199.8</ele>
        <time>2022-02-08T09:04:55Z</time>
      </trkpt>
      <trkpt lat="41.9264470" lon="-2.9278030">
        <ele>1199.8</ele>
        <time>2022-02-08T09:04:56Z</time>
      </trkpt>
      <trkpt lat="41.9264480" lon="-2.9277650">
        <ele>1199.9</ele>
        <time>2022-02-08T09:04:57Z</time>
      </trkpt>
      <trkpt lat="41.9264500" lon="-2.9277250">
        <ele>1200.0</ele>
        <time>2022-02-08T09:04:58Z</time>
      </trkpt>
      <trkpt lat="41.9264520" lon="-2.9276820">
        <ele>1200.1</ele>
        <time>2022-02-08T09:04:59Z</time>
      </trkpt>
      <trkpt lat="41.9264530" lon="-2.9276400">
        <ele>1200.2</ele>
        <time>2022-02-08T09:05:00Z</time>
      </trkpt>
      <trkpt lat="41.9264520" lon="-2.9275980">
        <ele>1200.4</ele>
        <time>2022-02-08T09:05:01Z</time>
      </trkpt>
      <trkpt lat="41.9264500" lon="-2.9275570">
        <ele>1200.5</ele>
        <time>2022-02-08T09:05:02Z</time>
      </trkpt>
      <trkpt lat="41.9264470" lon="-2.9275170">
        <ele>1200.6</ele>
        <time>2022-02-08T09:05:03Z</time>
      </trkpt>
      <trkpt lat="41.9264420" lon="-2.9274730">
        <ele>1200.8</ele>
        <time>2022-02-08T09:05:04Z</time>
      </trkpt>
      <trkpt lat="41.9264350" lon="-2.9274300">
        <ele>1200.9</ele>
        <time>2022-02-08T09:05:05Z</time>
      </trkpt>
      <trkpt lat="41.9264280" lon="-2.9273870">
        <ele>1201.1</ele>
        <time>2022-02-08T09:05:06Z</time>
      </trkpt>
      <trkpt lat="41.9264200" lon="-2.9273420">
        <ele>1201.2</ele>
        <time>2022-02-08T09:05:07Z</time>
      </trkpt>
      <trkpt lat="41.9264120" lon="-2.9272970">
        <ele>1201.4</ele>
        <time>2022-02-08T09:05:08Z</time>
      </trkpt>
      <trkpt lat="41.9264050" lon="-2.9272520">
        <ele>1201.5</ele>
        <time>2022-02-08T09:05:09Z</time>
      </trkpt>
      <trkpt lat="41.9264030" lon="-2.9272050">
        <ele>1201.6</ele>
        <time>2022-02-08T09:05:10Z</time>
      </trkpt>
      <trkpt lat="41.9263980" lon="-2.9271600">
        <ele>1201.7</ele>
        <time>2022-02-08T09:05:11Z</time>
      </trkpt>
      <trkpt lat="41.9263950" lon="-2.9271100">
        <ele>1201.8</ele>
        <time>2022-02-08T09:05:12Z</time>
      </trkpt>
      <trkpt lat="41.9263900" lon="-2.9270620">
        <ele>1201.8</ele>
        <time>2022-02-08T09:05:13Z</time>
      </trkpt>
      <trkpt lat="41.9263780" lon="-2.9270120">
        <ele>1201.9</ele>
        <time>2022-02-08T09:05:14Z</time>
      </trkpt>
      <trkpt lat="41.9263650" lon="-2.9269630">
        <ele>1201.9</ele>
        <time>2022-02-08T09:05:15Z</time>
      </trkpt>
      <trkpt lat="41.9263520" lon="-2.9269120">
        <ele>1201.9</ele>
        <time>2022-02-08T09:05:16Z</time>
      </trkpt>
      <trkpt lat="41.9263380" lon="-2.9268620">
        <ele>1201.9</ele>
        <time>2022-02-08T09:05:17Z</time>
      </trkpt>
      <trkpt lat="41.9263250" lon="-2.9268080">
        <ele>1201.9</ele>
        <time>2022-02-08T09:05:18Z</time>
      </trkpt>
      <trkpt lat="41.9263150" lon="-2.9267550">
        <ele>1201.9</ele>
        <time>2022-02-08T09:05:19Z</time>
      </trkpt>
      <trkpt lat="41.9263070" lon="-2.9267050">
        <ele>1201.9</ele>
        <time>2022-02-08T09:05:20Z</time>
      </trkpt>
      <trkpt lat="41.9263000" lon="-2.9266550">
        <ele>1201.9</ele>
        <time>2022-02-08T09:05:21Z</time>
      </trkpt>
      <trkpt lat="41.9262920" lon="-2.9266050">
        <ele>1201.8</ele>
        <time>2022-02-08T09:05:22Z</time>
      </trkpt>
      <trkpt lat="41.9262820" lon="-2.9265580">
        <ele>1201.8</ele>
        <time>2022-02-08T09:05:23Z</time>
      </trkpt>
      <trkpt lat="41.9262720" lon="-2.9265080">
        <ele>1201.8</ele>
        <time>2022-02-08T09:05:24Z</time>
      </trkpt>
      <trkpt lat="41.9262580" lon="-2.9264600">
        <ele>1201.7</ele>
        <time>2022-02-08T09:05:25Z</time>
      </trkpt>
      <trkpt lat="41.9262430" lon="-2.9264130">
        <ele>1201.7</ele>
        <time>2022-02-08T09:05:26Z</time>
      </trkpt>
      <trkpt lat="41.9262280" lon="-2.9263670">
        <ele>1201.6</ele>
        <time>2022-02-08T09:05:27Z</time>
      </trkpt>
      <trkpt lat="41.9262120" lon="-2.9263200">
        <ele>1201.5</ele>
        <time>2022-02-08T09:05:28Z</time>
      </trkpt>
      <trkpt lat="41.9261930" lon="-2.9262720">
        <ele>1201.5</ele>
        <time>2022-02-08T09:05:29Z</time>
      </trkpt>
      <trkpt lat="41.9261770" lon="-2.9262180">
        <ele>1201.4</ele>
        <time>2022-02-08T09:05:30Z</time>
      </trkpt>
      <trkpt lat="41.9261620" lon="-2.9261670">
        <ele>1201.2</ele>
        <time>2022-02-08T09:05:31Z</time>
      </trkpt>
      <trkpt lat="41.9261480" lon="-2.9261150">
        <ele>1201.1</ele>
        <time>2022-02-08T09:05:32Z</time>
      </trkpt>
      <trkpt lat="41.9261320" lon="-2.9260620">
        <ele>1201.0</ele>
        <time>2022-02-08T09:05:33Z</time>
      </trkpt>
      <trkpt lat="41.9261100" lon="-2.9260050">
        <ele>1200.8</ele>
        <time>2022-02-08T09:05:34Z</time>
      </trkpt>
      <trkpt lat="41.9260870" lon="-2.9259480">
        <ele>1200.7</ele>
        <time>2022-02-08T09:05:35Z</time>
      </trkpt>
      <trkpt lat="41.9260600" lon="-2.9258850">
        <ele>1200.5</ele>
        <time>2022-02-08T09:05:36Z</time>
      </trkpt>
      <trkpt lat="41.9260320" lon="-2.9258230">
        <ele>1200.4</ele>
        <time>2022-02-08T09:05:37Z</time>
      </trkpt>
      <trkpt lat="41.9260000" lon="-2.9257620">
        <ele>1200.2</ele>
        <time>2022-02-08T09:05:38Z</time>
      </trkpt>
      <trkpt lat="41.9259700" lon="-2.9256900">
        <ele>1200.1</ele>
        <time>2022-02-08T09:05:39Z</time>
      </trkpt>
      <trkpt lat="41.9259420" lon="-2.9256130">
        <ele>1199.9</ele>
        <time>2022-02-08T09:05:40Z</time>
      </trkpt>
      <trkpt lat="41.9259170" lon="-2.9255300">
        <ele>1199.7</ele>
        <time>2022-02-08T09:05:41Z</time>
      </trkpt>
      <trkpt lat="41.9258980" lon="-2.9254570">
        <ele>1199.4</ele>
        <time>2022-02-08T09:05:42Z</time>
      </trkpt>
      <trkpt lat="41.9258770" lon="-2.9253850">
        <ele>1199.1</ele>
        <time>2022-02-08T09:05:43Z</time>
      </trkpt>
      <trkpt lat="41.9258580" lon="-2.9253220">
        <ele>1198.8</ele>
        <time>2022-02-08T09:05:44Z</time>
      </trkpt>
      <trkpt lat="41.9258370" lon="-2.9252630">
        <ele>1198.5</ele>
        <time>2022-02-08T09:05:45Z</time>
      </trkpt>
      <trkpt lat="41.9258230" lon="-2.9252120">
        <ele>1198.2</ele>
        <time>2022-02-08T09:05:46Z</time>
      </trkpt>
      <trkpt lat="41.9258200" lon="-2.9251580">
        <ele>1197.9</ele>
        <time>2022-02-08T09:05:47Z</time>
      </trkpt>
      <trkpt lat="41.9258270" lon="-2.9251100">
        <ele>1197.7</ele>
        <time>2022-02-08T09:05:48Z</time>
      </trkpt>
      <trkpt lat="41.9258370" lon="-2.9250680">
        <ele>1197.4</ele>
        <time>2022-02-08T09:05:49Z</time>
      </trkpt>
      <trkpt lat="41.9258380" lon="-2.9250300">
        <ele>1197.2</ele>
        <time>2022-02-08T09:05:50Z</time>
      </trkpt>
      <trkpt lat="41.9258300" lon="-2.9250000">
        <ele>1197.1</ele>
        <time>2022-02-08T09:05:51Z</time>
      </trkpt>
      <trkpt lat="41.9258180" lon="-2.9249730">
        <ele>1196.9</ele>
        <time>2022-02-08T09:05:52Z</time>
      </trkpt>
      <trkpt lat="41.9258030" lon="-2.9249450">
        <ele>1196.8</ele>
        <time>2022-02-08T09:05:53Z</time>
      </trkpt>
      <trkpt lat="41.9257880" lon="-2.9249130">
        <ele>1196.7</ele>
        <time>2022-02-08T09:05:54Z</time>
      </trkpt>
      <trkpt lat="41.9257730" lon="-2.9248850">
        <ele>1196.6</ele>
        <time>2022-02-08T09:05:55Z</time>
      </trkpt>
      <trkpt lat="41.9257620" lon="-2.9248500">
        <ele>1196.6</ele>
        <time>2022-02-08T09:05:56Z</time>
      </trkpt>
      <trkpt lat="41.9257520" lon="-2.9248100">
        <ele>1196.5</ele>
        <time>2022-02-08T09:05:57Z</time>
      </trkpt>
      <trkpt lat="41.9257400" lon="-2.9247680">
        <ele>1196.5</ele>
        <time>2022-02-08T09:05:58Z</time>
      </trkpt>
      <trkpt lat="41.9257280" lon="-2.9247220">
        <ele>1196.4</ele>
        <time>2022-02-08T09:05:59Z</time>
      </trkpt>
      <trkpt lat="41.9257170" lon="-2.9246770">
        <ele>1196.4</ele>
        <time>2022-02-08T09:06:00Z</time>
      </trkpt>
      <trkpt lat="41.9257050" lon="-2.9246330">
        <ele>1196.4</ele>
        <time>2022-02-08T09:06:01Z</time>
      </trkpt>
      <trkpt lat="41.9256950" lon="-2.9245870">
        <ele>1196.4</ele>
        <time>2022-02-08T09:06:02Z</time>
      </trkpt>
      <trkpt lat="41.9256830" lon="-2.9245400">
        <ele>1196.4</ele>
        <time>2022-02-08T09:06:03Z</time>
      </trkpt>
      <trkpt lat="41.9256680" lon="-2.9244970">
        <ele>1196.4</ele>
        <time>2022-02-08T09:06:04Z</time>
      </trkpt>
      <trkpt lat="41.9256500" lon="-2.9244580">
        <ele>1196.5</ele>
        <time>2022-02-08T09:06:05Z</time>
      </trkpt>
      <trkpt lat="41.9256330" lon="-2.9244200">
        <ele>1196.5</ele>
        <time>2022-02-08T09:06:06Z</time>
      </trkpt>
      <trkpt lat="41.9256220" lon="-2.9243800">
        <ele>1196.6</ele>
        <time>2022-02-08T09:06:07Z</time>
      </trkpt>
      <trkpt lat="41.9256130" lon="-2.9243420">
        <ele>1196.7</ele>
        <time>2022-02-08T09:06:08Z</time>
      </trkpt>
      <trkpt lat="41.9256070" lon="-2.9243020">
        <ele>1196.7</ele>
        <time>2022-02-08T09:06:09Z</time>
      </trkpt>
      <trkpt lat="41.9256000" lon="-2.9242700">
        <ele>1196.8</ele>
        <time>2022-02-08T09:06:10Z</time>
      </trkpt>
      <trkpt lat="41.9255950" lon="-2.9242220">
        <ele>1196.9</ele>
        <time>2022-02-08T09:06:11Z</time>
      </trkpt>
      <trkpt lat="41.9255920" lon="-2.9241770">
        <ele>1197.0</ele>
        <time>2022-02-08T09:06:12Z</time>
      </trkpt>
      <trkpt lat="41.9255920" lon="-2.9241320">
        <ele>1197.1</ele>
        <time>2022-02-08T09:06:13Z</time>
      </trkpt>
      <trkpt lat="41.9255930" lon="-2.9240850">
        <ele>1197.3</ele>
        <time>2022-02-08T09:06:14Z</time>
      </trkpt>
      <trkpt lat="41.9255930" lon="-2.9240470">
        <ele>1197.4</ele>
        <time>2022-02-08T09:06:15Z</time>
      </trkpt>
      <trkpt lat="41.9255950" lon="-2.9239930">
        <ele>1197.6</ele>
        <time>2022-02-08T09:06:16Z</time>
      </trkpt>
      <trkpt lat="41.9255970" lon="-2.9239450">
        <ele>1197.8</ele>
        <time>2022-02-08T09:06:17Z</time>
      </trkpt>
      <trkpt lat="41.9255980" lon="-2.9239000">
        <ele>1198.0</ele>
        <time>2022-02-08T09:06:18Z</time>
      </trkpt>
      <trkpt lat="41.9255970" lon="-2.9238570">
        <ele>1198.1</ele>
        <time>2022-02-08T09:06:19Z</time>
      </trkpt>
      <trkpt lat="41.9255930" lon="-2.9238150">
        <ele>1198.3</ele>
        <time>2022-02-08T09:06:20Z</time>
      </trkpt>
      <trkpt lat="41.9255850" lon="-2.9237730">
        <ele>1198.5</ele>
        <time>2022-02-08T09:06:21Z</time>
      </trkpt>
      <trkpt lat="41.9255780" lon="-2.9237350">
        <ele>1198.7</ele>
        <time>2022-02-08T09:06:22Z</time>
      </trkpt>
      <trkpt lat="41.9255720" lon="-2.9236950">
        <ele>1198.9</ele>
        <time>2022-02-08T09:06:23Z</time>
      </trkpt>
      <trkpt lat="41.9255630" lon="-2.9236550">
        <ele>1199.1</ele>
        <time>2022-02-08T09:06:24Z</time>
      </trkpt>
      <trkpt lat="41.9255570" lon="-2.9236130">
        <ele>1199.2</ele>
        <time>2022-02-08T09:06:25Z</time>
      </trkpt>
      <trkpt lat="41.9255500" lon="-2.9235730">
        <ele>1199.4</ele>
        <time>2022-02-08T09:06:26Z</time>
      </trkpt>
      <trkpt lat="41.9255450" lon="-2.9235320">
        <ele>1199.6</ele>
        <time>2022-02-08T09:06:27Z</time>
      </trkpt>
      <trkpt lat="41.9255420" lon="-2.9234900">
        <ele>1199.8</ele>
        <time>2022-02-08T09:06:28Z</time>
      </trkpt>
      <trkpt lat="41.9255400" lon="-2.9234470">
        <ele>1200.0</ele>
        <time>2022-02-08T09:06:29Z</time>
      </trkpt>
      <trkpt lat="41.9255420" lon="-2.9234030">
        <ele>1200.2</ele>
        <time>2022-02-08T09:06:30Z</time>
      </trkpt>
      <trkpt lat="41.9255470" lon="-2.9233650">
        <ele>1200.4</ele>
        <time>2022-02-08T09:06:31Z</time>
      </trkpt>
      <trkpt lat="41.9255520" lon="-2.9233270">
        <ele>1200.6</ele>
        <time>2022-02-08T09:06:32Z</time>
      </trkpt>
      <trkpt lat="41.9255580" lon="-2.9232880">
        <ele>1200.8</ele>
        <time>2022-02-08T09:06:33Z</time>
      </trkpt>
      <trkpt lat="41.9255650" lon="-2.9232500">
        <ele>1201.0</ele>
        <time>2022-02-08T09:06:34Z</time>
      </trkpt>
      <trkpt lat="41.9255700" lon="-2.9232120">
        <ele>1201.2</ele>
        <time>2022-02-08T09:06:35Z</time>
      </trkpt>
      <trkpt lat="41.9255730" lon="-2.9231730">
        <ele>1201.4</ele>
        <time>2022-02-08T09:06:36Z</time>
      </trkpt>
      <trkpt lat="41.9255820" lon="-2.9231370">
        <ele>1201.6</ele>
        <time>2022-02-08T09:06:37Z</time>
      </trkpt>
      <trkpt lat="41.9255880" lon="-2.9230970">
        <ele>1201.7</ele>
        <time>2022-02-08T09:06:38Z</time>
      </trkpt>
      <trkpt lat="41.9255970" lon="-2.9230570">
        <ele>1201.9</ele>
        <time>2022-02-08T09:06:39Z</time>
      </trkpt>
      <trkpt lat="41.9256020" lon="-2.9230150">
        <ele>1202.1</ele>
        <time>2022-02-08T09:06:40Z</time>
      </trkpt>
      <trkpt lat="41.9256050" lon="-2.9229720">
        <ele>1202.2</ele>
        <time>2022-02-08T09:06:41Z</time>
      </trkpt>
      <trkpt lat="41.9256080" lon="-2.9229300">
        <ele>1202.3</ele>
        <time>2022-02-08T09:06:42Z</time>
      </trkpt>
      <trkpt lat="41.9256100" lon="-2.9228850">
        <ele>1202.4</ele>
        <time>2022-02-08T09:06:43Z</time>
      </trkpt>
      <trkpt lat="41.9256080" lon="-2.9228370">
        <ele>1202.5</ele>
        <time>2022-02-08T09:06:44Z</time>
      </trkpt>
      <trkpt lat="41.9256030" lon="-2.9227950">
        <ele>1202.6</ele>
        <time>2022-02-08T09:06:45Z</time>
      </trkpt>
      <trkpt lat="41.9255970" lon="-2.9227450">
        <ele>1202.6</ele>
        <time>2022-02-08T09:06:46Z</time>
      </trkpt>
      <trkpt lat="41.9255900" lon="-2.9226900">
        <ele>1202.6</ele>
        <time>2022-02-08T09:06:47Z</time>
      </trkpt>
      <trkpt lat="41.9255800" lon="-2.9226320">
        <ele>1202.5</ele>
        <time>2022-02-08T09:06:48Z</time>
      </trkpt>
      <trkpt lat="41.9255700" lon="-2.9225730">
        <ele>1202.4</ele>
        <time>2022-02-08T09:06:49Z</time>
      </trkpt>
      <trkpt lat="41.9255600" lon="-2.9225130">
        <ele>1202.3</ele>
        <time>2022-02-08T09:06:50Z</time>
      </trkpt>
      <trkpt lat="41.9255480" lon="-2.9224520">
        <ele>1202.2</ele>
        <time>2022-02-08T09:06:51Z</time>
      </trkpt>
      <trkpt lat="41.9255370" lon="-2.9223870">
        <ele>1202.0</ele>
        <time>2022-02-08T09:06:52Z</time>
      </trkpt>
      <trkpt lat="41.9255280" lon="-2.9223230">
        <ele>1201.8</ele>
        <time>2022-02-08T09:06:53Z</time>
      </trkpt>
      <trkpt lat="41.9255170" lon="-2.9222580">
        <ele>1201.6</ele>
        <time>2022-02-08T09:06:54Z</time>
      </trkpt>
      <trkpt lat="41.9255050" lon="-2.9221970">
        <ele>1201.4</ele>
        <time>2022-02-08T09:06:55Z</time>
      </trkpt>
      <trkpt lat="41.9254850" lon="-2.9221320">
        <ele>1201.1</ele>
        <time>2022-02-08T09:06:56Z</time>
      </trkpt>
      <trkpt lat="41.9254600" lon="-2.9220670">
        <ele>1200.9</ele>
        <time>2022-02-08T09:06:57Z</time>
      </trkpt>
      <trkpt lat="41.9254300" lon="-2.9220000">
        <ele>1200.5</ele>
        <time>2022-02-08T09:06:58Z</time>
      </trkpt>
      <trkpt lat="41.9253950" lon="-2.9219380">
        <ele>1200.2</ele>
        <time>2022-02-08T09:06:59Z</time>
      </trkpt>
      <trkpt lat="41.9253580" lon="-2.9218700">
        <ele>1199.7</ele>
        <time>2022-02-08T09:07:00Z</time>
      </trkpt>
      <trkpt lat="41.9253220" lon="-2.9217950">
        <ele>1199.2</ele>
        <time>2022-02-08T09:07:01Z</time>
      </trkpt>
      <trkpt lat="41.9252870" lon="-2.9217150">
        <ele>1198.7</ele>
        <time>2022-02-08T09:07:02Z</time>
      </trkpt>
      <trkpt lat="41.9252520" lon="-2.9216250">
        <ele>1198.1</ele>
        <time>2022-02-08T09:07:03Z</time>
      </trkpt>
      <trkpt lat="41.9252150" lon="-2.9215300">
        <ele>1197.5</ele>
        <time>2022-02-08T09:07:04Z</time>
      </trkpt>
      <trkpt lat="41.9251800" lon="-2.9214280">
        <ele>1196.9</ele>
        <time>2022-02-08T09:07:05Z</time>
      </trkpt>
      <trkpt lat="41.9251480" lon="-2.9213320">
        <ele>1196.1</ele>
        <time>2022-02-08T09:07:06Z</time>
      </trkpt>
      <trkpt lat="41.9251150" lon="-2.9212450">
        <ele>1195.3</ele>
        <time>2022-02-08T09:07:07Z</time>
      </trkpt>
      <trkpt lat="41.9250800" lon="-2.9211770">
        <ele>1194.6</ele>
        <time>2022-02-08T09:07:08Z</time>
      </trkpt>
      <trkpt lat="41.9250430" lon="-2.9211200">
        <ele>1193.8</ele>
        <time>2022-02-08T09:07:09Z</time>
      </trkpt>
      <trkpt lat="41.9250050" lon="-2.9210670">
        <ele>1193.0</ele>
        <time>2022-02-08T09:07:10Z</time>
      </trkpt>
      <trkpt lat="41.9249720" lon="-2.9210030">
        <ele>1192.2</ele>
        <time>2022-02-08T09:07:11Z</time>
      </trkpt>
      <trkpt lat="41.9249430" lon="-2.9209350">
        <ele>1191.4</ele>
        <time>2022-02-08T09:07:12Z</time>
      </trkpt>
      <trkpt lat="41.9249130" lon="-2.9208550">
        <ele>1190.6</ele>
        <time>2022-02-08T09:07:13Z</time>
      </trkpt>
      <trkpt lat="41.9248850" lon="-2.9207780">
        <ele>1189.9</ele>
        <time>2022-02-08T09:07:14Z</time>
      </trkpt>
      <trkpt lat="41.9248570" lon="-2.9207000">
        <ele>1189.2</ele>
        <time>2022-02-08T09:07:15Z</time>
      </trkpt>
      <trkpt lat="41.9248330" lon="-2.9206170">
        <ele>1188.4</ele>
        <time>2022-02-08T09:07:16Z</time>
      </trkpt>
      <trkpt lat="41.9248170" lon="-2.9205320">
        <ele>1188.2</ele>
        <time>2022-02-08T09:07:17Z</time>
      </trkpt>
      <trkpt lat="41.9248030" lon="-2.9204470">
        <ele>1188.2</ele>
        <time>2022-02-08T09:07:18Z</time>
      </trkpt>
      <trkpt lat="41.9247950" lon="-2.9203630">
        <ele>1188.2</ele>
        <time>2022-02-08T09:07:19Z</time>
      </trkpt>
      <trkpt lat="41.9247880" lon="-2.9202870">
        <ele>1188.2</ele>
        <time>2022-02-08T09:07:20Z</time>
      </trkpt>
      <trkpt lat="41.9247820" lon="-2.9202130">
        <ele>1188.2</ele>
        <time>2022-02-08T09:07:21Z</time>
      </trkpt>
      <trkpt lat="41.9247730" lon="-2.9201430">
        <ele>1188.2</ele>
        <time>2022-02-08T09:07:22Z</time>
      </trkpt>
      <trkpt lat="41.9247650" lon="-2.9200730">
        <ele>1188.2</ele>
        <time>2022-02-08T09:07:23Z</time>
      </trkpt>
      <trkpt lat="41.9247530" lon="-2.9200030">
        <ele>1188.3</ele>
        <time>2022-02-08T09:07:24Z</time>
      </trkpt>
      <trkpt lat="41.9247370" lon="-2.9199400">
        <ele>1188.3</ele>
        <time>2022-02-08T09:07:25Z</time>
      </trkpt>
      <trkpt lat="41.9247180" lon="-2.9198880">
        <ele>1188.4</ele>
        <time>2022-02-08T09:07:26Z</time>
      </trkpt>
      <trkpt lat="41.9246930" lon="-2.9198470">
        <ele>1188.5</ele>
        <time>2022-02-08T09:07:27Z</time>
      </trkpt>
      <trkpt lat="41.9246650" lon="-2.9198250">
        <ele>1188.5</ele>
        <time>2022-02-08T09:07:28Z</time>
      </trkpt>
      <trkpt lat="41.9246320" lon="-2.9198170">
        <ele>1188.7</ele>
        <time>2022-02-08T09:07:29Z</time>
      </trkpt>
      <trkpt lat="41.9245980" lon="-2.9198170">
        <ele>1188.8</ele>
        <time>2022-02-08T09:07:30Z</time>
      </trkpt>
      <trkpt lat="41.9245650" lon="-2.9198200">
        <ele>1188.8</ele>
        <time>2022-02-08T09:07:31Z</time>
      </trkpt>
      <trkpt lat="41.9245300" lon="-2.9198220">
        <ele>1188.9</ele>
        <time>2022-02-08T09:07:32Z</time>
      </trkpt>
      <trkpt lat="41.9244980" lon="-2.9198180">
        <ele>1189.0</ele>
        <time>2022-02-08T09:07:33Z</time>
      </trkpt>
      <trkpt lat="41.9244700" lon="-2.9198070">
        <ele>1189.2</ele>
        <time>2022-02-08T09:07:34Z</time>
      </trkpt>
      <trkpt lat="41.9244470" lon="-2.9197880">
        <ele>1189.3</ele>
        <time>2022-02-08T09:07:35Z</time>
      </trkpt>
      <trkpt lat="41.9244250" lon="-2.9197650">
        <ele>1189.5</ele>
        <time>2022-02-08T09:07:36Z</time>
      </trkpt>
      <trkpt lat="41.9244070" lon="-2.9197400">
        <ele>1189.6</ele>
        <time>2022-02-08T09:07:37Z</time>
      </trkpt>
      <trkpt lat="41.9243880" lon="-2.9197150">
        <ele>1189.8</ele>
        <time>2022-02-08T09:07:38Z</time>
      </trkpt>
      <trkpt lat="41.9243730" lon="-2.9196850">
        <ele>1190.0</ele>
        <time>2022-02-08T09:07:39Z</time>
      </trkpt>
      <trkpt lat="41.9243580" lon="-2.9196550">
        <ele>1190.2</ele>
        <time>2022-02-08T09:07:40Z</time>
      </trkpt>
      <trkpt lat="41.9243430" lon="-2.9196280">
        <ele>1190.4</ele>
        <time>2022-02-08T09:07:41Z</time>
      </trkpt>
      <trkpt lat="41.9243300" lon="-2.9195950">
        <ele>1190.6</ele>
        <time>2022-02-08T09:07:42Z</time>
      </trkpt>
      <trkpt lat="41.9243200" lon="-2.9195650">
        <ele>1190.8</ele>
        <time>2022-02-08T09:07:43Z</time>
      </trkpt>
      <trkpt lat="41.9243120" lon="-2.9195320">
        <ele>1191.0</ele>
        <time>2022-02-08T09:07:44Z</time>
      </trkpt>
      <trkpt lat="41.9243030" lon="-2.9194950">
        <ele>1191.2</ele>
        <time>2022-02-08T09:07:45Z</time>
      </trkpt>
      <trkpt lat="41.9242970" lon="-2.9194600">
        <ele>1191.5</ele>
        <time>2022-02-08T09:07:46Z</time>
      </trkpt>
      <trkpt lat="41.9242920" lon="-2.9194220">
        <ele>1191.7</ele>
        <time>2022-02-08T09:07:47Z</time>
      </trkpt>
      <trkpt lat="41.9242870" lon="-2.9193870">
        <ele>1191.9</ele>
        <time>2022-02-08T09:07:48Z</time>
      </trkpt>
      <trkpt lat="41.9242730" lon="-2.9193520">
        <ele>1192.1</ele>
        <time>2022-02-08T09:07:49Z</time>
      </trkpt>
      <trkpt lat="41.9242620" lon="-2.9193200">
        <ele>1192.3</ele>
        <time>2022-02-08T09:07:50Z</time>
      </trkpt>
      <trkpt lat="41.9242550" lon="-2.9192880">
        <ele>1192.4</ele>
        <time>2022-02-08T09:07:51Z</time>
      </trkpt>
      <trkpt lat="41.9242430" lon="-2.9192520">
        <ele>1192.6</ele>
        <time>2022-02-08T09:07:52Z</time>
      </trkpt>
      <trkpt lat="41.9242320" lon="-2.9192120">
        <ele>1192.8</ele>
        <time>2022-02-08T09:07:53Z</time>
      </trkpt>
      <trkpt lat="41.9242220" lon="-2.9191700">
        <ele>1192.9</ele>
        <time>2022-02-08T09:07:54Z</time>
      </trkpt>
      <trkpt lat="41.9242100" lon="-2.9191300">
        <ele>1193.1</ele>
        <time>2022-02-08T09:07:55Z</time>
      </trkpt>
      <trkpt lat="41.9241950" lon="-2.9190920">
        <ele>1193.2</ele>
        <time>2022-02-08T09:07:56Z</time>
      </trkpt>
      <trkpt lat="41.9241800" lon="-2.9190530">
        <ele>1193.4</ele>
        <time>2022-02-08T09:07:57Z</time>
      </trkpt>
      <trkpt lat="41.9241670" lon="-2.9190150">
        <ele>1193.5</ele>
        <time>2022-02-08T09:07:58Z</time>
      </trkpt>
      <trkpt lat="41.9241550" lon="-2.9189750">
        <ele>1193.6</ele>
        <time>2022-02-08T09:07:59Z</time>
      </trkpt>
      <trkpt lat="41.9241420" lon="-2.9189330">
        <ele>1193.7</ele>
        <time>2022-02-08T09:08:00Z</time>
      </trkpt>
      <trkpt lat="41.9241270" lon="-2.9188900">
        <ele>1193.8</ele>
        <time>2022-02-08T09:08:01Z</time>
      </trkpt>
      <trkpt lat="41.9241130" lon="-2.9188470">
        <ele>1193.9</ele>
        <time>2022-02-08T09:08:02Z</time>
      </trkpt>
      <trkpt lat="41.9241020" lon="-2.9188030">
        <ele>1194.0</ele>
        <time>2022-02-08T09:08:03Z</time>
      </trkpt>
      <trkpt lat="41.9240900" lon="-2.9187600">
        <ele>1194.1</ele>
        <time>2022-02-08T09:08:04Z</time>
      </trkpt>
      <trkpt lat="41.9240750" lon="-2.9187170">
        <ele>1194.2</ele>
        <time>2022-02-08T09:08:05Z</time>
      </trkpt>
      <trkpt lat="41.9240570" lon="-2.9186750">
        <ele>1194.3</ele>
        <time>2022-02-08T09:08:06Z</time>
      </trkpt>
      <trkpt lat="41.9240400" lon="-2.9186320">
        <ele>1194.4</ele>
        <time>2022-02-08T09:08:07Z</time>
      </trkpt>
      <trkpt lat="41.9240220" lon="-2.9185880">
        <ele>1194.5</ele>
        <time>2022-02-08T09:08:08Z</time>
      </trkpt>
      <trkpt lat="41.9240050" lon="-2.9185480">
        <ele>1194.5</ele>
        <time>2022-02-08T09:08:09Z</time>
      </trkpt>
      <trkpt lat="41.9239870" lon="-2.9185070">
        <ele>1194.6</ele>
        <time>2022-02-08T09:08:10Z</time>
      </trkpt>
      <trkpt lat="41.9239700" lon="-2.9184620">
        <ele>1194.7</ele>
        <time>2022-02-08T09:08:11Z</time>
      </trkpt>
      <trkpt lat="41.9239520" lon="-2.9184180">
        <ele>1194.8</ele>
        <time>2022-02-08T09:08:12Z</time>
      </trkpt>
      <trkpt lat="41.9239350" lon="-2.9183730">
        <ele>1194.9</ele>
        <time>2022-02-08T09:08:13Z</time>
      </trkpt>
      <trkpt lat="41.9239150" lon="-2.9183320">
        <ele>1195.0</ele>
        <time>2022-02-08T09:08:14Z</time>
      </trkpt>
      <trkpt lat="41.9238980" lon="-2.9182980">
        <ele>1195.1</ele>
        <time>2022-02-08T09:08:15Z</time>
      </trkpt>
      <trkpt lat="41.9238750" lon="-2.9182520">
        <ele>1195.3</ele>
        <time>2022-02-08T09:08:16Z</time>
      </trkpt>
      <trkpt lat="41.9238530" lon="-2.9182150">
        <ele>1195.4</ele>
        <time>2022-02-08T09:08:17Z</time>
      </trkpt>
      <trkpt lat="41.9238320" lon="-2.9181770">
        <ele>1195.6</ele>
        <time>2022-02-08T09:08:18Z</time>
      </trkpt>
      <trkpt lat="41.9238100" lon="-2.9181380">
        <ele>1195.7</ele>
        <time>2022-02-08T09:08:19Z</time>
      </trkpt>
      <trkpt lat="41.9237920" lon="-2.9181020">
        <ele>1195.9</ele>
        <time>2022-02-08T09:08:20Z</time>
      </trkpt>
      <trkpt lat="41.9237730" lon="-2.9180650">
        <ele>1196.0</ele>
        <time>2022-02-08T09:08:21Z</time>
      </trkpt>
      <trkpt lat="41.9237530" lon="-2.9180300">
        <ele>1196.1</ele>
        <time>2022-02-08T09:08:22Z</time>
      </trkpt>
      <trkpt lat="41.9237320" lon="-2.9179930">
        <ele>1196.3</ele>
        <time>2022-02-08T09:08:23Z</time>
      </trkpt>
      <trkpt lat="41.9237120" lon="-2.9179550">
        <ele>1196.4</ele>
        <time>2022-02-08T09:08:24Z</time>
      </trkpt>
      <trkpt lat="41.9236930" lon="-2.9179130">
        <ele>1196.5</ele>
        <time>2022-02-08T09:08:25Z</time>
      </trkpt>
      <trkpt lat="41.9236730" lon="-2.9178720">
        <ele>1196.6</ele>
        <time>2022-02-08T09:08:26Z</time>
      </trkpt>
      <trkpt lat="41.9236530" lon="-2.9178330">
        <ele>1196.8</ele>
        <time>2022-02-08T09:08:27Z</time>
      </trkpt>
      <trkpt lat="41.9236330" lon="-2.9177980">
        <ele>1196.9</ele>
        <time>2022-02-08T09:08:28Z</time>
      </trkpt>
      <trkpt lat="41.9236150" lon="-2.9177630">
        <ele>1197.0</ele>
        <time>2022-02-08T09:08:29Z</time>
      </trkpt>
      <trkpt lat="41.9235950" lon="-2.9177250">
        <ele>1197.1</ele>
        <time>2022-02-08T09:08:30Z</time>
      </trkpt>
      <trkpt lat="41.9235770" lon="-2.9176900">
        <ele>1197.2</ele>
        <time>2022-02-08T09:08:31Z</time>
      </trkpt>
      <trkpt lat="41.9235580" lon="-2.9176520">
        <ele>1197.4</ele>
        <time>2022-02-08T09:08:32Z</time>
      </trkpt>
      <trkpt lat="41.9235400" lon="-2.9176130">
        <ele>1197.5</ele>
        <time>2022-02-08T09:08:33Z</time>
      </trkpt>
      <trkpt lat="41.9235200" lon="-2.9175770">
        <ele>1197.6</ele>
        <time>2022-02-08T09:08:34Z</time>
      </trkpt>
      <trkpt lat="41.9235020" lon="-2.9175380">
        <ele>1197.8</ele>
        <time>2022-02-08T09:08:35Z</time>
      </trkpt>
      <trkpt lat="41.9234830" lon="-2.9175020">
        <ele>1197.9</ele>
        <time>2022-02-08T09:08:36Z</time>
      </trkpt>
      <trkpt lat="41.9234670" lon="-2.9174630">
        <ele>1198.1</ele>
        <time>2022-02-08T09:08:37Z</time>
      </trkpt>
      <trkpt lat="41.9234500" lon="-2.9174250">
        <ele>1198.2</ele>
        <time>2022-02-08T09:08:38Z</time>
      </trkpt>
      <trkpt lat="41.9234330" lon="-2.9173880">
        <ele>1198.3</ele>
        <time>2022-02-08T09:08:39Z</time>
      </trkpt>
      <trkpt lat="41.9234170" lon="-2.9173500">
        <ele>1198.5</ele>
        <time>2022-02-08T09:08:40Z</time>
      </trkpt>
      <trkpt lat="41.9233980" lon="-2.9173120">
        <ele>1198.6</ele>
        <time>2022-02-08T09:08:41Z</time>
      </trkpt>
      <trkpt lat="41.9233820" lon="-2.9172750">
        <ele>1198.7</ele>
        <time>2022-02-08T09:08:42Z</time>
      </trkpt>
      <trkpt lat="41.9233630" lon="-2.9172370">
        <ele>1198.8</ele>
        <time>2022-02-08T09:08:43Z</time>
      </trkpt>
      <trkpt lat="41.9233450" lon="-2.9172000">
        <ele>1198.9</ele>
        <time>2022-02-08T09:08:44Z</time>
      </trkpt>
      <trkpt lat="41.9233280" lon="-2.9171600">
        <ele>1198.9</ele>
        <time>2022-02-08T09:08:45Z</time>
      </trkpt>
      <trkpt lat="41.9233120" lon="-2.9171200">
        <ele>1198.9</ele>
        <time>2022-02-08T09:08:46Z</time>
      </trkpt>
      <trkpt lat="41.9232970" lon="-2.9170820">
        <ele>1199.0</ele>
        <time>2022-02-08T09:08:47Z</time>
      </trkpt>
      <trkpt lat="41.9232800" lon="-2.9170420">
        <ele>1199.0</ele>
        <time>2022-02-08T09:08:48Z</time>
      </trkpt>
      <trkpt lat="41.9232620" lon="-2.9170000">
        <ele>1199.1</ele>
        <time>2022-02-08T09:08:49Z</time>
      </trkpt>
      <trkpt lat="41.9232420" lon="-2.9169580">
        <ele>1199.1</ele>
        <time>2022-02-08T09:08:50Z</time>
      </trkpt>
      <trkpt lat="41.9232220" lon="-2.9169150">
        <ele>1199.1</ele>
        <time>2022-02-08T09:08:51Z</time>
      </trkpt>
      <trkpt lat="41.9232030" lon="-2.9168700">
        <ele>1199.1</ele>
        <time>2022-02-08T09:08:52Z</time>
      </trkpt>
      <trkpt lat="41.9231870" lon="-2.9168250">
        <ele>1199.2</ele>
        <time>2022-02-08T09:08:53Z</time>
      </trkpt>
      <trkpt lat="41.9231680" lon="-2.9167780">
        <ele>1199.2</ele>
        <time>2022-02-08T09:08:54Z</time>
      </trkpt>
      <trkpt lat="41.9231480" lon="-2.9167350">
        <ele>1199.2</ele>
        <time>2022-02-08T09:08:55Z</time>
      </trkpt>
      <trkpt lat="41.9231280" lon="-2.9166880">
        <ele>1199.3</ele>
        <time>2022-02-08T09:08:56Z</time>
      </trkpt>
      <trkpt lat="41.9231070" lon="-2.9166420">
        <ele>1199.3</ele>
        <time>2022-02-08T09:08:57Z</time>
      </trkpt>
      <trkpt lat="41.9230870" lon="-2.9165950">
        <ele>1199.3</ele>
        <time>2022-02-08T09:08:58Z</time>
      </trkpt>
      <trkpt lat="41.9230680" lon="-2.9165500">
        <ele>1199.4</ele>
        <time>2022-02-08T09:08:59Z</time>
      </trkpt>
      <trkpt lat="41.9230520" lon="-2.9165020">
        <ele>1199.4</ele>
        <time>2022-02-08T09:09:00Z</time>
      </trkpt>
      <trkpt lat="41.9230370" lon="-2.9164520">
        <ele>1199.5</ele>
        <time>2022-02-08T09:09:01Z</time>
      </trkpt>
      <trkpt lat="41.9230230" lon="-2.9163980">
        <ele>1199.5</ele>
        <time>2022-02-08T09:09:02Z</time>
      </trkpt>
      <trkpt lat="41.9230100" lon="-2.9163470">
        <ele>1199.5</ele>
        <time>2022-02-08T09:09:03Z</time>
      </trkpt>
      <trkpt lat="41.9230000" lon="-2.9162920">
        <ele>1199.5</ele>
        <time>2022-02-08T09:09:04Z</time>
      </trkpt>
      <trkpt lat="41.9229900" lon="-2.9162350">
        <ele>1199.4</ele>
        <time>2022-02-08T09:09:05Z</time>
      </trkpt>
      <trkpt lat="41.9229820" lon="-2.9161800">
        <ele>1199.4</ele>
        <time>2022-02-08T09:09:06Z</time>
      </trkpt>
      <trkpt lat="41.9229720" lon="-2.9161220">
        <ele>1199.4</ele>
        <time>2022-02-08T09:09:07Z</time>
      </trkpt>
      <trkpt lat="41.9229650" lon="-2.9160630">
        <ele>1199.3</ele>
        <time>2022-02-08T09:09:08Z</time>
      </trkpt>
      <trkpt lat="41.9229580" lon="-2.9160030">
        <ele>1199.3</ele>
        <time>2022-02-08T09:09:09Z</time>
      </trkpt>
      <trkpt lat="41.9229520" lon="-2.9159430">
        <ele>1199.3</ele>
        <time>2022-02-08T09:09:10Z</time>
      </trkpt>
      <trkpt lat="41.9229450" lon="-2.9158800">
        <ele>1199.2</ele>
        <time>2022-02-08T09:09:11Z</time>
      </trkpt>
      <trkpt lat="41.9229370" lon="-2.9158170">
        <ele>1199.2</ele>
        <time>2022-02-08T09:09:12Z</time>
      </trkpt>
      <trkpt lat="41.9229270" lon="-2.9157500">
        <ele>1199.2</ele>
        <time>2022-02-08T09:09:13Z</time>
      </trkpt>
      <trkpt lat="41.9229150" lon="-2.9156820">
        <ele>1199.1</ele>
        <time>2022-02-08T09:09:14Z</time>
      </trkpt>
      <trkpt lat="41.9229020" lon="-2.9156170">
        <ele>1199.1</ele>
        <time>2022-02-08T09:09:15Z</time>
      </trkpt>
      <trkpt lat="41.9228830" lon="-2.9155520">
        <ele>1199.0</ele>
        <time>2022-02-08T09:09:16Z</time>
      </trkpt>
      <trkpt lat="41.9228630" lon="-2.9154900">
        <ele>1199.0</ele>
        <time>2022-02-08T09:09:17Z</time>
      </trkpt>
      <trkpt lat="41.9228400" lon="-2.9154280">
        <ele>1199.0</ele>
        <time>2022-02-08T09:09:18Z</time>
      </trkpt>
      <trkpt lat="41.9228120" lon="-2.9153670">
        <ele>1199.0</ele>
        <time>2022-02-08T09:09:19Z</time>
      </trkpt>
      <trkpt lat="41.9227820" lon="-2.9153080">
        <ele>1199.0</ele>
        <time>2022-02-08T09:09:20Z</time>
      </trkpt>
      <trkpt lat="41.9227480" lon="-2.9152530">
        <ele>1199.0</ele>
        <time>2022-02-08T09:09:21Z</time>
      </trkpt>
      <trkpt lat="41.9227130" lon="-2.9152050">
        <ele>1199.0</ele>
        <time>2022-02-08T09:09:22Z</time>
      </trkpt>
      <trkpt lat="41.9226780" lon="-2.9151550">
        <ele>1199.0</ele>
        <time>2022-02-08T09:09:23Z</time>
      </trkpt>
      <trkpt lat="41.9226470" lon="-2.9151050">
        <ele>1199.0</ele>
        <time>2022-02-08T09:09:24Z</time>
      </trkpt>
      <trkpt lat="41.9226170" lon="-2.9150520">
        <ele>1199.1</ele>
        <time>2022-02-08T09:09:25Z</time>
      </trkpt>
      <trkpt lat="41.9225880" lon="-2.9149980">
        <ele>1199.1</ele>
        <time>2022-02-08T09:09:26Z</time>
      </trkpt>
      <trkpt lat="41.9225620" lon="-2.9149450">
        <ele>1199.1</ele>
        <time>2022-02-08T09:09:27Z</time>
      </trkpt>
      <trkpt lat="41.9225380" lon="-2.9148930">
        <ele>1199.1</ele>
        <time>2022-02-08T09:09:28Z</time>
      </trkpt>
      <trkpt lat="41.9225150" lon="-2.9148370">
        <ele>1199.2</ele>
        <time>2022-02-08T09:09:29Z</time>
      </trkpt>
      <trkpt lat="41.9224920" lon="-2.9147770">
        <ele>1199.2</ele>
        <time>2022-02-08T09:09:30Z</time>
      </trkpt>
      <trkpt lat="41.9224700" lon="-2.9147170">
        <ele>1199.3</ele>
        <time>2022-02-08T09:09:31Z</time>
      </trkpt>
      <trkpt lat="41.9224480" lon="-2.9146570">
        <ele>1199.3</ele>
        <time>2022-02-08T09:09:32Z</time>
      </trkpt>
      <trkpt lat="41.9224270" lon="-2.9145980">
        <ele>1199.4</ele>
        <time>2022-02-08T09:09:33Z</time>
      </trkpt>
      <trkpt lat="41.9224070" lon="-2.9145380">
        <ele>1199.4</ele>
        <time>2022-02-08T09:09:34Z</time>
      </trkpt>
      <trkpt lat="41.9223870" lon="-2.9144800">
        <ele>1199.5</ele>
        <time>2022-02-08T09:09:35Z</time>
      </trkpt>
      <trkpt lat="41.9223670" lon="-2.9144200">
        <ele>1199.7</ele>
        <time>2022-02-08T09:09:36Z</time>
      </trkpt>
      <trkpt lat="41.9223480" lon="-2.9143630">
        <ele>1199.8</ele>
        <time>2022-02-08T09:09:37Z</time>
      </trkpt>
      <trkpt lat="41.9223280" lon="-2.9143050">
        <ele>1199.9</ele>
        <time>2022-02-08T09:09:38Z</time>
      </trkpt>
      <trkpt lat="41.9223080" lon="-2.9142470">
        <ele>1200.0</ele>
        <time>2022-02-08T09:09:39Z</time>
      </trkpt>
      <trkpt lat="41.9222920" lon="-2.9141900">
        <ele>1200.2</ele>
        <time>2022-02-08T09:09:40Z</time>
      </trkpt>
      <trkpt lat="41.9222750" lon="-2.9141370">
        <ele>1200.3</ele>
        <time>2022-02-08T09:09:41Z</time>
      </trkpt>
      <trkpt lat="41.9222570" lon="-2.9140900">
        <ele>1200.5</ele>
        <time>2022-02-08T09:09:42Z</time>
      </trkpt>
      <trkpt lat="41.9222400" lon="-2.9140430">
        <ele>1200.7</ele>
        <time>2022-02-08T09:09:43Z</time>
      </trkpt>
      <trkpt lat="41.9222270" lon="-2.9139980">
        <ele>1200.8</ele>
        <time>2022-02-08T09:09:44Z</time>
      </trkpt>
      <trkpt lat="41.9222120" lon="-2.9139600">
        <ele>1201.0</ele>
        <time>2022-02-08T09:09:45Z</time>
      </trkpt>
      <trkpt lat="41.9222030" lon="-2.9139300">
        <ele>1201.1</ele>
        <time>2022-02-08T09:09:46Z</time>
      </trkpt>
      <trkpt lat="41.9221980" lon="-2.9139020">
        <ele>1201.2</ele>
        <time>2022-02-08T09:09:47Z</time>
      </trkpt>
      <trkpt lat="41.9221920" lon="-2.9138730">
        <ele>1201.3</ele>
        <time>2022-02-08T09:09:48Z</time>
      </trkpt>
      <trkpt lat="41.9221830" lon="-2.9138470">
        <ele>1201.4</ele>
        <time>2022-02-08T09:09:49Z</time>
      </trkpt>
      <trkpt lat="41.9221700" lon="-2.9138150">
        <ele>1201.5</ele>
        <time>2022-02-08T09:09:50Z</time>
      </trkpt>
      <trkpt lat="41.9221550" lon="-2.9137830">
        <ele>1201.6</ele>
        <time>2022-02-08T09:09:51Z</time>
      </trkpt>
      <trkpt lat="41.9221400" lon="-2.9137500">
        <ele>1201.7</ele>
        <time>2022-02-08T09:09:52Z</time>
      </trkpt>
      <trkpt lat="41.9221270" lon="-2.9137130">
        <ele>1201.9</ele>
        <time>2022-02-08T09:09:53Z</time>
      </trkpt>
      <trkpt lat="41.9221120" lon="-2.9136730">
        <ele>1202.0</ele>
        <time>2022-02-08T09:09:54Z</time>
      </trkpt>
      <trkpt lat="41.9220970" lon="-2.9136330">
        <ele>1202.2</ele>
        <time>2022-02-08T09:09:55Z</time>
      </trkpt>
      <trkpt lat="41.9220800" lon="-2.9135970">
        <ele>1202.3</ele>
        <time>2022-02-08T09:09:56Z</time>
      </trkpt>
      <trkpt lat="41.9220580" lon="-2.9135600">
        <ele>1202.5</ele>
        <time>2022-02-08T09:09:57Z</time>
      </trkpt>
      <trkpt lat="41.9220350" lon="-2.9135250">
        <ele>1202.7</ele>
        <time>2022-02-08T09:09:58Z</time>
      </trkpt>
      <trkpt lat="41.9220120" lon="-2.9134920">
        <ele>1202.9</ele>
        <time>2022-02-08T09:09:59Z</time>
      </trkpt>
      <trkpt lat="41.9219900" lon="-2.9134600">
        <ele>1203.2</ele>
        <time>2022-02-08T09:10:00Z</time>
      </trkpt>
      <trkpt lat="41.9219680" lon="-2.9134280">
        <ele>1203.4</ele>
        <time>2022-02-08T09:10:01Z</time>
      </trkpt>
      <trkpt lat="41.9219450" lon="-2.9133970">
        <ele>1203.7</ele>
        <time>2022-02-08T09:10:02Z</time>
      </trkpt>
      <trkpt lat="41.9219180" lon="-2.9133650">
        <ele>1204.0</ele>
        <time>2022-02-08T09:10:03Z</time>
      </trkpt>
      <trkpt lat="41.9218950" lon="-2.9133350">
        <ele>1204.3</ele>
        <time>2022-02-08T09:10:04Z</time>
      </trkpt>
      <trkpt lat="41.9218680" lon="-2.9133070">
        <ele>1204.6</ele>
        <time>2022-02-08T09:10:05Z</time>
      </trkpt>
      <trkpt lat="41.9218380" lon="-2.9132820">
        <ele>1204.9</ele>
        <time>2022-02-08T09:10:06Z</time>
      </trkpt>
      <trkpt lat="41.9218100" lon="-2.9132530">
        <ele>1205.2</ele>
        <time>2022-02-08T09:10:07Z</time>
      </trkpt>
      <trkpt lat="41.9217800" lon="-2.9132220">
        <ele>1205.5</ele>
        <time>2022-02-08T09:10:08Z</time>
      </trkpt>
      <trkpt lat="41.9217520" lon="-2.9131950">
        <ele>1205.7</ele>
        <time>2022-02-08T09:10:09Z</time>
      </trkpt>
      <trkpt lat="41.9217230" lon="-2.9131630">
        <ele>1206.0</ele>
        <time>2022-02-08T09:10:10Z</time>
      </trkpt>
      <trkpt lat="41.9216970" lon="-2.9131320">
        <ele>1206.2</ele>
        <time>2022-02-08T09:10:11Z</time>
      </trkpt>
      <trkpt lat="41.9216700" lon="-2.9131030">
        <ele>1206.5</ele>
        <time>2022-02-08T09:10:12Z</time>
      </trkpt>
      <trkpt lat="41.9216420" lon="-2.9130750">
        <ele>1206.7</ele>
        <time>2022-02-08T09:10:13Z</time>
      </trkpt>
      <trkpt lat="41.9216130" lon="-2.9130480">
        <ele>1206.9</ele>
        <time>2022-02-08T09:10:14Z</time>
      </trkpt>
      <trkpt lat="41.9215850" lon="-2.9130230">
        <ele>1207.2</ele>
        <time>2022-02-08T09:10:15Z</time>
      </trkpt>
      <trkpt lat="41.9215570" lon="-2.9129970">
        <ele>1207.4</ele>
        <time>2022-02-08T09:10:16Z</time>
      </trkpt>
      <trkpt lat="41.9215300" lon="-2.9129730">
        <ele>1207.6</ele>
        <time>2022-02-08T09:10:17Z</time>
      </trkpt>
      <trkpt lat="41.9215070" lon="-2.9129520">
        <ele>1207.8</ele>
        <time>2022-02-08T09:10:18Z</time>
      </trkpt>
      <trkpt lat="41.9214780" lon="-2.9129250">
        <ele>1208.1</ele>
        <time>2022-02-08T09:10:19Z</time>
      </trkpt>
      <trkpt lat="41.9214530" lon="-2.9128980">
        <ele>1208.3</ele>
        <time>2022-02-08T09:10:20Z</time>
      </trkpt>
      <trkpt lat="41.9214250" lon="-2.9128700">
        <ele>1208.5</ele>
        <time>2022-02-08T09:10:21Z</time>
      </trkpt>
      <trkpt lat="41.9213980" lon="-2.9128430">
        <ele>1208.8</ele>
        <time>2022-02-08T09:10:22Z</time>
      </trkpt>
      <trkpt lat="41.9213750" lon="-2.9128150">
        <ele>1209.0</ele>
        <time>2022-02-08T09:10:23Z</time>
      </trkpt>
      <trkpt lat="41.9213520" lon="-2.9127870">
        <ele>1209.2</ele>
        <time>2022-02-08T09:10:24Z</time>
      </trkpt>
      <trkpt lat="41.9213270" lon="-2.9127570">
        <ele>1209.4</ele>
        <time>2022-02-08T09:10:25Z</time>
      </trkpt>
      <trkpt lat="41.9213000" lon="-2.9127270">
        <ele>1209.7</ele>
        <time>2022-02-08T09:10:26Z</time>
      </trkpt>
      <trkpt lat="41.9212770" lon="-2.9126970">
        <ele>1209.9</ele>
        <time>2022-02-08T09:10:27Z</time>
      </trkpt>
      <trkpt lat="41.9212580" lon="-2.9126650">
        <ele>1210.1</ele>
        <time>2022-02-08T09:10:28Z</time>
      </trkpt>
      <trkpt lat="41.9212400" lon="-2.9126320">
        <ele>1210.3</ele>
        <time>2022-02-08T09:10:29Z</time>
      </trkpt>
      <trkpt lat="41.9212200" lon="-2.9125980">
        <ele>1210.5</ele>
        <time>2022-02-08T09:10:30Z</time>
      </trkpt>
      <trkpt lat="41.9211980" lon="-2.9125630">
        <ele>1210.7</ele>
        <time>2022-02-08T09:10:31Z</time>
      </trkpt>
      <trkpt lat="41.9211780" lon="-2.9125280">
        <ele>1210.9</ele>
        <time>2022-02-08T09:10:32Z</time>
      </trkpt>
      <trkpt lat="41.9211600" lon="-2.9124920">
        <ele>1211.1</ele>
        <time>2022-02-08T09:10:33Z</time>
      </trkpt>
      <trkpt lat="41.9211420" lon="-2.9124570">
        <ele>1211.3</ele>
        <time>2022-02-08T09:10:34Z</time>
      </trkpt>
      <trkpt lat="41.9211250" lon="-2.9124200">
        <ele>1211.5</ele>
        <time>2022-02-08T09:10:35Z</time>
      </trkpt>
      <trkpt lat="41.9211080" lon="-2.9123870">
        <ele>1211.7</ele>
        <time>2022-02-08T09:10:36Z</time>
      </trkpt>
      <trkpt lat="41.9210930" lon="-2.9123520">
        <ele>1211.9</ele>
        <time>2022-02-08T09:10:37Z</time>
      </trkpt>
      <trkpt lat="41.9210780" lon="-2.9123180">
        <ele>1212.1</ele>
        <time>2022-02-08T09:10:38Z</time>
      </trkpt>
      <trkpt lat="41.9210620" lon="-2.9122820">
        <ele>1212.3</ele>
        <time>2022-02-08T09:10:39Z</time>
      </trkpt>
      <trkpt lat="41.9210470" lon="-2.9122470">
        <ele>1212.5</ele>
        <time>2022-02-08T09:10:40Z</time>
      </trkpt>
      <trkpt lat="41.9210320" lon="-2.9122070">
        <ele>1212.7</ele>
        <time>2022-02-08T09:10:41Z</time>
      </trkpt>
      <trkpt lat="41.9210150" lon="-2.9121680">
        <ele>1212.9</ele>
        <time>2022-02-08T09:10:42Z</time>
      </trkpt>
      <trkpt lat="41.9210000" lon="-2.9121320">
        <ele>1213.2</ele>
        <time>2022-02-08T09:10:43Z</time>
      </trkpt>
      <trkpt lat="41.9209870" lon="-2.9120730">
        <ele>1213.5</ele>
        <time>2022-02-08T09:10:44Z</time>
      </trkpt>
      <trkpt lat="41.9209700" lon="-2.9120270">
        <ele>1213.7</ele>
        <time>2022-02-08T09:10:45Z</time>
      </trkpt>
      <trkpt lat="41.9209550" lon="-2.9119820">
        <ele>1214.0</ele>
        <time>2022-02-08T09:10:46Z</time>
      </trkpt>
      <trkpt lat="41.9209380" lon="-2.9119450">
        <ele>1214.2</ele>
        <time>2022-02-08T09:10:47Z</time>
      </trkpt>
      <trkpt lat="41.9209200" lon="-2.9119080">
        <ele>1214.4</ele>
        <time>2022-02-08T09:10:48Z</time>
      </trkpt>
      <trkpt lat="41.9209030" lon="-2.9118680">
        <ele>1214.6</ele>
        <time>2022-02-08T09:10:49Z</time>
      </trkpt>
      <trkpt lat="41.9208850" lon="-2.9118230">
        <ele>1214.8</ele>
        <time>2022-02-08T09:10:50Z</time>
      </trkpt>
      <trkpt lat="41.9208650" lon="-2.9117870">
        <ele>1215.0</ele>
        <time>2022-02-08T09:10:51Z</time>
      </trkpt>
      <trkpt lat="41.9208470" lon="-2.9117520">
        <ele>1215.2</ele>
        <time>2022-02-08T09:10:52Z</time>
      </trkpt>
      <trkpt lat="41.9208300" lon="-2.9117150">
        <ele>1215.3</ele>
        <time>2022-02-08T09:10:53Z</time>
      </trkpt>
      <trkpt lat="41.9208080" lon="-2.9116780">
        <ele>1215.5</ele>
        <time>2022-02-08T09:10:54Z</time>
      </trkpt>
      <trkpt lat="41.9207950" lon="-2.9116480">
        <ele>1215.7</ele>
        <time>2022-02-08T09:10:55Z</time>
      </trkpt>
      <trkpt lat="41.9207800" lon="-2.9116130">
        <ele>1215.9</ele>
        <time>2022-02-08T09:10:56Z</time>
      </trkpt>
      <trkpt lat="41.9207680" lon="-2.9115820">
        <ele>1216.0</ele>
        <time>2022-02-08T09:10:57Z</time>
      </trkpt>
      <trkpt lat="41.9207580" lon="-2.9115500">
        <ele>1216.1</ele>
        <time>2022-02-08T09:10:58Z</time>
      </trkpt>
      <trkpt lat="41.9207470" lon="-2.9115200">
        <ele>1216.3</ele>
        <time>2022-02-08T09:10:59Z</time>
      </trkpt>
      <trkpt lat="41.9207330" lon="-2.9114850">
        <ele>1216.5</ele>
        <time>2022-02-08T09:11:00Z</time>
      </trkpt>
      <trkpt lat="41.9207180" lon="-2.9114480">
        <ele>1216.6</ele>
        <time>2022-02-08T09:11:01Z</time>
      </trkpt>
      <trkpt lat="41.9207080" lon="-2.9114150">
        <ele>1216.8</ele>
        <time>2022-02-08T09:11:02Z</time>
      </trkpt>
      <trkpt lat="41.9206970" lon="-2.9113770">
        <ele>1217.0</ele>
        <time>2022-02-08T09:11:03Z</time>
      </trkpt>
      <trkpt lat="41.9206830" lon="-2.9113350">
        <ele>1217.1</ele>
        <time>2022-02-08T09:11:04Z</time>
      </trkpt>
      <trkpt lat="41.9206750" lon="-2.9112680">
        <ele>1217.4</ele>
        <time>2022-02-08T09:11:05Z</time>
      </trkpt>
      <trkpt lat="41.9206700" lon="-2.9112270">
        <ele>1217.6</ele>
        <time>2022-02-08T09:11:06Z</time>
      </trkpt>
      <trkpt lat="41.9206600" lon="-2.9111900">
        <ele>1217.7</ele>
        <time>2022-02-08T09:11:07Z</time>
      </trkpt>
      <trkpt lat="41.9206550" lon="-2.9111470">
        <ele>1217.8</ele>
        <time>2022-02-08T09:11:08Z</time>
      </trkpt>
      <trkpt lat="41.9206530" lon="-2.9110970">
        <ele>1218.0</ele>
        <time>2022-02-08T09:11:09Z</time>
      </trkpt>
      <trkpt lat="41.9206470" lon="-2.9110480">
        <ele>1218.1</ele>
        <time>2022-02-08T09:11:10Z</time>
      </trkpt>
      <trkpt lat="41.9206420" lon="-2.9110050">
        <ele>1218.2</ele>
        <time>2022-02-08T09:11:11Z</time>
      </trkpt>
      <trkpt lat="41.9206370" lon="-2.9109580">
        <ele>1218.3</ele>
        <time>2022-02-08T09:11:12Z</time>
      </trkpt>
      <trkpt lat="41.9206250" lon="-2.9109120">
        <ele>1218.5</ele>
        <time>2022-02-08T09:11:13Z</time>
      </trkpt>
      <trkpt lat="41.9206120" lon="-2.9108670">
        <ele>1218.6</ele>
        <time>2022-02-08T09:11:14Z</time>
      </trkpt>
      <trkpt lat="41.9205980" lon="-2.9108200">
        <ele>1218.7</ele>
        <time>2022-02-08T09:11:15Z</time>
      </trkpt>
      <trkpt lat="41.9205850" lon="-2.9107700">
        <ele>1218.9</ele>
        <time>2022-02-08T09:11:16Z</time>
      </trkpt>
      <trkpt lat="41.9205730" lon="-2.9107270">
        <ele>1219.0</ele>
        <time>2022-02-08T09:11:17Z</time>
      </trkpt>
      <trkpt lat="41.9205600" lon="-2.9106850">
        <ele>1219.1</ele>
        <time>2022-02-08T09:11:18Z</time>
      </trkpt>
      <trkpt lat="41.9205420" lon="-2.9106450">
        <ele>1219.3</ele>
        <time>2022-02-08T09:11:19Z</time>
      </trkpt>
      <trkpt lat="41.9205230" lon="-2.9106050">
        <ele>1219.4</ele>
        <time>2022-02-08T09:11:20Z</time>
      </trkpt>
      <trkpt lat="41.9205020" lon="-2.9105620">
        <ele>1219.6</ele>
        <time>2022-02-08T09:11:21Z</time>
      </trkpt>
      <trkpt lat="41.9204770" lon="-2.9105230">
        <ele>1219.8</ele>
        <time>2022-02-08T09:11:22Z</time>
      </trkpt>
      <trkpt lat="41.9204500" lon="-2.9104900">
        <ele>1220.0</ele>
        <time>2022-02-08T09:11:23Z</time>
      </trkpt>
      <trkpt lat="41.9204220" lon="-2.9104630">
        <ele>1220.2</ele>
        <time>2022-02-08T09:11:24Z</time>
      </trkpt>
      <trkpt lat="41.9203970" lon="-2.9104400">
        <ele>1220.4</ele>
        <time>2022-02-08T09:11:25Z</time>
      </trkpt>
      <trkpt lat="41.9203670" lon="-2.9104230">
        <ele>1220.6</ele>
        <time>2022-02-08T09:11:26Z</time>
      </trkpt>
      <trkpt lat="41.9203400" lon="-2.9104020">
        <ele>1220.8</ele>
        <time>2022-02-08T09:11:27Z</time>
      </trkpt>
      <trkpt lat="41.9203100" lon="-2.9103870">
        <ele>1221.1</ele>
        <time>2022-02-08T09:11:28Z</time>
      </trkpt>
      <trkpt lat="41.9202830" lon="-2.9103750">
        <ele>1221.3</ele>
        <time>2022-02-08T09:11:29Z</time>
      </trkpt>
      <trkpt lat="41.9202550" lon="-2.9103680">
        <ele>1221.5</ele>
        <time>2022-02-08T09:11:30Z</time>
      </trkpt>
      <trkpt lat="41.9202270" lon="-2.9103620">
        <ele>1221.7</ele>
        <time>2022-02-08T09:11:31Z</time>
      </trkpt>
      <trkpt lat="41.9201980" lon="-2.9103570">
        <ele>1221.9</ele>
        <time>2022-02-08T09:11:32Z</time>
      </trkpt>
      <trkpt lat="41.9201700" lon="-2.9103520">
        <ele>1222.1</ele>
        <time>2022-02-08T09:11:33Z</time>
      </trkpt>
      <trkpt lat="41.9201380" lon="-2.9103430">
        <ele>1222.4</ele>
        <time>2022-02-08T09:11:34Z</time>
      </trkpt>
      <trkpt lat="41.9201080" lon="-2.9103330">
        <ele>1222.6</ele>
        <time>2022-02-08T09:11:35Z</time>
      </trkpt>
      <trkpt lat="41.9200770" lon="-2.9103220">
        <ele>1222.9</ele>
        <time>2022-02-08T09:11:36Z</time>
      </trkpt>
      <trkpt lat="41.9200500" lon="-2.9103170">
        <ele>1223.1</ele>
        <time>2022-02-08T09:11:37Z</time>
      </trkpt>
      <trkpt lat="41.9200220" lon="-2.9103130">
        <ele>1223.4</ele>
        <time>2022-02-08T09:11:38Z</time>
      </trkpt>
      <trkpt lat="41.9199930" lon="-2.9103100">
        <ele>1223.6</ele>
        <time>2022-02-08T09:11:39Z</time>
      </trkpt>
      <trkpt lat="41.9199650" lon="-2.9103070">
        <ele>1223.8</ele>
        <time>2022-02-08T09:11:40Z</time>
      </trkpt>
      <trkpt lat="41.9199370" lon="-2.9103000">
        <ele>1224.1</ele>
        <time>2022-02-08T09:11:41Z</time>
      </trkpt>
      <trkpt lat="41.9199120" lon="-2.9102880">
        <ele>1224.2</ele>
        <time>2022-02-08T09:11:42Z</time>
      </trkpt>
      <trkpt lat="41.9198880" lon="-2.9102800">
        <ele>1224.4</ele>
        <time>2022-02-08T09:11:43Z</time>
      </trkpt>
      <trkpt lat="41.9198620" lon="-2.9102730">
        <ele>1224.6</ele>
        <time>2022-02-08T09:11:44Z</time>
      </trkpt>
      <trkpt lat="41.9198370" lon="-2.9102650">
        <ele>1224.8</ele>
        <time>2022-02-08T09:11:45Z</time>
      </trkpt>
      <trkpt lat="41.9198100" lon="-2.9102470">
        <ele>1225.1</ele>
        <time>2022-02-08T09:11:46Z</time>
      </trkpt>
      <trkpt lat="41.9197830" lon="-2.9102350">
        <ele>1225.3</ele>
        <time>2022-02-08T09:11:47Z</time>
      </trkpt>
      <trkpt lat="41.9197620" lon="-2.9102150">
        <ele>1225.5</ele>
        <time>2022-02-08T09:11:48Z</time>
      </trkpt>
      <trkpt lat="41.9197430" lon="-2.9101920">
        <ele>1225.7</ele>
        <time>2022-02-08T09:11:49Z</time>
      </trkpt>
      <trkpt lat="41.9197300" lon="-2.9101730">
        <ele>1225.9</ele>
        <time>2022-02-08T09:11:50Z</time>
      </trkpt>
      <trkpt lat="41.9197170" lon="-2.9101500">
        <ele>1226.0</ele>
        <time>2022-02-08T09:11:51Z</time>
      </trkpt>
      <trkpt lat="41.9197050" lon="-2.9101250">
        <ele>1226.2</ele>
        <time>2022-02-08T09:11:52Z</time>
      </trkpt>
      <trkpt lat="41.9196920" lon="-2.9100970">
        <ele>1226.4</ele>
        <time>2022-02-08T09:11:53Z</time>
      </trkpt>
      <trkpt lat="41.9196830" lon="-2.9100700">
        <ele>1226.6</ele>
        <time>2022-02-08T09:11:54Z</time>
      </trkpt>
      <trkpt lat="41.9196720" lon="-2.9100350">
        <ele>1226.8</ele>
        <time>2022-02-08T09:11:55Z</time>
      </trkpt>
      <trkpt lat="41.9196670" lon="-2.9100000">
        <ele>1227.0</ele>
        <time>2022-02-08T09:11:56Z</time>
      </trkpt>
      <trkpt lat="41.9196620" lon="-2.9099700">
        <ele>1227.1</ele>
        <time>2022-02-08T09:11:57Z</time>
      </trkpt>
      <trkpt lat="41.9196550" lon="-2.9099380">
        <ele>1227.3</ele>
        <time>2022-02-08T09:11:58Z</time>
      </trkpt>
      <trkpt lat="41.9196500" lon="-2.9098970">
        <ele>1227.5</ele>
        <time>2022-02-08T09:11:59Z</time>
      </trkpt>
      <trkpt lat="41.9196420" lon="-2.9098650">
        <ele>1227.7</ele>
        <time>2022-02-08T09:12:00Z</time>
      </trkpt>
      <trkpt lat="41.9196370" lon="-2.9098350">
        <ele>1227.8</ele>
        <time>2022-02-08T09:12:01Z</time>
      </trkpt>
      <trkpt lat="41.9196320" lon="-2.9098030">
        <ele>1228.0</ele>
        <time>2022-02-08T09:12:02Z</time>
      </trkpt>
      <trkpt lat="41.9196270" lon="-2.9097700">
        <ele>1228.2</ele>
        <time>2022-02-08T09:12:03Z</time>
      </trkpt>
      <trkpt lat="41.9196220" lon="-2.9097350">
        <ele>1228.3</ele>
        <time>2022-02-08T09:12:04Z</time>
      </trkpt>
      <trkpt lat="41.9196180" lon="-2.9097020">
        <ele>1228.5</ele>
        <time>2022-02-08T09:12:05Z</time>
      </trkpt>
      <trkpt lat="41.9196130" lon="-2.9096720">
        <ele>1228.6</ele>
        <time>2022-02-08T09:12:06Z</time>
      </trkpt>
      <trkpt lat="41.9196050" lon="-2.9096330">
        <ele>1228.8</ele>
        <time>2022-02-08T09:12:07Z</time>
      </trkpt>
      <trkpt lat="41.9196030" lon="-2.9095980">
        <ele>1229.0</ele>
        <time>2022-02-08T09:12:08Z</time>
      </trkpt>
      <trkpt lat="41.9195930" lon="-2.9095670">
        <ele>1229.2</ele>
        <time>2022-02-08T09:12:09Z</time>
      </trkpt>
      <trkpt lat="41.9195870" lon="-2.9095400">
        <ele>1229.3</ele>
        <time>2022-02-08T09:12:10Z</time>
      </trkpt>
      <trkpt lat="41.9195800" lon="-2.9095130">
        <ele>1229.4</ele>
        <time>2022-02-08T09:12:11Z</time>
      </trkpt>
      <trkpt lat="41.9195800" lon="-2.9094770">
        <ele>1229.6</ele>
        <time>2022-02-08T09:12:12Z</time>
      </trkpt>
      <trkpt lat="41.9195730" lon="-2.9094430">
        <ele>1229.8</ele>
        <time>2022-02-08T09:12:13Z</time>
      </trkpt>
      <trkpt lat="41.9195730" lon="-2.9094120">
        <ele>1229.9</ele>
        <time>2022-02-08T09:12:14Z</time>
      </trkpt>
      <trkpt lat="41.9195730" lon="-2.9093800">
        <ele>1230.0</ele>
        <time>2022-02-08T09:12:15Z</time>
      </trkpt>
      <trkpt lat="41.9195720" lon="-2.9093450">
        <ele>1230.2</ele>
        <time>2022-02-08T09:12:16Z</time>
      </trkpt>
      <trkpt lat="41.9195670" lon="-2.9093170">
        <ele>1230.3</ele>
        <time>2022-02-08T09:12:17Z</time>
      </trkpt>
      <trkpt lat="41.9195580" lon="-2.9092780">
        <ele>1230.5</ele>
        <time>2022-02-08T09:12:18Z</time>
      </trkpt>
      <trkpt lat="41.9195520" lon="-2.9092380">
        <ele>1230.7</ele>
        <time>2022-02-08T09:12:19Z</time>
      </trkpt>
      <trkpt lat="41.9195430" lon="-2.9092020">
        <ele>1230.9</ele>
        <time>2022-02-08T09:12:20Z</time>
      </trkpt>
      <trkpt lat="41.9195350" lon="-2.9091700">
        <ele>1231.0</ele>
        <time>2022-02-08T09:12:21Z</time>
      </trkpt>
      <trkpt lat="41.9195300" lon="-2.9091320">
        <ele>1231.2</ele>
        <time>2022-02-08T09:12:22Z</time>
      </trkpt>
      <trkpt lat="41.9195230" lon="-2.9090920">
        <ele>1231.3</ele>
        <time>2022-02-08T09:12:23Z</time>
      </trkpt>
      <trkpt lat="41.9195150" lon="-2.9090530">
        <ele>1231.5</ele>
        <time>2022-02-08T09:12:24Z</time>
      </trkpt>
      <trkpt lat="41.9195080" lon="-2.9090050">
        <ele>1231.7</ele>
        <time>2022-02-08T09:12:25Z</time>
      </trkpt>
      <trkpt lat="41.9195020" lon="-2.9089720">
        <ele>1231.9</ele>
        <time>2022-02-08T09:12:26Z</time>
      </trkpt>
      <trkpt lat="41.9194930" lon="-2.9089420">
        <ele>1232.0</ele>
        <time>2022-02-08T09:12:27Z</time>
      </trkpt>
      <trkpt lat="41.9194850" lon="-2.9089100">
        <ele>1232.2</ele>
        <time>2022-02-08T09:12:28Z</time>
      </trkpt>
      <trkpt lat="41.9194770" lon="-2.9088770">
        <ele>1232.3</ele>
        <time>2022-02-08T09:12:29Z</time>
      </trkpt>
      <trkpt lat="41.9194700" lon="-2.9088450">
        <ele>1232.4</ele>
        <time>2022-02-08T09:12:30Z</time>
      </trkpt>
      <trkpt lat="41.9194630" lon="-2.9088120">
        <ele>1232.6</ele>
        <time>2022-02-08T09:12:31Z</time>
      </trkpt>
      <trkpt lat="41.9194580" lon="-2.9087780">
        <ele>1232.7</ele>
        <time>2022-02-08T09:12:32Z</time>
      </trkpt>
      <trkpt lat="41.9194520" lon="-2.9087430">
        <ele>1232.9</ele>
        <time>2022-02-08T09:12:33Z</time>
      </trkpt>
      <trkpt lat="41.9194420" lon="-2.9087080">
        <ele>1233.1</ele>
        <time>2022-02-08T09:12:34Z</time>
      </trkpt>
      <trkpt lat="41.9194330" lon="-2.9086730">
        <ele>1233.2</ele>
        <time>2022-02-08T09:12:35Z</time>
      </trkpt>
      <trkpt lat="41.9194250" lon="-2.9086380">
        <ele>1233.4</ele>
        <time>2022-02-08T09:12:36Z</time>
      </trkpt>
      <trkpt lat="41.9194180" lon="-2.9086030">
        <ele>1233.6</ele>
        <time>2022-02-08T09:12:37Z</time>
      </trkpt>
      <trkpt lat="41.9194130" lon="-2.9085650">
        <ele>1233.8</ele>
        <time>2022-02-08T09:12:38Z</time>
      </trkpt>
      <trkpt lat="41.9194070" lon="-2.9085270">
        <ele>1233.9</ele>
        <time>2022-02-08T09:12:39Z</time>
      </trkpt>
      <trkpt lat="41.9194000" lon="-2.9084850">
        <ele>1234.1</ele>
        <time>2022-02-08T09:12:40Z</time>
      </trkpt>
      <trkpt lat="41.9193930" lon="-2.9084450">
        <ele>1234.3</ele>
        <time>2022-02-08T09:12:41Z</time>
      </trkpt>
      <trkpt lat="41.9193850" lon="-2.9084080">
        <ele>1234.5</ele>
        <time>2022-02-08T09:12:42Z</time>
      </trkpt>
      <trkpt lat="41.9193750" lon="-2.9083730">
        <ele>1234.6</ele>
        <time>2022-02-08T09:12:43Z</time>
      </trkpt>
      <trkpt lat="41.9193650" lon="-2.9083450">
        <ele>1234.8</ele>
        <time>2022-02-08T09:12:44Z</time>
      </trkpt>
      <trkpt lat="41.9193570" lon="-2.9083130">
        <ele>1234.9</ele>
        <time>2022-02-08T09:12:45Z</time>
      </trkpt>
      <trkpt lat="41.9193500" lon="-2.9082780">
        <ele>1235.1</ele>
        <time>2022-02-08T09:12:46Z</time>
      </trkpt>
      <trkpt lat="41.9193430" lon="-2.9082470">
        <ele>1235.2</ele>
        <time>2022-02-08T09:12:47Z</time>
      </trkpt>
      <trkpt lat="41.9193300" lon="-2.9082120">
        <ele>1235.4</ele>
        <time>2022-02-08T09:12:48Z</time>
      </trkpt>
      <trkpt lat="41.9193230" lon="-2.9081800">
        <ele>1235.6</ele>
        <time>2022-02-08T09:12:49Z</time>
      </trkpt>
      <trkpt lat="41.9193170" lon="-2.9081450">
        <ele>1235.8</ele>
        <time>2022-02-08T09:12:50Z</time>
      </trkpt>
      <trkpt lat="41.9193100" lon="-2.9081120">
        <ele>1235.9</ele>
        <time>2022-02-08T09:12:51Z</time>
      </trkpt>
      <trkpt lat="41.9193000" lon="-2.9080820">
        <ele>1236.1</ele>
        <time>2022-02-08T09:12:52Z</time>
      </trkpt>
      <trkpt lat="41.9192930" lon="-2.9080520">
        <ele>1236.2</ele>
        <time>2022-02-08T09:12:53Z</time>
      </trkpt>
      <trkpt lat="41.9192920" lon="-2.9080170">
        <ele>1236.4</ele>
        <time>2022-02-08T09:12:54Z</time>
      </trkpt>
      <trkpt lat="41.9192850" lon="-2.9079820">
        <ele>1236.6</ele>
        <time>2022-02-08T09:12:55Z</time>
      </trkpt>
      <trkpt lat="41.9192750" lon="-2.9079480">
        <ele>1236.7</ele>
        <time>2022-02-08T09:12:56Z</time>
      </trkpt>
      <trkpt lat="41.9192670" lon="-2.9079130">
        <ele>1236.9</ele>
        <time>2022-02-08T09:12:57Z</time>
      </trkpt>
      <trkpt lat="41.9192620" lon="-2.9078800">
        <ele>1237.1</ele>
        <time>2022-02-08T09:12:58Z</time>
      </trkpt>
      <trkpt lat="41.9192550" lon="-2.9078130">
        <ele>1237.4</ele>
        <time>2022-02-08T09:12:59Z</time>
      </trkpt>
      <trkpt lat="41.9192480" lon="-2.9077680">
        <ele>1237.6</ele>
        <time>2022-02-08T09:13:00Z</time>
      </trkpt>
      <trkpt lat="41.9192380" lon="-2.9077220">
        <ele>1237.8</ele>
        <time>2022-02-08T09:13:01Z</time>
      </trkpt>
      <trkpt lat="41.9192320" lon="-2.9076750">
        <ele>1238.0</ele>
        <time>2022-02-08T09:13:02Z</time>
      </trkpt>
      <trkpt lat="41.9192270" lon="-2.9076450">
        <ele>1238.2</ele>
        <time>2022-02-08T09:13:03Z</time>
      </trkpt>
      <trkpt lat="41.9192200" lon="-2.9076120">
        <ele>1238.3</ele>
        <time>2022-02-08T09:13:04Z</time>
      </trkpt>
      <trkpt lat="41.9192150" lon="-2.9075800">
        <ele>1238.5</ele>
        <time>2022-02-08T09:13:05Z</time>
      </trkpt>
      <trkpt lat="41.9192100" lon="-2.9075430">
        <ele>1238.7</ele>
        <time>2022-02-08T09:13:06Z</time>
      </trkpt>
      <trkpt lat="41.9192070" lon="-2.9075100">
        <ele>1238.8</ele>
        <time>2022-02-08T09:13:07Z</time>
      </trkpt>
      <trkpt lat="41.9192030" lon="-2.9074750">
        <ele>1239.0</ele>
        <time>2022-02-08T09:13:08Z</time>
      </trkpt>
      <trkpt lat="41.9191980" lon="-2.9074380">
        <ele>1239.1</ele>
        <time>2022-02-08T09:13:09Z</time>
      </trkpt>
      <trkpt lat="41.9191950" lon="-2.9074050">
        <ele>1239.3</ele>
        <time>2022-02-08T09:13:10Z</time>
      </trkpt>
      <trkpt lat="41.9191900" lon="-2.9073570">
        <ele>1239.5</ele>
        <time>2022-02-08T09:13:11Z</time>
      </trkpt>
      <trkpt lat="41.9191870" lon="-2.9073150">
        <ele>1239.7</ele>
        <time>2022-02-08T09:13:12Z</time>
      </trkpt>
      <trkpt lat="41.9191820" lon="-2.9072750">
        <ele>1239.9</ele>
        <time>2022-02-08T09:13:13Z</time>
      </trkpt>
      <trkpt lat="41.9191780" lon="-2.9072330">
        <ele>1240.1</ele>
        <time>2022-02-08T09:13:14Z</time>
      </trkpt>
      <trkpt lat="41.9191770" lon="-2.9071900">
        <ele>1240.3</ele>
        <time>2022-02-08T09:13:15Z</time>
      </trkpt>
      <trkpt lat="41.9191750" lon="-2.9071530">
        <ele>1240.5</ele>
        <time>2022-02-08T09:13:16Z</time>
      </trkpt>
      <trkpt lat="41.9191770" lon="-2.9071120">
        <ele>1240.7</ele>
        <time>2022-02-08T09:13:17Z</time>
      </trkpt>
      <trkpt lat="41.9191770" lon="-2.9070700">
        <ele>1240.8</ele>
        <time>2022-02-08T09:13:18Z</time>
      </trkpt>
      <trkpt lat="41.9191730" lon="-2.9070280">
        <ele>1241.0</ele>
        <time>2022-02-08T09:13:19Z</time>
      </trkpt>
      <trkpt lat="41.9191670" lon="-2.9069850">
        <ele>1241.2</ele>
        <time>2022-02-08T09:13:20Z</time>
      </trkpt>
      <trkpt lat="41.9191630" lon="-2.9069450">
        <ele>1241.4</ele>
        <time>2022-02-08T09:13:21Z</time>
      </trkpt>
      <trkpt lat="41.9191580" lon="-2.9069050">
        <ele>1241.6</ele>
        <time>2022-02-08T09:13:22Z</time>
      </trkpt>
      <trkpt lat="41.9191520" lon="-2.9068630">
        <ele>1241.8</ele>
        <time>2022-02-08T09:13:23Z</time>
      </trkpt>
      <trkpt lat="41.9191480" lon="-2.9068230">
        <ele>1242.0</ele>
        <time>2022-02-08T09:13:24Z</time>
      </trkpt>
      <trkpt lat="41.9191450" lon="-2.9067870">
        <ele>1242.2</ele>
        <time>2022-02-08T09:13:25Z</time>
      </trkpt>
      <trkpt lat="41.9191430" lon="-2.9067500">
        <ele>1242.4</ele>
        <time>2022-02-08T09:13:26Z</time>
      </trkpt>
      <trkpt lat="41.9191400" lon="-2.9067130">
        <ele>1242.6</ele>
        <time>2022-02-08T09:13:27Z</time>
      </trkpt>
      <trkpt lat="41.9191370" lon="-2.9066780">
        <ele>1242.7</ele>
        <time>2022-02-08T09:13:28Z</time>
      </trkpt>
      <trkpt lat="41.9191350" lon="-2.9066420">
        <ele>1242.9</ele>
        <time>2022-02-08T09:13:29Z</time>
      </trkpt>
      <trkpt lat="41.9191330" lon="-2.9066030">
        <ele>1243.1</ele>
        <time>2022-02-08T09:13:30Z</time>
      </trkpt>
      <trkpt lat="41.9191300" lon="-2.9065650">
        <ele>1243.3</ele>
        <time>2022-02-08T09:13:31Z</time>
      </trkpt>
      <trkpt lat="41.9191280" lon="-2.9065270">
        <ele>1243.4</ele>
        <time>2022-02-08T09:13:32Z</time>
      </trkpt>
      <trkpt lat="41.9191230" lon="-2.9064920">
        <ele>1243.6</ele>
        <time>2022-02-08T09:13:33Z</time>
      </trkpt>
      <trkpt lat="41.9191170" lon="-2.9064530">
        <ele>1243.8</ele>
        <time>2022-02-08T09:13:34Z</time>
      </trkpt>
      <trkpt lat="41.9191120" lon="-2.9064150">
        <ele>1244.0</ele>
        <time>2022-02-08T09:13:35Z</time>
      </trkpt>
      <trkpt lat="41.9191030" lon="-2.9063770">
        <ele>1244.2</ele>
        <time>2022-02-08T09:13:36Z</time>
      </trkpt>
      <trkpt lat="41.9190970" lon="-2.9063380">
        <ele>1244.4</ele>
        <time>2022-02-08T09:13:37Z</time>
      </trkpt>
      <trkpt lat="41.9190900" lon="-2.9063020">
        <ele>1244.5</ele>
        <time>2022-02-08T09:13:38Z</time>
      </trkpt>
      <trkpt lat="41.9190800" lon="-2.9062650">
        <ele>1244.7</ele>
        <time>2022-02-08T09:13:39Z</time>
      </trkpt>
      <trkpt lat="41.9190730" lon="-2.9062300">
        <ele>1244.9</ele>
        <time>2022-02-08T09:13:40Z</time>
      </trkpt>
      <trkpt lat="41.9190670" lon="-2.9062000">
        <ele>1245.1</ele>
        <time>2022-02-08T09:13:41Z</time>
      </trkpt>
      <trkpt lat="41.9190580" lon="-2.9061730">
        <ele>1245.2</ele>
        <time>2022-02-08T09:13:42Z</time>
      </trkpt>
      <trkpt lat="41.9190500" lon="-2.9061470">
        <ele>1245.3</ele>
        <time>2022-02-08T09:13:43Z</time>
      </trkpt>
      <trkpt lat="41.9190400" lon="-2.9061180">
        <ele>1245.5</ele>
        <time>2022-02-08T09:13:44Z</time>
      </trkpt>
      <trkpt lat="41.9190280" lon="-2.9060900">
        <ele>1245.7</ele>
        <time>2022-02-08T09:13:45Z</time>
      </trkpt>
      <trkpt lat="41.9190170" lon="-2.9060570">
        <ele>1245.8</ele>
        <time>2022-02-08T09:13:46Z</time>
      </trkpt>
      <trkpt lat="41.9190050" lon="-2.9060250">
        <ele>1246.0</ele>
        <time>2022-02-08T09:13:47Z</time>
      </trkpt>
      <trkpt lat="41.9189930" lon="-2.9059920">
        <ele>1246.2</ele>
        <time>2022-02-08T09:13:48Z</time>
      </trkpt>
      <trkpt lat="41.9189830" lon="-2.9059600">
        <ele>1246.4</ele>
        <time>2022-02-08T09:13:49Z</time>
      </trkpt>
      <trkpt lat="41.9189700" lon="-2.9059230">
        <ele>1246.6</ele>
        <time>2022-02-08T09:13:50Z</time>
      </trkpt>
      <trkpt lat="41.9189600" lon="-2.9058880">
        <ele>1246.8</ele>
        <time>2022-02-08T09:13:51Z</time>
      </trkpt>
      <trkpt lat="41.9189470" lon="-2.9058550">
        <ele>1247.0</ele>
        <time>2022-02-08T09:13:52Z</time>
      </trkpt>
      <trkpt lat="41.9189370" lon="-2.9058280">
        <ele>1247.1</ele>
        <time>2022-02-08T09:13:53Z</time>
      </trkpt>
      <trkpt lat="41.9189270" lon="-2.9058000">
        <ele>1247.3</ele>
        <time>2022-02-08T09:13:54Z</time>
      </trkpt>
      <trkpt lat="41.9189180" lon="-2.9057730">
        <ele>1247.4</ele>
        <time>2022-02-08T09:13:55Z</time>
      </trkpt>
      <trkpt lat="41.9189080" lon="-2.9057400">
        <ele>1247.6</ele>
        <time>2022-02-08T09:13:56Z</time>
      </trkpt>
      <trkpt lat="41.9189020" lon="-2.9057070">
        <ele>1247.8</ele>
        <time>2022-02-08T09:13:57Z</time>
      </trkpt>
      <trkpt lat="41.9188920" lon="-2.9056730">
        <ele>1248.0</ele>
        <time>2022-02-08T09:13:58Z</time>
      </trkpt>
      <trkpt lat="41.9188800" lon="-2.9056430">
        <ele>1248.2</ele>
        <time>2022-02-08T09:13:59Z</time>
      </trkpt>
      <trkpt lat="41.9188700" lon="-2.9056120">
        <ele>1248.4</ele>
        <time>2022-02-08T09:14:00Z</time>
      </trkpt>
      <trkpt lat="41.9188600" lon="-2.9055800">
        <ele>1248.5</ele>
        <time>2022-02-08T09:14:01Z</time>
      </trkpt>
      <trkpt lat="41.9188500" lon="-2.9055530">
        <ele>1248.7</ele>
        <time>2022-02-08T09:14:02Z</time>
      </trkpt>
      <trkpt lat="41.9188400" lon="-2.9055230">
        <ele>1248.9</ele>
        <time>2022-02-08T09:14:03Z</time>
      </trkpt>
      <trkpt lat="41.9188270" lon="-2.9054900">
        <ele>1249.1</ele>
        <time>2022-02-08T09:14:04Z</time>
      </trkpt>
      <trkpt lat="41.9188100" lon="-2.9054520">
        <ele>1249.3</ele>
        <time>2022-02-08T09:14:05Z</time>
      </trkpt>
      <trkpt lat="41.9187950" lon="-2.9054130">
        <ele>1249.5</ele>
        <time>2022-02-08T09:14:06Z</time>
      </trkpt>
      <trkpt lat="41.9187820" lon="-2.9053800">
        <ele>1249.7</ele>
        <time>2022-02-08T09:14:07Z</time>
      </trkpt>
      <trkpt lat="41.9187670" lon="-2.9053430">
        <ele>1249.9</ele>
        <time>2022-02-08T09:14:08Z</time>
      </trkpt>
      <trkpt lat="41.9187550" lon="-2.9053170">
        <ele>1250.0</ele>
        <time>2022-02-08T09:14:09Z</time>
      </trkpt>
      <trkpt lat="41.9187420" lon="-2.9052800">
        <ele>1250.3</ele>
        <time>2022-02-08T09:14:10Z</time>
      </trkpt>
      <trkpt lat="41.9187280" lon="-2.9052380">
        <ele>1250.5</ele>
        <time>2022-02-08T09:14:11Z</time>
      </trkpt>
      <trkpt lat="41.9187150" lon="-2.9052000">
        <ele>1250.7</ele>
        <time>2022-02-08T09:14:12Z</time>
      </trkpt>
      <trkpt lat="41.9187050" lon="-2.9051620">
        <ele>1250.9</ele>
        <time>2022-02-08T09:14:13Z</time>
      </trkpt>
      <trkpt lat="41.9186970" lon="-2.9051250">
        <ele>1251.0</ele>
        <time>2022-02-08T09:14:14Z</time>
      </trkpt>
      <trkpt lat="41.9186870" lon="-2.9050800">
        <ele>1251.2</ele>
        <time>2022-02-08T09:14:15Z</time>
      </trkpt>
      <trkpt lat="41.9186750" lon="-2.9050450">
        <ele>1251.4</ele>
        <time>2022-02-08T09:14:16Z</time>
      </trkpt>
      <trkpt lat="41.9186630" lon="-2.9050120">
        <ele>1251.6</ele>
        <time>2022-02-08T09:14:17Z</time>
      </trkpt>
      <trkpt lat="41.9186500" lon="-2.9049780">
        <ele>1251.7</ele>
        <time>2022-02-08T09:14:18Z</time>
      </trkpt>
      <trkpt lat="41.9186370" lon="-2.9049430">
        <ele>1251.9</ele>
        <time>2022-02-08T09:14:19Z</time>
      </trkpt>
      <trkpt lat="41.9186230" lon="-2.9049080">
        <ele>1252.0</ele>
        <time>2022-02-08T09:14:20Z</time>
      </trkpt>
      <trkpt lat="41.9186100" lon="-2.9048750">
        <ele>1252.2</ele>
        <time>2022-02-08T09:14:21Z</time>
      </trkpt>
      <trkpt lat="41.9185920" lon="-2.9048470">
        <ele>1252.3</ele>
        <time>2022-02-08T09:14:22Z</time>
      </trkpt>
      <trkpt lat="41.9185720" lon="-2.9048200">
        <ele>1252.4</ele>
        <time>2022-02-08T09:14:23Z</time>
      </trkpt>
      <trkpt lat="41.9185500" lon="-2.9047950">
        <ele>1252.6</ele>
        <time>2022-02-08T09:14:24Z</time>
      </trkpt>
      <trkpt lat="41.9185280" lon="-2.9047680">
        <ele>1252.7</ele>
        <time>2022-02-08T09:14:25Z</time>
      </trkpt>
      <trkpt lat="41.9185050" lon="-2.9047370">
        <ele>1252.9</ele>
        <time>2022-02-08T09:14:26Z</time>
      </trkpt>
      <trkpt lat="41.9184780" lon="-2.9047120">
        <ele>1253.0</ele>
        <time>2022-02-08T09:14:27Z</time>
      </trkpt>
      <trkpt lat="41.9184520" lon="-2.9046870">
        <ele>1253.1</ele>
        <time>2022-02-08T09:14:28Z</time>
      </trkpt>
      <trkpt lat="41.9184270" lon="-2.9046630">
        <ele>1253.3</ele>
        <time>2022-02-08T09:14:29Z</time>
      </trkpt>
      <trkpt lat="41.9183980" lon="-2.9046450">
        <ele>1253.4</ele>
        <time>2022-02-08T09:14:30Z</time>
      </trkpt>
      <trkpt lat="41.9183680" lon="-2.9046330">
        <ele>1253.5</ele>
        <time>2022-02-08T09:14:31Z</time>
      </trkpt>
      <trkpt lat="41.9183400" lon="-2.9046230">
        <ele>1253.6</ele>
        <time>2022-02-08T09:14:32Z</time>
      </trkpt>
      <trkpt lat="41.9183120" lon="-2.9046220">
        <ele>1254.8</ele>
        <time>2022-02-08T09:14:33Z</time>
      </trkpt>
      <trkpt lat="41.9182830" lon="-2.9046250">
        <ele>1254.9</ele>
        <time>2022-02-08T09:14:34Z</time>
      </trkpt>
      <trkpt lat="41.9182530" lon="-2.9046320">
        <ele>1255.0</ele>
        <time>2022-02-08T09:14:35Z</time>
      </trkpt>
      <trkpt lat="41.9182250" lon="-2.9046380">
        <ele>1255.1</ele>
        <time>2022-02-08T09:14:36Z</time>
      </trkpt>
      <trkpt lat="41.9181950" lon="-2.9046480">
        <ele>1255.2</ele>
        <time>2022-02-08T09:14:37Z</time>
      </trkpt>
      <trkpt lat="41.9181670" lon="-2.9046630">
        <ele>1255.4</ele>
        <time>2022-02-08T09:14:38Z</time>
      </trkpt>
      <trkpt lat="41.9181400" lon="-2.9046870">
        <ele>1255.5</ele>
        <time>2022-02-08T09:14:39Z</time>
      </trkpt>
      <trkpt lat="41.9181150" lon="-2.9047120">
        <ele>1255.6</ele>
        <time>2022-02-08T09:14:40Z</time>
      </trkpt>
      <trkpt lat="41.9180950" lon="-2.9047420">
        <ele>1255.7</ele>
        <time>2022-02-08T09:14:41Z</time>
      </trkpt>
      <trkpt lat="41.9180770" lon="-2.9047730">
        <ele>1255.9</ele>
        <time>2022-02-08T09:14:42Z</time>
      </trkpt>
      <trkpt lat="41.9180620" lon="-2.9048070">
        <ele>1256.0</ele>
        <time>2022-02-08T09:14:43Z</time>
      </trkpt>
      <trkpt lat="41.9180470" lon="-2.9048400">
        <ele>1256.1</ele>
        <time>2022-02-08T09:14:44Z</time>
      </trkpt>
      <trkpt lat="41.9180270" lon="-2.9048730">
        <ele>1256.3</ele>
        <time>2022-02-08T09:14:45Z</time>
      </trkpt>
      <trkpt lat="41.9180080" lon="-2.9049070">
        <ele>1256.5</ele>
        <time>2022-02-08T09:14:46Z</time>
      </trkpt>
      <trkpt lat="41.9179900" lon="-2.9049400">
        <ele>1256.7</ele>
        <time>2022-02-08T09:14:47Z</time>
      </trkpt>
      <trkpt lat="41.9179700" lon="-2.9049700">
        <ele>1256.9</ele>
        <time>2022-02-08T09:14:48Z</time>
      </trkpt>
      <trkpt lat="41.9179500" lon="-2.9050000">
        <ele>1257.1</ele>
        <time>2022-02-08T09:14:49Z</time>
      </trkpt>
      <trkpt lat="41.9179320" lon="-2.9050300">
        <ele>1257.3</ele>
        <time>2022-02-08T09:14:50Z</time>
      </trkpt>
      <trkpt lat="41.9179130" lon="-2.9050620">
        <ele>1257.5</ele>
        <time>2022-02-08T09:14:51Z</time>
      </trkpt>
      <trkpt lat="41.9178950" lon="-2.9050920">
        <ele>1257.7</ele>
        <time>2022-02-08T09:14:52Z</time>
      </trkpt>
      <trkpt lat="41.9178770" lon="-2.9051200">
        <ele>1257.8</ele>
        <time>2022-02-08T09:14:53Z</time>
      </trkpt>
      <trkpt lat="41.9178620" lon="-2.9051520">
        <ele>1258.0</ele>
        <time>2022-02-08T09:14:54Z</time>
      </trkpt>
      <trkpt lat="41.9178430" lon="-2.9051950">
        <ele>1258.3</ele>
        <time>2022-02-08T09:14:55Z</time>
      </trkpt>
      <trkpt lat="41.9178180" lon="-2.9052320">
        <ele>1258.5</ele>
        <time>2022-02-08T09:14:56Z</time>
      </trkpt>
      <trkpt lat="41.9177930" lon="-2.9052570">
        <ele>1258.7</ele>
        <time>2022-02-08T09:14:57Z</time>
      </trkpt>
      <trkpt lat="41.9177670" lon="-2.9052770">
        <ele>1258.9</ele>
        <time>2022-02-08T09:14:58Z</time>
      </trkpt>
      <trkpt lat="41.9177400" lon="-2.9052930">
        <ele>1259.1</ele>
        <time>2022-02-08T09:14:59Z</time>
      </trkpt>
      <trkpt lat="41.9177150" lon="-2.9053080">
        <ele>1259.3</ele>
        <time>2022-02-08T09:15:00Z</time>
      </trkpt>
      <trkpt lat="41.9176880" lon="-2.9053320">
        <ele>1259.5</ele>
        <time>2022-02-08T09:15:01Z</time>
      </trkpt>
      <trkpt lat="41.9176670" lon="-2.9053520">
        <ele>1259.7</ele>
        <time>2022-02-08T09:15:02Z</time>
      </trkpt>
      <trkpt lat="41.9176470" lon="-2.9053700">
        <ele>1259.9</ele>
        <time>2022-02-08T09:15:03Z</time>
      </trkpt>
      <trkpt lat="41.9176280" lon="-2.9053880">
        <ele>1260.0</ele>
        <time>2022-02-08T09:15:04Z</time>
      </trkpt>
      <trkpt lat="41.9176130" lon="-2.9054030">
        <ele>1260.1</ele>
        <time>2022-02-08T09:15:05Z</time>
      </trkpt>
      <trkpt lat="41.9175980" lon="-2.9054220">
        <ele>1260.3</ele>
        <time>2022-02-08T09:15:06Z</time>
      </trkpt>
      <trkpt lat="41.9175820" lon="-2.9054400">
        <ele>1260.4</ele>
        <time>2022-02-08T09:15:07Z</time>
      </trkpt>
      <trkpt lat="41.9175670" lon="-2.9054600">
        <ele>1260.5</ele>
        <time>2022-02-08T09:15:08Z</time>
      </trkpt>
      <trkpt lat="41.9175520" lon="-2.9054830">
        <ele>1260.7</ele>
        <time>2022-02-08T09:15:09Z</time>
      </trkpt>
      <trkpt lat="41.9175380" lon="-2.9055070">
        <ele>1260.8</ele>
        <time>2022-02-08T09:15:10Z</time>
      </trkpt>
      <trkpt lat="41.9175220" lon="-2.9055320">
        <ele>1260.9</ele>
        <time>2022-02-08T09:15:11Z</time>
      </trkpt>
      <trkpt lat="41.9175030" lon="-2.9055550">
        <ele>1261.1</ele>
        <time>2022-02-08T09:15:12Z</time>
      </trkpt>
      <trkpt lat="41.9174780" lon="-2.9055800">
        <ele>1261.3</ele>
        <time>2022-02-08T09:15:13Z</time>
      </trkpt>
      <trkpt lat="41.9174570" lon="-2.9056020">
        <ele>1261.4</ele>
        <time>2022-02-08T09:15:14Z</time>
      </trkpt>
      <trkpt lat="41.9174350" lon="-2.9056250">
        <ele>1261.6</ele>
        <time>2022-02-08T09:15:15Z</time>
      </trkpt>
      <trkpt lat="41.9174120" lon="-2.9056550">
        <ele>1261.7</ele>
        <time>2022-02-08T09:15:16Z</time>
      </trkpt>
      <trkpt lat="41.9173950" lon="-2.9056850">
        <ele>1261.9</ele>
        <time>2022-02-08T09:15:17Z</time>
      </trkpt>
      <trkpt lat="41.9173780" lon="-2.9057130">
        <ele>1262.0</ele>
        <time>2022-02-08T09:15:18Z</time>
      </trkpt>
      <trkpt lat="41.9173600" lon="-2.9057450">
        <ele>1262.2</ele>
        <time>2022-02-08T09:15:19Z</time>
      </trkpt>
      <trkpt lat="41.9173400" lon="-2.9057770">
        <ele>1262.3</ele>
        <time>2022-02-08T09:15:20Z</time>
      </trkpt>
      <trkpt lat="41.9173220" lon="-2.9058050">
        <ele>1262.5</ele>
        <time>2022-02-08T09:15:21Z</time>
      </trkpt>
      <trkpt lat="41.9173030" lon="-2.9058370">
        <ele>1262.6</ele>
        <time>2022-02-08T09:15:22Z</time>
      </trkpt>
      <trkpt lat="41.9172850" lon="-2.9058700">
        <ele>1262.8</ele>
        <time>2022-02-08T09:15:23Z</time>
      </trkpt>
      <trkpt lat="41.9172650" lon="-2.9059020">
        <ele>1263.0</ele>
        <time>2022-02-08T09:15:24Z</time>
      </trkpt>
      <trkpt lat="41.9172470" lon="-2.9059330">
        <ele>1263.1</ele>
        <time>2022-02-08T09:15:25Z</time>
      </trkpt>
      <trkpt lat="41.9172270" lon="-2.9059650">
        <ele>1263.3</ele>
        <time>2022-02-08T09:15:26Z</time>
      </trkpt>
      <trkpt lat="41.9172050" lon="-2.9059980">
        <ele>1263.5</ele>
        <time>2022-02-08T09:15:27Z</time>
      </trkpt>
      <trkpt lat="41.9171850" lon="-2.9060320">
        <ele>1263.6</ele>
        <time>2022-02-08T09:15:28Z</time>
      </trkpt>
      <trkpt lat="41.9171670" lon="-2.9060670">
        <ele>1263.8</ele>
        <time>2022-02-08T09:15:29Z</time>
      </trkpt>
      <trkpt lat="41.9171450" lon="-2.9060980">
        <ele>1264.0</ele>
        <time>2022-02-08T09:15:30Z</time>
      </trkpt>
      <trkpt lat="41.9171270" lon="-2.9061300">
        <ele>1264.1</ele>
        <time>2022-02-08T09:15:31Z</time>
      </trkpt>
      <trkpt lat="41.9171050" lon="-2.9061620">
        <ele>1264.3</ele>
        <time>2022-02-08T09:15:32Z</time>
      </trkpt>
      <trkpt lat="41.9170830" lon="-2.9061920">
        <ele>1264.4</ele>
        <time>2022-02-08T09:15:33Z</time>
      </trkpt>
      <trkpt lat="41.9170630" lon="-2.9062200">
        <ele>1264.5</ele>
        <time>2022-02-08T09:15:34Z</time>
      </trkpt>
      <trkpt lat="41.9170400" lon="-2.9062470">
        <ele>1264.7</ele>
        <time>2022-02-08T09:15:35Z</time>
      </trkpt>
      <trkpt lat="41.9170180" lon="-2.9062730">
        <ele>1264.8</ele>
        <time>2022-02-08T09:15:36Z</time>
      </trkpt>
      <trkpt lat="41.9169950" lon="-2.9063020">
        <ele>1265.0</ele>
        <time>2022-02-08T09:15:37Z</time>
      </trkpt>
      <trkpt lat="41.9169680" lon="-2.9063330">
        <ele>1265.1</ele>
        <time>2022-02-08T09:15:38Z</time>
      </trkpt>
      <trkpt lat="41.9169450" lon="-2.9063680">
        <ele>1265.3</ele>
        <time>2022-02-08T09:15:39Z</time>
      </trkpt>
      <trkpt lat="41.9169220" lon="-2.9064070">
        <ele>1265.5</ele>
        <time>2022-02-08T09:15:40Z</time>
      </trkpt>
      <trkpt lat="41.9169030" lon="-2.9064450">
        <ele>1265.6</ele>
        <time>2022-02-08T09:15:41Z</time>
      </trkpt>
      <trkpt lat="41.9168850" lon="-2.9064920">
        <ele>1265.8</ele>
        <time>2022-02-08T09:15:42Z</time>
      </trkpt>
      <trkpt lat="41.9168670" lon="-2.9065370">
        <ele>1266.0</ele>
        <time>2022-02-08T09:15:43Z</time>
      </trkpt>
      <trkpt lat="41.9168470" lon="-2.9065730">
        <ele>1266.2</ele>
        <time>2022-02-08T09:15:44Z</time>
      </trkpt>
      <trkpt lat="41.9168300" lon="-2.9066100">
        <ele>1266.4</ele>
        <time>2022-02-08T09:15:45Z</time>
      </trkpt>
      <trkpt lat="41.9168130" lon="-2.9066480">
        <ele>1266.6</ele>
        <time>2022-02-08T09:15:46Z</time>
      </trkpt>
      <trkpt lat="41.9168000" lon="-2.9066850">
        <ele>1266.8</ele>
        <time>2022-02-08T09:15:47Z</time>
      </trkpt>
      <trkpt lat="41.9167870" lon="-2.9067220">
        <ele>1267.0</ele>
        <time>2022-02-08T09:15:48Z</time>
      </trkpt>
      <trkpt lat="41.9167700" lon="-2.9067570">
        <ele>1267.1</ele>
        <time>2022-02-08T09:15:49Z</time>
      </trkpt>
      <trkpt lat="41.9167550" lon="-2.9067870">
        <ele>1267.3</ele>
        <time>2022-02-08T09:15:50Z</time>
      </trkpt>
      <trkpt lat="41.9167380" lon="-2.9068200">
        <ele>1267.5</ele>
        <time>2022-02-08T09:15:51Z</time>
      </trkpt>
      <trkpt lat="41.9167280" lon="-2.9068480">
        <ele>1267.6</ele>
        <time>2022-02-08T09:15:52Z</time>
      </trkpt>
      <trkpt lat="41.9167170" lon="-2.9068750">
        <ele>1267.7</ele>
        <time>2022-02-08T09:15:53Z</time>
      </trkpt>
      <trkpt lat="41.9167030" lon="-2.9069000">
        <ele>1267.9</ele>
        <time>2022-02-08T09:15:54Z</time>
      </trkpt>
      <trkpt lat="41.9166880" lon="-2.9069250">
        <ele>1268.0</ele>
        <time>2022-02-08T09:15:55Z</time>
      </trkpt>
      <trkpt lat="41.9166730" lon="-2.9069500">
        <ele>1268.1</ele>
        <time>2022-02-08T09:15:56Z</time>
      </trkpt>
      <trkpt lat="41.9166630" lon="-2.9069750">
        <ele>1268.3</ele>
        <time>2022-02-08T09:15:57Z</time>
      </trkpt>
      <trkpt lat="41.9166530" lon="-2.9070050">
        <ele>1268.4</ele>
        <time>2022-02-08T09:15:58Z</time>
      </trkpt>
      <trkpt lat="41.9166420" lon="-2.9070300">
        <ele>1268.6</ele>
        <time>2022-02-08T09:15:59Z</time>
      </trkpt>
      <trkpt lat="41.9166300" lon="-2.9070520">
        <ele>1268.7</ele>
        <time>2022-02-08T09:16:00Z</time>
      </trkpt>
      <trkpt lat="41.9166220" lon="-2.9070770">
        <ele>1268.8</ele>
        <time>2022-02-08T09:16:01Z</time>
      </trkpt>
      <trkpt lat="41.9166120" lon="-2.9071030">
        <ele>1268.9</ele>
        <time>2022-02-08T09:16:02Z</time>
      </trkpt>
      <trkpt lat="41.9166050" lon="-2.9071300">
        <ele>1269.1</ele>
        <time>2022-02-08T09:16:03Z</time>
      </trkpt>
      <trkpt lat="41.9166000" lon="-2.9071530">
        <ele>1269.2</ele>
        <time>2022-02-08T09:16:04Z</time>
      </trkpt>
      <trkpt lat="41.9165900" lon="-2.9071780">
        <ele>1269.3</ele>
        <time>2022-02-08T09:16:05Z</time>
      </trkpt>
      <trkpt lat="41.9165770" lon="-2.9072000">
        <ele>1269.4</ele>
        <time>2022-02-08T09:16:06Z</time>
      </trkpt>
      <trkpt lat="41.9165620" lon="-2.9072220">
        <ele>1269.6</ele>
        <time>2022-02-08T09:16:07Z</time>
      </trkpt>
      <trkpt lat="41.9165480" lon="-2.9072420">
        <ele>1269.7</ele>
        <time>2022-02-08T09:16:08Z</time>
      </trkpt>
      <trkpt lat="41.9165280" lon="-2.9072770">
        <ele>1269.9</ele>
        <time>2022-02-08T09:16:09Z</time>
      </trkpt>
      <trkpt lat="41.9165080" lon="-2.9073070">
        <ele>1270.1</ele>
        <time>2022-02-08T09:16:10Z</time>
      </trkpt>
      <trkpt lat="41.9164900" lon="-2.9073420">
        <ele>1270.3</ele>
        <time>2022-02-08T09:16:11Z</time>
      </trkpt>
      <trkpt lat="41.9164720" lon="-2.9073720">
        <ele>1270.4</ele>
        <time>2022-02-08T09:16:12Z</time>
      </trkpt>
      <trkpt lat="41.9164530" lon="-2.9073920">
        <ele>1270.5</ele>
        <time>2022-02-08T09:16:13Z</time>
      </trkpt>
      <trkpt lat="41.9164280" lon="-2.9074230">
        <ele>1270.7</ele>
        <time>2022-02-08T09:16:14Z</time>
      </trkpt>
      <trkpt lat="41.9164050" lon="-2.9074480">
        <ele>1270.9</ele>
        <time>2022-02-08T09:16:15Z</time>
      </trkpt>
      <trkpt lat="41.9163800" lon="-2.9074720">
        <ele>1271.0</ele>
        <time>2022-02-08T09:16:16Z</time>
      </trkpt>
      <trkpt lat="41.9163550" lon="-2.9074950">
        <ele>1271.2</ele>
        <time>2022-02-08T09:16:17Z</time>
      </trkpt>
      <trkpt lat="41.9163280" lon="-2.9075180">
        <ele>1271.4</ele>
        <time>2022-02-08T09:16:18Z</time>
      </trkpt>
      <trkpt lat="41.9163030" lon="-2.9075450">
        <ele>1271.5</ele>
        <time>2022-02-08T09:16:19Z</time>
      </trkpt>
      <trkpt lat="41.9162800" lon="-2.9075720">
        <ele>1271.7</ele>
        <time>2022-02-08T09:16:20Z</time>
      </trkpt>
      <trkpt lat="41.9162600" lon="-2.9076020">
        <ele>1271.9</ele>
        <time>2022-02-08T09:16:21Z</time>
      </trkpt>
      <trkpt lat="41.9162380" lon="-2.9076300">
        <ele>1272.1</ele>
        <time>2022-02-08T09:16:22Z</time>
      </trkpt>
      <trkpt lat="41.9162180" lon="-2.9076600">
        <ele>1272.3</ele>
        <time>2022-02-08T09:16:23Z</time>
      </trkpt>
      <trkpt lat="41.9162020" lon="-2.9076880">
        <ele>1272.4</ele>
        <time>2022-02-08T09:16:24Z</time>
      </trkpt>
      <trkpt lat="41.9161870" lon="-2.9077180">
        <ele>1272.6</ele>
        <time>2022-02-08T09:16:25Z</time>
      </trkpt>
      <trkpt lat="41.9161680" lon="-2.9077480">
        <ele>1272.9</ele>
        <time>2022-02-08T09:16:26Z</time>
      </trkpt>
      <trkpt lat="41.9161470" lon="-2.9077750">
        <ele>1273.1</ele>
        <time>2022-02-08T09:16:27Z</time>
      </trkpt>
      <trkpt lat="41.9161230" lon="-2.9078020">
        <ele>1273.4</ele>
        <time>2022-02-08T09:16:28Z</time>
      </trkpt>
      <trkpt lat="41.9161030" lon="-2.9078280">
        <ele>1273.6</ele>
        <time>2022-02-08T09:16:29Z</time>
      </trkpt>
      <trkpt lat="41.9160880" lon="-2.9078520">
        <ele>1273.8</ele>
        <time>2022-02-08T09:16:30Z</time>
      </trkpt>
      <trkpt lat="41.9160720" lon="-2.9078750">
        <ele>1274.0</ele>
        <time>2022-02-08T09:16:31Z</time>
      </trkpt>
      <trkpt lat="41.9160570" lon="-2.9079030">
        <ele>1274.3</ele>
        <time>2022-02-08T09:16:32Z</time>
      </trkpt>
      <trkpt lat="41.9160450" lon="-2.9079250">
        <ele>1274.5</ele>
        <time>2022-02-08T09:16:33Z</time>
      </trkpt>
      <trkpt lat="41.9160330" lon="-2.9079470">
        <ele>1274.6</ele>
        <time>2022-02-08T09:16:34Z</time>
      </trkpt>
      <trkpt lat="41.9160180" lon="-2.9079720">
        <ele>1274.9</ele>
        <time>2022-02-08T09:16:35Z</time>
      </trkpt>
      <trkpt lat="41.9160100" lon="-2.9079920">
        <ele>1275.0</ele>
        <time>2022-02-08T09:16:36Z</time>
      </trkpt>
      <trkpt lat="41.9159980" lon="-2.9080180">
        <ele>1275.2</ele>
        <time>2022-02-08T09:16:37Z</time>
      </trkpt>
      <trkpt lat="41.9159850" lon="-2.9080400">
        <ele>1275.4</ele>
        <time>2022-02-08T09:16:38Z</time>
      </trkpt>
      <trkpt lat="41.9159650" lon="-2.9080650">
        <ele>1275.6</ele>
        <time>2022-02-08T09:16:39Z</time>
      </trkpt>
      <trkpt lat="41.9159450" lon="-2.9080850">
        <ele>1275.8</ele>
        <time>2022-02-08T09:16:40Z</time>
      </trkpt>
      <trkpt lat="41.9159230" lon="-2.9081030">
        <ele>1275.9</ele>
        <time>2022-02-08T09:16:41Z</time>
      </trkpt>
      <trkpt lat="41.9159000" lon="-2.9081200">
        <ele>1276.1</ele>
        <time>2022-02-08T09:16:42Z</time>
      </trkpt>
      <trkpt lat="41.9158770" lon="-2.9081370">
        <ele>1276.3</ele>
        <time>2022-02-08T09:16:43Z</time>
      </trkpt>
      <trkpt lat="41.9158520" lon="-2.9081530">
        <ele>1276.4</ele>
        <time>2022-02-08T09:16:44Z</time>
      </trkpt>
      <trkpt lat="41.9158280" lon="-2.9081720">
        <ele>1276.6</ele>
        <time>2022-02-08T09:16:45Z</time>
      </trkpt>
      <trkpt lat="41.9158050" lon="-2.9081930">
        <ele>1276.7</ele>
        <time>2022-02-08T09:16:46Z</time>
      </trkpt>
      <trkpt lat="41.9157800" lon="-2.9082130">
        <ele>1276.9</ele>
        <time>2022-02-08T09:16:47Z</time>
      </trkpt>
      <trkpt lat="41.9157530" lon="-2.9082350">
        <ele>1277.1</ele>
        <time>2022-02-08T09:16:48Z</time>
      </trkpt>
      <trkpt lat="41.9157280" lon="-2.9082580">
        <ele>1277.2</ele>
        <time>2022-02-08T09:16:49Z</time>
      </trkpt>
      <trkpt lat="41.9157070" lon="-2.9082830">
        <ele>1277.4</ele>
        <time>2022-02-08T09:16:50Z</time>
      </trkpt>
      <trkpt lat="41.9156850" lon="-2.9083100">
        <ele>1277.5</ele>
        <time>2022-02-08T09:16:51Z</time>
      </trkpt>
      <trkpt lat="41.9156650" lon="-2.9083330">
        <ele>1277.7</ele>
        <time>2022-02-08T09:16:52Z</time>
      </trkpt>
      <trkpt lat="41.9156430" lon="-2.9083600">
        <ele>1277.9</ele>
        <time>2022-02-08T09:16:53Z</time>
      </trkpt>
      <trkpt lat="41.9156220" lon="-2.9083870">
        <ele>1278.1</ele>
        <time>2022-02-08T09:16:54Z</time>
      </trkpt>
      <trkpt lat="41.9156000" lon="-2.9084170">
        <ele>1278.3</ele>
        <time>2022-02-08T09:16:55Z</time>
      </trkpt>
      <trkpt lat="41.9155830" lon="-2.9084420">
        <ele>1278.5</ele>
        <time>2022-02-08T09:16:56Z</time>
      </trkpt>
      <trkpt lat="41.9155720" lon="-2.9084720">
        <ele>1278.8</ele>
        <time>2022-02-08T09:16:57Z</time>
      </trkpt>
      <trkpt lat="41.9155600" lon="-2.9084980">
        <ele>1279.0</ele>
        <time>2022-02-08T09:16:58Z</time>
      </trkpt>
      <trkpt lat="41.9155500" lon="-2.9085250">
        <ele>1279.2</ele>
        <time>2022-02-08T09:16:59Z</time>
      </trkpt>
      <trkpt lat="41.9155400" lon="-2.9085530">
        <ele>1279.5</ele>
        <time>2022-02-08T09:17:00Z</time>
      </trkpt>
      <trkpt lat="41.9155300" lon="-2.9085870">
        <ele>1279.8</ele>
        <time>2022-02-08T09:17:01Z</time>
      </trkpt>
      <trkpt lat="41.9155180" lon="-2.9086200">
        <ele>1280.2</ele>
        <time>2022-02-08T09:17:02Z</time>
      </trkpt>
      <trkpt lat="41.9155080" lon="-2.9086480">
        <ele>1280.5</ele>
        <time>2022-02-08T09:17:03Z</time>
      </trkpt>
      <trkpt lat="41.9154980" lon="-2.9086750">
        <ele>1280.8</ele>
        <time>2022-02-08T09:17:04Z</time>
      </trkpt>
      <trkpt lat="41.9154900" lon="-2.9087000">
        <ele>1281.1</ele>
        <time>2022-02-08T09:17:05Z</time>
      </trkpt>
      <trkpt lat="41.9154800" lon="-2.9087280">
        <ele>1281.5</ele>
        <time>2022-02-08T09:17:06Z</time>
      </trkpt>
      <trkpt lat="41.9154720" lon="-2.9087520">
        <ele>1281.8</ele>
        <time>2022-02-08T09:17:07Z</time>
      </trkpt>
      <trkpt lat="41.9154630" lon="-2.9087730">
        <ele>1282.1</ele>
        <time>2022-02-08T09:17:08Z</time>
      </trkpt>
      <trkpt lat="41.9154530" lon="-2.9087980">
        <ele>1282.4</ele>
        <time>2022-02-08T09:17:09Z</time>
      </trkpt>
      <trkpt lat="41.9154470" lon="-2.9088270">
        <ele>1282.8</ele>
        <time>2022-02-08T09:17:10Z</time>
      </trkpt>
      <trkpt lat="41.9154350" lon="-2.9088500">
        <ele>1283.2</ele>
        <time>2022-02-08T09:17:11Z</time>
      </trkpt>
      <trkpt lat="41.9154220" lon="-2.9088700">
        <ele>1283.5</ele>
        <time>2022-02-08T09:17:12Z</time>
      </trkpt>
      <trkpt lat="41.9154100" lon="-2.9088880">
        <ele>1283.8</ele>
        <time>2022-02-08T09:17:13Z</time>
      </trkpt>
      <trkpt lat="41.9153980" lon="-2.9089050">
        <ele>1284.1</ele>
        <time>2022-02-08T09:17:14Z</time>
      </trkpt>
      <trkpt lat="41.9153870" lon="-2.9089220">
        <ele>1284.4</ele>
        <time>2022-02-08T09:17:15Z</time>
      </trkpt>
      <trkpt lat="41.9153780" lon="-2.9089380">
        <ele>1284.7</ele>
        <time>2022-02-08T09:17:16Z</time>
      </trkpt>
      <trkpt lat="41.9153730" lon="-2.9089620">
        <ele>1285.0</ele>
        <time>2022-02-08T09:17:17Z</time>
      </trkpt>
      <trkpt lat="41.9153680" lon="-2.9089900">
        <ele>1285.4</ele>
        <time>2022-02-08T09:17:18Z</time>
      </trkpt>
      <trkpt lat="41.9153580" lon="-2.9090100">
        <ele>1285.7</ele>
        <time>2022-02-08T09:17:19Z</time>
      </trkpt>
      <trkpt lat="41.9153480" lon="-2.9090230">
        <ele>1286.0</ele>
        <time>2022-02-08T09:17:20Z</time>
      </trkpt>
      <trkpt lat="41.9153380" lon="-2.9090380">
        <ele>1286.2</ele>
        <time>2022-02-08T09:17:21Z</time>
      </trkpt>
      <trkpt lat="41.9153230" lon="-2.9090620">
        <ele>1286.6</ele>
        <time>2022-02-08T09:17:22Z</time>
      </trkpt>
      <trkpt lat="41.9153150" lon="-2.9090820">
        <ele>1286.9</ele>
        <time>2022-02-08T09:17:23Z</time>
      </trkpt>
      <trkpt lat="41.9153030" lon="-2.9091080">
        <ele>1287.3</ele>
        <time>2022-02-08T09:17:24Z</time>
      </trkpt>
      <trkpt lat="41.9152920" lon="-2.9091300">
        <ele>1287.6</ele>
        <time>2022-02-08T09:17:25Z</time>
      </trkpt>
      <trkpt lat="41.9152800" lon="-2.9091470">
        <ele>1287.8</ele>
        <time>2022-02-08T09:17:26Z</time>
      </trkpt>
      <trkpt lat="41.9152700" lon="-2.9091630">
        <ele>1288.1</ele>
        <time>2022-02-08T09:17:27Z</time>
      </trkpt>
      <trkpt lat="41.9152580" lon="-2.9091780">
        <ele>1288.3</ele>
        <time>2022-02-08T09:17:28Z</time>
      </trkpt>
      <trkpt lat="41.9152480" lon="-2.9091980">
        <ele>1288.6</ele>
        <time>2022-02-08T09:17:29Z</time>
      </trkpt>
      <trkpt lat="41.9152420" lon="-2.9092180">
        <ele>1288.8</ele>
        <time>2022-02-08T09:17:30Z</time>
      </trkpt>
      <trkpt lat="41.9152320" lon="-2.9092400">
        <ele>1289.0</ele>
        <time>2022-02-08T09:17:31Z</time>
      </trkpt>
      <trkpt lat="41.9152180" lon="-2.9092650">
        <ele>1289.3</ele>
        <time>2022-02-08T09:17:32Z</time>
      </trkpt>
      <trkpt lat="41.9152030" lon="-2.9092880">
        <ele>1289.6</ele>
        <time>2022-02-08T09:17:33Z</time>
      </trkpt>
      <trkpt lat="41.9151870" lon="-2.9093050">
        <ele>1289.8</ele>
        <time>2022-02-08T09:17:34Z</time>
      </trkpt>
      <trkpt lat="41.9151700" lon="-2.9093220">
        <ele>1290.0</ele>
        <time>2022-02-08T09:17:35Z</time>
      </trkpt>
      <trkpt lat="41.9151530" lon="-2.9093370">
        <ele>1290.2</ele>
        <time>2022-02-08T09:17:36Z</time>
      </trkpt>
      <trkpt lat="41.9151350" lon="-2.9093520">
        <ele>1290.5</ele>
        <time>2022-02-08T09:17:37Z</time>
      </trkpt>
      <trkpt lat="41.9151180" lon="-2.9093630">
        <ele>1290.7</ele>
        <time>2022-02-08T09:17:38Z</time>
      </trkpt>
      <trkpt lat="41.9151000" lon="-2.9093730">
        <ele>1290.8</ele>
        <time>2022-02-08T09:17:39Z</time>
      </trkpt>
      <trkpt lat="41.9150850" lon="-2.9093820">
        <ele>1291.0</ele>
        <time>2022-02-08T09:17:40Z</time>
      </trkpt>
      <trkpt lat="41.9150700" lon="-2.9093880">
        <ele>1291.1</ele>
        <time>2022-02-08T09:17:41Z</time>
      </trkpt>
      <trkpt lat="41.9150530" lon="-2.9093950">
        <ele>1291.2</ele>
        <time>2022-02-08T09:17:42Z</time>
      </trkpt>
      <trkpt lat="41.9150330" lon="-2.9094050">
        <ele>1291.4</ele>
        <time>2022-02-08T09:17:43Z</time>
      </trkpt>
      <trkpt lat="41.9150130" lon="-2.9094130">
        <ele>1291.6</ele>
        <time>2022-02-08T09:17:44Z</time>
      </trkpt>
      <trkpt lat="41.9149930" lon="-2.9094230">
        <ele>1291.7</ele>
        <time>2022-02-08T09:17:45Z</time>
      </trkpt>
      <trkpt lat="41.9149720" lon="-2.9094320">
        <ele>1291.9</ele>
        <time>2022-02-08T09:17:46Z</time>
      </trkpt>
      <trkpt lat="41.9149530" lon="-2.9094400">
        <ele>1292.0</ele>
        <time>2022-02-08T09:17:47Z</time>
      </trkpt>
      <trkpt lat="41.9149330" lon="-2.9094480">
        <ele>1292.1</ele>
        <time>2022-02-08T09:17:48Z</time>
      </trkpt>
      <trkpt lat="41.9149120" lon="-2.9094600">
        <ele>1292.2</ele>
        <time>2022-02-08T09:17:49Z</time>
      </trkpt>
      <trkpt lat="41.9148920" lon="-2.9094720">
        <ele>1292.3</ele>
        <time>2022-02-08T09:17:50Z</time>
      </trkpt>
      <trkpt lat="41.9148730" lon="-2.9094850">
        <ele>1292.5</ele>
        <time>2022-02-08T09:17:51Z</time>
      </trkpt>
      <trkpt lat="41.9148530" lon="-2.9094980">
        <ele>1292.6</ele>
        <time>2022-02-08T09:17:52Z</time>
      </trkpt>
      <trkpt lat="41.9148330" lon="-2.9095080">
        <ele>1292.7</ele>
        <time>2022-02-08T09:17:53Z</time>
      </trkpt>
      <trkpt lat="41.9148130" lon="-2.9095130">
        <ele>1292.8</ele>
        <time>2022-02-08T09:17:54Z</time>
      </trkpt>
      <trkpt lat="41.9147880" lon="-2.9095150">
        <ele>1292.9</ele>
        <time>2022-02-08T09:17:55Z</time>
      </trkpt>
      <trkpt lat="41.9147620" lon="-2.9095220">
        <ele>1293.1</ele>
        <time>2022-02-08T09:17:56Z</time>
      </trkpt>
      <trkpt lat="41.9147330" lon="-2.9095250">
        <ele>1293.2</ele>
        <time>2022-02-08T09:17:57Z</time>
      </trkpt>
      <trkpt lat="41.9147030" lon="-2.9095300">
        <ele>1293.4</ele>
        <time>2022-02-08T09:17:58Z</time>
      </trkpt>
      <trkpt lat="41.9146770" lon="-2.9095330">
        <ele>1293.6</ele>
        <time>2022-02-08T09:17:59Z</time>
      </trkpt>
      <trkpt lat="41.9146500" lon="-2.9095380">
        <ele>1293.8</ele>
        <time>2022-02-08T09:18:00Z</time>
      </trkpt>
      <trkpt lat="41.9146230" lon="-2.9095470">
        <ele>1294.0</ele>
        <time>2022-02-08T09:18:01Z</time>
      </trkpt>
      <trkpt lat="41.9145950" lon="-2.9095570">
        <ele>1294.2</ele>
        <time>2022-02-08T09:18:02Z</time>
      </trkpt>
      <trkpt lat="41.9145680" lon="-2.9095680">
        <ele>1294.4</ele>
        <time>2022-02-08T09:18:03Z</time>
      </trkpt>
      <trkpt lat="41.9145450" lon="-2.9095820">
        <ele>1294.6</ele>
        <time>2022-02-08T09:18:04Z</time>
      </trkpt>
      <trkpt lat="41.9145200" lon="-2.9095950">
        <ele>1294.8</ele>
        <time>2022-02-08T09:18:05Z</time>
      </trkpt>
      <trkpt lat="41.9144980" lon="-2.9096100">
        <ele>1295.0</ele>
        <time>2022-02-08T09:18:06Z</time>
      </trkpt>
      <trkpt lat="41.9144770" lon="-2.9096220">
        <ele>1295.2</ele>
        <time>2022-02-08T09:18:07Z</time>
      </trkpt>
      <trkpt lat="41.9144550" lon="-2.9096280">
        <ele>1295.4</ele>
        <time>2022-02-08T09:18:08Z</time>
      </trkpt>
      <trkpt lat="41.9144330" lon="-2.9096350">
        <ele>1295.6</ele>
        <time>2022-02-08T09:18:09Z</time>
      </trkpt>
      <trkpt lat="41.9144130" lon="-2.9096400">
        <ele>1295.8</ele>
        <time>2022-02-08T09:18:10Z</time>
      </trkpt>
      <trkpt lat="41.9143930" lon="-2.9096450">
        <ele>1296.0</ele>
        <time>2022-02-08T09:18:11Z</time>
      </trkpt>
      <trkpt lat="41.9143720" lon="-2.9096500">
        <ele>1296.2</ele>
        <time>2022-02-08T09:18:12Z</time>
      </trkpt>
      <trkpt lat="41.9143520" lon="-2.9096550">
        <ele>1296.3</ele>
        <time>2022-02-08T09:18:13Z</time>
      </trkpt>
      <trkpt lat="41.9143300" lon="-2.9096600">
        <ele>1296.5</ele>
        <time>2022-02-08T09:18:14Z</time>
      </trkpt>
      <trkpt lat="41.9143050" lon="-2.9096630">
        <ele>1296.8</ele>
        <time>2022-02-08T09:18:15Z</time>
      </trkpt>
      <trkpt lat="41.9142820" lon="-2.9096650">
        <ele>1297.0</ele>
        <time>2022-02-08T09:18:16Z</time>
      </trkpt>
      <trkpt lat="41.9142580" lon="-2.9096720">
        <ele>1297.2</ele>
        <time>2022-02-08T09:18:17Z</time>
      </trkpt>
      <trkpt lat="41.9142350" lon="-2.9096780">
        <ele>1297.3</ele>
        <time>2022-02-08T09:18:18Z</time>
      </trkpt>
      <trkpt lat="41.9142120" lon="-2.9096830">
        <ele>1297.5</ele>
        <time>2022-02-08T09:18:19Z</time>
      </trkpt>
      <trkpt lat="41.9141900" lon="-2.9096900">
        <ele>1297.7</ele>
        <time>2022-02-08T09:18:20Z</time>
      </trkpt>
      <trkpt lat="41.9141680" lon="-2.9096930">
        <ele>1297.8</ele>
        <time>2022-02-08T09:18:21Z</time>
      </trkpt>
      <trkpt lat="41.9141430" lon="-2.9096930">
        <ele>1298.0</ele>
        <time>2022-02-08T09:18:22Z</time>
      </trkpt>
      <trkpt lat="41.9141200" lon="-2.9096970">
        <ele>1298.1</ele>
        <time>2022-02-08T09:18:23Z</time>
      </trkpt>
      <trkpt lat="41.9140920" lon="-2.9097030">
        <ele>1298.3</ele>
        <time>2022-02-08T09:18:24Z</time>
      </trkpt>
      <trkpt lat="41.9140630" lon="-2.9097100">
        <ele>1298.4</ele>
        <time>2022-02-08T09:18:25Z</time>
      </trkpt>
      <trkpt lat="41.9140370" lon="-2.9097150">
        <ele>1298.5</ele>
        <time>2022-02-08T09:18:26Z</time>
      </trkpt>
      <trkpt lat="41.9140120" lon="-2.9097250">
        <ele>1298.7</ele>
        <time>2022-02-08T09:18:27Z</time>
      </trkpt>
      <trkpt lat="41.9139870" lon="-2.9097320">
        <ele>1298.8</ele>
        <time>2022-02-08T09:18:28Z</time>
      </trkpt>
      <trkpt lat="41.9139620" lon="-2.9097370">
        <ele>1298.9</ele>
        <time>2022-02-08T09:18:29Z</time>
      </trkpt>
      <trkpt lat="41.9139350" lon="-2.9097420">
        <ele>1299.0</ele>
        <time>2022-02-08T09:18:30Z</time>
      </trkpt>
      <trkpt lat="41.9139080" lon="-2.9097500">
        <ele>1299.1</ele>
        <time>2022-02-08T09:18:31Z</time>
      </trkpt>
      <trkpt lat="41.9138820" lon="-2.9097550">
        <ele>1299.2</ele>
        <time>2022-02-08T09:18:32Z</time>
      </trkpt>
      <trkpt lat="41.9138570" lon="-2.9097600">
        <ele>1299.3</ele>
        <time>2022-02-08T09:18:33Z</time>
      </trkpt>
      <trkpt lat="41.9138300" lon="-2.9097620">
        <ele>1299.5</ele>
        <time>2022-02-08T09:18:34Z</time>
      </trkpt>
      <trkpt lat="41.9138050" lon="-2.9097650">
        <ele>1299.6</ele>
        <time>2022-02-08T09:18:35Z</time>
      </trkpt>
      <trkpt lat="41.9137820" lon="-2.9097670">
        <ele>1299.7</ele>
        <time>2022-02-08T09:18:36Z</time>
      </trkpt>
      <trkpt lat="41.9137570" lon="-2.9097630">
        <ele>1299.8</ele>
        <time>2022-02-08T09:18:37Z</time>
      </trkpt>
      <trkpt lat="41.9137320" lon="-2.9097630">
        <ele>1299.9</ele>
        <time>2022-02-08T09:18:38Z</time>
      </trkpt>
      <trkpt lat="41.9137050" lon="-2.9097670">
        <ele>1300.1</ele>
        <time>2022-02-08T09:18:39Z</time>
      </trkpt>
      <trkpt lat="41.9136800" lon="-2.9097670">
        <ele>1300.2</ele>
        <time>2022-02-08T09:18:40Z</time>
      </trkpt>
      <trkpt lat="41.9136580" lon="-2.9097750">
        <ele>1300.3</ele>
        <time>2022-02-08T09:18:41Z</time>
      </trkpt>
      <trkpt lat="41.9136400" lon="-2.9097830">
        <ele>1300.5</ele>
        <time>2022-02-08T09:18:42Z</time>
      </trkpt>
      <trkpt lat="41.9136200" lon="-2.9097930">
        <ele>1300.6</ele>
        <time>2022-02-08T09:18:43Z</time>
      </trkpt>
      <trkpt lat="41.9135980" lon="-2.9098000">
        <ele>1300.8</ele>
        <time>2022-02-08T09:18:44Z</time>
      </trkpt>
      <trkpt lat="41.9135770" lon="-2.9098100">
        <ele>1301.0</ele>
        <time>2022-02-08T09:18:45Z</time>
      </trkpt>
      <trkpt lat="41.9135550" lon="-2.9098220">
        <ele>1301.2</ele>
        <time>2022-02-08T09:18:46Z</time>
      </trkpt>
      <trkpt lat="41.9135350" lon="-2.9098330">
        <ele>1301.4</ele>
        <time>2022-02-08T09:18:47Z</time>
      </trkpt>
      <trkpt lat="41.9135170" lon="-2.9098450">
        <ele>1301.6</ele>
        <time>2022-02-08T09:18:48Z</time>
      </trkpt>
      <trkpt lat="41.9135030" lon="-2.9098620">
        <ele>1301.8</ele>
        <time>2022-02-08T09:18:49Z</time>
      </trkpt>
      <trkpt lat="41.9134870" lon="-2.9098750">
        <ele>1302.0</ele>
        <time>2022-02-08T09:18:50Z</time>
      </trkpt>
      <trkpt lat="41.9134700" lon="-2.9098870">
        <ele>1302.2</ele>
        <time>2022-02-08T09:18:51Z</time>
      </trkpt>
      <trkpt lat="41.9134530" lon="-2.9098970">
        <ele>1302.4</ele>
        <time>2022-02-08T09:18:52Z</time>
      </trkpt>
      <trkpt lat="41.9134380" lon="-2.9099070">
        <ele>1302.6</ele>
        <time>2022-02-08T09:18:53Z</time>
      </trkpt>
      <trkpt lat="41.9134150" lon="-2.9099300">
        <ele>1303.0</ele>
        <time>2022-02-08T09:18:54Z</time>
      </trkpt>
      <trkpt lat="41.9133900" lon="-2.9099530">
        <ele>1303.4</ele>
        <time>2022-02-08T09:18:55Z</time>
      </trkpt>
      <trkpt lat="41.9133680" lon="-2.9099670">
        <ele>1303.7</ele>
        <time>2022-02-08T09:18:56Z</time>
      </trkpt>
      <trkpt lat="41.9133480" lon="-2.9099800">
        <ele>1304.0</ele>
        <time>2022-02-08T09:18:57Z</time>
      </trkpt>
      <trkpt lat="41.9133350" lon="-2.9099900">
        <ele>1304.2</ele>
        <time>2022-02-08T09:18:58Z</time>
      </trkpt>
      <trkpt lat="41.9133220" lon="-2.9100020">
        <ele>1304.4</ele>
        <time>2022-02-08T09:18:59Z</time>
      </trkpt>
      <trkpt lat="41.9133080" lon="-2.9100150">
        <ele>1304.7</ele>
        <time>2022-02-08T09:19:00Z</time>
      </trkpt>
      <trkpt lat="41.9132950" lon="-2.9100280">
        <ele>1304.9</ele>
        <time>2022-02-08T09:19:01Z</time>
      </trkpt>
      <trkpt lat="41.9132830" lon="-2.9100480">
        <ele>1305.2</ele>
        <time>2022-02-08T09:19:02Z</time>
      </trkpt>
      <trkpt lat="41.9132730" lon="-2.9100730">
        <ele>1305.5</ele>
        <time>2022-02-08T09:19:03Z</time>
      </trkpt>
      <trkpt lat="41.9132650" lon="-2.9100950">
        <ele>1305.8</ele>
        <time>2022-02-08T09:19:04Z</time>
      </trkpt>
      <trkpt lat="41.9132550" lon="-2.9101150">
        <ele>1306.0</ele>
        <time>2022-02-08T09:19:05Z</time>
      </trkpt>
      <trkpt lat="41.9132430" lon="-2.9101320">
        <ele>1306.3</ele>
        <time>2022-02-08T09:19:06Z</time>
      </trkpt>
      <trkpt lat="41.9132320" lon="-2.9101480">
        <ele>1306.5</ele>
        <time>2022-02-08T09:19:07Z</time>
      </trkpt>
      <trkpt lat="41.9132200" lon="-2.9101600">
        <ele>1306.7</ele>
        <time>2022-02-08T09:19:08Z</time>
      </trkpt>
      <trkpt lat="41.9132120" lon="-2.9101730">
        <ele>1306.9</ele>
        <time>2022-02-08T09:19:09Z</time>
      </trkpt>
      <trkpt lat="41.9132020" lon="-2.9101880">
        <ele>1307.2</ele>
        <time>2022-02-08T09:19:10Z</time>
      </trkpt>
      <trkpt lat="41.9131920" lon="-2.9102070">
        <ele>1307.4</ele>
        <time>2022-02-08T09:19:11Z</time>
      </trkpt>
      <trkpt lat="41.9131830" lon="-2.9102320">
        <ele>1307.7</ele>
        <time>2022-02-08T09:19:12Z</time>
      </trkpt>
      <trkpt lat="41.9131730" lon="-2.9102530">
        <ele>1308.0</ele>
        <time>2022-02-08T09:19:13Z</time>
      </trkpt>
      <trkpt lat="41.9131630" lon="-2.9102750">
        <ele>1308.3</ele>
        <time>2022-02-08T09:19:14Z</time>
      </trkpt>
      <trkpt lat="41.9131520" lon="-2.9102930">
        <ele>1308.5</ele>
        <time>2022-02-08T09:19:15Z</time>
      </trkpt>
      <trkpt lat="41.9131370" lon="-2.9103320">
        <ele>1309.0</ele>
        <time>2022-02-08T09:19:16Z</time>
      </trkpt>
      <trkpt lat="41.9131270" lon="-2.9103600">
        <ele>1309.4</ele>
        <time>2022-02-08T09:19:17Z</time>
      </trkpt>
      <trkpt lat="41.9131170" lon="-2.9103850">
        <ele>1309.7</ele>
        <time>2022-02-08T09:19:18Z</time>
      </trkpt>
      <trkpt lat="41.9131000" lon="-2.9104080">
        <ele>1310.1</ele>
        <time>2022-02-08T09:19:19Z</time>
      </trkpt>
      <trkpt lat="41.9130850" lon="-2.9104230">
        <ele>1310.4</ele>
        <time>2022-02-08T09:19:20Z</time>
      </trkpt>
      <trkpt lat="41.9130700" lon="-2.9104380">
        <ele>1310.7</ele>
        <time>2022-02-08T09:19:21Z</time>
      </trkpt>
      <trkpt lat="41.9130570" lon="-2.9104520">
        <ele>1310.9</ele>
        <time>2022-02-08T09:19:22Z</time>
      </trkpt>
      <trkpt lat="41.9130420" lon="-2.9104650">
        <ele>1311.2</ele>
        <time>2022-02-08T09:19:23Z</time>
      </trkpt>
      <trkpt lat="41.9130230" lon="-2.9104800">
        <ele>1311.5</ele>
        <time>2022-02-08T09:19:24Z</time>
      </trkpt>
      <trkpt lat="41.9130070" lon="-2.9104950">
        <ele>1311.8</ele>
        <time>2022-02-08T09:19:25Z</time>
      </trkpt>
      <trkpt lat="41.9129880" lon="-2.9105070">
        <ele>1312.1</ele>
        <time>2022-02-08T09:19:26Z</time>
      </trkpt>
      <trkpt lat="41.9129700" lon="-2.9105130">
        <ele>1312.4</ele>
        <time>2022-02-08T09:19:27Z</time>
      </trkpt>
      <trkpt lat="41.9129500" lon="-2.9105170">
        <ele>1312.7</ele>
        <time>2022-02-08T09:19:28Z</time>
      </trkpt>
      <trkpt lat="41.9129370" lon="-2.9105200">
        <ele>1312.9</ele>
        <time>2022-02-08T09:19:29Z</time>
      </trkpt>
      <trkpt lat="41.9129220" lon="-2.9105250">
        <ele>1313.1</ele>
        <time>2022-02-08T09:19:30Z</time>
      </trkpt>
      <trkpt lat="41.9129070" lon="-2.9105300">
        <ele>1313.3</ele>
        <time>2022-02-08T09:19:31Z</time>
      </trkpt>
      <trkpt lat="41.9128930" lon="-2.9105330">
        <ele>1313.5</ele>
        <time>2022-02-08T09:19:32Z</time>
      </trkpt>
      <trkpt lat="41.9128780" lon="-2.9105370">
        <ele>1313.7</ele>
        <time>2022-02-08T09:19:33Z</time>
      </trkpt>
      <trkpt lat="41.9128630" lon="-2.9105380">
        <ele>1313.9</ele>
        <time>2022-02-08T09:19:34Z</time>
      </trkpt>
      <trkpt lat="41.9128470" lon="-2.9105420">
        <ele>1314.1</ele>
        <time>2022-02-08T09:19:35Z</time>
      </trkpt>
      <trkpt lat="41.9128300" lon="-2.9105450">
        <ele>1314.4</ele>
        <time>2022-02-08T09:19:36Z</time>
      </trkpt>
      <trkpt lat="41.9128120" lon="-2.9105500">
        <ele>1314.6</ele>
        <time>2022-02-08T09:19:37Z</time>
      </trkpt>
      <trkpt lat="41.9127950" lon="-2.9105580">
        <ele>1314.8</ele>
        <time>2022-02-08T09:19:38Z</time>
      </trkpt>
      <trkpt lat="41.9127780" lon="-2.9105650">
        <ele>1315.0</ele>
        <time>2022-02-08T09:19:39Z</time>
      </trkpt>
      <trkpt lat="41.9127600" lon="-2.9105750">
        <ele>1315.2</ele>
        <time>2022-02-08T09:19:40Z</time>
      </trkpt>
      <trkpt lat="41.9127420" lon="-2.9105830">
        <ele>1315.4</ele>
        <time>2022-02-08T09:19:41Z</time>
      </trkpt>
      <trkpt lat="41.9127270" lon="-2.9105900">
        <ele>1315.5</ele>
        <time>2022-02-08T09:19:42Z</time>
      </trkpt>
      <trkpt lat="41.9127120" lon="-2.9105980">
        <ele>1315.7</ele>
        <time>2022-02-08T09:19:43Z</time>
      </trkpt>
      <trkpt lat="41.9126950" lon="-2.9106080">
        <ele>1315.9</ele>
        <time>2022-02-08T09:19:44Z</time>
      </trkpt>
      <trkpt lat="41.9126820" lon="-2.9106220">
        <ele>1316.1</ele>
        <time>2022-02-08T09:19:45Z</time>
      </trkpt>
      <trkpt lat="41.9126650" lon="-2.9106370">
        <ele>1316.3</ele>
        <time>2022-02-08T09:19:46Z</time>
      </trkpt>
      <trkpt lat="41.9126500" lon="-2.9106470">
        <ele>1316.4</ele>
        <time>2022-02-08T09:19:47Z</time>
      </trkpt>
      <trkpt lat="41.9126370" lon="-2.9106580">
        <ele>1316.6</ele>
        <time>2022-02-08T09:19:48Z</time>
      </trkpt>
      <trkpt lat="41.9126250" lon="-2.9106650">
        <ele>1316.7</ele>
        <time>2022-02-08T09:19:49Z</time>
      </trkpt>
      <trkpt lat="41.9126080" lon="-2.9106800">
        <ele>1316.9</ele>
        <time>2022-02-08T09:19:50Z</time>
      </trkpt>
      <trkpt lat="41.9125930" lon="-2.9106970">
        <ele>1317.1</ele>
        <time>2022-02-08T09:19:51Z</time>
      </trkpt>
      <trkpt lat="41.9125780" lon="-2.9107120">
        <ele>1317.3</ele>
        <time>2022-02-08T09:19:52Z</time>
      </trkpt>
      <trkpt lat="41.9125650" lon="-2.9107250">
        <ele>1317.5</ele>
        <time>2022-02-08T09:19:53Z</time>
      </trkpt>
      <trkpt lat="41.9125550" lon="-2.9107380">
        <ele>1317.7</ele>
        <time>2022-02-08T09:19:54Z</time>
      </trkpt>
      <trkpt lat="41.9125400" lon="-2.9107570">
        <ele>1317.9</ele>
        <time>2022-02-08T09:19:55Z</time>
      </trkpt>
      <trkpt lat="41.9125270" lon="-2.9107700">
        <ele>1318.0</ele>
        <time>2022-02-08T09:19:56Z</time>
      </trkpt>
      <trkpt lat="41.9125130" lon="-2.9107830">
        <ele>1318.2</ele>
        <time>2022-02-08T09:19:57Z</time>
      </trkpt>
      <trkpt lat="41.9124970" lon="-2.9107980">
        <ele>1318.4</ele>
        <time>2022-02-08T09:19:58Z</time>
      </trkpt>
      <trkpt lat="41.9124800" lon="-2.9108070">
        <ele>1318.6</ele>
        <time>2022-02-08T09:19:59Z</time>
      </trkpt>
      <trkpt lat="41.9124620" lon="-2.9108150">
        <ele>1318.8</ele>
        <time>2022-02-08T09:20:00Z</time>
      </trkpt>
      <trkpt lat="41.9124420" lon="-2.9108250">
        <ele>1319.0</ele>
        <time>2022-02-08T09:20:01Z</time>
      </trkpt>
      <trkpt lat="41.9124270" lon="-2.9108350">
        <ele>1319.2</ele>
        <time>2022-02-08T09:20:02Z</time>
      </trkpt>
      <trkpt lat="41.9124080" lon="-2.9108470">
        <ele>1319.4</ele>
        <time>2022-02-08T09:20:03Z</time>
      </trkpt>
      <trkpt lat="41.9123870" lon="-2.9108620">
        <ele>1319.6</ele>
        <time>2022-02-08T09:20:04Z</time>
      </trkpt>
      <trkpt lat="41.9123670" lon="-2.9108720">
        <ele>1319.8</ele>
        <time>2022-02-08T09:20:05Z</time>
      </trkpt>
      <trkpt lat="41.9123420" lon="-2.9108830">
        <ele>1320.0</ele>
        <time>2022-02-08T09:20:06Z</time>
      </trkpt>
      <trkpt lat="41.9123170" lon="-2.9108980">
        <ele>1320.3</ele>
        <time>2022-02-08T09:20:07Z</time>
      </trkpt>
      <trkpt lat="41.9122950" lon="-2.9109050">
        <ele>1320.5</ele>
        <time>2022-02-08T09:20:08Z</time>
      </trkpt>
      <trkpt lat="41.9122680" lon="-2.9109180">
        <ele>1320.7</ele>
        <time>2022-02-08T09:20:09Z</time>
      </trkpt>
      <trkpt lat="41.9122480" lon="-2.9109330">
        <ele>1320.9</ele>
        <time>2022-02-08T09:20:10Z</time>
      </trkpt>
      <trkpt lat="41.9122280" lon="-2.9109420">
        <ele>1321.1</ele>
        <time>2022-02-08T09:20:11Z</time>
      </trkpt>
      <trkpt lat="41.9122050" lon="-2.9109520">
        <ele>1321.3</ele>
        <time>2022-02-08T09:20:12Z</time>
      </trkpt>
      <trkpt lat="41.9121800" lon="-2.9109700">
        <ele>1321.6</ele>
        <time>2022-02-08T09:20:13Z</time>
      </trkpt>
      <trkpt lat="41.9121600" lon="-2.9109850">
        <ele>1321.8</ele>
        <time>2022-02-08T09:20:14Z</time>
      </trkpt>
      <trkpt lat="41.9121320" lon="-2.9110030">
        <ele>1322.0</ele>
        <time>2022-02-08T09:20:15Z</time>
      </trkpt>
      <trkpt lat="41.9121130" lon="-2.9110180">
        <ele>1322.2</ele>
        <time>2022-02-08T09:20:16Z</time>
      </trkpt>
      <trkpt lat="41.9120950" lon="-2.9110330">
        <ele>1322.4</ele>
        <time>2022-02-08T09:20:17Z</time>
      </trkpt>
      <trkpt lat="41.9120730" lon="-2.9110530">
        <ele>1322.6</ele>
        <time>2022-02-08T09:20:18Z</time>
      </trkpt>
      <trkpt lat="41.9120600" lon="-2.9110720">
        <ele>1322.7</ele>
        <time>2022-02-08T09:20:19Z</time>
      </trkpt>
      <trkpt lat="41.9120500" lon="-2.9110920">
        <ele>1322.9</ele>
        <time>2022-02-08T09:20:20Z</time>
      </trkpt>
      <trkpt lat="41.9120420" lon="-2.9111100">
        <ele>1323.0</ele>
        <time>2022-02-08T09:20:21Z</time>
      </trkpt>
      <trkpt lat="41.9120320" lon="-2.9111370">
        <ele>1323.2</ele>
        <time>2022-02-08T09:20:22Z</time>
      </trkpt>
      <trkpt lat="41.9120220" lon="-2.9111620">
        <ele>1323.3</ele>
        <time>2022-02-08T09:20:23Z</time>
      </trkpt>
      <trkpt lat="41.9120100" lon="-2.9111800">
        <ele>1323.5</ele>
        <time>2022-02-08T09:20:24Z</time>
      </trkpt>
      <trkpt lat="41.9119980" lon="-2.9111930">
        <ele>1323.6</ele>
        <time>2022-02-08T09:20:25Z</time>
      </trkpt>
      <trkpt lat="41.9119820" lon="-2.9112080">
        <ele>1323.8</ele>
        <time>2022-02-08T09:20:26Z</time>
      </trkpt>
      <trkpt lat="41.9119600" lon="-2.9112230">
        <ele>1324.0</ele>
        <time>2022-02-08T09:20:27Z</time>
      </trkpt>
      <trkpt lat="41.9119400" lon="-2.9112300">
        <ele>1324.1</ele>
        <time>2022-02-08T09:20:28Z</time>
      </trkpt>
      <trkpt lat="41.9119200" lon="-2.9112400">
        <ele>1324.3</ele>
        <time>2022-02-08T09:20:29Z</time>
      </trkpt>
      <trkpt lat="41.9119030" lon="-2.9112530">
        <ele>1324.5</ele>
        <time>2022-02-08T09:20:30Z</time>
      </trkpt>
      <trkpt lat="41.9118730" lon="-2.9112580">
        <ele>1324.7</ele>
        <time>2022-02-08T09:20:31Z</time>
      </trkpt>
      <trkpt lat="41.9118330" lon="-2.9112620">
        <ele>1325.0</ele>
        <time>2022-02-08T09:20:32Z</time>
      </trkpt>
      <trkpt lat="41.9118030" lon="-2.9112580">
        <ele>1325.2</ele>
        <time>2022-02-08T09:20:33Z</time>
      </trkpt>
      <trkpt lat="41.9117630" lon="-2.9112650">
        <ele>1325.5</ele>
        <time>2022-02-08T09:20:34Z</time>
      </trkpt>
      <trkpt lat="41.9117330" lon="-2.9112670">
        <ele>1325.7</ele>
        <time>2022-02-08T09:20:35Z</time>
      </trkpt>
      <trkpt lat="41.9117020" lon="-2.9112770">
        <ele>1325.9</ele>
        <time>2022-02-08T09:20:36Z</time>
      </trkpt>
      <trkpt lat="41.9116720" lon="-2.9112850">
        <ele>1326.0</ele>
        <time>2022-02-08T09:20:37Z</time>
      </trkpt>
      <trkpt lat="41.9116370" lon="-2.9112950">
        <ele>1326.2</ele>
        <time>2022-02-08T09:20:38Z</time>
      </trkpt>
      <trkpt lat="41.9116080" lon="-2.9113020">
        <ele>1326.3</ele>
        <time>2022-02-08T09:20:39Z</time>
      </trkpt>
      <trkpt lat="41.9115850" lon="-2.9113070">
        <ele>1326.3</ele>
        <time>2022-02-08T09:20:40Z</time>
      </trkpt>
      <trkpt lat="41.9115550" lon="-2.9113170">
        <ele>1326.4</ele>
        <time>2022-02-08T09:20:41Z</time>
      </trkpt>
      <trkpt lat="41.9115270" lon="-2.9113220">
        <ele>1326.5</ele>
        <time>2022-02-08T09:20:42Z</time>
      </trkpt>
      <trkpt lat="41.9114980" lon="-2.9113250">
        <ele>1326.6</ele>
        <time>2022-02-08T09:20:43Z</time>
      </trkpt>
      <trkpt lat="41.9114670" lon="-2.9113280">
        <ele>1326.7</ele>
        <time>2022-02-08T09:20:44Z</time>
      </trkpt>
      <trkpt lat="41.9114450" lon="-2.9113320">
        <ele>1326.7</ele>
        <time>2022-02-08T09:20:45Z</time>
      </trkpt>
      <trkpt lat="41.9114200" lon="-2.9113370">
        <ele>1326.8</ele>
        <time>2022-02-08T09:20:46Z</time>
      </trkpt>
      <trkpt lat="41.9114000" lon="-2.9113400">
        <ele>1326.9</ele>
        <time>2022-02-08T09:20:47Z</time>
      </trkpt>
      <trkpt lat="41.9113820" lon="-2.9113430">
        <ele>1326.9</ele>
        <time>2022-02-08T09:20:48Z</time>
      </trkpt>
      <trkpt lat="41.9113620" lon="-2.9113520">
        <ele>1327.0</ele>
        <time>2022-02-08T09:20:49Z</time>
      </trkpt>
      <trkpt lat="41.9113430" lon="-2.9113570">
        <ele>1327.1</ele>
        <time>2022-02-08T09:20:50Z</time>
      </trkpt>
      <trkpt lat="41.9113230" lon="-2.9113680">
        <ele>1327.2</ele>
        <time>2022-02-08T09:20:51Z</time>
      </trkpt>
      <trkpt lat="41.9113080" lon="-2.9113800">
        <ele>1327.3</ele>
        <time>2022-02-08T09:20:52Z</time>
      </trkpt>
      <trkpt lat="41.9112950" lon="-2.9113880">
        <ele>1327.4</ele>
        <time>2022-02-08T09:20:53Z</time>
      </trkpt>
      <trkpt lat="41.9112780" lon="-2.9114000">
        <ele>1327.5</ele>
        <time>2022-02-08T09:20:54Z</time>
      </trkpt>
      <trkpt lat="41.9112600" lon="-2.9114170">
        <ele>1327.6</ele>
        <time>2022-02-08T09:20:55Z</time>
      </trkpt>
      <trkpt lat="41.9112380" lon="-2.9114320">
        <ele>1327.8</ele>
        <time>2022-02-08T09:20:56Z</time>
      </trkpt>
      <trkpt lat="41.9112180" lon="-2.9114450">
        <ele>1328.0</ele>
        <time>2022-02-08T09:20:57Z</time>
      </trkpt>
      <trkpt lat="41.9111970" lon="-2.9114570">
        <ele>1328.1</ele>
        <time>2022-02-08T09:20:58Z</time>
      </trkpt>
      <trkpt lat="41.9111820" lon="-2.9114680">
        <ele>1328.3</ele>
        <time>2022-02-08T09:20:59Z</time>
      </trkpt>
      <trkpt lat="41.9111620" lon="-2.9114850">
        <ele>1328.5</ele>
        <time>2022-02-08T09:21:00Z</time>
      </trkpt>
      <trkpt lat="41.9111450" lon="-2.9115050">
        <ele>1328.7</ele>
        <time>2022-02-08T09:21:01Z</time>
      </trkpt>
      <trkpt lat="41.9111330" lon="-2.9115270">
        <ele>1328.9</ele>
        <time>2022-02-08T09:21:02Z</time>
      </trkpt>
      <trkpt lat="41.9111230" lon="-2.9115480">
        <ele>1329.1</ele>
        <time>2022-02-08T09:21:03Z</time>
      </trkpt>
      <trkpt lat="41.9111130" lon="-2.9115750">
        <ele>1329.3</ele>
        <time>2022-02-08T09:21:04Z</time>
      </trkpt>
      <trkpt lat="41.9110870" lon="-2.9116000">
        <ele>1329.6</ele>
        <time>2022-02-08T09:21:05Z</time>
      </trkpt>
      <trkpt lat="41.9110700" lon="-2.9116150">
        <ele>1329.8</ele>
        <time>2022-02-08T09:21:06Z</time>
      </trkpt>
      <trkpt lat="41.9110500" lon="-2.9116330">
        <ele>1330.1</ele>
        <time>2022-02-08T09:21:07Z</time>
      </trkpt>
      <trkpt lat="41.9110300" lon="-2.9116480">
        <ele>1330.3</ele>
        <time>2022-02-08T09:21:08Z</time>
      </trkpt>
      <trkpt lat="41.9110130" lon="-2.9116720">
        <ele>1330.6</ele>
        <time>2022-02-08T09:21:09Z</time>
      </trkpt>
      <trkpt lat="41.9110050" lon="-2.9117020">
        <ele>1330.8</ele>
        <time>2022-02-08T09:21:10Z</time>
      </trkpt>
      <trkpt lat="41.9109900" lon="-2.9117280">
        <ele>1331.1</ele>
        <time>2022-02-08T09:21:11Z</time>
      </trkpt>
      <trkpt lat="41.9109720" lon="-2.9117580">
        <ele>1331.4</ele>
        <time>2022-02-08T09:21:12Z</time>
      </trkpt>
      <trkpt lat="41.9109530" lon="-2.9117870">
        <ele>1331.7</ele>
        <time>2022-02-08T09:21:13Z</time>
      </trkpt>
      <trkpt lat="41.9109380" lon="-2.9118170">
        <ele>1332.0</ele>
        <time>2022-02-08T09:21:14Z</time>
      </trkpt>
      <trkpt lat="41.9109250" lon="-2.9118520">
        <ele>1332.3</ele>
        <time>2022-02-08T09:21:15Z</time>
      </trkpt>
      <trkpt lat="41.9109100" lon="-2.9118880">
        <ele>1332.6</ele>
        <time>2022-02-08T09:21:16Z</time>
      </trkpt>
      <trkpt lat="41.9108980" lon="-2.9119200">
        <ele>1332.8</ele>
        <time>2022-02-08T09:21:17Z</time>
      </trkpt>
      <trkpt lat="41.9108870" lon="-2.9119500">
        <ele>1333.1</ele>
        <time>2022-02-08T09:21:18Z</time>
      </trkpt>
      <trkpt lat="41.9108700" lon="-2.9119870">
        <ele>1333.4</ele>
        <time>2022-02-08T09:21:19Z</time>
      </trkpt>
      <trkpt lat="41.9108620" lon="-2.9120100">
        <ele>1333.6</ele>
        <time>2022-02-08T09:21:20Z</time>
      </trkpt>
      <trkpt lat="41.9108470" lon="-2.9120420">
        <ele>1333.8</ele>
        <time>2022-02-08T09:21:21Z</time>
      </trkpt>
      <trkpt lat="41.9108350" lon="-2.9120620">
        <ele>1334.0</ele>
        <time>2022-02-08T09:21:22Z</time>
      </trkpt>
      <trkpt lat="41.9108200" lon="-2.9120920">
        <ele>1334.3</ele>
        <time>2022-02-08T09:21:23Z</time>
      </trkpt>
      <trkpt lat="41.9108130" lon="-2.9121320">
        <ele>1334.6</ele>
        <time>2022-02-08T09:21:24Z</time>
      </trkpt>
      <trkpt lat="41.9108130" lon="-2.9121650">
        <ele>1334.8</ele>
        <time>2022-02-08T09:21:25Z</time>
      </trkpt>
      <trkpt lat="41.9108220" lon="-2.9121950">
        <ele>1335.0</ele>
        <time>2022-02-08T09:21:26Z</time>
      </trkpt>
      <trkpt lat="41.9108320" lon="-2.9122170">
        <ele>1335.2</ele>
        <time>2022-02-08T09:21:27Z</time>
      </trkpt>
      <trkpt lat="41.9108450" lon="-2.9122370">
        <ele>1335.3</ele>
        <time>2022-02-08T09:21:28Z</time>
      </trkpt>
      <trkpt lat="41.9108620" lon="-2.9122500">
        <ele>1335.5</ele>
        <time>2022-02-08T09:21:29Z</time>
      </trkpt>
      <trkpt lat="41.9108800" lon="-2.9122670">
        <ele>1335.7</ele>
        <time>2022-02-08T09:21:30Z</time>
      </trkpt>
      <trkpt lat="41.9109100" lon="-2.9122700">
        <ele>1336.0</ele>
        <time>2022-02-08T09:21:31Z</time>
      </trkpt>
      <trkpt lat="41.9109320" lon="-2.9122700">
        <ele>1336.2</ele>
        <time>2022-02-08T09:21:32Z</time>
      </trkpt>
      <trkpt lat="41.9109580" lon="-2.9122720">
        <ele>1336.4</ele>
        <time>2022-02-08T09:21:33Z</time>
      </trkpt>
      <trkpt lat="41.9109780" lon="-2.9122720">
        <ele>1336.6</ele>
        <time>2022-02-08T09:21:34Z</time>
      </trkpt>
      <trkpt lat="41.9109970" lon="-2.9122700">
        <ele>1336.8</ele>
        <time>2022-02-08T09:21:35Z</time>
      </trkpt>
      <trkpt lat="41.9110100" lon="-2.9122650">
        <ele>1336.9</ele>
        <time>2022-02-08T09:21:36Z</time>
      </trkpt>
      <trkpt lat="41.9110280" lon="-2.9122620">
        <ele>1337.1</ele>
        <time>2022-02-08T09:21:37Z</time>
      </trkpt>
      <trkpt lat="41.9110520" lon="-2.9122600">
        <ele>1337.3</ele>
        <time>2022-02-08T09:21:38Z</time>
      </trkpt>
      <trkpt lat="41.9110780" lon="-2.9122570">
        <ele>1337.6</ele>
        <time>2022-02-08T09:21:39Z</time>
      </trkpt>
      <trkpt lat="41.9111020" lon="-2.9122530">
        <ele>1337.8</ele>
        <time>2022-02-08T09:21:40Z</time>
      </trkpt>
      <trkpt lat="41.9111220" lon="-2.9122520">
        <ele>1338.0</ele>
        <time>2022-02-08T09:21:41Z</time>
      </trkpt>
      <trkpt lat="41.9111520" lon="-2.9122480">
        <ele>1338.3</ele>
        <time>2022-02-08T09:21:42Z</time>
      </trkpt>
      <trkpt lat="41.9111870" lon="-2.9122450">
        <ele>1338.7</ele>
        <time>2022-02-08T09:21:43Z</time>
      </trkpt>
      <trkpt lat="41.9112180" lon="-2.9122400">
        <ele>1339.0</ele>
        <time>2022-02-08T09:21:44Z</time>
      </trkpt>
      <trkpt lat="41.9112400" lon="-2.9122380">
        <ele>1339.3</ele>
        <time>2022-02-08T09:21:45Z</time>
      </trkpt>
      <trkpt lat="41.9112650" lon="-2.9122330">
        <ele>1339.5</ele>
        <time>2022-02-08T09:21:46Z</time>
      </trkpt>
      <trkpt lat="41.9112880" lon="-2.9122250">
        <ele>1339.8</ele>
        <time>2022-02-08T09:21:47Z</time>
      </trkpt>
      <trkpt lat="41.9113070" lon="-2.9122200">
        <ele>1340.0</ele>
        <time>2022-02-08T09:21:48Z</time>
      </trkpt>
      <trkpt lat="41.9113250" lon="-2.9122130">
        <ele>1340.2</ele>
        <time>2022-02-08T09:21:49Z</time>
      </trkpt>
      <trkpt lat="41.9113470" lon="-2.9122130">
        <ele>1340.4</ele>
        <time>2022-02-08T09:21:50Z</time>
      </trkpt>
      <trkpt lat="41.9113720" lon="-2.9122150">
        <ele>1340.6</ele>
        <time>2022-02-08T09:21:51Z</time>
      </trkpt>
      <trkpt lat="41.9113980" lon="-2.9122270">
        <ele>1340.9</ele>
        <time>2022-02-08T09:21:52Z</time>
      </trkpt>
      <trkpt lat="41.9114220" lon="-2.9122420">
        <ele>1341.1</ele>
        <time>2022-02-08T09:21:53Z</time>
      </trkpt>
      <trkpt lat="41.9114450" lon="-2.9122550">
        <ele>1341.3</ele>
        <time>2022-02-08T09:21:54Z</time>
      </trkpt>
      <trkpt lat="41.9114650" lon="-2.9122650">
        <ele>1341.5</ele>
        <time>2022-02-08T09:21:55Z</time>
      </trkpt>
      <trkpt lat="41.9114900" lon="-2.9122720">
        <ele>1341.7</ele>
        <time>2022-02-08T09:21:56Z</time>
      </trkpt>
      <trkpt lat="41.9115150" lon="-2.9122800">
        <ele>1341.9</ele>
        <time>2022-02-08T09:21:57Z</time>
      </trkpt>
      <trkpt lat="41.9115430" lon="-2.9122930">
        <ele>1342.1</ele>
        <time>2022-02-08T09:21:58Z</time>
      </trkpt>
      <trkpt lat="41.9115670" lon="-2.9123000">
        <ele>1342.3</ele>
        <time>2022-02-08T09:21:59Z</time>
      </trkpt>
      <trkpt lat="41.9115880" lon="-2.9123070">
        <ele>1342.4</ele>
        <time>2022-02-08T09:22:00Z</time>
      </trkpt>
      <trkpt lat="41.9116150" lon="-2.9123180">
        <ele>1342.5</ele>
        <time>2022-02-08T09:22:01Z</time>
      </trkpt>
      <trkpt lat="41.9116380" lon="-2.9123280">
        <ele>1342.7</ele>
        <time>2022-02-08T09:22:02Z</time>
      </trkpt>
      <trkpt lat="41.9116670" lon="-2.9123350">
        <ele>1342.8</ele>
        <time>2022-02-08T09:22:03Z</time>
      </trkpt>
      <trkpt lat="41.9116880" lon="-2.9123400">
        <ele>1342.9</ele>
        <time>2022-02-08T09:22:04Z</time>
      </trkpt>
      <trkpt lat="41.9117170" lon="-2.9123430">
        <ele>1343.0</ele>
        <time>2022-02-08T09:22:05Z</time>
      </trkpt>
      <trkpt lat="41.9117470" lon="-2.9123470">
        <ele>1343.1</ele>
        <time>2022-02-08T09:22:06Z</time>
      </trkpt>
      <trkpt lat="41.9117820" lon="-2.9123500">
        <ele>1343.3</ele>
        <time>2022-02-08T09:22:07Z</time>
      </trkpt>
      <trkpt lat="41.9118070" lon="-2.9123520">
        <ele>1343.4</ele>
        <time>2022-02-08T09:22:08Z</time>
      </trkpt>
      <trkpt lat="41.9118380" lon="-2.9123550">
        <ele>1343.6</ele>
        <time>2022-02-08T09:22:09Z</time>
      </trkpt>
      <trkpt lat="41.9118650" lon="-2.9123570">
        <ele>1343.8</ele>
        <time>2022-02-08T09:22:10Z</time>
      </trkpt>
      <trkpt lat="41.9118900" lon="-2.9123550">
        <ele>1343.9</ele>
        <time>2022-02-08T09:22:11Z</time>
      </trkpt>
      <trkpt lat="41.9119150" lon="-2.9123550">
        <ele>1344.1</ele>
        <time>2022-02-08T09:22:12Z</time>
      </trkpt>
      <trkpt lat="41.9119350" lon="-2.9123530">
        <ele>1344.3</ele>
        <time>2022-02-08T09:22:13Z</time>
      </trkpt>
      <trkpt lat="41.9119500" lon="-2.9123500">
        <ele>1344.4</ele>
        <time>2022-02-08T09:22:14Z</time>
      </trkpt>
      <trkpt lat="41.9119700" lon="-2.9123450">
        <ele>1344.6</ele>
        <time>2022-02-08T09:22:15Z</time>
      </trkpt>
      <trkpt lat="41.9119880" lon="-2.9123450">
        <ele>1344.8</ele>
        <time>2022-02-08T09:22:16Z</time>
      </trkpt>
      <trkpt lat="41.9120050" lon="-2.9123480">
        <ele>1345.0</ele>
        <time>2022-02-08T09:22:17Z</time>
      </trkpt>
      <trkpt lat="41.9120150" lon="-2.9123570">
        <ele>1345.1</ele>
        <time>2022-02-08T09:22:18Z</time>
      </trkpt>
      <trkpt lat="41.9120300" lon="-2.9123670">
        <ele>1345.4</ele>
        <time>2022-02-08T09:22:19Z</time>
      </trkpt>
      <trkpt lat="41.9120450" lon="-2.9123750">
        <ele>1345.6</ele>
        <time>2022-02-08T09:22:20Z</time>
      </trkpt>
      <trkpt lat="41.9120600" lon="-2.9123870">
        <ele>1345.8</ele>
        <time>2022-02-08T09:22:21Z</time>
      </trkpt>
      <trkpt lat="41.9120720" lon="-2.9123920">
        <ele>1346.0</ele>
        <time>2022-02-08T09:22:22Z</time>
      </trkpt>
      <trkpt lat="41.9120870" lon="-2.9123970">
        <ele>1346.2</ele>
        <time>2022-02-08T09:22:23Z</time>
      </trkpt>
      <trkpt lat="41.9121070" lon="-2.9123970">
        <ele>1346.5</ele>
        <time>2022-02-08T09:22:24Z</time>
      </trkpt>
      <trkpt lat="41.9121220" lon="-2.9124000">
        <ele>1346.7</ele>
        <time>2022-02-08T09:22:25Z</time>
      </trkpt>
      <trkpt lat="41.9121450" lon="-2.9124230">
        <ele>1347.1</ele>
        <time>2022-02-08T09:22:26Z</time>
      </trkpt>
      <trkpt lat="41.9121550" lon="-2.9124380">
        <ele>1347.4</ele>
        <time>2022-02-08T09:22:27Z</time>
      </trkpt>
      <trkpt lat="41.9121780" lon="-2.9124550">
        <ele>1347.7</ele>
        <time>2022-02-08T09:22:28Z</time>
      </trkpt>
      <trkpt lat="41.9122050" lon="-2.9124770">
        <ele>1348.2</ele>
        <time>2022-02-08T09:22:29Z</time>
      </trkpt>
      <trkpt lat="41.9122180" lon="-2.9124900">
        <ele>1348.4</ele>
        <time>2022-02-08T09:22:30Z</time>
      </trkpt>
      <trkpt lat="41.9122280" lon="-2.9125080">
        <ele>1348.7</ele>
        <time>2022-02-08T09:22:31Z</time>
      </trkpt>
      <trkpt lat="41.9122380" lon="-2.9125320">
        <ele>1349.0</ele>
        <time>2022-02-08T09:22:32Z</time>
      </trkpt>
      <trkpt lat="41.9122480" lon="-2.9125570">
        <ele>1349.3</ele>
        <time>2022-02-08T09:22:33Z</time>
      </trkpt>
      <trkpt lat="41.9122470" lon="-2.9125800">
        <ele>1349.5</ele>
        <time>2022-02-08T09:22:34Z</time>
      </trkpt>
      <trkpt lat="41.9122420" lon="-2.9126050">
        <ele>1349.8</ele>
        <time>2022-02-08T09:22:35Z</time>
      </trkpt>
      <trkpt lat="41.9122250" lon="-2.9126270">
        <ele>1350.1</ele>
        <time>2022-02-08T09:22:36Z</time>
      </trkpt>
      <trkpt lat="41.9122080" lon="-2.9126420">
        <ele>1350.3</ele>
        <time>2022-02-08T09:22:37Z</time>
      </trkpt>
      <trkpt lat="41.9121970" lon="-2.9126650">
        <ele>1350.5</ele>
        <time>2022-02-08T09:22:38Z</time>
      </trkpt>
      <trkpt lat="41.9121800" lon="-2.9126920">
        <ele>1350.8</ele>
        <time>2022-02-08T09:22:39Z</time>
      </trkpt>
      <trkpt lat="41.9121700" lon="-2.9127220">
        <ele>1351.1</ele>
        <time>2022-02-08T09:22:40Z</time>
      </trkpt>
      <trkpt lat="41.9121580" lon="-2.9127530">
        <ele>1351.4</ele>
        <time>2022-02-08T09:22:41Z</time>
      </trkpt>
      <trkpt lat="41.9121520" lon="-2.9127800">
        <ele>1351.6</ele>
        <time>2022-02-08T09:22:42Z</time>
      </trkpt>
      <trkpt lat="41.9121450" lon="-2.9128150">
        <ele>1351.8</ele>
        <time>2022-02-08T09:22:43Z</time>
      </trkpt>
      <trkpt lat="41.9121400" lon="-2.9128630">
        <ele>1352.1</ele>
        <time>2022-02-08T09:22:44Z</time>
      </trkpt>
      <trkpt lat="41.9121350" lon="-2.9128970">
        <ele>1352.3</ele>
        <time>2022-02-08T09:22:45Z</time>
      </trkpt>
      <trkpt lat="41.9121280" lon="-2.9129320">
        <ele>1352.5</ele>
        <time>2022-02-08T09:22:46Z</time>
      </trkpt>
      <trkpt lat="41.9121270" lon="-2.9129780">
        <ele>1352.7</ele>
        <time>2022-02-08T09:22:47Z</time>
      </trkpt>
      <trkpt lat="41.9121200" lon="-2.9130220">
        <ele>1352.9</ele>
        <time>2022-02-08T09:22:48Z</time>
      </trkpt>
      <trkpt lat="41.9121150" lon="-2.9130580">
        <ele>1353.1</ele>
        <time>2022-02-08T09:22:49Z</time>
      </trkpt>
      <trkpt lat="41.9121120" lon="-2.9130930">
        <ele>1353.3</ele>
        <time>2022-02-08T09:22:50Z</time>
      </trkpt>
      <trkpt lat="41.9121080" lon="-2.9131230">
        <ele>1353.4</ele>
        <time>2022-02-08T09:22:51Z</time>
      </trkpt>
      <trkpt lat="41.9121070" lon="-2.9131620">
        <ele>1353.5</ele>
        <time>2022-02-08T09:22:52Z</time>
      </trkpt>
      <trkpt lat="41.9121030" lon="-2.9132030">
        <ele>1353.7</ele>
        <time>2022-02-08T09:22:53Z</time>
      </trkpt>
      <trkpt lat="41.9121000" lon="-2.9132420">
        <ele>1353.8</ele>
        <time>2022-02-08T09:22:54Z</time>
      </trkpt>
      <trkpt lat="41.9120980" lon="-2.9132800">
        <ele>1353.9</ele>
        <time>2022-02-08T09:22:55Z</time>
      </trkpt>
      <trkpt lat="41.9120970" lon="-2.9133200">
        <ele>1354.0</ele>
        <time>2022-02-08T09:22:56Z</time>
      </trkpt>
      <trkpt lat="41.9120980" lon="-2.9133580">
        <ele>1354.1</ele>
        <time>2022-02-08T09:22:57Z</time>
      </trkpt>
      <trkpt lat="41.9120970" lon="-2.9133950">
        <ele>1354.2</ele>
        <time>2022-02-08T09:22:58Z</time>
      </trkpt>
      <trkpt lat="41.9120950" lon="-2.9134320">
        <ele>1354.2</ele>
        <time>2022-02-08T09:22:59Z</time>
      </trkpt>
      <trkpt lat="41.9120920" lon="-2.9134620">
        <ele>1354.3</ele>
        <time>2022-02-08T09:23:00Z</time>
      </trkpt>
      <trkpt lat="41.9120900" lon="-2.9134980">
        <ele>1354.3</ele>
        <time>2022-02-08T09:23:01Z</time>
      </trkpt>
      <trkpt lat="41.9120880" lon="-2.9135450">
        <ele>1354.4</ele>
        <time>2022-02-08T09:23:02Z</time>
      </trkpt>
      <trkpt lat="41.9120870" lon="-2.9135770">
        <ele>1354.4</ele>
        <time>2022-02-08T09:23:03Z</time>
      </trkpt>
      <trkpt lat="41.9120820" lon="-2.9136180">
        <ele>1354.5</ele>
        <time>2022-02-08T09:23:04Z</time>
      </trkpt>
      <trkpt lat="41.9120780" lon="-2.9136600">
        <ele>1354.5</ele>
        <time>2022-02-08T09:23:05Z</time>
      </trkpt>
      <trkpt lat="41.9120750" lon="-2.9137050">
        <ele>1354.5</ele>
        <time>2022-02-08T09:23:06Z</time>
      </trkpt>
      <trkpt lat="41.9120720" lon="-2.9137480">
        <ele>1354.5</ele>
        <time>2022-02-08T09:23:07Z</time>
      </trkpt>
      <trkpt lat="41.9120700" lon="-2.9138050">
        <ele>1354.6</ele>
        <time>2022-02-08T09:23:08Z</time>
      </trkpt>
      <trkpt lat="41.9120730" lon="-2.9138450">
        <ele>1354.6</ele>
        <time>2022-02-08T09:23:09Z</time>
      </trkpt>
      <trkpt lat="41.9120820" lon="-2.9138950">
        <ele>1354.6</ele>
        <time>2022-02-08T09:23:10Z</time>
      </trkpt>
      <trkpt lat="41.9120880" lon="-2.9139570">
        <ele>1354.6</ele>
        <time>2022-02-08T09:23:11Z</time>
      </trkpt>
      <trkpt lat="41.9120950" lon="-2.9140050">
        <ele>1354.7</ele>
        <time>2022-02-08T09:23:12Z</time>
      </trkpt>
      <trkpt lat="41.9121020" lon="-2.9140480">
        <ele>1354.7</ele>
        <time>2022-02-08T09:23:13Z</time>
      </trkpt>
      <trkpt lat="41.9121150" lon="-2.9140980">
        <ele>1354.8</ele>
        <time>2022-02-08T09:23:14Z</time>
      </trkpt>
      <trkpt lat="41.9121270" lon="-2.9141480">
        <ele>1354.8</ele>
        <time>2022-02-08T09:23:15Z</time>
      </trkpt>
      <trkpt lat="41.9121400" lon="-2.9142030">
        <ele>1354.9</ele>
        <time>2022-02-08T09:23:16Z</time>
      </trkpt>
      <trkpt lat="41.9121520" lon="-2.9142430">
        <ele>1354.9</ele>
        <time>2022-02-08T09:23:17Z</time>
      </trkpt>
      <trkpt lat="41.9121670" lon="-2.9142820">
        <ele>1355.0</ele>
        <time>2022-02-08T09:23:18Z</time>
      </trkpt>
      <trkpt lat="41.9121800" lon="-2.9143150">
        <ele>1355.1</ele>
        <time>2022-02-08T09:23:19Z</time>
      </trkpt>
      <trkpt lat="41.9121980" lon="-2.9143550">
        <ele>1355.2</ele>
        <time>2022-02-08T09:23:20Z</time>
      </trkpt>
      <trkpt lat="41.9122180" lon="-2.9144020">
        <ele>1355.3</ele>
        <time>2022-02-08T09:23:21Z</time>
      </trkpt>
      <trkpt lat="41.9122370" lon="-2.9144520">
        <ele>1355.5</ele>
        <time>2022-02-08T09:23:22Z</time>
      </trkpt>
      <trkpt lat="41.9122530" lon="-2.9144920">
        <ele>1355.7</ele>
        <time>2022-02-08T09:23:23Z</time>
      </trkpt>
      <trkpt lat="41.9122700" lon="-2.9145180">
        <ele>1355.8</ele>
        <time>2022-02-08T09:23:24Z</time>
      </trkpt>
      <trkpt lat="41.9122930" lon="-2.9145550">
        <ele>1356.1</ele>
        <time>2022-02-08T09:23:25Z</time>
      </trkpt>
      <trkpt lat="41.9123220" lon="-2.9145920">
        <ele>1356.3</ele>
        <time>2022-02-08T09:23:26Z</time>
      </trkpt>
      <trkpt lat="41.9123430" lon="-2.9146200">
        <ele>1356.5</ele>
        <time>2022-02-08T09:23:27Z</time>
      </trkpt>
      <trkpt lat="41.9123680" lon="-2.9146570">
        <ele>1356.7</ele>
        <time>2022-02-08T09:23:28Z</time>
      </trkpt>
      <trkpt lat="41.9123880" lon="-2.9146870">
        <ele>1356.9</ele>
        <time>2022-02-08T09:23:29Z</time>
      </trkpt>
      <trkpt lat="41.9124080" lon="-2.9147170">
        <ele>1357.1</ele>
        <time>2022-02-08T09:23:30Z</time>
      </trkpt>
      <trkpt lat="41.9124270" lon="-2.9147480">
        <ele>1357.3</ele>
        <time>2022-02-08T09:23:31Z</time>
      </trkpt>
      <trkpt lat="41.9124430" lon="-2.9147820">
        <ele>1357.5</ele>
        <time>2022-02-08T09:23:32Z</time>
      </trkpt>
      <trkpt lat="41.9124580" lon="-2.9148180">
        <ele>1357.6</ele>
        <time>2022-02-08T09:23:33Z</time>
      </trkpt>
      <trkpt lat="41.9124750" lon="-2.9148570">
        <ele>1357.8</ele>
        <time>2022-02-08T09:23:34Z</time>
      </trkpt>
      <trkpt lat="41.9124930" lon="-2.9148930">
        <ele>1357.9</ele>
        <time>2022-02-08T09:23:35Z</time>
      </trkpt>
      <trkpt lat="41.9125070" lon="-2.9149300">
        <ele>1358.1</ele>
        <time>2022-02-08T09:23:36Z</time>
      </trkpt>
      <trkpt lat="41.9125200" lon="-2.9149670">
        <ele>1358.2</ele>
        <time>2022-02-08T09:23:37Z</time>
      </trkpt>
      <trkpt lat="41.9125320" lon="-2.9150050">
        <ele>1358.3</ele>
        <time>2022-02-08T09:23:38Z</time>
      </trkpt>
      <trkpt lat="41.9125450" lon="-2.9150430">
        <ele>1358.4</ele>
        <time>2022-02-08T09:23:39Z</time>
      </trkpt>
      <trkpt lat="41.9125580" lon="-2.9150830">
        <ele>1358.4</ele>
        <time>2022-02-08T09:23:40Z</time>
      </trkpt>
      <trkpt lat="41.9125700" lon="-2.9151220">
        <ele>1358.5</ele>
        <time>2022-02-08T09:23:41Z</time>
      </trkpt>
      <trkpt lat="41.9125830" lon="-2.9151630">
        <ele>1358.6</ele>
        <time>2022-02-08T09:23:42Z</time>
      </trkpt>
      <trkpt lat="41.9125950" lon="-2.9152070">
        <ele>1358.7</ele>
        <time>2022-02-08T09:23:43Z</time>
      </trkpt>
      <trkpt lat="41.9126080" lon="-2.9152530">
        <ele>1358.8</ele>
        <time>2022-02-08T09:23:44Z</time>
      </trkpt>
      <trkpt lat="41.9126200" lon="-2.9152950">
        <ele>1358.9</ele>
        <time>2022-02-08T09:23:45Z</time>
      </trkpt>
      <trkpt lat="41.9126380" lon="-2.9153450">
        <ele>1358.9</ele>
        <time>2022-02-08T09:23:46Z</time>
      </trkpt>
      <trkpt lat="41.9126520" lon="-2.9153780">
        <ele>1359.0</ele>
        <time>2022-02-08T09:23:47Z</time>
      </trkpt>
      <trkpt lat="41.9126700" lon="-2.9154180">
        <ele>1359.1</ele>
        <time>2022-02-08T09:23:48Z</time>
      </trkpt>
      <trkpt lat="41.9126870" lon="-2.9154600">
        <ele>1359.1</ele>
        <time>2022-02-08T09:23:49Z</time>
      </trkpt>
      <trkpt lat="41.9127070" lon="-2.9154980">
        <ele>1359.2</ele>
        <time>2022-02-08T09:23:50Z</time>
      </trkpt>
      <trkpt lat="41.9127280" lon="-2.9155420">
        <ele>1359.3</ele>
        <time>2022-02-08T09:23:51Z</time>
      </trkpt>
      <trkpt lat="41.9127520" lon="-2.9155830">
        <ele>1359.3</ele>
        <time>2022-02-08T09:23:52Z</time>
      </trkpt>
      <trkpt lat="41.9127750" lon="-2.9156230">
        <ele>1359.4</ele>
        <time>2022-02-08T09:23:53Z</time>
      </trkpt>
      <trkpt lat="41.9128020" lon="-2.9156720">
        <ele>1359.5</ele>
        <time>2022-02-08T09:23:54Z</time>
      </trkpt>
      <trkpt lat="41.9128220" lon="-2.9157030">
        <ele>1359.5</ele>
        <time>2022-02-08T09:23:55Z</time>
      </trkpt>
      <trkpt lat="41.9128520" lon="-2.9157420">
        <ele>1359.6</ele>
        <time>2022-02-08T09:23:56Z</time>
      </trkpt>
      <trkpt lat="41.9128780" lon="-2.9157800">
        <ele>1359.6</ele>
        <time>2022-02-08T09:23:57Z</time>
      </trkpt>
      <trkpt lat="41.9129020" lon="-2.9158180">
        <ele>1359.7</ele>
        <time>2022-02-08T09:23:58Z</time>
      </trkpt>
      <trkpt lat="41.9129200" lon="-2.9158600">
        <ele>1359.8</ele>
        <time>2022-02-08T09:23:59Z</time>
      </trkpt>
      <trkpt lat="41.9129450" lon="-2.9159130">
        <ele>1359.8</ele>
        <time>2022-02-08T09:24:00Z</time>
      </trkpt>
      <trkpt lat="41.9129670" lon="-2.9159580">
        <ele>1359.9</ele>
        <time>2022-02-08T09:24:01Z</time>
      </trkpt>
      <trkpt lat="41.9129770" lon="-2.9159950">
        <ele>1359.9</ele>
        <time>2022-02-08T09:24:02Z</time>
      </trkpt>
      <trkpt lat="41.9129980" lon="-2.9160530">
        <ele>1360.0</ele>
        <time>2022-02-08T09:24:03Z</time>
      </trkpt>
      <trkpt lat="41.9130170" lon="-2.9161070">
        <ele>1360.1</ele>
        <time>2022-02-08T09:24:04Z</time>
      </trkpt>
      <trkpt lat="41.9130400" lon="-2.9161580">
        <ele>1360.1</ele>
        <time>2022-02-08T09:24:05Z</time>
      </trkpt>
      <trkpt lat="41.9130620" lon="-2.9161980">
        <ele>1360.2</ele>
        <time>2022-02-08T09:24:06Z</time>
      </trkpt>
      <trkpt lat="41.9130930" lon="-2.9162450">
        <ele>1360.3</ele>
        <time>2022-02-08T09:24:07Z</time>
      </trkpt>
      <trkpt lat="41.9131280" lon="-2.9162870">
        <ele>1360.3</ele>
        <time>2022-02-08T09:24:08Z</time>
      </trkpt>
      <trkpt lat="41.9131580" lon="-2.9163370">
        <ele>1360.4</ele>
        <time>2022-02-08T09:24:09Z</time>
      </trkpt>
      <trkpt lat="41.9131780" lon="-2.9163720">
        <ele>1360.4</ele>
        <time>2022-02-08T09:24:10Z</time>
      </trkpt>
      <trkpt lat="41.9131980" lon="-2.9164150">
        <ele>1360.5</ele>
        <time>2022-02-08T09:24:11Z</time>
      </trkpt>
      <trkpt lat="41.9132200" lon="-2.9164650">
        <ele>1360.6</ele>
        <time>2022-02-08T09:24:12Z</time>
      </trkpt>
      <trkpt lat="41.9132350" lon="-2.9165120">
        <ele>1360.6</ele>
        <time>2022-02-08T09:24:13Z</time>
      </trkpt>
      <trkpt lat="41.9132450" lon="-2.9165600">
        <ele>1360.7</ele>
        <time>2022-02-08T09:24:14Z</time>
      </trkpt>
      <trkpt lat="41.9132570" lon="-2.9166080">
        <ele>1360.8</ele>
        <time>2022-02-08T09:24:15Z</time>
      </trkpt>
      <trkpt lat="41.9132730" lon="-2.9166580">
        <ele>1361.0</ele>
        <time>2022-02-08T09:24:16Z</time>
      </trkpt>
      <trkpt lat="41.9132930" lon="-2.9167030">
        <ele>1361.1</ele>
        <time>2022-02-08T09:24:17Z</time>
      </trkpt>
      <trkpt lat="41.9133170" lon="-2.9167430">
        <ele>1361.3</ele>
        <time>2022-02-08T09:24:18Z</time>
      </trkpt>
      <trkpt lat="41.9133450" lon="-2.9167880">
        <ele>1361.4</ele>
        <time>2022-02-08T09:24:19Z</time>
      </trkpt>
      <trkpt lat="41.9133650" lon="-2.9168170">
        <ele>1361.5</ele>
        <time>2022-02-08T09:24:20Z</time>
      </trkpt>
      <trkpt lat="41.9133930" lon="-2.9168480">
        <ele>1361.7</ele>
        <time>2022-02-08T09:24:21Z</time>
      </trkpt>
      <trkpt lat="41.9134250" lon="-2.9168780">
        <ele>1361.8</ele>
        <time>2022-02-08T09:24:22Z</time>
      </trkpt>
      <trkpt lat="41.9134430" lon="-2.9169100">
        <ele>1361.9</ele>
        <time>2022-02-08T09:24:23Z</time>
      </trkpt>
      <trkpt lat="41.9134550" lon="-2.9169520">
        <ele>1362.0</ele>
        <time>2022-02-08T09:24:24Z</time>
      </trkpt>
      <trkpt lat="41.9134550" lon="-2.9169980">
        <ele>1362.0</ele>
        <time>2022-02-08T09:24:25Z</time>
      </trkpt>
      <trkpt lat="41.9134500" lon="-2.9170470">
        <ele>1362.1</ele>
        <time>2022-02-08T09:24:26Z</time>
      </trkpt>
      <trkpt lat="41.9134400" lon="-2.9170980">
        <ele>1362.1</ele>
        <time>2022-02-08T09:24:27Z</time>
      </trkpt>
      <trkpt lat="41.9134300" lon="-2.9171600">
        <ele>1362.2</ele>
        <time>2022-02-08T09:24:28Z</time>
      </trkpt>
      <trkpt lat="41.9134250" lon="-2.9172000">
        <ele>1362.2</ele>
        <time>2022-02-08T09:24:29Z</time>
      </trkpt>
      <trkpt lat="41.9134180" lon="-2.9172520">
        <ele>1362.2</ele>
        <time>2022-02-08T09:24:30Z</time>
      </trkpt>
      <trkpt lat="41.9134120" lon="-2.9173030">
        <ele>1362.2</ele>
        <time>2022-02-08T09:24:31Z</time>
      </trkpt>
      <trkpt lat="41.9134030" lon="-2.9173630">
        <ele>1362.2</ele>
        <time>2022-02-08T09:24:32Z</time>
      </trkpt>
      <trkpt lat="41.9133950" lon="-2.9174370">
        <ele>1362.1</ele>
        <time>2022-02-08T09:24:33Z</time>
      </trkpt>
      <trkpt lat="41.9133920" lon="-2.9175020">
        <ele>1362.1</ele>
        <time>2022-02-08T09:24:34Z</time>
      </trkpt>
      <trkpt lat="41.9133930" lon="-2.9175550">
        <ele>1362.0</ele>
        <time>2022-02-08T09:24:35Z</time>
      </trkpt>
      <trkpt lat="41.9133920" lon="-2.9176220">
        <ele>1362.0</ele>
        <time>2022-02-08T09:24:36Z</time>
      </trkpt>
      <trkpt lat="41.9133780" lon="-2.9176950">
        <ele>1362.0</ele>
        <time>2022-02-08T09:24:37Z</time>
      </trkpt>
      <trkpt lat="41.9133600" lon="-2.9177480">
        <ele>1362.0</ele>
        <time>2022-02-08T09:24:38Z</time>
      </trkpt>
      <trkpt lat="41.9133420" lon="-2.9177830">
        <ele>1362.0</ele>
        <time>2022-02-08T09:24:39Z</time>
      </trkpt>
      <trkpt lat="41.9133150" lon="-2.9178170">
        <ele>1362.1</ele>
        <time>2022-02-08T09:24:40Z</time>
      </trkpt>
      <trkpt lat="41.9132830" lon="-2.9178600">
        <ele>1362.2</ele>
        <time>2022-02-08T09:24:41Z</time>
      </trkpt>
      <trkpt lat="41.9132550" lon="-2.9178930">
        <ele>1362.3</ele>
        <time>2022-02-08T09:24:42Z</time>
      </trkpt>
      <trkpt lat="41.9132280" lon="-2.9179220">
        <ele>1362.4</ele>
        <time>2022-02-08T09:24:43Z</time>
      </trkpt>
      <trkpt lat="41.9132080" lon="-2.9179420">
        <ele>1362.5</ele>
        <time>2022-02-08T09:24:44Z</time>
      </trkpt>
      <trkpt lat="41.9131870" lon="-2.9179720">
        <ele>1362.7</ele>
        <time>2022-02-08T09:24:45Z</time>
      </trkpt>
      <trkpt lat="41.9131680" lon="-2.9180050">
        <ele>1362.9</ele>
        <time>2022-02-08T09:24:46Z</time>
      </trkpt>
      <trkpt lat="41.9131480" lon="-2.9180470">
        <ele>1363.2</ele>
        <time>2022-02-08T09:24:47Z</time>
      </trkpt>
      <trkpt lat="41.9131370" lon="-2.9180830">
        <ele>1363.4</ele>
        <time>2022-02-08T09:24:48Z</time>
      </trkpt>
      <trkpt lat="41.9131270" lon="-2.9181120">
        <ele>1363.6</ele>
        <time>2022-02-08T09:24:49Z</time>
      </trkpt>
      <trkpt lat="41.9131170" lon="-2.9181450">
        <ele>1363.8</ele>
        <time>2022-02-08T09:24:50Z</time>
      </trkpt>
      <trkpt lat="41.9131020" lon="-2.9181900">
        <ele>1364.2</ele>
        <time>2022-02-08T09:24:51Z</time>
      </trkpt>
      <trkpt lat="41.9130900" lon="-2.9182270">
        <ele>1364.5</ele>
        <time>2022-02-08T09:24:52Z</time>
      </trkpt>
      <trkpt lat="41.9130820" lon="-2.9182570">
        <ele>1364.7</ele>
        <time>2022-02-08T09:24:53Z</time>
      </trkpt>
      <trkpt lat="41.9130750" lon="-2.9182800">
        <ele>1364.9</ele>
        <time>2022-02-08T09:24:54Z</time>
      </trkpt>
      <trkpt lat="41.9130650" lon="-2.9183030">
        <ele>1365.1</ele>
        <time>2022-02-08T09:24:55Z</time>
      </trkpt>
      <trkpt lat="41.9130570" lon="-2.9183320">
        <ele>1365.4</ele>
        <time>2022-02-08T09:24:56Z</time>
      </trkpt>
      <trkpt lat="41.9130470" lon="-2.9183630">
        <ele>1365.7</ele>
        <time>2022-02-08T09:24:57Z</time>
      </trkpt>
      <trkpt lat="41.9130380" lon="-2.9183880">
        <ele>1365.9</ele>
        <time>2022-02-08T09:24:58Z</time>
      </trkpt>
      <trkpt lat="41.9130280" lon="-2.9184180">
        <ele>1366.2</ele>
        <time>2022-02-08T09:24:59Z</time>
      </trkpt>
      <trkpt lat="41.9130170" lon="-2.9184470">
        <ele>1366.6</ele>
        <time>2022-02-08T09:25:00Z</time>
      </trkpt>
      <trkpt lat="41.9130080" lon="-2.9184770">
        <ele>1366.9</ele>
        <time>2022-02-08T09:25:01Z</time>
      </trkpt>
      <trkpt lat="41.9130000" lon="-2.9185100">
        <ele>1367.2</ele>
        <time>2022-02-08T09:25:02Z</time>
      </trkpt>
      <trkpt lat="41.9129930" lon="-2.9185400">
        <ele>1367.6</ele>
        <time>2022-02-08T09:25:03Z</time>
      </trkpt>
      <trkpt lat="41.9129900" lon="-2.9185700">
        <ele>1367.9</ele>
        <time>2022-02-08T09:25:04Z</time>
      </trkpt>
      <trkpt lat="41.9129820" lon="-2.9186000">
        <ele>1368.2</ele>
        <time>2022-02-08T09:25:05Z</time>
      </trkpt>
      <trkpt lat="41.9129750" lon="-2.9186330">
        <ele>1368.6</ele>
        <time>2022-02-08T09:25:06Z</time>
      </trkpt>
      <trkpt lat="41.9129680" lon="-2.9186570">
        <ele>1368.8</ele>
        <time>2022-02-08T09:25:07Z</time>
      </trkpt>
      <trkpt lat="41.9129600" lon="-2.9186770">
        <ele>1369.1</ele>
        <time>2022-02-08T09:25:08Z</time>
      </trkpt>
      <trkpt lat="41.9129500" lon="-2.9187050">
        <ele>1369.4</ele>
        <time>2022-02-08T09:25:09Z</time>
      </trkpt>
      <trkpt lat="41.9129420" lon="-2.9187370">
        <ele>1369.8</ele>
        <time>2022-02-08T09:25:10Z</time>
      </trkpt>
      <trkpt lat="41.9129330" lon="-2.9187670">
        <ele>1370.2</ele>
        <time>2022-02-08T09:25:11Z</time>
      </trkpt>
      <trkpt lat="41.9129250" lon="-2.9187870">
        <ele>1370.4</ele>
        <time>2022-02-08T09:25:12Z</time>
      </trkpt>
      <trkpt lat="41.9129150" lon="-2.9188070">
        <ele>1370.7</ele>
        <time>2022-02-08T09:25:13Z</time>
      </trkpt>
      <trkpt lat="41.9129000" lon="-2.9188330">
        <ele>1371.1</ele>
        <time>2022-02-08T09:25:14Z</time>
      </trkpt>
      <trkpt lat="41.9128830" lon="-2.9188580">
        <ele>1371.6</ele>
        <time>2022-02-08T09:25:15Z</time>
      </trkpt>
      <trkpt lat="41.9128700" lon="-2.9188870">
        <ele>1372.0</ele>
        <time>2022-02-08T09:25:16Z</time>
      </trkpt>
      <trkpt lat="41.9128580" lon="-2.9189080">
        <ele>1372.3</ele>
        <time>2022-02-08T09:25:17Z</time>
      </trkpt>
      <trkpt lat="41.9128480" lon="-2.9189280">
        <ele>1372.7</ele>
        <time>2022-02-08T09:25:18Z</time>
      </trkpt>
      <trkpt lat="41.9128370" lon="-2.9189520">
        <ele>1373.0</ele>
        <time>2022-02-08T09:25:19Z</time>
      </trkpt>
      <trkpt lat="41.9128270" lon="-2.9189750">
        <ele>1373.4</ele>
        <time>2022-02-08T09:25:20Z</time>
      </trkpt>
      <trkpt lat="41.9128180" lon="-2.9190030">
        <ele>1373.8</ele>
        <time>2022-02-08T09:25:21Z</time>
      </trkpt>
      <trkpt lat="41.9128080" lon="-2.9190330">
        <ele>1374.2</ele>
        <time>2022-02-08T09:25:22Z</time>
      </trkpt>
      <trkpt lat="41.9127980" lon="-2.9190670">
        <ele>1374.6</ele>
        <time>2022-02-08T09:25:23Z</time>
      </trkpt>
      <trkpt lat="41.9127880" lon="-2.9191020">
        <ele>1375.1</ele>
        <time>2022-02-08T09:25:24Z</time>
      </trkpt>
      <trkpt lat="41.9127800" lon="-2.9191400">
        <ele>1375.6</ele>
        <time>2022-02-08T09:25:25Z</time>
      </trkpt>
      <trkpt lat="41.9127680" lon="-2.9191730">
        <ele>1376.0</ele>
        <time>2022-02-08T09:25:26Z</time>
      </trkpt>
      <trkpt lat="41.9127600" lon="-2.9192020">
        <ele>1376.1</ele>
        <time>2022-02-08T09:25:27Z</time>
      </trkpt>
      <trkpt lat="41.9127530" lon="-2.9192430">
        <ele>1376.3</ele>
        <time>2022-02-08T09:25:28Z</time>
      </trkpt>
      <trkpt lat="41.9127500" lon="-2.9192680">
        <ele>1376.5</ele>
        <time>2022-02-08T09:25:29Z</time>
      </trkpt>
      <trkpt lat="41.9127480" lon="-2.9193050">
        <ele>1376.6</ele>
        <time>2022-02-08T09:25:30Z</time>
      </trkpt>
      <trkpt lat="41.9127430" lon="-2.9193420">
        <ele>1376.8</ele>
        <time>2022-02-08T09:25:31Z</time>
      </trkpt>
      <trkpt lat="41.9127400" lon="-2.9193800">
        <ele>1376.9</ele>
        <time>2022-02-08T09:25:32Z</time>
      </trkpt>
      <trkpt lat="41.9127400" lon="-2.9194270">
        <ele>1377.0</ele>
        <time>2022-02-08T09:25:33Z</time>
      </trkpt>
      <trkpt lat="41.9127420" lon="-2.9194670">
        <ele>1377.0</ele>
        <time>2022-02-08T09:25:34Z</time>
      </trkpt>
      <trkpt lat="41.9127420" lon="-2.9195030">
        <ele>1377.1</ele>
        <time>2022-02-08T09:25:35Z</time>
      </trkpt>
      <trkpt lat="41.9127430" lon="-2.9195300">
        <ele>1377.1</ele>
        <time>2022-02-08T09:25:36Z</time>
      </trkpt>
      <trkpt lat="41.9127430" lon="-2.9195630">
        <ele>1377.1</ele>
        <time>2022-02-08T09:25:37Z</time>
      </trkpt>
      <trkpt lat="41.9127470" lon="-2.9196100">
        <ele>1377.1</ele>
        <time>2022-02-08T09:25:38Z</time>
      </trkpt>
      <trkpt lat="41.9127470" lon="-2.9196530">
        <ele>1377.1</ele>
        <time>2022-02-08T09:25:39Z</time>
      </trkpt>
      <trkpt lat="41.9127470" lon="-2.9196980">
        <ele>1377.1</ele>
        <time>2022-02-08T09:25:40Z</time>
      </trkpt>
      <trkpt lat="41.9127470" lon="-2.9197350">
        <ele>1377.1</ele>
        <time>2022-02-08T09:25:41Z</time>
      </trkpt>
      <trkpt lat="41.9127450" lon="-2.9197800">
        <ele>1377.1</ele>
        <time>2022-02-08T09:25:42Z</time>
      </trkpt>
      <trkpt lat="41.9127430" lon="-2.9198250">
        <ele>1377.1</ele>
        <time>2022-02-08T09:25:43Z</time>
      </trkpt>
      <trkpt lat="41.9127450" lon="-2.9198780">
        <ele>1377.1</ele>
        <time>2022-02-08T09:25:44Z</time>
      </trkpt>
      <trkpt lat="41.9127500" lon="-2.9199250">
        <ele>1377.1</ele>
        <time>2022-02-08T09:25:45Z</time>
      </trkpt>
      <trkpt lat="41.9127530" lon="-2.9199630">
        <ele>1377.0</ele>
        <time>2022-02-08T09:25:46Z</time>
      </trkpt>
      <trkpt lat="41.9127530" lon="-2.9200100">
        <ele>1377.0</ele>
        <time>2022-02-08T09:25:47Z</time>
      </trkpt>
      <trkpt lat="41.9127500" lon="-2.9200650">
        <ele>1377.0</ele>
        <time>2022-02-08T09:25:48Z</time>
      </trkpt>
      <trkpt lat="41.9127450" lon="-2.9201120">
        <ele>1377.0</ele>
        <time>2022-02-08T09:25:49Z</time>
      </trkpt>
      <trkpt lat="41.9127430" lon="-2.9201520">
        <ele>1377.0</ele>
        <time>2022-02-08T09:25:50Z</time>
      </trkpt>
      <trkpt lat="41.9127450" lon="-2.9202000">
        <ele>1376.9</ele>
        <time>2022-02-08T09:25:51Z</time>
      </trkpt>
      <trkpt lat="41.9127450" lon="-2.9202550">
        <ele>1376.9</ele>
        <time>2022-02-08T09:25:52Z</time>
      </trkpt>
      <trkpt lat="41.9127450" lon="-2.9202930">
        <ele>1376.9</ele>
        <time>2022-02-08T09:25:53Z</time>
      </trkpt>
      <trkpt lat="41.9127450" lon="-2.9203520">
        <ele>1376.9</ele>
        <time>2022-02-08T09:25:54Z</time>
      </trkpt>
      <trkpt lat="41.9127470" lon="-2.9203920">
        <ele>1376.9</ele>
        <time>2022-02-08T09:25:55Z</time>
      </trkpt>
      <trkpt lat="41.9127520" lon="-2.9204370">
        <ele>1376.9</ele>
        <time>2022-02-08T09:25:56Z</time>
      </trkpt>
      <trkpt lat="41.9127620" lon="-2.9204880">
        <ele>1376.9</ele>
        <time>2022-02-08T09:25:57Z</time>
      </trkpt>
      <trkpt lat="41.9127700" lon="-2.9205230">
        <ele>1376.9</ele>
        <time>2022-02-08T09:25:58Z</time>
      </trkpt>
      <trkpt lat="41.9127820" lon="-2.9205670">
        <ele>1376.9</ele>
        <time>2022-02-08T09:25:59Z</time>
      </trkpt>
      <trkpt lat="41.9127920" lon="-2.9206130">
        <ele>1376.9</ele>
        <time>2022-02-08T09:26:00Z</time>
      </trkpt>
      <trkpt lat="41.9128020" lon="-2.9206750">
        <ele>1376.9</ele>
        <time>2022-02-08T09:26:01Z</time>
      </trkpt>
      <trkpt lat="41.9128080" lon="-2.9207130">
        <ele>1376.9</ele>
        <time>2022-02-08T09:26:02Z</time>
      </trkpt>
      <trkpt lat="41.9128130" lon="-2.9207570">
        <ele>1376.9</ele>
        <time>2022-02-08T09:26:03Z</time>
      </trkpt>
      <trkpt lat="41.9128180" lon="-2.9208000">
        <ele>1376.9</ele>
        <time>2022-02-08T09:26:04Z</time>
      </trkpt>
      <trkpt lat="41.9128250" lon="-2.9208370">
        <ele>1376.9</ele>
        <time>2022-02-08T09:26:05Z</time>
      </trkpt>
      <trkpt lat="41.9128270" lon="-2.9208780">
        <ele>1377.0</ele>
        <time>2022-02-08T09:26:06Z</time>
      </trkpt>
      <trkpt lat="41.9128220" lon="-2.9209350">
        <ele>1377.0</ele>
        <time>2022-02-08T09:26:07Z</time>
      </trkpt>
      <trkpt lat="41.9128170" lon="-2.9209750">
        <ele>1377.0</ele>
        <time>2022-02-08T09:26:08Z</time>
      </trkpt>
      <trkpt lat="41.9128100" lon="-2.9210250">
        <ele>1377.0</ele>
        <time>2022-02-08T09:26:09Z</time>
      </trkpt>
      <trkpt lat="41.9128030" lon="-2.9210750">
        <ele>1377.0</ele>
        <time>2022-02-08T09:26:10Z</time>
      </trkpt>
      <trkpt lat="41.9127970" lon="-2.9211300">
        <ele>1377.0</ele>
        <time>2022-02-08T09:26:11Z</time>
      </trkpt>
      <trkpt lat="41.9127930" lon="-2.9211750">
        <ele>1377.1</ele>
        <time>2022-02-08T09:26:12Z</time>
      </trkpt>
      <trkpt lat="41.9127920" lon="-2.9212120">
        <ele>1377.1</ele>
        <time>2022-02-08T09:26:13Z</time>
      </trkpt>
      <trkpt lat="41.9127870" lon="-2.9212550">
        <ele>1377.1</ele>
        <time>2022-02-08T09:26:14Z</time>
      </trkpt>
      <trkpt lat="41.9127870" lon="-2.9213080">
        <ele>1377.1</ele>
        <time>2022-02-08T09:26:15Z</time>
      </trkpt>
      <trkpt lat="41.9127850" lon="-2.9213550">
        <ele>1377.2</ele>
        <time>2022-02-08T09:26:16Z</time>
      </trkpt>
      <trkpt lat="41.9127880" lon="-2.9214150">
        <ele>1377.2</ele>
        <time>2022-02-08T09:26:17Z</time>
      </trkpt>
      <trkpt lat="41.9127870" lon="-2.9214720">
        <ele>1377.3</ele>
        <time>2022-02-08T09:26:18Z</time>
      </trkpt>
      <trkpt lat="41.9127880" lon="-2.9215220">
        <ele>1377.3</ele>
        <time>2022-02-08T09:26:19Z</time>
      </trkpt>
      <trkpt lat="41.9127920" lon="-2.9215700">
        <ele>1377.3</ele>
        <time>2022-02-08T09:26:20Z</time>
      </trkpt>
      <trkpt lat="41.9127950" lon="-2.9216230">
        <ele>1377.4</ele>
        <time>2022-02-08T09:26:21Z</time>
      </trkpt>
      <trkpt lat="41.9127970" lon="-2.9216570">
        <ele>1377.4</ele>
        <time>2022-02-08T09:26:22Z</time>
      </trkpt>
      <trkpt lat="41.9128000" lon="-2.9217050">
        <ele>1377.5</ele>
        <time>2022-02-08T09:26:23Z</time>
      </trkpt>
      <trkpt lat="41.9128020" lon="-2.9217500">
        <ele>1377.5</ele>
        <time>2022-02-08T09:26:24Z</time>
      </trkpt>
      <trkpt lat="41.9128000" lon="-2.9217900">
        <ele>1377.6</ele>
        <time>2022-02-08T09:26:25Z</time>
      </trkpt>
      <trkpt lat="41.9127950" lon="-2.9218300">
        <ele>1377.6</ele>
        <time>2022-02-08T09:26:26Z</time>
      </trkpt>
      <trkpt lat="41.9127880" lon="-2.9218700">
        <ele>1377.7</ele>
        <time>2022-02-08T09:26:27Z</time>
      </trkpt>
      <trkpt lat="41.9127800" lon="-2.9219100">
        <ele>1377.8</ele>
        <time>2022-02-08T09:26:28Z</time>
      </trkpt>
      <trkpt lat="41.9127700" lon="-2.9219530">
        <ele>1377.8</ele>
        <time>2022-02-08T09:26:29Z</time>
      </trkpt>
      <trkpt lat="41.9127630" lon="-2.9219970">
        <ele>1377.9</ele>
        <time>2022-02-08T09:26:30Z</time>
      </trkpt>
      <trkpt lat="41.9127570" lon="-2.9220420">
        <ele>1378.0</ele>
        <time>2022-02-08T09:26:31Z</time>
      </trkpt>
      <trkpt lat="41.9127480" lon="-2.9220850">
        <ele>1378.1</ele>
        <time>2022-02-08T09:26:32Z</time>
      </trkpt>
      <trkpt lat="41.9127420" lon="-2.9221280">
        <ele>1378.2</ele>
        <time>2022-02-08T09:26:33Z</time>
      </trkpt>
      <trkpt lat="41.9127350" lon="-2.9221720">
        <ele>1378.3</ele>
        <time>2022-02-08T09:26:34Z</time>
      </trkpt>
      <trkpt lat="41.9127270" lon="-2.9222270">
        <ele>1378.4</ele>
        <time>2022-02-08T09:26:35Z</time>
      </trkpt>
      <trkpt lat="41.9127230" lon="-2.9222650">
        <ele>1378.5</ele>
        <time>2022-02-08T09:26:36Z</time>
      </trkpt>
      <trkpt lat="41.9127220" lon="-2.9223070">
        <ele>1378.6</ele>
        <time>2022-02-08T09:26:37Z</time>
      </trkpt>
      <trkpt lat="41.9127170" lon="-2.9223500">
        <ele>1378.7</ele>
        <time>2022-02-08T09:26:38Z</time>
      </trkpt>
      <trkpt lat="41.9127100" lon="-2.9223920">
        <ele>1378.8</ele>
        <time>2022-02-08T09:26:39Z</time>
      </trkpt>
      <trkpt lat="41.9127030" lon="-2.9224380">
        <ele>1378.9</ele>
        <time>2022-02-08T09:26:40Z</time>
      </trkpt>
      <trkpt lat="41.9127020" lon="-2.9224730">
        <ele>1379.0</ele>
        <time>2022-02-08T09:26:41Z</time>
      </trkpt>
      <trkpt lat="41.9126950" lon="-2.9225100">
        <ele>1379.1</ele>
        <time>2022-02-08T09:26:42Z</time>
      </trkpt>
      <trkpt lat="41.9126830" lon="-2.9225380">
        <ele>1379.2</ele>
        <time>2022-02-08T09:26:43Z</time>
      </trkpt>
      <trkpt lat="41.9126670" lon="-2.9225720">
        <ele>1379.3</ele>
        <time>2022-02-08T09:26:44Z</time>
      </trkpt>
      <trkpt lat="41.9126550" lon="-2.9226100">
        <ele>1379.4</ele>
        <time>2022-02-08T09:26:45Z</time>
      </trkpt>
      <trkpt lat="41.9126430" lon="-2.9226520">
        <ele>1379.5</ele>
        <time>2022-02-08T09:26:46Z</time>
      </trkpt>
      <trkpt lat="41.9126320" lon="-2.9227000">
        <ele>1379.6</ele>
        <time>2022-02-08T09:26:47Z</time>
      </trkpt>
      <trkpt lat="41.9126250" lon="-2.9227350">
        <ele>1379.7</ele>
        <time>2022-02-08T09:26:48Z</time>
      </trkpt>
      <trkpt lat="41.9126220" lon="-2.9227800">
        <ele>1379.8</ele>
        <time>2022-02-08T09:26:49Z</time>
      </trkpt>
      <trkpt lat="41.9126200" lon="-2.9228230">
        <ele>1379.9</ele>
        <time>2022-02-08T09:26:50Z</time>
      </trkpt>
      <trkpt lat="41.9126170" lon="-2.9228800">
        <ele>1380.0</ele>
        <time>2022-02-08T09:26:51Z</time>
      </trkpt>
      <trkpt lat="41.9126150" lon="-2.9229130">
        <ele>1380.1</ele>
        <time>2022-02-08T09:26:52Z</time>
      </trkpt>
      <trkpt lat="41.9126100" lon="-2.9229520">
        <ele>1380.1</ele>
        <time>2022-02-08T09:26:53Z</time>
      </trkpt>
      <trkpt lat="41.9126020" lon="-2.9229920">
        <ele>1380.2</ele>
        <time>2022-02-08T09:26:54Z</time>
      </trkpt>
      <trkpt lat="41.9125920" lon="-2.9230420">
        <ele>1380.4</ele>
        <time>2022-02-08T09:26:55Z</time>
      </trkpt>
      <trkpt lat="41.9125830" lon="-2.9230850">
        <ele>1380.5</ele>
        <time>2022-02-08T09:26:56Z</time>
      </trkpt>
      <trkpt lat="41.9125730" lon="-2.9231270">
        <ele>1380.6</ele>
        <time>2022-02-08T09:26:57Z</time>
      </trkpt>
      <trkpt lat="41.9125680" lon="-2.9231630">
        <ele>1380.7</ele>
        <time>2022-02-08T09:26:58Z</time>
      </trkpt>
      <trkpt lat="41.9125630" lon="-2.9232130">
        <ele>1380.8</ele>
        <time>2022-02-08T09:26:59Z</time>
      </trkpt>
      <trkpt lat="41.9125580" lon="-2.9232550">
        <ele>1380.9</ele>
        <time>2022-02-08T09:27:00Z</time>
      </trkpt>
      <trkpt lat="41.9125550" lon="-2.9232970">
        <ele>1381.0</ele>
        <time>2022-02-08T09:27:01Z</time>
      </trkpt>
      <trkpt lat="41.9125550" lon="-2.9233320">
        <ele>1381.1</ele>
        <time>2022-02-08T09:27:02Z</time>
      </trkpt>
      <trkpt lat="41.9125500" lon="-2.9233750">
        <ele>1381.3</ele>
        <time>2022-02-08T09:27:03Z</time>
      </trkpt>
      <trkpt lat="41.9125500" lon="-2.9234200">
        <ele>1381.4</ele>
        <time>2022-02-08T09:27:04Z</time>
      </trkpt>
      <trkpt lat="41.9125480" lon="-2.9234620">
        <ele>1381.5</ele>
        <time>2022-02-08T09:27:05Z</time>
      </trkpt>
      <trkpt lat="41.9125480" lon="-2.9234980">
        <ele>1381.6</ele>
        <time>2022-02-08T09:27:06Z</time>
      </trkpt>
      <trkpt lat="41.9125470" lon="-2.9235420">
        <ele>1381.7</ele>
        <time>2022-02-08T09:27:07Z</time>
      </trkpt>
      <trkpt lat="41.9125380" lon="-2.9235800">
        <ele>1381.8</ele>
        <time>2022-02-08T09:27:08Z</time>
      </trkpt>
      <trkpt lat="41.9125220" lon="-2.9236170">
        <ele>1381.9</ele>
        <time>2022-02-08T09:27:09Z</time>
      </trkpt>
      <trkpt lat="41.9125050" lon="-2.9236400">
        <ele>1382.0</ele>
        <time>2022-02-08T09:27:10Z</time>
      </trkpt>
      <trkpt lat="41.9124900" lon="-2.9236630">
        <ele>1382.1</ele>
        <time>2022-02-08T09:27:11Z</time>
      </trkpt>
      <trkpt lat="41.9124750" lon="-2.9236930">
        <ele>1382.2</ele>
        <time>2022-02-08T09:27:12Z</time>
      </trkpt>
      <trkpt lat="41.9124520" lon="-2.9237330">
        <ele>1382.4</ele>
        <time>2022-02-08T09:27:13Z</time>
      </trkpt>
      <trkpt lat="41.9124330" lon="-2.9237650">
        <ele>1382.6</ele>
        <time>2022-02-08T09:27:14Z</time>
      </trkpt>
      <trkpt lat="41.9124120" lon="-2.9237850">
        <ele>1382.7</ele>
        <time>2022-02-08T09:27:15Z</time>
      </trkpt>
      <trkpt lat="41.9123920" lon="-2.9238130">
        <ele>1382.8</ele>
        <time>2022-02-08T09:27:16Z</time>
      </trkpt>
      <trkpt lat="41.9123750" lon="-2.9238470">
        <ele>1383.0</ele>
        <time>2022-02-08T09:27:17Z</time>
      </trkpt>
      <trkpt lat="41.9123600" lon="-2.9238900">
        <ele>1383.2</ele>
        <time>2022-02-08T09:27:18Z</time>
      </trkpt>
      <trkpt lat="41.9123580" lon="-2.9239200">
        <ele>1383.4</ele>
        <time>2022-02-08T09:27:19Z</time>
      </trkpt>
      <trkpt lat="41.9123600" lon="-2.9239570">
        <ele>1383.6</ele>
        <time>2022-02-08T09:27:20Z</time>
      </trkpt>
      <trkpt lat="41.9123600" lon="-2.9239950">
        <ele>1383.8</ele>
        <time>2022-02-08T09:27:21Z</time>
      </trkpt>
      <trkpt lat="41.9123630" lon="-2.9240300">
        <ele>1383.9</ele>
        <time>2022-02-08T09:27:22Z</time>
      </trkpt>
      <trkpt lat="41.9123670" lon="-2.9240600">
        <ele>1384.1</ele>
        <time>2022-02-08T09:27:23Z</time>
      </trkpt>
      <trkpt lat="41.9123720" lon="-2.9240880">
        <ele>1384.2</ele>
        <time>2022-02-08T09:27:24Z</time>
      </trkpt>
      <trkpt lat="41.9123780" lon="-2.9241120">
        <ele>1384.4</ele>
        <time>2022-02-08T09:27:25Z</time>
      </trkpt>
      <trkpt lat="41.9123930" lon="-2.9241420">
        <ele>1384.5</ele>
        <time>2022-02-08T09:27:26Z</time>
      </trkpt>
      <trkpt lat="41.9124070" lon="-2.9241700">
        <ele>1384.7</ele>
        <time>2022-02-08T09:27:27Z</time>
      </trkpt>
      <trkpt lat="41.9124180" lon="-2.9241980">
        <ele>1384.8</ele>
        <time>2022-02-08T09:27:28Z</time>
      </trkpt>
      <trkpt lat="41.9124300" lon="-2.9242230">
        <ele>1384.9</ele>
        <time>2022-02-08T09:27:29Z</time>
      </trkpt>
      <trkpt lat="41.9124400" lon="-2.9242530">
        <ele>1385.1</ele>
        <time>2022-02-08T09:27:30Z</time>
      </trkpt>
      <trkpt lat="41.9124480" lon="-2.9242900">
        <ele>1385.2</ele>
        <time>2022-02-08T09:27:31Z</time>
      </trkpt>
      <trkpt lat="41.9124500" lon="-2.9243350">
        <ele>1385.4</ele>
        <time>2022-02-08T09:27:32Z</time>
      </trkpt>
      <trkpt lat="41.9124550" lon="-2.9243780">
        <ele>1385.6</ele>
        <time>2022-02-08T09:27:33Z</time>
      </trkpt>
      <trkpt lat="41.9124530" lon="-2.9244180">
        <ele>1385.7</ele>
        <time>2022-02-08T09:27:34Z</time>
      </trkpt>
      <trkpt lat="41.9124550" lon="-2.9244470">
        <ele>1385.8</ele>
        <time>2022-02-08T09:27:35Z</time>
      </trkpt>
      <trkpt lat="41.9124570" lon="-2.9244830">
        <ele>1385.9</ele>
        <time>2022-02-08T09:27:36Z</time>
      </trkpt>
      <trkpt lat="41.9124570" lon="-2.9245250">
        <ele>1386.1</ele>
        <time>2022-02-08T09:27:37Z</time>
      </trkpt>
      <trkpt lat="41.9124570" lon="-2.9245650">
        <ele>1386.2</ele>
        <time>2022-02-08T09:27:38Z</time>
      </trkpt>
      <trkpt lat="41.9124500" lon="-2.9246100">
        <ele>1386.4</ele>
        <time>2022-02-08T09:27:39Z</time>
      </trkpt>
      <trkpt lat="41.9124480" lon="-2.9246470">
        <ele>1386.5</ele>
        <time>2022-02-08T09:27:40Z</time>
      </trkpt>
      <trkpt lat="41.9124450" lon="-2.9246880">
        <ele>1386.7</ele>
        <time>2022-02-08T09:27:41Z</time>
      </trkpt>
      <trkpt lat="41.9124420" lon="-2.9247300">
        <ele>1386.8</ele>
        <time>2022-02-08T09:27:42Z</time>
      </trkpt>
      <trkpt lat="41.9124370" lon="-2.9247820">
        <ele>1387.0</ele>
        <time>2022-02-08T09:27:43Z</time>
      </trkpt>
      <trkpt lat="41.9124330" lon="-2.9248170">
        <ele>1387.1</ele>
        <time>2022-02-08T09:27:44Z</time>
      </trkpt>
      <trkpt lat="41.9124280" lon="-2.9248580">
        <ele>1387.2</ele>
        <time>2022-02-08T09:27:45Z</time>
      </trkpt>
      <trkpt lat="41.9124150" lon="-2.9249030">
        <ele>1387.4</ele>
        <time>2022-02-08T09:27:46Z</time>
      </trkpt>
      <trkpt lat="41.9123980" lon="-2.9249420">
        <ele>1387.5</ele>
        <time>2022-02-08T09:27:47Z</time>
      </trkpt>
      <trkpt lat="41.9123780" lon="-2.9249680">
        <ele>1387.5</ele>
        <time>2022-02-08T09:27:48Z</time>
      </trkpt>
      <trkpt lat="41.9123570" lon="-2.9250000">
        <ele>1387.6</ele>
        <time>2022-02-08T09:27:49Z</time>
      </trkpt>
      <trkpt lat="41.9123380" lon="-2.9250320">
        <ele>1387.7</ele>
        <time>2022-02-08T09:27:50Z</time>
      </trkpt>
      <trkpt lat="41.9123200" lon="-2.9250720">
        <ele>1387.8</ele>
        <time>2022-02-08T09:27:51Z</time>
      </trkpt>
      <trkpt lat="41.9123030" lon="-2.9251080">
        <ele>1387.9</ele>
        <time>2022-02-08T09:27:52Z</time>
      </trkpt>
      <trkpt lat="41.9122880" lon="-2.9251470">
        <ele>1387.9</ele>
        <time>2022-02-08T09:27:53Z</time>
      </trkpt>
      <trkpt lat="41.9122800" lon="-2.9251780">
        <ele>1388.0</ele>
        <time>2022-02-08T09:27:54Z</time>
      </trkpt>
      <trkpt lat="41.9122650" lon="-2.9252180">
        <ele>1388.0</ele>
        <time>2022-02-08T09:27:55Z</time>
      </trkpt>
      <trkpt lat="41.9122480" lon="-2.9252670">
        <ele>1388.1</ele>
        <time>2022-02-08T09:27:56Z</time>
      </trkpt>
      <trkpt lat="41.9122350" lon="-2.9253070">
        <ele>1388.1</ele>
        <time>2022-02-08T09:27:57Z</time>
      </trkpt>
      <trkpt lat="41.9122230" lon="-2.9253400">
        <ele>1388.2</ele>
        <time>2022-02-08T09:27:58Z</time>
      </trkpt>
      <trkpt lat="41.9122080" lon="-2.9253880">
        <ele>1388.2</ele>
        <time>2022-02-08T09:27:59Z</time>
      </trkpt>
      <trkpt lat="41.9121980" lon="-2.9254300">
        <ele>1388.2</ele>
        <time>2022-02-08T09:28:00Z</time>
      </trkpt>
      <trkpt lat="41.9121920" lon="-2.9254780">
        <ele>1388.3</ele>
        <time>2022-02-08T09:28:01Z</time>
      </trkpt>
      <trkpt lat="41.9121900" lon="-2.9255270">
        <ele>1388.3</ele>
        <time>2022-02-08T09:28:02Z</time>
      </trkpt>
      <trkpt lat="41.9121870" lon="-2.9255650">
        <ele>1388.3</ele>
        <time>2022-02-08T09:28:03Z</time>
      </trkpt>
      <trkpt lat="41.9121800" lon="-2.9256080">
        <ele>1388.3</ele>
        <time>2022-02-08T09:28:04Z</time>
      </trkpt>
      <trkpt lat="41.9121630" lon="-2.9256600">
        <ele>1388.3</ele>
        <time>2022-02-08T09:28:05Z</time>
      </trkpt>
      <trkpt lat="41.9121450" lon="-2.9257080">
        <ele>1388.3</ele>
        <time>2022-02-08T09:28:06Z</time>
      </trkpt>
      <trkpt lat="41.9121330" lon="-2.9257480">
        <ele>1388.3</ele>
        <time>2022-02-08T09:28:07Z</time>
      </trkpt>
      <trkpt lat="41.9121170" lon="-2.9257970">
        <ele>1388.3</ele>
        <time>2022-02-08T09:28:08Z</time>
      </trkpt>
      <trkpt lat="41.9121000" lon="-2.9258370">
        <ele>1388.3</ele>
        <time>2022-02-08T09:28:09Z</time>
      </trkpt>
      <trkpt lat="41.9120800" lon="-2.9258850">
        <ele>1388.3</ele>
        <time>2022-02-08T09:28:10Z</time>
      </trkpt>
      <trkpt lat="41.9120620" lon="-2.9259300">
        <ele>1388.3</ele>
        <time>2022-02-08T09:28:11Z</time>
      </trkpt>
      <trkpt lat="41.9120480" lon="-2.9259700">
        <ele>1388.2</ele>
        <time>2022-02-08T09:28:12Z</time>
      </trkpt>
      <trkpt lat="41.9120300" lon="-2.9260180">
        <ele>1388.2</ele>
        <time>2022-02-08T09:28:13Z</time>
      </trkpt>
      <trkpt lat="41.9120070" lon="-2.9260700">
        <ele>1388.1</ele>
        <time>2022-02-08T09:28:14Z</time>
      </trkpt>
      <trkpt lat="41.9119870" lon="-2.9261150">
        <ele>1388.1</ele>
        <time>2022-02-08T09:28:15Z</time>
      </trkpt>
      <trkpt lat="41.9119630" lon="-2.9261600">
        <ele>1388.0</ele>
        <time>2022-02-08T09:28:16Z</time>
      </trkpt>
      <trkpt lat="41.9119400" lon="-2.9262100">
        <ele>1387.9</ele>
        <time>2022-02-08T09:28:17Z</time>
      </trkpt>
      <trkpt lat="41.9119170" lon="-2.9262620">
        <ele>1387.8</ele>
        <time>2022-02-08T09:28:18Z</time>
      </trkpt>
      <trkpt lat="41.9118970" lon="-2.9263180">
        <ele>1387.7</ele>
        <time>2022-02-08T09:28:19Z</time>
      </trkpt>
      <trkpt lat="41.9118850" lon="-2.9263730">
        <ele>1387.6</ele>
        <time>2022-02-08T09:28:20Z</time>
      </trkpt>
      <trkpt lat="41.9118750" lon="-2.9264280">
        <ele>1387.5</ele>
        <time>2022-02-08T09:28:21Z</time>
      </trkpt>
      <trkpt lat="41.9118620" lon="-2.9264730">
        <ele>1387.4</ele>
        <time>2022-02-08T09:28:22Z</time>
      </trkpt>
      <trkpt lat="41.9118450" lon="-2.9265420">
        <ele>1387.2</ele>
        <time>2022-02-08T09:28:23Z</time>
      </trkpt>
      <trkpt lat="41.9118250" lon="-2.9266030">
        <ele>1387.1</ele>
        <time>2022-02-08T09:28:24Z</time>
      </trkpt>
      <trkpt lat="41.9118020" lon="-2.9266620">
        <ele>1387.0</ele>
        <time>2022-02-08T09:28:25Z</time>
      </trkpt>
      <trkpt lat="41.9117750" lon="-2.9267100">
        <ele>1386.9</ele>
        <time>2022-02-08T09:28:26Z</time>
      </trkpt>
      <trkpt lat="41.9117370" lon="-2.9267850">
        <ele>1386.7</ele>
        <time>2022-02-08T09:28:27Z</time>
      </trkpt>
      <trkpt lat="41.9117050" lon="-2.9268480">
        <ele>1386.6</ele>
        <time>2022-02-08T09:28:28Z</time>
      </trkpt>
      <trkpt lat="41.9116750" lon="-2.9269030">
        <ele>1386.4</ele>
        <time>2022-02-08T09:28:29Z</time>
      </trkpt>
      <trkpt lat="41.9116550" lon="-2.9269480">
        <ele>1386.4</ele>
        <time>2022-02-08T09:28:30Z</time>
      </trkpt>
      <trkpt lat="41.9116280" lon="-2.9269980">
        <ele>1386.3</ele>
        <time>2022-02-08T09:28:31Z</time>
      </trkpt>
      <trkpt lat="41.9116000" lon="-2.9270500">
        <ele>1386.1</ele>
        <time>2022-02-08T09:28:32Z</time>
      </trkpt>
      <trkpt lat="41.9115720" lon="-2.9271120">
        <ele>1386.0</ele>
        <time>2022-02-08T09:28:33Z</time>
      </trkpt>
      <trkpt lat="41.9115430" lon="-2.9271630">
        <ele>1385.8</ele>
        <time>2022-02-08T09:28:34Z</time>
      </trkpt>
      <trkpt lat="41.9115200" lon="-2.9272130">
        <ele>1385.6</ele>
        <time>2022-02-08T09:28:35Z</time>
      </trkpt>
      <trkpt lat="41.9114900" lon="-2.9272880">
        <ele>1385.4</ele>
        <time>2022-02-08T09:28:36Z</time>
      </trkpt>
      <trkpt lat="41.9114670" lon="-2.9273550">
        <ele>1385.1</ele>
        <time>2022-02-08T09:28:37Z</time>
      </trkpt>
      <trkpt lat="41.9114420" lon="-2.9274130">
        <ele>1384.9</ele>
        <time>2022-02-08T09:28:38Z</time>
      </trkpt>
      <trkpt lat="41.9114130" lon="-2.9274670">
        <ele>1384.6</ele>
        <time>2022-02-08T09:28:39Z</time>
      </trkpt>
      <trkpt lat="41.9113750" lon="-2.9275220">
        <ele>1384.4</ele>
        <time>2022-02-08T09:28:40Z</time>
      </trkpt>
      <trkpt lat="41.9113450" lon="-2.9275700">
        <ele>1384.2</ele>
        <time>2022-02-08T09:28:41Z</time>
      </trkpt>
      <trkpt lat="41.9113020" lon="-2.9276400">
        <ele>1383.9</ele>
        <time>2022-02-08T09:28:42Z</time>
      </trkpt>
      <trkpt lat="41.9112550" lon="-2.9277030">
        <ele>1383.6</ele>
        <time>2022-02-08T09:28:43Z</time>
      </trkpt>
      <trkpt lat="41.9112130" lon="-2.9277730">
        <ele>1383.3</ele>
        <time>2022-02-08T09:28:44Z</time>
      </trkpt>
      <trkpt lat="41.9111750" lon="-2.9278430">
        <ele>1383.0</ele>
        <time>2022-02-08T09:28:45Z</time>
      </trkpt>
      <trkpt lat="41.9111420" lon="-2.9279150">
        <ele>1382.6</ele>
        <time>2022-02-08T09:28:46Z</time>
      </trkpt>
      <trkpt lat="41.9111080" lon="-2.9279820">
        <ele>1382.3</ele>
        <time>2022-02-08T09:28:47Z</time>
      </trkpt>
      <trkpt lat="41.9110750" lon="-2.9280420">
        <ele>1381.9</ele>
        <time>2022-02-08T09:28:48Z</time>
      </trkpt>
      <trkpt lat="41.9110300" lon="-2.9280930">
        <ele>1381.6</ele>
        <time>2022-02-08T09:28:49Z</time>
      </trkpt>
      <trkpt lat="41.9109800" lon="-2.9281450">
        <ele>1381.3</ele>
        <time>2022-02-08T09:28:50Z</time>
      </trkpt>
      <trkpt lat="41.9109380" lon="-2.9281900">
        <ele>1381.1</ele>
        <time>2022-02-08T09:28:51Z</time>
      </trkpt>
      <trkpt lat="41.9108820" lon="-2.9282620">
        <ele>1380.9</ele>
        <time>2022-02-08T09:28:52Z</time>
      </trkpt>
      <trkpt lat="41.9108350" lon="-2.9283300">
        <ele>1380.8</ele>
        <time>2022-02-08T09:28:53Z</time>
      </trkpt>
      <trkpt lat="41.9107930" lon="-2.9284030">
        <ele>1380.8</ele>
        <time>2022-02-08T09:28:54Z</time>
      </trkpt>
      <trkpt lat="41.9107630" lon="-2.9284570">
        <ele>1380.8</ele>
        <time>2022-02-08T09:28:55Z</time>
      </trkpt>
      <trkpt lat="41.9107270" lon="-2.9285130">
        <ele>1380.9</ele>
        <time>2022-02-08T09:28:56Z</time>
      </trkpt>
      <trkpt lat="41.9106880" lon="-2.9285780">
        <ele>1381.0</ele>
        <time>2022-02-08T09:28:57Z</time>
      </trkpt>
      <trkpt lat="41.9106570" lon="-2.9286280">
        <ele>1381.2</ele>
        <time>2022-02-08T09:28:58Z</time>
      </trkpt>
      <trkpt lat="41.9106280" lon="-2.9286670">
        <ele>1381.3</ele>
        <time>2022-02-08T09:28:59Z</time>
      </trkpt>
      <trkpt lat="41.9106080" lon="-2.9286950">
        <ele>1381.4</ele>
        <time>2022-02-08T09:29:00Z</time>
      </trkpt>
      <trkpt lat="41.9105800" lon="-2.9287430">
        <ele>1381.7</ele>
        <time>2022-02-08T09:29:01Z</time>
      </trkpt>
      <trkpt lat="41.9105570" lon="-2.9287800">
        <ele>1381.9</ele>
        <time>2022-02-08T09:29:02Z</time>
      </trkpt>
      <trkpt lat="41.9105330" lon="-2.9288180">
        <ele>1382.2</ele>
        <time>2022-02-08T09:29:03Z</time>
      </trkpt>
      <trkpt lat="41.9105170" lon="-2.9288580">
        <ele>1382.4</ele>
        <time>2022-02-08T09:29:04Z</time>
      </trkpt>
      <trkpt lat="41.9105050" lon="-2.9288980">
        <ele>1382.7</ele>
        <time>2022-02-08T09:29:05Z</time>
      </trkpt>
      <trkpt lat="41.9105030" lon="-2.9289350">
        <ele>1382.9</ele>
        <time>2022-02-08T09:29:06Z</time>
      </trkpt>
      <trkpt lat="41.9105020" lon="-2.9289770">
        <ele>1383.2</ele>
        <time>2022-02-08T09:29:07Z</time>
      </trkpt>
      <trkpt lat="41.9105080" lon="-2.9290170">
        <ele>1383.5</ele>
        <time>2022-02-08T09:29:08Z</time>
      </trkpt>
      <trkpt lat="41.9105150" lon="-2.9290470">
        <ele>1383.7</ele>
        <time>2022-02-08T09:29:09Z</time>
      </trkpt>
      <trkpt lat="41.9105180" lon="-2.9290880">
        <ele>1384.0</ele>
        <time>2022-02-08T09:29:10Z</time>
      </trkpt>
      <trkpt lat="41.9105220" lon="-2.9291200">
        <ele>1384.3</ele>
        <time>2022-02-08T09:29:11Z</time>
      </trkpt>
      <trkpt lat="41.9105230" lon="-2.9291470">
        <ele>1384.5</ele>
        <time>2022-02-08T09:29:12Z</time>
      </trkpt>
      <trkpt lat="41.9105200" lon="-2.9291770">
        <ele>1384.7</ele>
        <time>2022-02-08T09:29:13Z</time>
      </trkpt>
      <trkpt lat="41.9105180" lon="-2.9292070">
        <ele>1384.9</ele>
        <time>2022-02-08T09:29:14Z</time>
      </trkpt>
      <trkpt lat="41.9105150" lon="-2.9292470">
        <ele>1385.1</ele>
        <time>2022-02-08T09:29:15Z</time>
      </trkpt>
      <trkpt lat="41.9105120" lon="-2.9292720">
        <ele>1385.3</ele>
        <time>2022-02-08T09:29:16Z</time>
      </trkpt>
      <trkpt lat="41.9105070" lon="-2.9293080">
        <ele>1385.5</ele>
        <time>2022-02-08T09:29:17Z</time>
      </trkpt>
      <trkpt lat="41.9104980" lon="-2.9293370">
        <ele>1385.6</ele>
        <time>2022-02-08T09:29:18Z</time>
      </trkpt>
      <trkpt lat="41.9104920" lon="-2.9293620">
        <ele>1385.8</ele>
        <time>2022-02-08T09:29:19Z</time>
      </trkpt>
      <trkpt lat="41.9104800" lon="-2.9293980">
        <ele>1385.9</ele>
        <time>2022-02-08T09:29:20Z</time>
      </trkpt>
      <trkpt lat="41.9104650" lon="-2.9294250">
        <ele>1386.1</ele>
        <time>2022-02-08T09:29:21Z</time>
      </trkpt>
      <trkpt lat="41.9104530" lon="-2.9294520">
        <ele>1386.2</ele>
        <time>2022-02-08T09:29:22Z</time>
      </trkpt>
      <trkpt lat="41.9104430" lon="-2.9294800">
        <ele>1386.4</ele>
        <time>2022-02-08T09:29:23Z</time>
      </trkpt>
      <trkpt lat="41.9104350" lon="-2.9295050">
        <ele>1386.5</ele>
        <time>2022-02-08T09:29:24Z</time>
      </trkpt>
      <trkpt lat="41.9104250" lon="-2.9295380">
        <ele>1386.6</ele>
        <time>2022-02-08T09:29:25Z</time>
      </trkpt>
      <trkpt lat="41.9104150" lon="-2.9295770">
        <ele>1386.8</ele>
        <time>2022-02-08T09:29:26Z</time>
      </trkpt>
      <trkpt lat="41.9104150" lon="-2.9296100">
        <ele>1386.9</ele>
        <time>2022-02-08T09:29:27Z</time>
      </trkpt>
      <trkpt lat="41.9104100" lon="-2.9296450">
        <ele>1387.1</ele>
        <time>2022-02-08T09:29:28Z</time>
      </trkpt>
      <trkpt lat="41.9104030" lon="-2.9296850">
        <ele>1387.2</ele>
        <time>2022-02-08T09:29:29Z</time>
      </trkpt>
      <trkpt lat="41.9103970" lon="-2.9297250">
        <ele>1387.3</ele>
        <time>2022-02-08T09:29:30Z</time>
      </trkpt>
      <trkpt lat="41.9103920" lon="-2.9297670">
        <ele>1387.4</ele>
        <time>2022-02-08T09:29:31Z</time>
      </trkpt>
      <trkpt lat="41.9103900" lon="-2.9298070">
        <ele>1387.5</ele>
        <time>2022-02-08T09:29:32Z</time>
      </trkpt>
      <trkpt lat="41.9103970" lon="-2.9298500">
        <ele>1387.6</ele>
        <time>2022-02-08T09:29:33Z</time>
      </trkpt>
      <trkpt lat="41.9104070" lon="-2.9298900">
        <ele>1387.7</ele>
        <time>2022-02-08T09:29:34Z</time>
      </trkpt>
      <trkpt lat="41.9104230" lon="-2.9299250">
        <ele>1387.7</ele>
        <time>2022-02-08T09:29:35Z</time>
      </trkpt>
      <trkpt lat="41.9104370" lon="-2.9299370">
        <ele>1387.7</ele>
        <time>2022-02-08T09:29:36Z</time>
      </trkpt>
      <trkpt lat="41.9104600" lon="-2.9299600">
        <ele>1387.8</ele>
        <time>2022-02-08T09:29:37Z</time>
      </trkpt>
      <trkpt lat="41.9104880" lon="-2.9299920">
        <ele>1387.8</ele>
        <time>2022-02-08T09:29:38Z</time>
      </trkpt>
      <trkpt lat="41.9105150" lon="-2.9300230">
        <ele>1387.7</ele>
        <time>2022-02-08T09:29:39Z</time>
      </trkpt>
      <trkpt lat="41.9105450" lon="-2.9300650">
        <ele>1387.7</ele>
        <time>2022-02-08T09:29:40Z</time>
      </trkpt>
      <trkpt lat="41.9105780" lon="-2.9301050">
        <ele>1387.5</ele>
        <time>2022-02-08T09:29:41Z</time>
      </trkpt>
      <trkpt lat="41.9105920" lon="-2.9301420">
        <ele>1387.4</ele>
        <time>2022-02-08T09:29:42Z</time>
      </trkpt>
      <trkpt lat="41.9105980" lon="-2.9301830">
        <ele>1387.3</ele>
        <time>2022-02-08T09:29:43Z</time>
      </trkpt>
      <trkpt lat="41.9105880" lon="-2.9302270">
        <ele>1387.1</ele>
        <time>2022-02-08T09:29:44Z</time>
      </trkpt>
      <trkpt lat="41.9105700" lon="-2.9302550">
        <ele>1387.0</ele>
        <time>2022-02-08T09:29:45Z</time>
      </trkpt>
      <trkpt lat="41.9105500" lon="-2.9302700">
        <ele>1386.9</ele>
        <time>2022-02-08T09:29:46Z</time>
      </trkpt>
      <trkpt lat="41.9105300" lon="-2.9302800">
        <ele>1386.8</ele>
        <time>2022-02-08T09:29:47Z</time>
      </trkpt>
      <trkpt lat="41.9105130" lon="-2.9302820">
        <ele>1386.8</ele>
        <time>2022-02-08T09:29:48Z</time>
      </trkpt>
      <trkpt lat="41.9104970" lon="-2.9302820">
        <ele>1386.7</ele>
        <time>2022-02-08T09:29:49Z</time>
      </trkpt>
      <trkpt lat="41.9104850" lon="-2.9302750">
        <ele>1386.7</ele>
        <time>2022-02-08T09:29:50Z</time>
      </trkpt>
      <trkpt lat="41.9104780" lon="-2.9302750">
        <ele>1386.7</ele>
        <time>2022-02-08T09:29:51Z</time>
      </trkpt>
      <trkpt lat="41.9104750" lon="-2.9302730">
        <ele>1386.7</ele>
        <time>2022-02-08T09:29:52Z</time>
      </trkpt>
      <trkpt lat="41.9104730" lon="-2.9302650">
        <ele>1386.6</ele>
        <time>2022-02-08T09:29:53Z</time>
      </trkpt>
      <trkpt lat="41.9104720" lon="-2.9302550">
        <ele>1386.6</ele>
        <time>2022-02-08T09:29:54Z</time>
      </trkpt>
      <trkpt lat="41.9104680" lon="-2.9302600">
        <ele>1386.6</ele>
        <time>2022-02-08T09:29:55Z</time>
      </trkpt>
      <trkpt lat="41.9104720" lon="-2.9302700">
        <ele>1386.6</ele>
        <time>2022-02-08T09:29:56Z</time>
      </trkpt>
      <trkpt lat="41.9104650" lon="-2.9302780">
        <ele>1386.5</ele>
        <time>2022-02-08T09:29:57Z</time>
      </trkpt>
      <trkpt lat="41.9104650" lon="-2.9302830">
        <ele>1386.5</ele>
        <time>2022-02-08T09:29:58Z</time>
      </trkpt>
      <trkpt lat="41.9104720" lon="-2.9302900">
        <ele>1386.5</ele>
        <time>2022-02-08T09:29:59Z</time>
      </trkpt>
      <trkpt lat="41.9104720" lon="-2.9302900">
        <ele>1386.5</ele>
        <time>2022-02-08T09:30:00Z</time>
      </trkpt>
      <trkpt lat="41.9104700" lon="-2.9302900">
        <ele>1386.5</ele>
        <time>2022-02-08T09:30:01Z</time>
      </trkpt>
      <trkpt lat="41.9104670" lon="-2.9302880">
        <ele>1386.5</ele>
        <time>2022-02-08T09:30:02Z</time>
      </trkpt>
      <trkpt lat="41.9104620" lon="-2.9302850">
        <ele>1386.5</ele>
        <time>2022-02-08T09:30:03Z</time>
      </trkpt>
      <trkpt lat="41.9104530" lon="-2.9302850">
        <ele>1386.4</ele>
        <time>2022-02-08T09:30:04Z</time>
      </trkpt>
      <trkpt lat="41.9104450" lon="-2.9302950">
        <ele>1386.4</ele>
        <time>2022-02-08T09:30:05Z</time>
      </trkpt>
      <trkpt lat="41.9104380" lon="-2.9303070">
        <ele>1386.4</ele>
        <time>2022-02-08T09:30:06Z</time>
      </trkpt>
      <trkpt lat="41.9104250" lon="-2.9303250">
        <ele>1386.3</ele>
        <time>2022-02-08T09:30:07Z</time>
      </trkpt>
      <trkpt lat="41.9104070" lon="-2.9303480">
        <ele>1386.3</ele>
        <time>2022-02-08T09:30:08Z</time>
      </trkpt>
      <trkpt lat="41.9103880" lon="-2.9303770">
        <ele>1386.2</ele>
        <time>2022-02-08T09:30:09Z</time>
      </trkpt>
      <trkpt lat="41.9103680" lon="-2.9304020">
        <ele>1386.1</ele>
        <time>2022-02-08T09:30:10Z</time>
      </trkpt>
      <trkpt lat="41.9103420" lon="-2.9304300">
        <ele>1386.1</ele>
        <time>2022-02-08T09:30:11Z</time>
      </trkpt>
      <trkpt lat="41.9103130" lon="-2.9304600">
        <ele>1386.0</ele>
        <time>2022-02-08T09:30:12Z</time>
      </trkpt>
      <trkpt lat="41.9102900" lon="-2.9304820">
        <ele>1385.9</ele>
        <time>2022-02-08T09:30:13Z</time>
      </trkpt>
      <trkpt lat="41.9102550" lon="-2.9305150">
        <ele>1385.8</ele>
        <time>2022-02-08T09:30:14Z</time>
      </trkpt>
      <trkpt lat="41.9102320" lon="-2.9305430">
        <ele>1385.7</ele>
        <time>2022-02-08T09:30:15Z</time>
      </trkpt>
      <trkpt lat="41.9101950" lon="-2.9305920">
        <ele>1385.5</ele>
        <time>2022-02-08T09:30:16Z</time>
      </trkpt>
      <trkpt lat="41.9101650" lon="-2.9306380">
        <ele>1385.4</ele>
        <time>2022-02-08T09:30:17Z</time>
      </trkpt>
      <trkpt lat="41.9101350" lon="-2.9306850">
        <ele>1385.3</ele>
        <time>2022-02-08T09:30:18Z</time>
      </trkpt>
      <trkpt lat="41.9101020" lon="-2.9307320">
        <ele>1385.1</ele>
        <time>2022-02-08T09:30:19Z</time>
      </trkpt>
      <trkpt lat="41.9100650" lon="-2.9307700">
        <ele>1385.0</ele>
        <time>2022-02-08T09:30:20Z</time>
      </trkpt>
      <trkpt lat="41.9100270" lon="-2.9308120">
        <ele>1384.8</ele>
        <time>2022-02-08T09:30:21Z</time>
      </trkpt>
      <trkpt lat="41.9099900" lon="-2.9308580">
        <ele>1384.6</ele>
        <time>2022-02-08T09:30:22Z</time>
      </trkpt>
      <trkpt lat="41.9099530" lon="-2.9309130">
        <ele>1384.4</ele>
        <time>2022-02-08T09:30:23Z</time>
      </trkpt>
      <trkpt lat="41.9099270" lon="-2.9309630">
        <ele>1384.3</ele>
        <time>2022-02-08T09:30:24Z</time>
      </trkpt>
      <trkpt lat="41.9098880" lon="-2.9310400">
        <ele>1384.1</ele>
        <time>2022-02-08T09:30:25Z</time>
      </trkpt>
      <trkpt lat="41.9098530" lon="-2.9311020">
        <ele>1384.0</ele>
        <time>2022-02-08T09:30:26Z</time>
      </trkpt>
      <trkpt lat="41.9098180" lon="-2.9311620">
        <ele>1383.9</ele>
        <time>2022-02-08T09:30:27Z</time>
      </trkpt>
      <trkpt lat="41.9097850" lon="-2.9312200">
        <ele>1383.8</ele>
        <time>2022-02-08T09:30:28Z</time>
      </trkpt>
      <trkpt lat="41.9097580" lon="-2.9312680">
        <ele>1383.8</ele>
        <time>2022-02-08T09:30:29Z</time>
      </trkpt>
      <trkpt lat="41.9097220" lon="-2.9313350">
        <ele>1383.8</ele>
        <time>2022-02-08T09:30:30Z</time>
      </trkpt>
      <trkpt lat="41.9096970" lon="-2.9313920">
        <ele>1383.8</ele>
        <time>2022-02-08T09:30:31Z</time>
      </trkpt>
      <trkpt lat="41.9096730" lon="-2.9314520">
        <ele>1383.8</ele>
        <time>2022-02-08T09:30:32Z</time>
      </trkpt>
      <trkpt lat="41.9096580" lon="-2.9315000">
        <ele>1383.8</ele>
        <time>2022-02-08T09:30:33Z</time>
      </trkpt>
      <trkpt lat="41.9096400" lon="-2.9315750">
        <ele>1383.8</ele>
        <time>2022-02-08T09:30:34Z</time>
      </trkpt>
      <trkpt lat="41.9096250" lon="-2.9316380">
        <ele>1383.8</ele>
        <time>2022-02-08T09:30:35Z</time>
      </trkpt>
      <trkpt lat="41.9096080" lon="-2.9317030">
        <ele>1383.8</ele>
        <time>2022-02-08T09:30:36Z</time>
      </trkpt>
      <trkpt lat="41.9095900" lon="-2.9317650">
        <ele>1383.9</ele>
        <time>2022-02-08T09:30:37Z</time>
      </trkpt>
      <trkpt lat="41.9095730" lon="-2.9318120">
        <ele>1383.9</ele>
        <time>2022-02-08T09:30:38Z</time>
      </trkpt>
      <trkpt lat="41.9095470" lon="-2.9318750">
        <ele>1384.0</ele>
        <time>2022-02-08T09:30:39Z</time>
      </trkpt>
      <trkpt lat="41.9095230" lon="-2.9319270">
        <ele>1384.1</ele>
        <time>2022-02-08T09:30:40Z</time>
      </trkpt>
      <trkpt lat="41.9095030" lon="-2.9319750">
        <ele>1384.1</ele>
        <time>2022-02-08T09:30:41Z</time>
      </trkpt>
      <trkpt lat="41.9094830" lon="-2.9320220">
        <ele>1384.2</ele>
        <time>2022-02-08T09:30:42Z</time>
      </trkpt>
      <trkpt lat="41.9094700" lon="-2.9320620">
        <ele>1384.2</ele>
        <time>2022-02-08T09:30:43Z</time>
      </trkpt>
      <trkpt lat="41.9094520" lon="-2.9321230">
        <ele>1384.3</ele>
        <time>2022-02-08T09:30:44Z</time>
      </trkpt>
      <trkpt lat="41.9094420" lon="-2.9321830">
        <ele>1384.4</ele>
        <time>2022-02-08T09:30:45Z</time>
      </trkpt>
      <trkpt lat="41.9094320" lon="-2.9322470">
        <ele>1384.4</ele>
        <time>2022-02-08T09:30:46Z</time>
      </trkpt>
      <trkpt lat="41.9094250" lon="-2.9323100">
        <ele>1384.5</ele>
        <time>2022-02-08T09:30:47Z</time>
      </trkpt>
      <trkpt lat="41.9094170" lon="-2.9323700">
        <ele>1384.5</ele>
        <time>2022-02-08T09:30:48Z</time>
      </trkpt>
      <trkpt lat="41.9094120" lon="-2.9324270">
        <ele>1384.6</ele>
        <time>2022-02-08T09:30:49Z</time>
      </trkpt>
      <trkpt lat="41.9094120" lon="-2.9324770">
        <ele>1384.6</ele>
        <time>2022-02-08T09:30:50Z</time>
      </trkpt>
      <trkpt lat="41.9094180" lon="-2.9325230">
        <ele>1384.7</ele>
        <time>2022-02-08T09:30:51Z</time>
      </trkpt>
      <trkpt lat="41.9094280" lon="-2.9325670">
        <ele>1384.8</ele>
        <time>2022-02-08T09:30:52Z</time>
      </trkpt>
      <trkpt lat="41.9094400" lon="-2.9326120">
        <ele>1384.8</ele>
        <time>2022-02-08T09:30:53Z</time>
      </trkpt>
      <trkpt lat="41.9094600" lon="-2.9326570">
        <ele>1384.9</ele>
        <time>2022-02-08T09:30:54Z</time>
      </trkpt>
      <trkpt lat="41.9094800" lon="-2.9327000">
        <ele>1385.0</ele>
        <time>2022-02-08T09:30:55Z</time>
      </trkpt>
      <trkpt lat="41.9094970" lon="-2.9327470">
        <ele>1385.0</ele>
        <time>2022-02-08T09:30:56Z</time>
      </trkpt>
      <trkpt lat="41.9095130" lon="-2.9327950">
        <ele>1385.1</ele>
        <time>2022-02-08T09:30:57Z</time>
      </trkpt>
      <trkpt lat="41.9095280" lon="-2.9328470">
        <ele>1385.3</ele>
        <time>2022-02-08T09:30:58Z</time>
      </trkpt>
      <trkpt lat="41.9095430" lon="-2.9328950">
        <ele>1385.4</ele>
        <time>2022-02-08T09:30:59Z</time>
      </trkpt>
      <trkpt lat="41.9095580" lon="-2.9329380">
        <ele>1385.6</ele>
        <time>2022-02-08T09:31:00Z</time>
      </trkpt>
      <trkpt lat="41.9095730" lon="-2.9329820">
        <ele>1385.9</ele>
        <time>2022-02-08T09:31:01Z</time>
      </trkpt>
      <trkpt lat="41.9095870" lon="-2.9330230">
        <ele>1386.1</ele>
        <time>2022-02-08T09:31:02Z</time>
      </trkpt>
      <trkpt lat="41.9095970" lon="-2.9330650">
        <ele>1386.3</ele>
        <time>2022-02-08T09:31:03Z</time>
      </trkpt>
      <trkpt lat="41.9096050" lon="-2.9331030">
        <ele>1386.6</ele>
        <time>2022-02-08T09:31:04Z</time>
      </trkpt>
      <trkpt lat="41.9096130" lon="-2.9331370">
        <ele>1386.8</ele>
        <time>2022-02-08T09:31:05Z</time>
      </trkpt>
      <trkpt lat="41.9096180" lon="-2.9331700">
        <ele>1387.1</ele>
        <time>2022-02-08T09:31:06Z</time>
      </trkpt>
      <trkpt lat="41.9096200" lon="-2.9331980">
        <ele>1387.3</ele>
        <time>2022-02-08T09:31:07Z</time>
      </trkpt>
      <trkpt lat="41.9096250" lon="-2.9332270">
        <ele>1387.5</ele>
        <time>2022-02-08T09:31:08Z</time>
      </trkpt>
      <trkpt lat="41.9096270" lon="-2.9332520">
        <ele>1387.7</ele>
        <time>2022-02-08T09:31:09Z</time>
      </trkpt>
      <trkpt lat="41.9096230" lon="-2.9332780">
        <ele>1387.9</ele>
        <time>2022-02-08T09:31:10Z</time>
      </trkpt>
      <trkpt lat="41.9096170" lon="-2.9333020">
        <ele>1388.1</ele>
        <time>2022-02-08T09:31:11Z</time>
      </trkpt>
      <trkpt lat="41.9096080" lon="-2.9333250">
        <ele>1388.3</ele>
        <time>2022-02-08T09:31:12Z</time>
      </trkpt>
      <trkpt lat="41.9095980" lon="-2.9333500">
        <ele>1388.6</ele>
        <time>2022-02-08T09:31:13Z</time>
      </trkpt>
      <trkpt lat="41.9095850" lon="-2.9333750">
        <ele>1388.8</ele>
        <time>2022-02-08T09:31:14Z</time>
      </trkpt>
      <trkpt lat="41.9095700" lon="-2.9334030">
        <ele>1389.1</ele>
        <time>2022-02-08T09:31:15Z</time>
      </trkpt>
      <trkpt lat="41.9095550" lon="-2.9334320">
        <ele>1389.3</ele>
        <time>2022-02-08T09:31:16Z</time>
      </trkpt>
      <trkpt lat="41.9095430" lon="-2.9334570">
        <ele>1389.6</ele>
        <time>2022-02-08T09:31:17Z</time>
      </trkpt>
      <trkpt lat="41.9095230" lon="-2.9334930">
        <ele>1389.9</ele>
        <time>2022-02-08T09:31:18Z</time>
      </trkpt>
      <trkpt lat="41.9095100" lon="-2.9335220">
        <ele>1390.1</ele>
        <time>2022-02-08T09:31:19Z</time>
      </trkpt>
      <trkpt lat="41.9094920" lon="-2.9335550">
        <ele>1390.3</ele>
        <time>2022-02-08T09:31:20Z</time>
      </trkpt>
      <trkpt lat="41.9094750" lon="-2.9335980">
        <ele>1390.5</ele>
        <time>2022-02-08T09:31:21Z</time>
      </trkpt>
      <trkpt lat="41.9094630" lon="-2.9336330">
        <ele>1390.7</ele>
        <time>2022-02-08T09:31:22Z</time>
      </trkpt>
      <trkpt lat="41.9094500" lon="-2.9336700">
        <ele>1390.8</ele>
        <time>2022-02-08T09:31:23Z</time>
      </trkpt>
      <trkpt lat="41.9094420" lon="-2.9337030">
        <ele>1390.9</ele>
        <time>2022-02-08T09:31:24Z</time>
      </trkpt>
      <trkpt lat="41.9094270" lon="-2.9337530">
        <ele>1390.9</ele>
        <time>2022-02-08T09:31:25Z</time>
      </trkpt>
      <trkpt lat="41.9094170" lon="-2.9338030">
        <ele>1390.9</ele>
        <time>2022-02-08T09:31:26Z</time>
      </trkpt>
      <trkpt lat="41.9094050" lon="-2.9338600">
        <ele>1390.9</ele>
        <time>2022-02-08T09:31:27Z</time>
      </trkpt>
      <trkpt lat="41.9093880" lon="-2.9339180">
        <ele>1390.8</ele>
        <time>2022-02-08T09:31:28Z</time>
      </trkpt>
      <trkpt lat="41.9093670" lon="-2.9339800">
        <ele>1390.6</ele>
        <time>2022-02-08T09:31:29Z</time>
      </trkpt>
      <trkpt lat="41.9093380" lon="-2.9340400">
        <ele>1390.5</ele>
        <time>2022-02-08T09:31:30Z</time>
      </trkpt>
      <trkpt lat="41.9093070" lon="-2.9341000">
        <ele>1390.4</ele>
        <time>2022-02-08T09:31:31Z</time>
      </trkpt>
      <trkpt lat="41.9092750" lon="-2.9341630">
        <ele>1390.3</ele>
        <time>2022-02-08T09:31:32Z</time>
      </trkpt>
      <trkpt lat="41.9092430" lon="-2.9342280">
        <ele>1390.2</ele>
        <time>2022-02-08T09:31:33Z</time>
      </trkpt>
      <trkpt lat="41.9092130" lon="-2.9342930">
        <ele>1390.2</ele>
        <time>2022-02-08T09:31:34Z</time>
      </trkpt>
      <trkpt lat="41.9091900" lon="-2.9343580">
        <ele>1390.1</ele>
        <time>2022-02-08T09:31:35Z</time>
      </trkpt>
      <trkpt lat="41.9091680" lon="-2.9344220">
        <ele>1390.1</ele>
        <time>2022-02-08T09:31:36Z</time>
      </trkpt>
      <trkpt lat="41.9091430" lon="-2.9344680">
        <ele>1390.2</ele>
        <time>2022-02-08T09:31:37Z</time>
      </trkpt>
      <trkpt lat="41.9091170" lon="-2.9345020">
        <ele>1390.2</ele>
        <time>2022-02-08T09:31:38Z</time>
      </trkpt>
      <trkpt lat="41.9090970" lon="-2.9345180">
        <ele>1390.3</ele>
        <time>2022-02-08T09:31:39Z</time>
      </trkpt>
      <trkpt lat="41.9090720" lon="-2.9345480">
        <ele>1390.4</ele>
        <time>2022-02-08T09:31:40Z</time>
      </trkpt>
      <trkpt lat="41.9090580" lon="-2.9345770">
        <ele>1390.5</ele>
        <time>2022-02-08T09:31:41Z</time>
      </trkpt>
      <trkpt lat="41.9090480" lon="-2.9346100">
        <ele>1390.7</ele>
        <time>2022-02-08T09:31:42Z</time>
      </trkpt>
      <trkpt lat="41.9090430" lon="-2.9346470">
        <ele>1390.8</ele>
        <time>2022-02-08T09:31:43Z</time>
      </trkpt>
      <trkpt lat="41.9090380" lon="-2.9346870">
        <ele>1391.0</ele>
        <time>2022-02-08T09:31:44Z</time>
      </trkpt>
      <trkpt lat="41.9090350" lon="-2.9347270">
        <ele>1391.2</ele>
        <time>2022-02-08T09:31:45Z</time>
      </trkpt>
      <trkpt lat="41.9090330" lon="-2.9347700">
        <ele>1391.5</ele>
        <time>2022-02-08T09:31:46Z</time>
      </trkpt>
      <trkpt lat="41.9090330" lon="-2.9348080">
        <ele>1391.7</ele>
        <time>2022-02-08T09:31:47Z</time>
      </trkpt>
      <trkpt lat="41.9090370" lon="-2.9348470">
        <ele>1391.9</ele>
        <time>2022-02-08T09:31:48Z</time>
      </trkpt>
      <trkpt lat="41.9090430" lon="-2.9348870">
        <ele>1392.1</ele>
        <time>2022-02-08T09:31:49Z</time>
      </trkpt>
      <trkpt lat="41.9090550" lon="-2.9349320">
        <ele>1392.3</ele>
        <time>2022-02-08T09:31:50Z</time>
      </trkpt>
      <trkpt lat="41.9090680" lon="-2.9349770">
        <ele>1392.5</ele>
        <time>2022-02-08T09:31:51Z</time>
      </trkpt>
      <trkpt lat="41.9090820" lon="-2.9350270">
        <ele>1392.7</ele>
        <time>2022-02-08T09:31:52Z</time>
      </trkpt>
      <trkpt lat="41.9090950" lon="-2.9350770">
        <ele>1393.0</ele>
        <time>2022-02-08T09:31:53Z</time>
      </trkpt>
      <trkpt lat="41.9091030" lon="-2.9351270">
        <ele>1393.2</ele>
        <time>2022-02-08T09:31:54Z</time>
      </trkpt>
      <trkpt lat="41.9091070" lon="-2.9351770">
        <ele>1393.5</ele>
        <time>2022-02-08T09:31:55Z</time>
      </trkpt>
      <trkpt lat="41.9091030" lon="-2.9352220">
        <ele>1393.8</ele>
        <time>2022-02-08T09:31:56Z</time>
      </trkpt>
      <trkpt lat="41.9090920" lon="-2.9352630">
        <ele>1394.1</ele>
        <time>2022-02-08T09:31:57Z</time>
      </trkpt>
      <trkpt lat="41.9090730" lon="-2.9353020">
        <ele>1394.5</ele>
        <time>2022-02-08T09:31:58Z</time>
      </trkpt>
      <trkpt lat="41.9090580" lon="-2.9353380">
        <ele>1394.9</ele>
        <time>2022-02-08T09:31:59Z</time>
      </trkpt>
      <trkpt lat="41.9090470" lon="-2.9353750">
        <ele>1395.3</ele>
        <time>2022-02-08T09:32:00Z</time>
      </trkpt>
      <trkpt lat="41.9090380" lon="-2.9354100">
        <ele>1395.7</ele>
        <time>2022-02-08T09:32:01Z</time>
      </trkpt>
      <trkpt lat="41.9090330" lon="-2.9354430">
        <ele>1396.1</ele>
        <time>2022-02-08T09:32:02Z</time>
      </trkpt>
      <trkpt lat="41.9090320" lon="-2.9354750">
        <ele>1396.4</ele>
        <time>2022-02-08T09:32:03Z</time>
      </trkpt>
      <trkpt lat="41.9090330" lon="-2.9355100">
        <ele>1396.8</ele>
        <time>2022-02-08T09:32:04Z</time>
      </trkpt>
      <trkpt lat="41.9090380" lon="-2.9355430">
        <ele>1397.2</ele>
        <time>2022-02-08T09:32:05Z</time>
      </trkpt>
      <trkpt lat="41.9090430" lon="-2.9355820">
        <ele>1397.6</ele>
        <time>2022-02-08T09:32:06Z</time>
      </trkpt>
      <trkpt lat="41.9090530" lon="-2.9356270">
        <ele>1398.1</ele>
        <time>2022-02-08T09:32:07Z</time>
      </trkpt>
      <trkpt lat="41.9090700" lon="-2.9356680">
        <ele>1398.5</ele>
        <time>2022-02-08T09:32:08Z</time>
      </trkpt>
      <trkpt lat="41.9090870" lon="-2.9357050">
        <ele>1398.9</ele>
        <time>2022-02-08T09:32:09Z</time>
      </trkpt>
      <trkpt lat="41.9091080" lon="-2.9357300">
        <ele>1399.3</ele>
        <time>2022-02-08T09:32:10Z</time>
      </trkpt>
      <trkpt lat="41.9091300" lon="-2.9357450">
        <ele>1399.6</ele>
        <time>2022-02-08T09:32:11Z</time>
      </trkpt>
      <trkpt lat="41.9091520" lon="-2.9357570">
        <ele>1399.8</ele>
        <time>2022-02-08T09:32:12Z</time>
      </trkpt>
      <trkpt lat="41.9091720" lon="-2.9357680">
        <ele>1400.1</ele>
        <time>2022-02-08T09:32:13Z</time>
      </trkpt>
      <trkpt lat="41.9091880" lon="-2.9357800">
        <ele>1400.3</ele>
        <time>2022-02-08T09:32:14Z</time>
      </trkpt>
      <trkpt lat="41.9092070" lon="-2.9357950">
        <ele>1400.6</ele>
        <time>2022-02-08T09:32:15Z</time>
      </trkpt>
      <trkpt lat="41.9092270" lon="-2.9358100">
        <ele>1400.8</ele>
        <time>2022-02-08T09:32:16Z</time>
      </trkpt>
      <trkpt lat="41.9092470" lon="-2.9358250">
        <ele>1401.1</ele>
        <time>2022-02-08T09:32:17Z</time>
      </trkpt>
      <trkpt lat="41.9092670" lon="-2.9358430">
        <ele>1401.3</ele>
        <time>2022-02-08T09:32:18Z</time>
      </trkpt>
      <trkpt lat="41.9092870" lon="-2.9358670">
        <ele>1401.6</ele>
        <time>2022-02-08T09:32:19Z</time>
      </trkpt>
      <trkpt lat="41.9093070" lon="-2.9358930">
        <ele>1401.9</ele>
        <time>2022-02-08T09:32:20Z</time>
      </trkpt>
      <trkpt lat="41.9093280" lon="-2.9359170">
        <ele>1402.2</ele>
        <time>2022-02-08T09:32:21Z</time>
      </trkpt>
      <trkpt lat="41.9093430" lon="-2.9359430">
        <ele>1402.5</ele>
        <time>2022-02-08T09:32:22Z</time>
      </trkpt>
      <trkpt lat="41.9093550" lon="-2.9359670">
        <ele>1402.7</ele>
        <time>2022-02-08T09:32:23Z</time>
      </trkpt>
      <trkpt lat="41.9093630" lon="-2.9359900">
        <ele>1403.0</ele>
        <time>2022-02-08T09:32:24Z</time>
      </trkpt>
      <trkpt lat="41.9093680" lon="-2.9360130">
        <ele>1403.2</ele>
        <time>2022-02-08T09:32:25Z</time>
      </trkpt>
      <trkpt lat="41.9093720" lon="-2.9360300">
        <ele>1403.3</ele>
        <time>2022-02-08T09:32:26Z</time>
      </trkpt>
      <trkpt lat="41.9093700" lon="-2.9360520">
        <ele>1403.5</ele>
        <time>2022-02-08T09:32:27Z</time>
      </trkpt>
      <trkpt lat="41.9093670" lon="-2.9360750">
        <ele>1403.8</ele>
        <time>2022-02-08T09:32:28Z</time>
      </trkpt>
      <trkpt lat="41.9093650" lon="-2.9361000">
        <ele>1404.0</ele>
        <time>2022-02-08T09:32:29Z</time>
      </trkpt>
      <trkpt lat="41.9093680" lon="-2.9361230">
        <ele>1404.3</ele>
        <time>2022-02-08T09:32:30Z</time>
      </trkpt>
      <trkpt lat="41.9093750" lon="-2.9361450">
        <ele>1404.5</ele>
        <time>2022-02-08T09:32:31Z</time>
      </trkpt>
      <trkpt lat="41.9093850" lon="-2.9361630">
        <ele>1404.8</ele>
        <time>2022-02-08T09:32:32Z</time>
      </trkpt>
      <trkpt lat="41.9093970" lon="-2.9361800">
        <ele>1405.0</ele>
        <time>2022-02-08T09:32:33Z</time>
      </trkpt>
      <trkpt lat="41.9094120" lon="-2.9361950">
        <ele>1405.3</ele>
        <time>2022-02-08T09:32:34Z</time>
      </trkpt>
      <trkpt lat="41.9094230" lon="-2.9362070">
        <ele>1405.5</ele>
        <time>2022-02-08T09:32:35Z</time>
      </trkpt>
      <trkpt lat="41.9094400" lon="-2.9362150">
        <ele>1405.8</ele>
        <time>2022-02-08T09:32:36Z</time>
      </trkpt>
      <trkpt lat="41.9094570" lon="-2.9362200">
        <ele>1406.1</ele>
        <time>2022-02-08T09:32:37Z</time>
      </trkpt>
      <trkpt lat="41.9094720" lon="-2.9362220">
        <ele>1406.3</ele>
        <time>2022-02-08T09:32:38Z</time>
      </trkpt>
      <trkpt lat="41.9094880" lon="-2.9362250">
        <ele>1406.6</ele>
        <time>2022-02-08T09:32:39Z</time>
      </trkpt>
      <trkpt lat="41.9095070" lon="-2.9362300">
        <ele>1406.9</ele>
        <time>2022-02-08T09:32:40Z</time>
      </trkpt>
      <trkpt lat="41.9095230" lon="-2.9362380">
        <ele>1407.1</ele>
        <time>2022-02-08T09:32:41Z</time>
      </trkpt>
      <trkpt lat="41.9095380" lon="-2.9362480">
        <ele>1407.4</ele>
        <time>2022-02-08T09:32:42Z</time>
      </trkpt>
      <trkpt lat="41.9095520" lon="-2.9362620">
        <ele>1407.7</ele>
        <time>2022-02-08T09:32:43Z</time>
      </trkpt>
      <trkpt lat="41.9095650" lon="-2.9362750">
        <ele>1407.9</ele>
        <time>2022-02-08T09:32:44Z</time>
      </trkpt>
      <trkpt lat="41.9095770" lon="-2.9362900">
        <ele>1408.1</ele>
        <time>2022-02-08T09:32:45Z</time>
      </trkpt>
      <trkpt lat="41.9095880" lon="-2.9363050">
        <ele>1408.4</ele>
        <time>2022-02-08T09:32:46Z</time>
      </trkpt>
      <trkpt lat="41.9096030" lon="-2.9363220">
        <ele>1408.6</ele>
        <time>2022-02-08T09:32:47Z</time>
      </trkpt>
      <trkpt lat="41.9096180" lon="-2.9363380">
        <ele>1408.9</ele>
        <time>2022-02-08T09:32:48Z</time>
      </trkpt>
      <trkpt lat="41.9096300" lon="-2.9363570">
        <ele>1409.1</ele>
        <time>2022-02-08T09:32:49Z</time>
      </trkpt>
      <trkpt lat="41.9096420" lon="-2.9363780">
        <ele>1409.3</ele>
        <time>2022-02-08T09:32:50Z</time>
      </trkpt>
      <trkpt lat="41.9096500" lon="-2.9363980">
        <ele>1409.5</ele>
        <time>2022-02-08T09:32:51Z</time>
      </trkpt>
      <trkpt lat="41.9096570" lon="-2.9364180">
        <ele>1409.7</ele>
        <time>2022-02-08T09:32:52Z</time>
      </trkpt>
      <trkpt lat="41.9096620" lon="-2.9364420">
        <ele>1409.9</ele>
        <time>2022-02-08T09:32:53Z</time>
      </trkpt>
      <trkpt lat="41.9096630" lon="-2.9364670">
        <ele>1410.1</ele>
        <time>2022-02-08T09:32:54Z</time>
      </trkpt>
      <trkpt lat="41.9096670" lon="-2.9364930">
        <ele>1410.3</ele>
        <time>2022-02-08T09:32:55Z</time>
      </trkpt>
      <trkpt lat="41.9096680" lon="-2.9365180">
        <ele>1410.5</ele>
        <time>2022-02-08T09:32:56Z</time>
      </trkpt>
      <trkpt lat="41.9096680" lon="-2.9365420">
        <ele>1410.7</ele>
        <time>2022-02-08T09:32:57Z</time>
      </trkpt>
      <trkpt lat="41.9096680" lon="-2.9365620">
        <ele>1410.9</ele>
        <time>2022-02-08T09:32:58Z</time>
      </trkpt>
      <trkpt lat="41.9096700" lon="-2.9365820">
        <ele>1411.0</ele>
        <time>2022-02-08T09:32:59Z</time>
      </trkpt>
      <trkpt lat="41.9096720" lon="-2.9366050">
        <ele>1411.2</ele>
        <time>2022-02-08T09:33:00Z</time>
      </trkpt>
      <trkpt lat="41.9096730" lon="-2.9366300">
        <ele>1411.4</ele>
        <time>2022-02-08T09:33:01Z</time>
      </trkpt>
      <trkpt lat="41.9096780" lon="-2.9366530">
        <ele>1411.6</ele>
        <time>2022-02-08T09:33:02Z</time>
      </trkpt>
      <trkpt lat="41.9096850" lon="-2.9366780">
        <ele>1411.7</ele>
        <time>2022-02-08T09:33:03Z</time>
      </trkpt>
      <trkpt lat="41.9096970" lon="-2.9367030">
        <ele>1411.9</ele>
        <time>2022-02-08T09:33:04Z</time>
      </trkpt>
      <trkpt lat="41.9097070" lon="-2.9367280">
        <ele>1412.1</ele>
        <time>2022-02-08T09:33:05Z</time>
      </trkpt>
      <trkpt lat="41.9097180" lon="-2.9367550">
        <ele>1412.3</ele>
        <time>2022-02-08T09:33:06Z</time>
      </trkpt>
      <trkpt lat="41.9097330" lon="-2.9367820">
        <ele>1412.5</ele>
        <time>2022-02-08T09:33:07Z</time>
      </trkpt>
      <trkpt lat="41.9097530" lon="-2.9368100">
        <ele>1412.7</ele>
        <time>2022-02-08T09:33:08Z</time>
      </trkpt>
      <trkpt lat="41.9097680" lon="-2.9368380">
        <ele>1412.8</ele>
        <time>2022-02-08T09:33:09Z</time>
      </trkpt>
      <trkpt lat="41.9097800" lon="-2.9368680">
        <ele>1412.9</ele>
        <time>2022-02-08T09:33:10Z</time>
      </trkpt>
      <trkpt lat="41.9097880" lon="-2.9368970">
        <ele>1413.0</ele>
        <time>2022-02-08T09:33:11Z</time>
      </trkpt>
      <trkpt lat="41.9097970" lon="-2.9369230">
        <ele>1413.1</ele>
        <time>2022-02-08T09:33:12Z</time>
      </trkpt>
      <trkpt lat="41.9098050" lon="-2.9369520">
        <ele>1413.1</ele>
        <time>2022-02-08T09:33:13Z</time>
      </trkpt>
      <trkpt lat="41.9098150" lon="-2.9369800">
        <ele>1413.2</ele>
        <time>2022-02-08T09:33:14Z</time>
      </trkpt>
      <trkpt lat="41.9098230" lon="-2.9370100">
        <ele>1413.2</ele>
        <time>2022-02-08T09:33:15Z</time>
      </trkpt>
      <trkpt lat="41.9098300" lon="-2.9370330">
        <ele>1413.3</ele>
        <time>2022-02-08T09:33:16Z</time>
      </trkpt>
      <trkpt lat="41.9098400" lon="-2.9370700">
        <ele>1413.3</ele>
        <time>2022-02-08T09:33:17Z</time>
      </trkpt>
      <trkpt lat="41.9098500" lon="-2.9371030">
        <ele>1413.3</ele>
        <time>2022-02-08T09:33:18Z</time>
      </trkpt>
      <trkpt lat="41.9098650" lon="-2.9371350">
        <ele>1413.4</ele>
        <time>2022-02-08T09:33:19Z</time>
      </trkpt>
      <trkpt lat="41.9098850" lon="-2.9371700">
        <ele>1413.4</ele>
        <time>2022-02-08T09:33:20Z</time>
      </trkpt>
      <trkpt lat="41.9099030" lon="-2.9372020">
        <ele>1413.4</ele>
        <time>2022-02-08T09:33:21Z</time>
      </trkpt>
      <trkpt lat="41.9099250" lon="-2.9372450">
        <ele>1413.4</ele>
        <time>2022-02-08T09:33:22Z</time>
      </trkpt>
      <trkpt lat="41.9099520" lon="-2.9372950">
        <ele>1413.4</ele>
        <time>2022-02-08T09:33:23Z</time>
      </trkpt>
      <trkpt lat="41.9099700" lon="-2.9373250">
        <ele>1413.4</ele>
        <time>2022-02-08T09:33:24Z</time>
      </trkpt>
      <trkpt lat="41.9099900" lon="-2.9373630">
        <ele>1413.4</ele>
        <time>2022-02-08T09:33:25Z</time>
      </trkpt>
      <trkpt lat="41.9100170" lon="-2.9374070">
        <ele>1413.4</ele>
        <time>2022-02-08T09:33:26Z</time>
      </trkpt>
      <trkpt lat="41.9100400" lon="-2.9374430">
        <ele>1413.4</ele>
        <time>2022-02-08T09:33:27Z</time>
      </trkpt>
      <trkpt lat="41.9100680" lon="-2.9374800">
        <ele>1413.4</ele>
        <time>2022-02-08T09:33:28Z</time>
      </trkpt>
      <trkpt lat="41.9100920" lon="-2.9375120">
        <ele>1413.4</ele>
        <time>2022-02-08T09:33:29Z</time>
      </trkpt>
      <trkpt lat="41.9101220" lon="-2.9375480">
        <ele>1413.4</ele>
        <time>2022-02-08T09:33:30Z</time>
      </trkpt>
      <trkpt lat="41.9101530" lon="-2.9375970">
        <ele>1413.4</ele>
        <time>2022-02-08T09:33:31Z</time>
      </trkpt>
      <trkpt lat="41.9101770" lon="-2.9376400">
        <ele>1413.4</ele>
        <time>2022-02-08T09:33:32Z</time>
      </trkpt>
      <trkpt lat="41.9101930" lon="-2.9376820">
        <ele>1413.4</ele>
        <time>2022-02-08T09:33:33Z</time>
      </trkpt>
      <trkpt lat="41.9102050" lon="-2.9377170">
        <ele>1413.5</ele>
        <time>2022-02-08T09:33:34Z</time>
      </trkpt>
      <trkpt lat="41.9102200" lon="-2.9377600">
        <ele>1413.5</ele>
        <time>2022-02-08T09:33:35Z</time>
      </trkpt>
      <trkpt lat="41.9102330" lon="-2.9378130">
        <ele>1413.6</ele>
        <time>2022-02-08T09:33:36Z</time>
      </trkpt>
      <trkpt lat="41.9102480" lon="-2.9378550">
        <ele>1413.7</ele>
        <time>2022-02-08T09:33:37Z</time>
      </trkpt>
      <trkpt lat="41.9102580" lon="-2.9378880">
        <ele>1413.8</ele>
        <time>2022-02-08T09:33:38Z</time>
      </trkpt>
      <trkpt lat="41.9102670" lon="-2.9379280">
        <ele>1413.9</ele>
        <time>2022-02-08T09:33:39Z</time>
      </trkpt>
      <trkpt lat="41.9102750" lon="-2.9379700">
        <ele>1414.0</ele>
        <time>2022-02-08T09:33:40Z</time>
      </trkpt>
      <trkpt lat="41.9102850" lon="-2.9380230">
        <ele>1414.2</ele>
        <time>2022-02-08T09:33:41Z</time>
      </trkpt>
      <trkpt lat="41.9102880" lon="-2.9380700">
        <ele>1414.3</ele>
        <time>2022-02-08T09:33:42Z</time>
      </trkpt>
      <trkpt lat="41.9102930" lon="-2.9381070">
        <ele>1414.4</ele>
        <time>2022-02-08T09:33:43Z</time>
      </trkpt>
      <trkpt lat="41.9102970" lon="-2.9381550">
        <ele>1414.6</ele>
        <time>2022-02-08T09:33:44Z</time>
      </trkpt>
      <trkpt lat="41.9102950" lon="-2.9382050">
        <ele>1414.8</ele>
        <time>2022-02-08T09:33:45Z</time>
      </trkpt>
      <trkpt lat="41.9102830" lon="-2.9382430">
        <ele>1414.9</ele>
        <time>2022-02-08T09:33:46Z</time>
      </trkpt>
      <trkpt lat="41.9102630" lon="-2.9382820">
        <ele>1415.1</ele>
        <time>2022-02-08T09:33:47Z</time>
      </trkpt>
      <trkpt lat="41.9102350" lon="-2.9383180">
        <ele>1415.3</ele>
        <time>2022-02-08T09:33:48Z</time>
      </trkpt>
      <trkpt lat="41.9102080" lon="-2.9383480">
        <ele>1415.5</ele>
        <time>2022-02-08T09:33:49Z</time>
      </trkpt>
      <trkpt lat="41.9101780" lon="-2.9383880">
        <ele>1415.8</ele>
        <time>2022-02-08T09:33:50Z</time>
      </trkpt>
      <trkpt lat="41.9101530" lon="-2.9384450">
        <ele>1416.2</ele>
        <time>2022-02-08T09:33:51Z</time>
      </trkpt>
      <trkpt lat="41.9101370" lon="-2.9384930">
        <ele>1416.6</ele>
        <time>2022-02-08T09:33:52Z</time>
      </trkpt>
      <trkpt lat="41.9101230" lon="-2.9385450">
        <ele>1416.9</ele>
        <time>2022-02-08T09:33:53Z</time>
      </trkpt>
      <trkpt lat="41.9101150" lon="-2.9385850">
        <ele>1417.2</ele>
        <time>2022-02-08T09:33:54Z</time>
      </trkpt>
      <trkpt lat="41.9100930" lon="-2.9386380">
        <ele>1417.7</ele>
        <time>2022-02-08T09:33:55Z</time>
      </trkpt>
      <trkpt lat="41.9100670" lon="-2.9386750">
        <ele>1418.1</ele>
        <time>2022-02-08T09:33:56Z</time>
      </trkpt>
      <trkpt lat="41.9100400" lon="-2.9387030">
        <ele>1418.4</ele>
        <time>2022-02-08T09:33:57Z</time>
      </trkpt>
      <trkpt lat="41.9100000" lon="-2.9387480">
        <ele>1418.9</ele>
        <time>2022-02-08T09:33:58Z</time>
      </trkpt>
      <trkpt lat="41.9099750" lon="-2.9387780">
        <ele>1419.2</ele>
        <time>2022-02-08T09:33:59Z</time>
      </trkpt>
      <trkpt lat="41.9099400" lon="-2.9388230">
        <ele>1419.6</ele>
        <time>2022-02-08T09:34:00Z</time>
      </trkpt>
      <trkpt lat="41.9099150" lon="-2.9388630">
        <ele>1419.8</ele>
        <time>2022-02-08T09:34:01Z</time>
      </trkpt>
      <trkpt lat="41.9098920" lon="-2.9389020">
        <ele>1420.0</ele>
        <time>2022-02-08T09:34:02Z</time>
      </trkpt>
      <trkpt lat="41.9098700" lon="-2.9389330">
        <ele>1420.2</ele>
        <time>2022-02-08T09:34:03Z</time>
      </trkpt>
      <trkpt lat="41.9098370" lon="-2.9389770">
        <ele>1420.4</ele>
        <time>2022-02-08T09:34:04Z</time>
      </trkpt>
      <trkpt lat="41.9098070" lon="-2.9390070">
        <ele>1420.5</ele>
        <time>2022-02-08T09:34:05Z</time>
      </trkpt>
      <trkpt lat="41.9097780" lon="-2.9390370">
        <ele>1420.7</ele>
        <time>2022-02-08T09:34:06Z</time>
      </trkpt>
      <trkpt lat="41.9097520" lon="-2.9390680">
        <ele>1420.8</ele>
        <time>2022-02-08T09:34:07Z</time>
      </trkpt>
      <trkpt lat="41.9097330" lon="-2.9390970">
        <ele>1420.9</ele>
        <time>2022-02-08T09:34:08Z</time>
      </trkpt>
      <trkpt lat="41.9097070" lon="-2.9391350">
        <ele>1421.0</ele>
        <time>2022-02-08T09:34:09Z</time>
      </trkpt>
      <trkpt lat="41.9096870" lon="-2.9391700">
        <ele>1421.2</ele>
        <time>2022-02-08T09:34:10Z</time>
      </trkpt>
      <trkpt lat="41.9096670" lon="-2.9392020">
        <ele>1421.3</ele>
        <time>2022-02-08T09:34:11Z</time>
      </trkpt>
      <trkpt lat="41.9096480" lon="-2.9392300">
        <ele>1421.4</ele>
        <time>2022-02-08T09:34:12Z</time>
      </trkpt>
      <trkpt lat="41.9096320" lon="-2.9392530">
        <ele>1421.5</ele>
        <time>2022-02-08T09:34:13Z</time>
      </trkpt>
      <trkpt lat="41.9096120" lon="-2.9392830">
        <ele>1421.6</ele>
        <time>2022-02-08T09:34:14Z</time>
      </trkpt>
      <trkpt lat="41.9096000" lon="-2.9393000">
        <ele>1421.7</ele>
        <time>2022-02-08T09:34:15Z</time>
      </trkpt>
      <trkpt lat="41.9095920" lon="-2.9393120">
        <ele>1421.8</ele>
        <time>2022-02-08T09:34:16Z</time>
      </trkpt>
      <trkpt lat="41.9095870" lon="-2.9393150">
        <ele>1421.8</ele>
        <time>2022-02-08T09:34:17Z</time>
      </trkpt>
      <trkpt lat="41.9095850" lon="-2.9393180">
        <ele>1421.8</ele>
        <time>2022-02-08T09:34:18Z</time>
      </trkpt>
      <trkpt lat="41.9095830" lon="-2.9393180">
        <ele>1421.8</ele>
        <time>2022-02-08T09:34:19Z</time>
      </trkpt>
      <trkpt lat="41.9095820" lon="-2.9393220">
        <ele>1421.8</ele>
        <time>2022-02-08T09:34:20Z</time>
      </trkpt>
      <trkpt lat="41.9095800" lon="-2.9393320">
        <ele>1421.9</ele>
        <time>2022-02-08T09:34:21Z</time>
      </trkpt>
      <trkpt lat="41.9095800" lon="-2.9393420">
        <ele>1421.9</ele>
        <time>2022-02-08T09:34:22Z</time>
      </trkpt>
      <trkpt lat="41.9095770" lon="-2.9393480">
        <ele>1421.9</ele>
        <time>2022-02-08T09:34:23Z</time>
      </trkpt>
      <trkpt lat="41.9095750" lon="-2.9393530">
        <ele>1422.0</ele>
        <time>2022-02-08T09:34:24Z</time>
      </trkpt>
      <trkpt lat="41.9095800" lon="-2.9393570">
        <ele>1422.0</ele>
        <time>2022-02-08T09:34:25Z</time>
      </trkpt>
      <trkpt lat="41.9095870" lon="-2.9393570">
        <ele>1422.0</ele>
        <time>2022-02-08T09:34:26Z</time>
      </trkpt>
      <trkpt lat="41.9095900" lon="-2.9393520">
        <ele>1422.1</ele>
        <time>2022-02-08T09:34:27Z</time>
      </trkpt>
      <trkpt lat="41.9095950" lon="-2.9393420">
        <ele>1422.1</ele>
        <time>2022-02-08T09:34:28Z</time>
      </trkpt>
      <trkpt lat="41.9095970" lon="-2.9393370">
        <ele>1422.1</ele>
        <time>2022-02-08T09:34:29Z</time>
      </trkpt>
      <trkpt lat="41.9095970" lon="-2.9393330">
        <ele>1422.1</ele>
        <time>2022-02-08T09:34:30Z</time>
      </trkpt>
      <trkpt lat="41.9095970" lon="-2.9393280">
        <ele>1422.2</ele>
        <time>2022-02-08T09:34:31Z</time>
      </trkpt>
      <trkpt lat="41.9095970" lon="-2.9393270">
        <ele>1422.2</ele>
        <time>2022-02-08T09:34:32Z</time>
      </trkpt>
      <trkpt lat="41.9095970" lon="-2.9393270">
        <ele>1422.2</ele>
        <time>2022-02-08T09:34:33Z</time>
      </trkpt>
      <trkpt lat="41.9095970" lon="-2.9393270">
        <ele>1422.2</ele>
        <time>2022-02-08T09:34:34Z</time>
      </trkpt>
      <trkpt lat="41.9095970" lon="-2.9393270">
        <ele>1422.2</ele>
        <time>2022-02-08T09:34:35Z</time>
      </trkpt>
      <trkpt lat="41.9095970" lon="-2.9393270">
        <ele>1422.2</ele>
        <time>2022-02-08T09:34:36Z</time>
      </trkpt>
      <trkpt lat="41.9095970" lon="-2.9393270">
        <ele>1422.2</ele>
        <time>2022-02-08T09:34:37Z</time>
      </trkpt>
      <trkpt lat="41.9095970" lon="-2.9393270">
        <ele>1422.2</ele>
        <time>2022-02-08T09:34:38Z</time>
      </trkpt>
      <trkpt lat="41.9095970" lon="-2.9393270">
        <ele>1422.2</ele>
        <time>2022-02-08T09:34:39Z</time>
      </trkpt>
      <trkpt lat="41.9095970" lon="-2.9393270">
        <ele>1422.2</ele>
        <time>2022-02-08T09:34:40Z</time>
      </trkpt>
      <trkpt lat="41.9095970" lon="-2.9393270">
        <ele>1422.2</ele>
        <time>2022-02-08T09:34:41Z</time>
      </trkpt>
      <trkpt lat="41.9095970" lon="-2.9393270">
        <ele>1422.2</ele>
        <time>2022-02-08T09:34:42Z</time>
      </trkpt>
      <trkpt lat="41.9095970" lon="-2.9393270">
        <ele>1422.2</ele>
        <time>2022-02-08T09:34:43Z</time>
      </trkpt>
      <trkpt lat="41.9095970" lon="-2.9393270">
        <ele>1422.2</ele>
        <time>2022-02-08T09:34:44Z</time>
      </trkpt>
      <trkpt lat="41.9095970" lon="-2.9393270">
        <ele>1422.2</ele>
        <time>2022-02-08T09:34:45Z</time>
      </trkpt>
      <trkpt lat="41.9095970" lon="-2.9393270">
        <ele>1422.2</ele>
        <time>2022-02-08T09:34:46Z</time>
      </trkpt>
      <trkpt lat="41.9095970" lon="-2.9393270">
        <ele>1422.2</ele>
        <time>2022-02-08T09:34:47Z</time>
      </trkpt>
      <trkpt lat="41.9095970" lon="-2.9393230">
        <ele>1422.2</ele>
        <time>2022-02-08T09:34:48Z</time>
      </trkpt>
      <trkpt lat="41.9095970" lon="-2.9393230">
        <ele>1422.2</ele>
        <time>2022-02-08T09:34:49Z</time>
      </trkpt>
      <trkpt lat="41.9095970" lon="-2.9393230">
        <ele>1422.2</ele>
        <time>2022-02-08T09:34:50Z</time>
      </trkpt>
      <trkpt lat="41.9095970" lon="-2.9393220">
        <ele>1422.2</ele>
        <time>2022-02-08T09:34:51Z</time>
      </trkpt>
      <trkpt lat="41.9095970" lon="-2.9393220">
        <ele>1422.2</ele>
        <time>2022-02-08T09:34:52Z</time>
      </trkpt>
      <trkpt lat="41.9095970" lon="-2.9393220">
        <ele>1422.2</ele>
        <time>2022-02-08T09:34:53Z</time>
      </trkpt>
      <trkpt lat="41.9095970" lon="-2.9393220">
        <ele>1422.2</ele>
        <time>2022-02-08T09:34:54Z</time>
      </trkpt>
      <trkpt lat="41.9095970" lon="-2.9393220">
        <ele>1422.2</ele>
        <time>2022-02-08T09:34:55Z</time>
      </trkpt>
      <trkpt lat="41.9096020" lon="-2.9393220">
        <ele>1422.2</ele>
        <time>2022-02-08T09:34:56Z</time>
      </trkpt>
      <trkpt lat="41.9096030" lon="-2.9393220">
        <ele>1422.2</ele>
        <time>2022-02-08T09:34:57Z</time>
      </trkpt>
      <trkpt lat="41.9096050" lon="-2.9393220">
        <ele>1422.2</ele>
        <time>2022-02-08T09:34:58Z</time>
      </trkpt>
      <trkpt lat="41.9096070" lon="-2.9393220">
        <ele>1422.2</ele>
        <time>2022-02-08T09:34:59Z</time>
      </trkpt>
      <trkpt lat="41.9096080" lon="-2.9393220">
        <ele>1422.2</ele>
        <time>2022-02-08T09:35:00Z</time>
      </trkpt>
      <trkpt lat="41.9096080" lon="-2.9393200">
        <ele>1422.2</ele>
        <time>2022-02-08T09:35:01Z</time>
      </trkpt>
      <trkpt lat="41.9096080" lon="-2.9393200">
        <ele>1422.2</ele>
        <time>2022-02-08T09:35:02Z</time>
      </trkpt>
      <trkpt lat="41.9096080" lon="-2.9393200">
        <ele>1422.2</ele>
        <time>2022-02-08T09:35:03Z</time>
      </trkpt>
      <trkpt lat="41.9096080" lon="-2.9393200">
        <ele>1422.2</ele>
        <time>2022-02-08T09:35:04Z</time>
      </trkpt>
      <trkpt lat="41.9096080" lon="-2.9393200">
        <ele>1422.2</ele>
        <time>2022-02-08T09:35:05Z</time>
      </trkpt>
      <trkpt lat="41.9096080" lon="-2.9393200">
        <ele>1422.2</ele>
        <time>2022-02-08T09:35:06Z</time>
      </trkpt>
      <trkpt lat="41.9096080" lon="-2.9393200">
        <ele>1422.2</ele>
        <time>2022-02-08T09:35:07Z</time>
      </trkpt>
      <trkpt lat="41.9096080" lon="-2.9393200">
        <ele>1422.2</ele>
        <time>2022-02-08T09:35:08Z</time>
      </trkpt>
      <trkpt lat="41.9096080" lon="-2.9393200">
        <ele>1422.2</ele>
        <time>2022-02-08T09:35:09Z</time>
      </trkpt>
      <trkpt lat="41.9096080" lon="-2.9393220">
        <ele>1422.2</ele>
        <time>2022-02-08T09:35:10Z</time>
      </trkpt>
      <trkpt lat="41.9096080" lon="-2.9393220">
        <ele>1422.2</ele>
        <time>2022-02-08T09:35:11Z</time>
      </trkpt>
      <trkpt lat="41.9096080" lon="-2.9393220">
        <ele>1422.2</ele>
        <time>2022-02-08T09:35:12Z</time>
      </trkpt>
      <trkpt lat="41.9096080" lon="-2.9393200">
        <ele>1422.3</ele>
        <time>2022-02-08T09:35:13Z</time>
      </trkpt>
      <trkpt lat="41.9096080" lon="-2.9393200">
        <ele>1422.3</ele>
        <time>2022-02-08T09:35:14Z</time>
      </trkpt>
      <trkpt lat="41.9096070" lon="-2.9393200">
        <ele>1422.3</ele>
        <time>2022-02-08T09:35:15Z</time>
      </trkpt>
      <trkpt lat="41.9096030" lon="-2.9393200">
        <ele>1422.3</ele>
        <time>2022-02-08T09:35:16Z</time>
      </trkpt>
      <trkpt lat="41.9095980" lon="-2.9393220">
        <ele>1422.3</ele>
        <time>2022-02-08T09:35:17Z</time>
      </trkpt>
      <trkpt lat="41.9095630" lon="-2.9393220">
        <ele>1422.5</ele>
        <time>2022-02-08T09:35:18Z</time>
      </trkpt>
      <trkpt lat="41.9095320" lon="-2.9393120">
        <ele>1422.6</ele>
        <time>2022-02-08T09:35:19Z</time>
      </trkpt>
      <trkpt lat="41.9095000" lon="-2.9392950">
        <ele>1422.8</ele>
        <time>2022-02-08T09:35:20Z</time>
      </trkpt>
      <trkpt lat="41.9094670" lon="-2.9392750">
        <ele>1422.8</ele>
        <time>2022-02-08T09:35:21Z</time>
      </trkpt>
      <trkpt lat="41.9094330" lon="-2.9392500">
        <ele>1422.8</ele>
        <time>2022-02-08T09:35:22Z</time>
      </trkpt>
      <trkpt lat="41.9094000" lon="-2.9392200">
        <ele>1422.8</ele>
        <time>2022-02-08T09:35:23Z</time>
      </trkpt>
      <trkpt lat="41.9093700" lon="-2.9391880">
        <ele>1422.8</ele>
        <time>2022-02-08T09:35:24Z</time>
      </trkpt>
      <trkpt lat="41.9093450" lon="-2.9391620">
        <ele>1422.8</ele>
        <time>2022-02-08T09:35:25Z</time>
      </trkpt>
      <trkpt lat="41.9093120" lon="-2.9391180">
        <ele>1422.9</ele>
        <time>2022-02-08T09:35:26Z</time>
      </trkpt>
      <trkpt lat="41.9092920" lon="-2.9390780">
        <ele>1423.0</ele>
        <time>2022-02-08T09:35:27Z</time>
      </trkpt>
      <trkpt lat="41.9092750" lon="-2.9390370">
        <ele>1423.1</ele>
        <time>2022-02-08T09:35:28Z</time>
      </trkpt>
      <trkpt lat="41.9092630" lon="-2.9390030">
        <ele>1423.2</ele>
        <time>2022-02-08T09:35:29Z</time>
      </trkpt>
      <trkpt lat="41.9092500" lon="-2.9389670">
        <ele>1423.3</ele>
        <time>2022-02-08T09:35:30Z</time>
      </trkpt>
      <trkpt lat="41.9092380" lon="-2.9389270">
        <ele>1423.4</ele>
        <time>2022-02-08T09:35:31Z</time>
      </trkpt>
      <trkpt lat="41.9092280" lon="-2.9388980">
        <ele>1423.5</ele>
        <time>2022-02-08T09:35:32Z</time>
      </trkpt>
      <trkpt lat="41.9092170" lon="-2.9388700">
        <ele>1423.7</ele>
        <time>2022-02-08T09:35:33Z</time>
      </trkpt>
      <trkpt lat="41.9092070" lon="-2.9388500">
        <ele>1423.8</ele>
        <time>2022-02-08T09:35:34Z</time>
      </trkpt>
      <trkpt lat="41.9091920" lon="-2.9388270">
        <ele>1423.9</ele>
        <time>2022-02-08T09:35:35Z</time>
      </trkpt>
      <trkpt lat="41.9091770" lon="-2.9388070">
        <ele>1424.1</ele>
        <time>2022-02-08T09:35:36Z</time>
      </trkpt>
      <trkpt lat="41.9091600" lon="-2.9387800">
        <ele>1424.3</ele>
        <time>2022-02-08T09:35:37Z</time>
      </trkpt>
      <trkpt lat="41.9091470" lon="-2.9387550">
        <ele>1424.5</ele>
        <time>2022-02-08T09:35:38Z</time>
      </trkpt>
      <trkpt lat="41.9091350" lon="-2.9387370">
        <ele>1424.6</ele>
        <time>2022-02-08T09:35:39Z</time>
      </trkpt>
      <trkpt lat="41.9091200" lon="-2.9387050">
        <ele>1424.9</ele>
        <time>2022-02-08T09:35:40Z</time>
      </trkpt>
      <trkpt lat="41.9091080" lon="-2.9386800">
        <ele>1425.1</ele>
        <time>2022-02-08T09:35:41Z</time>
      </trkpt>
      <trkpt lat="41.9090950" lon="-2.9386520">
        <ele>1425.4</ele>
        <time>2022-02-08T09:35:42Z</time>
      </trkpt>
      <trkpt lat="41.9090850" lon="-2.9386250">
        <ele>1425.7</ele>
        <time>2022-02-08T09:35:43Z</time>
      </trkpt>
      <trkpt lat="41.9090750" lon="-2.9385980">
        <ele>1426.0</ele>
        <time>2022-02-08T09:35:44Z</time>
      </trkpt>
      <trkpt lat="41.9090650" lon="-2.9385730">
        <ele>1426.3</ele>
        <time>2022-02-08T09:35:45Z</time>
      </trkpt>
      <trkpt lat="41.9090570" lon="-2.9385470">
        <ele>1426.6</ele>
        <time>2022-02-08T09:35:46Z</time>
      </trkpt>
      <trkpt lat="41.9090480" lon="-2.9385250">
        <ele>1426.9</ele>
        <time>2022-02-08T09:35:47Z</time>
      </trkpt>
      <trkpt lat="41.9090400" lon="-2.9384970">
        <ele>1427.3</ele>
        <time>2022-02-08T09:35:48Z</time>
      </trkpt>
      <trkpt lat="41.9090300" lon="-2.9384580">
        <ele>1427.9</ele>
        <time>2022-02-08T09:35:49Z</time>
      </trkpt>
      <trkpt lat="41.9090270" lon="-2.9384270">
        <ele>1428.3</ele>
        <time>2022-02-08T09:35:50Z</time>
      </trkpt>
      <trkpt lat="41.9090230" lon="-2.9384000">
        <ele>1428.7</ele>
        <time>2022-02-08T09:35:51Z</time>
      </trkpt>
      <trkpt lat="41.9090220" lon="-2.9383730">
        <ele>1429.1</ele>
        <time>2022-02-08T09:35:52Z</time>
      </trkpt>
      <trkpt lat="41.9090200" lon="-2.9383530">
        <ele>1429.4</ele>
        <time>2022-02-08T09:35:53Z</time>
      </trkpt>
      <trkpt lat="41.9090220" lon="-2.9383320">
        <ele>1429.7</ele>
        <time>2022-02-08T09:35:54Z</time>
      </trkpt>
      <trkpt lat="41.9090280" lon="-2.9383170">
        <ele>1429.9</ele>
        <time>2022-02-08T09:35:55Z</time>
      </trkpt>
      <trkpt lat="41.9090320" lon="-2.9383050">
        <ele>1430.1</ele>
        <time>2022-02-08T09:35:56Z</time>
      </trkpt>
      <trkpt lat="41.9090400" lon="-2.9382920">
        <ele>1430.3</ele>
        <time>2022-02-08T09:35:57Z</time>
      </trkpt>
      <trkpt lat="41.9090480" lon="-2.9382770">
        <ele>1430.5</ele>
        <time>2022-02-08T09:35:58Z</time>
      </trkpt>
      <trkpt lat="41.9090530" lon="-2.9382620">
        <ele>1430.7</ele>
        <time>2022-02-08T09:35:59Z</time>
      </trkpt>
      <trkpt lat="41.9090570" lon="-2.9382470">
        <ele>1430.8</ele>
        <time>2022-02-08T09:36:00Z</time>
      </trkpt>
      <trkpt lat="41.9090580" lon="-2.9382320">
        <ele>1431.0</ele>
        <time>2022-02-08T09:36:01Z</time>
      </trkpt>
      <trkpt lat="41.9090600" lon="-2.9382100">
        <ele>1431.2</ele>
        <time>2022-02-08T09:36:02Z</time>
      </trkpt>
      <trkpt lat="41.9090620" lon="-2.9381920">
        <ele>1431.3</ele>
        <time>2022-02-08T09:36:03Z</time>
      </trkpt>
      <trkpt lat="41.9090630" lon="-2.9381720">
        <ele>1431.5</ele>
        <time>2022-02-08T09:36:04Z</time>
      </trkpt>
      <trkpt lat="41.9090620" lon="-2.9381570">
        <ele>1431.6</ele>
        <time>2022-02-08T09:36:05Z</time>
      </trkpt>
      <trkpt lat="41.9090650" lon="-2.9381370">
        <ele>1431.7</ele>
        <time>2022-02-08T09:36:06Z</time>
      </trkpt>
      <trkpt lat="41.9090720" lon="-2.9381150">
        <ele>1431.8</ele>
        <time>2022-02-08T09:36:07Z</time>
      </trkpt>
      <trkpt lat="41.9090780" lon="-2.9380980">
        <ele>1431.9</ele>
        <time>2022-02-08T09:36:08Z</time>
      </trkpt>
      <trkpt lat="41.9090830" lon="-2.9380820">
        <ele>1432.0</ele>
        <time>2022-02-08T09:36:09Z</time>
      </trkpt>
      <trkpt lat="41.9090880" lon="-2.9380630">
        <ele>1432.1</ele>
        <time>2022-02-08T09:36:10Z</time>
      </trkpt>
      <trkpt lat="41.9090920" lon="-2.9380450">
        <ele>1432.2</ele>
        <time>2022-02-08T09:36:11Z</time>
      </trkpt>
      <trkpt lat="41.9091000" lon="-2.9380270">
        <ele>1432.3</ele>
        <time>2022-02-08T09:36:12Z</time>
      </trkpt>
      <trkpt lat="41.9091080" lon="-2.9380080">
        <ele>1432.4</ele>
        <time>2022-02-08T09:36:13Z</time>
      </trkpt>
      <trkpt lat="41.9091150" lon="-2.9379920">
        <ele>1432.5</ele>
        <time>2022-02-08T09:36:14Z</time>
      </trkpt>
      <trkpt lat="41.9091220" lon="-2.9379700">
        <ele>1432.6</ele>
        <time>2022-02-08T09:36:15Z</time>
      </trkpt>
      <trkpt lat="41.9091270" lon="-2.9379420">
        <ele>1432.8</ele>
        <time>2022-02-08T09:36:16Z</time>
      </trkpt>
      <trkpt lat="41.9091300" lon="-2.9379170">
        <ele>1432.9</ele>
        <time>2022-02-08T09:36:17Z</time>
      </trkpt>
      <trkpt lat="41.9091280" lon="-2.9378970">
        <ele>1433.0</ele>
        <time>2022-02-08T09:36:18Z</time>
      </trkpt>
      <trkpt lat="41.9091250" lon="-2.9378720">
        <ele>1433.1</ele>
        <time>2022-02-08T09:36:19Z</time>
      </trkpt>
      <trkpt lat="41.9091230" lon="-2.9378400">
        <ele>1433.3</ele>
        <time>2022-02-08T09:36:20Z</time>
      </trkpt>
      <trkpt lat="41.9091220" lon="-2.9378120">
        <ele>1433.4</ele>
        <time>2022-02-08T09:36:21Z</time>
      </trkpt>
      <trkpt lat="41.9091180" lon="-2.9377850">
        <ele>1433.6</ele>
        <time>2022-02-08T09:36:22Z</time>
      </trkpt>
      <trkpt lat="41.9091150" lon="-2.9377580">
        <ele>1433.7</ele>
        <time>2022-02-08T09:36:23Z</time>
      </trkpt>
      <trkpt lat="41.9091130" lon="-2.9377380">
        <ele>1433.8</ele>
        <time>2022-02-08T09:36:24Z</time>
      </trkpt>
      <trkpt lat="41.9091070" lon="-2.9377080">
        <ele>1434.0</ele>
        <time>2022-02-08T09:36:25Z</time>
      </trkpt>
      <trkpt lat="41.9091020" lon="-2.9376850">
        <ele>1434.1</ele>
        <time>2022-02-08T09:36:26Z</time>
      </trkpt>
      <trkpt lat="41.9090950" lon="-2.9376630">
        <ele>1434.3</ele>
        <time>2022-02-08T09:36:27Z</time>
      </trkpt>
      <trkpt lat="41.9090880" lon="-2.9376430">
        <ele>1434.4</ele>
        <time>2022-02-08T09:36:28Z</time>
      </trkpt>
      <trkpt lat="41.9090800" lon="-2.9376270">
        <ele>1434.5</ele>
        <time>2022-02-08T09:36:29Z</time>
      </trkpt>
      <trkpt lat="41.9090670" lon="-2.9376100">
        <ele>1434.7</ele>
        <time>2022-02-08T09:36:30Z</time>
      </trkpt>
      <trkpt lat="41.9090500" lon="-2.9375930">
        <ele>1435.0</ele>
        <time>2022-02-08T09:36:31Z</time>
      </trkpt>
      <trkpt lat="41.9090330" lon="-2.9375780">
        <ele>1435.2</ele>
        <time>2022-02-08T09:36:32Z</time>
      </trkpt>
      <trkpt lat="41.9090220" lon="-2.9375700">
        <ele>1435.4</ele>
        <time>2022-02-08T09:36:33Z</time>
      </trkpt>
      <trkpt lat="41.9090080" lon="-2.9375600">
        <ele>1435.6</ele>
        <time>2022-02-08T09:36:34Z</time>
      </trkpt>
      <trkpt lat="41.9089950" lon="-2.9375520">
        <ele>1435.8</ele>
        <time>2022-02-08T09:36:35Z</time>
      </trkpt>
      <trkpt lat="41.9089780" lon="-2.9375470">
        <ele>1436.0</ele>
        <time>2022-02-08T09:36:36Z</time>
      </trkpt>
      <trkpt lat="41.9089580" lon="-2.9375450">
        <ele>1436.3</ele>
        <time>2022-02-08T09:36:37Z</time>
      </trkpt>
      <trkpt lat="41.9089420" lon="-2.9375500">
        <ele>1436.6</ele>
        <time>2022-02-08T09:36:38Z</time>
      </trkpt>
      <trkpt lat="41.9089230" lon="-2.9375580">
        <ele>1436.9</ele>
        <time>2022-02-08T09:36:39Z</time>
      </trkpt>
      <trkpt lat="41.9089070" lon="-2.9375670">
        <ele>1437.2</ele>
        <time>2022-02-08T09:36:40Z</time>
      </trkpt>
      <trkpt lat="41.9088930" lon="-2.9375700">
        <ele>1437.4</ele>
        <time>2022-02-08T09:36:41Z</time>
      </trkpt>
      <trkpt lat="41.9088730" lon="-2.9375700">
        <ele>1437.7</ele>
        <time>2022-02-08T09:36:42Z</time>
      </trkpt>
      <trkpt lat="41.9088570" lon="-2.9375670">
        <ele>1438.0</ele>
        <time>2022-02-08T09:36:43Z</time>
      </trkpt>
      <trkpt lat="41.9088400" lon="-2.9375670">
        <ele>1438.3</ele>
        <time>2022-02-08T09:36:44Z</time>
      </trkpt>
      <trkpt lat="41.9088250" lon="-2.9375670">
        <ele>1438.5</ele>
        <time>2022-02-08T09:36:45Z</time>
      </trkpt>
      <trkpt lat="41.9088080" lon="-2.9375670">
        <ele>1438.8</ele>
        <time>2022-02-08T09:36:46Z</time>
      </trkpt>
      <trkpt lat="41.9087930" lon="-2.9375700">
        <ele>1439.0</ele>
        <time>2022-02-08T09:36:47Z</time>
      </trkpt>
      <trkpt lat="41.9087780" lon="-2.9375780">
        <ele>1439.2</ele>
        <time>2022-02-08T09:36:48Z</time>
      </trkpt>
      <trkpt lat="41.9087620" lon="-2.9375900">
        <ele>1439.5</ele>
        <time>2022-02-08T09:36:49Z</time>
      </trkpt>
      <trkpt lat="41.9087450" lon="-2.9375980">
        <ele>1439.7</ele>
        <time>2022-02-08T09:36:50Z</time>
      </trkpt>
      <trkpt lat="41.9087250" lon="-2.9376050">
        <ele>1439.9</ele>
        <time>2022-02-08T09:36:51Z</time>
      </trkpt>
      <trkpt lat="41.9087070" lon="-2.9376070">
        <ele>1440.0</ele>
        <time>2022-02-08T09:36:52Z</time>
      </trkpt>
      <trkpt lat="41.9086850" lon="-2.9376100">
        <ele>1440.2</ele>
        <time>2022-02-08T09:36:53Z</time>
      </trkpt>
      <trkpt lat="41.9086650" lon="-2.9376080">
        <ele>1440.3</ele>
        <time>2022-02-08T09:36:54Z</time>
      </trkpt>
      <trkpt lat="41.9086470" lon="-2.9376050">
        <ele>1440.4</ele>
        <time>2022-02-08T09:36:55Z</time>
      </trkpt>
      <trkpt lat="41.9086280" lon="-2.9375970">
        <ele>1440.5</ele>
        <time>2022-02-08T09:36:56Z</time>
      </trkpt>
      <trkpt lat="41.9086150" lon="-2.9375750">
        <ele>1440.5</ele>
        <time>2022-02-08T09:36:57Z</time>
      </trkpt>
      <trkpt lat="41.9086070" lon="-2.9375500">
        <ele>1440.6</ele>
        <time>2022-02-08T09:36:58Z</time>
      </trkpt>
      <trkpt lat="41.9086050" lon="-2.9375180">
        <ele>1440.6</ele>
        <time>2022-02-08T09:36:59Z</time>
      </trkpt>
      <trkpt lat="41.9086080" lon="-2.9374880">
        <ele>1440.6</ele>
        <time>2022-02-08T09:37:00Z</time>
      </trkpt>
      <trkpt lat="41.9086120" lon="-2.9374620">
        <ele>1440.7</ele>
        <time>2022-02-08T09:37:01Z</time>
      </trkpt>
      <trkpt lat="41.9086120" lon="-2.9374350">
        <ele>1440.7</ele>
        <time>2022-02-08T09:37:02Z</time>
      </trkpt>
      <trkpt lat="41.9086120" lon="-2.9374120">
        <ele>1440.7</ele>
        <time>2022-02-08T09:37:03Z</time>
      </trkpt>
      <trkpt lat="41.9086030" lon="-2.9373880">
        <ele>1440.7</ele>
        <time>2022-02-08T09:37:04Z</time>
      </trkpt>
      <trkpt lat="41.9085920" lon="-2.9373700">
        <ele>1440.8</ele>
        <time>2022-02-08T09:37:05Z</time>
      </trkpt>
      <trkpt lat="41.9085720" lon="-2.9373580">
        <ele>1440.8</ele>
        <time>2022-02-08T09:37:06Z</time>
      </trkpt>
      <trkpt lat="41.9085520" lon="-2.9373520">
        <ele>1440.8</ele>
        <time>2022-02-08T09:37:07Z</time>
      </trkpt>
      <trkpt lat="41.9085280" lon="-2.9373430">
        <ele>1440.8</ele>
        <time>2022-02-08T09:37:08Z</time>
      </trkpt>
      <trkpt lat="41.9085030" lon="-2.9373370">
        <ele>1440.9</ele>
        <time>2022-02-08T09:37:09Z</time>
      </trkpt>
      <trkpt lat="41.9084770" lon="-2.9373320">
        <ele>1441.0</ele>
        <time>2022-02-08T09:37:10Z</time>
      </trkpt>
      <trkpt lat="41.9084480" lon="-2.9373270">
        <ele>1441.1</ele>
        <time>2022-02-08T09:37:11Z</time>
      </trkpt>
      <trkpt lat="41.9084200" lon="-2.9373230">
        <ele>1441.2</ele>
        <time>2022-02-08T09:37:12Z</time>
      </trkpt>
      <trkpt lat="41.9083920" lon="-2.9373180">
        <ele>1441.3</ele>
        <time>2022-02-08T09:37:13Z</time>
      </trkpt>
      <trkpt lat="41.9083650" lon="-2.9373130">
        <ele>1441.4</ele>
        <time>2022-02-08T09:37:14Z</time>
      </trkpt>
      <trkpt lat="41.9083380" lon="-2.9373070">
        <ele>1441.4</ele>
        <time>2022-02-08T09:37:15Z</time>
      </trkpt>
      <trkpt lat="41.9083100" lon="-2.9373000">
        <ele>1441.5</ele>
        <time>2022-02-08T09:37:16Z</time>
      </trkpt>
      <trkpt lat="41.9082830" lon="-2.9372930">
        <ele>1441.6</ele>
        <time>2022-02-08T09:37:17Z</time>
      </trkpt>
      <trkpt lat="41.9082550" lon="-2.9372870">
        <ele>1441.6</ele>
        <time>2022-02-08T09:37:18Z</time>
      </trkpt>
      <trkpt lat="41.9082250" lon="-2.9372780">
        <ele>1441.7</ele>
        <time>2022-02-08T09:37:19Z</time>
      </trkpt>
      <trkpt lat="41.9081980" lon="-2.9372670">
        <ele>1441.8</ele>
        <time>2022-02-08T09:37:20Z</time>
      </trkpt>
      <trkpt lat="41.9081700" lon="-2.9372520">
        <ele>1441.9</ele>
        <time>2022-02-08T09:37:21Z</time>
      </trkpt>
      <trkpt lat="41.9081420" lon="-2.9372350">
        <ele>1441.9</ele>
        <time>2022-02-08T09:37:22Z</time>
      </trkpt>
      <trkpt lat="41.9081150" lon="-2.9372220">
        <ele>1442.0</ele>
        <time>2022-02-08T09:37:23Z</time>
      </trkpt>
      <trkpt lat="41.9080920" lon="-2.9372120">
        <ele>1442.1</ele>
        <time>2022-02-08T09:37:24Z</time>
      </trkpt>
      <trkpt lat="41.9080720" lon="-2.9371980">
        <ele>1442.1</ele>
        <time>2022-02-08T09:37:25Z</time>
      </trkpt>
      <trkpt lat="41.9080530" lon="-2.9371780">
        <ele>1442.2</ele>
        <time>2022-02-08T09:37:26Z</time>
      </trkpt>
      <trkpt lat="41.9080320" lon="-2.9371570">
        <ele>1442.2</ele>
        <time>2022-02-08T09:37:27Z</time>
      </trkpt>
      <trkpt lat="41.9080100" lon="-2.9371470">
        <ele>1442.3</ele>
        <time>2022-02-08T09:37:28Z</time>
      </trkpt>
      <trkpt lat="41.9079850" lon="-2.9371400">
        <ele>1442.4</ele>
        <time>2022-02-08T09:37:29Z</time>
      </trkpt>
      <trkpt lat="41.9079600" lon="-2.9371320">
        <ele>1442.4</ele>
        <time>2022-02-08T09:37:30Z</time>
      </trkpt>
      <trkpt lat="41.9079350" lon="-2.9371220">
        <ele>1442.5</ele>
        <time>2022-02-08T09:37:31Z</time>
      </trkpt>
      <trkpt lat="41.9079050" lon="-2.9371120">
        <ele>1442.6</ele>
        <time>2022-02-08T09:37:32Z</time>
      </trkpt>
      <trkpt lat="41.9078780" lon="-2.9371030">
        <ele>1442.7</ele>
        <time>2022-02-08T09:37:33Z</time>
      </trkpt>
      <trkpt lat="41.9078500" lon="-2.9371030">
        <ele>1442.7</ele>
        <time>2022-02-08T09:37:34Z</time>
      </trkpt>
      <trkpt lat="41.9078230" lon="-2.9371030">
        <ele>1442.8</ele>
        <time>2022-02-08T09:37:35Z</time>
      </trkpt>
      <trkpt lat="41.9077970" lon="-2.9371080">
        <ele>1442.9</ele>
        <time>2022-02-08T09:37:36Z</time>
      </trkpt>
      <trkpt lat="41.9077680" lon="-2.9371150">
        <ele>1443.0</ele>
        <time>2022-02-08T09:37:37Z</time>
      </trkpt>
      <trkpt lat="41.9077400" lon="-2.9371230">
        <ele>1443.0</ele>
        <time>2022-02-08T09:37:38Z</time>
      </trkpt>
      <trkpt lat="41.9077120" lon="-2.9371320">
        <ele>1443.1</ele>
        <time>2022-02-08T09:37:39Z</time>
      </trkpt>
      <trkpt lat="41.9076850" lon="-2.9371420">
        <ele>1443.2</ele>
        <time>2022-02-08T09:37:40Z</time>
      </trkpt>
      <trkpt lat="41.9076580" lon="-2.9371500">
        <ele>1443.3</ele>
        <time>2022-02-08T09:37:41Z</time>
      </trkpt>
      <trkpt lat="41.9076320" lon="-2.9371580">
        <ele>1443.3</ele>
        <time>2022-02-08T09:37:42Z</time>
      </trkpt>
      <trkpt lat="41.9076070" lon="-2.9371670">
        <ele>1443.4</ele>
        <time>2022-02-08T09:37:43Z</time>
      </trkpt>
      <trkpt lat="41.9075830" lon="-2.9371750">
        <ele>1443.5</ele>
        <time>2022-02-08T09:37:44Z</time>
      </trkpt>
      <trkpt lat="41.9075600" lon="-2.9371820">
        <ele>1443.5</ele>
        <time>2022-02-08T09:37:45Z</time>
      </trkpt>
      <trkpt lat="41.9075350" lon="-2.9371900">
        <ele>1443.6</ele>
        <time>2022-02-08T09:37:46Z</time>
      </trkpt>
      <trkpt lat="41.9075170" lon="-2.9371970">
        <ele>1443.6</ele>
        <time>2022-02-08T09:37:47Z</time>
      </trkpt>
      <trkpt lat="41.9075000" lon="-2.9372030">
        <ele>1443.7</ele>
        <time>2022-02-08T09:37:48Z</time>
      </trkpt>
      <trkpt lat="41.9074830" lon="-2.9372050">
        <ele>1443.7</ele>
        <time>2022-02-08T09:37:49Z</time>
      </trkpt>
      <trkpt lat="41.9074650" lon="-2.9372050">
        <ele>1443.8</ele>
        <time>2022-02-08T09:37:50Z</time>
      </trkpt>
      <trkpt lat="41.9074450" lon="-2.9372070">
        <ele>1443.8</ele>
        <time>2022-02-08T09:37:51Z</time>
      </trkpt>
      <trkpt lat="41.9074220" lon="-2.9372080">
        <ele>1443.9</ele>
        <time>2022-02-08T09:37:52Z</time>
      </trkpt>
      <trkpt lat="41.9073980" lon="-2.9372080">
        <ele>1444.0</ele>
        <time>2022-02-08T09:37:53Z</time>
      </trkpt>
      <trkpt lat="41.9073730" lon="-2.9372080">
        <ele>1444.1</ele>
        <time>2022-02-08T09:37:54Z</time>
      </trkpt>
      <trkpt lat="41.9073500" lon="-2.9372050">
        <ele>1444.2</ele>
        <time>2022-02-08T09:37:55Z</time>
      </trkpt>
      <trkpt lat="41.9073270" lon="-2.9372050">
        <ele>1444.2</ele>
        <time>2022-02-08T09:37:56Z</time>
      </trkpt>
      <trkpt lat="41.9073050" lon="-2.9372050">
        <ele>1444.3</ele>
        <time>2022-02-08T09:37:57Z</time>
      </trkpt>
      <trkpt lat="41.9072830" lon="-2.9372030">
        <ele>1444.4</ele>
        <time>2022-02-08T09:37:58Z</time>
      </trkpt>
      <trkpt lat="41.9072600" lon="-2.9372020">
        <ele>1444.5</ele>
        <time>2022-02-08T09:37:59Z</time>
      </trkpt>
      <trkpt lat="41.9072380" lon="-2.9371980">
        <ele>1444.5</ele>
        <time>2022-02-08T09:38:00Z</time>
      </trkpt>
      <trkpt lat="41.9072170" lon="-2.9372000">
        <ele>1444.6</ele>
        <time>2022-02-08T09:38:01Z</time>
      </trkpt>
      <trkpt lat="41.9071970" lon="-2.9372030">
        <ele>1444.7</ele>
        <time>2022-02-08T09:38:02Z</time>
      </trkpt>
      <trkpt lat="41.9071750" lon="-2.9372100">
        <ele>1444.7</ele>
        <time>2022-02-08T09:38:03Z</time>
      </trkpt>
      <trkpt lat="41.9071520" lon="-2.9372200">
        <ele>1444.8</ele>
        <time>2022-02-08T09:38:04Z</time>
      </trkpt>
      <trkpt lat="41.9071300" lon="-2.9372330">
        <ele>1444.8</ele>
        <time>2022-02-08T09:38:05Z</time>
      </trkpt>
      <trkpt lat="41.9071080" lon="-2.9372500">
        <ele>1444.8</ele>
        <time>2022-02-08T09:38:06Z</time>
      </trkpt>
      <trkpt lat="41.9070870" lon="-2.9372680">
        <ele>1444.9</ele>
        <time>2022-02-08T09:38:07Z</time>
      </trkpt>
      <trkpt lat="41.9070680" lon="-2.9372830">
        <ele>1444.9</ele>
        <time>2022-02-08T09:38:08Z</time>
      </trkpt>
      <trkpt lat="41.9070500" lon="-2.9372970">
        <ele>1444.9</ele>
        <time>2022-02-08T09:38:09Z</time>
      </trkpt>
      <trkpt lat="41.9070300" lon="-2.9373050">
        <ele>1445.0</ele>
        <time>2022-02-08T09:38:10Z</time>
      </trkpt>
      <trkpt lat="41.9070100" lon="-2.9373100">
        <ele>1445.0</ele>
        <time>2022-02-08T09:38:11Z</time>
      </trkpt>
      <trkpt lat="41.9069880" lon="-2.9373070">
        <ele>1445.0</ele>
        <time>2022-02-08T09:38:12Z</time>
      </trkpt>
      <trkpt lat="41.9069680" lon="-2.9373000">
        <ele>1445.1</ele>
        <time>2022-02-08T09:38:13Z</time>
      </trkpt>
      <trkpt lat="41.9069450" lon="-2.9372920">
        <ele>1445.1</ele>
        <time>2022-02-08T09:38:14Z</time>
      </trkpt>
      <trkpt lat="41.9069220" lon="-2.9372830">
        <ele>1445.1</ele>
        <time>2022-02-08T09:38:15Z</time>
      </trkpt>
      <trkpt lat="41.9068970" lon="-2.9372750">
        <ele>1445.2</ele>
        <time>2022-02-08T09:38:16Z</time>
      </trkpt>
      <trkpt lat="41.9068700" lon="-2.9372720">
        <ele>1445.2</ele>
        <time>2022-02-08T09:38:17Z</time>
      </trkpt>
      <trkpt lat="41.9068450" lon="-2.9372700">
        <ele>1445.3</ele>
        <time>2022-02-08T09:38:18Z</time>
      </trkpt>
      <trkpt lat="41.9068170" lon="-2.9372680">
        <ele>1445.3</ele>
        <time>2022-02-08T09:38:19Z</time>
      </trkpt>
      <trkpt lat="41.9067870" lon="-2.9372670">
        <ele>1445.4</ele>
        <time>2022-02-08T09:38:20Z</time>
      </trkpt>
      <trkpt lat="41.9067530" lon="-2.9372650">
        <ele>1445.4</ele>
        <time>2022-02-08T09:38:21Z</time>
      </trkpt>
      <trkpt lat="41.9067230" lon="-2.9372600">
        <ele>1445.5</ele>
        <time>2022-02-08T09:38:22Z</time>
      </trkpt>
      <trkpt lat="41.9066920" lon="-2.9372520">
        <ele>1445.6</ele>
        <time>2022-02-08T09:38:23Z</time>
      </trkpt>
      <trkpt lat="41.9066580" lon="-2.9372450">
        <ele>1445.6</ele>
        <time>2022-02-08T09:38:24Z</time>
      </trkpt>
      <trkpt lat="41.9066250" lon="-2.9372430">
        <ele>1445.7</ele>
        <time>2022-02-08T09:38:25Z</time>
      </trkpt>
      <trkpt lat="41.9065930" lon="-2.9372470">
        <ele>1445.8</ele>
        <time>2022-02-08T09:38:26Z</time>
      </trkpt>
      <trkpt lat="41.9065650" lon="-2.9372520">
        <ele>1445.8</ele>
        <time>2022-02-08T09:38:27Z</time>
      </trkpt>
      <trkpt lat="41.9065350" lon="-2.9372620">
        <ele>1445.9</ele>
        <time>2022-02-08T09:38:28Z</time>
      </trkpt>
      <trkpt lat="41.9065080" lon="-2.9372750">
        <ele>1445.9</ele>
        <time>2022-02-08T09:38:29Z</time>
      </trkpt>
      <trkpt lat="41.9064820" lon="-2.9372920">
        <ele>1446.0</ele>
        <time>2022-02-08T09:38:30Z</time>
      </trkpt>
      <trkpt lat="41.9064550" lon="-2.9373100">
        <ele>1446.0</ele>
        <time>2022-02-08T09:38:31Z</time>
      </trkpt>
      <trkpt lat="41.9064300" lon="-2.9373300">
        <ele>1446.1</ele>
        <time>2022-02-08T09:38:32Z</time>
      </trkpt>
      <trkpt lat="41.9064050" lon="-2.9373500">
        <ele>1446.1</ele>
        <time>2022-02-08T09:38:33Z</time>
      </trkpt>
      <trkpt lat="41.9063800" lon="-2.9373720">
        <ele>1446.1</ele>
        <time>2022-02-08T09:38:34Z</time>
      </trkpt>
      <trkpt lat="41.9063500" lon="-2.9373920">
        <ele>1446.1</ele>
        <time>2022-02-08T09:38:35Z</time>
      </trkpt>
      <trkpt lat="41.9063200" lon="-2.9374070">
        <ele>1446.2</ele>
        <time>2022-02-08T09:38:36Z</time>
      </trkpt>
      <trkpt lat="41.9062870" lon="-2.9374180">
        <ele>1446.2</ele>
        <time>2022-02-08T09:38:37Z</time>
      </trkpt>
      <trkpt lat="41.9062520" lon="-2.9374320">
        <ele>1446.3</ele>
        <time>2022-02-08T09:38:38Z</time>
      </trkpt>
      <trkpt lat="41.9062180" lon="-2.9374420">
        <ele>1446.4</ele>
        <time>2022-02-08T09:38:39Z</time>
      </trkpt>
      <trkpt lat="41.9061870" lon="-2.9374520">
        <ele>1446.4</ele>
        <time>2022-02-08T09:38:40Z</time>
      </trkpt>
      <trkpt lat="41.9061550" lon="-2.9374620">
        <ele>1446.5</ele>
        <time>2022-02-08T09:38:41Z</time>
      </trkpt>
      <trkpt lat="41.9061230" lon="-2.9374680">
        <ele>1446.6</ele>
        <time>2022-02-08T09:38:42Z</time>
      </trkpt>
      <trkpt lat="41.9060920" lon="-2.9374770">
        <ele>1446.6</ele>
        <time>2022-02-08T09:38:43Z</time>
      </trkpt>
      <trkpt lat="41.9060600" lon="-2.9374820">
        <ele>1446.7</ele>
        <time>2022-02-08T09:38:44Z</time>
      </trkpt>
      <trkpt lat="41.9060270" lon="-2.9374870">
        <ele>1446.8</ele>
        <time>2022-02-08T09:38:45Z</time>
      </trkpt>
      <trkpt lat="41.9059920" lon="-2.9374920">
        <ele>1446.9</ele>
        <time>2022-02-08T09:38:46Z</time>
      </trkpt>
      <trkpt lat="41.9059570" lon="-2.9374980">
        <ele>1447.0</ele>
        <time>2022-02-08T09:38:47Z</time>
      </trkpt>
      <trkpt lat="41.9059230" lon="-2.9375050">
        <ele>1447.0</ele>
        <time>2022-02-08T09:38:48Z</time>
      </trkpt>
      <trkpt lat="41.9058900" lon="-2.9375100">
        <ele>1447.1</ele>
        <time>2022-02-08T09:38:49Z</time>
      </trkpt>
      <trkpt lat="41.9058570" lon="-2.9375150">
        <ele>1447.2</ele>
        <time>2022-02-08T09:38:50Z</time>
      </trkpt>
      <trkpt lat="41.9058250" lon="-2.9375180">
        <ele>1447.3</ele>
        <time>2022-02-08T09:38:51Z</time>
      </trkpt>
      <trkpt lat="41.9057950" lon="-2.9375220">
        <ele>1447.4</ele>
        <time>2022-02-08T09:38:52Z</time>
      </trkpt>
      <trkpt lat="41.9057650" lon="-2.9375250">
        <ele>1447.5</ele>
        <time>2022-02-08T09:38:53Z</time>
      </trkpt>
      <trkpt lat="41.9057330" lon="-2.9375300">
        <ele>1447.5</ele>
        <time>2022-02-08T09:38:54Z</time>
      </trkpt>
      <trkpt lat="41.9057030" lon="-2.9375370">
        <ele>1447.6</ele>
        <time>2022-02-08T09:38:55Z</time>
      </trkpt>
      <trkpt lat="41.9056720" lon="-2.9375450">
        <ele>1447.7</ele>
        <time>2022-02-08T09:38:56Z</time>
      </trkpt>
      <trkpt lat="41.9056400" lon="-2.9375500">
        <ele>1447.8</ele>
        <time>2022-02-08T09:38:57Z</time>
      </trkpt>
      <trkpt lat="41.9056070" lon="-2.9375530">
        <ele>1447.9</ele>
        <time>2022-02-08T09:38:58Z</time>
      </trkpt>
      <trkpt lat="41.9055730" lon="-2.9375580">
        <ele>1448.0</ele>
        <time>2022-02-08T09:38:59Z</time>
      </trkpt>
      <trkpt lat="41.9055400" lon="-2.9375630">
        <ele>1448.0</ele>
        <time>2022-02-08T09:39:00Z</time>
      </trkpt>
      <trkpt lat="41.9055070" lon="-2.9375650">
        <ele>1448.1</ele>
        <time>2022-02-08T09:39:01Z</time>
      </trkpt>
      <trkpt lat="41.9054750" lon="-2.9375650">
        <ele>1448.2</ele>
        <time>2022-02-08T09:39:02Z</time>
      </trkpt>
      <trkpt lat="41.9054450" lon="-2.9375700">
        <ele>1448.2</ele>
        <time>2022-02-08T09:39:03Z</time>
      </trkpt>
      <trkpt lat="41.9054120" lon="-2.9375770">
        <ele>1448.3</ele>
        <time>2022-02-08T09:39:04Z</time>
      </trkpt>
      <trkpt lat="41.9053770" lon="-2.9375870">
        <ele>1448.3</ele>
        <time>2022-02-08T09:39:05Z</time>
      </trkpt>
      <trkpt lat="41.9053420" lon="-2.9375950">
        <ele>1448.4</ele>
        <time>2022-02-08T09:39:06Z</time>
      </trkpt>
      <trkpt lat="41.9053070" lon="-2.9376050">
        <ele>1448.4</ele>
        <time>2022-02-08T09:39:07Z</time>
      </trkpt>
      <trkpt lat="41.9052720" lon="-2.9376150">
        <ele>1448.5</ele>
        <time>2022-02-08T09:39:08Z</time>
      </trkpt>
      <trkpt lat="41.9052380" lon="-2.9376230">
        <ele>1448.5</ele>
        <time>2022-02-08T09:39:09Z</time>
      </trkpt>
      <trkpt lat="41.9052080" lon="-2.9376300">
        <ele>1448.5</ele>
        <time>2022-02-08T09:39:10Z</time>
      </trkpt>
      <trkpt lat="41.9051780" lon="-2.9376330">
        <ele>1448.5</ele>
        <time>2022-02-08T09:39:11Z</time>
      </trkpt>
      <trkpt lat="41.9051500" lon="-2.9376350">
        <ele>1448.6</ele>
        <time>2022-02-08T09:39:12Z</time>
      </trkpt>
      <trkpt lat="41.9051220" lon="-2.9376350">
        <ele>1448.6</ele>
        <time>2022-02-08T09:39:13Z</time>
      </trkpt>
      <trkpt lat="41.9050950" lon="-2.9376330">
        <ele>1448.6</ele>
        <time>2022-02-08T09:39:14Z</time>
      </trkpt>
      <trkpt lat="41.9050680" lon="-2.9376300">
        <ele>1448.7</ele>
        <time>2022-02-08T09:39:15Z</time>
      </trkpt>
      <trkpt lat="41.9050420" lon="-2.9376250">
        <ele>1448.7</ele>
        <time>2022-02-08T09:39:16Z</time>
      </trkpt>
      <trkpt lat="41.9050150" lon="-2.9376230">
        <ele>1448.7</ele>
        <time>2022-02-08T09:39:17Z</time>
      </trkpt>
      <trkpt lat="41.9049880" lon="-2.9376250">
        <ele>1448.8</ele>
        <time>2022-02-08T09:39:18Z</time>
      </trkpt>
      <trkpt lat="41.9049620" lon="-2.9376270">
        <ele>1448.8</ele>
        <time>2022-02-08T09:39:19Z</time>
      </trkpt>
      <trkpt lat="41.9049330" lon="-2.9376270">
        <ele>1448.9</ele>
        <time>2022-02-08T09:39:20Z</time>
      </trkpt>
      <trkpt lat="41.9049030" lon="-2.9376320">
        <ele>1448.9</ele>
        <time>2022-02-08T09:39:21Z</time>
      </trkpt>
      <trkpt lat="41.9048750" lon="-2.9376400">
        <ele>1449.0</ele>
        <time>2022-02-08T09:39:22Z</time>
      </trkpt>
      <trkpt lat="41.9048450" lon="-2.9376520">
        <ele>1449.0</ele>
        <time>2022-02-08T09:39:23Z</time>
      </trkpt>
      <trkpt lat="41.9048170" lon="-2.9376620">
        <ele>1449.1</ele>
        <time>2022-02-08T09:39:24Z</time>
      </trkpt>
      <trkpt lat="41.9047900" lon="-2.9376700">
        <ele>1449.1</ele>
        <time>2022-02-08T09:39:25Z</time>
      </trkpt>
      <trkpt lat="41.9047650" lon="-2.9376820">
        <ele>1449.1</ele>
        <time>2022-02-08T09:39:26Z</time>
      </trkpt>
      <trkpt lat="41.9047470" lon="-2.9376950">
        <ele>1449.2</ele>
        <time>2022-02-08T09:39:27Z</time>
      </trkpt>
      <trkpt lat="41.9047280" lon="-2.9377050">
        <ele>1449.2</ele>
        <time>2022-02-08T09:39:28Z</time>
      </trkpt>
      <trkpt lat="41.9047150" lon="-2.9377120">
        <ele>1449.2</ele>
        <time>2022-02-08T09:40:42Z</time>
      </trkpt>
      <trkpt lat="41.9047230" lon="-2.9377000">
        <ele>1449.2</ele>
        <time>2022-02-08T09:40:43Z</time>
      </trkpt>
      <trkpt lat="41.9047270" lon="-2.9376970">
        <ele>1449.2</ele>
        <time>2022-02-08T09:40:44Z</time>
      </trkpt>
      <trkpt lat="41.9047370" lon="-2.9376730">
        <ele>1449.2</ele>
        <time>2022-02-08T09:40:45Z</time>
      </trkpt>
      <trkpt lat="41.9047400" lon="-2.9376450">
        <ele>1449.2</ele>
        <time>2022-02-08T09:40:46Z</time>
      </trkpt>
      <trkpt lat="41.9047400" lon="-2.9376120">
        <ele>1449.3</ele>
        <time>2022-02-08T09:40:47Z</time>
      </trkpt>
      <trkpt lat="41.9047370" lon="-2.9375870">
        <ele>1449.3</ele>
        <time>2022-02-08T09:40:48Z</time>
      </trkpt>
      <trkpt lat="41.9047330" lon="-2.9375670">
        <ele>1449.3</ele>
        <time>2022-02-08T09:41:43Z</time>
      </trkpt>
      <trkpt lat="41.9047400" lon="-2.9375530">
        <ele>1449.3</ele>
        <time>2022-02-08T09:41:44Z</time>
      </trkpt>
      <trkpt lat="41.9047400" lon="-2.9375530">
        <ele>1449.3</ele>
        <time>2022-02-08T09:41:45Z</time>
      </trkpt>
      <trkpt lat="41.9047380" lon="-2.9375480">
        <ele>1449.3</ele>
        <time>2022-02-08T09:41:46Z</time>
      </trkpt>
      <trkpt lat="41.9047220" lon="-2.9375230">
        <ele>1449.3</ele>
        <time>2022-02-08T09:41:47Z</time>
      </trkpt>
      <trkpt lat="41.9047020" lon="-2.9374970">
        <ele>1449.4</ele>
        <time>2022-02-08T09:41:48Z</time>
      </trkpt>
      <trkpt lat="41.9046800" lon="-2.9374700">
        <ele>1449.4</ele>
        <time>2022-02-08T09:41:49Z</time>
      </trkpt>
      <trkpt lat="41.9046550" lon="-2.9374420">
        <ele>1449.4</ele>
        <time>2022-02-08T09:41:50Z</time>
      </trkpt>
      <trkpt lat="41.9046270" lon="-2.9374130">
        <ele>1449.4</ele>
        <time>2022-02-08T09:41:51Z</time>
      </trkpt>
      <trkpt lat="41.9045980" lon="-2.9373830">
        <ele>1449.4</ele>
        <time>2022-02-08T09:41:52Z</time>
      </trkpt>
      <trkpt lat="41.9045720" lon="-2.9373480">
        <ele>1449.4</ele>
        <time>2022-02-08T09:41:53Z</time>
      </trkpt>
      <trkpt lat="41.9045470" lon="-2.9373080">
        <ele>1449.4</ele>
        <time>2022-02-08T09:41:54Z</time>
      </trkpt>
      <trkpt lat="41.9045230" lon="-2.9372620">
        <ele>1449.4</ele>
        <time>2022-02-08T09:41:55Z</time>
      </trkpt>
      <trkpt lat="41.9045030" lon="-2.9372200">
        <ele>1449.3</ele>
        <time>2022-02-08T09:41:56Z</time>
      </trkpt>
      <trkpt lat="41.9044850" lon="-2.9371780">
        <ele>1449.3</ele>
        <time>2022-02-08T09:41:57Z</time>
      </trkpt>
      <trkpt lat="41.9044670" lon="-2.9371350">
        <ele>1449.2</ele>
        <time>2022-02-08T09:41:58Z</time>
      </trkpt>
      <trkpt lat="41.9044470" lon="-2.9370870">
        <ele>1449.2</ele>
        <time>2022-02-08T09:41:59Z</time>
      </trkpt>
      <trkpt lat="41.9044220" lon="-2.9370320">
        <ele>1449.2</ele>
        <time>2022-02-08T09:42:00Z</time>
      </trkpt>
      <trkpt lat="41.9043950" lon="-2.9369770">
        <ele>1449.1</ele>
        <time>2022-02-08T09:42:01Z</time>
      </trkpt>
      <trkpt lat="41.9043670" lon="-2.9369220">
        <ele>1449.1</ele>
        <time>2022-02-08T09:42:02Z</time>
      </trkpt>
      <trkpt lat="41.9043380" lon="-2.9368680">
        <ele>1449.2</ele>
        <time>2022-02-08T09:42:03Z</time>
      </trkpt>
      <trkpt lat="41.9043150" lon="-2.9368150">
        <ele>1449.2</ele>
        <time>2022-02-08T09:42:04Z</time>
      </trkpt>
      <trkpt lat="41.9042930" lon="-2.9367670">
        <ele>1449.2</ele>
        <time>2022-02-08T09:42:05Z</time>
      </trkpt>
      <trkpt lat="41.9042720" lon="-2.9367230">
        <ele>1449.2</ele>
        <time>2022-02-08T09:42:06Z</time>
      </trkpt>
      <trkpt lat="41.9042520" lon="-2.9366830">
        <ele>1449.2</ele>
        <time>2022-02-08T09:42:07Z</time>
      </trkpt>
      <trkpt lat="41.9042350" lon="-2.9366400">
        <ele>1449.2</ele>
        <time>2022-02-08T09:42:08Z</time>
      </trkpt>
      <trkpt lat="41.9042200" lon="-2.9365920">
        <ele>1449.1</ele>
        <time>2022-02-08T09:42:09Z</time>
      </trkpt>
      <trkpt lat="41.9042050" lon="-2.9365430">
        <ele>1449.1</ele>
        <time>2022-02-08T09:42:10Z</time>
      </trkpt>
      <trkpt lat="41.9041930" lon="-2.9364930">
        <ele>1449.1</ele>
        <time>2022-02-08T09:42:11Z</time>
      </trkpt>
      <trkpt lat="41.9041800" lon="-2.9364430">
        <ele>1449.1</ele>
        <time>2022-02-08T09:42:12Z</time>
      </trkpt>
      <trkpt lat="41.9041630" lon="-2.9363950">
        <ele>1449.1</ele>
        <time>2022-02-08T09:42:13Z</time>
      </trkpt>
      <trkpt lat="41.9041430" lon="-2.9363470">
        <ele>1449.1</ele>
        <time>2022-02-08T09:42:14Z</time>
      </trkpt>
      <trkpt lat="41.9041220" lon="-2.9362970">
        <ele>1449.0</ele>
        <time>2022-02-08T09:42:15Z</time>
      </trkpt>
      <trkpt lat="41.9041000" lon="-2.9362450">
        <ele>1449.0</ele>
        <time>2022-02-08T09:42:16Z</time>
      </trkpt>
      <trkpt lat="41.9040800" lon="-2.9361900">
        <ele>1449.0</ele>
        <time>2022-02-08T09:42:17Z</time>
      </trkpt>
      <trkpt lat="41.9040600" lon="-2.9361320">
        <ele>1449.0</ele>
        <time>2022-02-08T09:42:18Z</time>
      </trkpt>
      <trkpt lat="41.9040400" lon="-2.9360720">
        <ele>1449.0</ele>
        <time>2022-02-08T09:42:19Z</time>
      </trkpt>
      <trkpt lat="41.9040170" lon="-2.9360120">
        <ele>1449.0</ele>
        <time>2022-02-08T09:42:20Z</time>
      </trkpt>
      <trkpt lat="41.9039930" lon="-2.9359500">
        <ele>1449.0</ele>
        <time>2022-02-08T09:42:21Z</time>
      </trkpt>
      <trkpt lat="41.9039700" lon="-2.9358880">
        <ele>1449.0</ele>
        <time>2022-02-08T09:42:22Z</time>
      </trkpt>
      <trkpt lat="41.9039470" lon="-2.9358230">
        <ele>1449.0</ele>
        <time>2022-02-08T09:42:23Z</time>
      </trkpt>
      <trkpt lat="41.9039280" lon="-2.9357570">
        <ele>1449.1</ele>
        <time>2022-02-08T09:42:24Z</time>
      </trkpt>
      <trkpt lat="41.9039170" lon="-2.9356920">
        <ele>1449.2</ele>
        <time>2022-02-08T09:42:25Z</time>
      </trkpt>
      <trkpt lat="41.9039130" lon="-2.9356300">
        <ele>1449.3</ele>
        <time>2022-02-08T09:42:26Z</time>
      </trkpt>
      <trkpt lat="41.9039180" lon="-2.9355700">
        <ele>1449.4</ele>
        <time>2022-02-08T09:42:27Z</time>
      </trkpt>
      <trkpt lat="41.9039250" lon="-2.9355130">
        <ele>1449.5</ele>
        <time>2022-02-08T09:42:28Z</time>
      </trkpt>
      <trkpt lat="41.9039330" lon="-2.9354600">
        <ele>1449.6</ele>
        <time>2022-02-08T09:42:29Z</time>
      </trkpt>
      <trkpt lat="41.9039370" lon="-2.9354080">
        <ele>1449.7</ele>
        <time>2022-02-08T09:42:30Z</time>
      </trkpt>
      <trkpt lat="41.9039320" lon="-2.9353600">
        <ele>1449.8</ele>
        <time>2022-02-08T09:42:31Z</time>
      </trkpt>
      <trkpt lat="41.9039230" lon="-2.9353100">
        <ele>1449.8</ele>
        <time>2022-02-08T09:42:32Z</time>
      </trkpt>
      <trkpt lat="41.9039130" lon="-2.9352630">
        <ele>1449.9</ele>
        <time>2022-02-08T09:42:33Z</time>
      </trkpt>
      <trkpt lat="41.9039070" lon="-2.9352270">
        <ele>1449.9</ele>
        <time>2022-02-08T09:42:34Z</time>
      </trkpt>
      <trkpt lat="41.9039000" lon="-2.9351950">
        <ele>1449.9</ele>
        <time>2022-02-08T09:42:35Z</time>
      </trkpt>
      <trkpt lat="41.9038920" lon="-2.9351630">
        <ele>1449.9</ele>
        <time>2022-02-08T09:42:36Z</time>
      </trkpt>
      <trkpt lat="41.9038820" lon="-2.9351280">
        <ele>1449.9</ele>
        <time>2022-02-08T09:42:37Z</time>
      </trkpt>
      <trkpt lat="41.9038670" lon="-2.9350920">
        <ele>1449.9</ele>
        <time>2022-02-08T09:42:38Z</time>
      </trkpt>
      <trkpt lat="41.9038520" lon="-2.9350470">
        <ele>1449.8</ele>
        <time>2022-02-08T09:42:39Z</time>
      </trkpt>
      <trkpt lat="41.9038430" lon="-2.9349970">
        <ele>1449.8</ele>
        <time>2022-02-08T09:42:40Z</time>
      </trkpt>
      <trkpt lat="41.9038430" lon="-2.9349370">
        <ele>1449.7</ele>
        <time>2022-02-08T09:42:41Z</time>
      </trkpt>
      <trkpt lat="41.9038480" lon="-2.9348680">
        <ele>1449.5</ele>
        <time>2022-02-08T09:42:42Z</time>
      </trkpt>
      <trkpt lat="41.9038550" lon="-2.9347930">
        <ele>1449.4</ele>
        <time>2022-02-08T09:42:43Z</time>
      </trkpt>
      <trkpt lat="41.9038550" lon="-2.9347130">
        <ele>1449.2</ele>
        <time>2022-02-08T09:42:44Z</time>
      </trkpt>
      <trkpt lat="41.9038380" lon="-2.9346430">
        <ele>1449.1</ele>
        <time>2022-02-08T09:42:45Z</time>
      </trkpt>
      <trkpt lat="41.9038070" lon="-2.9345880">
        <ele>1448.9</ele>
        <time>2022-02-08T09:42:46Z</time>
      </trkpt>
      <trkpt lat="41.9037680" lon="-2.9345400">
        <ele>1448.7</ele>
        <time>2022-02-08T09:42:47Z</time>
      </trkpt>
      <trkpt lat="41.9037320" lon="-2.9344920">
        <ele>1448.5</ele>
        <time>2022-02-08T09:42:48Z</time>
      </trkpt>
      <trkpt lat="41.9037100" lon="-2.9344370">
        <ele>1448.3</ele>
        <time>2022-02-08T09:42:49Z</time>
      </trkpt>
      <trkpt lat="41.9036980" lon="-2.9343800">
        <ele>1448.0</ele>
        <time>2022-02-08T09:42:50Z</time>
      </trkpt>
      <trkpt lat="41.9036930" lon="-2.9343200">
        <ele>1447.8</ele>
        <time>2022-02-08T09:42:51Z</time>
      </trkpt>
      <trkpt lat="41.9036800" lon="-2.9342600">
        <ele>1447.6</ele>
        <time>2022-02-08T09:42:52Z</time>
      </trkpt>
      <trkpt lat="41.9036630" lon="-2.9341980">
        <ele>1447.3</ele>
        <time>2022-02-08T09:42:53Z</time>
      </trkpt>
      <trkpt lat="41.9036450" lon="-2.9341270">
        <ele>1447.1</ele>
        <time>2022-02-08T09:42:54Z</time>
      </trkpt>
      <trkpt lat="41.9036230" lon="-2.9340520">
        <ele>1446.9</ele>
        <time>2022-02-08T09:42:55Z</time>
      </trkpt>
      <trkpt lat="41.9036020" lon="-2.9339820">
        <ele>1446.7</ele>
        <time>2022-02-08T09:42:56Z</time>
      </trkpt>
      <trkpt lat="41.9035820" lon="-2.9339100">
        <ele>1446.5</ele>
        <time>2022-02-08T09:42:57Z</time>
      </trkpt>
      <trkpt lat="41.9035680" lon="-2.9338380">
        <ele>1446.4</ele>
        <time>2022-02-08T09:42:58Z</time>
      </trkpt>
      <trkpt lat="41.9035600" lon="-2.9337530">
        <ele>1446.2</ele>
        <time>2022-02-08T09:42:59Z</time>
      </trkpt>
      <trkpt lat="41.9035550" lon="-2.9336720">
        <ele>1446.1</ele>
        <time>2022-02-08T09:43:00Z</time>
      </trkpt>
      <trkpt lat="41.9035480" lon="-2.9335900">
        <ele>1446.1</ele>
        <time>2022-02-08T09:43:01Z</time>
      </trkpt>
      <trkpt lat="41.9035380" lon="-2.9335120">
        <ele>1446.0</ele>
        <time>2022-02-08T09:43:02Z</time>
      </trkpt>
      <trkpt lat="41.9035300" lon="-2.9334350">
        <ele>1446.1</ele>
        <time>2022-02-08T09:43:03Z</time>
      </trkpt>
      <trkpt lat="41.9035250" lon="-2.9333620">
        <ele>1446.1</ele>
        <time>2022-02-08T09:43:04Z</time>
      </trkpt>
      <trkpt lat="41.9035220" lon="-2.9332950">
        <ele>1446.1</ele>
        <time>2022-02-08T09:43:05Z</time>
      </trkpt>
      <trkpt lat="41.9035130" lon="-2.9332370">
        <ele>1446.2</ele>
        <time>2022-02-08T09:43:06Z</time>
      </trkpt>
      <trkpt lat="41.9035080" lon="-2.9331830">
        <ele>1446.2</ele>
        <time>2022-02-08T09:43:07Z</time>
      </trkpt>
      <trkpt lat="41.9035080" lon="-2.9331280">
        <ele>1446.1</ele>
        <time>2022-02-08T09:43:08Z</time>
      </trkpt>
      <trkpt lat="41.9035100" lon="-2.9330780">
        <ele>1446.0</ele>
        <time>2022-02-08T09:43:09Z</time>
      </trkpt>
      <trkpt lat="41.9035070" lon="-2.9330280">
        <ele>1445.9</ele>
        <time>2022-02-08T09:43:10Z</time>
      </trkpt>
      <trkpt lat="41.9035000" lon="-2.9329730">
        <ele>1445.7</ele>
        <time>2022-02-08T09:43:11Z</time>
      </trkpt>
      <trkpt lat="41.9034930" lon="-2.9329100">
        <ele>1445.5</ele>
        <time>2022-02-08T09:43:12Z</time>
      </trkpt>
      <trkpt lat="41.9034950" lon="-2.9328420">
        <ele>1445.2</ele>
        <time>2022-02-08T09:43:13Z</time>
      </trkpt>
      <trkpt lat="41.9034950" lon="-2.9327680">
        <ele>1444.9</ele>
        <time>2022-02-08T09:43:14Z</time>
      </trkpt>
      <trkpt lat="41.9034880" lon="-2.9326970">
        <ele>1444.7</ele>
        <time>2022-02-08T09:43:15Z</time>
      </trkpt>
      <trkpt lat="41.9034820" lon="-2.9326230">
        <ele>1444.4</ele>
        <time>2022-02-08T09:43:16Z</time>
      </trkpt>
      <trkpt lat="41.9034800" lon="-2.9325470">
        <ele>1444.1</ele>
        <time>2022-02-08T09:43:17Z</time>
      </trkpt>
      <trkpt lat="41.9034850" lon="-2.9324720">
        <ele>1443.9</ele>
        <time>2022-02-08T09:43:18Z</time>
      </trkpt>
      <trkpt lat="41.9034900" lon="-2.9323950">
        <ele>1443.6</ele>
        <time>2022-02-08T09:43:19Z</time>
      </trkpt>
      <trkpt lat="41.9034900" lon="-2.9323170">
        <ele>1443.4</ele>
        <time>2022-02-08T09:43:20Z</time>
      </trkpt>
      <trkpt lat="41.9034830" lon="-2.9322370">
        <ele>1443.2</ele>
        <time>2022-02-08T09:43:21Z</time>
      </trkpt>
      <trkpt lat="41.9034720" lon="-2.9321570">
        <ele>1443.1</ele>
        <time>2022-02-08T09:43:22Z</time>
      </trkpt>
      <trkpt lat="41.9034580" lon="-2.9320870">
        <ele>1442.9</ele>
        <time>2022-02-08T09:43:23Z</time>
      </trkpt>
      <trkpt lat="41.9034480" lon="-2.9320270">
        <ele>1442.7</ele>
        <time>2022-02-08T09:43:24Z</time>
      </trkpt>
      <trkpt lat="41.9034370" lon="-2.9319680">
        <ele>1442.5</ele>
        <time>2022-02-08T09:43:25Z</time>
      </trkpt>
      <trkpt lat="41.9034270" lon="-2.9319050">
        <ele>1442.2</ele>
        <time>2022-02-08T09:43:26Z</time>
      </trkpt>
      <trkpt lat="41.9034200" lon="-2.9318370">
        <ele>1441.9</ele>
        <time>2022-02-08T09:43:27Z</time>
      </trkpt>
      <trkpt lat="41.9034200" lon="-2.9317700">
        <ele>1441.5</ele>
        <time>2022-02-08T09:43:28Z</time>
      </trkpt>
      <trkpt lat="41.9034230" lon="-2.9317030">
        <ele>1441.1</ele>
        <time>2022-02-08T09:43:29Z</time>
      </trkpt>
      <trkpt lat="41.9034200" lon="-2.9316420">
        <ele>1440.8</ele>
        <time>2022-02-08T09:43:30Z</time>
      </trkpt>
      <trkpt lat="41.9034050" lon="-2.9315850">
        <ele>1440.4</ele>
        <time>2022-02-08T09:43:31Z</time>
      </trkpt>
      <trkpt lat="41.9033820" lon="-2.9315320">
        <ele>1440.0</ele>
        <time>2022-02-08T09:43:32Z</time>
      </trkpt>
      <trkpt lat="41.9033530" lon="-2.9314770">
        <ele>1439.6</ele>
        <time>2022-02-08T09:43:33Z</time>
      </trkpt>
      <trkpt lat="41.9033150" lon="-2.9314180">
        <ele>1439.1</ele>
        <time>2022-02-08T09:43:34Z</time>
      </trkpt>
      <trkpt lat="41.9032700" lon="-2.9313570">
        <ele>1438.6</ele>
        <time>2022-02-08T09:43:35Z</time>
      </trkpt>
      <trkpt lat="41.9032220" lon="-2.9312920">
        <ele>1438.1</ele>
        <time>2022-02-08T09:43:36Z</time>
      </trkpt>
      <trkpt lat="41.9031720" lon="-2.9312280">
        <ele>1437.6</ele>
        <time>2022-02-08T09:43:37Z</time>
      </trkpt>
      <trkpt lat="41.9031180" lon="-2.9311670">
        <ele>1437.0</ele>
        <time>2022-02-08T09:43:38Z</time>
      </trkpt>
      <trkpt lat="41.9030680" lon="-2.9311070">
        <ele>1436.5</ele>
        <time>2022-02-08T09:43:39Z</time>
      </trkpt>
      <trkpt lat="41.9030200" lon="-2.9310470">
        <ele>1435.8</ele>
        <time>2022-02-08T09:43:40Z</time>
      </trkpt>
      <trkpt lat="41.9029730" lon="-2.9309870">
        <ele>1435.1</ele>
        <time>2022-02-08T09:43:41Z</time>
      </trkpt>
      <trkpt lat="41.9029270" lon="-2.9309220">
        <ele>1434.3</ele>
        <time>2022-02-08T09:43:42Z</time>
      </trkpt>
      <trkpt lat="41.9028850" lon="-2.9308430">
        <ele>1433.5</ele>
        <time>2022-02-08T09:43:43Z</time>
      </trkpt>
      <trkpt lat="41.9028480" lon="-2.9307600">
        <ele>1432.8</ele>
        <time>2022-02-08T09:43:44Z</time>
      </trkpt>
      <trkpt lat="41.9028250" lon="-2.9306780">
        <ele>1432.2</ele>
        <time>2022-02-08T09:43:45Z</time>
      </trkpt>
      <trkpt lat="41.9028220" lon="-2.9305980">
        <ele>1431.7</ele>
        <time>2022-02-08T09:43:46Z</time>
      </trkpt>
      <trkpt lat="41.9028400" lon="-2.9305320">
        <ele>1431.3</ele>
        <time>2022-02-08T09:43:47Z</time>
      </trkpt>
      <trkpt lat="41.9028720" lon="-2.9304700">
        <ele>1430.9</ele>
        <time>2022-02-08T09:43:48Z</time>
      </trkpt>
      <trkpt lat="41.9029130" lon="-2.9304120">
        <ele>1430.5</ele>
        <time>2022-02-08T09:43:49Z</time>
      </trkpt>
      <trkpt lat="41.9029570" lon="-2.9303520">
        <ele>1430.0</ele>
        <time>2022-02-08T09:43:50Z</time>
      </trkpt>
      <trkpt lat="41.9029980" lon="-2.9302930">
        <ele>1429.6</ele>
        <time>2022-02-08T09:43:51Z</time>
      </trkpt>
      <trkpt lat="41.9030400" lon="-2.9302370">
        <ele>1429.2</ele>
        <time>2022-02-08T09:43:52Z</time>
      </trkpt>
      <trkpt lat="41.9030700" lon="-2.9301750">
        <ele>1428.7</ele>
        <time>2022-02-08T09:43:53Z</time>
      </trkpt>
      <trkpt lat="41.9030800" lon="-2.9301080">
        <ele>1428.3</ele>
        <time>2022-02-08T09:43:54Z</time>
      </trkpt>
      <trkpt lat="41.9030770" lon="-2.9300320">
        <ele>1427.8</ele>
        <time>2022-02-08T09:43:55Z</time>
      </trkpt>
      <trkpt lat="41.9030680" lon="-2.9299570">
        <ele>1427.3</ele>
        <time>2022-02-08T09:43:56Z</time>
      </trkpt>
      <trkpt lat="41.9030630" lon="-2.9298800">
        <ele>1426.8</ele>
        <time>2022-02-08T09:43:57Z</time>
      </trkpt>
      <trkpt lat="41.9030650" lon="-2.9298050">
        <ele>1426.2</ele>
        <time>2022-02-08T09:43:58Z</time>
      </trkpt>
      <trkpt lat="41.9030650" lon="-2.9297400">
        <ele>1425.7</ele>
        <time>2022-02-08T09:43:59Z</time>
      </trkpt>
      <trkpt lat="41.9030620" lon="-2.9296850">
        <ele>1425.2</ele>
        <time>2022-02-08T09:44:00Z</time>
      </trkpt>
      <trkpt lat="41.9030480" lon="-2.9296400">
        <ele>1424.8</ele>
        <time>2022-02-08T09:44:01Z</time>
      </trkpt>
      <trkpt lat="41.9030200" lon="-2.9296050">
        <ele>1424.3</ele>
        <time>2022-02-08T09:44:02Z</time>
      </trkpt>
      <trkpt lat="41.9029830" lon="-2.9295780">
        <ele>1423.8</ele>
        <time>2022-02-08T09:44:03Z</time>
      </trkpt>
      <trkpt lat="41.9029450" lon="-2.9295530">
        <ele>1423.3</ele>
        <time>2022-02-08T09:44:04Z</time>
      </trkpt>
      <trkpt lat="41.9029070" lon="-2.9295200">
        <ele>1422.9</ele>
        <time>2022-02-08T09:44:05Z</time>
      </trkpt>
      <trkpt lat="41.9028680" lon="-2.9294770">
        <ele>1422.3</ele>
        <time>2022-02-08T09:44:06Z</time>
      </trkpt>
      <trkpt lat="41.9028250" lon="-2.9294250">
        <ele>1421.8</ele>
        <time>2022-02-08T09:44:07Z</time>
      </trkpt>
      <trkpt lat="41.9027920" lon="-2.9293700">
        <ele>1421.2</ele>
        <time>2022-02-08T09:44:08Z</time>
      </trkpt>
      <trkpt lat="41.9027580" lon="-2.9293150">
        <ele>1420.8</ele>
        <time>2022-02-08T09:44:09Z</time>
      </trkpt>
      <trkpt lat="41.9027250" lon="-2.9292600">
        <ele>1420.3</ele>
        <time>2022-02-08T09:44:10Z</time>
      </trkpt>
      <trkpt lat="41.9026980" lon="-2.9292120">
        <ele>1420.0</ele>
        <time>2022-02-08T09:44:11Z</time>
      </trkpt>
      <trkpt lat="41.9026600" lon="-2.9291370">
        <ele>1419.6</ele>
        <time>2022-02-08T09:44:12Z</time>
      </trkpt>
      <trkpt lat="41.9026330" lon="-2.9290650">
        <ele>1419.2</ele>
        <time>2022-02-08T09:44:13Z</time>
      </trkpt>
      <trkpt lat="41.9026150" lon="-2.9289900">
        <ele>1418.9</ele>
        <time>2022-02-08T09:44:14Z</time>
      </trkpt>
      <trkpt lat="41.9025980" lon="-2.9289120">
        <ele>1418.6</ele>
        <time>2022-02-08T09:44:15Z</time>
      </trkpt>
      <trkpt lat="41.9025780" lon="-2.9288380">
        <ele>1418.3</ele>
        <time>2022-02-08T09:44:16Z</time>
      </trkpt>
      <trkpt lat="41.9025580" lon="-2.9287650">
        <ele>1418.0</ele>
        <time>2022-02-08T09:44:17Z</time>
      </trkpt>
      <trkpt lat="41.9025420" lon="-2.9286870">
        <ele>1417.6</ele>
        <time>2022-02-08T09:44:18Z</time>
      </trkpt>
      <trkpt lat="41.9025400" lon="-2.9286050">
        <ele>1417.2</ele>
        <time>2022-02-08T09:44:19Z</time>
      </trkpt>
      <trkpt lat="41.9025450" lon="-2.9285200">
        <ele>1416.8</ele>
        <time>2022-02-08T09:44:20Z</time>
      </trkpt>
      <trkpt lat="41.9025550" lon="-2.9284280">
        <ele>1416.4</ele>
        <time>2022-02-08T09:44:21Z</time>
      </trkpt>
      <trkpt lat="41.9025680" lon="-2.9283300">
        <ele>1415.9</ele>
        <time>2022-02-08T09:44:22Z</time>
      </trkpt>
      <trkpt lat="41.9025830" lon="-2.9282330">
        <ele>1415.4</ele>
        <time>2022-02-08T09:44:23Z</time>
      </trkpt>
      <trkpt lat="41.9026000" lon="-2.9281350">
        <ele>1414.9</ele>
        <time>2022-02-08T09:44:24Z</time>
      </trkpt>
      <trkpt lat="41.9026180" lon="-2.9280380">
        <ele>1414.4</ele>
        <time>2022-02-08T09:44:25Z</time>
      </trkpt>
      <trkpt lat="41.9026350" lon="-2.9279420">
        <ele>1413.8</ele>
        <time>2022-02-08T09:44:26Z</time>
      </trkpt>
      <trkpt lat="41.9026500" lon="-2.9278420">
        <ele>1413.2</ele>
        <time>2022-02-08T09:44:27Z</time>
      </trkpt>
      <trkpt lat="41.9026620" lon="-2.9277370">
        <ele>1412.5</ele>
        <time>2022-02-08T09:44:28Z</time>
      </trkpt>
      <trkpt lat="41.9026750" lon="-2.9276280">
        <ele>1411.8</ele>
        <time>2022-02-08T09:44:29Z</time>
      </trkpt>
      <trkpt lat="41.9026870" lon="-2.9275220">
        <ele>1411.2</ele>
        <time>2022-02-08T09:44:30Z</time>
      </trkpt>
      <trkpt lat="41.9026880" lon="-2.9274130">
        <ele>1410.5</ele>
        <time>2022-02-08T09:44:31Z</time>
      </trkpt>
      <trkpt lat="41.9026850" lon="-2.9273050">
        <ele>1409.8</ele>
        <time>2022-02-08T09:44:32Z</time>
      </trkpt>
      <trkpt lat="41.9026770" lon="-2.9272000">
        <ele>1409.2</ele>
        <time>2022-02-08T09:44:33Z</time>
      </trkpt>
      <trkpt lat="41.9026650" lon="-2.9270980">
        <ele>1408.7</ele>
        <time>2022-02-08T09:44:34Z</time>
      </trkpt>
      <trkpt lat="41.9026620" lon="-2.9269980">
        <ele>1408.1</ele>
        <time>2022-02-08T09:44:35Z</time>
      </trkpt>
      <trkpt lat="41.9026580" lon="-2.9269000">
        <ele>1407.6</ele>
        <time>2022-02-08T09:44:36Z</time>
      </trkpt>
      <trkpt lat="41.9026580" lon="-2.9268020">
        <ele>1407.1</ele>
        <time>2022-02-08T09:44:37Z</time>
      </trkpt>
      <trkpt lat="41.9026530" lon="-2.9267050">
        <ele>1406.7</ele>
        <time>2022-02-08T09:44:38Z</time>
      </trkpt>
      <trkpt lat="41.9026420" lon="-2.9266120">
        <ele>1406.3</ele>
        <time>2022-02-08T09:44:39Z</time>
      </trkpt>
      <trkpt lat="41.9026250" lon="-2.9265200">
        <ele>1405.9</ele>
        <time>2022-02-08T09:44:40Z</time>
      </trkpt>
      <trkpt lat="41.9026080" lon="-2.9264330">
        <ele>1405.6</ele>
        <time>2022-02-08T09:44:41Z</time>
      </trkpt>
      <trkpt lat="41.9025970" lon="-2.9263480">
        <ele>1405.3</ele>
        <time>2022-02-08T09:44:42Z</time>
      </trkpt>
      <trkpt lat="41.9025900" lon="-2.9262650">
        <ele>1405.0</ele>
        <time>2022-02-08T09:44:43Z</time>
      </trkpt>
      <trkpt lat="41.9025850" lon="-2.9261820">
        <ele>1404.7</ele>
        <time>2022-02-08T09:44:44Z</time>
      </trkpt>
      <trkpt lat="41.9025850" lon="-2.9260970">
        <ele>1404.4</ele>
        <time>2022-02-08T09:44:45Z</time>
      </trkpt>
      <trkpt lat="41.9025850" lon="-2.9260100">
        <ele>1404.1</ele>
        <time>2022-02-08T09:44:46Z</time>
      </trkpt>
      <trkpt lat="41.9025820" lon="-2.9259220">
        <ele>1403.8</ele>
        <time>2022-02-08T09:44:47Z</time>
      </trkpt>
      <trkpt lat="41.9025780" lon="-2.9258330">
        <ele>1403.5</ele>
        <time>2022-02-08T09:44:48Z</time>
      </trkpt>
      <trkpt lat="41.9025730" lon="-2.9257430">
        <ele>1403.2</ele>
        <time>2022-02-08T09:44:49Z</time>
      </trkpt>
      <trkpt lat="41.9025680" lon="-2.9256530">
        <ele>1402.9</ele>
        <time>2022-02-08T09:44:50Z</time>
      </trkpt>
      <trkpt lat="41.9025570" lon="-2.9255630">
        <ele>1402.6</ele>
        <time>2022-02-08T09:44:51Z</time>
      </trkpt>
      <trkpt lat="41.9025450" lon="-2.9254720">
        <ele>1402.4</ele>
        <time>2022-02-08T09:44:52Z</time>
      </trkpt>
      <trkpt lat="41.9025280" lon="-2.9253830">
        <ele>1402.1</ele>
        <time>2022-02-08T09:44:53Z</time>
      </trkpt>
      <trkpt lat="41.9025080" lon="-2.9252970">
        <ele>1401.8</ele>
        <time>2022-02-08T09:44:54Z</time>
      </trkpt>
      <trkpt lat="41.9024820" lon="-2.9252170">
        <ele>1401.5</ele>
        <time>2022-02-08T09:44:55Z</time>
      </trkpt>
      <trkpt lat="41.9024520" lon="-2.9251400">
        <ele>1401.2</ele>
        <time>2022-02-08T09:44:56Z</time>
      </trkpt>
      <trkpt lat="41.9024230" lon="-2.9250620">
        <ele>1400.8</ele>
        <time>2022-02-08T09:44:57Z</time>
      </trkpt>
      <trkpt lat="41.9024000" lon="-2.9249800">
        <ele>1400.5</ele>
        <time>2022-02-08T09:44:58Z</time>
      </trkpt>
      <trkpt lat="41.9023780" lon="-2.9248980">
        <ele>1400.2</ele>
        <time>2022-02-08T09:44:59Z</time>
      </trkpt>
      <trkpt lat="41.9023600" lon="-2.9248100">
        <ele>1399.8</ele>
        <time>2022-02-08T09:45:00Z</time>
      </trkpt>
      <trkpt lat="41.9023420" lon="-2.9247220">
        <ele>1399.5</ele>
        <time>2022-02-08T09:45:01Z</time>
      </trkpt>
      <trkpt lat="41.9023250" lon="-2.9246320">
        <ele>1399.2</ele>
        <time>2022-02-08T09:45:02Z</time>
      </trkpt>
      <trkpt lat="41.9023100" lon="-2.9245420">
        <ele>1398.9</ele>
        <time>2022-02-08T09:45:03Z</time>
      </trkpt>
      <trkpt lat="41.9022980" lon="-2.9244520">
        <ele>1398.6</ele>
        <time>2022-02-08T09:45:04Z</time>
      </trkpt>
      <trkpt lat="41.9022870" lon="-2.9243600">
        <ele>1398.3</ele>
        <time>2022-02-08T09:45:05Z</time>
      </trkpt>
      <trkpt lat="41.9022770" lon="-2.9242680">
        <ele>1398.0</ele>
        <time>2022-02-08T09:45:06Z</time>
      </trkpt>
      <trkpt lat="41.9022700" lon="-2.9241730">
        <ele>1397.6</ele>
        <time>2022-02-08T09:45:07Z</time>
      </trkpt>
      <trkpt lat="41.9022630" lon="-2.9240770">
        <ele>1397.2</ele>
        <time>2022-02-08T09:45:08Z</time>
      </trkpt>
      <trkpt lat="41.9022520" lon="-2.9239770">
        <ele>1396.8</ele>
        <time>2022-02-08T09:45:09Z</time>
      </trkpt>
      <trkpt lat="41.9022350" lon="-2.9238780">
        <ele>1396.6</ele>
        <time>2022-02-08T09:45:10Z</time>
      </trkpt>
      <trkpt lat="41.9022100" lon="-2.9237850">
        <ele>1396.5</ele>
        <time>2022-02-08T09:45:11Z</time>
      </trkpt>
      <trkpt lat="41.9021800" lon="-2.9236980">
        <ele>1396.3</ele>
        <time>2022-02-08T09:45:12Z</time>
      </trkpt>
      <trkpt lat="41.9021470" lon="-2.9236200">
        <ele>1396.2</ele>
        <time>2022-02-08T09:45:13Z</time>
      </trkpt>
      <trkpt lat="41.9021120" lon="-2.9235470">
        <ele>1396.1</ele>
        <time>2022-02-08T09:45:14Z</time>
      </trkpt>
      <trkpt lat="41.9020750" lon="-2.9234780">
        <ele>1395.9</ele>
        <time>2022-02-08T09:45:15Z</time>
      </trkpt>
      <trkpt lat="41.9020350" lon="-2.9234120">
        <ele>1395.7</ele>
        <time>2022-02-08T09:45:16Z</time>
      </trkpt>
      <trkpt lat="41.9019920" lon="-2.9233480">
        <ele>1395.5</ele>
        <time>2022-02-08T09:45:17Z</time>
      </trkpt>
      <trkpt lat="41.9019470" lon="-2.9232880">
        <ele>1395.3</ele>
        <time>2022-02-08T09:45:18Z</time>
      </trkpt>
      <trkpt lat="41.9019020" lon="-2.9232320">
        <ele>1395.1</ele>
        <time>2022-02-08T09:45:19Z</time>
      </trkpt>
      <trkpt lat="41.9018570" lon="-2.9231780">
        <ele>1394.9</ele>
        <time>2022-02-08T09:45:20Z</time>
      </trkpt>
      <trkpt lat="41.9018130" lon="-2.9231230">
        <ele>1394.7</ele>
        <time>2022-02-08T09:45:21Z</time>
      </trkpt>
      <trkpt lat="41.9017750" lon="-2.9230620">
        <ele>1394.5</ele>
        <time>2022-02-08T09:45:22Z</time>
      </trkpt>
      <trkpt lat="41.9017400" lon="-2.9229970">
        <ele>1394.2</ele>
        <time>2022-02-08T09:45:23Z</time>
      </trkpt>
      <trkpt lat="41.9017050" lon="-2.9229230">
        <ele>1393.9</ele>
        <time>2022-02-08T09:45:24Z</time>
      </trkpt>
      <trkpt lat="41.9016700" lon="-2.9228520">
        <ele>1393.7</ele>
        <time>2022-02-08T09:45:25Z</time>
      </trkpt>
      <trkpt lat="41.9016320" lon="-2.9227820">
        <ele>1393.4</ele>
        <time>2022-02-08T09:45:26Z</time>
      </trkpt>
      <trkpt lat="41.9015950" lon="-2.9227080">
        <ele>1393.2</ele>
        <time>2022-02-08T09:45:27Z</time>
      </trkpt>
      <trkpt lat="41.9015570" lon="-2.9226330">
        <ele>1393.0</ele>
        <time>2022-02-08T09:45:28Z</time>
      </trkpt>
      <trkpt lat="41.9015150" lon="-2.9225630">
        <ele>1392.7</ele>
        <time>2022-02-08T09:45:29Z</time>
      </trkpt>
      <trkpt lat="41.9014770" lon="-2.9224950">
        <ele>1392.4</ele>
        <time>2022-02-08T09:45:30Z</time>
      </trkpt>
      <trkpt lat="41.9014500" lon="-2.9224300">
        <ele>1392.0</ele>
        <time>2022-02-08T09:45:31Z</time>
      </trkpt>
      <trkpt lat="41.9014400" lon="-2.9223680">
        <ele>1391.5</ele>
        <time>2022-02-08T09:45:32Z</time>
      </trkpt>
      <trkpt lat="41.9014350" lon="-2.9223100">
        <ele>1391.0</ele>
        <time>2022-02-08T09:45:33Z</time>
      </trkpt>
      <trkpt lat="41.9014270" lon="-2.9222570">
        <ele>1390.6</ele>
        <time>2022-02-08T09:45:34Z</time>
      </trkpt>
      <trkpt lat="41.9014100" lon="-2.9222100">
        <ele>1390.1</ele>
        <time>2022-02-08T09:45:35Z</time>
      </trkpt>
      <trkpt lat="41.9013920" lon="-2.9221630">
        <ele>1389.6</ele>
        <time>2022-02-08T09:45:36Z</time>
      </trkpt>
      <trkpt lat="41.9013820" lon="-2.9221150">
        <ele>1389.1</ele>
        <time>2022-02-08T09:45:37Z</time>
      </trkpt>
      <trkpt lat="41.9013880" lon="-2.9220650">
        <ele>1388.7</ele>
        <time>2022-02-08T09:45:38Z</time>
      </trkpt>
      <trkpt lat="41.9014050" lon="-2.9220130">
        <ele>1388.1</ele>
        <time>2022-02-08T09:45:39Z</time>
      </trkpt>
      <trkpt lat="41.9014270" lon="-2.9219580">
        <ele>1387.6</ele>
        <time>2022-02-08T09:45:40Z</time>
      </trkpt>
      <trkpt lat="41.9014500" lon="-2.9218930">
        <ele>1387.1</ele>
        <time>2022-02-08T09:45:41Z</time>
      </trkpt>
      <trkpt lat="41.9014720" lon="-2.9218180">
        <ele>1386.5</ele>
        <time>2022-02-08T09:45:42Z</time>
      </trkpt>
      <trkpt lat="41.9014900" lon="-2.9217400">
        <ele>1386.0</ele>
        <time>2022-02-08T09:45:43Z</time>
      </trkpt>
      <trkpt lat="41.9014980" lon="-2.9216620">
        <ele>1385.6</ele>
        <time>2022-02-08T09:45:44Z</time>
      </trkpt>
      <trkpt lat="41.9014930" lon="-2.9215880">
        <ele>1385.3</ele>
        <time>2022-02-08T09:45:45Z</time>
      </trkpt>
      <trkpt lat="41.9014750" lon="-2.9215150">
        <ele>1384.9</ele>
        <time>2022-02-08T09:45:46Z</time>
      </trkpt>
      <trkpt lat="41.9014420" lon="-2.9214500">
        <ele>1384.6</ele>
        <time>2022-02-08T09:45:47Z</time>
      </trkpt>
      <trkpt lat="41.9014020" lon="-2.9213920">
        <ele>1384.2</ele>
        <time>2022-02-08T09:45:48Z</time>
      </trkpt>
      <trkpt lat="41.9013680" lon="-2.9213380">
        <ele>1384.0</ele>
        <time>2022-02-08T09:45:49Z</time>
      </trkpt>
      <trkpt lat="41.9013330" lon="-2.9212870">
        <ele>1383.7</ele>
        <time>2022-02-08T09:45:50Z</time>
      </trkpt>
      <trkpt lat="41.9013020" lon="-2.9212420">
        <ele>1383.5</ele>
        <time>2022-02-08T09:45:51Z</time>
      </trkpt>
      <trkpt lat="41.9012680" lon="-2.9211950">
        <ele>1383.1</ele>
        <time>2022-02-08T09:45:52Z</time>
      </trkpt>
      <trkpt lat="41.9012330" lon="-2.9211450">
        <ele>1382.8</ele>
        <time>2022-02-08T09:45:53Z</time>
      </trkpt>
      <trkpt lat="41.9011930" lon="-2.9210920">
        <ele>1382.4</ele>
        <time>2022-02-08T09:45:54Z</time>
      </trkpt>
      <trkpt lat="41.9011550" lon="-2.9210300">
        <ele>1382.0</ele>
        <time>2022-02-08T09:45:55Z</time>
      </trkpt>
      <trkpt lat="41.9011220" lon="-2.9209570">
        <ele>1381.5</ele>
        <time>2022-02-08T09:45:56Z</time>
      </trkpt>
      <trkpt lat="41.9010900" lon="-2.9208750">
        <ele>1381.0</ele>
        <time>2022-02-08T09:45:57Z</time>
      </trkpt>
      <trkpt lat="41.9010580" lon="-2.9207900">
        <ele>1380.6</ele>
        <time>2022-02-08T09:45:58Z</time>
      </trkpt>
      <trkpt lat="41.9010200" lon="-2.9207050">
        <ele>1380.2</ele>
        <time>2022-02-08T09:45:59Z</time>
      </trkpt>
      <trkpt lat="41.9009770" lon="-2.9206230">
        <ele>1379.8</ele>
        <time>2022-02-08T09:46:00Z</time>
      </trkpt>
      <trkpt lat="41.9009330" lon="-2.9205430">
        <ele>1379.4</ele>
        <time>2022-02-08T09:46:01Z</time>
      </trkpt>
      <trkpt lat="41.9008920" lon="-2.9204650">
        <ele>1379.1</ele>
        <time>2022-02-08T09:46:02Z</time>
      </trkpt>
      <trkpt lat="41.9008500" lon="-2.9203900">
        <ele>1378.9</ele>
        <time>2022-02-08T09:46:03Z</time>
      </trkpt>
      <trkpt lat="41.9008050" lon="-2.9203230">
        <ele>1378.5</ele>
        <time>2022-02-08T09:46:04Z</time>
      </trkpt>
      <trkpt lat="41.9007620" lon="-2.9202630">
        <ele>1378.1</ele>
        <time>2022-02-08T09:46:05Z</time>
      </trkpt>
      <trkpt lat="41.9007250" lon="-2.9202080">
        <ele>1377.7</ele>
        <time>2022-02-08T09:46:06Z</time>
      </trkpt>
      <trkpt lat="41.9006920" lon="-2.9201480">
        <ele>1377.3</ele>
        <time>2022-02-08T09:46:07Z</time>
      </trkpt>
      <trkpt lat="41.9006620" lon="-2.9200820">
        <ele>1376.9</ele>
        <time>2022-02-08T09:46:08Z</time>
      </trkpt>
      <trkpt lat="41.9006380" lon="-2.9200170">
        <ele>1376.5</ele>
        <time>2022-02-08T09:46:09Z</time>
      </trkpt>
      <trkpt lat="41.9006130" lon="-2.9199470">
        <ele>1376.1</ele>
        <time>2022-02-08T09:46:10Z</time>
      </trkpt>
      <trkpt lat="41.9005850" lon="-2.9198750">
        <ele>1375.8</ele>
        <time>2022-02-08T09:46:11Z</time>
      </trkpt>
      <trkpt lat="41.9005520" lon="-2.9198070">
        <ele>1375.6</ele>
        <time>2022-02-08T09:46:12Z</time>
      </trkpt>
      <trkpt lat="41.9005120" lon="-2.9197480">
        <ele>1375.4</ele>
        <time>2022-02-08T09:46:13Z</time>
      </trkpt>
      <trkpt lat="41.9004630" lon="-2.9197150">
        <ele>1375.3</ele>
        <time>2022-02-08T09:46:14Z</time>
      </trkpt>
      <trkpt lat="41.9004120" lon="-2.9197100">
        <ele>1375.2</ele>
        <time>2022-02-08T09:46:15Z</time>
      </trkpt>
      <trkpt lat="41.9003630" lon="-2.9197250">
        <ele>1375.1</ele>
        <time>2022-02-08T09:46:16Z</time>
      </trkpt>
      <trkpt lat="41.9003230" lon="-2.9197450">
        <ele>1375.0</ele>
        <time>2022-02-08T09:46:17Z</time>
      </trkpt>
      <trkpt lat="41.9002850" lon="-2.9197550">
        <ele>1374.9</ele>
        <time>2022-02-08T09:46:18Z</time>
      </trkpt>
      <trkpt lat="41.9002430" lon="-2.9197570">
        <ele>1374.9</ele>
        <time>2022-02-08T09:46:19Z</time>
      </trkpt>
      <trkpt lat="41.9002020" lon="-2.9197550">
        <ele>1374.8</ele>
        <time>2022-02-08T09:46:20Z</time>
      </trkpt>
      <trkpt lat="41.9001550" lon="-2.9197570">
        <ele>1374.8</ele>
        <time>2022-02-08T09:46:21Z</time>
      </trkpt>
      <trkpt lat="41.9001050" lon="-2.9197550">
        <ele>1374.7</ele>
        <time>2022-02-08T09:46:22Z</time>
      </trkpt>
      <trkpt lat="41.9000550" lon="-2.9197630">
        <ele>1374.7</ele>
        <time>2022-02-08T09:46:23Z</time>
      </trkpt>
      <trkpt lat="41.9000070" lon="-2.9197750">
        <ele>1374.7</ele>
        <time>2022-02-08T09:46:24Z</time>
      </trkpt>
      <trkpt lat="41.8999600" lon="-2.9197980">
        <ele>1374.8</ele>
        <time>2022-02-08T09:46:25Z</time>
      </trkpt>
      <trkpt lat="41.8999150" lon="-2.9198300">
        <ele>1374.8</ele>
        <time>2022-02-08T09:46:26Z</time>
      </trkpt>
      <trkpt lat="41.8998720" lon="-2.9198630">
        <ele>1374.9</ele>
        <time>2022-02-08T09:46:27Z</time>
      </trkpt>
      <trkpt lat="41.8998280" lon="-2.9198950">
        <ele>1374.9</ele>
        <time>2022-02-08T09:46:28Z</time>
      </trkpt>
      <trkpt lat="41.8997830" lon="-2.9199200">
        <ele>1375.0</ele>
        <time>2022-02-08T09:46:29Z</time>
      </trkpt>
      <trkpt lat="41.8997430" lon="-2.9199480">
        <ele>1375.0</ele>
        <time>2022-02-08T09:46:30Z</time>
      </trkpt>
      <trkpt lat="41.8997030" lon="-2.9199770">
        <ele>1375.1</ele>
        <time>2022-02-08T09:46:31Z</time>
      </trkpt>
      <trkpt lat="41.8996650" lon="-2.9199980">
        <ele>1375.1</ele>
        <time>2022-02-08T09:46:32Z</time>
      </trkpt>
      <trkpt lat="41.8996250" lon="-2.9200100">
        <ele>1375.1</ele>
        <time>2022-02-08T09:46:33Z</time>
      </trkpt>
      <trkpt lat="41.8995870" lon="-2.9200170">
        <ele>1375.1</ele>
        <time>2022-02-08T09:46:34Z</time>
      </trkpt>
      <trkpt lat="41.8995500" lon="-2.9200170">
        <ele>1375.1</ele>
        <time>2022-02-08T09:46:35Z</time>
      </trkpt>
      <trkpt lat="41.8995180" lon="-2.9200180">
        <ele>1375.2</ele>
        <time>2022-02-08T09:46:36Z</time>
      </trkpt>
      <trkpt lat="41.8994850" lon="-2.9200130">
        <ele>1375.3</ele>
        <time>2022-02-08T09:46:37Z</time>
      </trkpt>
      <trkpt lat="41.8994520" lon="-2.9200070">
        <ele>1375.4</ele>
        <time>2022-02-08T09:46:38Z</time>
      </trkpt>
      <trkpt lat="41.8994170" lon="-2.9200020">
        <ele>1375.5</ele>
        <time>2022-02-08T09:46:39Z</time>
      </trkpt>
      <trkpt lat="41.8993830" lon="-2.9200000">
        <ele>1375.5</ele>
        <time>2022-02-08T09:46:40Z</time>
      </trkpt>
      <trkpt lat="41.8993480" lon="-2.9200020">
        <ele>1375.6</ele>
        <time>2022-02-08T09:46:41Z</time>
      </trkpt>
      <trkpt lat="41.8993120" lon="-2.9200050">
        <ele>1375.7</ele>
        <time>2022-02-08T09:46:42Z</time>
      </trkpt>
      <trkpt lat="41.8992730" lon="-2.9200120">
        <ele>1375.7</ele>
        <time>2022-02-08T09:46:43Z</time>
      </trkpt>
      <trkpt lat="41.8992350" lon="-2.9200180">
        <ele>1375.7</ele>
        <time>2022-02-08T09:46:44Z</time>
      </trkpt>
      <trkpt lat="41.8991930" lon="-2.9200170">
        <ele>1375.8</ele>
        <time>2022-02-08T09:46:45Z</time>
      </trkpt>
      <trkpt lat="41.8991520" lon="-2.9200050">
        <ele>1375.8</ele>
        <time>2022-02-08T09:46:46Z</time>
      </trkpt>
      <trkpt lat="41.8991120" lon="-2.9199780">
        <ele>1375.8</ele>
        <time>2022-02-08T09:46:47Z</time>
      </trkpt>
      <trkpt lat="41.8990770" lon="-2.9199400">
        <ele>1375.8</ele>
        <time>2022-02-08T09:46:48Z</time>
      </trkpt>
      <trkpt lat="41.8990420" lon="-2.9198970">
        <ele>1375.8</ele>
        <time>2022-02-08T09:46:49Z</time>
      </trkpt>
      <trkpt lat="41.8990100" lon="-2.9198550">
        <ele>1375.8</ele>
        <time>2022-02-08T09:46:50Z</time>
      </trkpt>
      <trkpt lat="41.8989780" lon="-2.9198120">
        <ele>1375.8</ele>
        <time>2022-02-08T09:46:51Z</time>
      </trkpt>
      <trkpt lat="41.8989450" lon="-2.9197730">
        <ele>1375.7</ele>
        <time>2022-02-08T09:46:52Z</time>
      </trkpt>
      <trkpt lat="41.8989100" lon="-2.9197450">
        <ele>1375.7</ele>
        <time>2022-02-08T09:46:53Z</time>
      </trkpt>
      <trkpt lat="41.8988720" lon="-2.9197180">
        <ele>1375.7</ele>
        <time>2022-02-08T09:46:54Z</time>
      </trkpt>
      <trkpt lat="41.8988370" lon="-2.9196920">
        <ele>1375.7</ele>
        <time>2022-02-08T09:46:55Z</time>
      </trkpt>
      <trkpt lat="41.8988030" lon="-2.9196570">
        <ele>1375.6</ele>
        <time>2022-02-08T09:46:56Z</time>
      </trkpt>
      <trkpt lat="41.8987800" lon="-2.9196170">
        <ele>1375.6</ele>
        <time>2022-02-08T09:46:57Z</time>
      </trkpt>
      <trkpt lat="41.8987680" lon="-2.9195700">
        <ele>1375.5</ele>
        <time>2022-02-08T09:46:58Z</time>
      </trkpt>
      <trkpt lat="41.8987750" lon="-2.9195220">
        <ele>1375.4</ele>
        <time>2022-02-08T09:46:59Z</time>
      </trkpt>
      <trkpt lat="41.8987930" lon="-2.9194800">
        <ele>1375.3</ele>
        <time>2022-02-08T09:47:00Z</time>
      </trkpt>
      <trkpt lat="41.8988280" lon="-2.9194330">
        <ele>1375.2</ele>
        <time>2022-02-08T09:47:01Z</time>
      </trkpt>
      <trkpt lat="41.8988570" lon="-2.9193870">
        <ele>1375.0</ele>
        <time>2022-02-08T09:47:02Z</time>
      </trkpt>
      <trkpt lat="41.8988780" lon="-2.9193300">
        <ele>1374.8</ele>
        <time>2022-02-08T09:47:03Z</time>
      </trkpt>
      <trkpt lat="41.8988850" lon="-2.9192830">
        <ele>1374.7</ele>
        <time>2022-02-08T09:47:04Z</time>
      </trkpt>
      <trkpt lat="41.8988970" lon="-2.9192270">
        <ele>1374.5</ele>
        <time>2022-02-08T09:47:05Z</time>
      </trkpt>
      <trkpt lat="41.8989050" lon="-2.9191600">
        <ele>1374.2</ele>
        <time>2022-02-08T09:47:06Z</time>
      </trkpt>
      <trkpt lat="41.8989130" lon="-2.9190920">
        <ele>1373.9</ele>
        <time>2022-02-08T09:47:07Z</time>
      </trkpt>
      <trkpt lat="41.8989120" lon="-2.9190150">
        <ele>1373.6</ele>
        <time>2022-02-08T09:47:08Z</time>
      </trkpt>
      <trkpt lat="41.8989080" lon="-2.9189330">
        <ele>1373.2</ele>
        <time>2022-02-08T09:47:09Z</time>
      </trkpt>
      <trkpt lat="41.8989050" lon="-2.9188570">
        <ele>1372.7</ele>
        <time>2022-02-08T09:47:10Z</time>
      </trkpt>
      <trkpt lat="41.8989170" lon="-2.9187850">
        <ele>1372.1</ele>
        <time>2022-02-08T09:47:11Z</time>
      </trkpt>
      <trkpt lat="41.8989450" lon="-2.9187100">
        <ele>1371.3</ele>
        <time>2022-02-08T09:47:12Z</time>
      </trkpt>
      <trkpt lat="41.8989920" lon="-2.9186450">
        <ele>1370.4</ele>
        <time>2022-02-08T09:47:13Z</time>
      </trkpt>
      <trkpt lat="41.8990500" lon="-2.9185950">
        <ele>1369.5</ele>
        <time>2022-02-08T09:47:14Z</time>
      </trkpt>
      <trkpt lat="41.8991220" lon="-2.9185550">
        <ele>1368.4</ele>
        <time>2022-02-08T09:47:15Z</time>
      </trkpt>
      <trkpt lat="41.8991980" lon="-2.9185220">
        <ele>1367.2</ele>
        <time>2022-02-08T09:47:16Z</time>
      </trkpt>
      <trkpt lat="41.8992750" lon="-2.9184930">
        <ele>1365.8</ele>
        <time>2022-02-08T09:47:17Z</time>
      </trkpt>
      <trkpt lat="41.8993520" lon="-2.9184650">
        <ele>1364.4</ele>
        <time>2022-02-08T09:47:18Z</time>
      </trkpt>
      <trkpt lat="41.8994180" lon="-2.9184330">
        <ele>1363.0</ele>
        <time>2022-02-08T09:47:19Z</time>
      </trkpt>
      <trkpt lat="41.8994800" lon="-2.9183930">
        <ele>1361.7</ele>
        <time>2022-02-08T09:47:20Z</time>
      </trkpt>
      <trkpt lat="41.8995550" lon="-2.9183680">
        <ele>1360.3</ele>
        <time>2022-02-08T09:47:21Z</time>
      </trkpt>
      <trkpt lat="41.8996350" lon="-2.9183470">
        <ele>1358.8</ele>
        <time>2022-02-08T09:47:22Z</time>
      </trkpt>
      <trkpt lat="41.8997100" lon="-2.9183270">
        <ele>1357.5</ele>
        <time>2022-02-08T09:47:23Z</time>
      </trkpt>
      <trkpt lat="41.8997980" lon="-2.9183030">
        <ele>1355.9</ele>
        <time>2022-02-08T09:47:24Z</time>
      </trkpt>
      <trkpt lat="41.8998930" lon="-2.9182770">
        <ele>1354.4</ele>
        <time>2022-02-08T09:47:25Z</time>
      </trkpt>
      <trkpt lat="41.8999850" lon="-2.9182680">
        <ele>1353.2</ele>
        <time>2022-02-08T09:47:26Z</time>
      </trkpt>
      <trkpt lat="41.9000750" lon="-2.9182880">
        <ele>1352.2</ele>
        <time>2022-02-08T09:47:27Z</time>
      </trkpt>
      <trkpt lat="41.9001430" lon="-2.9182970">
        <ele>1351.5</ele>
        <time>2022-02-08T09:47:28Z</time>
      </trkpt>
      <trkpt lat="41.9002130" lon="-2.9182980">
        <ele>1350.8</ele>
        <time>2022-02-08T09:47:29Z</time>
      </trkpt>
      <trkpt lat="41.9002770" lon="-2.9182870">
        <ele>1350.2</ele>
        <time>2022-02-08T09:47:30Z</time>
      </trkpt>
      <trkpt lat="41.9003380" lon="-2.9182500">
        <ele>1349.7</ele>
        <time>2022-02-08T09:47:31Z</time>
      </trkpt>
      <trkpt lat="41.9004070" lon="-2.9181780">
        <ele>1349.0</ele>
        <time>2022-02-08T09:47:32Z</time>
      </trkpt>
      <trkpt lat="41.9004500" lon="-2.9181050">
        <ele>1348.5</ele>
        <time>2022-02-08T09:47:33Z</time>
      </trkpt>
      <trkpt lat="41.9004680" lon="-2.9180280">
        <ele>1348.1</ele>
        <time>2022-02-08T09:47:34Z</time>
      </trkpt>
      <trkpt lat="41.9004850" lon="-2.9179270">
        <ele>1347.6</ele>
        <time>2022-02-08T09:47:35Z</time>
      </trkpt>
      <trkpt lat="41.9004850" lon="-2.9178250">
        <ele>1347.0</ele>
        <time>2022-02-08T09:47:36Z</time>
      </trkpt>
      <trkpt lat="41.9004980" lon="-2.9177200">
        <ele>1346.5</ele>
        <time>2022-02-08T09:47:37Z</time>
      </trkpt>
      <trkpt lat="41.9005100" lon="-2.9176250">
        <ele>1346.0</ele>
        <time>2022-02-08T09:47:38Z</time>
      </trkpt>
      <trkpt lat="41.9005250" lon="-2.9175230">
        <ele>1345.4</ele>
        <time>2022-02-08T09:47:39Z</time>
      </trkpt>
      <trkpt lat="41.9005530" lon="-2.9174420">
        <ele>1344.9</ele>
        <time>2022-02-08T09:47:40Z</time>
      </trkpt>
      <trkpt lat="41.9006030" lon="-2.9173780">
        <ele>1344.4</ele>
        <time>2022-02-08T09:47:41Z</time>
      </trkpt>
      <trkpt lat="41.9006550" lon="-2.9173300">
        <ele>1343.8</ele>
        <time>2022-02-08T09:47:42Z</time>
      </trkpt>
      <trkpt lat="41.9007000" lon="-2.9172830">
        <ele>1343.2</ele>
        <time>2022-02-08T09:47:43Z</time>
      </trkpt>
      <trkpt lat="41.9007580" lon="-2.9172450">
        <ele>1342.5</ele>
        <time>2022-02-08T09:47:44Z</time>
      </trkpt>
      <trkpt lat="41.9008170" lon="-2.9172230">
        <ele>1341.9</ele>
        <time>2022-02-08T09:47:45Z</time>
      </trkpt>
      <trkpt lat="41.9008830" lon="-2.9172180">
        <ele>1341.3</ele>
        <time>2022-02-08T09:47:46Z</time>
      </trkpt>
      <trkpt lat="41.9009600" lon="-2.9172070">
        <ele>1340.6</ele>
        <time>2022-02-08T09:47:47Z</time>
      </trkpt>
      <trkpt lat="41.9010430" lon="-2.9171870">
        <ele>1339.8</ele>
        <time>2022-02-08T09:47:48Z</time>
      </trkpt>
      <trkpt lat="41.9011220" lon="-2.9171470">
        <ele>1338.9</ele>
        <time>2022-02-08T09:47:49Z</time>
      </trkpt>
      <trkpt lat="41.9011950" lon="-2.9171050">
        <ele>1337.8</ele>
        <time>2022-02-08T09:47:50Z</time>
      </trkpt>
      <trkpt lat="41.9012630" lon="-2.9170520">
        <ele>1336.4</ele>
        <time>2022-02-08T09:47:51Z</time>
      </trkpt>
      <trkpt lat="41.9013330" lon="-2.9169970">
        <ele>1334.9</ele>
        <time>2022-02-08T09:47:52Z</time>
      </trkpt>
      <trkpt lat="41.9013880" lon="-2.9169400">
        <ele>1333.6</ele>
        <time>2022-02-08T09:47:53Z</time>
      </trkpt>
      <trkpt lat="41.9014380" lon="-2.9168880">
        <ele>1332.4</ele>
        <time>2022-02-08T09:47:54Z</time>
      </trkpt>
      <trkpt lat="41.9014900" lon="-2.9168280">
        <ele>1331.2</ele>
        <time>2022-02-08T09:47:55Z</time>
      </trkpt>
      <trkpt lat="41.9015320" lon="-2.9167650">
        <ele>1330.0</ele>
        <time>2022-02-08T09:47:56Z</time>
      </trkpt>
      <trkpt lat="41.9015830" lon="-2.9167280">
        <ele>1328.8</ele>
        <time>2022-02-08T09:47:57Z</time>
      </trkpt>
      <trkpt lat="41.9016380" lon="-2.9167100">
        <ele>1327.7</ele>
        <time>2022-02-08T09:47:58Z</time>
      </trkpt>
      <trkpt lat="41.9016920" lon="-2.9166980">
        <ele>1326.6</ele>
        <time>2022-02-08T09:47:59Z</time>
      </trkpt>
      <trkpt lat="41.9017400" lon="-2.9166870">
        <ele>1325.6</ele>
        <time>2022-02-08T09:48:00Z</time>
      </trkpt>
      <trkpt lat="41.9017920" lon="-2.9166730">
        <ele>1324.5</ele>
        <time>2022-02-08T09:48:01Z</time>
      </trkpt>
      <trkpt lat="41.9018570" lon="-2.9166650">
        <ele>1323.1</ele>
        <time>2022-02-08T09:48:02Z</time>
      </trkpt>
      <trkpt lat="41.9019270" lon="-2.9166480">
        <ele>1321.6</ele>
        <time>2022-02-08T09:48:03Z</time>
      </trkpt>
      <trkpt lat="41.9019900" lon="-2.9166330">
        <ele>1320.2</ele>
        <time>2022-02-08T09:48:04Z</time>
      </trkpt>
      <trkpt lat="41.9020480" lon="-2.9166130">
        <ele>1318.9</ele>
        <time>2022-02-08T09:48:05Z</time>
      </trkpt>
      <trkpt lat="41.9021000" lon="-2.9165970">
        <ele>1317.8</ele>
        <time>2022-02-08T09:48:06Z</time>
      </trkpt>
      <trkpt lat="41.9021420" lon="-2.9165750">
        <ele>1316.7</ele>
        <time>2022-02-08T09:48:07Z</time>
      </trkpt>
      <trkpt lat="41.9021800" lon="-2.9165470">
        <ele>1315.7</ele>
        <time>2022-02-08T09:48:08Z</time>
      </trkpt>
      <trkpt lat="41.9022150" lon="-2.9165120">
        <ele>1314.7</ele>
        <time>2022-02-08T09:48:09Z</time>
      </trkpt>
      <trkpt lat="41.9022330" lon="-2.9164700">
        <ele>1313.9</ele>
        <time>2022-02-08T09:48:10Z</time>
      </trkpt>
      <trkpt lat="41.9022430" lon="-2.9164270">
        <ele>1313.0</ele>
        <time>2022-02-08T09:48:11Z</time>
      </trkpt>
      <trkpt lat="41.9022520" lon="-2.9163850">
        <ele>1312.2</ele>
        <time>2022-02-08T09:48:12Z</time>
      </trkpt>
      <trkpt lat="41.9022650" lon="-2.9163450">
        <ele>1311.4</ele>
        <time>2022-02-08T09:48:13Z</time>
      </trkpt>
      <trkpt lat="41.9022830" lon="-2.9163100">
        <ele>1310.6</ele>
        <time>2022-02-08T09:48:14Z</time>
      </trkpt>
      <trkpt lat="41.9023050" lon="-2.9162820">
        <ele>1309.8</ele>
        <time>2022-02-08T09:48:15Z</time>
      </trkpt>
      <trkpt lat="41.9023250" lon="-2.9162550">
        <ele>1309.0</ele>
        <time>2022-02-08T09:48:16Z</time>
      </trkpt>
      <trkpt lat="41.9023400" lon="-2.9162280">
        <ele>1308.4</ele>
        <time>2022-02-08T09:48:17Z</time>
      </trkpt>
      <trkpt lat="41.9023570" lon="-2.9162050">
        <ele>1307.7</ele>
        <time>2022-02-08T09:48:18Z</time>
      </trkpt>
      <trkpt lat="41.9023820" lon="-2.9161980">
        <ele>1307.1</ele>
        <time>2022-02-08T09:48:19Z</time>
      </trkpt>
      <trkpt lat="41.9024150" lon="-2.9161850">
        <ele>1306.4</ele>
        <time>2022-02-08T09:48:20Z</time>
      </trkpt>
      <trkpt lat="41.9024400" lon="-2.9161580">
        <ele>1305.7</ele>
        <time>2022-02-08T09:48:21Z</time>
      </trkpt>
      <trkpt lat="41.9024670" lon="-2.9161250">
        <ele>1305.1</ele>
        <time>2022-02-08T09:48:22Z</time>
      </trkpt>
      <trkpt lat="41.9024850" lon="-2.9160920">
        <ele>1304.6</ele>
        <time>2022-02-08T09:48:23Z</time>
      </trkpt>
      <trkpt lat="41.9024970" lon="-2.9160620">
        <ele>1304.3</ele>
        <time>2022-02-08T09:48:24Z</time>
      </trkpt>
      <trkpt lat="41.9025100" lon="-2.9160270">
        <ele>1304.0</ele>
        <time>2022-02-08T09:48:25Z</time>
      </trkpt>
      <trkpt lat="41.9025270" lon="-2.9160030">
        <ele>1303.8</ele>
        <time>2022-02-08T09:48:26Z</time>
      </trkpt>
      <trkpt lat="41.9025430" lon="-2.9159780">
        <ele>1303.6</ele>
        <time>2022-02-08T09:48:27Z</time>
      </trkpt>
      <trkpt lat="41.9025570" lon="-2.9159670">
        <ele>1303.5</ele>
        <time>2022-02-08T09:48:28Z</time>
      </trkpt>
      <trkpt lat="41.9025930" lon="-2.9159520">
        <ele>1303.4</ele>
        <time>2022-02-08T09:48:29Z</time>
      </trkpt>
      <trkpt lat="41.9026320" lon="-2.9159300">
        <ele>1303.2</ele>
        <time>2022-02-08T09:48:30Z</time>
      </trkpt>
      <trkpt lat="41.9026680" lon="-2.9159130">
        <ele>1303.0</ele>
        <time>2022-02-08T09:48:31Z</time>
      </trkpt>
      <trkpt lat="41.9027130" lon="-2.9159000">
        <ele>1302.9</ele>
        <time>2022-02-08T09:48:32Z</time>
      </trkpt>
      <trkpt lat="41.9027530" lon="-2.9158830">
        <ele>1302.7</ele>
        <time>2022-02-08T09:48:33Z</time>
      </trkpt>
      <trkpt lat="41.9028100" lon="-2.9158730">
        <ele>1302.4</ele>
        <time>2022-02-08T09:48:34Z</time>
      </trkpt>
      <trkpt lat="41.9028620" lon="-2.9158630">
        <ele>1302.2</ele>
        <time>2022-02-08T09:48:35Z</time>
      </trkpt>
      <trkpt lat="41.9029250" lon="-2.9158530">
        <ele>1301.8</ele>
        <time>2022-02-08T09:48:36Z</time>
      </trkpt>
      <trkpt lat="41.9029920" lon="-2.9158430">
        <ele>1301.4</ele>
        <time>2022-02-08T09:48:37Z</time>
      </trkpt>
      <trkpt lat="41.9030630" lon="-2.9158320">
        <ele>1301.0</ele>
        <time>2022-02-08T09:48:38Z</time>
      </trkpt>
      <trkpt lat="41.9031400" lon="-2.9158100">
        <ele>1300.5</ele>
        <time>2022-02-08T09:48:39Z</time>
      </trkpt>
      <trkpt lat="41.9032320" lon="-2.9157750">
        <ele>1299.9</ele>
        <time>2022-02-08T09:48:40Z</time>
      </trkpt>
      <trkpt lat="41.9033150" lon="-2.9157530">
        <ele>1299.4</ele>
        <time>2022-02-08T09:48:41Z</time>
      </trkpt>
      <trkpt lat="41.9033780" lon="-2.9157370">
        <ele>1298.8</ele>
        <time>2022-02-08T09:48:42Z</time>
      </trkpt>
      <trkpt lat="41.9034500" lon="-2.9157120">
        <ele>1298.2</ele>
        <time>2022-02-08T09:48:43Z</time>
      </trkpt>
      <trkpt lat="41.9035050" lon="-2.9156750">
        <ele>1297.6</ele>
        <time>2022-02-08T09:48:44Z</time>
      </trkpt>
      <trkpt lat="41.9035600" lon="-2.9156230">
        <ele>1297.0</ele>
        <time>2022-02-08T09:48:45Z</time>
      </trkpt>
      <trkpt lat="41.9036120" lon="-2.9155700">
        <ele>1296.4</ele>
        <time>2022-02-08T09:48:46Z</time>
      </trkpt>
      <trkpt lat="41.9036820" lon="-2.9155000">
        <ele>1295.7</ele>
        <time>2022-02-08T09:48:47Z</time>
      </trkpt>
      <trkpt lat="41.9037220" lon="-2.9154500">
        <ele>1295.3</ele>
        <time>2022-02-08T09:48:48Z</time>
      </trkpt>
      <trkpt lat="41.9037720" lon="-2.9153750">
        <ele>1294.8</ele>
        <time>2022-02-08T09:48:49Z</time>
      </trkpt>
      <trkpt lat="41.9038200" lon="-2.9153030">
        <ele>1294.3</ele>
        <time>2022-02-08T09:48:50Z</time>
      </trkpt>
      <trkpt lat="41.9038720" lon="-2.9152380">
        <ele>1293.7</ele>
        <time>2022-02-08T09:48:51Z</time>
      </trkpt>
      <trkpt lat="41.9039300" lon="-2.9151770">
        <ele>1293.1</ele>
        <time>2022-02-08T09:48:52Z</time>
      </trkpt>
      <trkpt lat="41.9039870" lon="-2.9151170">
        <ele>1292.4</ele>
        <time>2022-02-08T09:48:53Z</time>
      </trkpt>
      <trkpt lat="41.9040300" lon="-2.9150700">
        <ele>1291.9</ele>
        <time>2022-02-08T09:48:54Z</time>
      </trkpt>
      <trkpt lat="41.9040600" lon="-2.9150170">
        <ele>1291.5</ele>
        <time>2022-02-08T09:48:55Z</time>
      </trkpt>
      <trkpt lat="41.9040950" lon="-2.9149620">
        <ele>1291.0</ele>
        <time>2022-02-08T09:48:56Z</time>
      </trkpt>
      <trkpt lat="41.9041370" lon="-2.9149000">
        <ele>1290.4</ele>
        <time>2022-02-08T09:48:57Z</time>
      </trkpt>
      <trkpt lat="41.9041670" lon="-2.9148470">
        <ele>1289.8</ele>
        <time>2022-02-08T09:48:58Z</time>
      </trkpt>
      <trkpt lat="41.9042030" lon="-2.9148020">
        <ele>1289.3</ele>
        <time>2022-02-08T09:48:59Z</time>
      </trkpt>
      <trkpt lat="41.9042400" lon="-2.9147530">
        <ele>1288.7</ele>
        <time>2022-02-08T09:49:00Z</time>
      </trkpt>
      <trkpt lat="41.9042770" lon="-2.9146900">
        <ele>1287.9</ele>
        <time>2022-02-08T09:49:01Z</time>
      </trkpt>
      <trkpt lat="41.9042920" lon="-2.9146450">
        <ele>1287.4</ele>
        <time>2022-02-08T09:49:02Z</time>
      </trkpt>
      <trkpt lat="41.9043130" lon="-2.9145830">
        <ele>1286.8</ele>
        <time>2022-02-08T09:49:03Z</time>
      </trkpt>
      <trkpt lat="41.9043320" lon="-2.9145300">
        <ele>1286.2</ele>
        <time>2022-02-08T09:49:04Z</time>
      </trkpt>
      <trkpt lat="41.9043450" lon="-2.9144750">
        <ele>1285.7</ele>
        <time>2022-02-08T09:49:05Z</time>
      </trkpt>
      <trkpt lat="41.9043580" lon="-2.9144180">
        <ele>1285.2</ele>
        <time>2022-02-08T09:49:06Z</time>
      </trkpt>
      <trkpt lat="41.9043830" lon="-2.9143400">
        <ele>1284.4</ele>
        <time>2022-02-08T09:49:07Z</time>
      </trkpt>
      <trkpt lat="41.9044030" lon="-2.9142850">
        <ele>1283.9</ele>
        <time>2022-02-08T09:49:08Z</time>
      </trkpt>
      <trkpt lat="41.9044420" lon="-2.9142120">
        <ele>1283.1</ele>
        <time>2022-02-08T09:49:09Z</time>
      </trkpt>
      <trkpt lat="41.9044920" lon="-2.9141550">
        <ele>1282.2</ele>
        <time>2022-02-08T09:49:10Z</time>
      </trkpt>
      <trkpt lat="41.9045320" lon="-2.9141070">
        <ele>1281.5</ele>
        <time>2022-02-08T09:49:11Z</time>
      </trkpt>
      <trkpt lat="41.9045750" lon="-2.9140680">
        <ele>1280.9</ele>
        <time>2022-02-08T09:49:12Z</time>
      </trkpt>
      <trkpt lat="41.9046050" lon="-2.9140220">
        <ele>1280.3</ele>
        <time>2022-02-08T09:49:13Z</time>
      </trkpt>
      <trkpt lat="41.9046420" lon="-2.9139680">
        <ele>1279.6</ele>
        <time>2022-02-08T09:49:14Z</time>
      </trkpt>
      <trkpt lat="41.9046720" lon="-2.9139100">
        <ele>1278.9</ele>
        <time>2022-02-08T09:49:15Z</time>
      </trkpt>
      <trkpt lat="41.9046950" lon="-2.9138480">
        <ele>1278.7</ele>
        <time>2022-02-08T09:49:16Z</time>
      </trkpt>
      <trkpt lat="41.9047200" lon="-2.9137880">
        <ele>1278.3</ele>
        <time>2022-02-08T09:49:17Z</time>
      </trkpt>
      <trkpt lat="41.9047330" lon="-2.9137250">
        <ele>1277.9</ele>
        <time>2022-02-08T09:49:18Z</time>
      </trkpt>
      <trkpt lat="41.9047420" lon="-2.9136750">
        <ele>1277.7</ele>
        <time>2022-02-08T09:49:19Z</time>
      </trkpt>
      <trkpt lat="41.9047520" lon="-2.9136280">
        <ele>1277.4</ele>
        <time>2022-02-08T09:49:20Z</time>
      </trkpt>
      <trkpt lat="41.9047570" lon="-2.9135750">
        <ele>1277.1</ele>
        <time>2022-02-08T09:49:21Z</time>
      </trkpt>
      <trkpt lat="41.9047580" lon="-2.9135320">
        <ele>1276.9</ele>
        <time>2022-02-08T09:49:22Z</time>
      </trkpt>
      <trkpt lat="41.9047630" lon="-2.9134880">
        <ele>1276.7</ele>
        <time>2022-02-08T09:49:23Z</time>
      </trkpt>
      <trkpt lat="41.9047650" lon="-2.9134420">
        <ele>1276.5</ele>
        <time>2022-02-08T09:49:24Z</time>
      </trkpt>
      <trkpt lat="41.9047620" lon="-2.9133920">
        <ele>1276.3</ele>
        <time>2022-02-08T09:49:25Z</time>
      </trkpt>
      <trkpt lat="41.9047650" lon="-2.9133570">
        <ele>1276.1</ele>
        <time>2022-02-08T09:49:26Z</time>
      </trkpt>
      <trkpt lat="41.9047600" lon="-2.9133250">
        <ele>1276.0</ele>
        <time>2022-02-08T09:49:27Z</time>
      </trkpt>
      <trkpt lat="41.9047570" lon="-2.9132980">
        <ele>1275.8</ele>
        <time>2022-02-08T09:49:28Z</time>
      </trkpt>
      <trkpt lat="41.9047500" lon="-2.9132720">
        <ele>1275.7</ele>
        <time>2022-02-08T09:49:29Z</time>
      </trkpt>
      <trkpt lat="41.9047420" lon="-2.9132480">
        <ele>1275.5</ele>
        <time>2022-02-08T09:49:30Z</time>
      </trkpt>
      <trkpt lat="41.9047330" lon="-2.9132130">
        <ele>1275.3</ele>
        <time>2022-02-08T09:49:31Z</time>
      </trkpt>
      <trkpt lat="41.9047350" lon="-2.9131880">
        <ele>1275.1</ele>
        <time>2022-02-08T09:49:32Z</time>
      </trkpt>
      <trkpt lat="41.9047420" lon="-2.9131520">
        <ele>1274.8</ele>
        <time>2022-02-08T09:49:33Z</time>
      </trkpt>
      <trkpt lat="41.9047570" lon="-2.9131100">
        <ele>1274.4</ele>
        <time>2022-02-08T09:49:34Z</time>
      </trkpt>
      <trkpt lat="41.9047830" lon="-2.9130620">
        <ele>1273.9</ele>
        <time>2022-02-08T09:49:35Z</time>
      </trkpt>
      <trkpt lat="41.9048150" lon="-2.9130100">
        <ele>1273.2</ele>
        <time>2022-02-08T09:49:36Z</time>
      </trkpt>
      <trkpt lat="41.9048450" lon="-2.9129600">
        <ele>1272.6</ele>
        <time>2022-02-08T09:49:37Z</time>
      </trkpt>
      <trkpt lat="41.9048680" lon="-2.9129020">
        <ele>1272.0</ele>
        <time>2022-02-08T09:49:38Z</time>
      </trkpt>
      <trkpt lat="41.9048930" lon="-2.9128280">
        <ele>1271.2</ele>
        <time>2022-02-08T09:49:39Z</time>
      </trkpt>
      <trkpt lat="41.9048980" lon="-2.9127380">
        <ele>1270.5</ele>
        <time>2022-02-08T09:49:40Z</time>
      </trkpt>
      <trkpt lat="41.9049030" lon="-2.9126480">
        <ele>1269.9</ele>
        <time>2022-02-08T09:49:41Z</time>
      </trkpt>
      <trkpt lat="41.9049180" lon="-2.9125620">
        <ele>1269.2</ele>
        <time>2022-02-08T09:49:42Z</time>
      </trkpt>
      <trkpt lat="41.9049370" lon="-2.9124650">
        <ele>1268.4</ele>
        <time>2022-02-08T09:49:43Z</time>
      </trkpt>
      <trkpt lat="41.9049480" lon="-2.9123700">
        <ele>1267.6</ele>
        <time>2022-02-08T09:49:44Z</time>
      </trkpt>
      <trkpt lat="41.9049670" lon="-2.9122770">
        <ele>1266.7</ele>
        <time>2022-02-08T09:49:45Z</time>
      </trkpt>
      <trkpt lat="41.9049880" lon="-2.9121870">
        <ele>1265.8</ele>
        <time>2022-02-08T09:49:46Z</time>
      </trkpt>
      <trkpt lat="41.9049930" lon="-2.9120900">
        <ele>1265.1</ele>
        <time>2022-02-08T09:49:47Z</time>
      </trkpt>
      <trkpt lat="41.9049850" lon="-2.9119870">
        <ele>1264.3</ele>
        <time>2022-02-08T09:49:48Z</time>
      </trkpt>
      <trkpt lat="41.9049720" lon="-2.9118850">
        <ele>1263.6</ele>
        <time>2022-02-08T09:49:49Z</time>
      </trkpt>
      <trkpt lat="41.9049520" lon="-2.9117830">
        <ele>1262.8</ele>
        <time>2022-02-08T09:49:50Z</time>
      </trkpt>
      <trkpt lat="41.9049470" lon="-2.9116800">
        <ele>1261.9</ele>
        <time>2022-02-08T09:49:51Z</time>
      </trkpt>
      <trkpt lat="41.9049470" lon="-2.9115800">
        <ele>1261.2</ele>
        <time>2022-02-08T09:49:52Z</time>
      </trkpt>
      <trkpt lat="41.9049600" lon="-2.9114750">
        <ele>1260.3</ele>
        <time>2022-02-08T09:49:53Z</time>
      </trkpt>
      <trkpt lat="41.9049850" lon="-2.9113720">
        <ele>1259.5</ele>
        <time>2022-02-08T09:49:54Z</time>
      </trkpt>
      <trkpt lat="41.9050130" lon="-2.9112780">
        <ele>1258.7</ele>
        <time>2022-02-08T09:49:55Z</time>
      </trkpt>
      <trkpt lat="41.9050420" lon="-2.9111900">
        <ele>1257.9</ele>
        <time>2022-02-08T09:49:56Z</time>
      </trkpt>
      <trkpt lat="41.9050650" lon="-2.9111100">
        <ele>1257.1</ele>
        <time>2022-02-08T09:49:57Z</time>
      </trkpt>
      <trkpt lat="41.9050830" lon="-2.9110470">
        <ele>1256.4</ele>
        <time>2022-02-08T09:49:58Z</time>
      </trkpt>
      <trkpt lat="41.9050920" lon="-2.9109880">
        <ele>1255.8</ele>
        <time>2022-02-08T09:49:59Z</time>
      </trkpt>
      <trkpt lat="41.9050950" lon="-2.9109330">
        <ele>1255.2</ele>
        <time>2022-02-08T09:50:00Z</time>
      </trkpt>
      <trkpt lat="41.9051020" lon="-2.9108820">
        <ele>1254.7</ele>
        <time>2022-02-08T09:50:01Z</time>
      </trkpt>
      <trkpt lat="41.9051050" lon="-2.9108400">
        <ele>1254.3</ele>
        <time>2022-02-08T09:50:02Z</time>
      </trkpt>
      <trkpt lat="41.9051100" lon="-2.9108000">
        <ele>1254.0</ele>
        <time>2022-02-08T09:50:03Z</time>
      </trkpt>
      <trkpt lat="41.9051130" lon="-2.9107630">
        <ele>1253.7</ele>
        <time>2022-02-08T09:50:04Z</time>
      </trkpt>
      <trkpt lat="41.9051130" lon="-2.9107250">
        <ele>1253.4</ele>
        <time>2022-02-08T09:50:05Z</time>
      </trkpt>
      <trkpt lat="41.9051130" lon="-2.9106850">
        <ele>1253.1</ele>
        <time>2022-02-08T09:50:06Z</time>
      </trkpt>
      <trkpt lat="41.9051100" lon="-2.9106430">
        <ele>1252.8</ele>
        <time>2022-02-08T09:50:07Z</time>
      </trkpt>
      <trkpt lat="41.9051030" lon="-2.9106130">
        <ele>1252.6</ele>
        <time>2022-02-08T09:50:08Z</time>
      </trkpt>
      <trkpt lat="41.9051020" lon="-2.9105820">
        <ele>1252.4</ele>
        <time>2022-02-08T09:50:09Z</time>
      </trkpt>
      <trkpt lat="41.9050950" lon="-2.9105480">
        <ele>1252.1</ele>
        <time>2022-02-08T09:50:10Z</time>
      </trkpt>
      <trkpt lat="41.9050970" lon="-2.9105050">
        <ele>1251.8</ele>
        <time>2022-02-08T09:50:11Z</time>
      </trkpt>
      <trkpt lat="41.9050980" lon="-2.9104620">
        <ele>1251.4</ele>
        <time>2022-02-08T09:50:12Z</time>
      </trkpt>
      <trkpt lat="41.9051000" lon="-2.9104120">
        <ele>1251.0</ele>
        <time>2022-02-08T09:50:13Z</time>
      </trkpt>
      <trkpt lat="41.9051030" lon="-2.9103630">
        <ele>1250.6</ele>
        <time>2022-02-08T09:50:14Z</time>
      </trkpt>
      <trkpt lat="41.9050880" lon="-2.9103120">
        <ele>1250.2</ele>
        <time>2022-02-08T09:50:15Z</time>
      </trkpt>
      <trkpt lat="41.9050680" lon="-2.9102570">
        <ele>1249.7</ele>
        <time>2022-02-08T09:50:16Z</time>
      </trkpt>
      <trkpt lat="41.9050480" lon="-2.9102080">
        <ele>1249.3</ele>
        <time>2022-02-08T09:50:17Z</time>
      </trkpt>
      <trkpt lat="41.9050330" lon="-2.9101700">
        <ele>1249.0</ele>
        <time>2022-02-08T09:50:18Z</time>
      </trkpt>
      <trkpt lat="41.9050180" lon="-2.9101430">
        <ele>1248.8</ele>
        <time>2022-02-08T09:50:19Z</time>
      </trkpt>
      <trkpt lat="41.9050120" lon="-2.9101050">
        <ele>1248.5</ele>
        <time>2022-02-08T09:50:20Z</time>
      </trkpt>
      <trkpt lat="41.9050120" lon="-2.9100720">
        <ele>1248.4</ele>
        <time>2022-02-08T09:50:21Z</time>
      </trkpt>
      <trkpt lat="41.9050080" lon="-2.9100450">
        <ele>1248.2</ele>
        <time>2022-02-08T09:50:22Z</time>
      </trkpt>
      <trkpt lat="41.9050030" lon="-2.9100170">
        <ele>1248.0</ele>
        <time>2022-02-08T09:50:23Z</time>
      </trkpt>
      <trkpt lat="41.9050050" lon="-2.9099930">
        <ele>1247.9</ele>
        <time>2022-02-08T09:50:24Z</time>
      </trkpt>
      <trkpt lat="41.9050070" lon="-2.9099670">
        <ele>1247.8</ele>
        <time>2022-02-08T09:50:25Z</time>
      </trkpt>
      <trkpt lat="41.9050080" lon="-2.9099370">
        <ele>1247.6</ele>
        <time>2022-02-08T09:50:26Z</time>
      </trkpt>
      <trkpt lat="41.9050120" lon="-2.9099050">
        <ele>1247.5</ele>
        <time>2022-02-08T09:50:27Z</time>
      </trkpt>
      <trkpt lat="41.9050180" lon="-2.9098800">
        <ele>1247.4</ele>
        <time>2022-02-08T09:50:28Z</time>
      </trkpt>
      <trkpt lat="41.9050230" lon="-2.9098550">
        <ele>1247.3</ele>
        <time>2022-02-08T09:50:29Z</time>
      </trkpt>
      <trkpt lat="41.9050250" lon="-2.9098300">
        <ele>1247.2</ele>
        <time>2022-02-08T09:50:30Z</time>
      </trkpt>
      <trkpt lat="41.9050300" lon="-2.9098030">
        <ele>1247.1</ele>
        <time>2022-02-08T09:50:31Z</time>
      </trkpt>
      <trkpt lat="41.9050320" lon="-2.9097680">
        <ele>1247.0</ele>
        <time>2022-02-08T09:50:32Z</time>
      </trkpt>
      <trkpt lat="41.9050320" lon="-2.9097330">
        <ele>1246.9</ele>
        <time>2022-02-08T09:50:33Z</time>
      </trkpt>
      <trkpt lat="41.9050280" lon="-2.9097050">
        <ele>1246.8</ele>
        <time>2022-02-08T09:50:34Z</time>
      </trkpt>
      <trkpt lat="41.9050230" lon="-2.9096780">
        <ele>1246.7</ele>
        <time>2022-02-08T09:50:35Z</time>
      </trkpt>
      <trkpt lat="41.9050150" lon="-2.9096600">
        <ele>1246.7</ele>
        <time>2022-02-08T09:50:36Z</time>
      </trkpt>
      <trkpt lat="41.9050050" lon="-2.9096400">
        <ele>1246.6</ele>
        <time>2022-02-08T09:50:37Z</time>
      </trkpt>
      <trkpt lat="41.9049970" lon="-2.9096150">
        <ele>1246.4</ele>
        <time>2022-02-08T09:50:38Z</time>
      </trkpt>
      <trkpt lat="41.9049870" lon="-2.9095850">
        <ele>1246.3</ele>
        <time>2022-02-08T09:50:39Z</time>
      </trkpt>
      <trkpt lat="41.9049750" lon="-2.9095570">
        <ele>1246.1</ele>
        <time>2022-02-08T09:50:40Z</time>
      </trkpt>
      <trkpt lat="41.9049630" lon="-2.9095270">
        <ele>1245.9</ele>
        <time>2022-02-08T09:50:41Z</time>
      </trkpt>
      <trkpt lat="41.9049520" lon="-2.9094930">
        <ele>1245.8</ele>
        <time>2022-02-08T09:50:42Z</time>
      </trkpt>
      <trkpt lat="41.9049330" lon="-2.9094570">
        <ele>1245.5</ele>
        <time>2022-02-08T09:50:43Z</time>
      </trkpt>
      <trkpt lat="41.9049130" lon="-2.9094150">
        <ele>1245.3</ele>
        <time>2022-02-08T09:50:44Z</time>
      </trkpt>
      <trkpt lat="41.9048900" lon="-2.9093670">
        <ele>1245.0</ele>
        <time>2022-02-08T09:50:45Z</time>
      </trkpt>
      <trkpt lat="41.9048670" lon="-2.9093180">
        <ele>1244.7</ele>
        <time>2022-02-08T09:50:46Z</time>
      </trkpt>
      <trkpt lat="41.9048420" lon="-2.9092680">
        <ele>1244.5</ele>
        <time>2022-02-08T09:50:47Z</time>
      </trkpt>
      <trkpt lat="41.9048220" lon="-2.9092170">
        <ele>1244.3</ele>
        <time>2022-02-08T09:50:48Z</time>
      </trkpt>
      <trkpt lat="41.9048030" lon="-2.9091620">
        <ele>1244.1</ele>
        <time>2022-02-08T09:50:49Z</time>
      </trkpt>
      <trkpt lat="41.9047870" lon="-2.9091050">
        <ele>1243.9</ele>
        <time>2022-02-08T09:50:50Z</time>
      </trkpt>
      <trkpt lat="41.9047730" lon="-2.9090450">
        <ele>1243.8</ele>
        <time>2022-02-08T09:50:51Z</time>
      </trkpt>
      <trkpt lat="41.9047670" lon="-2.9089870">
        <ele>1243.7</ele>
        <time>2022-02-08T09:50:52Z</time>
      </trkpt>
      <trkpt lat="41.9047650" lon="-2.9089280">
        <ele>1243.6</ele>
        <time>2022-02-08T09:50:53Z</time>
      </trkpt>
      <trkpt lat="41.9047680" lon="-2.9088700">
        <ele>1243.5</ele>
        <time>2022-02-08T09:50:54Z</time>
      </trkpt>
      <trkpt lat="41.9047720" lon="-2.9088130">
        <ele>1243.5</ele>
        <time>2022-02-08T09:50:55Z</time>
      </trkpt>
      <trkpt lat="41.9047780" lon="-2.9087620">
        <ele>1243.4</ele>
        <time>2022-02-08T09:50:56Z</time>
      </trkpt>
      <trkpt lat="41.9047850" lon="-2.9087070">
        <ele>1243.4</ele>
        <time>2022-02-08T09:50:57Z</time>
      </trkpt>
      <trkpt lat="41.9047920" lon="-2.9086520">
        <ele>1243.4</ele>
        <time>2022-02-08T09:50:58Z</time>
      </trkpt>
      <trkpt lat="41.9047980" lon="-2.9086020">
        <ele>1243.4</ele>
        <time>2022-02-08T09:50:59Z</time>
      </trkpt>
      <trkpt lat="41.9048070" lon="-2.9085520">
        <ele>1243.3</ele>
        <time>2022-02-08T09:51:00Z</time>
      </trkpt>
      <trkpt lat="41.9048150" lon="-2.9085050">
        <ele>1243.3</ele>
        <time>2022-02-08T09:51:01Z</time>
      </trkpt>
      <trkpt lat="41.9048220" lon="-2.9084550">
        <ele>1243.4</ele>
        <time>2022-02-08T09:51:02Z</time>
      </trkpt>
      <trkpt lat="41.9048300" lon="-2.9084020">
        <ele>1243.4</ele>
        <time>2022-02-08T09:51:03Z</time>
      </trkpt>
      <trkpt lat="41.9048380" lon="-2.9083480">
        <ele>1243.4</ele>
        <time>2022-02-08T09:51:04Z</time>
      </trkpt>
      <trkpt lat="41.9048520" lon="-2.9082980">
        <ele>1243.4</ele>
        <time>2022-02-08T09:51:05Z</time>
      </trkpt>
      <trkpt lat="41.9048680" lon="-2.9082500">
        <ele>1243.5</ele>
        <time>2022-02-08T09:51:06Z</time>
      </trkpt>
      <trkpt lat="41.9048830" lon="-2.9082050">
        <ele>1243.5</ele>
        <time>2022-02-08T09:51:07Z</time>
      </trkpt>
      <trkpt lat="41.9048980" lon="-2.9081570">
        <ele>1243.6</ele>
        <time>2022-02-08T09:51:08Z</time>
      </trkpt>
      <trkpt lat="41.9049070" lon="-2.9081250">
        <ele>1243.7</ele>
        <time>2022-02-08T09:51:09Z</time>
      </trkpt>
      <trkpt lat="41.9049100" lon="-2.9080900">
        <ele>1243.7</ele>
        <time>2022-02-08T09:51:10Z</time>
      </trkpt>
      <trkpt lat="41.9049080" lon="-2.9080600">
        <ele>1243.8</ele>
        <time>2022-02-08T09:51:11Z</time>
      </trkpt>
      <trkpt lat="41.9049000" lon="-2.9080300">
        <ele>1243.8</ele>
        <time>2022-02-08T09:51:12Z</time>
      </trkpt>
      <trkpt lat="41.9048920" lon="-2.9080020">
        <ele>1244.1</ele>
        <time>2022-02-08T09:51:13Z</time>
      </trkpt>
      <trkpt lat="41.9048850" lon="-2.9079750">
        <ele>1244.2</ele>
        <time>2022-02-08T09:51:14Z</time>
      </trkpt>
      <trkpt lat="41.9048670" lon="-2.9079520">
        <ele>1244.4</ele>
        <time>2022-02-08T09:51:15Z</time>
      </trkpt>
      <trkpt lat="41.9048430" lon="-2.9079500">
        <ele>1244.5</ele>
        <time>2022-02-08T09:51:16Z</time>
      </trkpt>
      <trkpt lat="41.9048200" lon="-2.9079400">
        <ele>1244.6</ele>
        <time>2022-02-08T09:51:17Z</time>
      </trkpt>
      <trkpt lat="41.9047930" lon="-2.9079230">
        <ele>1244.8</ele>
        <time>2022-02-08T09:51:18Z</time>
      </trkpt>
      <trkpt lat="41.9047670" lon="-2.9079070">
        <ele>1244.9</ele>
        <time>2022-02-08T09:51:19Z</time>
      </trkpt>
      <trkpt lat="41.9047370" lon="-2.9078950">
        <ele>1245.1</ele>
        <time>2022-02-08T09:51:20Z</time>
      </trkpt>
      <trkpt lat="41.9047100" lon="-2.9078830">
        <ele>1245.2</ele>
        <time>2022-02-08T09:51:21Z</time>
      </trkpt>
      <trkpt lat="41.9046870" lon="-2.9078700">
        <ele>1245.4</ele>
        <time>2022-02-08T09:51:22Z</time>
      </trkpt>
      <trkpt lat="41.9046630" lon="-2.9078550">
        <ele>1245.5</ele>
        <time>2022-02-08T09:51:23Z</time>
      </trkpt>
      <trkpt lat="41.9046420" lon="-2.9078450">
        <ele>1245.6</ele>
        <time>2022-02-08T09:51:24Z</time>
      </trkpt>
      <trkpt lat="41.9046120" lon="-2.9078300">
        <ele>1245.8</ele>
        <time>2022-02-08T09:51:25Z</time>
      </trkpt>
      <trkpt lat="41.9045820" lon="-2.9078180">
        <ele>1245.9</ele>
        <time>2022-02-08T09:51:26Z</time>
      </trkpt>
      <trkpt lat="41.9045480" lon="-2.9078070">
        <ele>1246.1</ele>
        <time>2022-02-08T09:51:27Z</time>
      </trkpt>
      <trkpt lat="41.9045230" lon="-2.9077930">
        <ele>1246.3</ele>
        <time>2022-02-08T09:51:28Z</time>
      </trkpt>
      <trkpt lat="41.9044930" lon="-2.9077780">
        <ele>1246.5</ele>
        <time>2022-02-08T09:51:29Z</time>
      </trkpt>
      <trkpt lat="41.9044650" lon="-2.9077670">
        <ele>1246.6</ele>
        <time>2022-02-08T09:51:30Z</time>
      </trkpt>
      <trkpt lat="41.9044380" lon="-2.9077570">
        <ele>1246.8</ele>
        <time>2022-02-08T09:51:31Z</time>
      </trkpt>
      <trkpt lat="41.9044100" lon="-2.9077450">
        <ele>1247.0</ele>
        <time>2022-02-08T09:51:32Z</time>
      </trkpt>
      <trkpt lat="41.9043820" lon="-2.9077380">
        <ele>1247.2</ele>
        <time>2022-02-08T09:51:33Z</time>
      </trkpt>
      <trkpt lat="41.9043570" lon="-2.9077300">
        <ele>1247.4</ele>
        <time>2022-02-08T09:51:34Z</time>
      </trkpt>
      <trkpt lat="41.9043330" lon="-2.9077200">
        <ele>1247.6</ele>
        <time>2022-02-08T09:51:35Z</time>
      </trkpt>
      <trkpt lat="41.9043100" lon="-2.9077080">
        <ele>1247.9</ele>
        <time>2022-02-08T09:51:36Z</time>
      </trkpt>
      <trkpt lat="41.9042870" lon="-2.9077000">
        <ele>1248.1</ele>
        <time>2022-02-08T09:51:37Z</time>
      </trkpt>
      <trkpt lat="41.9042650" lon="-2.9076880">
        <ele>1248.3</ele>
        <time>2022-02-08T09:51:38Z</time>
      </trkpt>
      <trkpt lat="41.9042450" lon="-2.9076750">
        <ele>1248.5</ele>
        <time>2022-02-08T09:51:39Z</time>
      </trkpt>
      <trkpt lat="41.9042250" lon="-2.9076650">
        <ele>1248.7</ele>
        <time>2022-02-08T09:51:40Z</time>
      </trkpt>
      <trkpt lat="41.9042070" lon="-2.9076530">
        <ele>1248.9</ele>
        <time>2022-02-08T09:51:41Z</time>
      </trkpt>
      <trkpt lat="41.9041880" lon="-2.9076400">
        <ele>1249.1</ele>
        <time>2022-02-08T09:51:42Z</time>
      </trkpt>
      <trkpt lat="41.9041720" lon="-2.9076280">
        <ele>1249.2</ele>
        <time>2022-02-08T09:51:43Z</time>
      </trkpt>
      <trkpt lat="41.9041520" lon="-2.9076200">
        <ele>1249.4</ele>
        <time>2022-02-08T09:51:44Z</time>
      </trkpt>
      <trkpt lat="41.9041320" lon="-2.9076130">
        <ele>1249.5</ele>
        <time>2022-02-08T09:51:45Z</time>
      </trkpt>
      <trkpt lat="41.9041180" lon="-2.9076080">
        <ele>1249.6</ele>
        <time>2022-02-08T09:51:46Z</time>
      </trkpt>
      <trkpt lat="41.9041080" lon="-2.9075980">
        <ele>1249.7</ele>
        <time>2022-02-08T09:51:47Z</time>
      </trkpt>
      <trkpt lat="41.9040970" lon="-2.9075850">
        <ele>1249.7</ele>
        <time>2022-02-08T09:51:48Z</time>
      </trkpt>
      <trkpt lat="41.9040800" lon="-2.9075730">
        <ele>1249.8</ele>
        <time>2022-02-08T09:51:49Z</time>
      </trkpt>
      <trkpt lat="41.9040630" lon="-2.9075580">
        <ele>1249.9</ele>
        <time>2022-02-08T09:51:50Z</time>
      </trkpt>
      <trkpt lat="41.9040430" lon="-2.9075450">
        <ele>1249.9</ele>
        <time>2022-02-08T09:51:51Z</time>
      </trkpt>
      <trkpt lat="41.9040220" lon="-2.9075320">
        <ele>1249.9</ele>
        <time>2022-02-08T09:51:52Z</time>
      </trkpt>
      <trkpt lat="41.9039970" lon="-2.9075180">
        <ele>1249.9</ele>
        <time>2022-02-08T09:51:53Z</time>
      </trkpt>
      <trkpt lat="41.9039680" lon="-2.9075070">
        <ele>1249.9</ele>
        <time>2022-02-08T09:51:54Z</time>
      </trkpt>
      <trkpt lat="41.9039350" lon="-2.9074950">
        <ele>1249.8</ele>
        <time>2022-02-08T09:51:55Z</time>
      </trkpt>
      <trkpt lat="41.9038930" lon="-2.9074800">
        <ele>1249.7</ele>
        <time>2022-02-08T09:51:56Z</time>
      </trkpt>
      <trkpt lat="41.9038480" lon="-2.9074500">
        <ele>1249.5</ele>
        <time>2022-02-08T09:51:57Z</time>
      </trkpt>
      <trkpt lat="41.9038080" lon="-2.9074170">
        <ele>1249.3</ele>
        <time>2022-02-08T09:51:58Z</time>
      </trkpt>
      <trkpt lat="41.9037720" lon="-2.9073880">
        <ele>1249.2</ele>
        <time>2022-02-08T09:51:59Z</time>
      </trkpt>
      <trkpt lat="41.9037330" lon="-2.9073530">
        <ele>1249.1</ele>
        <time>2022-02-08T09:52:00Z</time>
      </trkpt>
      <trkpt lat="41.9036950" lon="-2.9073130">
        <ele>1249.0</ele>
        <time>2022-02-08T09:52:01Z</time>
      </trkpt>
      <trkpt lat="41.9036580" lon="-2.9072770">
        <ele>1248.9</ele>
        <time>2022-02-08T09:52:02Z</time>
      </trkpt>
      <trkpt lat="41.9036300" lon="-2.9072500">
        <ele>1248.9</ele>
        <time>2022-02-08T09:52:03Z</time>
      </trkpt>
      <trkpt lat="41.9036000" lon="-2.9072230">
        <ele>1248.9</ele>
        <time>2022-02-08T09:52:04Z</time>
      </trkpt>
      <trkpt lat="41.9035720" lon="-2.9071980">
        <ele>1248.9</ele>
        <time>2022-02-08T09:52:05Z</time>
      </trkpt>
      <trkpt lat="41.9035500" lon="-2.9071820">
        <ele>1248.9</ele>
        <time>2022-02-08T09:52:06Z</time>
      </trkpt>
      <trkpt lat="41.9035270" lon="-2.9071620">
        <ele>1249.0</ele>
        <time>2022-02-08T09:52:07Z</time>
      </trkpt>
      <trkpt lat="41.9035070" lon="-2.9071450">
        <ele>1249.0</ele>
        <time>2022-02-08T09:52:08Z</time>
      </trkpt>
      <trkpt lat="41.9034930" lon="-2.9071300">
        <ele>1249.0</ele>
        <time>2022-02-08T09:52:09Z</time>
      </trkpt>
      <trkpt lat="41.9034830" lon="-2.9071180">
        <ele>1249.1</ele>
        <time>2022-02-08T09:52:10Z</time>
      </trkpt>
      <trkpt lat="41.9034770" lon="-2.9071130">
        <ele>1249.1</ele>
        <time>2022-02-08T09:52:11Z</time>
      </trkpt>
      <trkpt lat="41.9034750" lon="-2.9071130">
        <ele>1249.1</ele>
        <time>2022-02-08T09:52:12Z</time>
      </trkpt>
      <trkpt lat="41.9034770" lon="-2.9071130">
        <ele>1249.1</ele>
        <time>2022-02-08T09:52:13Z</time>
      </trkpt>
      <trkpt lat="41.9034750" lon="-2.9071120">
        <ele>1249.1</ele>
        <time>2022-02-08T09:52:14Z</time>
      </trkpt>
      <trkpt lat="41.9034680" lon="-2.9071070">
        <ele>1249.1</ele>
        <time>2022-02-08T09:52:15Z</time>
      </trkpt>
      <trkpt lat="41.9034570" lon="-2.9070980">
        <ele>1249.1</ele>
        <time>2022-02-08T09:52:16Z</time>
      </trkpt>
      <trkpt lat="41.9034370" lon="-2.9070880">
        <ele>1249.1</ele>
        <time>2022-02-08T09:52:17Z</time>
      </trkpt>
      <trkpt lat="41.9034170" lon="-2.9070730">
        <ele>1249.2</ele>
        <time>2022-02-08T09:52:18Z</time>
      </trkpt>
      <trkpt lat="41.9033950" lon="-2.9070570">
        <ele>1249.2</ele>
        <time>2022-02-08T09:52:19Z</time>
      </trkpt>
      <trkpt lat="41.9033750" lon="-2.9070400">
        <ele>1249.2</ele>
        <time>2022-02-08T09:52:20Z</time>
      </trkpt>
      <trkpt lat="41.9033520" lon="-2.9070220">
        <ele>1249.2</ele>
        <time>2022-02-08T09:52:21Z</time>
      </trkpt>
      <trkpt lat="41.9033270" lon="-2.9070070">
        <ele>1249.3</ele>
        <time>2022-02-08T09:52:22Z</time>
      </trkpt>
      <trkpt lat="41.9033030" lon="-2.9069850">
        <ele>1249.3</ele>
        <time>2022-02-08T09:52:23Z</time>
      </trkpt>
      <trkpt lat="41.9032770" lon="-2.9069620">
        <ele>1249.3</ele>
        <time>2022-02-08T09:52:24Z</time>
      </trkpt>
      <trkpt lat="41.9032520" lon="-2.9069420">
        <ele>1249.3</ele>
        <time>2022-02-08T09:52:25Z</time>
      </trkpt>
      <trkpt lat="41.9032230" lon="-2.9069230">
        <ele>1249.3</ele>
        <time>2022-02-08T09:52:26Z</time>
      </trkpt>
      <trkpt lat="41.9031970" lon="-2.9069020">
        <ele>1249.4</ele>
        <time>2022-02-08T09:52:27Z</time>
      </trkpt>
      <trkpt lat="41.9031680" lon="-2.9068770">
        <ele>1249.5</ele>
        <time>2022-02-08T09:52:28Z</time>
      </trkpt>
      <trkpt lat="41.9031380" lon="-2.9068570">
        <ele>1249.6</ele>
        <time>2022-02-08T09:52:29Z</time>
      </trkpt>
      <trkpt lat="41.9031070" lon="-2.9068350">
        <ele>1249.6</ele>
        <time>2022-02-08T09:52:30Z</time>
      </trkpt>
      <trkpt lat="41.9030700" lon="-2.9068120">
        <ele>1249.7</ele>
        <time>2022-02-08T09:52:31Z</time>
      </trkpt>
      <trkpt lat="41.9030320" lon="-2.9067900">
        <ele>1249.8</ele>
        <time>2022-02-08T09:52:32Z</time>
      </trkpt>
      <trkpt lat="41.9029900" lon="-2.9067630">
        <ele>1249.9</ele>
        <time>2022-02-08T09:52:33Z</time>
      </trkpt>
      <trkpt lat="41.9029470" lon="-2.9067330">
        <ele>1250.0</ele>
        <time>2022-02-08T09:52:34Z</time>
      </trkpt>
      <trkpt lat="41.9029050" lon="-2.9067020">
        <ele>1250.1</ele>
        <time>2022-02-08T09:52:35Z</time>
      </trkpt>
      <trkpt lat="41.9028650" lon="-2.9066700">
        <ele>1250.3</ele>
        <time>2022-02-08T09:52:36Z</time>
      </trkpt>
      <trkpt lat="41.9028300" lon="-2.9066380">
        <ele>1250.4</ele>
        <time>2022-02-08T09:52:37Z</time>
      </trkpt>
      <trkpt lat="41.9028000" lon="-2.9066050">
        <ele>1250.5</ele>
        <time>2022-02-08T09:52:38Z</time>
      </trkpt>
      <trkpt lat="41.9027730" lon="-2.9065700">
        <ele>1250.7</ele>
        <time>2022-02-08T09:52:39Z</time>
      </trkpt>
      <trkpt lat="41.9027500" lon="-2.9065320">
        <ele>1250.8</ele>
        <time>2022-02-08T09:52:40Z</time>
      </trkpt>
      <trkpt lat="41.9027300" lon="-2.9064950">
        <ele>1250.9</ele>
        <time>2022-02-08T09:52:41Z</time>
      </trkpt>
      <trkpt lat="41.9027130" lon="-2.9064550">
        <ele>1251.0</ele>
        <time>2022-02-08T09:52:42Z</time>
      </trkpt>
      <trkpt lat="41.9026970" lon="-2.9064150">
        <ele>1251.1</ele>
        <time>2022-02-08T09:52:43Z</time>
      </trkpt>
      <trkpt lat="41.9026850" lon="-2.9063750">
        <ele>1251.2</ele>
        <time>2022-02-08T09:52:44Z</time>
      </trkpt>
      <trkpt lat="41.9026720" lon="-2.9063350">
        <ele>1251.4</ele>
        <time>2022-02-08T09:52:45Z</time>
      </trkpt>
      <trkpt lat="41.9026600" lon="-2.9062950">
        <ele>1251.5</ele>
        <time>2022-02-08T09:52:46Z</time>
      </trkpt>
      <trkpt lat="41.9026500" lon="-2.9062580">
        <ele>1251.6</ele>
        <time>2022-02-08T09:52:47Z</time>
      </trkpt>
      <trkpt lat="41.9026430" lon="-2.9062200">
        <ele>1251.8</ele>
        <time>2022-02-08T09:52:48Z</time>
      </trkpt>
      <trkpt lat="41.9026350" lon="-2.9061820">
        <ele>1251.9</ele>
        <time>2022-02-08T09:52:49Z</time>
      </trkpt>
      <trkpt lat="41.9026270" lon="-2.9061470">
        <ele>1252.0</ele>
        <time>2022-02-08T09:52:50Z</time>
      </trkpt>
      <trkpt lat="41.9026200" lon="-2.9061120">
        <ele>1252.2</ele>
        <time>2022-02-08T09:52:51Z</time>
      </trkpt>
      <trkpt lat="41.9026150" lon="-2.9060720">
        <ele>1252.3</ele>
        <time>2022-02-08T09:52:52Z</time>
      </trkpt>
      <trkpt lat="41.9026120" lon="-2.9060300">
        <ele>1252.5</ele>
        <time>2022-02-08T09:52:53Z</time>
      </trkpt>
      <trkpt lat="41.9026070" lon="-2.9059880">
        <ele>1252.7</ele>
        <time>2022-02-08T09:52:54Z</time>
      </trkpt>
      <trkpt lat="41.9026000" lon="-2.9059530">
        <ele>1252.9</ele>
        <time>2022-02-08T09:52:55Z</time>
      </trkpt>
      <trkpt lat="41.9025930" lon="-2.9059180">
        <ele>1253.1</ele>
        <time>2022-02-08T09:52:56Z</time>
      </trkpt>
      <trkpt lat="41.9025830" lon="-2.9058830">
        <ele>1253.2</ele>
        <time>2022-02-08T09:52:57Z</time>
      </trkpt>
      <trkpt lat="41.9025750" lon="-2.9058470">
        <ele>1253.4</ele>
        <time>2022-02-08T09:52:58Z</time>
      </trkpt>
      <trkpt lat="41.9025670" lon="-2.9058130">
        <ele>1253.6</ele>
        <time>2022-02-08T09:52:59Z</time>
      </trkpt>
      <trkpt lat="41.9025550" lon="-2.9057800">
        <ele>1253.8</ele>
        <time>2022-02-08T09:53:00Z</time>
      </trkpt>
      <trkpt lat="41.9025450" lon="-2.9057480">
        <ele>1253.9</ele>
        <time>2022-02-08T09:53:01Z</time>
      </trkpt>
      <trkpt lat="41.9025330" lon="-2.9057130">
        <ele>1254.1</ele>
        <time>2022-02-08T09:53:02Z</time>
      </trkpt>
      <trkpt lat="41.9025230" lon="-2.9056780">
        <ele>1254.3</ele>
        <time>2022-02-08T09:53:03Z</time>
      </trkpt>
      <trkpt lat="41.9025120" lon="-2.9056420">
        <ele>1254.5</ele>
        <time>2022-02-08T09:53:04Z</time>
      </trkpt>
      <trkpt lat="41.9025020" lon="-2.9056080">
        <ele>1254.6</ele>
        <time>2022-02-08T09:53:05Z</time>
      </trkpt>
      <trkpt lat="41.9024900" lon="-2.9055780">
        <ele>1254.8</ele>
        <time>2022-02-08T09:53:06Z</time>
      </trkpt>
      <trkpt lat="41.9024830" lon="-2.9055500">
        <ele>1254.9</ele>
        <time>2022-02-08T09:53:07Z</time>
      </trkpt>
      <trkpt lat="41.9024770" lon="-2.9055220">
        <ele>1257.4</ele>
        <time>2022-02-08T09:53:08Z</time>
      </trkpt>
      <trkpt lat="41.9024720" lon="-2.9055030">
        <ele>1257.6</ele>
        <time>2022-02-08T09:53:09Z</time>
      </trkpt>
      <trkpt lat="41.9024650" lon="-2.9054830">
        <ele>1257.9</ele>
        <time>2022-02-08T09:53:10Z</time>
      </trkpt>
      <trkpt lat="41.9024580" lon="-2.9054670">
        <ele>1258.1</ele>
        <time>2022-02-08T09:53:11Z</time>
      </trkpt>
      <trkpt lat="41.9024530" lon="-2.9054480">
        <ele>1258.4</ele>
        <time>2022-02-08T09:53:12Z</time>
      </trkpt>
      <trkpt lat="41.9024470" lon="-2.9054270">
        <ele>1258.7</ele>
        <time>2022-02-08T09:53:13Z</time>
      </trkpt>
      <trkpt lat="41.9024420" lon="-2.9054070">
        <ele>1259.0</ele>
        <time>2022-02-08T09:53:14Z</time>
      </trkpt>
      <trkpt lat="41.9024330" lon="-2.9053900">
        <ele>1259.3</ele>
        <time>2022-02-08T09:53:15Z</time>
      </trkpt>
      <trkpt lat="41.9024200" lon="-2.9053730">
        <ele>1259.7</ele>
        <time>2022-02-08T09:53:16Z</time>
      </trkpt>
      <trkpt lat="41.9024050" lon="-2.9053570">
        <ele>1260.2</ele>
        <time>2022-02-08T09:53:17Z</time>
      </trkpt>
      <trkpt lat="41.9023920" lon="-2.9053420">
        <ele>1260.6</ele>
        <time>2022-02-08T09:53:18Z</time>
      </trkpt>
      <trkpt lat="41.9023820" lon="-2.9053280">
        <ele>1260.9</ele>
        <time>2022-02-08T09:53:19Z</time>
      </trkpt>
      <trkpt lat="41.9023770" lon="-2.9053130">
        <ele>1261.2</ele>
        <time>2022-02-08T09:53:20Z</time>
      </trkpt>
      <trkpt lat="41.9023750" lon="-2.9053000">
        <ele>1261.4</ele>
        <time>2022-02-08T09:53:21Z</time>
      </trkpt>
      <trkpt lat="41.9023700" lon="-2.9052830">
        <ele>1261.8</ele>
        <time>2022-02-08T09:53:22Z</time>
      </trkpt>
      <trkpt lat="41.9023620" lon="-2.9052670">
        <ele>1262.1</ele>
        <time>2022-02-08T09:53:23Z</time>
      </trkpt>
      <trkpt lat="41.9023520" lon="-2.9052520">
        <ele>1262.5</ele>
        <time>2022-02-08T09:53:24Z</time>
      </trkpt>
      <trkpt lat="41.9023430" lon="-2.9052370">
        <ele>1262.8</ele>
        <time>2022-02-08T09:53:25Z</time>
      </trkpt>
      <trkpt lat="41.9023350" lon="-2.9052180">
        <ele>1263.2</ele>
        <time>2022-02-08T09:53:26Z</time>
      </trkpt>
      <trkpt lat="41.9023250" lon="-2.9052020">
        <ele>1263.5</ele>
        <time>2022-02-08T09:53:27Z</time>
      </trkpt>
      <trkpt lat="41.9023170" lon="-2.9051850">
        <ele>1263.8</ele>
        <time>2022-02-08T09:53:28Z</time>
      </trkpt>
      <trkpt lat="41.9023150" lon="-2.9051650">
        <ele>1264.2</ele>
        <time>2022-02-08T09:53:29Z</time>
      </trkpt>
      <trkpt lat="41.9023120" lon="-2.9051480">
        <ele>1264.5</ele>
        <time>2022-02-08T09:53:30Z</time>
      </trkpt>
      <trkpt lat="41.9023120" lon="-2.9051280">
        <ele>1264.8</ele>
        <time>2022-02-08T09:53:31Z</time>
      </trkpt>
      <trkpt lat="41.9023120" lon="-2.9051100">
        <ele>1265.1</ele>
        <time>2022-02-08T09:53:32Z</time>
      </trkpt>
      <trkpt lat="41.9023170" lon="-2.9050920">
        <ele>1265.4</ele>
        <time>2022-02-08T09:53:33Z</time>
      </trkpt>
      <trkpt lat="41.9023250" lon="-2.9050750">
        <ele>1265.7</ele>
        <time>2022-02-08T09:53:34Z</time>
      </trkpt>
      <trkpt lat="41.9023330" lon="-2.9050600">
        <ele>1266.0</ele>
        <time>2022-02-08T09:53:35Z</time>
      </trkpt>
      <trkpt lat="41.9023400" lon="-2.9050450">
        <ele>1266.3</ele>
        <time>2022-02-08T09:53:36Z</time>
      </trkpt>
      <trkpt lat="41.9023480" lon="-2.9050280">
        <ele>1266.7</ele>
        <time>2022-02-08T09:53:37Z</time>
      </trkpt>
      <trkpt lat="41.9023600" lon="-2.9050170">
        <ele>1267.0</ele>
        <time>2022-02-08T09:53:38Z</time>
      </trkpt>
      <trkpt lat="41.9023700" lon="-2.9050030">
        <ele>1267.3</ele>
        <time>2022-02-08T09:53:39Z</time>
      </trkpt>
      <trkpt lat="41.9023820" lon="-2.9049920">
        <ele>1267.7</ele>
        <time>2022-02-08T09:53:40Z</time>
      </trkpt>
      <trkpt lat="41.9023950" lon="-2.9049820">
        <ele>1268.0</ele>
        <time>2022-02-08T09:53:41Z</time>
      </trkpt>
      <trkpt lat="41.9024050" lon="-2.9049750">
        <ele>1268.3</ele>
        <time>2022-02-08T09:53:42Z</time>
      </trkpt>
      <trkpt lat="41.9024130" lon="-2.9049670">
        <ele>1268.5</ele>
        <time>2022-02-08T09:53:43Z</time>
      </trkpt>
      <trkpt lat="41.9024220" lon="-2.9049670">
        <ele>1268.7</ele>
        <time>2022-02-08T09:53:44Z</time>
      </trkpt>
      <trkpt lat="41.9024370" lon="-2.9049650">
        <ele>1269.0</ele>
        <time>2022-02-08T09:53:45Z</time>
      </trkpt>
      <trkpt lat="41.9024550" lon="-2.9049580">
        <ele>1269.5</ele>
        <time>2022-02-08T09:53:46Z</time>
      </trkpt>
      <trkpt lat="41.9024700" lon="-2.9049530">
        <ele>1269.8</ele>
        <time>2022-02-08T09:53:47Z</time>
      </trkpt>
      <trkpt lat="41.9024850" lon="-2.9049480">
        <ele>1270.2</ele>
        <time>2022-02-08T09:53:48Z</time>
      </trkpt>
      <trkpt lat="41.9025000" lon="-2.9049400">
        <ele>1270.5</ele>
        <time>2022-02-08T09:53:49Z</time>
      </trkpt>
      <trkpt lat="41.9025150" lon="-2.9049320">
        <ele>1270.9</ele>
        <time>2022-02-08T09:53:50Z</time>
      </trkpt>
      <trkpt lat="41.9025300" lon="-2.9049270">
        <ele>1271.2</ele>
        <time>2022-02-08T09:53:51Z</time>
      </trkpt>
      <trkpt lat="41.9025380" lon="-2.9049130">
        <ele>1271.5</ele>
        <time>2022-02-08T09:53:52Z</time>
      </trkpt>
      <trkpt lat="41.9025470" lon="-2.9049180">
        <ele>1271.7</ele>
        <time>2022-02-08T09:53:53Z</time>
      </trkpt>
      <trkpt lat="41.9025620" lon="-2.9049170">
        <ele>1272.0</ele>
        <time>2022-02-08T09:53:54Z</time>
      </trkpt>
      <trkpt lat="41.9025720" lon="-2.9049080">
        <ele>1272.3</ele>
        <time>2022-02-08T09:53:55Z</time>
      </trkpt>
      <trkpt lat="41.9025800" lon="-2.9048980">
        <ele>1272.5</ele>
        <time>2022-02-08T09:53:56Z</time>
      </trkpt>
      <trkpt lat="41.9025900" lon="-2.9048880">
        <ele>1272.7</ele>
        <time>2022-02-08T09:53:57Z</time>
      </trkpt>
      <trkpt lat="41.9025950" lon="-2.9048730">
        <ele>1273.0</ele>
        <time>2022-02-08T09:53:58Z</time>
      </trkpt>
      <trkpt lat="41.9025970" lon="-2.9048570">
        <ele>1273.2</ele>
        <time>2022-02-08T09:53:59Z</time>
      </trkpt>
      <trkpt lat="41.9025900" lon="-2.9048380">
        <ele>1273.6</ele>
        <time>2022-02-08T09:54:00Z</time>
      </trkpt>
      <trkpt lat="41.9025800" lon="-2.9048200">
        <ele>1273.9</ele>
        <time>2022-02-08T09:54:01Z</time>
      </trkpt>
      <trkpt lat="41.9025680" lon="-2.9048050">
        <ele>1274.2</ele>
        <time>2022-02-08T09:54:02Z</time>
      </trkpt>
      <trkpt lat="41.9025580" lon="-2.9047870">
        <ele>1274.6</ele>
        <time>2022-02-08T09:54:03Z</time>
      </trkpt>
      <trkpt lat="41.9025480" lon="-2.9047630">
        <ele>1275.0</ele>
        <time>2022-02-08T09:54:04Z</time>
      </trkpt>
      <trkpt lat="41.9025470" lon="-2.9047500">
        <ele>1275.1</ele>
        <time>2022-02-08T09:54:05Z</time>
      </trkpt>
      <trkpt lat="41.9025380" lon="-2.9047330">
        <ele>1275.4</ele>
        <time>2022-02-08T09:54:06Z</time>
      </trkpt>
      <trkpt lat="41.9025280" lon="-2.9047200">
        <ele>1275.7</ele>
        <time>2022-02-08T09:54:07Z</time>
      </trkpt>
      <trkpt lat="41.9025180" lon="-2.9047050">
        <ele>1275.9</ele>
        <time>2022-02-08T09:54:08Z</time>
      </trkpt>
      <trkpt lat="41.9025080" lon="-2.9046920">
        <ele>1276.2</ele>
        <time>2022-02-08T09:54:09Z</time>
      </trkpt>
      <trkpt lat="41.9025000" lon="-2.9046770">
        <ele>1276.4</ele>
        <time>2022-02-08T09:54:10Z</time>
      </trkpt>
      <trkpt lat="41.9024920" lon="-2.9046580">
        <ele>1276.6</ele>
        <time>2022-02-08T09:54:11Z</time>
      </trkpt>
      <trkpt lat="41.9024830" lon="-2.9046420">
        <ele>1276.9</ele>
        <time>2022-02-08T09:54:12Z</time>
      </trkpt>
      <trkpt lat="41.9024770" lon="-2.9046230">
        <ele>1277.1</ele>
        <time>2022-02-08T09:54:13Z</time>
      </trkpt>
      <trkpt lat="41.9024700" lon="-2.9046070">
        <ele>1277.3</ele>
        <time>2022-02-08T09:54:14Z</time>
      </trkpt>
      <trkpt lat="41.9024650" lon="-2.9045900">
        <ele>1277.4</ele>
        <time>2022-02-08T09:54:15Z</time>
      </trkpt>
      <trkpt lat="41.9024520" lon="-2.9045680">
        <ele>1277.7</ele>
        <time>2022-02-08T09:54:16Z</time>
      </trkpt>
      <trkpt lat="41.9024420" lon="-2.9045450">
        <ele>1277.9</ele>
        <time>2022-02-08T09:54:17Z</time>
      </trkpt>
      <trkpt lat="41.9024350" lon="-2.9045220">
        <ele>1278.2</ele>
        <time>2022-02-08T09:54:18Z</time>
      </trkpt>
      <trkpt lat="41.9024270" lon="-2.9044980">
        <ele>1278.4</ele>
        <time>2022-02-08T09:54:19Z</time>
      </trkpt>
      <trkpt lat="41.9024170" lon="-2.9044770">
        <ele>1278.6</ele>
        <time>2022-02-08T09:54:20Z</time>
      </trkpt>
      <trkpt lat="41.9024100" lon="-2.9044570">
        <ele>1278.8</ele>
        <time>2022-02-08T09:54:21Z</time>
      </trkpt>
      <trkpt lat="41.9024030" lon="-2.9044400">
        <ele>1279.0</ele>
        <time>2022-02-08T09:54:22Z</time>
      </trkpt>
      <trkpt lat="41.9023980" lon="-2.9044220">
        <ele>1279.1</ele>
        <time>2022-02-08T09:54:23Z</time>
      </trkpt>
      <trkpt lat="41.9023920" lon="-2.9044070">
        <ele>1279.3</ele>
        <time>2022-02-08T09:54:24Z</time>
      </trkpt>
      <trkpt lat="41.9023830" lon="-2.9043950">
        <ele>1279.4</ele>
        <time>2022-02-08T09:54:25Z</time>
      </trkpt>
      <trkpt lat="41.9023730" lon="-2.9043800">
        <ele>1279.6</ele>
        <time>2022-02-08T09:54:26Z</time>
      </trkpt>
      <trkpt lat="41.9023630" lon="-2.9043630">
        <ele>1279.8</ele>
        <time>2022-02-08T09:54:27Z</time>
      </trkpt>
      <trkpt lat="41.9023500" lon="-2.9043450">
        <ele>1280.0</ele>
        <time>2022-02-08T09:54:28Z</time>
      </trkpt>
      <trkpt lat="41.9023380" lon="-2.9043270">
        <ele>1280.3</ele>
        <time>2022-02-08T09:54:29Z</time>
      </trkpt>
      <trkpt lat="41.9023300" lon="-2.9043100">
        <ele>1280.4</ele>
        <time>2022-02-08T09:54:30Z</time>
      </trkpt>
      <trkpt lat="41.9023230" lon="-2.9042930">
        <ele>1280.6</ele>
        <time>2022-02-08T09:54:31Z</time>
      </trkpt>
      <trkpt lat="41.9023170" lon="-2.9042750">
        <ele>1280.8</ele>
        <time>2022-02-08T09:54:32Z</time>
      </trkpt>
      <trkpt lat="41.9023100" lon="-2.9042530">
        <ele>1281.0</ele>
        <time>2022-02-08T09:54:33Z</time>
      </trkpt>
      <trkpt lat="41.9023030" lon="-2.9042320">
        <ele>1281.2</ele>
        <time>2022-02-08T09:54:34Z</time>
      </trkpt>
      <trkpt lat="41.9022950" lon="-2.9042100">
        <ele>1281.4</ele>
        <time>2022-02-08T09:54:35Z</time>
      </trkpt>
      <trkpt lat="41.9022880" lon="-2.9041880">
        <ele>1281.6</ele>
        <time>2022-02-08T09:54:36Z</time>
      </trkpt>
      <trkpt lat="41.9022820" lon="-2.9041630">
        <ele>1281.8</ele>
        <time>2022-02-08T09:54:37Z</time>
      </trkpt>
      <trkpt lat="41.9022720" lon="-2.9041380">
        <ele>1282.1</ele>
        <time>2022-02-08T09:54:38Z</time>
      </trkpt>
      <trkpt lat="41.9022600" lon="-2.9041120">
        <ele>1282.3</ele>
        <time>2022-02-08T09:54:39Z</time>
      </trkpt>
      <trkpt lat="41.9022480" lon="-2.9040850">
        <ele>1282.6</ele>
        <time>2022-02-08T09:54:40Z</time>
      </trkpt>
      <trkpt lat="41.9022380" lon="-2.9040570">
        <ele>1282.8</ele>
        <time>2022-02-08T09:54:41Z</time>
      </trkpt>
      <trkpt lat="41.9022250" lon="-2.9040270">
        <ele>1283.1</ele>
        <time>2022-02-08T09:54:42Z</time>
      </trkpt>
      <trkpt lat="41.9022150" lon="-2.9039950">
        <ele>1283.4</ele>
        <time>2022-02-08T09:54:43Z</time>
      </trkpt>
      <trkpt lat="41.9022070" lon="-2.9039680">
        <ele>1283.7</ele>
        <time>2022-02-08T09:54:44Z</time>
      </trkpt>
      <trkpt lat="41.9021980" lon="-2.9039430">
        <ele>1283.9</ele>
        <time>2022-02-08T09:54:45Z</time>
      </trkpt>
      <trkpt lat="41.9021930" lon="-2.9039200">
        <ele>1284.2</ele>
        <time>2022-02-08T09:54:46Z</time>
      </trkpt>
      <trkpt lat="41.9021930" lon="-2.9038950">
        <ele>1284.5</ele>
        <time>2022-02-08T09:54:47Z</time>
      </trkpt>
      <trkpt lat="41.9021950" lon="-2.9038700">
        <ele>1284.7</ele>
        <time>2022-02-08T09:54:48Z</time>
      </trkpt>
      <trkpt lat="41.9021930" lon="-2.9038480">
        <ele>1285.0</ele>
        <time>2022-02-08T09:54:49Z</time>
      </trkpt>
      <trkpt lat="41.9021920" lon="-2.9038270">
        <ele>1285.2</ele>
        <time>2022-02-08T09:54:50Z</time>
      </trkpt>
      <trkpt lat="41.9021900" lon="-2.9038070">
        <ele>1285.5</ele>
        <time>2022-02-08T09:54:51Z</time>
      </trkpt>
      <trkpt lat="41.9021880" lon="-2.9037880">
        <ele>1285.7</ele>
        <time>2022-02-08T09:54:52Z</time>
      </trkpt>
      <trkpt lat="41.9021870" lon="-2.9037680">
        <ele>1286.0</ele>
        <time>2022-02-08T09:54:53Z</time>
      </trkpt>
      <trkpt lat="41.9021850" lon="-2.9037480">
        <ele>1286.2</ele>
        <time>2022-02-08T09:54:54Z</time>
      </trkpt>
      <trkpt lat="41.9021820" lon="-2.9037300">
        <ele>1286.5</ele>
        <time>2022-02-08T09:54:55Z</time>
      </trkpt>
      <trkpt lat="41.9021800" lon="-2.9037080">
        <ele>1286.8</ele>
        <time>2022-02-08T09:54:56Z</time>
      </trkpt>
      <trkpt lat="41.9021750" lon="-2.9036900">
        <ele>1287.0</ele>
        <time>2022-02-08T09:54:57Z</time>
      </trkpt>
      <trkpt lat="41.9021720" lon="-2.9036730">
        <ele>1287.3</ele>
        <time>2022-02-08T09:54:58Z</time>
      </trkpt>
      <trkpt lat="41.9021700" lon="-2.9036550">
        <ele>1287.5</ele>
        <time>2022-02-08T09:54:59Z</time>
      </trkpt>
      <trkpt lat="41.9021670" lon="-2.9036370">
        <ele>1287.8</ele>
        <time>2022-02-08T09:55:00Z</time>
      </trkpt>
      <trkpt lat="41.9021630" lon="-2.9036170">
        <ele>1288.1</ele>
        <time>2022-02-08T09:55:01Z</time>
      </trkpt>
      <trkpt lat="41.9021650" lon="-2.9036000">
        <ele>1288.3</ele>
        <time>2022-02-08T09:55:02Z</time>
      </trkpt>
      <trkpt lat="41.9021650" lon="-2.9035830">
        <ele>1288.6</ele>
        <time>2022-02-08T09:55:03Z</time>
      </trkpt>
      <trkpt lat="41.9021670" lon="-2.9035630">
        <ele>1288.8</ele>
        <time>2022-02-08T09:55:04Z</time>
      </trkpt>
      <trkpt lat="41.9021670" lon="-2.9035480">
        <ele>1289.0</ele>
        <time>2022-02-08T09:55:05Z</time>
      </trkpt>
      <trkpt lat="41.9021650" lon="-2.9035330">
        <ele>1289.3</ele>
        <time>2022-02-08T09:55:06Z</time>
      </trkpt>
      <trkpt lat="41.9021630" lon="-2.9035130">
        <ele>1289.5</ele>
        <time>2022-02-08T09:55:07Z</time>
      </trkpt>
      <trkpt lat="41.9021620" lon="-2.9034950">
        <ele>1289.8</ele>
        <time>2022-02-08T09:55:08Z</time>
      </trkpt>
      <trkpt lat="41.9021580" lon="-2.9034830">
        <ele>1290.0</ele>
        <time>2022-02-08T09:55:09Z</time>
      </trkpt>
      <trkpt lat="41.9021480" lon="-2.9034650">
        <ele>1290.3</ele>
        <time>2022-02-08T09:55:10Z</time>
      </trkpt>
      <trkpt lat="41.9021380" lon="-2.9034480">
        <ele>1290.6</ele>
        <time>2022-02-08T09:55:11Z</time>
      </trkpt>
      <trkpt lat="41.9021280" lon="-2.9034350">
        <ele>1290.8</ele>
        <time>2022-02-08T09:55:12Z</time>
      </trkpt>
      <trkpt lat="41.9021270" lon="-2.9034200">
        <ele>1291.1</ele>
        <time>2022-02-08T09:55:13Z</time>
      </trkpt>
      <trkpt lat="41.9021230" lon="-2.9034050">
        <ele>1291.3</ele>
        <time>2022-02-08T09:55:14Z</time>
      </trkpt>
      <trkpt lat="41.9021170" lon="-2.9033830">
        <ele>1291.6</ele>
        <time>2022-02-08T09:55:15Z</time>
      </trkpt>
      <trkpt lat="41.9021120" lon="-2.9033620">
        <ele>1291.9</ele>
        <time>2022-02-08T09:55:16Z</time>
      </trkpt>
      <trkpt lat="41.9021070" lon="-2.9033430">
        <ele>1292.2</ele>
        <time>2022-02-08T09:55:17Z</time>
      </trkpt>
      <trkpt lat="41.9021020" lon="-2.9033270">
        <ele>1292.4</ele>
        <time>2022-02-08T09:55:18Z</time>
      </trkpt>
      <trkpt lat="41.9020920" lon="-2.9033120">
        <ele>1292.7</ele>
        <time>2022-02-08T09:55:19Z</time>
      </trkpt>
      <trkpt lat="41.9020780" lon="-2.9032880">
        <ele>1293.1</ele>
        <time>2022-02-08T09:55:20Z</time>
      </trkpt>
      <trkpt lat="41.9020650" lon="-2.9032650">
        <ele>1293.5</ele>
        <time>2022-02-08T09:55:21Z</time>
      </trkpt>
      <trkpt lat="41.9020530" lon="-2.9032430">
        <ele>1293.9</ele>
        <time>2022-02-08T09:55:22Z</time>
      </trkpt>
      <trkpt lat="41.9020500" lon="-2.9032270">
        <ele>1294.1</ele>
        <time>2022-02-08T09:55:23Z</time>
      </trkpt>
      <trkpt lat="41.9020470" lon="-2.9032080">
        <ele>1294.3</ele>
        <time>2022-02-08T09:55:24Z</time>
      </trkpt>
      <trkpt lat="41.9020420" lon="-2.9031900">
        <ele>1294.5</ele>
        <time>2022-02-08T09:55:25Z</time>
      </trkpt>
      <trkpt lat="41.9020370" lon="-2.9031700">
        <ele>1294.8</ele>
        <time>2022-02-08T09:55:26Z</time>
      </trkpt>
      <trkpt lat="41.9020320" lon="-2.9031480">
        <ele>1295.0</ele>
        <time>2022-02-08T09:55:27Z</time>
      </trkpt>
      <trkpt lat="41.9020320" lon="-2.9031300">
        <ele>1295.2</ele>
        <time>2022-02-08T09:55:28Z</time>
      </trkpt>
      <trkpt lat="41.9020270" lon="-2.9031120">
        <ele>1295.4</ele>
        <time>2022-02-08T09:55:29Z</time>
      </trkpt>
      <trkpt lat="41.9020220" lon="-2.9030930">
        <ele>1295.6</ele>
        <time>2022-02-08T09:55:30Z</time>
      </trkpt>
      <trkpt lat="41.9020170" lon="-2.9030780">
        <ele>1295.8</ele>
        <time>2022-02-08T09:55:31Z</time>
      </trkpt>
      <trkpt lat="41.9020150" lon="-2.9030600">
        <ele>1296.0</ele>
        <time>2022-02-08T09:55:32Z</time>
      </trkpt>
      <trkpt lat="41.9020150" lon="-2.9030420">
        <ele>1296.1</ele>
        <time>2022-02-08T09:55:33Z</time>
      </trkpt>
      <trkpt lat="41.9020130" lon="-2.9030220">
        <ele>1296.3</ele>
        <time>2022-02-08T09:55:34Z</time>
      </trkpt>
      <trkpt lat="41.9020120" lon="-2.9030030">
        <ele>1296.5</ele>
        <time>2022-02-08T09:55:35Z</time>
      </trkpt>
      <trkpt lat="41.9020100" lon="-2.9029820">
        <ele>1296.7</ele>
        <time>2022-02-08T09:55:36Z</time>
      </trkpt>
      <trkpt lat="41.9020070" lon="-2.9029580">
        <ele>1296.9</ele>
        <time>2022-02-08T09:55:37Z</time>
      </trkpt>
      <trkpt lat="41.9020050" lon="-2.9029350">
        <ele>1297.1</ele>
        <time>2022-02-08T09:55:38Z</time>
      </trkpt>
      <trkpt lat="41.9020030" lon="-2.9029130">
        <ele>1297.3</ele>
        <time>2022-02-08T09:55:39Z</time>
      </trkpt>
      <trkpt lat="41.9020030" lon="-2.9028900">
        <ele>1297.4</ele>
        <time>2022-02-08T09:55:40Z</time>
      </trkpt>
      <trkpt lat="41.9020030" lon="-2.9028680">
        <ele>1297.6</ele>
        <time>2022-02-08T09:55:41Z</time>
      </trkpt>
      <trkpt lat="41.9020030" lon="-2.9028480">
        <ele>1297.7</ele>
        <time>2022-02-08T09:55:42Z</time>
      </trkpt>
      <trkpt lat="41.9020030" lon="-2.9028320">
        <ele>1297.8</ele>
        <time>2022-02-08T09:55:43Z</time>
      </trkpt>
      <trkpt lat="41.9019980" lon="-2.9028130">
        <ele>1298.0</ele>
        <time>2022-02-08T09:55:44Z</time>
      </trkpt>
      <trkpt lat="41.9019930" lon="-2.9027970">
        <ele>1298.1</ele>
        <time>2022-02-08T09:55:45Z</time>
      </trkpt>
      <trkpt lat="41.9019920" lon="-2.9027730">
        <ele>1298.2</ele>
        <time>2022-02-08T09:55:46Z</time>
      </trkpt>
      <trkpt lat="41.9019920" lon="-2.9027530">
        <ele>1298.4</ele>
        <time>2022-02-08T09:55:47Z</time>
      </trkpt>
      <trkpt lat="41.9019850" lon="-2.9027370">
        <ele>1298.5</ele>
        <time>2022-02-08T09:55:48Z</time>
      </trkpt>
      <trkpt lat="41.9019800" lon="-2.9027150">
        <ele>1298.6</ele>
        <time>2022-02-08T09:55:49Z</time>
      </trkpt>
      <trkpt lat="41.9019750" lon="-2.9026980">
        <ele>1298.8</ele>
        <time>2022-02-08T09:55:50Z</time>
      </trkpt>
      <trkpt lat="41.9019720" lon="-2.9026820">
        <ele>1298.9</ele>
        <time>2022-02-08T09:55:51Z</time>
      </trkpt>
      <trkpt lat="41.9019530" lon="-2.9026430">
        <ele>1299.2</ele>
        <time>2022-02-08T09:55:52Z</time>
      </trkpt>
      <trkpt lat="41.9019400" lon="-2.9026150">
        <ele>1299.4</ele>
        <time>2022-02-08T09:55:53Z</time>
      </trkpt>
      <trkpt lat="41.9019370" lon="-2.9025800">
        <ele>1299.6</ele>
        <time>2022-02-08T09:55:54Z</time>
      </trkpt>
      <trkpt lat="41.9019280" lon="-2.9025550">
        <ele>1299.8</ele>
        <time>2022-02-08T09:55:55Z</time>
      </trkpt>
      <trkpt lat="41.9019230" lon="-2.9025350">
        <ele>1300.0</ele>
        <time>2022-02-08T09:55:56Z</time>
      </trkpt>
      <trkpt lat="41.9019230" lon="-2.9025100">
        <ele>1300.1</ele>
        <time>2022-02-08T09:55:57Z</time>
      </trkpt>
      <trkpt lat="41.9019220" lon="-2.9024920">
        <ele>1300.3</ele>
        <time>2022-02-08T09:55:58Z</time>
      </trkpt>
      <trkpt lat="41.9019150" lon="-2.9024770">
        <ele>1300.4</ele>
        <time>2022-02-08T09:55:59Z</time>
      </trkpt>
      <trkpt lat="41.9019030" lon="-2.9024600">
        <ele>1300.5</ele>
        <time>2022-02-08T09:56:00Z</time>
      </trkpt>
      <trkpt lat="41.9018970" lon="-2.9024400">
        <ele>1300.7</ele>
        <time>2022-02-08T09:56:01Z</time>
      </trkpt>
      <trkpt lat="41.9018880" lon="-2.9024200">
        <ele>1300.9</ele>
        <time>2022-02-08T09:56:02Z</time>
      </trkpt>
      <trkpt lat="41.9018830" lon="-2.9024000">
        <ele>1301.0</ele>
        <time>2022-02-08T09:56:03Z</time>
      </trkpt>
      <trkpt lat="41.9018780" lon="-2.9023780">
        <ele>1301.2</ele>
        <time>2022-02-08T09:56:04Z</time>
      </trkpt>
      <trkpt lat="41.9018720" lon="-2.9023600">
        <ele>1301.3</ele>
        <time>2022-02-08T09:56:05Z</time>
      </trkpt>
      <trkpt lat="41.9018670" lon="-2.9023430">
        <ele>1301.5</ele>
        <time>2022-02-08T09:56:06Z</time>
      </trkpt>
      <trkpt lat="41.9018580" lon="-2.9023270">
        <ele>1301.6</ele>
        <time>2022-02-08T09:56:07Z</time>
      </trkpt>
      <trkpt lat="41.9018520" lon="-2.9023080">
        <ele>1301.8</ele>
        <time>2022-02-08T09:56:08Z</time>
      </trkpt>
      <trkpt lat="41.9018400" lon="-2.9022920">
        <ele>1302.0</ele>
        <time>2022-02-08T09:56:09Z</time>
      </trkpt>
      <trkpt lat="41.9018320" lon="-2.9022730">
        <ele>1302.2</ele>
        <time>2022-02-08T09:56:10Z</time>
      </trkpt>
      <trkpt lat="41.9018270" lon="-2.9022570">
        <ele>1302.4</ele>
        <time>2022-02-08T09:56:11Z</time>
      </trkpt>
      <trkpt lat="41.9018220" lon="-2.9022430">
        <ele>1302.5</ele>
        <time>2022-02-08T09:56:12Z</time>
      </trkpt>
      <trkpt lat="41.9018180" lon="-2.9022320">
        <ele>1302.6</ele>
        <time>2022-02-08T09:56:13Z</time>
      </trkpt>
      <trkpt lat="41.9018100" lon="-2.9022130">
        <ele>1302.8</ele>
        <time>2022-02-08T09:56:14Z</time>
      </trkpt>
      <trkpt lat="41.9017980" lon="-2.9021970">
        <ele>1303.0</ele>
        <time>2022-02-08T09:56:15Z</time>
      </trkpt>
      <trkpt lat="41.9017870" lon="-2.9021820">
        <ele>1303.2</ele>
        <time>2022-02-08T09:56:16Z</time>
      </trkpt>
      <trkpt lat="41.9017720" lon="-2.9021650">
        <ele>1303.4</ele>
        <time>2022-02-08T09:56:17Z</time>
      </trkpt>
      <trkpt lat="41.9017580" lon="-2.9021450">
        <ele>1303.7</ele>
        <time>2022-02-08T09:56:18Z</time>
      </trkpt>
      <trkpt lat="41.9017480" lon="-2.9021180">
        <ele>1303.9</ele>
        <time>2022-02-08T09:56:19Z</time>
      </trkpt>
      <trkpt lat="41.9017380" lon="-2.9020970">
        <ele>1304.2</ele>
        <time>2022-02-08T09:56:20Z</time>
      </trkpt>
      <trkpt lat="41.9017250" lon="-2.9020800">
        <ele>1304.4</ele>
        <time>2022-02-08T09:56:21Z</time>
      </trkpt>
      <trkpt lat="41.9017120" lon="-2.9020620">
        <ele>1304.6</ele>
        <time>2022-02-08T09:56:22Z</time>
      </trkpt>
      <trkpt lat="41.9016970" lon="-2.9020430">
        <ele>1304.9</ele>
        <time>2022-02-08T09:56:23Z</time>
      </trkpt>
      <trkpt lat="41.9016830" lon="-2.9020280">
        <ele>1305.1</ele>
        <time>2022-02-08T09:56:24Z</time>
      </trkpt>
      <trkpt lat="41.9016730" lon="-2.9020020">
        <ele>1305.4</ele>
        <time>2022-02-08T09:56:25Z</time>
      </trkpt>
      <trkpt lat="41.9016630" lon="-2.9019780">
        <ele>1305.6</ele>
        <time>2022-02-08T09:56:26Z</time>
      </trkpt>
      <trkpt lat="41.9016480" lon="-2.9019630">
        <ele>1305.9</ele>
        <time>2022-02-08T09:56:27Z</time>
      </trkpt>
      <trkpt lat="41.9016330" lon="-2.9019480">
        <ele>1306.2</ele>
        <time>2022-02-08T09:56:28Z</time>
      </trkpt>
      <trkpt lat="41.9016180" lon="-2.9019330">
        <ele>1306.4</ele>
        <time>2022-02-08T09:56:29Z</time>
      </trkpt>
      <trkpt lat="41.9016000" lon="-2.9019100">
        <ele>1306.8</ele>
        <time>2022-02-08T09:56:30Z</time>
      </trkpt>
      <trkpt lat="41.9015870" lon="-2.9018920">
        <ele>1307.0</ele>
        <time>2022-02-08T09:56:31Z</time>
      </trkpt>
      <trkpt lat="41.9015750" lon="-2.9018750">
        <ele>1307.3</ele>
        <time>2022-02-08T09:56:32Z</time>
      </trkpt>
      <trkpt lat="41.9015600" lon="-2.9018550">
        <ele>1307.6</ele>
        <time>2022-02-08T09:56:33Z</time>
      </trkpt>
      <trkpt lat="41.9015480" lon="-2.9018350">
        <ele>1307.8</ele>
        <time>2022-02-08T09:56:34Z</time>
      </trkpt>
      <trkpt lat="41.9015370" lon="-2.9018120">
        <ele>1308.1</ele>
        <time>2022-02-08T09:56:35Z</time>
      </trkpt>
      <trkpt lat="41.9015350" lon="-2.9017920">
        <ele>1308.3</ele>
        <time>2022-02-08T09:56:36Z</time>
      </trkpt>
      <trkpt lat="41.9015300" lon="-2.9017770">
        <ele>1308.5</ele>
        <time>2022-02-08T09:56:37Z</time>
      </trkpt>
      <trkpt lat="41.9015230" lon="-2.9017600">
        <ele>1308.7</ele>
        <time>2022-02-08T09:56:38Z</time>
      </trkpt>
      <trkpt lat="41.9015150" lon="-2.9017430">
        <ele>1308.9</ele>
        <time>2022-02-08T09:56:39Z</time>
      </trkpt>
      <trkpt lat="41.9015080" lon="-2.9017250">
        <ele>1309.1</ele>
        <time>2022-02-08T09:56:40Z</time>
      </trkpt>
      <trkpt lat="41.9014980" lon="-2.9017050">
        <ele>1309.3</ele>
        <time>2022-02-08T09:56:41Z</time>
      </trkpt>
      <trkpt lat="41.9014870" lon="-2.9016850">
        <ele>1309.6</ele>
        <time>2022-02-08T09:56:42Z</time>
      </trkpt>
      <trkpt lat="41.9014730" lon="-2.9016670">
        <ele>1309.8</ele>
        <time>2022-02-08T09:56:43Z</time>
      </trkpt>
      <trkpt lat="41.9014630" lon="-2.9016500">
        <ele>1310.0</ele>
        <time>2022-02-08T09:56:44Z</time>
      </trkpt>
      <trkpt lat="41.9014530" lon="-2.9016280">
        <ele>1310.2</ele>
        <time>2022-02-08T09:56:45Z</time>
      </trkpt>
      <trkpt lat="41.9014420" lon="-2.9016050">
        <ele>1310.4</ele>
        <time>2022-02-08T09:56:46Z</time>
      </trkpt>
      <trkpt lat="41.9014280" lon="-2.9015820">
        <ele>1310.7</ele>
        <time>2022-02-08T09:56:47Z</time>
      </trkpt>
      <trkpt lat="41.9014150" lon="-2.9015580">
        <ele>1310.9</ele>
        <time>2022-02-08T09:56:48Z</time>
      </trkpt>
      <trkpt lat="41.9013980" lon="-2.9015380">
        <ele>1311.1</ele>
        <time>2022-02-08T09:56:49Z</time>
      </trkpt>
      <trkpt lat="41.9013820" lon="-2.9015170">
        <ele>1311.3</ele>
        <time>2022-02-08T09:56:50Z</time>
      </trkpt>
      <trkpt lat="41.9013630" lon="-2.9014970">
        <ele>1311.6</ele>
        <time>2022-02-08T09:56:51Z</time>
      </trkpt>
      <trkpt lat="41.9013470" lon="-2.9014750">
        <ele>1311.8</ele>
        <time>2022-02-08T09:56:52Z</time>
      </trkpt>
      <trkpt lat="41.9013300" lon="-2.9014530">
        <ele>1312.0</ele>
        <time>2022-02-08T09:56:53Z</time>
      </trkpt>
      <trkpt lat="41.9013180" lon="-2.9014300">
        <ele>1312.2</ele>
        <time>2022-02-08T09:56:54Z</time>
      </trkpt>
      <trkpt lat="41.9013050" lon="-2.9014120">
        <ele>1312.4</ele>
        <time>2022-02-08T09:56:55Z</time>
      </trkpt>
      <trkpt lat="41.9012930" lon="-2.9013900">
        <ele>1312.6</ele>
        <time>2022-02-08T09:56:56Z</time>
      </trkpt>
      <trkpt lat="41.9012820" lon="-2.9013680">
        <ele>1312.7</ele>
        <time>2022-02-08T09:56:57Z</time>
      </trkpt>
      <trkpt lat="41.9012720" lon="-2.9013470">
        <ele>1312.9</ele>
        <time>2022-02-08T09:56:58Z</time>
      </trkpt>
      <trkpt lat="41.9012630" lon="-2.9013230">
        <ele>1313.1</ele>
        <time>2022-02-08T09:56:59Z</time>
      </trkpt>
      <trkpt lat="41.9012570" lon="-2.9013000">
        <ele>1313.2</ele>
        <time>2022-02-08T09:57:00Z</time>
      </trkpt>
      <trkpt lat="41.9012470" lon="-2.9012770">
        <ele>1313.4</ele>
        <time>2022-02-08T09:57:01Z</time>
      </trkpt>
      <trkpt lat="41.9012370" lon="-2.9012550">
        <ele>1313.6</ele>
        <time>2022-02-08T09:57:02Z</time>
      </trkpt>
      <trkpt lat="41.9012280" lon="-2.9012320">
        <ele>1313.7</ele>
        <time>2022-02-08T09:57:03Z</time>
      </trkpt>
      <trkpt lat="41.9012200" lon="-2.9012080">
        <ele>1313.9</ele>
        <time>2022-02-08T09:57:04Z</time>
      </trkpt>
      <trkpt lat="41.9012070" lon="-2.9011880">
        <ele>1314.1</ele>
        <time>2022-02-08T09:57:05Z</time>
      </trkpt>
      <trkpt lat="41.9012020" lon="-2.9011630">
        <ele>1314.3</ele>
        <time>2022-02-08T09:57:06Z</time>
      </trkpt>
      <trkpt lat="41.9011920" lon="-2.9011420">
        <ele>1314.4</ele>
        <time>2022-02-08T09:57:07Z</time>
      </trkpt>
      <trkpt lat="41.9011820" lon="-2.9011200">
        <ele>1314.6</ele>
        <time>2022-02-08T09:57:08Z</time>
      </trkpt>
      <trkpt lat="41.9011780" lon="-2.9010980">
        <ele>1314.8</ele>
        <time>2022-02-08T09:57:09Z</time>
      </trkpt>
      <trkpt lat="41.9011780" lon="-2.9010730">
        <ele>1314.9</ele>
        <time>2022-02-08T09:57:10Z</time>
      </trkpt>
      <trkpt lat="41.9011750" lon="-2.9010520">
        <ele>1315.1</ele>
        <time>2022-02-08T09:57:11Z</time>
      </trkpt>
      <trkpt lat="41.9011750" lon="-2.9010250">
        <ele>1315.2</ele>
        <time>2022-02-08T09:57:12Z</time>
      </trkpt>
      <trkpt lat="41.9011730" lon="-2.9009900">
        <ele>1315.4</ele>
        <time>2022-02-08T09:57:13Z</time>
      </trkpt>
      <trkpt lat="41.9011700" lon="-2.9009620">
        <ele>1315.6</ele>
        <time>2022-02-08T09:57:14Z</time>
      </trkpt>
      <trkpt lat="41.9011670" lon="-2.9009350">
        <ele>1315.8</ele>
        <time>2022-02-08T09:57:15Z</time>
      </trkpt>
      <trkpt lat="41.9011650" lon="-2.9009100">
        <ele>1315.9</ele>
        <time>2022-02-08T09:57:16Z</time>
      </trkpt>
      <trkpt lat="41.9011600" lon="-2.9008820">
        <ele>1316.0</ele>
        <time>2022-02-08T09:57:17Z</time>
      </trkpt>
      <trkpt lat="41.9011570" lon="-2.9008520">
        <ele>1316.2</ele>
        <time>2022-02-08T09:57:18Z</time>
      </trkpt>
      <trkpt lat="41.9011520" lon="-2.9008220">
        <ele>1316.3</ele>
        <time>2022-02-08T09:57:19Z</time>
      </trkpt>
      <trkpt lat="41.9011470" lon="-2.9007950">
        <ele>1316.4</ele>
        <time>2022-02-08T09:57:20Z</time>
      </trkpt>
      <trkpt lat="41.9011430" lon="-2.9007720">
        <ele>1316.6</ele>
        <time>2022-02-08T09:57:21Z</time>
      </trkpt>
      <trkpt lat="41.9011380" lon="-2.9007520">
        <ele>1316.7</ele>
        <time>2022-02-08T09:57:22Z</time>
      </trkpt>
      <trkpt lat="41.9011300" lon="-2.9007250">
        <ele>1316.8</ele>
        <time>2022-02-08T09:57:23Z</time>
      </trkpt>
      <trkpt lat="41.9011180" lon="-2.9006930">
        <ele>1317.0</ele>
        <time>2022-02-08T09:57:24Z</time>
      </trkpt>
      <trkpt lat="41.9011070" lon="-2.9006620">
        <ele>1317.1</ele>
        <time>2022-02-08T09:57:25Z</time>
      </trkpt>
      <trkpt lat="41.9010950" lon="-2.9006370">
        <ele>1317.2</ele>
        <time>2022-02-08T09:57:26Z</time>
      </trkpt>
      <trkpt lat="41.9010870" lon="-2.9006120">
        <ele>1317.4</ele>
        <time>2022-02-08T09:57:27Z</time>
      </trkpt>
      <trkpt lat="41.9010700" lon="-2.9005820">
        <ele>1317.6</ele>
        <time>2022-02-08T09:57:28Z</time>
      </trkpt>
      <trkpt lat="41.9010520" lon="-2.9005600">
        <ele>1317.7</ele>
        <time>2022-02-08T09:57:29Z</time>
      </trkpt>
      <trkpt lat="41.9010330" lon="-2.9005420">
        <ele>1317.9</ele>
        <time>2022-02-08T09:57:30Z</time>
      </trkpt>
      <trkpt lat="41.9010180" lon="-2.9005180">
        <ele>1318.1</ele>
        <time>2022-02-08T09:57:31Z</time>
      </trkpt>
      <trkpt lat="41.9010000" lon="-2.9004930">
        <ele>1318.3</ele>
        <time>2022-02-08T09:57:32Z</time>
      </trkpt>
      <trkpt lat="41.9009930" lon="-2.9004720">
        <ele>1318.5</ele>
        <time>2022-02-08T09:57:33Z</time>
      </trkpt>
      <trkpt lat="41.9009920" lon="-2.9004470">
        <ele>1318.7</ele>
        <time>2022-02-08T09:57:34Z</time>
      </trkpt>
      <trkpt lat="41.9009830" lon="-2.9004220">
        <ele>1318.9</ele>
        <time>2022-02-08T09:57:35Z</time>
      </trkpt>
      <trkpt lat="41.9009680" lon="-2.9004000">
        <ele>1319.1</ele>
        <time>2022-02-08T09:57:36Z</time>
      </trkpt>
      <trkpt lat="41.9009470" lon="-2.9003770">
        <ele>1319.4</ele>
        <time>2022-02-08T09:57:37Z</time>
      </trkpt>
      <trkpt lat="41.9009320" lon="-2.9003530">
        <ele>1319.6</ele>
        <time>2022-02-08T09:57:38Z</time>
      </trkpt>
      <trkpt lat="41.9009180" lon="-2.9003330">
        <ele>1319.9</ele>
        <time>2022-02-08T09:57:39Z</time>
      </trkpt>
      <trkpt lat="41.9009050" lon="-2.9003120">
        <ele>1320.1</ele>
        <time>2022-02-08T09:57:40Z</time>
      </trkpt>
      <trkpt lat="41.9008900" lon="-2.9002880">
        <ele>1320.4</ele>
        <time>2022-02-08T09:57:41Z</time>
      </trkpt>
      <trkpt lat="41.9008780" lon="-2.9002650">
        <ele>1320.6</ele>
        <time>2022-02-08T09:57:42Z</time>
      </trkpt>
      <trkpt lat="41.9008700" lon="-2.9002380">
        <ele>1320.9</ele>
        <time>2022-02-08T09:57:43Z</time>
      </trkpt>
      <trkpt lat="41.9008630" lon="-2.9002150">
        <ele>1321.1</ele>
        <time>2022-02-08T09:57:44Z</time>
      </trkpt>
      <trkpt lat="41.9008550" lon="-2.9001900">
        <ele>1321.4</ele>
        <time>2022-02-08T09:57:45Z</time>
      </trkpt>
      <trkpt lat="41.9008470" lon="-2.9001630">
        <ele>1321.7</ele>
        <time>2022-02-08T09:57:46Z</time>
      </trkpt>
      <trkpt lat="41.9008420" lon="-2.9001350">
        <ele>1322.0</ele>
        <time>2022-02-08T09:57:47Z</time>
      </trkpt>
      <trkpt lat="41.9008350" lon="-2.9001070">
        <ele>1322.3</ele>
        <time>2022-02-08T09:57:48Z</time>
      </trkpt>
      <trkpt lat="41.9008280" lon="-2.9000780">
        <ele>1322.6</ele>
        <time>2022-02-08T09:57:49Z</time>
      </trkpt>
      <trkpt lat="41.9008200" lon="-2.9000500">
        <ele>1322.9</ele>
        <time>2022-02-08T09:57:50Z</time>
      </trkpt>
      <trkpt lat="41.9008130" lon="-2.9000250">
        <ele>1323.2</ele>
        <time>2022-02-08T09:57:51Z</time>
      </trkpt>
      <trkpt lat="41.9008080" lon="-2.9000030">
        <ele>1323.4</ele>
        <time>2022-02-08T09:57:52Z</time>
      </trkpt>
      <trkpt lat="41.9008050" lon="-2.8999770">
        <ele>1323.7</ele>
        <time>2022-02-08T09:57:53Z</time>
      </trkpt>
      <trkpt lat="41.9008020" lon="-2.8999530">
        <ele>1324.0</ele>
        <time>2022-02-08T09:57:54Z</time>
      </trkpt>
      <trkpt lat="41.9007980" lon="-2.8999300">
        <ele>1324.2</ele>
        <time>2022-02-08T09:57:55Z</time>
      </trkpt>
      <trkpt lat="41.9007950" lon="-2.8999070">
        <ele>1324.5</ele>
        <time>2022-02-08T09:57:56Z</time>
      </trkpt>
      <trkpt lat="41.9007930" lon="-2.8998830">
        <ele>1324.7</ele>
        <time>2022-02-08T09:57:57Z</time>
      </trkpt>
      <trkpt lat="41.9007880" lon="-2.8998600">
        <ele>1324.9</ele>
        <time>2022-02-08T09:57:58Z</time>
      </trkpt>
      <trkpt lat="41.9007850" lon="-2.8998350">
        <ele>1325.2</ele>
        <time>2022-02-08T09:57:59Z</time>
      </trkpt>
      <trkpt lat="41.9007800" lon="-2.8998100">
        <ele>1325.4</ele>
        <time>2022-02-08T09:58:00Z</time>
      </trkpt>
      <trkpt lat="41.9007780" lon="-2.8997870">
        <ele>1325.6</ele>
        <time>2022-02-08T09:58:01Z</time>
      </trkpt>
      <trkpt lat="41.9007770" lon="-2.8997600">
        <ele>1325.8</ele>
        <time>2022-02-08T09:58:02Z</time>
      </trkpt>
      <trkpt lat="41.9007720" lon="-2.8997280">
        <ele>1326.0</ele>
        <time>2022-02-08T09:58:03Z</time>
      </trkpt>
      <trkpt lat="41.9007670" lon="-2.8997000">
        <ele>1326.2</ele>
        <time>2022-02-08T09:58:04Z</time>
      </trkpt>
      <trkpt lat="41.9007620" lon="-2.8996730">
        <ele>1326.4</ele>
        <time>2022-02-08T09:58:05Z</time>
      </trkpt>
      <trkpt lat="41.9007550" lon="-2.8996450">
        <ele>1326.6</ele>
        <time>2022-02-08T09:58:06Z</time>
      </trkpt>
      <trkpt lat="41.9007500" lon="-2.8996180">
        <ele>1326.7</ele>
        <time>2022-02-08T09:58:07Z</time>
      </trkpt>
      <trkpt lat="41.9007450" lon="-2.8995930">
        <ele>1326.8</ele>
        <time>2022-02-08T09:58:08Z</time>
      </trkpt>
      <trkpt lat="41.9007380" lon="-2.8995680">
        <ele>1327.0</ele>
        <time>2022-02-08T09:58:09Z</time>
      </trkpt>
      <trkpt lat="41.9007330" lon="-2.8995420">
        <ele>1327.1</ele>
        <time>2022-02-08T09:58:10Z</time>
      </trkpt>
      <trkpt lat="41.9007250" lon="-2.8995080">
        <ele>1327.3</ele>
        <time>2022-02-08T09:58:11Z</time>
      </trkpt>
      <trkpt lat="41.9007220" lon="-2.8994730">
        <ele>1327.4</ele>
        <time>2022-02-08T09:58:12Z</time>
      </trkpt>
      <trkpt lat="41.9007180" lon="-2.8994400">
        <ele>1327.5</ele>
        <time>2022-02-08T09:58:13Z</time>
      </trkpt>
      <trkpt lat="41.9007080" lon="-2.8994120">
        <ele>1327.7</ele>
        <time>2022-02-08T09:58:14Z</time>
      </trkpt>
      <trkpt lat="41.9007020" lon="-2.8993830">
        <ele>1327.8</ele>
        <time>2022-02-08T09:58:15Z</time>
      </trkpt>
      <trkpt lat="41.9006930" lon="-2.8993520">
        <ele>1327.9</ele>
        <time>2022-02-08T09:58:16Z</time>
      </trkpt>
      <trkpt lat="41.9006820" lon="-2.8993200">
        <ele>1328.1</ele>
        <time>2022-02-08T09:58:17Z</time>
      </trkpt>
      <trkpt lat="41.9006730" lon="-2.8992900">
        <ele>1328.2</ele>
        <time>2022-02-08T09:58:18Z</time>
      </trkpt>
      <trkpt lat="41.9006650" lon="-2.8992620">
        <ele>1328.3</ele>
        <time>2022-02-08T09:58:19Z</time>
      </trkpt>
      <trkpt lat="41.9006600" lon="-2.8992380">
        <ele>1328.4</ele>
        <time>2022-02-08T09:58:20Z</time>
      </trkpt>
      <trkpt lat="41.9006530" lon="-2.8992130">
        <ele>1328.5</ele>
        <time>2022-02-08T09:58:21Z</time>
      </trkpt>
      <trkpt lat="41.9006450" lon="-2.8991820">
        <ele>1328.7</ele>
        <time>2022-02-08T09:58:22Z</time>
      </trkpt>
      <trkpt lat="41.9006320" lon="-2.8991500">
        <ele>1328.8</ele>
        <time>2022-02-08T09:58:23Z</time>
      </trkpt>
      <trkpt lat="41.9006220" lon="-2.8991200">
        <ele>1328.9</ele>
        <time>2022-02-08T09:58:24Z</time>
      </trkpt>
      <trkpt lat="41.9006170" lon="-2.8990950">
        <ele>1329.0</ele>
        <time>2022-02-08T09:58:25Z</time>
      </trkpt>
      <trkpt lat="41.9006100" lon="-2.8990680">
        <ele>1329.2</ele>
        <time>2022-02-08T09:58:26Z</time>
      </trkpt>
      <trkpt lat="41.9006020" lon="-2.8990420">
        <ele>1329.3</ele>
        <time>2022-02-08T09:58:27Z</time>
      </trkpt>
      <trkpt lat="41.9005930" lon="-2.8990120">
        <ele>1329.4</ele>
        <time>2022-02-08T09:58:28Z</time>
      </trkpt>
      <trkpt lat="41.9005880" lon="-2.8989800">
        <ele>1329.5</ele>
        <time>2022-02-08T09:58:29Z</time>
      </trkpt>
      <trkpt lat="41.9005820" lon="-2.8989420">
        <ele>1329.7</ele>
        <time>2022-02-08T09:58:30Z</time>
      </trkpt>
      <trkpt lat="41.9005720" lon="-2.8989050">
        <ele>1329.8</ele>
        <time>2022-02-08T09:58:31Z</time>
      </trkpt>
      <trkpt lat="41.9005720" lon="-2.8988700">
        <ele>1330.0</ele>
        <time>2022-02-08T09:58:32Z</time>
      </trkpt>
      <trkpt lat="41.9005630" lon="-2.8988250">
        <ele>1330.2</ele>
        <time>2022-02-08T09:58:33Z</time>
      </trkpt>
      <trkpt lat="41.9005570" lon="-2.8987820">
        <ele>1330.4</ele>
        <time>2022-02-08T09:58:34Z</time>
      </trkpt>
      <trkpt lat="41.9005520" lon="-2.8987450">
        <ele>1330.6</ele>
        <time>2022-02-08T09:58:35Z</time>
      </trkpt>
      <trkpt lat="41.9005450" lon="-2.8987080">
        <ele>1330.8</ele>
        <time>2022-02-08T09:58:36Z</time>
      </trkpt>
      <trkpt lat="41.9005420" lon="-2.8986730">
        <ele>1331.0</ele>
        <time>2022-02-08T09:58:37Z</time>
      </trkpt>
      <trkpt lat="41.9005400" lon="-2.8986380">
        <ele>1331.3</ele>
        <time>2022-02-08T09:58:38Z</time>
      </trkpt>
      <trkpt lat="41.9005380" lon="-2.8986070">
        <ele>1331.5</ele>
        <time>2022-02-08T09:58:39Z</time>
      </trkpt>
      <trkpt lat="41.9005380" lon="-2.8985780">
        <ele>1331.7</ele>
        <time>2022-02-08T09:58:40Z</time>
      </trkpt>
      <trkpt lat="41.9005370" lon="-2.8985520">
        <ele>1331.9</ele>
        <time>2022-02-08T09:58:41Z</time>
      </trkpt>
      <trkpt lat="41.9005370" lon="-2.8985230">
        <ele>1332.1</ele>
        <time>2022-02-08T09:58:42Z</time>
      </trkpt>
      <trkpt lat="41.9005330" lon="-2.8984920">
        <ele>1332.4</ele>
        <time>2022-02-08T09:58:43Z</time>
      </trkpt>
      <trkpt lat="41.9005320" lon="-2.8984580">
        <ele>1332.6</ele>
        <time>2022-02-08T09:58:44Z</time>
      </trkpt>
      <trkpt lat="41.9005300" lon="-2.8984330">
        <ele>1332.8</ele>
        <time>2022-02-08T09:58:45Z</time>
      </trkpt>
      <trkpt lat="41.9005270" lon="-2.8984070">
        <ele>1333.0</ele>
        <time>2022-02-08T09:58:46Z</time>
      </trkpt>
      <trkpt lat="41.9005230" lon="-2.8983800">
        <ele>1333.2</ele>
        <time>2022-02-08T09:58:47Z</time>
      </trkpt>
      <trkpt lat="41.9005170" lon="-2.8983500">
        <ele>1333.4</ele>
        <time>2022-02-08T09:58:48Z</time>
      </trkpt>
      <trkpt lat="41.9005080" lon="-2.8983220">
        <ele>1333.7</ele>
        <time>2022-02-08T09:58:49Z</time>
      </trkpt>
      <trkpt lat="41.9004980" lon="-2.8982920">
        <ele>1333.9</ele>
        <time>2022-02-08T09:58:50Z</time>
      </trkpt>
      <trkpt lat="41.9004870" lon="-2.8982650">
        <ele>1334.1</ele>
        <time>2022-02-08T09:58:51Z</time>
      </trkpt>
      <trkpt lat="41.9004750" lon="-2.8982370">
        <ele>1334.3</ele>
        <time>2022-02-08T09:58:52Z</time>
      </trkpt>
      <trkpt lat="41.9004650" lon="-2.8982120">
        <ele>1334.4</ele>
        <time>2022-02-08T09:58:53Z</time>
      </trkpt>
      <trkpt lat="41.9004500" lon="-2.8981830">
        <ele>1334.6</ele>
        <time>2022-02-08T09:58:54Z</time>
      </trkpt>
      <trkpt lat="41.9004350" lon="-2.8981580">
        <ele>1334.8</ele>
        <time>2022-02-08T09:58:55Z</time>
      </trkpt>
      <trkpt lat="41.9004200" lon="-2.8981320">
        <ele>1335.0</ele>
        <time>2022-02-08T09:58:56Z</time>
      </trkpt>
      <trkpt lat="41.9004070" lon="-2.8981030">
        <ele>1335.2</ele>
        <time>2022-02-08T09:58:57Z</time>
      </trkpt>
      <trkpt lat="41.9003950" lon="-2.8980750">
        <ele>1335.4</ele>
        <time>2022-02-08T09:58:58Z</time>
      </trkpt>
      <trkpt lat="41.9003870" lon="-2.8980430">
        <ele>1335.6</ele>
        <time>2022-02-08T09:58:59Z</time>
      </trkpt>
      <trkpt lat="41.9003800" lon="-2.8980120">
        <ele>1335.8</ele>
        <time>2022-02-08T09:59:00Z</time>
      </trkpt>
      <trkpt lat="41.9003720" lon="-2.8979800">
        <ele>1336.1</ele>
        <time>2022-02-08T09:59:01Z</time>
      </trkpt>
      <trkpt lat="41.9003700" lon="-2.8979530">
        <ele>1336.2</ele>
        <time>2022-02-08T09:59:02Z</time>
      </trkpt>
      <trkpt lat="41.9003680" lon="-2.8979250">
        <ele>1336.4</ele>
        <time>2022-02-08T09:59:03Z</time>
      </trkpt>
      <trkpt lat="41.9003680" lon="-2.8979000">
        <ele>1336.6</ele>
        <time>2022-02-08T09:59:04Z</time>
      </trkpt>
      <trkpt lat="41.9003700" lon="-2.8978750">
        <ele>1336.7</ele>
        <time>2022-02-08T09:59:05Z</time>
      </trkpt>
      <trkpt lat="41.9003730" lon="-2.8978480">
        <ele>1336.9</ele>
        <time>2022-02-08T09:59:06Z</time>
      </trkpt>
      <trkpt lat="41.9003750" lon="-2.8978220">
        <ele>1337.0</ele>
        <time>2022-02-08T09:59:07Z</time>
      </trkpt>
      <trkpt lat="41.9003750" lon="-2.8977950">
        <ele>1337.2</ele>
        <time>2022-02-08T09:59:08Z</time>
      </trkpt>
      <trkpt lat="41.9003650" lon="-2.8977730">
        <ele>1337.3</ele>
        <time>2022-02-08T09:59:09Z</time>
      </trkpt>
      <trkpt lat="41.9003500" lon="-2.8977530">
        <ele>1337.5</ele>
        <time>2022-02-08T09:59:10Z</time>
      </trkpt>
      <trkpt lat="41.9003350" lon="-2.8977420">
        <ele>1337.6</ele>
        <time>2022-02-08T09:59:11Z</time>
      </trkpt>
      <trkpt lat="41.9003180" lon="-2.8977250">
        <ele>1337.7</ele>
        <time>2022-02-08T09:59:12Z</time>
      </trkpt>
      <trkpt lat="41.9003030" lon="-2.8977050">
        <ele>1337.8</ele>
        <time>2022-02-08T09:59:13Z</time>
      </trkpt>
      <trkpt lat="41.9002920" lon="-2.8976830">
        <ele>1337.8</ele>
        <time>2022-02-08T09:59:14Z</time>
      </trkpt>
      <trkpt lat="41.9002830" lon="-2.8976580">
        <ele>1337.9</ele>
        <time>2022-02-08T09:59:15Z</time>
      </trkpt>
      <trkpt lat="41.9002770" lon="-2.8976350">
        <ele>1337.9</ele>
        <time>2022-02-08T09:59:16Z</time>
      </trkpt>
      <trkpt lat="41.9002700" lon="-2.8976030">
        <ele>1338.0</ele>
        <time>2022-02-08T09:59:17Z</time>
      </trkpt>
      <trkpt lat="41.9002700" lon="-2.8975650">
        <ele>1338.0</ele>
        <time>2022-02-08T09:59:18Z</time>
      </trkpt>
      <trkpt lat="41.9002680" lon="-2.8975130">
        <ele>1337.9</ele>
        <time>2022-02-08T09:59:19Z</time>
      </trkpt>
      <trkpt lat="41.9002630" lon="-2.8974520">
        <ele>1337.8</ele>
        <time>2022-02-08T09:59:20Z</time>
      </trkpt>
      <trkpt lat="41.9002570" lon="-2.8973800">
        <ele>1337.6</ele>
        <time>2022-02-08T09:59:21Z</time>
      </trkpt>
      <trkpt lat="41.9002450" lon="-2.8972980">
        <ele>1337.3</ele>
        <time>2022-02-08T09:59:22Z</time>
      </trkpt>
      <trkpt lat="41.9002320" lon="-2.8972150">
        <ele>1336.9</ele>
        <time>2022-02-08T09:59:23Z</time>
      </trkpt>
      <trkpt lat="41.9002180" lon="-2.8971270">
        <ele>1336.3</ele>
        <time>2022-02-08T09:59:24Z</time>
      </trkpt>
      <trkpt lat="41.9002050" lon="-2.8970300">
        <ele>1335.7</ele>
        <time>2022-02-08T09:59:25Z</time>
      </trkpt>
      <trkpt lat="41.9001920" lon="-2.8969220">
        <ele>1335.1</ele>
        <time>2022-02-08T09:59:26Z</time>
      </trkpt>
      <trkpt lat="41.9001750" lon="-2.8967830">
        <ele>1334.2</ele>
        <time>2022-02-08T09:59:27Z</time>
      </trkpt>
      <trkpt lat="41.9001400" lon="-2.8966580">
        <ele>1333.3</ele>
        <time>2022-02-08T09:59:28Z</time>
      </trkpt>
      <trkpt lat="41.9001120" lon="-2.8965700">
        <ele>1332.4</ele>
        <time>2022-02-08T09:59:29Z</time>
      </trkpt>
      <trkpt lat="41.9000730" lon="-2.8964820">
        <ele>1331.4</ele>
        <time>2022-02-08T09:59:30Z</time>
      </trkpt>
      <trkpt lat="41.9000330" lon="-2.8964030">
        <ele>1330.5</ele>
        <time>2022-02-08T09:59:31Z</time>
      </trkpt>
      <trkpt lat="41.8999950" lon="-2.8963050">
        <ele>1329.4</ele>
        <time>2022-02-08T09:59:32Z</time>
      </trkpt>
      <trkpt lat="41.8999750" lon="-2.8961980">
        <ele>1328.2</ele>
        <time>2022-02-08T09:59:33Z</time>
      </trkpt>
      <trkpt lat="41.8999700" lon="-2.8960780">
        <ele>1327.1</ele>
        <time>2022-02-08T09:59:34Z</time>
      </trkpt>
      <trkpt lat="41.8999820" lon="-2.8959550">
        <ele>1326.1</ele>
        <time>2022-02-08T09:59:35Z</time>
      </trkpt>
      <trkpt lat="41.8999730" lon="-2.8958250">
        <ele>1325.1</ele>
        <time>2022-02-08T09:59:36Z</time>
      </trkpt>
      <trkpt lat="41.8999600" lon="-2.8956980">
        <ele>1324.3</ele>
        <time>2022-02-08T09:59:37Z</time>
      </trkpt>
      <trkpt lat="41.8999630" lon="-2.8955730">
        <ele>1323.7</ele>
        <time>2022-02-08T09:59:38Z</time>
      </trkpt>
      <trkpt lat="41.8999550" lon="-2.8954520">
        <ele>1323.4</ele>
        <time>2022-02-08T09:59:39Z</time>
      </trkpt>
      <trkpt lat="41.8999400" lon="-2.8953450">
        <ele>1323.2</ele>
        <time>2022-02-08T09:59:40Z</time>
      </trkpt>
      <trkpt lat="41.8999170" lon="-2.8952300">
        <ele>1323.1</ele>
        <time>2022-02-08T09:59:41Z</time>
      </trkpt>
      <trkpt lat="41.8998970" lon="-2.8951300">
        <ele>1323.0</ele>
        <time>2022-02-08T09:59:42Z</time>
      </trkpt>
      <trkpt lat="41.8998650" lon="-2.8950320">
        <ele>1322.9</ele>
        <time>2022-02-08T09:59:43Z</time>
      </trkpt>
      <trkpt lat="41.8998650" lon="-2.8949550">
        <ele>1322.8</ele>
        <time>2022-02-08T09:59:44Z</time>
      </trkpt>
      <trkpt lat="41.8998800" lon="-2.8948870">
        <ele>1322.8</ele>
        <time>2022-02-08T09:59:45Z</time>
      </trkpt>
      <trkpt lat="41.8998980" lon="-2.8948370">
        <ele>1322.7</ele>
        <time>2022-02-08T09:59:46Z</time>
      </trkpt>
      <trkpt lat="41.8999150" lon="-2.8947830">
        <ele>1322.7</ele>
        <time>2022-02-08T09:59:47Z</time>
      </trkpt>
      <trkpt lat="41.8999250" lon="-2.8947430">
        <ele>1322.7</ele>
        <time>2022-02-08T09:59:48Z</time>
      </trkpt>
      <trkpt lat="41.8999330" lon="-2.8947180">
        <ele>1322.8</ele>
        <time>2022-02-08T09:59:49Z</time>
      </trkpt>
      <trkpt lat="41.8999500" lon="-2.8947020">
        <ele>1322.8</ele>
        <time>2022-02-08T09:59:50Z</time>
      </trkpt>
      <trkpt lat="41.8999580" lon="-2.8946850">
        <ele>1322.9</ele>
        <time>2022-02-08T09:59:51Z</time>
      </trkpt>
      <trkpt lat="41.8999650" lon="-2.8946650">
        <ele>1323.0</ele>
        <time>2022-02-08T09:59:52Z</time>
      </trkpt>
      <trkpt lat="41.8999800" lon="-2.8946580">
        <ele>1323.1</ele>
        <time>2022-02-08T09:59:53Z</time>
      </trkpt>
      <trkpt lat="41.8999920" lon="-2.8946330">
        <ele>1323.2</ele>
        <time>2022-02-08T09:59:54Z</time>
      </trkpt>
      <trkpt lat="41.9000030" lon="-2.8946180">
        <ele>1323.4</ele>
        <time>2022-02-08T09:59:55Z</time>
      </trkpt>
      <trkpt lat="41.9000080" lon="-2.8946030">
        <ele>1323.5</ele>
        <time>2022-02-08T09:59:56Z</time>
      </trkpt>
      <trkpt lat="41.9000220" lon="-2.8945950">
        <ele>1323.7</ele>
        <time>2022-02-08T09:59:57Z</time>
      </trkpt>
      <trkpt lat="41.9000330" lon="-2.8945930">
        <ele>1323.8</ele>
        <time>2022-02-08T09:59:58Z</time>
      </trkpt>
      <trkpt lat="41.9000380" lon="-2.8945820">
        <ele>1323.9</ele>
        <time>2022-02-08T09:59:59Z</time>
      </trkpt>
      <trkpt lat="41.9000350" lon="-2.8945670">
        <ele>1324.1</ele>
        <time>2022-02-08T10:00:00Z</time>
      </trkpt>
      <trkpt lat="41.9000300" lon="-2.8945370">
        <ele>1324.5</ele>
        <time>2022-02-08T10:00:01Z</time>
      </trkpt>
      <trkpt lat="41.9000270" lon="-2.8945130">
        <ele>1324.8</ele>
        <time>2022-02-08T10:00:02Z</time>
      </trkpt>
      <trkpt lat="41.9000370" lon="-2.8945030">
        <ele>1325.0</ele>
        <time>2022-02-08T10:00:03Z</time>
      </trkpt>
      <trkpt lat="41.9000550" lon="-2.8944850">
        <ele>1325.5</ele>
        <time>2022-02-08T10:00:04Z</time>
      </trkpt>
      <trkpt lat="41.9000770" lon="-2.8944630">
        <ele>1326.0</ele>
        <time>2022-02-08T10:00:05Z</time>
      </trkpt>
      <trkpt lat="41.9000900" lon="-2.8944370">
        <ele>1326.5</ele>
        <time>2022-02-08T10:00:06Z</time>
      </trkpt>
      <trkpt lat="41.9000920" lon="-2.8944150">
        <ele>1326.9</ele>
        <time>2022-02-08T10:00:07Z</time>
      </trkpt>
      <trkpt lat="41.9001030" lon="-2.8944000">
        <ele>1327.3</ele>
        <time>2022-02-08T10:00:08Z</time>
      </trkpt>
      <trkpt lat="41.9001130" lon="-2.8943850">
        <ele>1327.5</ele>
        <time>2022-02-08T10:00:09Z</time>
      </trkpt>
      <trkpt lat="41.9001180" lon="-2.8943700">
        <ele>1327.8</ele>
        <time>2022-02-08T10:00:10Z</time>
      </trkpt>
      <trkpt lat="41.9001220" lon="-2.8943500">
        <ele>1328.1</ele>
        <time>2022-02-08T10:00:11Z</time>
      </trkpt>
      <trkpt lat="41.9001250" lon="-2.8943350">
        <ele>1328.3</ele>
        <time>2022-02-08T10:00:12Z</time>
      </trkpt>
      <trkpt lat="41.9001300" lon="-2.8943170">
        <ele>1328.6</ele>
        <time>2022-02-08T10:00:13Z</time>
      </trkpt>
      <trkpt lat="41.9001380" lon="-2.8943020">
        <ele>1328.9</ele>
        <time>2022-02-08T10:00:14Z</time>
      </trkpt>
      <trkpt lat="41.9001420" lon="-2.8942820">
        <ele>1329.2</ele>
        <time>2022-02-08T10:00:15Z</time>
      </trkpt>
      <trkpt lat="41.9001450" lon="-2.8942650">
        <ele>1329.4</ele>
        <time>2022-02-08T10:00:16Z</time>
      </trkpt>
      <trkpt lat="41.9001380" lon="-2.8942420">
        <ele>1329.7</ele>
        <time>2022-02-08T10:00:17Z</time>
      </trkpt>
      <trkpt lat="41.9001380" lon="-2.8942250">
        <ele>1330.0</ele>
        <time>2022-02-08T10:00:18Z</time>
      </trkpt>
      <trkpt lat="41.9001320" lon="-2.8942070">
        <ele>1330.2</ele>
        <time>2022-02-08T10:00:19Z</time>
      </trkpt>
      <trkpt lat="41.9001400" lon="-2.8941870">
        <ele>1330.5</ele>
        <time>2022-02-08T10:00:20Z</time>
      </trkpt>
      <trkpt lat="41.9001550" lon="-2.8941650">
        <ele>1330.9</ele>
        <time>2022-02-08T10:00:21Z</time>
      </trkpt>
      <trkpt lat="41.9001620" lon="-2.8941420">
        <ele>1331.2</ele>
        <time>2022-02-08T10:00:22Z</time>
      </trkpt>
      <trkpt lat="41.9001650" lon="-2.8941230">
        <ele>1331.4</ele>
        <time>2022-02-08T10:00:23Z</time>
      </trkpt>
      <trkpt lat="41.9001630" lon="-2.8941050">
        <ele>1331.7</ele>
        <time>2022-02-08T10:00:24Z</time>
      </trkpt>
      <trkpt lat="41.9001580" lon="-2.8940880">
        <ele>1331.9</ele>
        <time>2022-02-08T10:00:25Z</time>
      </trkpt>
      <trkpt lat="41.9001580" lon="-2.8940680">
        <ele>1332.2</ele>
        <time>2022-02-08T10:00:26Z</time>
      </trkpt>
      <trkpt lat="41.9001620" lon="-2.8940530">
        <ele>1332.4</ele>
        <time>2022-02-08T10:00:27Z</time>
      </trkpt>
      <trkpt lat="41.9001620" lon="-2.8940370">
        <ele>1332.6</ele>
        <time>2022-02-08T10:00:28Z</time>
      </trkpt>
      <trkpt lat="41.9001580" lon="-2.8940200">
        <ele>1332.8</ele>
        <time>2022-02-08T10:00:29Z</time>
      </trkpt>
      <trkpt lat="41.9001600" lon="-2.8940050">
        <ele>1333.0</ele>
        <time>2022-02-08T10:00:30Z</time>
      </trkpt>
      <trkpt lat="41.9001620" lon="-2.8939920">
        <ele>1333.2</ele>
        <time>2022-02-08T10:00:31Z</time>
      </trkpt>
      <trkpt lat="41.9001600" lon="-2.8939750">
        <ele>1333.4</ele>
        <time>2022-02-08T10:00:32Z</time>
      </trkpt>
      <trkpt lat="41.9001530" lon="-2.8939580">
        <ele>1333.7</ele>
        <time>2022-02-08T10:00:33Z</time>
      </trkpt>
      <trkpt lat="41.9001500" lon="-2.8939450">
        <ele>1333.9</ele>
        <time>2022-02-08T10:00:34Z</time>
      </trkpt>
      <trkpt lat="41.9001500" lon="-2.8939270">
        <ele>1334.1</ele>
        <time>2022-02-08T10:00:35Z</time>
      </trkpt>
      <trkpt lat="41.9001500" lon="-2.8939070">
        <ele>1334.4</ele>
        <time>2022-02-08T10:00:36Z</time>
      </trkpt>
      <trkpt lat="41.9001530" lon="-2.8938830">
        <ele>1334.7</ele>
        <time>2022-02-08T10:00:37Z</time>
      </trkpt>
      <trkpt lat="41.9001520" lon="-2.8938630">
        <ele>1334.9</ele>
        <time>2022-02-08T10:00:38Z</time>
      </trkpt>
      <trkpt lat="41.9001550" lon="-2.8938470">
        <ele>1335.1</ele>
        <time>2022-02-08T10:00:39Z</time>
      </trkpt>
      <trkpt lat="41.9001530" lon="-2.8938300">
        <ele>1335.3</ele>
        <time>2022-02-08T10:00:40Z</time>
      </trkpt>
      <trkpt lat="41.9001500" lon="-2.8938200">
        <ele>1335.4</ele>
        <time>2022-02-08T10:00:41Z</time>
      </trkpt>
      <trkpt lat="41.9001450" lon="-2.8938030">
        <ele>1335.6</ele>
        <time>2022-02-08T10:00:42Z</time>
      </trkpt>
      <trkpt lat="41.9001420" lon="-2.8937880">
        <ele>1335.7</ele>
        <time>2022-02-08T10:00:43Z</time>
      </trkpt>
      <trkpt lat="41.9001370" lon="-2.8937680">
        <ele>1335.9</ele>
        <time>2022-02-08T10:00:44Z</time>
      </trkpt>
      <trkpt lat="41.9001330" lon="-2.8937500">
        <ele>1336.1</ele>
        <time>2022-02-08T10:00:45Z</time>
      </trkpt>
      <trkpt lat="41.9001320" lon="-2.8937300">
        <ele>1336.3</ele>
        <time>2022-02-08T10:00:46Z</time>
      </trkpt>
      <trkpt lat="41.9001270" lon="-2.8937100">
        <ele>1336.5</ele>
        <time>2022-02-08T10:00:47Z</time>
      </trkpt>
      <trkpt lat="41.9001220" lon="-2.8936920">
        <ele>1336.6</ele>
        <time>2022-02-08T10:00:48Z</time>
      </trkpt>
      <trkpt lat="41.9001180" lon="-2.8936720">
        <ele>1336.7</ele>
        <time>2022-02-08T10:00:49Z</time>
      </trkpt>
      <trkpt lat="41.9001130" lon="-2.8936530">
        <ele>1336.9</ele>
        <time>2022-02-08T10:00:50Z</time>
      </trkpt>
      <trkpt lat="41.9001120" lon="-2.8936330">
        <ele>1337.0</ele>
        <time>2022-02-08T10:00:51Z</time>
      </trkpt>
      <trkpt lat="41.9001100" lon="-2.8936120">
        <ele>1337.1</ele>
        <time>2022-02-08T10:00:52Z</time>
      </trkpt>
      <trkpt lat="41.9001100" lon="-2.8935920">
        <ele>1337.2</ele>
        <time>2022-02-08T10:00:53Z</time>
      </trkpt>
      <trkpt lat="41.9001080" lon="-2.8935700">
        <ele>1337.3</ele>
        <time>2022-02-08T10:00:54Z</time>
      </trkpt>
      <trkpt lat="41.9001020" lon="-2.8935500">
        <ele>1337.4</ele>
        <time>2022-02-08T10:00:55Z</time>
      </trkpt>
      <trkpt lat="41.9000980" lon="-2.8935280">
        <ele>1337.5</ele>
        <time>2022-02-08T10:00:56Z</time>
      </trkpt>
      <trkpt lat="41.9000970" lon="-2.8935080">
        <ele>1337.6</ele>
        <time>2022-02-08T10:00:57Z</time>
      </trkpt>
      <trkpt lat="41.9000920" lon="-2.8934830">
        <ele>1337.7</ele>
        <time>2022-02-08T10:00:58Z</time>
      </trkpt>
      <trkpt lat="41.9000830" lon="-2.8934630">
        <ele>1337.8</ele>
        <time>2022-02-08T10:00:59Z</time>
      </trkpt>
      <trkpt lat="41.9000750" lon="-2.8934400">
        <ele>1337.9</ele>
        <time>2022-02-08T10:01:00Z</time>
      </trkpt>
      <trkpt lat="41.9000670" lon="-2.8934150">
        <ele>1338.0</ele>
        <time>2022-02-08T10:01:01Z</time>
      </trkpt>
      <trkpt lat="41.9000570" lon="-2.8933780">
        <ele>1338.1</ele>
        <time>2022-02-08T10:01:02Z</time>
      </trkpt>
      <trkpt lat="41.9000500" lon="-2.8933550">
        <ele>1338.2</ele>
        <time>2022-02-08T10:01:03Z</time>
      </trkpt>
      <trkpt lat="41.9000430" lon="-2.8933320">
        <ele>1338.3</ele>
        <time>2022-02-08T10:01:04Z</time>
      </trkpt>
      <trkpt lat="41.9000400" lon="-2.8933030">
        <ele>1338.4</ele>
        <time>2022-02-08T10:01:05Z</time>
      </trkpt>
      <trkpt lat="41.9000350" lon="-2.8932770">
        <ele>1338.5</ele>
        <time>2022-02-08T10:01:06Z</time>
      </trkpt>
      <trkpt lat="41.9000300" lon="-2.8932520">
        <ele>1338.6</ele>
        <time>2022-02-08T10:01:07Z</time>
      </trkpt>
      <trkpt lat="41.9000230" lon="-2.8932230">
        <ele>1338.8</ele>
        <time>2022-02-08T10:01:08Z</time>
      </trkpt>
      <trkpt lat="41.9000180" lon="-2.8931970">
        <ele>1338.9</ele>
        <time>2022-02-08T10:01:09Z</time>
      </trkpt>
      <trkpt lat="41.9000170" lon="-2.8931750">
        <ele>1339.1</ele>
        <time>2022-02-08T10:01:10Z</time>
      </trkpt>
      <trkpt lat="41.9000170" lon="-2.8931530">
        <ele>1339.2</ele>
        <time>2022-02-08T10:01:11Z</time>
      </trkpt>
      <trkpt lat="41.9000220" lon="-2.8931280">
        <ele>1339.4</ele>
        <time>2022-02-08T10:01:12Z</time>
      </trkpt>
      <trkpt lat="41.9000220" lon="-2.8931070">
        <ele>1339.5</ele>
        <time>2022-02-08T10:01:13Z</time>
      </trkpt>
      <trkpt lat="41.9000230" lon="-2.8930850">
        <ele>1339.7</ele>
        <time>2022-02-08T10:01:14Z</time>
      </trkpt>
      <trkpt lat="41.9000230" lon="-2.8930600">
        <ele>1339.8</ele>
        <time>2022-02-08T10:01:15Z</time>
      </trkpt>
      <trkpt lat="41.9000270" lon="-2.8930350">
        <ele>1340.0</ele>
        <time>2022-02-08T10:01:16Z</time>
      </trkpt>
      <trkpt lat="41.9000270" lon="-2.8930120">
        <ele>1340.2</ele>
        <time>2022-02-08T10:01:17Z</time>
      </trkpt>
      <trkpt lat="41.9000270" lon="-2.8929870">
        <ele>1340.4</ele>
        <time>2022-02-08T10:01:18Z</time>
      </trkpt>
      <trkpt lat="41.9000270" lon="-2.8929620">
        <ele>1340.6</ele>
        <time>2022-02-08T10:01:19Z</time>
      </trkpt>
      <trkpt lat="41.9000270" lon="-2.8929370">
        <ele>1340.7</ele>
        <time>2022-02-08T10:01:20Z</time>
      </trkpt>
      <trkpt lat="41.9000250" lon="-2.8929120">
        <ele>1340.9</ele>
        <time>2022-02-08T10:01:21Z</time>
      </trkpt>
      <trkpt lat="41.9000200" lon="-2.8928830">
        <ele>1341.1</ele>
        <time>2022-02-08T10:01:22Z</time>
      </trkpt>
      <trkpt lat="41.9000130" lon="-2.8928600">
        <ele>1341.3</ele>
        <time>2022-02-08T10:01:23Z</time>
      </trkpt>
      <trkpt lat="41.9000050" lon="-2.8928330">
        <ele>1341.4</ele>
        <time>2022-02-08T10:01:24Z</time>
      </trkpt>
      <trkpt lat="41.9000000" lon="-2.8928070">
        <ele>1341.6</ele>
        <time>2022-02-08T10:01:25Z</time>
      </trkpt>
      <trkpt lat="41.8999950" lon="-2.8927800">
        <ele>1341.7</ele>
        <time>2022-02-08T10:01:26Z</time>
      </trkpt>
      <trkpt lat="41.8999900" lon="-2.8927520">
        <ele>1341.9</ele>
        <time>2022-02-08T10:01:27Z</time>
      </trkpt>
      <trkpt lat="41.8999830" lon="-2.8927270">
        <ele>1342.0</ele>
        <time>2022-02-08T10:01:28Z</time>
      </trkpt>
      <trkpt lat="41.8999770" lon="-2.8927030">
        <ele>1342.1</ele>
        <time>2022-02-08T10:01:29Z</time>
      </trkpt>
      <trkpt lat="41.8999700" lon="-2.8926780">
        <ele>1342.2</ele>
        <time>2022-02-08T10:01:30Z</time>
      </trkpt>
      <trkpt lat="41.8999650" lon="-2.8926520">
        <ele>1342.3</ele>
        <time>2022-02-08T10:01:31Z</time>
      </trkpt>
      <trkpt lat="41.8999570" lon="-2.8926280">
        <ele>1342.4</ele>
        <time>2022-02-08T10:01:32Z</time>
      </trkpt>
      <trkpt lat="41.8999450" lon="-2.8926030">
        <ele>1342.4</ele>
        <time>2022-02-08T10:01:33Z</time>
      </trkpt>
      <trkpt lat="41.8999320" lon="-2.8925770">
        <ele>1342.5</ele>
        <time>2022-02-08T10:01:34Z</time>
      </trkpt>
      <trkpt lat="41.8999170" lon="-2.8925500">
        <ele>1342.6</ele>
        <time>2022-02-08T10:01:35Z</time>
      </trkpt>
      <trkpt lat="41.8999000" lon="-2.8925270">
        <ele>1342.6</ele>
        <time>2022-02-08T10:01:36Z</time>
      </trkpt>
      <trkpt lat="41.8998780" lon="-2.8925030">
        <ele>1342.6</ele>
        <time>2022-02-08T10:01:37Z</time>
      </trkpt>
      <trkpt lat="41.8998400" lon="-2.8924800">
        <ele>1342.6</ele>
        <time>2022-02-08T10:01:38Z</time>
      </trkpt>
      <trkpt lat="41.8998130" lon="-2.8924600">
        <ele>1342.6</ele>
        <time>2022-02-08T10:01:39Z</time>
      </trkpt>
      <trkpt lat="41.8997870" lon="-2.8924350">
        <ele>1342.6</ele>
        <time>2022-02-08T10:01:40Z</time>
      </trkpt>
      <trkpt lat="41.8997670" lon="-2.8924070">
        <ele>1342.5</ele>
        <time>2022-02-08T10:01:41Z</time>
      </trkpt>
      <trkpt lat="41.8997420" lon="-2.8923770">
        <ele>1342.5</ele>
        <time>2022-02-08T10:01:42Z</time>
      </trkpt>
      <trkpt lat="41.8997200" lon="-2.8923450">
        <ele>1342.4</ele>
        <time>2022-02-08T10:01:43Z</time>
      </trkpt>
      <trkpt lat="41.8997020" lon="-2.8923130">
        <ele>1342.4</ele>
        <time>2022-02-08T10:01:44Z</time>
      </trkpt>
      <trkpt lat="41.8996900" lon="-2.8922820">
        <ele>1342.3</ele>
        <time>2022-02-08T10:01:45Z</time>
      </trkpt>
      <trkpt lat="41.8996770" lon="-2.8922480">
        <ele>1342.3</ele>
        <time>2022-02-08T10:01:46Z</time>
      </trkpt>
      <trkpt lat="41.8996670" lon="-2.8922100">
        <ele>1342.2</ele>
        <time>2022-02-08T10:01:47Z</time>
      </trkpt>
      <trkpt lat="41.8996520" lon="-2.8921730">
        <ele>1342.1</ele>
        <time>2022-02-08T10:01:48Z</time>
      </trkpt>
      <trkpt lat="41.8996350" lon="-2.8921380">
        <ele>1342.0</ele>
        <time>2022-02-08T10:01:49Z</time>
      </trkpt>
      <trkpt lat="41.8996170" lon="-2.8921070">
        <ele>1341.9</ele>
        <time>2022-02-08T10:01:50Z</time>
      </trkpt>
      <trkpt lat="41.8995930" lon="-2.8920770">
        <ele>1341.7</ele>
        <time>2022-02-08T10:01:51Z</time>
      </trkpt>
      <trkpt lat="41.8995650" lon="-2.8920420">
        <ele>1341.6</ele>
        <time>2022-02-08T10:01:52Z</time>
      </trkpt>
      <trkpt lat="41.8995370" lon="-2.8920000">
        <ele>1341.4</ele>
        <time>2022-02-08T10:01:53Z</time>
      </trkpt>
      <trkpt lat="41.8995050" lon="-2.8919580">
        <ele>1341.2</ele>
        <time>2022-02-08T10:01:54Z</time>
      </trkpt>
      <trkpt lat="41.8994730" lon="-2.8919130">
        <ele>1341.0</ele>
        <time>2022-02-08T10:01:55Z</time>
      </trkpt>
      <trkpt lat="41.8994380" lon="-2.8918730">
        <ele>1340.9</ele>
        <time>2022-02-08T10:01:56Z</time>
      </trkpt>
      <trkpt lat="41.8994020" lon="-2.8918370">
        <ele>1340.7</ele>
        <time>2022-02-08T10:01:57Z</time>
      </trkpt>
      <trkpt lat="41.8993630" lon="-2.8917970">
        <ele>1340.6</ele>
        <time>2022-02-08T10:01:58Z</time>
      </trkpt>
      <trkpt lat="41.8993280" lon="-2.8917570">
        <ele>1340.5</ele>
        <time>2022-02-08T10:01:59Z</time>
      </trkpt>
      <trkpt lat="41.8992970" lon="-2.8917120">
        <ele>1340.4</ele>
        <time>2022-02-08T10:02:00Z</time>
      </trkpt>
      <trkpt lat="41.8992670" lon="-2.8916620">
        <ele>1340.4</ele>
        <time>2022-02-08T10:02:01Z</time>
      </trkpt>
      <trkpt lat="41.8992500" lon="-2.8916280">
        <ele>1340.4</ele>
        <time>2022-02-08T10:02:02Z</time>
      </trkpt>
      <trkpt lat="41.8992350" lon="-2.8915920">
        <ele>1340.4</ele>
        <time>2022-02-08T10:02:03Z</time>
      </trkpt>
      <trkpt lat="41.8992250" lon="-2.8915520">
        <ele>1340.4</ele>
        <time>2022-02-08T10:02:04Z</time>
      </trkpt>
      <trkpt lat="41.8992180" lon="-2.8915150">
        <ele>1340.4</ele>
        <time>2022-02-08T10:02:05Z</time>
      </trkpt>
      <trkpt lat="41.8992170" lon="-2.8914850">
        <ele>1340.4</ele>
        <time>2022-02-08T10:02:06Z</time>
      </trkpt>
      <trkpt lat="41.8992170" lon="-2.8914450">
        <ele>1340.4</ele>
        <time>2022-02-08T10:02:07Z</time>
      </trkpt>
      <trkpt lat="41.8992080" lon="-2.8914130">
        <ele>1340.5</ele>
        <time>2022-02-08T10:02:08Z</time>
      </trkpt>
      <trkpt lat="41.8992030" lon="-2.8913780">
        <ele>1340.5</ele>
        <time>2022-02-08T10:02:09Z</time>
      </trkpt>
      <trkpt lat="41.8991980" lon="-2.8913380">
        <ele>1340.5</ele>
        <time>2022-02-08T10:02:10Z</time>
      </trkpt>
      <trkpt lat="41.8991920" lon="-2.8913020">
        <ele>1340.6</ele>
        <time>2022-02-08T10:02:11Z</time>
      </trkpt>
      <trkpt lat="41.8991780" lon="-2.8912630">
        <ele>1340.7</ele>
        <time>2022-02-08T10:02:12Z</time>
      </trkpt>
      <trkpt lat="41.8991680" lon="-2.8912300">
        <ele>1340.7</ele>
        <time>2022-02-08T10:02:13Z</time>
      </trkpt>
      <trkpt lat="41.8991600" lon="-2.8911930">
        <ele>1340.8</ele>
        <time>2022-02-08T10:02:14Z</time>
      </trkpt>
      <trkpt lat="41.8991570" lon="-2.8911580">
        <ele>1340.9</ele>
        <time>2022-02-08T10:02:15Z</time>
      </trkpt>
      <trkpt lat="41.8991530" lon="-2.8911220">
        <ele>1341.0</ele>
        <time>2022-02-08T10:02:16Z</time>
      </trkpt>
      <trkpt lat="41.8991500" lon="-2.8910800">
        <ele>1341.0</ele>
        <time>2022-02-08T10:02:17Z</time>
      </trkpt>
      <trkpt lat="41.8991480" lon="-2.8910370">
        <ele>1341.1</ele>
        <time>2022-02-08T10:02:18Z</time>
      </trkpt>
      <trkpt lat="41.8991530" lon="-2.8909970">
        <ele>1341.2</ele>
        <time>2022-02-08T10:02:19Z</time>
      </trkpt>
      <trkpt lat="41.8991580" lon="-2.8909600">
        <ele>1341.3</ele>
        <time>2022-02-08T10:02:20Z</time>
      </trkpt>
      <trkpt lat="41.8991650" lon="-2.8909230">
        <ele>1341.3</ele>
        <time>2022-02-08T10:02:21Z</time>
      </trkpt>
      <trkpt lat="41.8991800" lon="-2.8908930">
        <ele>1341.4</ele>
        <time>2022-02-08T10:02:22Z</time>
      </trkpt>
      <trkpt lat="41.8991850" lon="-2.8908580">
        <ele>1341.5</ele>
        <time>2022-02-08T10:02:23Z</time>
      </trkpt>
      <trkpt lat="41.8991880" lon="-2.8908280">
        <ele>1341.5</ele>
        <time>2022-02-08T10:02:24Z</time>
      </trkpt>
      <trkpt lat="41.8991930" lon="-2.8907980">
        <ele>1341.6</ele>
        <time>2022-02-08T10:02:25Z</time>
      </trkpt>
      <trkpt lat="41.8992000" lon="-2.8907620">
        <ele>1341.7</ele>
        <time>2022-02-08T10:02:26Z</time>
      </trkpt>
      <trkpt lat="41.8992080" lon="-2.8907270">
        <ele>1341.7</ele>
        <time>2022-02-08T10:02:27Z</time>
      </trkpt>
      <trkpt lat="41.8992070" lon="-2.8907050">
        <ele>1341.8</ele>
        <time>2022-02-08T10:02:28Z</time>
      </trkpt>
      <trkpt lat="41.8991830" lon="-2.8906750">
        <ele>1341.8</ele>
        <time>2022-02-08T10:02:29Z</time>
      </trkpt>
      <trkpt lat="41.8991680" lon="-2.8906600">
        <ele>1341.9</ele>
        <time>2022-02-08T10:02:30Z</time>
      </trkpt>
      <trkpt lat="41.8991520" lon="-2.8906400">
        <ele>1341.9</ele>
        <time>2022-02-08T10:02:31Z</time>
      </trkpt>
      <trkpt lat="41.8991380" lon="-2.8906130">
        <ele>1341.9</ele>
        <time>2022-02-08T10:02:32Z</time>
      </trkpt>
      <trkpt lat="41.8991250" lon="-2.8905830">
        <ele>1342.0</ele>
        <time>2022-02-08T10:02:33Z</time>
      </trkpt>
      <trkpt lat="41.8991120" lon="-2.8905480">
        <ele>1342.0</ele>
        <time>2022-02-08T10:02:34Z</time>
      </trkpt>
      <trkpt lat="41.8990980" lon="-2.8905120">
        <ele>1342.0</ele>
        <time>2022-02-08T10:02:35Z</time>
      </trkpt>
      <trkpt lat="41.8990880" lon="-2.8904750">
        <ele>1342.1</ele>
        <time>2022-02-08T10:02:36Z</time>
      </trkpt>
      <trkpt lat="41.8990750" lon="-2.8904350">
        <ele>1342.1</ele>
        <time>2022-02-08T10:02:37Z</time>
      </trkpt>
      <trkpt lat="41.8990620" lon="-2.8903920">
        <ele>1342.2</ele>
        <time>2022-02-08T10:02:38Z</time>
      </trkpt>
      <trkpt lat="41.8990470" lon="-2.8903450">
        <ele>1342.2</ele>
        <time>2022-02-08T10:02:39Z</time>
      </trkpt>
      <trkpt lat="41.8990320" lon="-2.8902970">
        <ele>1342.2</ele>
        <time>2022-02-08T10:02:40Z</time>
      </trkpt>
      <trkpt lat="41.8990250" lon="-2.8902520">
        <ele>1342.3</ele>
        <time>2022-02-08T10:02:41Z</time>
      </trkpt>
      <trkpt lat="41.8990220" lon="-2.8902080">
        <ele>1342.4</ele>
        <time>2022-02-08T10:02:42Z</time>
      </trkpt>
      <trkpt lat="41.8990150" lon="-2.8901650">
        <ele>1342.6</ele>
        <time>2022-02-08T10:02:43Z</time>
      </trkpt>
      <trkpt lat="41.8990100" lon="-2.8901300">
        <ele>1342.7</ele>
        <time>2022-02-08T10:02:44Z</time>
      </trkpt>
      <trkpt lat="41.8990080" lon="-2.8900880">
        <ele>1342.9</ele>
        <time>2022-02-08T10:02:45Z</time>
      </trkpt>
      <trkpt lat="41.8990050" lon="-2.8900550">
        <ele>1343.0</ele>
        <time>2022-02-08T10:02:46Z</time>
      </trkpt>
      <trkpt lat="41.8989980" lon="-2.8900270">
        <ele>1343.2</ele>
        <time>2022-02-08T10:02:47Z</time>
      </trkpt>
      <trkpt lat="41.8989880" lon="-2.8899930">
        <ele>1343.4</ele>
        <time>2022-02-08T10:02:48Z</time>
      </trkpt>
      <trkpt lat="41.8989800" lon="-2.8899620">
        <ele>1343.6</ele>
        <time>2022-02-08T10:02:49Z</time>
      </trkpt>
      <trkpt lat="41.8989680" lon="-2.8899320">
        <ele>1343.8</ele>
        <time>2022-02-08T10:02:50Z</time>
      </trkpt>
      <trkpt lat="41.8989630" lon="-2.8898880">
        <ele>1344.0</ele>
        <time>2022-02-08T10:02:51Z</time>
      </trkpt>
      <trkpt lat="41.8989520" lon="-2.8898400">
        <ele>1344.3</ele>
        <time>2022-02-08T10:02:52Z</time>
      </trkpt>
      <trkpt lat="41.8989450" lon="-2.8897980">
        <ele>1344.5</ele>
        <time>2022-02-08T10:02:53Z</time>
      </trkpt>
      <trkpt lat="41.8989320" lon="-2.8897620">
        <ele>1344.8</ele>
        <time>2022-02-08T10:02:54Z</time>
      </trkpt>
      <trkpt lat="41.8989180" lon="-2.8897350">
        <ele>1345.0</ele>
        <time>2022-02-08T10:02:55Z</time>
      </trkpt>
      <trkpt lat="41.8989150" lon="-2.8897070">
        <ele>1345.1</ele>
        <time>2022-02-08T10:02:56Z</time>
      </trkpt>
      <trkpt lat="41.8989100" lon="-2.8896770">
        <ele>1345.3</ele>
        <time>2022-02-08T10:02:57Z</time>
      </trkpt>
      <trkpt lat="41.8989080" lon="-2.8896420">
        <ele>1345.5</ele>
        <time>2022-02-08T10:02:58Z</time>
      </trkpt>
      <trkpt lat="41.8988950" lon="-2.8896120">
        <ele>1345.8</ele>
        <time>2022-02-08T10:02:59Z</time>
      </trkpt>
      <trkpt lat="41.8988880" lon="-2.8895850">
        <ele>1346.0</ele>
        <time>2022-02-08T10:03:00Z</time>
      </trkpt>
      <trkpt lat="41.8988800" lon="-2.8895600">
        <ele>1346.2</ele>
        <time>2022-02-08T10:03:01Z</time>
      </trkpt>
      <trkpt lat="41.8988670" lon="-2.8895330">
        <ele>1346.4</ele>
        <time>2022-02-08T10:03:02Z</time>
      </trkpt>
      <trkpt lat="41.8988600" lon="-2.8895120">
        <ele>1346.5</ele>
        <time>2022-02-08T10:03:03Z</time>
      </trkpt>
      <trkpt lat="41.8988570" lon="-2.8894920">
        <ele>1346.7</ele>
        <time>2022-02-08T10:03:04Z</time>
      </trkpt>
      <trkpt lat="41.8988520" lon="-2.8894720">
        <ele>1346.8</ele>
        <time>2022-02-08T10:03:05Z</time>
      </trkpt>
      <trkpt lat="41.8988450" lon="-2.8894530">
        <ele>1347.0</ele>
        <time>2022-02-08T10:03:06Z</time>
      </trkpt>
      <trkpt lat="41.8988430" lon="-2.8894330">
        <ele>1347.1</ele>
        <time>2022-02-08T10:03:07Z</time>
      </trkpt>
      <trkpt lat="41.8988420" lon="-2.8894050">
        <ele>1347.3</ele>
        <time>2022-02-08T10:03:08Z</time>
      </trkpt>
      <trkpt lat="41.8988330" lon="-2.8893750">
        <ele>1347.5</ele>
        <time>2022-02-08T10:03:09Z</time>
      </trkpt>
      <trkpt lat="41.8988270" lon="-2.8893430">
        <ele>1347.7</ele>
        <time>2022-02-08T10:03:10Z</time>
      </trkpt>
      <trkpt lat="41.8988180" lon="-2.8893130">
        <ele>1347.9</ele>
        <time>2022-02-08T10:03:11Z</time>
      </trkpt>
      <trkpt lat="41.8988200" lon="-2.8892900">
        <ele>1348.1</ele>
        <time>2022-02-08T10:03:12Z</time>
      </trkpt>
      <trkpt lat="41.8988220" lon="-2.8892630">
        <ele>1348.3</ele>
        <time>2022-02-08T10:03:13Z</time>
      </trkpt>
      <trkpt lat="41.8988220" lon="-2.8892370">
        <ele>1348.4</ele>
        <time>2022-02-08T10:03:14Z</time>
      </trkpt>
      <trkpt lat="41.8988200" lon="-2.8892070">
        <ele>1348.6</ele>
        <time>2022-02-08T10:03:15Z</time>
      </trkpt>
      <trkpt lat="41.8988200" lon="-2.8891750">
        <ele>1348.8</ele>
        <time>2022-02-08T10:03:16Z</time>
      </trkpt>
      <trkpt lat="41.8988200" lon="-2.8891470">
        <ele>1349.0</ele>
        <time>2022-02-08T10:03:17Z</time>
      </trkpt>
      <trkpt lat="41.8988150" lon="-2.8891180">
        <ele>1349.2</ele>
        <time>2022-02-08T10:03:18Z</time>
      </trkpt>
      <trkpt lat="41.8988080" lon="-2.8890930">
        <ele>1349.4</ele>
        <time>2022-02-08T10:03:19Z</time>
      </trkpt>
      <trkpt lat="41.8988030" lon="-2.8890650">
        <ele>1349.6</ele>
        <time>2022-02-08T10:03:20Z</time>
      </trkpt>
      <trkpt lat="41.8988000" lon="-2.8890370">
        <ele>1349.8</ele>
        <time>2022-02-08T10:03:21Z</time>
      </trkpt>
      <trkpt lat="41.8987970" lon="-2.8890130">
        <ele>1350.1</ele>
        <time>2022-02-08T10:03:22Z</time>
      </trkpt>
      <trkpt lat="41.8987950" lon="-2.8889930">
        <ele>1350.2</ele>
        <time>2022-02-08T10:03:23Z</time>
      </trkpt>
      <trkpt lat="41.8987950" lon="-2.8889680">
        <ele>1350.5</ele>
        <time>2022-02-08T10:03:24Z</time>
      </trkpt>
      <trkpt lat="41.8987930" lon="-2.8889450">
        <ele>1350.7</ele>
        <time>2022-02-08T10:03:25Z</time>
      </trkpt>
      <trkpt lat="41.8987900" lon="-2.8889230">
        <ele>1351.0</ele>
        <time>2022-02-08T10:03:26Z</time>
      </trkpt>
      <trkpt lat="41.8987850" lon="-2.8889030">
        <ele>1351.3</ele>
        <time>2022-02-08T10:03:27Z</time>
      </trkpt>
      <trkpt lat="41.8987820" lon="-2.8888820">
        <ele>1351.5</ele>
        <time>2022-02-08T10:03:28Z</time>
      </trkpt>
      <trkpt lat="41.8987800" lon="-2.8888630">
        <ele>1351.8</ele>
        <time>2022-02-08T10:03:29Z</time>
      </trkpt>
      <trkpt lat="41.8987830" lon="-2.8888470">
        <ele>1352.0</ele>
        <time>2022-02-08T10:03:30Z</time>
      </trkpt>
      <trkpt lat="41.8987880" lon="-2.8888330">
        <ele>1352.2</ele>
        <time>2022-02-08T10:03:31Z</time>
      </trkpt>
      <trkpt lat="41.8987950" lon="-2.8888150">
        <ele>1352.5</ele>
        <time>2022-02-08T10:03:32Z</time>
      </trkpt>
      <trkpt lat="41.8988020" lon="-2.8887880">
        <ele>1352.9</ele>
        <time>2022-02-08T10:03:33Z</time>
      </trkpt>
      <trkpt lat="41.8988070" lon="-2.8887670">
        <ele>1353.2</ele>
        <time>2022-02-08T10:03:34Z</time>
      </trkpt>
      <trkpt lat="41.8988120" lon="-2.8887450">
        <ele>1353.6</ele>
        <time>2022-02-08T10:03:35Z</time>
      </trkpt>
      <trkpt lat="41.8988130" lon="-2.8887270">
        <ele>1353.8</ele>
        <time>2022-02-08T10:03:36Z</time>
      </trkpt>
      <trkpt lat="41.8988180" lon="-2.8887030">
        <ele>1354.2</ele>
        <time>2022-02-08T10:03:37Z</time>
      </trkpt>
      <trkpt lat="41.8988230" lon="-2.8886770">
        <ele>1354.5</ele>
        <time>2022-02-08T10:03:38Z</time>
      </trkpt>
      <trkpt lat="41.8988220" lon="-2.8886550">
        <ele>1354.7</ele>
        <time>2022-02-08T10:03:39Z</time>
      </trkpt>
      <trkpt lat="41.8988170" lon="-2.8886350">
        <ele>1355.0</ele>
        <time>2022-02-08T10:03:40Z</time>
      </trkpt>
      <trkpt lat="41.8988100" lon="-2.8886130">
        <ele>1355.2</ele>
        <time>2022-02-08T10:03:41Z</time>
      </trkpt>
      <trkpt lat="41.8988030" lon="-2.8885920">
        <ele>1355.4</ele>
        <time>2022-02-08T10:03:42Z</time>
      </trkpt>
      <trkpt lat="41.8987920" lon="-2.8885720">
        <ele>1355.6</ele>
        <time>2022-02-08T10:03:43Z</time>
      </trkpt>
      <trkpt lat="41.8987780" lon="-2.8885500">
        <ele>1355.7</ele>
        <time>2022-02-08T10:03:44Z</time>
      </trkpt>
      <trkpt lat="41.8987670" lon="-2.8885380">
        <ele>1355.8</ele>
        <time>2022-02-08T10:03:45Z</time>
      </trkpt>
      <trkpt lat="41.8987450" lon="-2.8885230">
        <ele>1355.9</ele>
        <time>2022-02-08T10:03:46Z</time>
      </trkpt>
      <trkpt lat="41.8987180" lon="-2.8884950">
        <ele>1356.0</ele>
        <time>2022-02-08T10:03:47Z</time>
      </trkpt>
      <trkpt lat="41.8986980" lon="-2.8884800">
        <ele>1356.0</ele>
        <time>2022-02-08T10:03:48Z</time>
      </trkpt>
      <trkpt lat="41.8986780" lon="-2.8884700">
        <ele>1356.0</ele>
        <time>2022-02-08T10:03:49Z</time>
      </trkpt>
      <trkpt lat="41.8986480" lon="-2.8884550">
        <ele>1355.9</ele>
        <time>2022-02-08T10:03:50Z</time>
      </trkpt>
      <trkpt lat="41.8986220" lon="-2.8884430">
        <ele>1355.8</ele>
        <time>2022-02-08T10:03:51Z</time>
      </trkpt>
      <trkpt lat="41.8985950" lon="-2.8884300">
        <ele>1355.6</ele>
        <time>2022-02-08T10:03:52Z</time>
      </trkpt>
      <trkpt lat="41.8985600" lon="-2.8884200">
        <ele>1355.5</ele>
        <time>2022-02-08T10:03:53Z</time>
      </trkpt>
      <trkpt lat="41.8985320" lon="-2.8884170">
        <ele>1355.4</ele>
        <time>2022-02-08T10:03:54Z</time>
      </trkpt>
      <trkpt lat="41.8985080" lon="-2.8884150">
        <ele>1355.4</ele>
        <time>2022-02-08T10:03:55Z</time>
      </trkpt>
      <trkpt lat="41.8984900" lon="-2.8884070">
        <ele>1355.4</ele>
        <time>2022-02-08T10:03:56Z</time>
      </trkpt>
      <trkpt lat="41.8984770" lon="-2.8883930">
        <ele>1355.4</ele>
        <time>2022-02-08T10:03:57Z</time>
      </trkpt>
      <trkpt lat="41.8984650" lon="-2.8883750">
        <ele>1355.4</ele>
        <time>2022-02-08T10:03:58Z</time>
      </trkpt>
      <trkpt lat="41.8984580" lon="-2.8883530">
        <ele>1355.4</ele>
        <time>2022-02-08T10:03:59Z</time>
      </trkpt>
      <trkpt lat="41.8984520" lon="-2.8883350">
        <ele>1355.5</ele>
        <time>2022-02-08T10:04:00Z</time>
      </trkpt>
      <trkpt lat="41.8984400" lon="-2.8883170">
        <ele>1355.6</ele>
        <time>2022-02-08T10:04:01Z</time>
      </trkpt>
      <trkpt lat="41.8984280" lon="-2.8883100">
        <ele>1355.7</ele>
        <time>2022-02-08T10:04:02Z</time>
      </trkpt>
      <trkpt lat="41.8984180" lon="-2.8883030">
        <ele>1355.7</ele>
        <time>2022-02-08T10:04:03Z</time>
      </trkpt>
      <trkpt lat="41.8984030" lon="-2.8882970">
        <ele>1355.8</ele>
        <time>2022-02-08T10:04:04Z</time>
      </trkpt>
      <trkpt lat="41.8983900" lon="-2.8882870">
        <ele>1356.0</ele>
        <time>2022-02-08T10:04:05Z</time>
      </trkpt>
      <trkpt lat="41.8983780" lon="-2.8882750">
        <ele>1356.1</ele>
        <time>2022-02-08T10:04:06Z</time>
      </trkpt>
      <trkpt lat="41.8983680" lon="-2.8882630">
        <ele>1356.2</ele>
        <time>2022-02-08T10:04:07Z</time>
      </trkpt>
      <trkpt lat="41.8983600" lon="-2.8882500">
        <ele>1356.3</ele>
        <time>2022-02-08T10:04:08Z</time>
      </trkpt>
      <trkpt lat="41.8983530" lon="-2.8882370">
        <ele>1356.4</ele>
        <time>2022-02-08T10:04:09Z</time>
      </trkpt>
      <trkpt lat="41.8983430" lon="-2.8882180">
        <ele>1356.6</ele>
        <time>2022-02-08T10:04:10Z</time>
      </trkpt>
      <trkpt lat="41.8983380" lon="-2.8882000">
        <ele>1356.8</ele>
        <time>2022-02-08T10:04:11Z</time>
      </trkpt>
      <trkpt lat="41.8983320" lon="-2.8881780">
        <ele>1356.9</ele>
        <time>2022-02-08T10:04:12Z</time>
      </trkpt>
      <trkpt lat="41.8983250" lon="-2.8881620">
        <ele>1357.1</ele>
        <time>2022-02-08T10:04:13Z</time>
      </trkpt>
      <trkpt lat="41.8983170" lon="-2.8881430">
        <ele>1357.2</ele>
        <time>2022-02-08T10:04:14Z</time>
      </trkpt>
      <trkpt lat="41.8983070" lon="-2.8881250">
        <ele>1357.4</ele>
        <time>2022-02-08T10:04:15Z</time>
      </trkpt>
      <trkpt lat="41.8982980" lon="-2.8881030">
        <ele>1357.6</ele>
        <time>2022-02-08T10:04:16Z</time>
      </trkpt>
      <trkpt lat="41.8982920" lon="-2.8880820">
        <ele>1357.7</ele>
        <time>2022-02-08T10:04:17Z</time>
      </trkpt>
      <trkpt lat="41.8982880" lon="-2.8880650">
        <ele>1357.9</ele>
        <time>2022-02-08T10:04:18Z</time>
      </trkpt>
      <trkpt lat="41.8982820" lon="-2.8880450">
        <ele>1358.0</ele>
        <time>2022-02-08T10:04:19Z</time>
      </trkpt>
      <trkpt lat="41.8982730" lon="-2.8880230">
        <ele>1358.1</ele>
        <time>2022-02-08T10:04:20Z</time>
      </trkpt>
      <trkpt lat="41.8982650" lon="-2.8880000">
        <ele>1358.3</ele>
        <time>2022-02-08T10:04:21Z</time>
      </trkpt>
      <trkpt lat="41.8982600" lon="-2.8879770">
        <ele>1358.4</ele>
        <time>2022-02-08T10:04:22Z</time>
      </trkpt>
      <trkpt lat="41.8982550" lon="-2.8879530">
        <ele>1358.5</ele>
        <time>2022-02-08T10:04:23Z</time>
      </trkpt>
      <trkpt lat="41.8982530" lon="-2.8879230">
        <ele>1358.7</ele>
        <time>2022-02-08T10:04:24Z</time>
      </trkpt>
      <trkpt lat="41.8982500" lon="-2.8879000">
        <ele>1358.8</ele>
        <time>2022-02-08T10:04:25Z</time>
      </trkpt>
      <trkpt lat="41.8982430" lon="-2.8878770">
        <ele>1359.0</ele>
        <time>2022-02-08T10:04:26Z</time>
      </trkpt>
      <trkpt lat="41.8982370" lon="-2.8878600">
        <ele>1359.0</ele>
        <time>2022-02-08T10:04:27Z</time>
      </trkpt>
      <trkpt lat="41.8982280" lon="-2.8878350">
        <ele>1359.2</ele>
        <time>2022-02-08T10:04:28Z</time>
      </trkpt>
      <trkpt lat="41.8982200" lon="-2.8878070">
        <ele>1359.4</ele>
        <time>2022-02-08T10:04:29Z</time>
      </trkpt>
      <trkpt lat="41.8982080" lon="-2.8877830">
        <ele>1359.5</ele>
        <time>2022-02-08T10:04:30Z</time>
      </trkpt>
      <trkpt lat="41.8982000" lon="-2.8877650">
        <ele>1359.6</ele>
        <time>2022-02-08T10:04:31Z</time>
      </trkpt>
      <trkpt lat="41.8981900" lon="-2.8877450">
        <ele>1359.8</ele>
        <time>2022-02-08T10:04:32Z</time>
      </trkpt>
      <trkpt lat="41.8981970" lon="-2.8877030">
        <ele>1360.0</ele>
        <time>2022-02-08T10:04:33Z</time>
      </trkpt>
      <trkpt lat="41.8981780" lon="-2.8876920">
        <ele>1360.2</ele>
        <time>2022-02-08T10:04:34Z</time>
      </trkpt>
      <trkpt lat="41.8981730" lon="-2.8876600">
        <ele>1360.4</ele>
        <time>2022-02-08T10:04:35Z</time>
      </trkpt>
      <trkpt lat="41.8981580" lon="-2.8876400">
        <ele>1360.5</ele>
        <time>2022-02-08T10:04:36Z</time>
      </trkpt>
      <trkpt lat="41.8981500" lon="-2.8876170">
        <ele>1360.7</ele>
        <time>2022-02-08T10:04:37Z</time>
      </trkpt>
      <trkpt lat="41.8981380" lon="-2.8875900">
        <ele>1360.9</ele>
        <time>2022-02-08T10:04:38Z</time>
      </trkpt>
      <trkpt lat="41.8981280" lon="-2.8875620">
        <ele>1361.1</ele>
        <time>2022-02-08T10:04:39Z</time>
      </trkpt>
      <trkpt lat="41.8981170" lon="-2.8875430">
        <ele>1361.2</ele>
        <time>2022-02-08T10:04:40Z</time>
      </trkpt>
      <trkpt lat="41.8981050" lon="-2.8875330">
        <ele>1361.4</ele>
        <time>2022-02-08T10:04:41Z</time>
      </trkpt>
      <trkpt lat="41.8980920" lon="-2.8875220">
        <ele>1361.5</ele>
        <time>2022-02-08T10:04:42Z</time>
      </trkpt>
      <trkpt lat="41.8980800" lon="-2.8875030">
        <ele>1361.7</ele>
        <time>2022-02-08T10:04:43Z</time>
      </trkpt>
      <trkpt lat="41.8980730" lon="-2.8874850">
        <ele>1361.8</ele>
        <time>2022-02-08T10:04:44Z</time>
      </trkpt>
      <trkpt lat="41.8980670" lon="-2.8874720">
        <ele>1361.9</ele>
        <time>2022-02-08T10:04:45Z</time>
      </trkpt>
      <trkpt lat="41.8980580" lon="-2.8874550">
        <ele>1362.0</ele>
        <time>2022-02-08T10:04:46Z</time>
      </trkpt>
      <trkpt lat="41.8980530" lon="-2.8874280">
        <ele>1362.2</ele>
        <time>2022-02-08T10:04:47Z</time>
      </trkpt>
      <trkpt lat="41.8980470" lon="-2.8874080">
        <ele>1362.3</ele>
        <time>2022-02-08T10:04:48Z</time>
      </trkpt>
      <trkpt lat="41.8980400" lon="-2.8873870">
        <ele>1362.5</ele>
        <time>2022-02-08T10:04:49Z</time>
      </trkpt>
      <trkpt lat="41.8980400" lon="-2.8873620">
        <ele>1362.6</ele>
        <time>2022-02-08T10:04:50Z</time>
      </trkpt>
      <trkpt lat="41.8980370" lon="-2.8873350">
        <ele>1362.8</ele>
        <time>2022-02-08T10:04:51Z</time>
      </trkpt>
      <trkpt lat="41.8980370" lon="-2.8873130">
        <ele>1362.9</ele>
        <time>2022-02-08T10:04:52Z</time>
      </trkpt>
      <trkpt lat="41.8980380" lon="-2.8872800">
        <ele>1363.1</ele>
        <time>2022-02-08T10:04:53Z</time>
      </trkpt>
      <trkpt lat="41.8980350" lon="-2.8872550">
        <ele>1363.3</ele>
        <time>2022-02-08T10:04:54Z</time>
      </trkpt>
      <trkpt lat="41.8980320" lon="-2.8872350">
        <ele>1363.4</ele>
        <time>2022-02-08T10:04:55Z</time>
      </trkpt>
      <trkpt lat="41.8980230" lon="-2.8872080">
        <ele>1363.5</ele>
        <time>2022-02-08T10:04:56Z</time>
      </trkpt>
      <trkpt lat="41.8980150" lon="-2.8871900">
        <ele>1363.7</ele>
        <time>2022-02-08T10:04:57Z</time>
      </trkpt>
      <trkpt lat="41.8980020" lon="-2.8871630">
        <ele>1363.9</ele>
        <time>2022-02-08T10:04:58Z</time>
      </trkpt>
      <trkpt lat="41.8979950" lon="-2.8871450">
        <ele>1364.0</ele>
        <time>2022-02-08T10:04:59Z</time>
      </trkpt>
      <trkpt lat="41.8979900" lon="-2.8871250">
        <ele>1364.1</ele>
        <time>2022-02-08T10:05:00Z</time>
      </trkpt>
      <trkpt lat="41.8979830" lon="-2.8871030">
        <ele>1364.2</ele>
        <time>2022-02-08T10:05:01Z</time>
      </trkpt>
      <trkpt lat="41.8979800" lon="-2.8870830">
        <ele>1364.4</ele>
        <time>2022-02-08T10:05:02Z</time>
      </trkpt>
      <trkpt lat="41.8979780" lon="-2.8870620">
        <ele>1364.5</ele>
        <time>2022-02-08T10:05:03Z</time>
      </trkpt>
      <trkpt lat="41.8979730" lon="-2.8870400">
        <ele>1364.7</ele>
        <time>2022-02-08T10:05:04Z</time>
      </trkpt>
      <trkpt lat="41.8979670" lon="-2.8870180">
        <ele>1364.8</ele>
        <time>2022-02-08T10:05:05Z</time>
      </trkpt>
      <trkpt lat="41.8979570" lon="-2.8869930">
        <ele>1365.0</ele>
        <time>2022-02-08T10:05:06Z</time>
      </trkpt>
      <trkpt lat="41.8979450" lon="-2.8869720">
        <ele>1365.2</ele>
        <time>2022-02-08T10:05:07Z</time>
      </trkpt>
      <trkpt lat="41.8979320" lon="-2.8869550">
        <ele>1365.4</ele>
        <time>2022-02-08T10:05:08Z</time>
      </trkpt>
      <trkpt lat="41.8979230" lon="-2.8869400">
        <ele>1365.6</ele>
        <time>2022-02-08T10:05:09Z</time>
      </trkpt>
      <trkpt lat="41.8979100" lon="-2.8869180">
        <ele>1365.8</ele>
        <time>2022-02-08T10:05:10Z</time>
      </trkpt>
      <trkpt lat="41.8979000" lon="-2.8869000">
        <ele>1366.0</ele>
        <time>2022-02-08T10:05:11Z</time>
      </trkpt>
      <trkpt lat="41.8978880" lon="-2.8868820">
        <ele>1366.2</ele>
        <time>2022-02-08T10:05:12Z</time>
      </trkpt>
      <trkpt lat="41.8978800" lon="-2.8868700">
        <ele>1366.3</ele>
        <time>2022-02-08T10:05:13Z</time>
      </trkpt>
      <trkpt lat="41.8978700" lon="-2.8868520">
        <ele>1366.5</ele>
        <time>2022-02-08T10:05:14Z</time>
      </trkpt>
      <trkpt lat="41.8978580" lon="-2.8868300">
        <ele>1366.7</ele>
        <time>2022-02-08T10:05:15Z</time>
      </trkpt>
      <trkpt lat="41.8978530" lon="-2.8868100">
        <ele>1366.9</ele>
        <time>2022-02-08T10:05:16Z</time>
      </trkpt>
      <trkpt lat="41.8978470" lon="-2.8867920">
        <ele>1367.0</ele>
        <time>2022-02-08T10:05:17Z</time>
      </trkpt>
      <trkpt lat="41.8978430" lon="-2.8867770">
        <ele>1367.2</ele>
        <time>2022-02-08T10:05:18Z</time>
      </trkpt>
      <trkpt lat="41.8978420" lon="-2.8867550">
        <ele>1367.4</ele>
        <time>2022-02-08T10:05:19Z</time>
      </trkpt>
      <trkpt lat="41.8978370" lon="-2.8867380">
        <ele>1367.5</ele>
        <time>2022-02-08T10:05:20Z</time>
      </trkpt>
      <trkpt lat="41.8978330" lon="-2.8867220">
        <ele>1367.6</ele>
        <time>2022-02-08T10:05:21Z</time>
      </trkpt>
      <trkpt lat="41.8978300" lon="-2.8867070">
        <ele>1367.8</ele>
        <time>2022-02-08T10:05:22Z</time>
      </trkpt>
      <trkpt lat="41.8978270" lon="-2.8866830">
        <ele>1368.0</ele>
        <time>2022-02-08T10:05:23Z</time>
      </trkpt>
      <trkpt lat="41.8978230" lon="-2.8866570">
        <ele>1368.2</ele>
        <time>2022-02-08T10:05:24Z</time>
      </trkpt>
      <trkpt lat="41.8978180" lon="-2.8866300">
        <ele>1368.4</ele>
        <time>2022-02-08T10:05:25Z</time>
      </trkpt>
      <trkpt lat="41.8978180" lon="-2.8866070">
        <ele>1368.5</ele>
        <time>2022-02-08T10:05:26Z</time>
      </trkpt>
      <trkpt lat="41.8978170" lon="-2.8865850">
        <ele>1368.7</ele>
        <time>2022-02-08T10:05:27Z</time>
      </trkpt>
      <trkpt lat="41.8978150" lon="-2.8865620">
        <ele>1368.8</ele>
        <time>2022-02-08T10:05:28Z</time>
      </trkpt>
      <trkpt lat="41.8978120" lon="-2.8865400">
        <ele>1369.0</ele>
        <time>2022-02-08T10:05:29Z</time>
      </trkpt>
      <trkpt lat="41.8978080" lon="-2.8865150">
        <ele>1369.2</ele>
        <time>2022-02-08T10:05:30Z</time>
      </trkpt>
      <trkpt lat="41.8978070" lon="-2.8864980">
        <ele>1369.3</ele>
        <time>2022-02-08T10:05:31Z</time>
      </trkpt>
      <trkpt lat="41.8978030" lon="-2.8864800">
        <ele>1369.4</ele>
        <time>2022-02-08T10:05:32Z</time>
      </trkpt>
      <trkpt lat="41.8977980" lon="-2.8864600">
        <ele>1369.5</ele>
        <time>2022-02-08T10:05:33Z</time>
      </trkpt>
      <trkpt lat="41.8977920" lon="-2.8864380">
        <ele>1369.8</ele>
        <time>2022-02-08T10:05:34Z</time>
      </trkpt>
      <trkpt lat="41.8977880" lon="-2.8864250">
        <ele>1369.9</ele>
        <time>2022-02-08T10:05:35Z</time>
      </trkpt>
      <trkpt lat="41.8977830" lon="-2.8864050">
        <ele>1370.0</ele>
        <time>2022-02-08T10:05:36Z</time>
      </trkpt>
      <trkpt lat="41.8977800" lon="-2.8863850">
        <ele>1370.2</ele>
        <time>2022-02-08T10:05:37Z</time>
      </trkpt>
      <trkpt lat="41.8977770" lon="-2.8863670">
        <ele>1370.3</ele>
        <time>2022-02-08T10:05:38Z</time>
      </trkpt>
      <trkpt lat="41.8977680" lon="-2.8863480">
        <ele>1370.5</ele>
        <time>2022-02-08T10:05:39Z</time>
      </trkpt>
      <trkpt lat="41.8977600" lon="-2.8863300">
        <ele>1370.7</ele>
        <time>2022-02-08T10:05:40Z</time>
      </trkpt>
      <trkpt lat="41.8977550" lon="-2.8863130">
        <ele>1370.8</ele>
        <time>2022-02-08T10:05:41Z</time>
      </trkpt>
      <trkpt lat="41.8977480" lon="-2.8862950">
        <ele>1371.0</ele>
        <time>2022-02-08T10:05:42Z</time>
      </trkpt>
      <trkpt lat="41.8977450" lon="-2.8862770">
        <ele>1371.2</ele>
        <time>2022-02-08T10:05:43Z</time>
      </trkpt>
      <trkpt lat="41.8977400" lon="-2.8862600">
        <ele>1371.3</ele>
        <time>2022-02-08T10:05:44Z</time>
      </trkpt>
      <trkpt lat="41.8977370" lon="-2.8862470">
        <ele>1371.4</ele>
        <time>2022-02-08T10:05:45Z</time>
      </trkpt>
      <trkpt lat="41.8977330" lon="-2.8862350">
        <ele>1371.5</ele>
        <time>2022-02-08T10:05:46Z</time>
      </trkpt>
      <trkpt lat="41.8977320" lon="-2.8862200">
        <ele>1371.7</ele>
        <time>2022-02-08T10:05:47Z</time>
      </trkpt>
      <trkpt lat="41.8977300" lon="-2.8861980">
        <ele>1371.9</ele>
        <time>2022-02-08T10:05:48Z</time>
      </trkpt>
      <trkpt lat="41.8977300" lon="-2.8861770">
        <ele>1372.0</ele>
        <time>2022-02-08T10:05:49Z</time>
      </trkpt>
      <trkpt lat="41.8977280" lon="-2.8861620">
        <ele>1372.2</ele>
        <time>2022-02-08T10:05:50Z</time>
      </trkpt>
      <trkpt lat="41.8977250" lon="-2.8861400">
        <ele>1372.3</ele>
        <time>2022-02-08T10:05:51Z</time>
      </trkpt>
      <trkpt lat="41.8977220" lon="-2.8861200">
        <ele>1372.5</ele>
        <time>2022-02-08T10:05:52Z</time>
      </trkpt>
      <trkpt lat="41.8977130" lon="-2.8861000">
        <ele>1372.7</ele>
        <time>2022-02-08T10:05:53Z</time>
      </trkpt>
      <trkpt lat="41.8977070" lon="-2.8860800">
        <ele>1372.9</ele>
        <time>2022-02-08T10:05:54Z</time>
      </trkpt>
      <trkpt lat="41.8977000" lon="-2.8860670">
        <ele>1373.0</ele>
        <time>2022-02-08T10:05:55Z</time>
      </trkpt>
      <trkpt lat="41.8976950" lon="-2.8860450">
        <ele>1373.2</ele>
        <time>2022-02-08T10:05:56Z</time>
      </trkpt>
      <trkpt lat="41.8976920" lon="-2.8860180">
        <ele>1373.4</ele>
        <time>2022-02-08T10:05:57Z</time>
      </trkpt>
      <trkpt lat="41.8976880" lon="-2.8859950">
        <ele>1373.6</ele>
        <time>2022-02-08T10:05:58Z</time>
      </trkpt>
      <trkpt lat="41.8976850" lon="-2.8859700">
        <ele>1373.8</ele>
        <time>2022-02-08T10:05:59Z</time>
      </trkpt>
      <trkpt lat="41.8976850" lon="-2.8859520">
        <ele>1374.0</ele>
        <time>2022-02-08T10:06:00Z</time>
      </trkpt>
      <trkpt lat="41.8976820" lon="-2.8859300">
        <ele>1374.2</ele>
        <time>2022-02-08T10:06:01Z</time>
      </trkpt>
      <trkpt lat="41.8976800" lon="-2.8859120">
        <ele>1374.3</ele>
        <time>2022-02-08T10:06:02Z</time>
      </trkpt>
      <trkpt lat="41.8976750" lon="-2.8858920">
        <ele>1374.5</ele>
        <time>2022-02-08T10:06:03Z</time>
      </trkpt>
      <trkpt lat="41.8976700" lon="-2.8858800">
        <ele>1374.6</ele>
        <time>2022-02-08T10:06:04Z</time>
      </trkpt>
      <trkpt lat="41.8976670" lon="-2.8858620">
        <ele>1374.8</ele>
        <time>2022-02-08T10:06:05Z</time>
      </trkpt>
      <trkpt lat="41.8976600" lon="-2.8858370">
        <ele>1375.0</ele>
        <time>2022-02-08T10:06:06Z</time>
      </trkpt>
      <trkpt lat="41.8976630" lon="-2.8858150">
        <ele>1375.2</ele>
        <time>2022-02-08T10:06:07Z</time>
      </trkpt>
      <trkpt lat="41.8976680" lon="-2.8858000">
        <ele>1375.4</ele>
        <time>2022-02-08T10:06:08Z</time>
      </trkpt>
      <trkpt lat="41.8976680" lon="-2.8857830">
        <ele>1375.5</ele>
        <time>2022-02-08T10:06:09Z</time>
      </trkpt>
      <trkpt lat="41.8976670" lon="-2.8857680">
        <ele>1375.7</ele>
        <time>2022-02-08T10:06:10Z</time>
      </trkpt>
      <trkpt lat="41.8976630" lon="-2.8857530">
        <ele>1375.8</ele>
        <time>2022-02-08T10:06:11Z</time>
      </trkpt>
      <trkpt lat="41.8976570" lon="-2.8857370">
        <ele>1376.0</ele>
        <time>2022-02-08T10:06:12Z</time>
      </trkpt>
      <trkpt lat="41.8976530" lon="-2.8857230">
        <ele>1376.2</ele>
        <time>2022-02-08T10:06:13Z</time>
      </trkpt>
      <trkpt lat="41.8976480" lon="-2.8857100">
        <ele>1376.3</ele>
        <time>2022-02-08T10:06:14Z</time>
      </trkpt>
      <trkpt lat="41.8976430" lon="-2.8856930">
        <ele>1376.5</ele>
        <time>2022-02-08T10:06:15Z</time>
      </trkpt>
      <trkpt lat="41.8976400" lon="-2.8856800">
        <ele>1376.6</ele>
        <time>2022-02-08T10:06:16Z</time>
      </trkpt>
      <trkpt lat="41.8976320" lon="-2.8856620">
        <ele>1376.9</ele>
        <time>2022-02-08T10:06:17Z</time>
      </trkpt>
      <trkpt lat="41.8976250" lon="-2.8856500">
        <ele>1377.0</ele>
        <time>2022-02-08T10:06:18Z</time>
      </trkpt>
      <trkpt lat="41.8976180" lon="-2.8856370">
        <ele>1377.2</ele>
        <time>2022-02-08T10:06:19Z</time>
      </trkpt>
      <trkpt lat="41.8976120" lon="-2.8856220">
        <ele>1377.4</ele>
        <time>2022-02-08T10:06:20Z</time>
      </trkpt>
      <trkpt lat="41.8976020" lon="-2.8856080">
        <ele>1377.6</ele>
        <time>2022-02-08T10:06:21Z</time>
      </trkpt>
      <trkpt lat="41.8975930" lon="-2.8855950">
        <ele>1377.7</ele>
        <time>2022-02-08T10:06:22Z</time>
      </trkpt>
      <trkpt lat="41.8975850" lon="-2.8855870">
        <ele>1377.9</ele>
        <time>2022-02-08T10:06:23Z</time>
      </trkpt>
      <trkpt lat="41.8975730" lon="-2.8855730">
        <ele>1378.1</ele>
        <time>2022-02-08T10:06:24Z</time>
      </trkpt>
      <trkpt lat="41.8975630" lon="-2.8855600">
        <ele>1378.3</ele>
        <time>2022-02-08T10:06:25Z</time>
      </trkpt>
      <trkpt lat="41.8975520" lon="-2.8855430">
        <ele>1378.5</ele>
        <time>2022-02-08T10:06:26Z</time>
      </trkpt>
      <trkpt lat="41.8975430" lon="-2.8855300">
        <ele>1378.7</ele>
        <time>2022-02-08T10:06:27Z</time>
      </trkpt>
      <trkpt lat="41.8975350" lon="-2.8855200">
        <ele>1378.8</ele>
        <time>2022-02-08T10:06:28Z</time>
      </trkpt>
      <trkpt lat="41.8975250" lon="-2.8855050">
        <ele>1379.0</ele>
        <time>2022-02-08T10:06:29Z</time>
      </trkpt>
      <trkpt lat="41.8975220" lon="-2.8854950">
        <ele>1379.1</ele>
        <time>2022-02-08T10:06:30Z</time>
      </trkpt>
      <trkpt lat="41.8975120" lon="-2.8854800">
        <ele>1379.3</ele>
        <time>2022-02-08T10:06:31Z</time>
      </trkpt>
      <trkpt lat="41.8975000" lon="-2.8854730">
        <ele>1379.5</ele>
        <time>2022-02-08T10:06:32Z</time>
      </trkpt>
      <trkpt lat="41.8974880" lon="-2.8854630">
        <ele>1379.7</ele>
        <time>2022-02-08T10:06:33Z</time>
      </trkpt>
      <trkpt lat="41.8974770" lon="-2.8854480">
        <ele>1379.8</ele>
        <time>2022-02-08T10:06:34Z</time>
      </trkpt>
      <trkpt lat="41.8974650" lon="-2.8854370">
        <ele>1380.0</ele>
        <time>2022-02-08T10:06:35Z</time>
      </trkpt>
      <trkpt lat="41.8974530" lon="-2.8854270">
        <ele>1380.2</ele>
        <time>2022-02-08T10:06:36Z</time>
      </trkpt>
      <trkpt lat="41.8974450" lon="-2.8854200">
        <ele>1380.3</ele>
        <time>2022-02-08T10:06:37Z</time>
      </trkpt>
      <trkpt lat="41.8974330" lon="-2.8854100">
        <ele>1380.6</ele>
        <time>2022-02-08T10:06:38Z</time>
      </trkpt>
      <trkpt lat="41.8974220" lon="-2.8854000">
        <ele>1380.8</ele>
        <time>2022-02-08T10:06:39Z</time>
      </trkpt>
      <trkpt lat="41.8974100" lon="-2.8853920">
        <ele>1380.9</ele>
        <time>2022-02-08T10:06:40Z</time>
      </trkpt>
      <trkpt lat="41.8974050" lon="-2.8853830">
        <ele>1381.0</ele>
        <time>2022-02-08T10:06:41Z</time>
      </trkpt>
      <trkpt lat="41.8973970" lon="-2.8853770">
        <ele>1381.0</ele>
        <time>2022-02-08T10:06:42Z</time>
      </trkpt>
      <trkpt lat="41.8973830" lon="-2.8853680">
        <ele>1381.2</ele>
        <time>2022-02-08T10:06:43Z</time>
      </trkpt>
      <trkpt lat="41.8973680" lon="-2.8853620">
        <ele>1381.3</ele>
        <time>2022-02-08T10:06:44Z</time>
      </trkpt>
      <trkpt lat="41.8973500" lon="-2.8853530">
        <ele>1381.4</ele>
        <time>2022-02-08T10:06:45Z</time>
      </trkpt>
      <trkpt lat="41.8973320" lon="-2.8853450">
        <ele>1381.6</ele>
        <time>2022-02-08T10:06:46Z</time>
      </trkpt>
      <trkpt lat="41.8973130" lon="-2.8853400">
        <ele>1381.7</ele>
        <time>2022-02-08T10:06:47Z</time>
      </trkpt>
      <trkpt lat="41.8972970" lon="-2.8853330">
        <ele>1381.9</ele>
        <time>2022-02-08T10:06:48Z</time>
      </trkpt>
      <trkpt lat="41.8972830" lon="-2.8853280">
        <ele>1382.0</ele>
        <time>2022-02-08T10:06:49Z</time>
      </trkpt>
      <trkpt lat="41.8972700" lon="-2.8853270">
        <ele>1382.0</ele>
        <time>2022-02-08T10:06:50Z</time>
      </trkpt>
      <trkpt lat="41.8972570" lon="-2.8853270">
        <ele>1382.1</ele>
        <time>2022-02-08T10:06:51Z</time>
      </trkpt>
      <trkpt lat="41.8972370" lon="-2.8853300">
        <ele>1382.2</ele>
        <time>2022-02-08T10:06:52Z</time>
      </trkpt>
      <trkpt lat="41.8972120" lon="-2.8853270">
        <ele>1382.4</ele>
        <time>2022-02-08T10:06:53Z</time>
      </trkpt>
      <trkpt lat="41.8971920" lon="-2.8853170">
        <ele>1382.5</ele>
        <time>2022-02-08T10:06:54Z</time>
      </trkpt>
      <trkpt lat="41.8971780" lon="-2.8853050">
        <ele>1382.6</ele>
        <time>2022-02-08T10:06:55Z</time>
      </trkpt>
      <trkpt lat="41.8971650" lon="-2.8852870">
        <ele>1382.7</ele>
        <time>2022-02-08T10:06:56Z</time>
      </trkpt>
      <trkpt lat="41.8971580" lon="-2.8852600">
        <ele>1382.8</ele>
        <time>2022-02-08T10:06:57Z</time>
      </trkpt>
      <trkpt lat="41.8971600" lon="-2.8852350">
        <ele>1382.8</ele>
        <time>2022-02-08T10:06:58Z</time>
      </trkpt>
      <trkpt lat="41.8971670" lon="-2.8852100">
        <ele>1382.9</ele>
        <time>2022-02-08T10:06:59Z</time>
      </trkpt>
      <trkpt lat="41.8971750" lon="-2.8851900">
        <ele>1383.0</ele>
        <time>2022-02-08T10:07:00Z</time>
      </trkpt>
      <trkpt lat="41.8971880" lon="-2.8851670">
        <ele>1383.0</ele>
        <time>2022-02-08T10:07:01Z</time>
      </trkpt>
      <trkpt lat="41.8972080" lon="-2.8851330">
        <ele>1383.1</ele>
        <time>2022-02-08T10:07:02Z</time>
      </trkpt>
      <trkpt lat="41.8972170" lon="-2.8851070">
        <ele>1383.1</ele>
        <time>2022-02-08T10:07:03Z</time>
      </trkpt>
      <trkpt lat="41.8972220" lon="-2.8850850">
        <ele>1383.2</ele>
        <time>2022-02-08T10:07:04Z</time>
      </trkpt>
      <trkpt lat="41.8972230" lon="-2.8850470">
        <ele>1383.2</ele>
        <time>2022-02-08T10:07:05Z</time>
      </trkpt>
      <trkpt lat="41.8972230" lon="-2.8850050">
        <ele>1383.3</ele>
        <time>2022-02-08T10:07:06Z</time>
      </trkpt>
      <trkpt lat="41.8972280" lon="-2.8849700">
        <ele>1383.3</ele>
        <time>2022-02-08T10:07:07Z</time>
      </trkpt>
      <trkpt lat="41.8972300" lon="-2.8849300">
        <ele>1383.3</ele>
        <time>2022-02-08T10:07:08Z</time>
      </trkpt>
      <trkpt lat="41.8972280" lon="-2.8848980">
        <ele>1383.4</ele>
        <time>2022-02-08T10:07:09Z</time>
      </trkpt>
      <trkpt lat="41.8972270" lon="-2.8848720">
        <ele>1383.4</ele>
        <time>2022-02-08T10:07:10Z</time>
      </trkpt>
      <trkpt lat="41.8972270" lon="-2.8848320">
        <ele>1383.5</ele>
        <time>2022-02-08T10:07:11Z</time>
      </trkpt>
      <trkpt lat="41.8972320" lon="-2.8848050">
        <ele>1383.5</ele>
        <time>2022-02-08T10:07:12Z</time>
      </trkpt>
      <trkpt lat="41.8972400" lon="-2.8847870">
        <ele>1383.5</ele>
        <time>2022-02-08T10:07:13Z</time>
      </trkpt>
      <trkpt lat="41.8972480" lon="-2.8847650">
        <ele>1383.6</ele>
        <time>2022-02-08T10:07:14Z</time>
      </trkpt>
      <trkpt lat="41.8972550" lon="-2.8847470">
        <ele>1383.7</ele>
        <time>2022-02-08T10:07:15Z</time>
      </trkpt>
      <trkpt lat="41.8972650" lon="-2.8847300">
        <ele>1383.7</ele>
        <time>2022-02-08T10:07:16Z</time>
      </trkpt>
      <trkpt lat="41.8972770" lon="-2.8847080">
        <ele>1383.8</ele>
        <time>2022-02-08T10:07:17Z</time>
      </trkpt>
      <trkpt lat="41.8972920" lon="-2.8846920">
        <ele>1383.9</ele>
        <time>2022-02-08T10:07:18Z</time>
      </trkpt>
      <trkpt lat="41.8973080" lon="-2.8846780">
        <ele>1384.0</ele>
        <time>2022-02-08T10:07:19Z</time>
      </trkpt>
      <trkpt lat="41.8973180" lon="-2.8846570">
        <ele>1384.1</ele>
        <time>2022-02-08T10:07:20Z</time>
      </trkpt>
      <trkpt lat="41.8973230" lon="-2.8846320">
        <ele>1384.2</ele>
        <time>2022-02-08T10:07:21Z</time>
      </trkpt>
      <trkpt lat="41.8973370" lon="-2.8846150">
        <ele>1384.3</ele>
        <time>2022-02-08T10:07:22Z</time>
      </trkpt>
      <trkpt lat="41.8973400" lon="-2.8845970">
        <ele>1384.4</ele>
        <time>2022-02-08T10:07:23Z</time>
      </trkpt>
      <trkpt lat="41.8973430" lon="-2.8845730">
        <ele>1384.6</ele>
        <time>2022-02-08T10:07:24Z</time>
      </trkpt>
      <trkpt lat="41.8973470" lon="-2.8845550">
        <ele>1384.7</ele>
        <time>2022-02-08T10:07:25Z</time>
      </trkpt>
      <trkpt lat="41.8973470" lon="-2.8845350">
        <ele>1384.8</ele>
        <time>2022-02-08T10:07:26Z</time>
      </trkpt>
      <trkpt lat="41.8973500" lon="-2.8845130">
        <ele>1384.9</ele>
        <time>2022-02-08T10:07:27Z</time>
      </trkpt>
      <trkpt lat="41.8973550" lon="-2.8844920">
        <ele>1385.1</ele>
        <time>2022-02-08T10:07:28Z</time>
      </trkpt>
      <trkpt lat="41.8973570" lon="-2.8844720">
        <ele>1385.2</ele>
        <time>2022-02-08T10:07:29Z</time>
      </trkpt>
      <trkpt lat="41.8973580" lon="-2.8844480">
        <ele>1385.4</ele>
        <time>2022-02-08T10:07:30Z</time>
      </trkpt>
      <trkpt lat="41.8973630" lon="-2.8844280">
        <ele>1385.5</ele>
        <time>2022-02-08T10:07:31Z</time>
      </trkpt>
      <trkpt lat="41.8973680" lon="-2.8844070">
        <ele>1385.7</ele>
        <time>2022-02-08T10:07:32Z</time>
      </trkpt>
      <trkpt lat="41.8973770" lon="-2.8843830">
        <ele>1385.9</ele>
        <time>2022-02-08T10:07:33Z</time>
      </trkpt>
      <trkpt lat="41.8973800" lon="-2.8843600">
        <ele>1386.1</ele>
        <time>2022-02-08T10:07:34Z</time>
      </trkpt>
      <trkpt lat="41.8973870" lon="-2.8843370">
        <ele>1386.3</ele>
        <time>2022-02-08T10:07:35Z</time>
      </trkpt>
      <trkpt lat="41.8973970" lon="-2.8843150">
        <ele>1386.4</ele>
        <time>2022-02-08T10:07:36Z</time>
      </trkpt>
      <trkpt lat="41.8974050" lon="-2.8842950">
        <ele>1386.6</ele>
        <time>2022-02-08T10:07:37Z</time>
      </trkpt>
      <trkpt lat="41.8974080" lon="-2.8842720">
        <ele>1386.8</ele>
        <time>2022-02-08T10:07:38Z</time>
      </trkpt>
      <trkpt lat="41.8974130" lon="-2.8842500">
        <ele>1386.9</ele>
        <time>2022-02-08T10:07:39Z</time>
      </trkpt>
      <trkpt lat="41.8974250" lon="-2.8842280">
        <ele>1387.1</ele>
        <time>2022-02-08T10:07:40Z</time>
      </trkpt>
      <trkpt lat="41.8974320" lon="-2.8842070">
        <ele>1387.3</ele>
        <time>2022-02-08T10:07:41Z</time>
      </trkpt>
      <trkpt lat="41.8974400" lon="-2.8841870">
        <ele>1387.5</ele>
        <time>2022-02-08T10:07:42Z</time>
      </trkpt>
      <trkpt lat="41.8974470" lon="-2.8841670">
        <ele>1387.6</ele>
        <time>2022-02-08T10:07:43Z</time>
      </trkpt>
      <trkpt lat="41.8974530" lon="-2.8841450">
        <ele>1387.8</ele>
        <time>2022-02-08T10:07:44Z</time>
      </trkpt>
      <trkpt lat="41.8974580" lon="-2.8841300">
        <ele>1387.9</ele>
        <time>2022-02-08T10:07:45Z</time>
      </trkpt>
      <trkpt lat="41.8974600" lon="-2.8841080">
        <ele>1388.1</ele>
        <time>2022-02-08T10:07:46Z</time>
      </trkpt>
      <trkpt lat="41.8974580" lon="-2.8840830">
        <ele>1388.3</ele>
        <time>2022-02-08T10:07:47Z</time>
      </trkpt>
      <trkpt lat="41.8974530" lon="-2.8840480">
        <ele>1388.6</ele>
        <time>2022-02-08T10:07:48Z</time>
      </trkpt>
      <trkpt lat="41.8974500" lon="-2.8840230">
        <ele>1388.8</ele>
        <time>2022-02-08T10:07:49Z</time>
      </trkpt>
      <trkpt lat="41.8974450" lon="-2.8840000">
        <ele>1389.0</ele>
        <time>2022-02-08T10:07:50Z</time>
      </trkpt>
      <trkpt lat="41.8974480" lon="-2.8839800">
        <ele>1389.2</ele>
        <time>2022-02-08T10:07:51Z</time>
      </trkpt>
      <trkpt lat="41.8974530" lon="-2.8839580">
        <ele>1389.4</ele>
        <time>2022-02-08T10:07:52Z</time>
      </trkpt>
      <trkpt lat="41.8974530" lon="-2.8839380">
        <ele>1389.6</ele>
        <time>2022-02-08T10:07:53Z</time>
      </trkpt>
      <trkpt lat="41.8974520" lon="-2.8839150">
        <ele>1389.8</ele>
        <time>2022-02-08T10:07:54Z</time>
      </trkpt>
      <trkpt lat="41.8974470" lon="-2.8838900">
        <ele>1390.0</ele>
        <time>2022-02-08T10:07:55Z</time>
      </trkpt>
      <trkpt lat="41.8974450" lon="-2.8838630">
        <ele>1390.3</ele>
        <time>2022-02-08T10:07:56Z</time>
      </trkpt>
      <trkpt lat="41.8974450" lon="-2.8838350">
        <ele>1390.5</ele>
        <time>2022-02-08T10:07:57Z</time>
      </trkpt>
      <trkpt lat="41.8974380" lon="-2.8838100">
        <ele>1390.7</ele>
        <time>2022-02-08T10:07:58Z</time>
      </trkpt>
      <trkpt lat="41.8974350" lon="-2.8837920">
        <ele>1390.9</ele>
        <time>2022-02-08T10:07:59Z</time>
      </trkpt>
      <trkpt lat="41.8974280" lon="-2.8837680">
        <ele>1391.1</ele>
        <time>2022-02-08T10:08:00Z</time>
      </trkpt>
      <trkpt lat="41.8974230" lon="-2.8837480">
        <ele>1391.3</ele>
        <time>2022-02-08T10:08:01Z</time>
      </trkpt>
      <trkpt lat="41.8974180" lon="-2.8837220">
        <ele>1391.5</ele>
        <time>2022-02-08T10:08:02Z</time>
      </trkpt>
      <trkpt lat="41.8974150" lon="-2.8836980">
        <ele>1391.7</ele>
        <time>2022-02-08T10:08:03Z</time>
      </trkpt>
      <trkpt lat="41.8974120" lon="-2.8836720">
        <ele>1391.9</ele>
        <time>2022-02-08T10:08:04Z</time>
      </trkpt>
      <trkpt lat="41.8974080" lon="-2.8836530">
        <ele>1392.1</ele>
        <time>2022-02-08T10:08:05Z</time>
      </trkpt>
      <trkpt lat="41.8974030" lon="-2.8836320">
        <ele>1392.3</ele>
        <time>2022-02-08T10:08:06Z</time>
      </trkpt>
      <trkpt lat="41.8974020" lon="-2.8836070">
        <ele>1392.5</ele>
        <time>2022-02-08T10:08:07Z</time>
      </trkpt>
      <trkpt lat="41.8973980" lon="-2.8835870">
        <ele>1392.7</ele>
        <time>2022-02-08T10:08:08Z</time>
      </trkpt>
      <trkpt lat="41.8973950" lon="-2.8835680">
        <ele>1392.8</ele>
        <time>2022-02-08T10:08:09Z</time>
      </trkpt>
      <trkpt lat="41.8973970" lon="-2.8835480">
        <ele>1393.0</ele>
        <time>2022-02-08T10:08:10Z</time>
      </trkpt>
      <trkpt lat="41.8973950" lon="-2.8835300">
        <ele>1393.2</ele>
        <time>2022-02-08T10:08:11Z</time>
      </trkpt>
      <trkpt lat="41.8973930" lon="-2.8835070">
        <ele>1393.4</ele>
        <time>2022-02-08T10:08:12Z</time>
      </trkpt>
      <trkpt lat="41.8973900" lon="-2.8834870">
        <ele>1393.5</ele>
        <time>2022-02-08T10:08:13Z</time>
      </trkpt>
      <trkpt lat="41.8973850" lon="-2.8834700">
        <ele>1393.7</ele>
        <time>2022-02-08T10:08:14Z</time>
      </trkpt>
      <trkpt lat="41.8973850" lon="-2.8834500">
        <ele>1393.9</ele>
        <time>2022-02-08T10:08:15Z</time>
      </trkpt>
      <trkpt lat="41.8973870" lon="-2.8834300">
        <ele>1394.1</ele>
        <time>2022-02-08T10:08:16Z</time>
      </trkpt>
      <trkpt lat="41.8973850" lon="-2.8834100">
        <ele>1394.3</ele>
        <time>2022-02-08T10:08:17Z</time>
      </trkpt>
      <trkpt lat="41.8973830" lon="-2.8833920">
        <ele>1394.4</ele>
        <time>2022-02-08T10:08:18Z</time>
      </trkpt>
      <trkpt lat="41.8973820" lon="-2.8833730">
        <ele>1394.6</ele>
        <time>2022-02-08T10:08:19Z</time>
      </trkpt>
      <trkpt lat="41.8973770" lon="-2.8833530">
        <ele>1394.8</ele>
        <time>2022-02-08T10:08:20Z</time>
      </trkpt>
      <trkpt lat="41.8973700" lon="-2.8833320">
        <ele>1395.0</ele>
        <time>2022-02-08T10:08:21Z</time>
      </trkpt>
      <trkpt lat="41.8973650" lon="-2.8833100">
        <ele>1395.1</ele>
        <time>2022-02-08T10:08:22Z</time>
      </trkpt>
      <trkpt lat="41.8973620" lon="-2.8832900">
        <ele>1395.3</ele>
        <time>2022-02-08T10:08:23Z</time>
      </trkpt>
      <trkpt lat="41.8973600" lon="-2.8832680">
        <ele>1395.5</ele>
        <time>2022-02-08T10:08:24Z</time>
      </trkpt>
      <trkpt lat="41.8973530" lon="-2.8832450">
        <ele>1395.7</ele>
        <time>2022-02-08T10:08:25Z</time>
      </trkpt>
      <trkpt lat="41.8973470" lon="-2.8832220">
        <ele>1395.9</ele>
        <time>2022-02-08T10:08:26Z</time>
      </trkpt>
      <trkpt lat="41.8973420" lon="-2.8831970">
        <ele>1396.0</ele>
        <time>2022-02-08T10:08:27Z</time>
      </trkpt>
      <trkpt lat="41.8973370" lon="-2.8831680">
        <ele>1396.2</ele>
        <time>2022-02-08T10:08:28Z</time>
      </trkpt>
      <trkpt lat="41.8973300" lon="-2.8831450">
        <ele>1396.4</ele>
        <time>2022-02-08T10:08:29Z</time>
      </trkpt>
      <trkpt lat="41.8973230" lon="-2.8831220">
        <ele>1396.6</ele>
        <time>2022-02-08T10:08:30Z</time>
      </trkpt>
      <trkpt lat="41.8973150" lon="-2.8831030">
        <ele>1396.7</ele>
        <time>2022-02-08T10:08:31Z</time>
      </trkpt>
      <trkpt lat="41.8973050" lon="-2.8830880">
        <ele>1396.8</ele>
        <time>2022-02-08T10:08:32Z</time>
      </trkpt>
      <trkpt lat="41.8972950" lon="-2.8830700">
        <ele>1397.0</ele>
        <time>2022-02-08T10:08:33Z</time>
      </trkpt>
      <trkpt lat="41.8972850" lon="-2.8830530">
        <ele>1397.1</ele>
        <time>2022-02-08T10:08:34Z</time>
      </trkpt>
      <trkpt lat="41.8972780" lon="-2.8830320">
        <ele>1397.3</ele>
        <time>2022-02-08T10:08:35Z</time>
      </trkpt>
      <trkpt lat="41.8972730" lon="-2.8830080">
        <ele>1397.4</ele>
        <time>2022-02-08T10:08:36Z</time>
      </trkpt>
      <trkpt lat="41.8972720" lon="-2.8829930">
        <ele>1397.5</ele>
        <time>2022-02-08T10:08:37Z</time>
      </trkpt>
      <trkpt lat="41.8972720" lon="-2.8829730">
        <ele>1397.6</ele>
        <time>2022-02-08T10:08:38Z</time>
      </trkpt>
      <trkpt lat="41.8972700" lon="-2.8829620">
        <ele>1397.7</ele>
        <time>2022-02-08T10:08:39Z</time>
      </trkpt>
      <trkpt lat="41.8972680" lon="-2.8829480">
        <ele>1397.8</ele>
        <time>2022-02-08T10:08:40Z</time>
      </trkpt>
      <trkpt lat="41.8972650" lon="-2.8829370">
        <ele>1397.9</ele>
        <time>2022-02-08T10:08:41Z</time>
      </trkpt>
      <trkpt lat="41.8972600" lon="-2.8829180">
        <ele>1398.0</ele>
        <time>2022-02-08T10:08:42Z</time>
      </trkpt>
      <trkpt lat="41.8972570" lon="-2.8829020">
        <ele>1398.1</ele>
        <time>2022-02-08T10:08:43Z</time>
      </trkpt>
      <trkpt lat="41.8972550" lon="-2.8828820">
        <ele>1398.3</ele>
        <time>2022-02-08T10:08:44Z</time>
      </trkpt>
      <trkpt lat="41.8972520" lon="-2.8828650">
        <ele>1398.4</ele>
        <time>2022-02-08T10:08:45Z</time>
      </trkpt>
      <trkpt lat="41.8972470" lon="-2.8828400">
        <ele>1398.6</ele>
        <time>2022-02-08T10:08:46Z</time>
      </trkpt>
      <trkpt lat="41.8972430" lon="-2.8828230">
        <ele>1398.7</ele>
        <time>2022-02-08T10:08:47Z</time>
      </trkpt>
      <trkpt lat="41.8972350" lon="-2.8827980">
        <ele>1399.0</ele>
        <time>2022-02-08T10:08:48Z</time>
      </trkpt>
      <trkpt lat="41.8972280" lon="-2.8827780">
        <ele>1399.2</ele>
        <time>2022-02-08T10:08:49Z</time>
      </trkpt>
      <trkpt lat="41.8972270" lon="-2.8827680">
        <ele>1399.3</ele>
        <time>2022-02-08T10:08:50Z</time>
      </trkpt>
      <trkpt lat="41.8972270" lon="-2.8827500">
        <ele>1399.4</ele>
        <time>2022-02-08T10:08:51Z</time>
      </trkpt>
      <trkpt lat="41.8972250" lon="-2.8827320">
        <ele>1399.6</ele>
        <time>2022-02-08T10:08:52Z</time>
      </trkpt>
      <trkpt lat="41.8972200" lon="-2.8827100">
        <ele>1399.8</ele>
        <time>2022-02-08T10:08:53Z</time>
      </trkpt>
      <trkpt lat="41.8972100" lon="-2.8826820">
        <ele>1400.2</ele>
        <time>2022-02-08T10:08:54Z</time>
      </trkpt>
      <trkpt lat="41.8972080" lon="-2.8826600">
        <ele>1400.4</ele>
        <time>2022-02-08T10:08:55Z</time>
      </trkpt>
      <trkpt lat="41.8972000" lon="-2.8826430">
        <ele>1400.6</ele>
        <time>2022-02-08T10:08:56Z</time>
      </trkpt>
      <trkpt lat="41.8971970" lon="-2.8826300">
        <ele>1400.7</ele>
        <time>2022-02-08T10:08:57Z</time>
      </trkpt>
      <trkpt lat="41.8971950" lon="-2.8826120">
        <ele>1400.9</ele>
        <time>2022-02-08T10:08:58Z</time>
      </trkpt>
      <trkpt lat="41.8971920" lon="-2.8825880">
        <ele>1401.2</ele>
        <time>2022-02-08T10:08:59Z</time>
      </trkpt>
      <trkpt lat="41.8971930" lon="-2.8825700">
        <ele>1401.4</ele>
        <time>2022-02-08T10:09:00Z</time>
      </trkpt>
      <trkpt lat="41.8971950" lon="-2.8825430">
        <ele>1401.7</ele>
        <time>2022-02-08T10:09:01Z</time>
      </trkpt>
      <trkpt lat="41.8971950" lon="-2.8825230">
        <ele>1401.9</ele>
        <time>2022-02-08T10:09:02Z</time>
      </trkpt>
      <trkpt lat="41.8971930" lon="-2.8825000">
        <ele>1402.2</ele>
        <time>2022-02-08T10:09:03Z</time>
      </trkpt>
      <trkpt lat="41.8971880" lon="-2.8824780">
        <ele>1402.4</ele>
        <time>2022-02-08T10:09:04Z</time>
      </trkpt>
      <trkpt lat="41.8971780" lon="-2.8824580">
        <ele>1402.7</ele>
        <time>2022-02-08T10:09:05Z</time>
      </trkpt>
      <trkpt lat="41.8971730" lon="-2.8824430">
        <ele>1402.8</ele>
        <time>2022-02-08T10:09:06Z</time>
      </trkpt>
      <trkpt lat="41.8971680" lon="-2.8824270">
        <ele>1403.0</ele>
        <time>2022-02-08T10:09:07Z</time>
      </trkpt>
      <trkpt lat="41.8971620" lon="-2.8824080">
        <ele>1403.3</ele>
        <time>2022-02-08T10:09:08Z</time>
      </trkpt>
      <trkpt lat="41.8971570" lon="-2.8823920">
        <ele>1403.4</ele>
        <time>2022-02-08T10:09:09Z</time>
      </trkpt>
      <trkpt lat="41.8971500" lon="-2.8823700">
        <ele>1403.7</ele>
        <time>2022-02-08T10:09:10Z</time>
      </trkpt>
      <trkpt lat="41.8971430" lon="-2.8823550">
        <ele>1403.9</ele>
        <time>2022-02-08T10:09:11Z</time>
      </trkpt>
      <trkpt lat="41.8971370" lon="-2.8823330">
        <ele>1404.1</ele>
        <time>2022-02-08T10:09:12Z</time>
      </trkpt>
      <trkpt lat="41.8971300" lon="-2.8823120">
        <ele>1404.3</ele>
        <time>2022-02-08T10:09:13Z</time>
      </trkpt>
      <trkpt lat="41.8971270" lon="-2.8822920">
        <ele>1404.5</ele>
        <time>2022-02-08T10:09:14Z</time>
      </trkpt>
      <trkpt lat="41.8971270" lon="-2.8822720">
        <ele>1404.7</ele>
        <time>2022-02-08T10:09:15Z</time>
      </trkpt>
      <trkpt lat="41.8971250" lon="-2.8822500">
        <ele>1404.8</ele>
        <time>2022-02-08T10:09:16Z</time>
      </trkpt>
      <trkpt lat="41.8971220" lon="-2.8822270">
        <ele>1405.0</ele>
        <time>2022-02-08T10:09:17Z</time>
      </trkpt>
      <trkpt lat="41.8971180" lon="-2.8822120">
        <ele>1405.2</ele>
        <time>2022-02-08T10:09:18Z</time>
      </trkpt>
      <trkpt lat="41.8971180" lon="-2.8821870">
        <ele>1405.4</ele>
        <time>2022-02-08T10:09:19Z</time>
      </trkpt>
      <trkpt lat="41.8971170" lon="-2.8821700">
        <ele>1405.5</ele>
        <time>2022-02-08T10:09:20Z</time>
      </trkpt>
      <trkpt lat="41.8971130" lon="-2.8821450">
        <ele>1405.7</ele>
        <time>2022-02-08T10:09:21Z</time>
      </trkpt>
      <trkpt lat="41.8971080" lon="-2.8821250">
        <ele>1405.9</ele>
        <time>2022-02-08T10:09:22Z</time>
      </trkpt>
      <trkpt lat="41.8971030" lon="-2.8821020">
        <ele>1406.1</ele>
        <time>2022-02-08T10:09:23Z</time>
      </trkpt>
      <trkpt lat="41.8970980" lon="-2.8820870">
        <ele>1406.2</ele>
        <time>2022-02-08T10:09:24Z</time>
      </trkpt>
      <trkpt lat="41.8970900" lon="-2.8820680">
        <ele>1406.4</ele>
        <time>2022-02-08T10:09:25Z</time>
      </trkpt>
      <trkpt lat="41.8970830" lon="-2.8820430">
        <ele>1406.6</ele>
        <time>2022-02-08T10:09:26Z</time>
      </trkpt>
      <trkpt lat="41.8970800" lon="-2.8820280">
        <ele>1406.7</ele>
        <time>2022-02-08T10:09:27Z</time>
      </trkpt>
      <trkpt lat="41.8970750" lon="-2.8820030">
        <ele>1407.0</ele>
        <time>2022-02-08T10:09:28Z</time>
      </trkpt>
      <trkpt lat="41.8970700" lon="-2.8819900">
        <ele>1407.1</ele>
        <time>2022-02-08T10:09:29Z</time>
      </trkpt>
      <trkpt lat="41.8970670" lon="-2.8819680">
        <ele>1407.3</ele>
        <time>2022-02-08T10:09:30Z</time>
      </trkpt>
      <trkpt lat="41.8970650" lon="-2.8819470">
        <ele>1407.5</ele>
        <time>2022-02-08T10:09:31Z</time>
      </trkpt>
      <trkpt lat="41.8970620" lon="-2.8819280">
        <ele>1407.7</ele>
        <time>2022-02-08T10:09:32Z</time>
      </trkpt>
      <trkpt lat="41.8970600" lon="-2.8819130">
        <ele>1407.8</ele>
        <time>2022-02-08T10:09:33Z</time>
      </trkpt>
      <trkpt lat="41.8970570" lon="-2.8818950">
        <ele>1408.0</ele>
        <time>2022-02-08T10:09:34Z</time>
      </trkpt>
      <trkpt lat="41.8970530" lon="-2.8818730">
        <ele>1408.2</ele>
        <time>2022-02-08T10:09:35Z</time>
      </trkpt>
      <trkpt lat="41.8970480" lon="-2.8818550">
        <ele>1408.4</ele>
        <time>2022-02-08T10:09:36Z</time>
      </trkpt>
      <trkpt lat="41.8970450" lon="-2.8818330">
        <ele>1408.6</ele>
        <time>2022-02-08T10:09:37Z</time>
      </trkpt>
      <trkpt lat="41.8970420" lon="-2.8818130">
        <ele>1408.8</ele>
        <time>2022-02-08T10:09:38Z</time>
      </trkpt>
      <trkpt lat="41.8970400" lon="-2.8817980">
        <ele>1408.9</ele>
        <time>2022-02-08T10:09:39Z</time>
      </trkpt>
      <trkpt lat="41.8970400" lon="-2.8817820">
        <ele>1409.1</ele>
        <time>2022-02-08T10:09:40Z</time>
      </trkpt>
      <trkpt lat="41.8970350" lon="-2.8817570">
        <ele>1409.4</ele>
        <time>2022-02-08T10:09:41Z</time>
      </trkpt>
      <trkpt lat="41.8970350" lon="-2.8817420">
        <ele>1409.6</ele>
        <time>2022-02-08T10:09:42Z</time>
      </trkpt>
      <trkpt lat="41.8970280" lon="-2.8817250">
        <ele>1409.8</ele>
        <time>2022-02-08T10:09:43Z</time>
      </trkpt>
      <trkpt lat="41.8970250" lon="-2.8817050">
        <ele>1410.0</ele>
        <time>2022-02-08T10:09:44Z</time>
      </trkpt>
      <trkpt lat="41.8970220" lon="-2.8816870">
        <ele>1410.2</ele>
        <time>2022-02-08T10:09:45Z</time>
      </trkpt>
      <trkpt lat="41.8970180" lon="-2.8816680">
        <ele>1410.4</ele>
        <time>2022-02-08T10:09:46Z</time>
      </trkpt>
      <trkpt lat="41.8970120" lon="-2.8816470">
        <ele>1410.7</ele>
        <time>2022-02-08T10:09:47Z</time>
      </trkpt>
      <trkpt lat="41.8970050" lon="-2.8816280">
        <ele>1410.9</ele>
        <time>2022-02-08T10:09:48Z</time>
      </trkpt>
      <trkpt lat="41.8970030" lon="-2.8816030">
        <ele>1411.2</ele>
        <time>2022-02-08T10:09:49Z</time>
      </trkpt>
      <trkpt lat="41.8969980" lon="-2.8815820">
        <ele>1411.4</ele>
        <time>2022-02-08T10:09:50Z</time>
      </trkpt>
      <trkpt lat="41.8969930" lon="-2.8815570">
        <ele>1411.7</ele>
        <time>2022-02-08T10:09:51Z</time>
      </trkpt>
      <trkpt lat="41.8969880" lon="-2.8815380">
        <ele>1411.9</ele>
        <time>2022-02-08T10:09:52Z</time>
      </trkpt>
      <trkpt lat="41.8969830" lon="-2.8815130">
        <ele>1412.2</ele>
        <time>2022-02-08T10:09:53Z</time>
      </trkpt>
      <trkpt lat="41.8969780" lon="-2.8814930">
        <ele>1412.4</ele>
        <time>2022-02-08T10:09:54Z</time>
      </trkpt>
      <trkpt lat="41.8969630" lon="-2.8814770">
        <ele>1412.7</ele>
        <time>2022-02-08T10:09:55Z</time>
      </trkpt>
      <trkpt lat="41.8969600" lon="-2.8814600">
        <ele>1412.9</ele>
        <time>2022-02-08T10:09:56Z</time>
      </trkpt>
      <trkpt lat="41.8969550" lon="-2.8814420">
        <ele>1413.1</ele>
        <time>2022-02-08T10:09:57Z</time>
      </trkpt>
      <trkpt lat="41.8969550" lon="-2.8814270">
        <ele>1413.2</ele>
        <time>2022-02-08T10:09:58Z</time>
      </trkpt>
      <trkpt lat="41.8969550" lon="-2.8814030">
        <ele>1413.5</ele>
        <time>2022-02-08T10:09:59Z</time>
      </trkpt>
      <trkpt lat="41.8969570" lon="-2.8813850">
        <ele>1413.7</ele>
        <time>2022-02-08T10:10:00Z</time>
      </trkpt>
      <trkpt lat="41.8969600" lon="-2.8813720">
        <ele>1413.8</ele>
        <time>2022-02-08T10:10:01Z</time>
      </trkpt>
      <trkpt lat="41.8969670" lon="-2.8813570">
        <ele>1414.0</ele>
        <time>2022-02-08T10:10:02Z</time>
      </trkpt>
      <trkpt lat="41.8969730" lon="-2.8813420">
        <ele>1414.2</ele>
        <time>2022-02-08T10:10:03Z</time>
      </trkpt>
      <trkpt lat="41.8969820" lon="-2.8813270">
        <ele>1414.4</ele>
        <time>2022-02-08T10:10:04Z</time>
      </trkpt>
      <trkpt lat="41.8969900" lon="-2.8813100">
        <ele>1414.6</ele>
        <time>2022-02-08T10:10:05Z</time>
      </trkpt>
      <trkpt lat="41.8969980" lon="-2.8812950">
        <ele>1414.8</ele>
        <time>2022-02-08T10:10:06Z</time>
      </trkpt>
      <trkpt lat="41.8970070" lon="-2.8812850">
        <ele>1414.9</ele>
        <time>2022-02-08T10:10:07Z</time>
      </trkpt>
      <trkpt lat="41.8970170" lon="-2.8812700">
        <ele>1415.1</ele>
        <time>2022-02-08T10:10:08Z</time>
      </trkpt>
      <trkpt lat="41.8970280" lon="-2.8812600">
        <ele>1415.3</ele>
        <time>2022-02-08T10:10:09Z</time>
      </trkpt>
      <trkpt lat="41.8970400" lon="-2.8812550">
        <ele>1415.5</ele>
        <time>2022-02-08T10:10:10Z</time>
      </trkpt>
      <trkpt lat="41.8970530" lon="-2.8812520">
        <ele>1415.7</ele>
        <time>2022-02-08T10:10:11Z</time>
      </trkpt>
      <trkpt lat="41.8970700" lon="-2.8812500">
        <ele>1415.9</ele>
        <time>2022-02-08T10:10:12Z</time>
      </trkpt>
      <trkpt lat="41.8970820" lon="-2.8812530">
        <ele>1416.1</ele>
        <time>2022-02-08T10:10:13Z</time>
      </trkpt>
      <trkpt lat="41.8970980" lon="-2.8812580">
        <ele>1416.3</ele>
        <time>2022-02-08T10:10:14Z</time>
      </trkpt>
      <trkpt lat="41.8971170" lon="-2.8812630">
        <ele>1416.6</ele>
        <time>2022-02-08T10:10:15Z</time>
      </trkpt>
      <trkpt lat="41.8971380" lon="-2.8812670">
        <ele>1416.9</ele>
        <time>2022-02-08T10:10:16Z</time>
      </trkpt>
      <trkpt lat="41.8971570" lon="-2.8812720">
        <ele>1417.1</ele>
        <time>2022-02-08T10:10:17Z</time>
      </trkpt>
      <trkpt lat="41.8971770" lon="-2.8812780">
        <ele>1417.3</ele>
        <time>2022-02-08T10:10:18Z</time>
      </trkpt>
      <trkpt lat="41.8971980" lon="-2.8812870">
        <ele>1417.6</ele>
        <time>2022-02-08T10:10:19Z</time>
      </trkpt>
      <trkpt lat="41.8972200" lon="-2.8812930">
        <ele>1417.8</ele>
        <time>2022-02-08T10:10:20Z</time>
      </trkpt>
      <trkpt lat="41.8972400" lon="-2.8813050">
        <ele>1418.0</ele>
        <time>2022-02-08T10:10:21Z</time>
      </trkpt>
      <trkpt lat="41.8972580" lon="-2.8813150">
        <ele>1418.1</ele>
        <time>2022-02-08T10:10:22Z</time>
      </trkpt>
      <trkpt lat="41.8972720" lon="-2.8813350">
        <ele>1418.3</ele>
        <time>2022-02-08T10:10:23Z</time>
      </trkpt>
      <trkpt lat="41.8972900" lon="-2.8813580">
        <ele>1418.5</ele>
        <time>2022-02-08T10:10:24Z</time>
      </trkpt>
      <trkpt lat="41.8972970" lon="-2.8813870">
        <ele>1418.6</ele>
        <time>2022-02-08T10:10:25Z</time>
      </trkpt>
      <trkpt lat="41.8973030" lon="-2.8814100">
        <ele>1418.8</ele>
        <time>2022-02-08T10:10:26Z</time>
      </trkpt>
      <trkpt lat="41.8973120" lon="-2.8814270">
        <ele>1418.9</ele>
        <time>2022-02-08T10:10:27Z</time>
      </trkpt>
      <trkpt lat="41.8973200" lon="-2.8814400">
        <ele>1419.0</ele>
        <time>2022-02-08T10:10:28Z</time>
      </trkpt>
      <trkpt lat="41.8973280" lon="-2.8814520">
        <ele>1419.1</ele>
        <time>2022-02-08T10:10:29Z</time>
      </trkpt>
      <trkpt lat="41.8973380" lon="-2.8814620">
        <ele>1419.3</ele>
        <time>2022-02-08T10:10:30Z</time>
      </trkpt>
      <trkpt lat="41.8973470" lon="-2.8814700">
        <ele>1419.4</ele>
        <time>2022-02-08T10:10:31Z</time>
      </trkpt>
      <trkpt lat="41.8973650" lon="-2.8814780">
        <ele>1419.6</ele>
        <time>2022-02-08T10:10:32Z</time>
      </trkpt>
      <trkpt lat="41.8973800" lon="-2.8814830">
        <ele>1419.8</ele>
        <time>2022-02-08T10:10:33Z</time>
      </trkpt>
      <trkpt lat="41.8974000" lon="-2.8814830">
        <ele>1420.1</ele>
        <time>2022-02-08T10:10:34Z</time>
      </trkpt>
      <trkpt lat="41.8974180" lon="-2.8814820">
        <ele>1420.4</ele>
        <time>2022-02-08T10:10:35Z</time>
      </trkpt>
      <trkpt lat="41.8974330" lon="-2.8814770">
        <ele>1420.6</ele>
        <time>2022-02-08T10:10:36Z</time>
      </trkpt>
      <trkpt lat="41.8974470" lon="-2.8814700">
        <ele>1420.8</ele>
        <time>2022-02-08T10:10:37Z</time>
      </trkpt>
      <trkpt lat="41.8974530" lon="-2.8814600">
        <ele>1421.0</ele>
        <time>2022-02-08T10:10:38Z</time>
      </trkpt>
      <trkpt lat="41.8974530" lon="-2.8814480">
        <ele>1421.2</ele>
        <time>2022-02-08T10:10:39Z</time>
      </trkpt>
      <trkpt lat="41.8974600" lon="-2.8814350">
        <ele>1421.4</ele>
        <time>2022-02-08T10:10:40Z</time>
      </trkpt>
      <trkpt lat="41.8974720" lon="-2.8814150">
        <ele>1421.7</ele>
        <time>2022-02-08T10:10:41Z</time>
      </trkpt>
      <trkpt lat="41.8974780" lon="-2.8813930">
        <ele>1422.0</ele>
        <time>2022-02-08T10:10:42Z</time>
      </trkpt>
      <trkpt lat="41.8974730" lon="-2.8813680">
        <ele>1422.3</ele>
        <time>2022-02-08T10:10:43Z</time>
      </trkpt>
      <trkpt lat="41.8974680" lon="-2.8813480">
        <ele>1422.6</ele>
        <time>2022-02-08T10:10:44Z</time>
      </trkpt>
      <trkpt lat="41.8974700" lon="-2.8813250">
        <ele>1422.9</ele>
        <time>2022-02-08T10:10:45Z</time>
      </trkpt>
      <trkpt lat="41.8974670" lon="-2.8813100">
        <ele>1423.1</ele>
        <time>2022-02-08T10:10:46Z</time>
      </trkpt>
      <trkpt lat="41.8974670" lon="-2.8812930">
        <ele>1423.3</ele>
        <time>2022-02-08T10:10:47Z</time>
      </trkpt>
      <trkpt lat="41.8974630" lon="-2.8812780">
        <ele>1423.5</ele>
        <time>2022-02-08T10:10:48Z</time>
      </trkpt>
      <trkpt lat="41.8974650" lon="-2.8812580">
        <ele>1423.7</ele>
        <time>2022-02-08T10:10:49Z</time>
      </trkpt>
      <trkpt lat="41.8974630" lon="-2.8812320">
        <ele>1424.0</ele>
        <time>2022-02-08T10:10:50Z</time>
      </trkpt>
      <trkpt lat="41.8974670" lon="-2.8812080">
        <ele>1424.3</ele>
        <time>2022-02-08T10:10:51Z</time>
      </trkpt>
      <trkpt lat="41.8974630" lon="-2.8811900">
        <ele>1424.5</ele>
        <time>2022-02-08T10:10:52Z</time>
      </trkpt>
      <trkpt lat="41.8974580" lon="-2.8811720">
        <ele>1424.6</ele>
        <time>2022-02-08T10:10:53Z</time>
      </trkpt>
      <trkpt lat="41.8974520" lon="-2.8811520">
        <ele>1424.8</ele>
        <time>2022-02-08T10:10:54Z</time>
      </trkpt>
      <trkpt lat="41.8974470" lon="-2.8811300">
        <ele>1425.0</ele>
        <time>2022-02-08T10:10:55Z</time>
      </trkpt>
      <trkpt lat="41.8974430" lon="-2.8811030">
        <ele>1425.2</ele>
        <time>2022-02-08T10:10:56Z</time>
      </trkpt>
      <trkpt lat="41.8974420" lon="-2.8810830">
        <ele>1425.4</ele>
        <time>2022-02-08T10:10:57Z</time>
      </trkpt>
      <trkpt lat="41.8974400" lon="-2.8810600">
        <ele>1425.6</ele>
        <time>2022-02-08T10:10:58Z</time>
      </trkpt>
      <trkpt lat="41.8974420" lon="-2.8810370">
        <ele>1425.7</ele>
        <time>2022-02-08T10:10:59Z</time>
      </trkpt>
      <trkpt lat="41.8974450" lon="-2.8810120">
        <ele>1425.9</ele>
        <time>2022-02-08T10:11:00Z</time>
      </trkpt>
      <trkpt lat="41.8974500" lon="-2.8809900">
        <ele>1426.0</ele>
        <time>2022-02-08T10:11:01Z</time>
      </trkpt>
      <trkpt lat="41.8974600" lon="-2.8809670">
        <ele>1426.2</ele>
        <time>2022-02-08T10:11:02Z</time>
      </trkpt>
      <trkpt lat="41.8974730" lon="-2.8809480">
        <ele>1426.3</ele>
        <time>2022-02-08T10:11:03Z</time>
      </trkpt>
      <trkpt lat="41.8974820" lon="-2.8809320">
        <ele>1426.5</ele>
        <time>2022-02-08T10:11:04Z</time>
      </trkpt>
      <trkpt lat="41.8974880" lon="-2.8809120">
        <ele>1426.6</ele>
        <time>2022-02-08T10:11:05Z</time>
      </trkpt>
      <trkpt lat="41.8974950" lon="-2.8808870">
        <ele>1426.7</ele>
        <time>2022-02-08T10:11:06Z</time>
      </trkpt>
      <trkpt lat="41.8975000" lon="-2.8808700">
        <ele>1426.8</ele>
        <time>2022-02-08T10:11:07Z</time>
      </trkpt>
      <trkpt lat="41.8975120" lon="-2.8808450">
        <ele>1426.9</ele>
        <time>2022-02-08T10:11:08Z</time>
      </trkpt>
      <trkpt lat="41.8975220" lon="-2.8808230">
        <ele>1427.1</ele>
        <time>2022-02-08T10:11:09Z</time>
      </trkpt>
      <trkpt lat="41.8975380" lon="-2.8807980">
        <ele>1427.2</ele>
        <time>2022-02-08T10:11:10Z</time>
      </trkpt>
      <trkpt lat="41.8975480" lon="-2.8807800">
        <ele>1427.3</ele>
        <time>2022-02-08T10:11:11Z</time>
      </trkpt>
      <trkpt lat="41.8975620" lon="-2.8807570">
        <ele>1427.4</ele>
        <time>2022-02-08T10:11:12Z</time>
      </trkpt>
      <trkpt lat="41.8975730" lon="-2.8807380">
        <ele>1427.5</ele>
        <time>2022-02-08T10:11:13Z</time>
      </trkpt>
      <trkpt lat="41.8975820" lon="-2.8807170">
        <ele>1427.6</ele>
        <time>2022-02-08T10:11:14Z</time>
      </trkpt>
      <trkpt lat="41.8976020" lon="-2.8806870">
        <ele>1427.7</ele>
        <time>2022-02-08T10:11:15Z</time>
      </trkpt>
      <trkpt lat="41.8976130" lon="-2.8806620">
        <ele>1427.8</ele>
        <time>2022-02-08T10:11:16Z</time>
      </trkpt>
      <trkpt lat="41.8976180" lon="-2.8806280">
        <ele>1427.9</ele>
        <time>2022-02-08T10:11:17Z</time>
      </trkpt>
      <trkpt lat="41.8976150" lon="-2.8805950">
        <ele>1428.0</ele>
        <time>2022-02-08T10:11:18Z</time>
      </trkpt>
      <trkpt lat="41.8976230" lon="-2.8805580">
        <ele>1428.2</ele>
        <time>2022-02-08T10:11:19Z</time>
      </trkpt>
      <trkpt lat="41.8976400" lon="-2.8805250">
        <ele>1428.3</ele>
        <time>2022-02-08T10:11:20Z</time>
      </trkpt>
      <trkpt lat="41.8976480" lon="-2.8804870">
        <ele>1428.5</ele>
        <time>2022-02-08T10:11:21Z</time>
      </trkpt>
      <trkpt lat="41.8976480" lon="-2.8804570">
        <ele>1428.6</ele>
        <time>2022-02-08T10:11:22Z</time>
      </trkpt>
      <trkpt lat="41.8976450" lon="-2.8804320">
        <ele>1428.7</ele>
        <time>2022-02-08T10:11:23Z</time>
      </trkpt>
      <trkpt lat="41.8976470" lon="-2.8804020">
        <ele>1428.9</ele>
        <time>2022-02-08T10:11:24Z</time>
      </trkpt>
      <trkpt lat="41.8976470" lon="-2.8803730">
        <ele>1429.1</ele>
        <time>2022-02-08T10:11:25Z</time>
      </trkpt>
      <trkpt lat="41.8976480" lon="-2.8803480">
        <ele>1429.2</ele>
        <time>2022-02-08T10:11:26Z</time>
      </trkpt>
      <trkpt lat="41.8976520" lon="-2.8803250">
        <ele>1429.4</ele>
        <time>2022-02-08T10:11:27Z</time>
      </trkpt>
      <trkpt lat="41.8976570" lon="-2.8802950">
        <ele>1429.6</ele>
        <time>2022-02-08T10:11:28Z</time>
      </trkpt>
      <trkpt lat="41.8976600" lon="-2.8802680">
        <ele>1429.8</ele>
        <time>2022-02-08T10:11:29Z</time>
      </trkpt>
      <trkpt lat="41.8976600" lon="-2.8802400">
        <ele>1430.0</ele>
        <time>2022-02-08T10:11:30Z</time>
      </trkpt>
      <trkpt lat="41.8976600" lon="-2.8802130">
        <ele>1430.2</ele>
        <time>2022-02-08T10:11:31Z</time>
      </trkpt>
      <trkpt lat="41.8976620" lon="-2.8801870">
        <ele>1430.4</ele>
        <time>2022-02-08T10:11:32Z</time>
      </trkpt>
      <trkpt lat="41.8976630" lon="-2.8801630">
        <ele>1430.6</ele>
        <time>2022-02-08T10:11:33Z</time>
      </trkpt>
      <trkpt lat="41.8976630" lon="-2.8801430">
        <ele>1430.7</ele>
        <time>2022-02-08T10:11:34Z</time>
      </trkpt>
      <trkpt lat="41.8976620" lon="-2.8801220">
        <ele>1430.9</ele>
        <time>2022-02-08T10:11:35Z</time>
      </trkpt>
      <trkpt lat="41.8976530" lon="-2.8800970">
        <ele>1431.1</ele>
        <time>2022-02-08T10:11:36Z</time>
      </trkpt>
      <trkpt lat="41.8976520" lon="-2.8800770">
        <ele>1431.3</ele>
        <time>2022-02-08T10:11:37Z</time>
      </trkpt>
      <trkpt lat="41.8976450" lon="-2.8800470">
        <ele>1431.5</ele>
        <time>2022-02-08T10:11:38Z</time>
      </trkpt>
      <trkpt lat="41.8976520" lon="-2.8800250">
        <ele>1431.7</ele>
        <time>2022-02-08T10:11:39Z</time>
      </trkpt>
      <trkpt lat="41.8976580" lon="-2.8799980">
        <ele>1431.9</ele>
        <time>2022-02-08T10:11:40Z</time>
      </trkpt>
      <trkpt lat="41.8976600" lon="-2.8799730">
        <ele>1432.1</ele>
        <time>2022-02-08T10:11:41Z</time>
      </trkpt>
      <trkpt lat="41.8976620" lon="-2.8799470">
        <ele>1432.2</ele>
        <time>2022-02-08T10:11:42Z</time>
      </trkpt>
      <trkpt lat="41.8976670" lon="-2.8799180">
        <ele>1432.4</ele>
        <time>2022-02-08T10:11:43Z</time>
      </trkpt>
      <trkpt lat="41.8976700" lon="-2.8798920">
        <ele>1432.5</ele>
        <time>2022-02-08T10:11:44Z</time>
      </trkpt>
      <trkpt lat="41.8976780" lon="-2.8798630">
        <ele>1432.6</ele>
        <time>2022-02-08T10:11:45Z</time>
      </trkpt>
      <trkpt lat="41.8976870" lon="-2.8798330">
        <ele>1432.8</ele>
        <time>2022-02-08T10:11:46Z</time>
      </trkpt>
      <trkpt lat="41.8976950" lon="-2.8798000">
        <ele>1432.9</ele>
        <time>2022-02-08T10:11:47Z</time>
      </trkpt>
      <trkpt lat="41.8977100" lon="-2.8797650">
        <ele>1433.0</ele>
        <time>2022-02-08T10:11:48Z</time>
      </trkpt>
      <trkpt lat="41.8977180" lon="-2.8797400">
        <ele>1433.1</ele>
        <time>2022-02-08T10:11:49Z</time>
      </trkpt>
      <trkpt lat="41.8977300" lon="-2.8797050">
        <ele>1433.2</ele>
        <time>2022-02-08T10:11:50Z</time>
      </trkpt>
      <trkpt lat="41.8977420" lon="-2.8796680">
        <ele>1433.3</ele>
        <time>2022-02-08T10:11:51Z</time>
      </trkpt>
      <trkpt lat="41.8977520" lon="-2.8796350">
        <ele>1433.4</ele>
        <time>2022-02-08T10:11:52Z</time>
      </trkpt>
      <trkpt lat="41.8977650" lon="-2.8796030">
        <ele>1433.5</ele>
        <time>2022-02-08T10:11:53Z</time>
      </trkpt>
      <trkpt lat="41.8977770" lon="-2.8795720">
        <ele>1433.6</ele>
        <time>2022-02-08T10:11:54Z</time>
      </trkpt>
      <trkpt lat="41.8977920" lon="-2.8795320">
        <ele>1433.7</ele>
        <time>2022-02-08T10:11:55Z</time>
      </trkpt>
      <trkpt lat="41.8978000" lon="-2.8794980">
        <ele>1433.8</ele>
        <time>2022-02-08T10:11:56Z</time>
      </trkpt>
      <trkpt lat="41.8978070" lon="-2.8794700">
        <ele>1433.9</ele>
        <time>2022-02-08T10:11:57Z</time>
      </trkpt>
      <trkpt lat="41.8978120" lon="-2.8794370">
        <ele>1434.0</ele>
        <time>2022-02-08T10:11:58Z</time>
      </trkpt>
      <trkpt lat="41.8978170" lon="-2.8794080">
        <ele>1434.1</ele>
        <time>2022-02-08T10:11:59Z</time>
      </trkpt>
      <trkpt lat="41.8978200" lon="-2.8793750">
        <ele>1434.2</ele>
        <time>2022-02-08T10:12:00Z</time>
      </trkpt>
      <trkpt lat="41.8978250" lon="-2.8793480">
        <ele>1434.3</ele>
        <time>2022-02-08T10:12:01Z</time>
      </trkpt>
      <trkpt lat="41.8978230" lon="-2.8793170">
        <ele>1434.4</ele>
        <time>2022-02-08T10:12:02Z</time>
      </trkpt>
      <trkpt lat="41.8978180" lon="-2.8792870">
        <ele>1434.6</ele>
        <time>2022-02-08T10:12:03Z</time>
      </trkpt>
      <trkpt lat="41.8978200" lon="-2.8792500">
        <ele>1434.8</ele>
        <time>2022-02-08T10:12:04Z</time>
      </trkpt>
      <trkpt lat="41.8978180" lon="-2.8792200">
        <ele>1434.9</ele>
        <time>2022-02-08T10:12:05Z</time>
      </trkpt>
      <trkpt lat="41.8978180" lon="-2.8791850">
        <ele>1435.1</ele>
        <time>2022-02-08T10:12:06Z</time>
      </trkpt>
      <trkpt lat="41.8978170" lon="-2.8791570">
        <ele>1435.3</ele>
        <time>2022-02-08T10:12:07Z</time>
      </trkpt>
      <trkpt lat="41.8978180" lon="-2.8791400">
        <ele>1435.4</ele>
        <time>2022-02-08T10:12:08Z</time>
      </trkpt>
      <trkpt lat="41.8978200" lon="-2.8791200">
        <ele>1435.6</ele>
        <time>2022-02-08T10:12:09Z</time>
      </trkpt>
      <trkpt lat="41.8978150" lon="-2.8790980">
        <ele>1435.8</ele>
        <time>2022-02-08T10:12:10Z</time>
      </trkpt>
      <trkpt lat="41.8978120" lon="-2.8790780">
        <ele>1435.9</ele>
        <time>2022-02-08T10:12:11Z</time>
      </trkpt>
      <trkpt lat="41.8978120" lon="-2.8790600">
        <ele>1436.1</ele>
        <time>2022-02-08T10:12:12Z</time>
      </trkpt>
      <trkpt lat="41.8978130" lon="-2.8790420">
        <ele>1436.2</ele>
        <time>2022-02-08T10:12:13Z</time>
      </trkpt>
      <trkpt lat="41.8978150" lon="-2.8790250">
        <ele>1436.4</ele>
        <time>2022-02-08T10:12:14Z</time>
      </trkpt>
      <trkpt lat="41.8978130" lon="-2.8790070">
        <ele>1436.5</ele>
        <time>2022-02-08T10:12:15Z</time>
      </trkpt>
      <trkpt lat="41.8978120" lon="-2.8789820">
        <ele>1436.8</ele>
        <time>2022-02-08T10:12:16Z</time>
      </trkpt>
      <trkpt lat="41.8978070" lon="-2.8789570">
        <ele>1437.0</ele>
        <time>2022-02-08T10:12:17Z</time>
      </trkpt>
      <trkpt lat="41.8978050" lon="-2.8789350">
        <ele>1437.3</ele>
        <time>2022-02-08T10:12:18Z</time>
      </trkpt>
      <trkpt lat="41.8978050" lon="-2.8789030">
        <ele>1437.6</ele>
        <time>2022-02-08T10:12:19Z</time>
      </trkpt>
      <trkpt lat="41.8978030" lon="-2.8788780">
        <ele>1437.9</ele>
        <time>2022-02-08T10:12:20Z</time>
      </trkpt>
      <trkpt lat="41.8977980" lon="-2.8788480">
        <ele>1438.2</ele>
        <time>2022-02-08T10:12:21Z</time>
      </trkpt>
      <trkpt lat="41.8977970" lon="-2.8788220">
        <ele>1438.4</ele>
        <time>2022-02-08T10:12:22Z</time>
      </trkpt>
      <trkpt lat="41.8977950" lon="-2.8787930">
        <ele>1438.7</ele>
        <time>2022-02-08T10:12:23Z</time>
      </trkpt>
      <trkpt lat="41.8977950" lon="-2.8787730">
        <ele>1439.0</ele>
        <time>2022-02-08T10:12:24Z</time>
      </trkpt>
      <trkpt lat="41.8977880" lon="-2.8787520">
        <ele>1439.2</ele>
        <time>2022-02-08T10:12:25Z</time>
      </trkpt>
      <trkpt lat="41.8977850" lon="-2.8787300">
        <ele>1439.4</ele>
        <time>2022-02-08T10:12:26Z</time>
      </trkpt>
      <trkpt lat="41.8977780" lon="-2.8787070">
        <ele>1439.6</ele>
        <time>2022-02-08T10:12:27Z</time>
      </trkpt>
      <trkpt lat="41.8977720" lon="-2.8786800">
        <ele>1439.9</ele>
        <time>2022-02-08T10:12:28Z</time>
      </trkpt>
      <trkpt lat="41.8977620" lon="-2.8786520">
        <ele>1440.2</ele>
        <time>2022-02-08T10:12:29Z</time>
      </trkpt>
      <trkpt lat="41.8977500" lon="-2.8786270">
        <ele>1440.5</ele>
        <time>2022-02-08T10:12:30Z</time>
      </trkpt>
      <trkpt lat="41.8977420" lon="-2.8786030">
        <ele>1440.7</ele>
        <time>2022-02-08T10:12:31Z</time>
      </trkpt>
      <trkpt lat="41.8977430" lon="-2.8785800">
        <ele>1440.9</ele>
        <time>2022-02-08T10:12:32Z</time>
      </trkpt>
      <trkpt lat="41.8977470" lon="-2.8785580">
        <ele>1441.1</ele>
        <time>2022-02-08T10:12:33Z</time>
      </trkpt>
      <trkpt lat="41.8977520" lon="-2.8785300">
        <ele>1441.3</ele>
        <time>2022-02-08T10:12:34Z</time>
      </trkpt>
      <trkpt lat="41.8977570" lon="-2.8785050">
        <ele>1441.6</ele>
        <time>2022-02-08T10:12:35Z</time>
      </trkpt>
      <trkpt lat="41.8977630" lon="-2.8784830">
        <ele>1441.8</ele>
        <time>2022-02-08T10:12:36Z</time>
      </trkpt>
      <trkpt lat="41.8977700" lon="-2.8784620">
        <ele>1442.0</ele>
        <time>2022-02-08T10:12:37Z</time>
      </trkpt>
      <trkpt lat="41.8977780" lon="-2.8784430">
        <ele>1442.2</ele>
        <time>2022-02-08T10:12:38Z</time>
      </trkpt>
      <trkpt lat="41.8977880" lon="-2.8784250">
        <ele>1442.5</ele>
        <time>2022-02-08T10:12:39Z</time>
      </trkpt>
      <trkpt lat="41.8977980" lon="-2.8784080">
        <ele>1442.7</ele>
        <time>2022-02-08T10:12:40Z</time>
      </trkpt>
      <trkpt lat="41.8978080" lon="-2.8783900">
        <ele>1442.9</ele>
        <time>2022-02-08T10:12:41Z</time>
      </trkpt>
      <trkpt lat="41.8978180" lon="-2.8783730">
        <ele>1443.1</ele>
        <time>2022-02-08T10:12:42Z</time>
      </trkpt>
      <trkpt lat="41.8978280" lon="-2.8783550">
        <ele>1443.4</ele>
        <time>2022-02-08T10:12:43Z</time>
      </trkpt>
      <trkpt lat="41.8978380" lon="-2.8783350">
        <ele>1443.6</ele>
        <time>2022-02-08T10:12:44Z</time>
      </trkpt>
      <trkpt lat="41.8978450" lon="-2.8783130">
        <ele>1443.6</ele>
        <time>2022-02-08T10:12:45Z</time>
      </trkpt>
      <trkpt lat="41.8978530" lon="-2.8782900">
        <ele>1443.7</ele>
        <time>2022-02-08T10:12:46Z</time>
      </trkpt>
      <trkpt lat="41.8978630" lon="-2.8782700">
        <ele>1443.7</ele>
        <time>2022-02-08T10:12:47Z</time>
      </trkpt>
      <trkpt lat="41.8978680" lon="-2.8782470">
        <ele>1443.7</ele>
        <time>2022-02-08T10:12:48Z</time>
      </trkpt>
      <trkpt lat="41.8978730" lon="-2.8782250">
        <ele>1443.7</ele>
        <time>2022-02-08T10:12:49Z</time>
      </trkpt>
      <trkpt lat="41.8978800" lon="-2.8782050">
        <ele>1443.7</ele>
        <time>2022-02-08T10:12:50Z</time>
      </trkpt>
      <trkpt lat="41.8978820" lon="-2.8781830">
        <ele>1443.7</ele>
        <time>2022-02-08T10:12:51Z</time>
      </trkpt>
      <trkpt lat="41.8978850" lon="-2.8781600">
        <ele>1443.7</ele>
        <time>2022-02-08T10:12:52Z</time>
      </trkpt>
      <trkpt lat="41.8978870" lon="-2.8781380">
        <ele>1443.7</ele>
        <time>2022-02-08T10:12:53Z</time>
      </trkpt>
      <trkpt lat="41.8978930" lon="-2.8781170">
        <ele>1443.7</ele>
        <time>2022-02-08T10:12:54Z</time>
      </trkpt>
      <trkpt lat="41.8978980" lon="-2.8780970">
        <ele>1443.7</ele>
        <time>2022-02-08T10:12:55Z</time>
      </trkpt>
      <trkpt lat="41.8979000" lon="-2.8780750">
        <ele>1443.6</ele>
        <time>2022-02-08T10:12:56Z</time>
      </trkpt>
      <trkpt lat="41.8979030" lon="-2.8780530">
        <ele>1443.6</ele>
        <time>2022-02-08T10:12:57Z</time>
      </trkpt>
      <trkpt lat="41.8979050" lon="-2.8780330">
        <ele>1443.6</ele>
        <time>2022-02-08T10:12:58Z</time>
      </trkpt>
      <trkpt lat="41.8979050" lon="-2.8780130">
        <ele>1443.6</ele>
        <time>2022-02-08T10:12:59Z</time>
      </trkpt>
      <trkpt lat="41.8979030" lon="-2.8779930">
        <ele>1443.5</ele>
        <time>2022-02-08T10:13:00Z</time>
      </trkpt>
      <trkpt lat="41.8978970" lon="-2.8779720">
        <ele>1443.5</ele>
        <time>2022-02-08T10:13:01Z</time>
      </trkpt>
      <trkpt lat="41.8978870" lon="-2.8779500">
        <ele>1443.5</ele>
        <time>2022-02-08T10:13:02Z</time>
      </trkpt>
      <trkpt lat="41.8978780" lon="-2.8779280">
        <ele>1443.4</ele>
        <time>2022-02-08T10:13:03Z</time>
      </trkpt>
      <trkpt lat="41.8978700" lon="-2.8779070">
        <ele>1443.4</ele>
        <time>2022-02-08T10:13:04Z</time>
      </trkpt>
      <trkpt lat="41.8978620" lon="-2.8778870">
        <ele>1443.4</ele>
        <time>2022-02-08T10:13:05Z</time>
      </trkpt>
      <trkpt lat="41.8978530" lon="-2.8778650">
        <ele>1443.3</ele>
        <time>2022-02-08T10:13:06Z</time>
      </trkpt>
      <trkpt lat="41.8978480" lon="-2.8778430">
        <ele>1443.3</ele>
        <time>2022-02-08T10:13:07Z</time>
      </trkpt>
      <trkpt lat="41.8978430" lon="-2.8778200">
        <ele>1443.3</ele>
        <time>2022-02-08T10:13:08Z</time>
      </trkpt>
      <trkpt lat="41.8978400" lon="-2.8778000">
        <ele>1443.2</ele>
        <time>2022-02-08T10:13:09Z</time>
      </trkpt>
      <trkpt lat="41.8978370" lon="-2.8777820">
        <ele>1443.2</ele>
        <time>2022-02-08T10:13:10Z</time>
      </trkpt>
      <trkpt lat="41.8978370" lon="-2.8777650">
        <ele>1443.2</ele>
        <time>2022-02-08T10:13:11Z</time>
      </trkpt>
      <trkpt lat="41.8978380" lon="-2.8777500">
        <ele>1443.2</ele>
        <time>2022-02-08T10:13:12Z</time>
      </trkpt>
      <trkpt lat="41.8978420" lon="-2.8777370">
        <ele>1443.2</ele>
        <time>2022-02-08T10:13:13Z</time>
      </trkpt>
      <trkpt lat="41.8978430" lon="-2.8777220">
        <ele>1443.2</ele>
        <time>2022-02-08T10:13:14Z</time>
      </trkpt>
      <trkpt lat="41.8978470" lon="-2.8777020">
        <ele>1443.2</ele>
        <time>2022-02-08T10:13:15Z</time>
      </trkpt>
      <trkpt lat="41.8978480" lon="-2.8776830">
        <ele>1443.2</ele>
        <time>2022-02-08T10:13:16Z</time>
      </trkpt>
      <trkpt lat="41.8978470" lon="-2.8776650">
        <ele>1443.1</ele>
        <time>2022-02-08T10:13:17Z</time>
      </trkpt>
      <trkpt lat="41.8978420" lon="-2.8776500">
        <ele>1443.1</ele>
        <time>2022-02-08T10:13:18Z</time>
      </trkpt>
      <trkpt lat="41.8978420" lon="-2.8776300">
        <ele>1443.1</ele>
        <time>2022-02-08T10:13:19Z</time>
      </trkpt>
      <trkpt lat="41.8978470" lon="-2.8776130">
        <ele>1443.1</ele>
        <time>2022-02-08T10:13:20Z</time>
      </trkpt>
      <trkpt lat="41.8978470" lon="-2.8775970">
        <ele>1443.1</ele>
        <time>2022-02-08T10:13:21Z</time>
      </trkpt>
      <trkpt lat="41.8978450" lon="-2.8775820">
        <ele>1443.1</ele>
        <time>2022-02-08T10:13:22Z</time>
      </trkpt>
      <trkpt lat="41.8978420" lon="-2.8775470">
        <ele>1443.1</ele>
        <time>2022-02-08T10:13:23Z</time>
      </trkpt>
      <trkpt lat="41.8978530" lon="-2.8775180">
        <ele>1443.1</ele>
        <time>2022-02-08T10:13:24Z</time>
      </trkpt>
      <trkpt lat="41.8978580" lon="-2.8774930">
        <ele>1443.1</ele>
        <time>2022-02-08T10:13:25Z</time>
      </trkpt>
      <trkpt lat="41.8978600" lon="-2.8774720">
        <ele>1443.1</ele>
        <time>2022-02-08T10:13:26Z</time>
      </trkpt>
      <trkpt lat="41.8978580" lon="-2.8774420">
        <ele>1443.1</ele>
        <time>2022-02-08T10:13:27Z</time>
      </trkpt>
      <trkpt lat="41.8978530" lon="-2.8774170">
        <ele>1443.0</ele>
        <time>2022-02-08T10:13:28Z</time>
      </trkpt>
      <trkpt lat="41.8978530" lon="-2.8773950">
        <ele>1443.0</ele>
        <time>2022-02-08T10:13:29Z</time>
      </trkpt>
      <trkpt lat="41.8978580" lon="-2.8773770">
        <ele>1443.0</ele>
        <time>2022-02-08T10:13:30Z</time>
      </trkpt>
      <trkpt lat="41.8978670" lon="-2.8773550">
        <ele>1443.0</ele>
        <time>2022-02-08T10:13:31Z</time>
      </trkpt>
      <trkpt lat="41.8978670" lon="-2.8773280">
        <ele>1443.0</ele>
        <time>2022-02-08T10:13:32Z</time>
      </trkpt>
      <trkpt lat="41.8978730" lon="-2.8772930">
        <ele>1442.9</ele>
        <time>2022-02-08T10:13:33Z</time>
      </trkpt>
      <trkpt lat="41.8978850" lon="-2.8772580">
        <ele>1442.9</ele>
        <time>2022-02-08T10:13:34Z</time>
      </trkpt>
      <trkpt lat="41.8978950" lon="-2.8772280">
        <ele>1442.8</ele>
        <time>2022-02-08T10:13:35Z</time>
      </trkpt>
      <trkpt lat="41.8979020" lon="-2.8772080">
        <ele>1442.8</ele>
        <time>2022-02-08T10:13:36Z</time>
      </trkpt>
      <trkpt lat="41.8979080" lon="-2.8771870">
        <ele>1442.8</ele>
        <time>2022-02-08T10:13:37Z</time>
      </trkpt>
      <trkpt lat="41.8979200" lon="-2.8771650">
        <ele>1442.8</ele>
        <time>2022-02-08T10:13:38Z</time>
      </trkpt>
      <trkpt lat="41.8979300" lon="-2.8771430">
        <ele>1442.7</ele>
        <time>2022-02-08T10:13:39Z</time>
      </trkpt>
      <trkpt lat="41.8979400" lon="-2.8771230">
        <ele>1442.7</ele>
        <time>2022-02-08T10:13:40Z</time>
      </trkpt>
      <trkpt lat="41.8979500" lon="-2.8771030">
        <ele>1442.7</ele>
        <time>2022-02-08T10:13:41Z</time>
      </trkpt>
      <trkpt lat="41.8979600" lon="-2.8770800">
        <ele>1442.6</ele>
        <time>2022-02-08T10:13:42Z</time>
      </trkpt>
      <trkpt lat="41.8979720" lon="-2.8770570">
        <ele>1442.6</ele>
        <time>2022-02-08T10:13:43Z</time>
      </trkpt>
      <trkpt lat="41.8979800" lon="-2.8770370">
        <ele>1442.6</ele>
        <time>2022-02-08T10:13:44Z</time>
      </trkpt>
      <trkpt lat="41.8979950" lon="-2.8770200">
        <ele>1442.6</ele>
        <time>2022-02-08T10:13:45Z</time>
      </trkpt>
      <trkpt lat="41.8980080" lon="-2.8770030">
        <ele>1442.6</ele>
        <time>2022-02-08T10:13:46Z</time>
      </trkpt>
      <trkpt lat="41.8980200" lon="-2.8769920">
        <ele>1442.6</ele>
        <time>2022-02-08T10:13:47Z</time>
      </trkpt>
      <trkpt lat="41.8980330" lon="-2.8769800">
        <ele>1442.6</ele>
        <time>2022-02-08T10:13:48Z</time>
      </trkpt>
      <trkpt lat="41.8980480" lon="-2.8769720">
        <ele>1442.5</ele>
        <time>2022-02-08T10:13:49Z</time>
      </trkpt>
      <trkpt lat="41.8980650" lon="-2.8769680">
        <ele>1442.5</ele>
        <time>2022-02-08T10:13:50Z</time>
      </trkpt>
      <trkpt lat="41.8980820" lon="-2.8769700">
        <ele>1442.5</ele>
        <time>2022-02-08T10:13:51Z</time>
      </trkpt>
      <trkpt lat="41.8981000" lon="-2.8769730">
        <ele>1442.5</ele>
        <time>2022-02-08T10:13:52Z</time>
      </trkpt>
      <trkpt lat="41.8981180" lon="-2.8769780">
        <ele>1442.5</ele>
        <time>2022-02-08T10:13:53Z</time>
      </trkpt>
      <trkpt lat="41.8981330" lon="-2.8769850">
        <ele>1442.5</ele>
        <time>2022-02-08T10:13:54Z</time>
      </trkpt>
      <trkpt lat="41.8981480" lon="-2.8769970">
        <ele>1442.4</ele>
        <time>2022-02-08T10:13:55Z</time>
      </trkpt>
      <trkpt lat="41.8981580" lon="-2.8770120">
        <ele>1442.4</ele>
        <time>2022-02-08T10:13:56Z</time>
      </trkpt>
      <trkpt lat="41.8981650" lon="-2.8770330">
        <ele>1442.6</ele>
        <time>2022-02-08T10:13:57Z</time>
      </trkpt>
      <trkpt lat="41.8981720" lon="-2.8770620">
        <ele>1442.8</ele>
        <time>2022-02-08T10:13:58Z</time>
      </trkpt>
      <trkpt lat="41.8981780" lon="-2.8771020">
        <ele>1443.1</ele>
        <time>2022-02-08T10:13:59Z</time>
      </trkpt>
      <trkpt lat="41.8981880" lon="-2.8771380">
        <ele>1443.4</ele>
        <time>2022-02-08T10:14:00Z</time>
      </trkpt>
      <trkpt lat="41.8981970" lon="-2.8771780">
        <ele>1443.8</ele>
        <time>2022-02-08T10:14:01Z</time>
      </trkpt>
      <trkpt lat="41.8982050" lon="-2.8772180">
        <ele>1444.1</ele>
        <time>2022-02-08T10:14:02Z</time>
      </trkpt>
      <trkpt lat="41.8982120" lon="-2.8772620">
        <ele>1444.4</ele>
        <time>2022-02-08T10:14:03Z</time>
      </trkpt>
      <trkpt lat="41.8982220" lon="-2.8773050">
        <ele>1444.8</ele>
        <time>2022-02-08T10:14:04Z</time>
      </trkpt>
      <trkpt lat="41.8982330" lon="-2.8773480">
        <ele>1445.1</ele>
        <time>2022-02-08T10:14:05Z</time>
      </trkpt>
      <trkpt lat="41.8982450" lon="-2.8773950">
        <ele>1445.5</ele>
        <time>2022-02-08T10:14:06Z</time>
      </trkpt>
      <trkpt lat="41.8982570" lon="-2.8774370">
        <ele>1445.9</ele>
        <time>2022-02-08T10:14:07Z</time>
      </trkpt>
      <trkpt lat="41.8982780" lon="-2.8774720">
        <ele>1446.2</ele>
        <time>2022-02-08T10:14:08Z</time>
      </trkpt>
      <trkpt lat="41.8983050" lon="-2.8775000">
        <ele>1446.6</ele>
        <time>2022-02-08T10:14:09Z</time>
      </trkpt>
      <trkpt lat="41.8983350" lon="-2.8775330">
        <ele>1447.0</ele>
        <time>2022-02-08T10:14:10Z</time>
      </trkpt>
      <trkpt lat="41.8983630" lon="-2.8775620">
        <ele>1447.3</ele>
        <time>2022-02-08T10:14:11Z</time>
      </trkpt>
      <trkpt lat="41.8983950" lon="-2.8775830">
        <ele>1447.7</ele>
        <time>2022-02-08T10:14:12Z</time>
      </trkpt>
      <trkpt lat="41.8984230" lon="-2.8776150">
        <ele>1448.0</ele>
        <time>2022-02-08T10:14:13Z</time>
      </trkpt>
      <trkpt lat="41.8984620" lon="-2.8776480">
        <ele>1448.5</ele>
        <time>2022-02-08T10:14:14Z</time>
      </trkpt>
      <trkpt lat="41.8984970" lon="-2.8776820">
        <ele>1448.9</ele>
        <time>2022-02-08T10:14:15Z</time>
      </trkpt>
      <trkpt lat="41.8985350" lon="-2.8777080">
        <ele>1449.3</ele>
        <time>2022-02-08T10:14:16Z</time>
      </trkpt>
      <trkpt lat="41.8985670" lon="-2.8777330">
        <ele>1449.6</ele>
        <time>2022-02-08T10:14:17Z</time>
      </trkpt>
      <trkpt lat="41.8985950" lon="-2.8777600">
        <ele>1450.0</ele>
        <time>2022-02-08T10:14:18Z</time>
      </trkpt>
      <trkpt lat="41.8986200" lon="-2.8777830">
        <ele>1450.3</ele>
        <time>2022-02-08T10:14:19Z</time>
      </trkpt>
      <trkpt lat="41.8986370" lon="-2.8778150">
        <ele>1450.6</ele>
        <time>2022-02-08T10:14:20Z</time>
      </trkpt>
      <trkpt lat="41.8986470" lon="-2.8778500">
        <ele>1450.8</ele>
        <time>2022-02-08T10:14:21Z</time>
      </trkpt>
      <trkpt lat="41.8986580" lon="-2.8778830">
        <ele>1451.1</ele>
        <time>2022-02-08T10:14:22Z</time>
      </trkpt>
      <trkpt lat="41.8986870" lon="-2.8778980">
        <ele>1451.4</ele>
        <time>2022-02-08T10:14:23Z</time>
      </trkpt>
      <trkpt lat="41.8987200" lon="-2.8779100">
        <ele>1451.8</ele>
        <time>2022-02-08T10:14:24Z</time>
      </trkpt>
      <trkpt lat="41.8987570" lon="-2.8779130">
        <ele>1452.1</ele>
        <time>2022-02-08T10:14:25Z</time>
      </trkpt>
      <trkpt lat="41.8987880" lon="-2.8779120">
        <ele>1452.4</ele>
        <time>2022-02-08T10:14:26Z</time>
      </trkpt>
      <trkpt lat="41.8988150" lon="-2.8779070">
        <ele>1452.7</ele>
        <time>2022-02-08T10:14:27Z</time>
      </trkpt>
      <trkpt lat="41.8988480" lon="-2.8779050">
        <ele>1453.0</ele>
        <time>2022-02-08T10:14:28Z</time>
      </trkpt>
      <trkpt lat="41.8988830" lon="-2.8779000">
        <ele>1453.3</ele>
        <time>2022-02-08T10:14:29Z</time>
      </trkpt>
      <trkpt lat="41.8989180" lon="-2.8778950">
        <ele>1453.7</ele>
        <time>2022-02-08T10:14:30Z</time>
      </trkpt>
      <trkpt lat="41.8989570" lon="-2.8778900">
        <ele>1454.0</ele>
        <time>2022-02-08T10:14:31Z</time>
      </trkpt>
      <trkpt lat="41.8989920" lon="-2.8778880">
        <ele>1454.4</ele>
        <time>2022-02-08T10:14:32Z</time>
      </trkpt>
      <trkpt lat="41.8990300" lon="-2.8778930">
        <ele>1454.7</ele>
        <time>2022-02-08T10:14:33Z</time>
      </trkpt>
      <trkpt lat="41.8990650" lon="-2.8778950">
        <ele>1455.1</ele>
        <time>2022-02-08T10:14:34Z</time>
      </trkpt>
      <trkpt lat="41.8990970" lon="-2.8778950">
        <ele>1455.4</ele>
        <time>2022-02-08T10:14:35Z</time>
      </trkpt>
      <trkpt lat="41.8991270" lon="-2.8778970">
        <ele>1455.7</ele>
        <time>2022-02-08T10:14:36Z</time>
      </trkpt>
      <trkpt lat="41.8991580" lon="-2.8779000">
        <ele>1456.0</ele>
        <time>2022-02-08T10:14:37Z</time>
      </trkpt>
      <trkpt lat="41.8991930" lon="-2.8778980">
        <ele>1456.4</ele>
        <time>2022-02-08T10:14:38Z</time>
      </trkpt>
      <trkpt lat="41.8992300" lon="-2.8778970">
        <ele>1456.8</ele>
        <time>2022-02-08T10:14:39Z</time>
      </trkpt>
      <trkpt lat="41.8992670" lon="-2.8778980">
        <ele>1457.3</ele>
        <time>2022-02-08T10:14:40Z</time>
      </trkpt>
      <trkpt lat="41.8993020" lon="-2.8779070">
        <ele>1457.7</ele>
        <time>2022-02-08T10:14:41Z</time>
      </trkpt>
      <trkpt lat="41.8993320" lon="-2.8779180">
        <ele>1458.1</ele>
        <time>2022-02-08T10:14:42Z</time>
      </trkpt>
      <trkpt lat="41.8993650" lon="-2.8779330">
        <ele>1458.5</ele>
        <time>2022-02-08T10:14:43Z</time>
      </trkpt>
      <trkpt lat="41.8993900" lon="-2.8779480">
        <ele>1458.8</ele>
        <time>2022-02-08T10:14:44Z</time>
      </trkpt>
      <trkpt lat="41.8994120" lon="-2.8779670">
        <ele>1458.9</ele>
        <time>2022-02-08T10:14:45Z</time>
      </trkpt>
      <trkpt lat="41.8994300" lon="-2.8779850">
        <ele>1458.9</ele>
        <time>2022-02-08T10:14:46Z</time>
      </trkpt>
      <trkpt lat="41.8994500" lon="-2.8779980">
        <ele>1459.0</ele>
        <time>2022-02-08T10:14:47Z</time>
      </trkpt>
      <trkpt lat="41.8994700" lon="-2.8780170">
        <ele>1459.0</ele>
        <time>2022-02-08T10:14:48Z</time>
      </trkpt>
      <trkpt lat="41.8994920" lon="-2.8780320">
        <ele>1459.1</ele>
        <time>2022-02-08T10:14:49Z</time>
      </trkpt>
      <trkpt lat="41.8995080" lon="-2.8780480">
        <ele>1459.1</ele>
        <time>2022-02-08T10:14:50Z</time>
      </trkpt>
      <trkpt lat="41.8995280" lon="-2.8780650">
        <ele>1459.2</ele>
        <time>2022-02-08T10:14:51Z</time>
      </trkpt>
      <trkpt lat="41.8995430" lon="-2.8780830">
        <ele>1459.2</ele>
        <time>2022-02-08T10:14:52Z</time>
      </trkpt>
      <trkpt lat="41.8995520" lon="-2.8780980">
        <ele>1459.3</ele>
        <time>2022-02-08T10:14:53Z</time>
      </trkpt>
      <trkpt lat="41.8995650" lon="-2.8781220">
        <ele>1459.3</ele>
        <time>2022-02-08T10:14:54Z</time>
      </trkpt>
      <trkpt lat="41.8995720" lon="-2.8781500">
        <ele>1459.4</ele>
        <time>2022-02-08T10:14:55Z</time>
      </trkpt>
      <trkpt lat="41.8995880" lon="-2.8781680">
        <ele>1459.5</ele>
        <time>2022-02-08T10:14:56Z</time>
      </trkpt>
      <trkpt lat="41.8996170" lon="-2.8781870">
        <ele>1459.5</ele>
        <time>2022-02-08T10:14:57Z</time>
      </trkpt>
      <trkpt lat="41.8996520" lon="-2.8782070">
        <ele>1459.7</ele>
        <time>2022-02-08T10:14:58Z</time>
      </trkpt>
      <trkpt lat="41.8996870" lon="-2.8782220">
        <ele>1459.8</ele>
        <time>2022-02-08T10:14:59Z</time>
      </trkpt>
      <trkpt lat="41.8997130" lon="-2.8782330">
        <ele>1459.8</ele>
        <time>2022-02-08T10:15:00Z</time>
      </trkpt>
      <trkpt lat="41.8997350" lon="-2.8782430">
        <ele>1459.9</ele>
        <time>2022-02-08T10:15:01Z</time>
      </trkpt>
      <trkpt lat="41.8997580" lon="-2.8782530">
        <ele>1459.9</ele>
        <time>2022-02-08T10:15:02Z</time>
      </trkpt>
      <trkpt lat="41.8997830" lon="-2.8782620">
        <ele>1460.0</ele>
        <time>2022-02-08T10:15:03Z</time>
      </trkpt>
      <trkpt lat="41.8998100" lon="-2.8782720">
        <ele>1460.1</ele>
        <time>2022-02-08T10:15:04Z</time>
      </trkpt>
      <trkpt lat="41.8998400" lon="-2.8782780">
        <ele>1460.2</ele>
        <time>2022-02-08T10:15:05Z</time>
      </trkpt>
      <trkpt lat="41.8998670" lon="-2.8782880">
        <ele>1460.2</ele>
        <time>2022-02-08T10:15:06Z</time>
      </trkpt>
      <trkpt lat="41.8998930" lon="-2.8782980">
        <ele>1460.3</ele>
        <time>2022-02-08T10:15:07Z</time>
      </trkpt>
      <trkpt lat="41.8999130" lon="-2.8783100">
        <ele>1460.4</ele>
        <time>2022-02-08T10:15:08Z</time>
      </trkpt>
      <trkpt lat="41.8999370" lon="-2.8783230">
        <ele>1460.5</ele>
        <time>2022-02-08T10:15:09Z</time>
      </trkpt>
      <trkpt lat="41.8999600" lon="-2.8783400">
        <ele>1460.6</ele>
        <time>2022-02-08T10:15:10Z</time>
      </trkpt>
      <trkpt lat="41.8999800" lon="-2.8783580">
        <ele>1460.7</ele>
        <time>2022-02-08T10:15:11Z</time>
      </trkpt>
      <trkpt lat="41.9000020" lon="-2.8783730">
        <ele>1460.8</ele>
        <time>2022-02-08T10:15:12Z</time>
      </trkpt>
      <trkpt lat="41.9000230" lon="-2.8783850">
        <ele>1460.9</ele>
        <time>2022-02-08T10:15:13Z</time>
      </trkpt>
      <trkpt lat="41.9000400" lon="-2.8783950">
        <ele>1460.9</ele>
        <time>2022-02-08T10:15:14Z</time>
      </trkpt>
      <trkpt lat="41.9000570" lon="-2.8784030">
        <ele>1461.0</ele>
        <time>2022-02-08T10:15:15Z</time>
      </trkpt>
      <trkpt lat="41.9000830" lon="-2.8784100">
        <ele>1461.1</ele>
        <time>2022-02-08T10:15:16Z</time>
      </trkpt>
      <trkpt lat="41.9001100" lon="-2.8784170">
        <ele>1461.3</ele>
        <time>2022-02-08T10:15:17Z</time>
      </trkpt>
      <trkpt lat="41.9001400" lon="-2.8784230">
        <ele>1461.5</ele>
        <time>2022-02-08T10:15:18Z</time>
      </trkpt>
      <trkpt lat="41.9001630" lon="-2.8784250">
        <ele>1461.6</ele>
        <time>2022-02-08T10:15:19Z</time>
      </trkpt>
      <trkpt lat="41.9001850" lon="-2.8784300">
        <ele>1461.7</ele>
        <time>2022-02-08T10:15:20Z</time>
      </trkpt>
      <trkpt lat="41.9002080" lon="-2.8784350">
        <ele>1461.9</ele>
        <time>2022-02-08T10:15:21Z</time>
      </trkpt>
      <trkpt lat="41.9002300" lon="-2.8784380">
        <ele>1462.1</ele>
        <time>2022-02-08T10:15:22Z</time>
      </trkpt>
      <trkpt lat="41.9002470" lon="-2.8784450">
        <ele>1462.2</ele>
        <time>2022-02-08T10:15:23Z</time>
      </trkpt>
      <trkpt lat="41.9002670" lon="-2.8784520">
        <ele>1462.4</ele>
        <time>2022-02-08T10:15:24Z</time>
      </trkpt>
      <trkpt lat="41.9002800" lon="-2.8784620">
        <ele>1462.5</ele>
        <time>2022-02-08T10:15:25Z</time>
      </trkpt>
      <trkpt lat="41.9002950" lon="-2.8784720">
        <ele>1462.6</ele>
        <time>2022-02-08T10:15:26Z</time>
      </trkpt>
      <trkpt lat="41.9003130" lon="-2.8784800">
        <ele>1462.8</ele>
        <time>2022-02-08T10:15:27Z</time>
      </trkpt>
      <trkpt lat="41.9003250" lon="-2.8784820">
        <ele>1462.9</ele>
        <time>2022-02-08T10:15:28Z</time>
      </trkpt>
      <trkpt lat="41.9003400" lon="-2.8784830">
        <ele>1463.1</ele>
        <time>2022-02-08T10:15:29Z</time>
      </trkpt>
      <trkpt lat="41.9003620" lon="-2.8784850">
        <ele>1463.3</ele>
        <time>2022-02-08T10:15:30Z</time>
      </trkpt>
      <trkpt lat="41.9004030" lon="-2.8785000">
        <ele>1463.7</ele>
        <time>2022-02-08T10:15:31Z</time>
      </trkpt>
      <trkpt lat="41.9004330" lon="-2.8785100">
        <ele>1464.1</ele>
        <time>2022-02-08T10:15:32Z</time>
      </trkpt>
      <trkpt lat="41.9004570" lon="-2.8785080">
        <ele>1464.3</ele>
        <time>2022-02-08T10:15:33Z</time>
      </trkpt>
      <trkpt lat="41.9004800" lon="-2.8785020">
        <ele>1464.6</ele>
        <time>2022-02-08T10:15:34Z</time>
      </trkpt>
      <trkpt lat="41.9004980" lon="-2.8784920">
        <ele>1464.9</ele>
        <time>2022-02-08T10:15:35Z</time>
      </trkpt>
      <trkpt lat="41.9005180" lon="-2.8784830">
        <ele>1465.1</ele>
        <time>2022-02-08T10:15:36Z</time>
      </trkpt>
      <trkpt lat="41.9005420" lon="-2.8784800">
        <ele>1465.4</ele>
        <time>2022-02-08T10:15:37Z</time>
      </trkpt>
      <trkpt lat="41.9005670" lon="-2.8784770">
        <ele>1465.8</ele>
        <time>2022-02-08T10:15:38Z</time>
      </trkpt>
      <trkpt lat="41.9005850" lon="-2.8784700">
        <ele>1466.0</ele>
        <time>2022-02-08T10:15:39Z</time>
      </trkpt>
      <trkpt lat="41.9006050" lon="-2.8784650">
        <ele>1466.3</ele>
        <time>2022-02-08T10:15:40Z</time>
      </trkpt>
      <trkpt lat="41.9006320" lon="-2.8784670">
        <ele>1466.6</ele>
        <time>2022-02-08T10:15:41Z</time>
      </trkpt>
      <trkpt lat="41.9006480" lon="-2.8784670">
        <ele>1466.8</ele>
        <time>2022-02-08T10:15:42Z</time>
      </trkpt>
      <trkpt lat="41.9006630" lon="-2.8784650">
        <ele>1467.0</ele>
        <time>2022-02-08T10:15:43Z</time>
      </trkpt>
      <trkpt lat="41.9006780" lon="-2.8784600">
        <ele>1467.2</ele>
        <time>2022-02-08T10:15:44Z</time>
      </trkpt>
      <trkpt lat="41.9006970" lon="-2.8784550">
        <ele>1467.4</ele>
        <time>2022-02-08T10:15:45Z</time>
      </trkpt>
      <trkpt lat="41.9007180" lon="-2.8784530">
        <ele>1467.7</ele>
        <time>2022-02-08T10:15:46Z</time>
      </trkpt>
      <trkpt lat="41.9007320" lon="-2.8784530">
        <ele>1467.9</ele>
        <time>2022-02-08T10:15:47Z</time>
      </trkpt>
      <trkpt lat="41.9007450" lon="-2.8784550">
        <ele>1468.0</ele>
        <time>2022-02-08T10:15:48Z</time>
      </trkpt>
      <trkpt lat="41.9007620" lon="-2.8784550">
        <ele>1468.2</ele>
        <time>2022-02-08T10:15:49Z</time>
      </trkpt>
      <trkpt lat="41.9007770" lon="-2.8784570">
        <ele>1468.4</ele>
        <time>2022-02-08T10:15:50Z</time>
      </trkpt>
      <trkpt lat="41.9007920" lon="-2.8784570">
        <ele>1468.5</ele>
        <time>2022-02-08T10:15:51Z</time>
      </trkpt>
      <trkpt lat="41.9008030" lon="-2.8784600">
        <ele>1468.6</ele>
        <time>2022-02-08T10:15:52Z</time>
      </trkpt>
      <trkpt lat="41.9008170" lon="-2.8784600">
        <ele>1468.8</ele>
        <time>2022-02-08T10:15:53Z</time>
      </trkpt>
      <trkpt lat="41.9008320" lon="-2.8784550">
        <ele>1468.9</ele>
        <time>2022-02-08T10:15:54Z</time>
      </trkpt>
      <trkpt lat="41.9008480" lon="-2.8784470">
        <ele>1469.1</ele>
        <time>2022-02-08T10:15:55Z</time>
      </trkpt>
      <trkpt lat="41.9008620" lon="-2.8784380">
        <ele>1469.3</ele>
        <time>2022-02-08T10:15:56Z</time>
      </trkpt>
      <trkpt lat="41.9008750" lon="-2.8784350">
        <ele>1469.4</ele>
        <time>2022-02-08T10:15:57Z</time>
      </trkpt>
      <trkpt lat="41.9008900" lon="-2.8784300">
        <ele>1469.5</ele>
        <time>2022-02-08T10:15:58Z</time>
      </trkpt>
      <trkpt lat="41.9009050" lon="-2.8784200">
        <ele>1469.7</ele>
        <time>2022-02-08T10:15:59Z</time>
      </trkpt>
      <trkpt lat="41.9009230" lon="-2.8783930">
        <ele>1469.9</ele>
        <time>2022-02-08T10:16:00Z</time>
      </trkpt>
      <trkpt lat="41.9009450" lon="-2.8783720">
        <ele>1470.1</ele>
        <time>2022-02-08T10:16:01Z</time>
      </trkpt>
      <trkpt lat="41.9009680" lon="-2.8783530">
        <ele>1470.3</ele>
        <time>2022-02-08T10:16:02Z</time>
      </trkpt>
      <trkpt lat="41.9009880" lon="-2.8783350">
        <ele>1470.4</ele>
        <time>2022-02-08T10:16:03Z</time>
      </trkpt>
      <trkpt lat="41.9010080" lon="-2.8783150">
        <ele>1470.6</ele>
        <time>2022-02-08T10:16:04Z</time>
      </trkpt>
      <trkpt lat="41.9010220" lon="-2.8782930">
        <ele>1470.7</ele>
        <time>2022-02-08T10:16:05Z</time>
      </trkpt>
      <trkpt lat="41.9010280" lon="-2.8782730">
        <ele>1470.8</ele>
        <time>2022-02-08T10:16:06Z</time>
      </trkpt>
      <trkpt lat="41.9010430" lon="-2.8782550">
        <ele>1470.9</ele>
        <time>2022-02-08T10:16:07Z</time>
      </trkpt>
      <trkpt lat="41.9010570" lon="-2.8782400">
        <ele>1471.0</ele>
        <time>2022-02-08T10:16:08Z</time>
      </trkpt>
      <trkpt lat="41.9010670" lon="-2.8782220">
        <ele>1471.1</ele>
        <time>2022-02-08T10:16:09Z</time>
      </trkpt>
      <trkpt lat="41.9010770" lon="-2.8782020">
        <ele>1471.1</ele>
        <time>2022-02-08T10:16:10Z</time>
      </trkpt>
      <trkpt lat="41.9010850" lon="-2.8781830">
        <ele>1471.1</ele>
        <time>2022-02-08T10:16:11Z</time>
      </trkpt>
      <trkpt lat="41.9010950" lon="-2.8781630">
        <ele>1471.2</ele>
        <time>2022-02-08T10:16:12Z</time>
      </trkpt>
      <trkpt lat="41.9011050" lon="-2.8781450">
        <ele>1471.2</ele>
        <time>2022-02-08T10:16:13Z</time>
      </trkpt>
      <trkpt lat="41.9011150" lon="-2.8781200">
        <ele>1471.2</ele>
        <time>2022-02-08T10:16:14Z</time>
      </trkpt>
      <trkpt lat="41.9011270" lon="-2.8780970">
        <ele>1471.2</ele>
        <time>2022-02-08T10:16:15Z</time>
      </trkpt>
      <trkpt lat="41.9011380" lon="-2.8780720">
        <ele>1471.1</ele>
        <time>2022-02-08T10:16:16Z</time>
      </trkpt>
      <trkpt lat="41.9011520" lon="-2.8780470">
        <ele>1471.1</ele>
        <time>2022-02-08T10:16:17Z</time>
      </trkpt>
      <trkpt lat="41.9011650" lon="-2.8780170">
        <ele>1471.0</ele>
        <time>2022-02-08T10:16:18Z</time>
      </trkpt>
      <trkpt lat="41.9011800" lon="-2.8779850">
        <ele>1470.9</ele>
        <time>2022-02-08T10:16:19Z</time>
      </trkpt>
      <trkpt lat="41.9011900" lon="-2.8779580">
        <ele>1470.8</ele>
        <time>2022-02-08T10:16:20Z</time>
      </trkpt>
      <trkpt lat="41.9012030" lon="-2.8779150">
        <ele>1470.7</ele>
        <time>2022-02-08T10:16:21Z</time>
      </trkpt>
      <trkpt lat="41.9012100" lon="-2.8778820">
        <ele>1470.5</ele>
        <time>2022-02-08T10:16:22Z</time>
      </trkpt>
      <trkpt lat="41.9012180" lon="-2.8778520">
        <ele>1470.4</ele>
        <time>2022-02-08T10:16:23Z</time>
      </trkpt>
      <trkpt lat="41.9012270" lon="-2.8778230">
        <ele>1470.3</ele>
        <time>2022-02-08T10:16:24Z</time>
      </trkpt>
      <trkpt lat="41.9012380" lon="-2.8777930">
        <ele>1470.3</ele>
        <time>2022-02-08T10:16:25Z</time>
      </trkpt>
      <trkpt lat="41.9012550" lon="-2.8777630">
        <ele>1470.2</ele>
        <time>2022-02-08T10:16:26Z</time>
      </trkpt>
      <trkpt lat="41.9012680" lon="-2.8777320">
        <ele>1470.3</ele>
        <time>2022-02-08T10:16:27Z</time>
      </trkpt>
      <trkpt lat="41.9012830" lon="-2.8777080">
        <ele>1470.4</ele>
        <time>2022-02-08T10:16:28Z</time>
      </trkpt>
      <trkpt lat="41.9012970" lon="-2.8776950">
        <ele>1470.5</ele>
        <time>2022-02-08T10:16:29Z</time>
      </trkpt>
      <trkpt lat="41.9013070" lon="-2.8776930">
        <ele>1470.5</ele>
        <time>2022-02-08T10:16:30Z</time>
      </trkpt>
      <trkpt lat="41.9013130" lon="-2.8777030">
        <ele>1470.6</ele>
        <time>2022-02-08T10:16:31Z</time>
      </trkpt>
      <trkpt lat="41.9013220" lon="-2.8777200">
        <ele>1470.7</ele>
        <time>2022-02-08T10:16:32Z</time>
      </trkpt>
      <trkpt lat="41.9013280" lon="-2.8777450">
        <ele>1471.0</ele>
        <time>2022-02-08T10:16:33Z</time>
      </trkpt>
      <trkpt lat="41.9013270" lon="-2.8777670">
        <ele>1471.1</ele>
        <time>2022-02-08T10:16:34Z</time>
      </trkpt>
      <trkpt lat="41.9013250" lon="-2.8777930">
        <ele>1471.4</ele>
        <time>2022-02-08T10:16:35Z</time>
      </trkpt>
      <trkpt lat="41.9013320" lon="-2.8778170">
        <ele>1471.6</ele>
        <time>2022-02-08T10:16:36Z</time>
      </trkpt>
      <trkpt lat="41.9013370" lon="-2.8778380">
        <ele>1471.8</ele>
        <time>2022-02-08T10:16:37Z</time>
      </trkpt>
      <trkpt lat="41.9013400" lon="-2.8778620">
        <ele>1472.0</ele>
        <time>2022-02-08T10:16:38Z</time>
      </trkpt>
      <trkpt lat="41.9013430" lon="-2.8778820">
        <ele>1472.2</ele>
        <time>2022-02-08T10:16:39Z</time>
      </trkpt>
      <trkpt lat="41.9013550" lon="-2.8779050">
        <ele>1472.5</ele>
        <time>2022-02-08T10:16:40Z</time>
      </trkpt>
      <trkpt lat="41.9013630" lon="-2.8779280">
        <ele>1472.7</ele>
        <time>2022-02-08T10:16:41Z</time>
      </trkpt>
      <trkpt lat="41.9013730" lon="-2.8779470">
        <ele>1472.9</ele>
        <time>2022-02-08T10:16:42Z</time>
      </trkpt>
      <trkpt lat="41.9013830" lon="-2.8779670">
        <ele>1473.1</ele>
        <time>2022-02-08T10:16:43Z</time>
      </trkpt>
      <trkpt lat="41.9013870" lon="-2.8779900">
        <ele>1473.3</ele>
        <time>2022-02-08T10:16:44Z</time>
      </trkpt>
      <trkpt lat="41.9013900" lon="-2.8780130">
        <ele>1473.5</ele>
        <time>2022-02-08T10:16:45Z</time>
      </trkpt>
      <trkpt lat="41.9013920" lon="-2.8780400">
        <ele>1473.7</ele>
        <time>2022-02-08T10:16:46Z</time>
      </trkpt>
      <trkpt lat="41.9013970" lon="-2.8780670">
        <ele>1474.0</ele>
        <time>2022-02-08T10:16:47Z</time>
      </trkpt>
      <trkpt lat="41.9013980" lon="-2.8780950">
        <ele>1474.2</ele>
        <time>2022-02-08T10:16:48Z</time>
      </trkpt>
      <trkpt lat="41.9014080" lon="-2.8781120">
        <ele>1474.4</ele>
        <time>2022-02-08T10:16:49Z</time>
      </trkpt>
      <trkpt lat="41.9014180" lon="-2.8781270">
        <ele>1474.6</ele>
        <time>2022-02-08T10:16:50Z</time>
      </trkpt>
      <trkpt lat="41.9014330" lon="-2.8781420">
        <ele>1474.8</ele>
        <time>2022-02-08T10:16:51Z</time>
      </trkpt>
      <trkpt lat="41.9014370" lon="-2.8781580">
        <ele>1475.0</ele>
        <time>2022-02-08T10:16:52Z</time>
      </trkpt>
      <trkpt lat="41.9014400" lon="-2.8781770">
        <ele>1475.1</ele>
        <time>2022-02-08T10:16:53Z</time>
      </trkpt>
      <trkpt lat="41.9014470" lon="-2.8781880">
        <ele>1475.3</ele>
        <time>2022-02-08T10:16:54Z</time>
      </trkpt>
      <trkpt lat="41.9014530" lon="-2.8782020">
        <ele>1475.4</ele>
        <time>2022-02-08T10:16:55Z</time>
      </trkpt>
      <trkpt lat="41.9014580" lon="-2.8782220">
        <ele>1475.6</ele>
        <time>2022-02-08T10:16:56Z</time>
      </trkpt>
      <trkpt lat="41.9014650" lon="-2.8782380">
        <ele>1475.7</ele>
        <time>2022-02-08T10:16:57Z</time>
      </trkpt>
      <trkpt lat="41.9014770" lon="-2.8782570">
        <ele>1475.9</ele>
        <time>2022-02-08T10:16:58Z</time>
      </trkpt>
      <trkpt lat="41.9014950" lon="-2.8782720">
        <ele>1476.1</ele>
        <time>2022-02-08T10:16:59Z</time>
      </trkpt>
      <trkpt lat="41.9015080" lon="-2.8782900">
        <ele>1476.3</ele>
        <time>2022-02-08T10:17:00Z</time>
      </trkpt>
      <trkpt lat="41.9015230" lon="-2.8783100">
        <ele>1476.4</ele>
        <time>2022-02-08T10:17:01Z</time>
      </trkpt>
      <trkpt lat="41.9015330" lon="-2.8783250">
        <ele>1476.5</ele>
        <time>2022-02-08T10:17:02Z</time>
      </trkpt>
      <trkpt lat="41.9015430" lon="-2.8783420">
        <ele>1476.7</ele>
        <time>2022-02-08T10:17:03Z</time>
      </trkpt>
      <trkpt lat="41.9015520" lon="-2.8783570">
        <ele>1476.8</ele>
        <time>2022-02-08T10:17:04Z</time>
      </trkpt>
      <trkpt lat="41.9015630" lon="-2.8783720">
        <ele>1476.8</ele>
        <time>2022-02-08T10:17:05Z</time>
      </trkpt>
      <trkpt lat="41.9015730" lon="-2.8783900">
        <ele>1477.0</ele>
        <time>2022-02-08T10:17:06Z</time>
      </trkpt>
      <trkpt lat="41.9015830" lon="-2.8784070">
        <ele>1477.0</ele>
        <time>2022-02-08T10:17:07Z</time>
      </trkpt>
      <trkpt lat="41.9015920" lon="-2.8784230">
        <ele>1477.1</ele>
        <time>2022-02-08T10:17:08Z</time>
      </trkpt>
      <trkpt lat="41.9016020" lon="-2.8784430">
        <ele>1477.2</ele>
        <time>2022-02-08T10:17:09Z</time>
      </trkpt>
      <trkpt lat="41.9016050" lon="-2.8784680">
        <ele>1477.3</ele>
        <time>2022-02-08T10:17:10Z</time>
      </trkpt>
      <trkpt lat="41.9016100" lon="-2.8784950">
        <ele>1477.4</ele>
        <time>2022-02-08T10:17:11Z</time>
      </trkpt>
      <trkpt lat="41.9016200" lon="-2.8785230">
        <ele>1477.5</ele>
        <time>2022-02-08T10:17:12Z</time>
      </trkpt>
      <trkpt lat="41.9016250" lon="-2.8785480">
        <ele>1477.5</ele>
        <time>2022-02-08T10:17:13Z</time>
      </trkpt>
      <trkpt lat="41.9016300" lon="-2.8785730">
        <ele>1477.6</ele>
        <time>2022-02-08T10:17:14Z</time>
      </trkpt>
      <trkpt lat="41.9016350" lon="-2.8785970">
        <ele>1477.7</ele>
        <time>2022-02-08T10:17:15Z</time>
      </trkpt>
      <trkpt lat="41.9016370" lon="-2.8786200">
        <ele>1477.7</ele>
        <time>2022-02-08T10:17:16Z</time>
      </trkpt>
      <trkpt lat="41.9016350" lon="-2.8786480">
        <ele>1477.8</ele>
        <time>2022-02-08T10:17:17Z</time>
      </trkpt>
      <trkpt lat="41.9016350" lon="-2.8786770">
        <ele>1477.9</ele>
        <time>2022-02-08T10:17:18Z</time>
      </trkpt>
      <trkpt lat="41.9016350" lon="-2.8787080">
        <ele>1478.0</ele>
        <time>2022-02-08T10:17:19Z</time>
      </trkpt>
      <trkpt lat="41.9016380" lon="-2.8787370">
        <ele>1478.1</ele>
        <time>2022-02-08T10:17:20Z</time>
      </trkpt>
      <trkpt lat="41.9016430" lon="-2.8787630">
        <ele>1478.1</ele>
        <time>2022-02-08T10:17:21Z</time>
      </trkpt>
      <trkpt lat="41.9016520" lon="-2.8787880">
        <ele>1478.2</ele>
        <time>2022-02-08T10:17:22Z</time>
      </trkpt>
      <trkpt lat="41.9016600" lon="-2.8788150">
        <ele>1478.3</ele>
        <time>2022-02-08T10:17:23Z</time>
      </trkpt>
      <trkpt lat="41.9016750" lon="-2.8788400">
        <ele>1478.4</ele>
        <time>2022-02-08T10:17:24Z</time>
      </trkpt>
      <trkpt lat="41.9016980" lon="-2.8788720">
        <ele>1478.6</ele>
        <time>2022-02-08T10:17:25Z</time>
      </trkpt>
      <trkpt lat="41.9017080" lon="-2.8789070">
        <ele>1478.7</ele>
        <time>2022-02-08T10:17:26Z</time>
      </trkpt>
      <trkpt lat="41.9017220" lon="-2.8789400">
        <ele>1478.8</ele>
        <time>2022-02-08T10:17:27Z</time>
      </trkpt>
      <trkpt lat="41.9017370" lon="-2.8789650">
        <ele>1479.0</ele>
        <time>2022-02-08T10:17:28Z</time>
      </trkpt>
      <trkpt lat="41.9017470" lon="-2.8789920">
        <ele>1479.1</ele>
        <time>2022-02-08T10:17:29Z</time>
      </trkpt>
      <trkpt lat="41.9017570" lon="-2.8790180">
        <ele>1479.2</ele>
        <time>2022-02-08T10:17:30Z</time>
      </trkpt>
      <trkpt lat="41.9017680" lon="-2.8790420">
        <ele>1479.3</ele>
        <time>2022-02-08T10:17:31Z</time>
      </trkpt>
      <trkpt lat="41.9017780" lon="-2.8790650">
        <ele>1479.4</ele>
        <time>2022-02-08T10:17:32Z</time>
      </trkpt>
      <trkpt lat="41.9017870" lon="-2.8790900">
        <ele>1479.5</ele>
        <time>2022-02-08T10:17:33Z</time>
      </trkpt>
      <trkpt lat="41.9017970" lon="-2.8791170">
        <ele>1479.7</ele>
        <time>2022-02-08T10:17:34Z</time>
      </trkpt>
      <trkpt lat="41.9018050" lon="-2.8791400">
        <ele>1479.8</ele>
        <time>2022-02-08T10:17:35Z</time>
      </trkpt>
      <trkpt lat="41.9018100" lon="-2.8791620">
        <ele>1479.9</ele>
        <time>2022-02-08T10:17:36Z</time>
      </trkpt>
      <trkpt lat="41.9018120" lon="-2.8791830">
        <ele>1480.0</ele>
        <time>2022-02-08T10:17:37Z</time>
      </trkpt>
      <trkpt lat="41.9018150" lon="-2.8792030">
        <ele>1480.1</ele>
        <time>2022-02-08T10:17:38Z</time>
      </trkpt>
      <trkpt lat="41.9018200" lon="-2.8792270">
        <ele>1480.3</ele>
        <time>2022-02-08T10:17:39Z</time>
      </trkpt>
      <trkpt lat="41.9018230" lon="-2.8792480">
        <ele>1480.4</ele>
        <time>2022-02-08T10:17:40Z</time>
      </trkpt>
      <trkpt lat="41.9018250" lon="-2.8792720">
        <ele>1480.6</ele>
        <time>2022-02-08T10:17:41Z</time>
      </trkpt>
      <trkpt lat="41.9018270" lon="-2.8792920">
        <ele>1480.7</ele>
        <time>2022-02-08T10:17:42Z</time>
      </trkpt>
      <trkpt lat="41.9018270" lon="-2.8793120">
        <ele>1480.8</ele>
        <time>2022-02-08T10:17:43Z</time>
      </trkpt>
      <trkpt lat="41.9018280" lon="-2.8793330">
        <ele>1481.0</ele>
        <time>2022-02-08T10:17:44Z</time>
      </trkpt>
      <trkpt lat="41.9018330" lon="-2.8793530">
        <ele>1481.1</ele>
        <time>2022-02-08T10:17:45Z</time>
      </trkpt>
      <trkpt lat="41.9018370" lon="-2.8793730">
        <ele>1481.2</ele>
        <time>2022-02-08T10:17:46Z</time>
      </trkpt>
      <trkpt lat="41.9018350" lon="-2.8793970">
        <ele>1481.4</ele>
        <time>2022-02-08T10:17:47Z</time>
      </trkpt>
      <trkpt lat="41.9018370" lon="-2.8794200">
        <ele>1481.5</ele>
        <time>2022-02-08T10:17:48Z</time>
      </trkpt>
      <trkpt lat="41.9018370" lon="-2.8794420">
        <ele>1481.7</ele>
        <time>2022-02-08T10:17:49Z</time>
      </trkpt>
      <trkpt lat="41.9018380" lon="-2.8794670">
        <ele>1481.9</ele>
        <time>2022-02-08T10:17:50Z</time>
      </trkpt>
      <trkpt lat="41.9018380" lon="-2.8794930">
        <ele>1482.0</ele>
        <time>2022-02-08T10:17:51Z</time>
      </trkpt>
      <trkpt lat="41.9018450" lon="-2.8795170">
        <ele>1482.2</ele>
        <time>2022-02-08T10:17:52Z</time>
      </trkpt>
      <trkpt lat="41.9018570" lon="-2.8795380">
        <ele>1482.3</ele>
        <time>2022-02-08T10:17:53Z</time>
      </trkpt>
      <trkpt lat="41.9018730" lon="-2.8795520">
        <ele>1482.4</ele>
        <time>2022-02-08T10:17:54Z</time>
      </trkpt>
      <trkpt lat="41.9018930" lon="-2.8795550">
        <ele>1482.5</ele>
        <time>2022-02-08T10:17:55Z</time>
      </trkpt>
      <trkpt lat="41.9019100" lon="-2.8795480">
        <ele>1483.8</ele>
        <time>2022-02-08T10:17:56Z</time>
      </trkpt>
      <trkpt lat="41.9019300" lon="-2.8795470">
        <ele>1483.8</ele>
        <time>2022-02-08T10:17:57Z</time>
      </trkpt>
      <trkpt lat="41.9019370" lon="-2.8795470">
        <ele>1483.9</ele>
        <time>2022-02-08T10:17:58Z</time>
      </trkpt>
      <trkpt lat="41.9019500" lon="-2.8795400">
        <ele>1484.0</ele>
        <time>2022-02-08T10:17:59Z</time>
      </trkpt>
      <trkpt lat="41.9019650" lon="-2.8795300">
        <ele>1484.0</ele>
        <time>2022-02-08T10:18:00Z</time>
      </trkpt>
      <trkpt lat="41.9019820" lon="-2.8795200">
        <ele>1484.1</ele>
        <time>2022-02-08T10:18:01Z</time>
      </trkpt>
      <trkpt lat="41.9020000" lon="-2.8795130">
        <ele>1484.1</ele>
        <time>2022-02-08T10:18:02Z</time>
      </trkpt>
      <trkpt lat="41.9020130" lon="-2.8795080">
        <ele>1484.2</ele>
        <time>2022-02-08T10:18:03Z</time>
      </trkpt>
      <trkpt lat="41.9020280" lon="-2.8795020">
        <ele>1484.5</ele>
        <time>2022-02-08T10:18:04Z</time>
      </trkpt>
      <trkpt lat="41.9020380" lon="-2.8794950">
        <ele>1484.6</ele>
        <time>2022-02-08T10:18:05Z</time>
      </trkpt>
      <trkpt lat="41.9020520" lon="-2.8794850">
        <ele>1484.6</ele>
        <time>2022-02-08T10:18:06Z</time>
      </trkpt>
      <trkpt lat="41.9020670" lon="-2.8794750">
        <ele>1484.7</ele>
        <time>2022-02-08T10:18:07Z</time>
      </trkpt>
      <trkpt lat="41.9020830" lon="-2.8794630">
        <ele>1484.8</ele>
        <time>2022-02-08T10:18:08Z</time>
      </trkpt>
      <trkpt lat="41.9021000" lon="-2.8794500">
        <ele>1484.8</ele>
        <time>2022-02-08T10:18:09Z</time>
      </trkpt>
      <trkpt lat="41.9021170" lon="-2.8794420">
        <ele>1483.7</ele>
        <time>2022-02-08T10:18:10Z</time>
      </trkpt>
      <trkpt lat="41.9021330" lon="-2.8794380">
        <ele>1483.8</ele>
        <time>2022-02-08T10:18:11Z</time>
      </trkpt>
      <trkpt lat="41.9021500" lon="-2.8794330">
        <ele>1483.8</ele>
        <time>2022-02-08T10:18:12Z</time>
      </trkpt>
      <trkpt lat="41.9021680" lon="-2.8794300">
        <ele>1483.8</ele>
        <time>2022-02-08T10:18:13Z</time>
      </trkpt>
      <trkpt lat="41.9021880" lon="-2.8794230">
        <ele>1483.9</ele>
        <time>2022-02-08T10:18:14Z</time>
      </trkpt>
      <trkpt lat="41.9022070" lon="-2.8794200">
        <ele>1483.9</ele>
        <time>2022-02-08T10:18:15Z</time>
      </trkpt>
      <trkpt lat="41.9022270" lon="-2.8794180">
        <ele>1484.0</ele>
        <time>2022-02-08T10:18:16Z</time>
      </trkpt>
      <trkpt lat="41.9022450" lon="-2.8794200">
        <ele>1484.0</ele>
        <time>2022-02-08T10:18:17Z</time>
      </trkpt>
      <trkpt lat="41.9022630" lon="-2.8794270">
        <ele>1484.1</ele>
        <time>2022-02-08T10:18:18Z</time>
      </trkpt>
      <trkpt lat="41.9022800" lon="-2.8794350">
        <ele>1484.0</ele>
        <time>2022-02-08T10:18:19Z</time>
      </trkpt>
      <trkpt lat="41.9022930" lon="-2.8794520">
        <ele>1484.9</ele>
        <time>2022-02-08T10:18:20Z</time>
      </trkpt>
      <trkpt lat="41.9023100" lon="-2.8794730">
        <ele>1484.9</ele>
        <time>2022-02-08T10:18:21Z</time>
      </trkpt>
      <trkpt lat="41.9023220" lon="-2.8795000">
        <ele>1485.0</ele>
        <time>2022-02-08T10:18:22Z</time>
      </trkpt>
      <trkpt lat="41.9023370" lon="-2.8795280">
        <ele>1485.0</ele>
        <time>2022-02-08T10:18:23Z</time>
      </trkpt>
      <trkpt lat="41.9023480" lon="-2.8795600">
        <ele>1485.1</ele>
        <time>2022-02-08T10:18:24Z</time>
      </trkpt>
      <trkpt lat="41.9023630" lon="-2.8795880">
        <ele>1485.2</ele>
        <time>2022-02-08T10:18:25Z</time>
      </trkpt>
      <trkpt lat="41.9023780" lon="-2.8796150">
        <ele>1485.2</ele>
        <time>2022-02-08T10:18:26Z</time>
      </trkpt>
      <trkpt lat="41.9023920" lon="-2.8796450">
        <ele>1485.8</ele>
        <time>2022-02-08T10:18:27Z</time>
      </trkpt>
      <trkpt lat="41.9024020" lon="-2.8796750">
        <ele>1485.9</ele>
        <time>2022-02-08T10:18:28Z</time>
      </trkpt>
      <trkpt lat="41.9024120" lon="-2.8797080">
        <ele>1485.7</ele>
        <time>2022-02-08T10:18:29Z</time>
      </trkpt>
      <trkpt lat="41.9024180" lon="-2.8797420">
        <ele>1485.7</ele>
        <time>2022-02-08T10:18:30Z</time>
      </trkpt>
      <trkpt lat="41.9024230" lon="-2.8797750">
        <ele>1485.8</ele>
        <time>2022-02-08T10:18:31Z</time>
      </trkpt>
      <trkpt lat="41.9024350" lon="-2.8798050">
        <ele>1486.1</ele>
        <time>2022-02-08T10:18:32Z</time>
      </trkpt>
      <trkpt lat="41.9024420" lon="-2.8798380">
        <ele>1486.2</ele>
        <time>2022-02-08T10:18:33Z</time>
      </trkpt>
      <trkpt lat="41.9024430" lon="-2.8798770">
        <ele>1486.2</ele>
        <time>2022-02-08T10:18:34Z</time>
      </trkpt>
      <trkpt lat="41.9024430" lon="-2.8799150">
        <ele>1486.3</ele>
        <time>2022-02-08T10:18:35Z</time>
      </trkpt>
      <trkpt lat="41.9024500" lon="-2.8799720">
        <ele>1486.5</ele>
        <time>2022-02-08T10:18:36Z</time>
      </trkpt>
      <trkpt lat="41.9024630" lon="-2.8800070">
        <ele>1486.6</ele>
        <time>2022-02-08T10:18:37Z</time>
      </trkpt>
      <trkpt lat="41.9024770" lon="-2.8800420">
        <ele>1486.6</ele>
        <time>2022-02-08T10:18:38Z</time>
      </trkpt>
      <trkpt lat="41.9024900" lon="-2.8800820">
        <ele>1486.7</ele>
        <time>2022-02-08T10:18:39Z</time>
      </trkpt>
      <trkpt lat="41.9025020" lon="-2.8801230">
        <ele>1486.7</ele>
        <time>2022-02-08T10:18:40Z</time>
      </trkpt>
      <trkpt lat="41.9025200" lon="-2.8801650">
        <ele>1486.9</ele>
        <time>2022-02-08T10:18:41Z</time>
      </trkpt>
      <trkpt lat="41.9025420" lon="-2.8802030">
        <ele>1486.8</ele>
        <time>2022-02-08T10:18:42Z</time>
      </trkpt>
      <trkpt lat="41.9025670" lon="-2.8802370">
        <ele>1486.8</ele>
        <time>2022-02-08T10:18:43Z</time>
      </trkpt>
      <trkpt lat="41.9025930" lon="-2.8802770">
        <ele>1486.9</ele>
        <time>2022-02-08T10:18:44Z</time>
      </trkpt>
      <trkpt lat="41.9026370" lon="-2.8803170">
        <ele>1487.2</ele>
        <time>2022-02-08T10:18:45Z</time>
      </trkpt>
      <trkpt lat="41.9026820" lon="-2.8803550">
        <ele>1487.1</ele>
        <time>2022-02-08T10:18:46Z</time>
      </trkpt>
      <trkpt lat="41.9027180" lon="-2.8804000">
        <ele>1487.2</ele>
        <time>2022-02-08T10:18:47Z</time>
      </trkpt>
      <trkpt lat="41.9027520" lon="-2.8804430">
        <ele>1487.2</ele>
        <time>2022-02-08T10:18:48Z</time>
      </trkpt>
      <trkpt lat="41.9027920" lon="-2.8804880">
        <ele>1487.1</ele>
        <time>2022-02-08T10:18:49Z</time>
      </trkpt>
      <trkpt lat="41.9028330" lon="-2.8805400">
        <ele>1487.1</ele>
        <time>2022-02-08T10:18:50Z</time>
      </trkpt>
      <trkpt lat="41.9028820" lon="-2.8805950">
        <ele>1487.2</ele>
        <time>2022-02-08T10:18:51Z</time>
      </trkpt>
      <trkpt lat="41.9029320" lon="-2.8806430">
        <ele>1486.5</ele>
        <time>2022-02-08T10:18:52Z</time>
      </trkpt>
      <trkpt lat="41.9029970" lon="-2.8806880">
        <ele>1487.4</ele>
        <time>2022-02-08T10:18:53Z</time>
      </trkpt>
      <trkpt lat="41.9030570" lon="-2.8807320">
        <ele>1486.3</ele>
        <time>2022-02-08T10:18:54Z</time>
      </trkpt>
      <trkpt lat="41.9031170" lon="-2.8807650">
        <ele>1486.4</ele>
        <time>2022-02-08T10:18:55Z</time>
      </trkpt>
      <trkpt lat="41.9031700" lon="-2.8808030">
        <ele>1486.4</ele>
        <time>2022-02-08T10:18:56Z</time>
      </trkpt>
      <trkpt lat="41.9032380" lon="-2.8808430">
        <ele>1486.0</ele>
        <time>2022-02-08T10:18:57Z</time>
      </trkpt>
      <trkpt lat="41.9032900" lon="-2.8808880">
        <ele>1486.0</ele>
        <time>2022-02-08T10:18:58Z</time>
      </trkpt>
      <trkpt lat="41.9033330" lon="-2.8809500">
        <ele>1484.0</ele>
        <time>2022-02-08T10:18:59Z</time>
      </trkpt>
      <trkpt lat="41.9033720" lon="-2.8810150">
        <ele>1484.4</ele>
        <time>2022-02-08T10:19:00Z</time>
      </trkpt>
      <trkpt lat="41.9034120" lon="-2.8810720">
        <ele>1484.5</ele>
        <time>2022-02-08T10:19:01Z</time>
      </trkpt>
      <trkpt lat="41.9034330" lon="-2.8811570">
        <ele>1484.1</ele>
        <time>2022-02-08T10:19:02Z</time>
      </trkpt>
      <trkpt lat="41.9034680" lon="-2.8812550">
        <ele>1483.7</ele>
        <time>2022-02-08T10:19:03Z</time>
      </trkpt>
      <trkpt lat="41.9035080" lon="-2.8813470">
        <ele>1483.3</ele>
        <time>2022-02-08T10:19:04Z</time>
      </trkpt>
      <trkpt lat="41.9035430" lon="-2.8814300">
        <ele>1482.9</ele>
        <time>2022-02-08T10:19:05Z</time>
      </trkpt>
      <trkpt lat="41.9035730" lon="-2.8815200">
        <ele>1482.4</ele>
        <time>2022-02-08T10:19:06Z</time>
      </trkpt>
      <trkpt lat="41.9036200" lon="-2.8815820">
        <ele>1481.9</ele>
        <time>2022-02-08T10:19:07Z</time>
      </trkpt>
      <trkpt lat="41.9036520" lon="-2.8816330">
        <ele>1481.5</ele>
        <time>2022-02-08T10:19:08Z</time>
      </trkpt>
      <trkpt lat="41.9037020" lon="-2.8816580">
        <ele>1481.0</ele>
        <time>2022-02-08T10:19:09Z</time>
      </trkpt>
      <trkpt lat="41.9037480" lon="-2.8816730">
        <ele>1480.5</ele>
        <time>2022-02-08T10:19:10Z</time>
      </trkpt>
      <trkpt lat="41.9038020" lon="-2.8816780">
        <ele>1480.0</ele>
        <time>2022-02-08T10:19:11Z</time>
      </trkpt>
      <trkpt lat="41.9038470" lon="-2.8816700">
        <ele>1479.5</ele>
        <time>2022-02-08T10:19:12Z</time>
      </trkpt>
      <trkpt lat="41.9039130" lon="-2.8816650">
        <ele>1478.7</ele>
        <time>2022-02-08T10:19:13Z</time>
      </trkpt>
      <trkpt lat="41.9039780" lon="-2.8816620">
        <ele>1477.9</ele>
        <time>2022-02-08T10:19:14Z</time>
      </trkpt>
      <trkpt lat="41.9040550" lon="-2.8816600">
        <ele>1477.0</ele>
        <time>2022-02-08T10:19:15Z</time>
      </trkpt>
      <trkpt lat="41.9041380" lon="-2.8816470">
        <ele>1476.2</ele>
        <time>2022-02-08T10:19:16Z</time>
      </trkpt>
      <trkpt lat="41.9042270" lon="-2.8816330">
        <ele>1475.4</ele>
        <time>2022-02-08T10:19:17Z</time>
      </trkpt>
      <trkpt lat="41.9043070" lon="-2.8816250">
        <ele>1474.7</ele>
        <time>2022-02-08T10:19:18Z</time>
      </trkpt>
      <trkpt lat="41.9043780" lon="-2.8816200">
        <ele>1474.0</ele>
        <time>2022-02-08T10:19:19Z</time>
      </trkpt>
      <trkpt lat="41.9044530" lon="-2.8816280">
        <ele>1473.3</ele>
        <time>2022-02-08T10:19:20Z</time>
      </trkpt>
      <trkpt lat="41.9045420" lon="-2.8816500">
        <ele>1472.5</ele>
        <time>2022-02-08T10:19:21Z</time>
      </trkpt>
      <trkpt lat="41.9045950" lon="-2.8816780">
        <ele>1472.0</ele>
        <time>2022-02-08T10:19:22Z</time>
      </trkpt>
      <trkpt lat="41.9046580" lon="-2.8817170">
        <ele>1471.5</ele>
        <time>2022-02-08T10:19:23Z</time>
      </trkpt>
      <trkpt lat="41.9047250" lon="-2.8817450">
        <ele>1471.0</ele>
        <time>2022-02-08T10:19:24Z</time>
      </trkpt>
      <trkpt lat="41.9047920" lon="-2.8817620">
        <ele>1470.6</ele>
        <time>2022-02-08T10:19:25Z</time>
      </trkpt>
      <trkpt lat="41.9048430" lon="-2.8817930">
        <ele>1470.3</ele>
        <time>2022-02-08T10:19:26Z</time>
      </trkpt>
      <trkpt lat="41.9048970" lon="-2.8818180">
        <ele>1470.1</ele>
        <time>2022-02-08T10:19:27Z</time>
      </trkpt>
      <trkpt lat="41.9049520" lon="-2.8818450">
        <ele>1469.8</ele>
        <time>2022-02-08T10:19:28Z</time>
      </trkpt>
      <trkpt lat="41.9049920" lon="-2.8818730">
        <ele>1469.6</ele>
        <time>2022-02-08T10:19:29Z</time>
      </trkpt>
      <trkpt lat="41.9050370" lon="-2.8819120">
        <ele>1469.3</ele>
        <time>2022-02-08T10:19:30Z</time>
      </trkpt>
      <trkpt lat="41.9050670" lon="-2.8819570">
        <ele>1469.1</ele>
        <time>2022-02-08T10:19:31Z</time>
      </trkpt>
      <trkpt lat="41.9051100" lon="-2.8820200">
        <ele>1468.8</ele>
        <time>2022-02-08T10:19:32Z</time>
      </trkpt>
      <trkpt lat="41.9051570" lon="-2.8820930">
        <ele>1468.5</ele>
        <time>2022-02-08T10:19:33Z</time>
      </trkpt>
      <trkpt lat="41.9051900" lon="-2.8821630">
        <ele>1468.3</ele>
        <time>2022-02-08T10:19:34Z</time>
      </trkpt>
      <trkpt lat="41.9052250" lon="-2.8822370">
        <ele>1468.2</ele>
        <time>2022-02-08T10:19:35Z</time>
      </trkpt>
      <trkpt lat="41.9052570" lon="-2.8823150">
        <ele>1468.0</ele>
        <time>2022-02-08T10:19:36Z</time>
      </trkpt>
      <trkpt lat="41.9052830" lon="-2.8824130">
        <ele>1467.9</ele>
        <time>2022-02-08T10:19:37Z</time>
      </trkpt>
      <trkpt lat="41.9053050" lon="-2.8825000">
        <ele>1467.7</ele>
        <time>2022-02-08T10:19:38Z</time>
      </trkpt>
      <trkpt lat="41.9053350" lon="-2.8825800">
        <ele>1467.5</ele>
        <time>2022-02-08T10:19:39Z</time>
      </trkpt>
      <trkpt lat="41.9053780" lon="-2.8826600">
        <ele>1467.3</ele>
        <time>2022-02-08T10:19:40Z</time>
      </trkpt>
      <trkpt lat="41.9054150" lon="-2.8827520">
        <ele>1467.1</ele>
        <time>2022-02-08T10:19:41Z</time>
      </trkpt>
      <trkpt lat="41.9054420" lon="-2.8828230">
        <ele>1466.9</ele>
        <time>2022-02-08T10:19:42Z</time>
      </trkpt>
      <trkpt lat="41.9054780" lon="-2.8828920">
        <ele>1466.8</ele>
        <time>2022-02-08T10:19:43Z</time>
      </trkpt>
      <trkpt lat="41.9055050" lon="-2.8829680">
        <ele>1466.6</ele>
        <time>2022-02-08T10:19:44Z</time>
      </trkpt>
      <trkpt lat="41.9055180" lon="-2.8830600">
        <ele>1466.5</ele>
        <time>2022-02-08T10:19:45Z</time>
      </trkpt>
      <trkpt lat="41.9055180" lon="-2.8831470">
        <ele>1466.3</ele>
        <time>2022-02-08T10:19:46Z</time>
      </trkpt>
      <trkpt lat="41.9055270" lon="-2.8832330">
        <ele>1466.1</ele>
        <time>2022-02-08T10:19:47Z</time>
      </trkpt>
      <trkpt lat="41.9055400" lon="-2.8833170">
        <ele>1465.8</ele>
        <time>2022-02-08T10:19:48Z</time>
      </trkpt>
      <trkpt lat="41.9055580" lon="-2.8833900">
        <ele>1465.6</ele>
        <time>2022-02-08T10:19:49Z</time>
      </trkpt>
      <trkpt lat="41.9055650" lon="-2.8834600">
        <ele>1465.4</ele>
        <time>2022-02-08T10:19:50Z</time>
      </trkpt>
      <trkpt lat="41.9055750" lon="-2.8835300">
        <ele>1465.3</ele>
        <time>2022-02-08T10:19:51Z</time>
      </trkpt>
      <trkpt lat="41.9055820" lon="-2.8835930">
        <ele>1465.1</ele>
        <time>2022-02-08T10:19:52Z</time>
      </trkpt>
      <trkpt lat="41.9055900" lon="-2.8836600">
        <ele>1465.0</ele>
        <time>2022-02-08T10:19:53Z</time>
      </trkpt>
      <trkpt lat="41.9056020" lon="-2.8837300">
        <ele>1464.8</ele>
        <time>2022-02-08T10:19:54Z</time>
      </trkpt>
      <trkpt lat="41.9056070" lon="-2.8838030">
        <ele>1464.6</ele>
        <time>2022-02-08T10:19:55Z</time>
      </trkpt>
      <trkpt lat="41.9056070" lon="-2.8838770">
        <ele>1464.3</ele>
        <time>2022-02-08T10:19:56Z</time>
      </trkpt>
      <trkpt lat="41.9055970" lon="-2.8839500">
        <ele>1464.1</ele>
        <time>2022-02-08T10:19:57Z</time>
      </trkpt>
      <trkpt lat="41.9055830" lon="-2.8840230">
        <ele>1464.0</ele>
        <time>2022-02-08T10:19:58Z</time>
      </trkpt>
      <trkpt lat="41.9055650" lon="-2.8840980">
        <ele>1463.8</ele>
        <time>2022-02-08T10:19:59Z</time>
      </trkpt>
      <trkpt lat="41.9055550" lon="-2.8841650">
        <ele>1463.6</ele>
        <time>2022-02-08T10:20:00Z</time>
      </trkpt>
      <trkpt lat="41.9055450" lon="-2.8842500">
        <ele>1463.3</ele>
        <time>2022-02-08T10:20:01Z</time>
      </trkpt>
      <trkpt lat="41.9055430" lon="-2.8843320">
        <ele>1463.0</ele>
        <time>2022-02-08T10:20:02Z</time>
      </trkpt>
      <trkpt lat="41.9055520" lon="-2.8844050">
        <ele>1462.7</ele>
        <time>2022-02-08T10:20:03Z</time>
      </trkpt>
      <trkpt lat="41.9055600" lon="-2.8844920">
        <ele>1462.5</ele>
        <time>2022-02-08T10:20:04Z</time>
      </trkpt>
      <trkpt lat="41.9055720" lon="-2.8845800">
        <ele>1462.2</ele>
        <time>2022-02-08T10:20:05Z</time>
      </trkpt>
      <trkpt lat="41.9055800" lon="-2.8846650">
        <ele>1462.0</ele>
        <time>2022-02-08T10:20:06Z</time>
      </trkpt>
      <trkpt lat="41.9055830" lon="-2.8847530">
        <ele>1461.7</ele>
        <time>2022-02-08T10:20:07Z</time>
      </trkpt>
      <trkpt lat="41.9055770" lon="-2.8848420">
        <ele>1461.4</ele>
        <time>2022-02-08T10:20:08Z</time>
      </trkpt>
      <trkpt lat="41.9055550" lon="-2.8849350">
        <ele>1461.1</ele>
        <time>2022-02-08T10:20:09Z</time>
      </trkpt>
      <trkpt lat="41.9055400" lon="-2.8850250">
        <ele>1460.9</ele>
        <time>2022-02-08T10:20:10Z</time>
      </trkpt>
      <trkpt lat="41.9055280" lon="-2.8851100">
        <ele>1460.7</ele>
        <time>2022-02-08T10:20:11Z</time>
      </trkpt>
      <trkpt lat="41.9055230" lon="-2.8851880">
        <ele>1460.6</ele>
        <time>2022-02-08T10:20:12Z</time>
      </trkpt>
      <trkpt lat="41.9055180" lon="-2.8852700">
        <ele>1460.4</ele>
        <time>2022-02-08T10:20:13Z</time>
      </trkpt>
      <trkpt lat="41.9055180" lon="-2.8853500">
        <ele>1460.3</ele>
        <time>2022-02-08T10:20:14Z</time>
      </trkpt>
      <trkpt lat="41.9055250" lon="-2.8854270">
        <ele>1460.1</ele>
        <time>2022-02-08T10:20:15Z</time>
      </trkpt>
      <trkpt lat="41.9055400" lon="-2.8855000">
        <ele>1459.9</ele>
        <time>2022-02-08T10:20:16Z</time>
      </trkpt>
      <trkpt lat="41.9055620" lon="-2.8855670">
        <ele>1459.7</ele>
        <time>2022-02-08T10:20:17Z</time>
      </trkpt>
      <trkpt lat="41.9055800" lon="-2.8856270">
        <ele>1459.5</ele>
        <time>2022-02-08T10:20:18Z</time>
      </trkpt>
      <trkpt lat="41.9056020" lon="-2.8856780">
        <ele>1459.4</ele>
        <time>2022-02-08T10:20:19Z</time>
      </trkpt>
      <trkpt lat="41.9056180" lon="-2.8857120">
        <ele>1459.2</ele>
        <time>2022-02-08T10:20:20Z</time>
      </trkpt>
      <trkpt lat="41.9056430" lon="-2.8857380">
        <ele>1459.1</ele>
        <time>2022-02-08T10:20:21Z</time>
      </trkpt>
      <trkpt lat="41.9056700" lon="-2.8857680">
        <ele>1459.0</ele>
        <time>2022-02-08T10:20:22Z</time>
      </trkpt>
      <trkpt lat="41.9056850" lon="-2.8857950">
        <ele>1458.9</ele>
        <time>2022-02-08T10:20:23Z</time>
      </trkpt>
      <trkpt lat="41.9057020" lon="-2.8858350">
        <ele>1458.8</ele>
        <time>2022-02-08T10:20:24Z</time>
      </trkpt>
      <trkpt lat="41.9057200" lon="-2.8858920">
        <ele>1458.6</ele>
        <time>2022-02-08T10:20:25Z</time>
      </trkpt>
      <trkpt lat="41.9057200" lon="-2.8859470">
        <ele>1458.5</ele>
        <time>2022-02-08T10:20:26Z</time>
      </trkpt>
      <trkpt lat="41.9057180" lon="-2.8860150">
        <ele>1458.2</ele>
        <time>2022-02-08T10:20:27Z</time>
      </trkpt>
      <trkpt lat="41.9057170" lon="-2.8860730">
        <ele>1458.0</ele>
        <time>2022-02-08T10:20:28Z</time>
      </trkpt>
      <trkpt lat="41.9057000" lon="-2.8861380">
        <ele>1457.7</ele>
        <time>2022-02-08T10:20:29Z</time>
      </trkpt>
      <trkpt lat="41.9056900" lon="-2.8861920">
        <ele>1457.5</ele>
        <time>2022-02-08T10:20:30Z</time>
      </trkpt>
      <trkpt lat="41.9056900" lon="-2.8862430">
        <ele>1457.2</ele>
        <time>2022-02-08T10:20:31Z</time>
      </trkpt>
      <trkpt lat="41.9056980" lon="-2.8862950">
        <ele>1456.9</ele>
        <time>2022-02-08T10:20:32Z</time>
      </trkpt>
      <trkpt lat="41.9057120" lon="-2.8863600">
        <ele>1456.4</ele>
        <time>2022-02-08T10:20:33Z</time>
      </trkpt>
      <trkpt lat="41.9057180" lon="-2.8864330">
        <ele>1455.8</ele>
        <time>2022-02-08T10:20:34Z</time>
      </trkpt>
      <trkpt lat="41.9057380" lon="-2.8864970">
        <ele>1455.2</ele>
        <time>2022-02-08T10:20:35Z</time>
      </trkpt>
      <trkpt lat="41.9057800" lon="-2.8865480">
        <ele>1454.5</ele>
        <time>2022-02-08T10:20:36Z</time>
      </trkpt>
      <trkpt lat="41.9058100" lon="-2.8865470">
        <ele>1454.1</ele>
        <time>2022-02-08T10:20:37Z</time>
      </trkpt>
      <trkpt lat="41.9058550" lon="-2.8865350">
        <ele>1453.3</ele>
        <time>2022-02-08T10:20:38Z</time>
      </trkpt>
      <trkpt lat="41.9058950" lon="-2.8865270">
        <ele>1452.6</ele>
        <time>2022-02-08T10:20:39Z</time>
      </trkpt>
      <trkpt lat="41.9059380" lon="-2.8865170">
        <ele>1451.8</ele>
        <time>2022-02-08T10:20:40Z</time>
      </trkpt>
      <trkpt lat="41.9059750" lon="-2.8865050">
        <ele>1451.1</ele>
        <time>2022-02-08T10:20:41Z</time>
      </trkpt>
      <trkpt lat="41.9060080" lon="-2.8864970">
        <ele>1450.5</ele>
        <time>2022-02-08T10:20:42Z</time>
      </trkpt>
      <trkpt lat="41.9060430" lon="-2.8864850">
        <ele>1449.9</ele>
        <time>2022-02-08T10:20:43Z</time>
      </trkpt>
      <trkpt lat="41.9060820" lon="-2.8864650">
        <ele>1449.3</ele>
        <time>2022-02-08T10:20:44Z</time>
      </trkpt>
      <trkpt lat="41.9061350" lon="-2.8864280">
        <ele>1448.5</ele>
        <time>2022-02-08T10:20:45Z</time>
      </trkpt>
      <trkpt lat="41.9061730" lon="-2.8863970">
        <ele>1447.9</ele>
        <time>2022-02-08T10:20:46Z</time>
      </trkpt>
      <trkpt lat="41.9062170" lon="-2.8863670">
        <ele>1447.3</ele>
        <time>2022-02-08T10:20:47Z</time>
      </trkpt>
      <trkpt lat="41.9062580" lon="-2.8863370">
        <ele>1446.7</ele>
        <time>2022-02-08T10:20:48Z</time>
      </trkpt>
      <trkpt lat="41.9063030" lon="-2.8863050">
        <ele>1446.1</ele>
        <time>2022-02-08T10:20:49Z</time>
      </trkpt>
      <trkpt lat="41.9063530" lon="-2.8862750">
        <ele>1446.1</ele>
        <time>2022-02-08T10:20:50Z</time>
      </trkpt>
      <trkpt lat="41.9064130" lon="-2.8862380">
        <ele>1444.1</ele>
        <time>2022-02-08T10:20:51Z</time>
      </trkpt>
      <trkpt lat="41.9064730" lon="-2.8861950">
        <ele>1444.1</ele>
        <time>2022-02-08T10:20:52Z</time>
      </trkpt>
      <trkpt lat="41.9065300" lon="-2.8861430">
        <ele>1442.3</ele>
        <time>2022-02-08T10:20:53Z</time>
      </trkpt>
      <trkpt lat="41.9065820" lon="-2.8860780">
        <ele>1442.5</ele>
        <time>2022-02-08T10:20:54Z</time>
      </trkpt>
      <trkpt lat="41.9066150" lon="-2.8860200">
        <ele>1442.4</ele>
        <time>2022-02-08T10:20:55Z</time>
      </trkpt>
      <trkpt lat="41.9066570" lon="-2.8859400">
        <ele>1439.9</ele>
        <time>2022-02-08T10:20:56Z</time>
      </trkpt>
      <trkpt lat="41.9066950" lon="-2.8858550">
        <ele>1439.9</ele>
        <time>2022-02-08T10:20:57Z</time>
      </trkpt>
      <trkpt lat="41.9067180" lon="-2.8857720">
        <ele>1439.7</ele>
        <time>2022-02-08T10:20:58Z</time>
      </trkpt>
      <trkpt lat="41.9067380" lon="-2.8856900">
        <ele>1439.7</ele>
        <time>2022-02-08T10:20:59Z</time>
      </trkpt>
      <trkpt lat="41.9067520" lon="-2.8856130">
        <ele>1437.3</ele>
        <time>2022-02-08T10:21:00Z</time>
      </trkpt>
      <trkpt lat="41.9067650" lon="-2.8855430">
        <ele>1437.2</ele>
        <time>2022-02-08T10:21:01Z</time>
      </trkpt>
      <trkpt lat="41.9067830" lon="-2.8854730">
        <ele>1437.2</ele>
        <time>2022-02-08T10:21:02Z</time>
      </trkpt>
      <trkpt lat="41.9068070" lon="-2.8854020">
        <ele>1437.0</ele>
        <time>2022-02-08T10:21:03Z</time>
      </trkpt>
      <trkpt lat="41.9068250" lon="-2.8853300">
        <ele>1437.0</ele>
        <time>2022-02-08T10:21:04Z</time>
      </trkpt>
      <trkpt lat="41.9068450" lon="-2.8852450">
        <ele>1436.9</ele>
        <time>2022-02-08T10:21:05Z</time>
      </trkpt>
      <trkpt lat="41.9068580" lon="-2.8851720">
        <ele>1436.8</ele>
        <time>2022-02-08T10:21:06Z</time>
      </trkpt>
      <trkpt lat="41.9068720" lon="-2.8851020">
        <ele>1436.8</ele>
        <time>2022-02-08T10:21:07Z</time>
      </trkpt>
      <trkpt lat="41.9068820" lon="-2.8850330">
        <ele>1434.4</ele>
        <time>2022-02-08T10:21:08Z</time>
      </trkpt>
      <trkpt lat="41.9068920" lon="-2.8849550">
        <ele>1434.4</ele>
        <time>2022-02-08T10:21:09Z</time>
      </trkpt>
      <trkpt lat="41.9069030" lon="-2.8848720">
        <ele>1434.5</ele>
        <time>2022-02-08T10:21:10Z</time>
      </trkpt>
      <trkpt lat="41.9069120" lon="-2.8847880">
        <ele>1434.4</ele>
        <time>2022-02-08T10:21:11Z</time>
      </trkpt>
      <trkpt lat="41.9069080" lon="-2.8847070">
        <ele>1434.5</ele>
        <time>2022-02-08T10:21:12Z</time>
      </trkpt>
      <trkpt lat="41.9069030" lon="-2.8846270">
        <ele>1434.5</ele>
        <time>2022-02-08T10:21:13Z</time>
      </trkpt>
      <trkpt lat="41.9068830" lon="-2.8845570">
        <ele>1434.6</ele>
        <time>2022-02-08T10:21:14Z</time>
      </trkpt>
      <trkpt lat="41.9068630" lon="-2.8844830">
        <ele>1437.3</ele>
        <time>2022-02-08T10:21:15Z</time>
      </trkpt>
      <trkpt lat="41.9068500" lon="-2.8844100">
        <ele>1436.9</ele>
        <time>2022-02-08T10:21:16Z</time>
      </trkpt>
      <trkpt lat="41.9068350" lon="-2.8843230">
        <ele>1436.9</ele>
        <time>2022-02-08T10:21:17Z</time>
      </trkpt>
      <trkpt lat="41.9068320" lon="-2.8842600">
        <ele>1436.8</ele>
        <time>2022-02-08T10:21:18Z</time>
      </trkpt>
      <trkpt lat="41.9068330" lon="-2.8841900">
        <ele>1436.1</ele>
        <time>2022-02-08T10:21:19Z</time>
      </trkpt>
      <trkpt lat="41.9068330" lon="-2.8841200">
        <ele>1436.1</ele>
        <time>2022-02-08T10:21:20Z</time>
      </trkpt>
      <trkpt lat="41.9068370" lon="-2.8840570">
        <ele>1435.0</ele>
        <time>2022-02-08T10:21:21Z</time>
      </trkpt>
      <trkpt lat="41.9068500" lon="-2.8839870">
        <ele>1435.0</ele>
        <time>2022-02-08T10:21:22Z</time>
      </trkpt>
      <trkpt lat="41.9068650" lon="-2.8839120">
        <ele>1435.0</ele>
        <time>2022-02-08T10:21:23Z</time>
      </trkpt>
      <trkpt lat="41.9068800" lon="-2.8838430">
        <ele>1432.4</ele>
        <time>2022-02-08T10:21:24Z</time>
      </trkpt>
      <trkpt lat="41.9069020" lon="-2.8837750">
        <ele>1432.4</ele>
        <time>2022-02-08T10:21:25Z</time>
      </trkpt>
      <trkpt lat="41.9069200" lon="-2.8837000">
        <ele>1431.6</ele>
        <time>2022-02-08T10:21:26Z</time>
      </trkpt>
      <trkpt lat="41.9069320" lon="-2.8836170">
        <ele>1431.6</ele>
        <time>2022-02-08T10:21:27Z</time>
      </trkpt>
      <trkpt lat="41.9069370" lon="-2.8835230">
        <ele>1431.2</ele>
        <time>2022-02-08T10:21:28Z</time>
      </trkpt>
      <trkpt lat="41.9069400" lon="-2.8834270">
        <ele>1431.1</ele>
        <time>2022-02-08T10:21:29Z</time>
      </trkpt>
      <trkpt lat="41.9069420" lon="-2.8833450">
        <ele>1431.0</ele>
        <time>2022-02-08T10:21:30Z</time>
      </trkpt>
      <trkpt lat="41.9069500" lon="-2.8832570">
        <ele>1431.0</ele>
        <time>2022-02-08T10:21:31Z</time>
      </trkpt>
      <trkpt lat="41.9069530" lon="-2.8832000">
        <ele>1431.1</ele>
        <time>2022-02-08T10:21:32Z</time>
      </trkpt>
      <trkpt lat="41.9069470" lon="-2.8831430">
        <ele>1431.1</ele>
        <time>2022-02-08T10:21:33Z</time>
      </trkpt>
      <trkpt lat="41.9069330" lon="-2.8830980">
        <ele>1431.0</ele>
        <time>2022-02-08T10:21:34Z</time>
      </trkpt>
      <trkpt lat="41.9069370" lon="-2.8830650">
        <ele>1431.0</ele>
        <time>2022-02-08T10:21:35Z</time>
      </trkpt>
      <trkpt lat="41.9069580" lon="-2.8830270">
        <ele>1431.0</ele>
        <time>2022-02-08T10:21:36Z</time>
      </trkpt>
      <trkpt lat="41.9069920" lon="-2.8829950">
        <ele>1430.9</ele>
        <time>2022-02-08T10:21:37Z</time>
      </trkpt>
      <trkpt lat="41.9070150" lon="-2.8829800">
        <ele>1429.6</ele>
        <time>2022-02-08T10:21:38Z</time>
      </trkpt>
      <trkpt lat="41.9070200" lon="-2.8829470">
        <ele>1429.6</ele>
        <time>2022-02-08T10:21:39Z</time>
      </trkpt>
      <trkpt lat="41.9070270" lon="-2.8829030">
        <ele>1429.6</ele>
        <time>2022-02-08T10:21:40Z</time>
      </trkpt>
      <trkpt lat="41.9070420" lon="-2.8828780">
        <ele>1429.1</ele>
        <time>2022-02-08T10:21:41Z</time>
      </trkpt>
      <trkpt lat="41.9070630" lon="-2.8828600">
        <ele>1429.1</ele>
        <time>2022-02-08T10:21:42Z</time>
      </trkpt>
      <trkpt lat="41.9070900" lon="-2.8828530">
        <ele>1429.1</ele>
        <time>2022-02-08T10:21:43Z</time>
      </trkpt>
      <trkpt lat="41.9071370" lon="-2.8828550">
        <ele>1428.2</ele>
        <time>2022-02-08T10:21:44Z</time>
      </trkpt>
      <trkpt lat="41.9071720" lon="-2.8828580">
        <ele>1428.1</ele>
        <time>2022-02-08T10:21:45Z</time>
      </trkpt>
      <trkpt lat="41.9072270" lon="-2.8828830">
        <ele>1428.4</ele>
        <time>2022-02-08T10:21:46Z</time>
      </trkpt>
      <trkpt lat="41.9072980" lon="-2.8828900">
        <ele>1427.1</ele>
        <time>2022-02-08T10:21:47Z</time>
      </trkpt>
      <trkpt lat="41.9073670" lon="-2.8828930">
        <ele>1427.0</ele>
        <time>2022-02-08T10:21:48Z</time>
      </trkpt>
      <trkpt lat="41.9074300" lon="-2.8828920">
        <ele>1425.6</ele>
        <time>2022-02-08T10:21:49Z</time>
      </trkpt>
      <trkpt lat="41.9074920" lon="-2.8828830">
        <ele>1425.6</ele>
        <time>2022-02-08T10:21:50Z</time>
      </trkpt>
      <trkpt lat="41.9075480" lon="-2.8828670">
        <ele>1424.4</ele>
        <time>2022-02-08T10:21:51Z</time>
      </trkpt>
      <trkpt lat="41.9076030" lon="-2.8828500">
        <ele>1424.3</ele>
        <time>2022-02-08T10:21:52Z</time>
      </trkpt>
      <trkpt lat="41.9076730" lon="-2.8828400">
        <ele>1423.0</ele>
        <time>2022-02-08T10:21:53Z</time>
      </trkpt>
      <trkpt lat="41.9077330" lon="-2.8828300">
        <ele>1422.9</ele>
        <time>2022-02-08T10:21:54Z</time>
      </trkpt>
      <trkpt lat="41.9077850" lon="-2.8828320">
        <ele>1421.3</ele>
        <time>2022-02-08T10:21:55Z</time>
      </trkpt>
      <trkpt lat="41.9078720" lon="-2.8828350">
        <ele>1421.2</ele>
        <time>2022-02-08T10:21:56Z</time>
      </trkpt>
      <trkpt lat="41.9079500" lon="-2.8828270">
        <ele>1419.7</ele>
        <time>2022-02-08T10:21:57Z</time>
      </trkpt>
      <trkpt lat="41.9080150" lon="-2.8828030">
        <ele>1419.7</ele>
        <time>2022-02-08T10:21:58Z</time>
      </trkpt>
      <trkpt lat="41.9080620" lon="-2.8827680">
        <ele>1417.8</ele>
        <time>2022-02-08T10:21:59Z</time>
      </trkpt>
      <trkpt lat="41.9081070" lon="-2.8827070">
        <ele>1417.8</ele>
        <time>2022-02-08T10:22:00Z</time>
      </trkpt>
      <trkpt lat="41.9081550" lon="-2.8826430">
        <ele>1416.1</ele>
        <time>2022-02-08T10:22:01Z</time>
      </trkpt>
      <trkpt lat="41.9081920" lon="-2.8825820">
        <ele>1416.1</ele>
        <time>2022-02-08T10:22:02Z</time>
      </trkpt>
      <trkpt lat="41.9082170" lon="-2.8825100">
        <ele>1415.5</ele>
        <time>2022-02-08T10:22:03Z</time>
      </trkpt>
      <trkpt lat="41.9082430" lon="-2.8824080">
        <ele>1415.4</ele>
        <time>2022-02-08T10:22:04Z</time>
      </trkpt>
      <trkpt lat="41.9082630" lon="-2.8823100">
        <ele>1414.5</ele>
        <time>2022-02-08T10:22:05Z</time>
      </trkpt>
      <trkpt lat="41.9083000" lon="-2.8822250">
        <ele>1412.8</ele>
        <time>2022-02-08T10:22:06Z</time>
      </trkpt>
      <trkpt lat="41.9083380" lon="-2.8821550">
        <ele>1411.6</ele>
        <time>2022-02-08T10:22:07Z</time>
      </trkpt>
      <trkpt lat="41.9083830" lon="-2.8820950">
        <ele>1411.6</ele>
        <time>2022-02-08T10:22:08Z</time>
      </trkpt>
      <trkpt lat="41.9084480" lon="-2.8820200">
        <ele>1409.2</ele>
        <time>2022-02-08T10:22:09Z</time>
      </trkpt>
      <trkpt lat="41.9085070" lon="-2.8819800">
        <ele>1409.1</ele>
        <time>2022-02-08T10:22:10Z</time>
      </trkpt>
      <trkpt lat="41.9085780" lon="-2.8819400">
        <ele>1407.9</ele>
        <time>2022-02-08T10:22:11Z</time>
      </trkpt>
      <trkpt lat="41.9086480" lon="-2.8819230">
        <ele>1407.9</ele>
        <time>2022-02-08T10:22:12Z</time>
      </trkpt>
      <trkpt lat="41.9087170" lon="-2.8819100">
        <ele>1406.8</ele>
        <time>2022-02-08T10:22:13Z</time>
      </trkpt>
      <trkpt lat="41.9087850" lon="-2.8819180">
        <ele>1406.8</ele>
        <time>2022-02-08T10:22:14Z</time>
      </trkpt>
      <trkpt lat="41.9088570" lon="-2.8819280">
        <ele>1405.9</ele>
        <time>2022-02-08T10:22:15Z</time>
      </trkpt>
      <trkpt lat="41.9089350" lon="-2.8819420">
        <ele>1405.0</ele>
        <time>2022-02-08T10:22:16Z</time>
      </trkpt>
      <trkpt lat="41.9090370" lon="-2.8819550">
        <ele>1405.0</ele>
        <time>2022-02-08T10:22:17Z</time>
      </trkpt>
      <trkpt lat="41.9091070" lon="-2.8819770">
        <ele>1404.7</ele>
        <time>2022-02-08T10:22:18Z</time>
      </trkpt>
      <trkpt lat="41.9091820" lon="-2.8820130">
        <ele>1404.4</ele>
        <time>2022-02-08T10:22:19Z</time>
      </trkpt>
      <trkpt lat="41.9092570" lon="-2.8820530">
        <ele>1404.8</ele>
        <time>2022-02-08T10:22:20Z</time>
      </trkpt>
      <trkpt lat="41.9093170" lon="-2.8821120">
        <ele>1404.6</ele>
        <time>2022-02-08T10:22:21Z</time>
      </trkpt>
      <trkpt lat="41.9093700" lon="-2.8821680">
        <ele>1404.6</ele>
        <time>2022-02-08T10:22:22Z</time>
      </trkpt>
      <trkpt lat="41.9094120" lon="-2.8822330">
        <ele>1404.6</ele>
        <time>2022-02-08T10:22:23Z</time>
      </trkpt>
      <trkpt lat="41.9094580" lon="-2.8822950">
        <ele>1403.9</ele>
        <time>2022-02-08T10:22:24Z</time>
      </trkpt>
      <trkpt lat="41.9094980" lon="-2.8823520">
        <ele>1403.9</ele>
        <time>2022-02-08T10:22:25Z</time>
      </trkpt>
      <trkpt lat="41.9095530" lon="-2.8824020">
        <ele>1403.8</ele>
        <time>2022-02-08T10:22:26Z</time>
      </trkpt>
      <trkpt lat="41.9096070" lon="-2.8824280">
        <ele>1403.0</ele>
        <time>2022-02-08T10:22:27Z</time>
      </trkpt>
      <trkpt lat="41.9096600" lon="-2.8824450">
        <ele>1403.0</ele>
        <time>2022-02-08T10:22:28Z</time>
      </trkpt>
      <trkpt lat="41.9097120" lon="-2.8824520">
        <ele>1401.8</ele>
        <time>2022-02-08T10:22:29Z</time>
      </trkpt>
      <trkpt lat="41.9097700" lon="-2.8824350">
        <ele>1401.8</ele>
        <time>2022-02-08T10:22:30Z</time>
      </trkpt>
      <trkpt lat="41.9098370" lon="-2.8824130">
        <ele>1400.6</ele>
        <time>2022-02-08T10:22:31Z</time>
      </trkpt>
      <trkpt lat="41.9099080" lon="-2.8824000">
        <ele>1400.6</ele>
        <time>2022-02-08T10:22:32Z</time>
      </trkpt>
      <trkpt lat="41.9099730" lon="-2.8823930">
        <ele>1399.1</ele>
        <time>2022-02-08T10:22:33Z</time>
      </trkpt>
      <trkpt lat="41.9100250" lon="-2.8824030">
        <ele>1399.1</ele>
        <time>2022-02-08T10:22:34Z</time>
      </trkpt>
      <trkpt lat="41.9101000" lon="-2.8824430">
        <ele>1397.1</ele>
        <time>2022-02-08T10:22:35Z</time>
      </trkpt>
      <trkpt lat="41.9101680" lon="-2.8824850">
        <ele>1397.1</ele>
        <time>2022-02-08T10:22:36Z</time>
      </trkpt>
      <trkpt lat="41.9102180" lon="-2.8825250">
        <ele>1394.4</ele>
        <time>2022-02-08T10:22:37Z</time>
      </trkpt>
      <trkpt lat="41.9102800" lon="-2.8825630">
        <ele>1394.5</ele>
        <time>2022-02-08T10:22:38Z</time>
      </trkpt>
      <trkpt lat="41.9103450" lon="-2.8825950">
        <ele>1391.2</ele>
        <time>2022-02-08T10:22:39Z</time>
      </trkpt>
      <trkpt lat="41.9104030" lon="-2.8826350">
        <ele>1391.2</ele>
        <time>2022-02-08T10:22:40Z</time>
      </trkpt>
      <trkpt lat="41.9104650" lon="-2.8826720">
        <ele>1388.1</ele>
        <time>2022-02-08T10:22:41Z</time>
      </trkpt>
      <trkpt lat="41.9105380" lon="-2.8827030">
        <ele>1388.1</ele>
        <time>2022-02-08T10:22:42Z</time>
      </trkpt>
      <trkpt lat="41.9105980" lon="-2.8827230">
        <ele>1384.9</ele>
        <time>2022-02-08T10:22:43Z</time>
      </trkpt>
      <trkpt lat="41.9106580" lon="-2.8827500">
        <ele>1384.9</ele>
        <time>2022-02-08T10:22:44Z</time>
      </trkpt>
      <trkpt lat="41.9107170" lon="-2.8827600">
        <ele>1382.2</ele>
        <time>2022-02-08T10:22:45Z</time>
      </trkpt>
      <trkpt lat="41.9107730" lon="-2.8827650">
        <ele>1382.1</ele>
        <time>2022-02-08T10:22:46Z</time>
      </trkpt>
      <trkpt lat="41.9108430" lon="-2.8827580">
        <ele>1379.3</ele>
        <time>2022-02-08T10:22:47Z</time>
      </trkpt>
      <trkpt lat="41.9109170" lon="-2.8827700">
        <ele>1379.2</ele>
        <time>2022-02-08T10:22:48Z</time>
      </trkpt>
      <trkpt lat="41.9109770" lon="-2.8827920">
        <ele>1376.7</ele>
        <time>2022-02-08T10:22:49Z</time>
      </trkpt>
      <trkpt lat="41.9110430" lon="-2.8828270">
        <ele>1376.7</ele>
        <time>2022-02-08T10:22:50Z</time>
      </trkpt>
      <trkpt lat="41.9111170" lon="-2.8828730">
        <ele>1374.0</ele>
        <time>2022-02-08T10:22:51Z</time>
      </trkpt>
      <trkpt lat="41.9111780" lon="-2.8829150">
        <ele>1373.2</ele>
        <time>2022-02-08T10:22:52Z</time>
      </trkpt>
      <trkpt lat="41.9112500" lon="-2.8829520">
        <ele>1371.4</ele>
        <time>2022-02-08T10:22:53Z</time>
      </trkpt>
      <trkpt lat="41.9113200" lon="-2.8829600">
        <ele>1371.3</ele>
        <time>2022-02-08T10:22:54Z</time>
      </trkpt>
      <trkpt lat="41.9113970" lon="-2.8829680">
        <ele>1369.8</ele>
        <time>2022-02-08T10:22:55Z</time>
      </trkpt>
      <trkpt lat="41.9114670" lon="-2.8829830">
        <ele>1369.8</ele>
        <time>2022-02-08T10:22:56Z</time>
      </trkpt>
      <trkpt lat="41.9115320" lon="-2.8830050">
        <ele>1369.0</ele>
        <time>2022-02-08T10:22:57Z</time>
      </trkpt>
      <trkpt lat="41.9115770" lon="-2.8830450">
        <ele>1368.9</ele>
        <time>2022-02-08T10:22:58Z</time>
      </trkpt>
      <trkpt lat="41.9116370" lon="-2.8830820">
        <ele>1368.3</ele>
        <time>2022-02-08T10:22:59Z</time>
      </trkpt>
      <trkpt lat="41.9116820" lon="-2.8830970">
        <ele>1368.2</ele>
        <time>2022-02-08T10:23:00Z</time>
      </trkpt>
      <trkpt lat="41.9117130" lon="-2.8830820">
        <ele>1368.2</ele>
        <time>2022-02-08T10:23:01Z</time>
      </trkpt>
      <trkpt lat="41.9117320" lon="-2.8830600">
        <ele>1368.2</ele>
        <time>2022-02-08T10:23:02Z</time>
      </trkpt>
      <trkpt lat="41.9117450" lon="-2.8830250">
        <ele>1368.3</ele>
        <time>2022-02-08T10:23:03Z</time>
      </trkpt>
      <trkpt lat="41.9117570" lon="-2.8829880">
        <ele>1368.3</ele>
        <time>2022-02-08T10:23:04Z</time>
      </trkpt>
      <trkpt lat="41.9117550" lon="-2.8829500">
        <ele>1368.3</ele>
        <time>2022-02-08T10:23:05Z</time>
      </trkpt>
      <trkpt lat="41.9117570" lon="-2.8829080">
        <ele>1368.3</ele>
        <time>2022-02-08T10:23:06Z</time>
      </trkpt>
      <trkpt lat="41.9117570" lon="-2.8828520">
        <ele>1368.3</ele>
        <time>2022-02-08T10:23:07Z</time>
      </trkpt>
      <trkpt lat="41.9117570" lon="-2.8827920">
        <ele>1368.3</ele>
        <time>2022-02-08T10:23:08Z</time>
      </trkpt>
      <trkpt lat="41.9117570" lon="-2.8827250">
        <ele>1368.3</ele>
        <time>2022-02-08T10:23:09Z</time>
      </trkpt>
      <trkpt lat="41.9117580" lon="-2.8826580">
        <ele>1368.3</ele>
        <time>2022-02-08T10:23:10Z</time>
      </trkpt>
      <trkpt lat="41.9117620" lon="-2.8825880">
        <ele>1368.2</ele>
        <time>2022-02-08T10:23:11Z</time>
      </trkpt>
      <trkpt lat="41.9117630" lon="-2.8825200">
        <ele>1368.2</ele>
        <time>2022-02-08T10:23:12Z</time>
      </trkpt>
      <trkpt lat="41.9117620" lon="-2.8824530">
        <ele>1368.1</ele>
        <time>2022-02-08T10:23:13Z</time>
      </trkpt>
      <trkpt lat="41.9117600" lon="-2.8823870">
        <ele>1367.9</ele>
        <time>2022-02-08T10:23:14Z</time>
      </trkpt>
      <trkpt lat="41.9117570" lon="-2.8823170">
        <ele>1367.8</ele>
        <time>2022-02-08T10:23:15Z</time>
      </trkpt>
      <trkpt lat="41.9117620" lon="-2.8822480">
        <ele>1367.7</ele>
        <time>2022-02-08T10:23:16Z</time>
      </trkpt>
      <trkpt lat="41.9117650" lon="-2.8821780">
        <ele>1367.6</ele>
        <time>2022-02-08T10:23:17Z</time>
      </trkpt>
      <trkpt lat="41.9117680" lon="-2.8821070">
        <ele>1367.5</ele>
        <time>2022-02-08T10:23:18Z</time>
      </trkpt>
      <trkpt lat="41.9117730" lon="-2.8820350">
        <ele>1367.3</ele>
        <time>2022-02-08T10:23:19Z</time>
      </trkpt>
      <trkpt lat="41.9117750" lon="-2.8819580">
        <ele>1367.2</ele>
        <time>2022-02-08T10:23:20Z</time>
      </trkpt>
      <trkpt lat="41.9117700" lon="-2.8818820">
        <ele>1367.1</ele>
        <time>2022-02-08T10:23:21Z</time>
      </trkpt>
      <trkpt lat="41.9117580" lon="-2.8818000">
        <ele>1366.9</ele>
        <time>2022-02-08T10:23:22Z</time>
      </trkpt>
      <trkpt lat="41.9117400" lon="-2.8817170">
        <ele>1366.7</ele>
        <time>2022-02-08T10:23:23Z</time>
      </trkpt>
      <trkpt lat="41.9117170" lon="-2.8816300">
        <ele>1366.5</ele>
        <time>2022-02-08T10:23:24Z</time>
      </trkpt>
      <trkpt lat="41.9116900" lon="-2.8815430">
        <ele>1366.3</ele>
        <time>2022-02-08T10:23:25Z</time>
      </trkpt>
      <trkpt lat="41.9116570" lon="-2.8814600">
        <ele>1366.1</ele>
        <time>2022-02-08T10:23:26Z</time>
      </trkpt>
      <trkpt lat="41.9116200" lon="-2.8813800">
        <ele>1365.9</ele>
        <time>2022-02-08T10:23:27Z</time>
      </trkpt>
      <trkpt lat="41.9115850" lon="-2.8812930">
        <ele>1365.6</ele>
        <time>2022-02-08T10:23:28Z</time>
      </trkpt>
      <trkpt lat="41.9115450" lon="-2.8811980">
        <ele>1365.4</ele>
        <time>2022-02-08T10:23:29Z</time>
      </trkpt>
      <trkpt lat="41.9115150" lon="-2.8810900">
        <ele>1365.2</ele>
        <time>2022-02-08T10:23:30Z</time>
      </trkpt>
      <trkpt lat="41.9114780" lon="-2.8810070">
        <ele>1365.0</ele>
        <time>2022-02-08T10:23:31Z</time>
      </trkpt>
      <trkpt lat="41.9114300" lon="-2.8809330">
        <ele>1364.7</ele>
        <time>2022-02-08T10:23:32Z</time>
      </trkpt>
      <trkpt lat="41.9113750" lon="-2.8808580">
        <ele>1364.5</ele>
        <time>2022-02-08T10:23:33Z</time>
      </trkpt>
      <trkpt lat="41.9113180" lon="-2.8807830">
        <ele>1364.2</ele>
        <time>2022-02-08T10:23:34Z</time>
      </trkpt>
      <trkpt lat="41.9112700" lon="-2.8806970">
        <ele>1363.9</ele>
        <time>2022-02-08T10:23:35Z</time>
      </trkpt>
      <trkpt lat="41.9112230" lon="-2.8806180">
        <ele>1363.6</ele>
        <time>2022-02-08T10:23:36Z</time>
      </trkpt>
      <trkpt lat="41.9111630" lon="-2.8805430">
        <ele>1363.4</ele>
        <time>2022-02-08T10:23:37Z</time>
      </trkpt>
      <trkpt lat="41.9111120" lon="-2.8804730">
        <ele>1363.3</ele>
        <time>2022-02-08T10:23:38Z</time>
      </trkpt>
      <trkpt lat="41.9110420" lon="-2.8803900">
        <ele>1363.3</ele>
        <time>2022-02-08T10:23:39Z</time>
      </trkpt>
      <trkpt lat="41.9109750" lon="-2.8803450">
        <ele>1363.3</ele>
        <time>2022-02-08T10:23:40Z</time>
      </trkpt>
      <trkpt lat="41.9109120" lon="-2.8802950">
        <ele>1363.3</ele>
        <time>2022-02-08T10:23:41Z</time>
      </trkpt>
      <trkpt lat="41.9108600" lon="-2.8802430">
        <ele>1363.4</ele>
        <time>2022-02-08T10:23:42Z</time>
      </trkpt>
      <trkpt lat="41.9108070" lon="-2.8802030">
        <ele>1363.5</ele>
        <time>2022-02-08T10:23:43Z</time>
      </trkpt>
      <trkpt lat="41.9107450" lon="-2.8801530">
        <ele>1363.6</ele>
        <time>2022-02-08T10:23:44Z</time>
      </trkpt>
      <trkpt lat="41.9106770" lon="-2.8801200">
        <ele>1363.7</ele>
        <time>2022-02-08T10:23:45Z</time>
      </trkpt>
      <trkpt lat="41.9106180" lon="-2.8800850">
        <ele>1363.8</ele>
        <time>2022-02-08T10:23:46Z</time>
      </trkpt>
      <trkpt lat="41.9105830" lon="-2.8800430">
        <ele>1363.8</ele>
        <time>2022-02-08T10:23:47Z</time>
      </trkpt>
      <trkpt lat="41.9105450" lon="-2.8800080">
        <ele>1363.9</ele>
        <time>2022-02-08T10:23:48Z</time>
      </trkpt>
      <trkpt lat="41.9104930" lon="-2.8799850">
        <ele>1364.0</ele>
        <time>2022-02-08T10:23:49Z</time>
      </trkpt>
      <trkpt lat="41.9104580" lon="-2.8799600">
        <ele>1364.1</ele>
        <time>2022-02-08T10:23:50Z</time>
      </trkpt>
      <trkpt lat="41.9104200" lon="-2.8799050">
        <ele>1364.2</ele>
        <time>2022-02-08T10:23:51Z</time>
      </trkpt>
      <trkpt lat="41.9103870" lon="-2.8798650">
        <ele>1364.4</ele>
        <time>2022-02-08T10:23:52Z</time>
      </trkpt>
      <trkpt lat="41.9103480" lon="-2.8798300">
        <ele>1364.5</ele>
        <time>2022-02-08T10:23:53Z</time>
      </trkpt>
      <trkpt lat="41.9103250" lon="-2.8798000">
        <ele>1364.6</ele>
        <time>2022-02-08T10:23:54Z</time>
      </trkpt>
      <trkpt lat="41.9103030" lon="-2.8797470">
        <ele>1364.8</ele>
        <time>2022-02-08T10:23:55Z</time>
      </trkpt>
      <trkpt lat="41.9102870" lon="-2.8797050">
        <ele>1364.9</ele>
        <time>2022-02-08T10:23:56Z</time>
      </trkpt>
      <trkpt lat="41.9102620" lon="-2.8796620">
        <ele>1365.0</ele>
        <time>2022-02-08T10:23:57Z</time>
      </trkpt>
      <trkpt lat="41.9102320" lon="-2.8796180">
        <ele>1365.1</ele>
        <time>2022-02-08T10:23:58Z</time>
      </trkpt>
      <trkpt lat="41.9102100" lon="-2.8795680">
        <ele>1365.3</ele>
        <time>2022-02-08T10:23:59Z</time>
      </trkpt>
      <trkpt lat="41.9101850" lon="-2.8795220">
        <ele>1365.4</ele>
        <time>2022-02-08T10:24:00Z</time>
      </trkpt>
      <trkpt lat="41.9101570" lon="-2.8794770">
        <ele>1365.5</ele>
        <time>2022-02-08T10:24:01Z</time>
      </trkpt>
      <trkpt lat="41.9101320" lon="-2.8794270">
        <ele>1365.6</ele>
        <time>2022-02-08T10:24:02Z</time>
      </trkpt>
      <trkpt lat="41.9101180" lon="-2.8793750">
        <ele>1365.7</ele>
        <time>2022-02-08T10:24:03Z</time>
      </trkpt>
      <trkpt lat="41.9100930" lon="-2.8793270">
        <ele>1365.8</ele>
        <time>2022-02-08T10:24:04Z</time>
      </trkpt>
      <trkpt lat="41.9100680" lon="-2.8792780">
        <ele>1365.9</ele>
        <time>2022-02-08T10:24:05Z</time>
      </trkpt>
      <trkpt lat="41.9100420" lon="-2.8792300">
        <ele>1366.0</ele>
        <time>2022-02-08T10:24:06Z</time>
      </trkpt>
      <trkpt lat="41.9100150" lon="-2.8791830">
        <ele>1366.1</ele>
        <time>2022-02-08T10:24:07Z</time>
      </trkpt>
      <trkpt lat="41.9099850" lon="-2.8791380">
        <ele>1366.3</ele>
        <time>2022-02-08T10:24:08Z</time>
      </trkpt>
      <trkpt lat="41.9099570" lon="-2.8790920">
        <ele>1366.4</ele>
        <time>2022-02-08T10:24:09Z</time>
      </trkpt>
      <trkpt lat="41.9099270" lon="-2.8790450">
        <ele>1366.5</ele>
        <time>2022-02-08T10:24:10Z</time>
      </trkpt>
      <trkpt lat="41.9098950" lon="-2.8790000">
        <ele>1366.7</ele>
        <time>2022-02-08T10:24:11Z</time>
      </trkpt>
      <trkpt lat="41.9098630" lon="-2.8789570">
        <ele>1366.8</ele>
        <time>2022-02-08T10:24:12Z</time>
      </trkpt>
      <trkpt lat="41.9098280" lon="-2.8789170">
        <ele>1367.0</ele>
        <time>2022-02-08T10:24:13Z</time>
      </trkpt>
      <trkpt lat="41.9097930" lon="-2.8788820">
        <ele>1367.1</ele>
        <time>2022-02-08T10:24:14Z</time>
      </trkpt>
      <trkpt lat="41.9097600" lon="-2.8788450">
        <ele>1367.2</ele>
        <time>2022-02-08T10:24:15Z</time>
      </trkpt>
      <trkpt lat="41.9097280" lon="-2.8788100">
        <ele>1367.4</ele>
        <time>2022-02-08T10:24:16Z</time>
      </trkpt>
      <trkpt lat="41.9096950" lon="-2.8787730">
        <ele>1367.5</ele>
        <time>2022-02-08T10:24:17Z</time>
      </trkpt>
      <trkpt lat="41.9096600" lon="-2.8787370">
        <ele>1367.7</ele>
        <time>2022-02-08T10:24:18Z</time>
      </trkpt>
      <trkpt lat="41.9096230" lon="-2.8787050">
        <ele>1367.8</ele>
        <time>2022-02-08T10:24:19Z</time>
      </trkpt>
      <trkpt lat="41.9095870" lon="-2.8786750">
        <ele>1367.9</ele>
        <time>2022-02-08T10:24:20Z</time>
      </trkpt>
      <trkpt lat="41.9095520" lon="-2.8786450">
        <ele>1367.9</ele>
        <time>2022-02-08T10:24:21Z</time>
      </trkpt>
      <trkpt lat="41.9095150" lon="-2.8786150">
        <ele>1368.0</ele>
        <time>2022-02-08T10:24:22Z</time>
      </trkpt>
      <trkpt lat="41.9094780" lon="-2.8785900">
        <ele>1368.0</ele>
        <time>2022-02-08T10:24:23Z</time>
      </trkpt>
      <trkpt lat="41.9094450" lon="-2.8785630">
        <ele>1368.0</ele>
        <time>2022-02-08T10:24:24Z</time>
      </trkpt>
      <trkpt lat="41.9094120" lon="-2.8785400">
        <ele>1368.0</ele>
        <time>2022-02-08T10:24:25Z</time>
      </trkpt>
      <trkpt lat="41.9093750" lon="-2.8785100">
        <ele>1368.0</ele>
        <time>2022-02-08T10:24:26Z</time>
      </trkpt>
      <trkpt lat="41.9093370" lon="-2.8784850">
        <ele>1368.0</ele>
        <time>2022-02-08T10:24:27Z</time>
      </trkpt>
      <trkpt lat="41.9092970" lon="-2.8784620">
        <ele>1368.1</ele>
        <time>2022-02-08T10:24:28Z</time>
      </trkpt>
      <trkpt lat="41.9092580" lon="-2.8784450">
        <ele>1368.1</ele>
        <time>2022-02-08T10:24:29Z</time>
      </trkpt>
      <trkpt lat="41.9092150" lon="-2.8784200">
        <ele>1368.1</ele>
        <time>2022-02-08T10:24:30Z</time>
      </trkpt>
      <trkpt lat="41.9091650" lon="-2.8783880">
        <ele>1368.1</ele>
        <time>2022-02-08T10:24:31Z</time>
      </trkpt>
      <trkpt lat="41.9091180" lon="-2.8783650">
        <ele>1368.1</ele>
        <time>2022-02-08T10:24:32Z</time>
      </trkpt>
      <trkpt lat="41.9090720" lon="-2.8783500">
        <ele>1368.0</ele>
        <time>2022-02-08T10:24:33Z</time>
      </trkpt>
      <trkpt lat="41.9090170" lon="-2.8783470">
        <ele>1368.0</ele>
        <time>2022-02-08T10:24:34Z</time>
      </trkpt>
      <trkpt lat="41.9089600" lon="-2.8783280">
        <ele>1367.9</ele>
        <time>2022-02-08T10:24:35Z</time>
      </trkpt>
      <trkpt lat="41.9089220" lon="-2.8783000">
        <ele>1367.9</ele>
        <time>2022-02-08T10:24:36Z</time>
      </trkpt>
      <trkpt lat="41.9088820" lon="-2.8782700">
        <ele>1367.9</ele>
        <time>2022-02-08T10:24:37Z</time>
      </trkpt>
      <trkpt lat="41.9088400" lon="-2.8782320">
        <ele>1367.9</ele>
        <time>2022-02-08T10:24:38Z</time>
      </trkpt>
      <trkpt lat="41.9087930" lon="-2.8781850">
        <ele>1368.0</ele>
        <time>2022-02-08T10:24:39Z</time>
      </trkpt>
      <trkpt lat="41.9087580" lon="-2.8781330">
        <ele>1368.0</ele>
        <time>2022-02-08T10:24:40Z</time>
      </trkpt>
      <trkpt lat="41.9087380" lon="-2.8780720">
        <ele>1368.1</ele>
        <time>2022-02-08T10:24:41Z</time>
      </trkpt>
      <trkpt lat="41.9087230" lon="-2.8780130">
        <ele>1368.2</ele>
        <time>2022-02-08T10:24:42Z</time>
      </trkpt>
      <trkpt lat="41.9087150" lon="-2.8779570">
        <ele>1368.3</ele>
        <time>2022-02-08T10:24:43Z</time>
      </trkpt>
      <trkpt lat="41.9087150" lon="-2.8778930">
        <ele>1368.4</ele>
        <time>2022-02-08T10:24:44Z</time>
      </trkpt>
      <trkpt lat="41.9087100" lon="-2.8778330">
        <ele>1368.5</ele>
        <time>2022-02-08T10:24:45Z</time>
      </trkpt>
      <trkpt lat="41.9087120" lon="-2.8777670">
        <ele>1368.6</ele>
        <time>2022-02-08T10:24:46Z</time>
      </trkpt>
      <trkpt lat="41.9087120" lon="-2.8776970">
        <ele>1368.8</ele>
        <time>2022-02-08T10:24:47Z</time>
      </trkpt>
      <trkpt lat="41.9087100" lon="-2.8776350">
        <ele>1368.9</ele>
        <time>2022-02-08T10:24:48Z</time>
      </trkpt>
      <trkpt lat="41.9087100" lon="-2.8775750">
        <ele>1369.0</ele>
        <time>2022-02-08T10:24:49Z</time>
      </trkpt>
      <trkpt lat="41.9087200" lon="-2.8775070">
        <ele>1369.2</ele>
        <time>2022-02-08T10:24:50Z</time>
      </trkpt>
      <trkpt lat="41.9087280" lon="-2.8774420">
        <ele>1369.4</ele>
        <time>2022-02-08T10:24:51Z</time>
      </trkpt>
      <trkpt lat="41.9087250" lon="-2.8773870">
        <ele>1369.5</ele>
        <time>2022-02-08T10:24:52Z</time>
      </trkpt>
      <trkpt lat="41.9087180" lon="-2.8773330">
        <ele>1369.7</ele>
        <time>2022-02-08T10:24:53Z</time>
      </trkpt>
      <trkpt lat="41.9087180" lon="-2.8772800">
        <ele>1369.8</ele>
        <time>2022-02-08T10:24:54Z</time>
      </trkpt>
      <trkpt lat="41.9087170" lon="-2.8772320">
        <ele>1370.0</ele>
        <time>2022-02-08T10:24:55Z</time>
      </trkpt>
      <trkpt lat="41.9087180" lon="-2.8771870">
        <ele>1370.2</ele>
        <time>2022-02-08T10:24:56Z</time>
      </trkpt>
      <trkpt lat="41.9087130" lon="-2.8771430">
        <ele>1370.4</ele>
        <time>2022-02-08T10:24:57Z</time>
      </trkpt>
      <trkpt lat="41.9087120" lon="-2.8771150">
        <ele>1370.5</ele>
        <time>2022-02-08T10:24:58Z</time>
      </trkpt>
      <trkpt lat="41.9087080" lon="-2.8770770">
        <ele>1370.7</ele>
        <time>2022-02-08T10:24:59Z</time>
      </trkpt>
      <trkpt lat="41.9087050" lon="-2.8770400">
        <ele>1370.9</ele>
        <time>2022-02-08T10:25:00Z</time>
      </trkpt>
      <trkpt lat="41.9087020" lon="-2.8770000">
        <ele>1371.2</ele>
        <time>2022-02-08T10:25:01Z</time>
      </trkpt>
      <trkpt lat="41.9087050" lon="-2.8769570">
        <ele>1371.4</ele>
        <time>2022-02-08T10:25:02Z</time>
      </trkpt>
      <trkpt lat="41.9087100" lon="-2.8769080">
        <ele>1371.7</ele>
        <time>2022-02-08T10:25:03Z</time>
      </trkpt>
      <trkpt lat="41.9087100" lon="-2.8768630">
        <ele>1372.0</ele>
        <time>2022-02-08T10:25:04Z</time>
      </trkpt>
      <trkpt lat="41.9087130" lon="-2.8768220">
        <ele>1372.3</ele>
        <time>2022-02-08T10:25:05Z</time>
      </trkpt>
      <trkpt lat="41.9087070" lon="-2.8767780">
        <ele>1372.7</ele>
        <time>2022-02-08T10:25:06Z</time>
      </trkpt>
      <trkpt lat="41.9087020" lon="-2.8767320">
        <ele>1373.0</ele>
        <time>2022-02-08T10:25:07Z</time>
      </trkpt>
      <trkpt lat="41.9086920" lon="-2.8766950">
        <ele>1373.3</ele>
        <time>2022-02-08T10:25:08Z</time>
      </trkpt>
      <trkpt lat="41.9086800" lon="-2.8766520">
        <ele>1373.7</ele>
        <time>2022-02-08T10:25:09Z</time>
      </trkpt>
      <trkpt lat="41.9086700" lon="-2.8766120">
        <ele>1374.0</ele>
        <time>2022-02-08T10:25:10Z</time>
      </trkpt>
      <trkpt lat="41.9086670" lon="-2.8765680">
        <ele>1374.4</ele>
        <time>2022-02-08T10:25:11Z</time>
      </trkpt>
      <trkpt lat="41.9086620" lon="-2.8765250">
        <ele>1374.7</ele>
        <time>2022-02-08T10:25:12Z</time>
      </trkpt>
      <trkpt lat="41.9086600" lon="-2.8764730">
        <ele>1375.1</ele>
        <time>2022-02-08T10:25:13Z</time>
      </trkpt>
      <trkpt lat="41.9086520" lon="-2.8764420">
        <ele>1375.4</ele>
        <time>2022-02-08T10:25:14Z</time>
      </trkpt>
      <trkpt lat="41.9086430" lon="-2.8764020">
        <ele>1375.7</ele>
        <time>2022-02-08T10:25:15Z</time>
      </trkpt>
      <trkpt lat="41.9086400" lon="-2.8763620">
        <ele>1376.0</ele>
        <time>2022-02-08T10:25:16Z</time>
      </trkpt>
      <trkpt lat="41.9086320" lon="-2.8763270">
        <ele>1376.3</ele>
        <time>2022-02-08T10:25:17Z</time>
      </trkpt>
      <trkpt lat="41.9086250" lon="-2.8762930">
        <ele>1376.5</ele>
        <time>2022-02-08T10:25:18Z</time>
      </trkpt>
      <trkpt lat="41.9086180" lon="-2.8762580">
        <ele>1376.8</ele>
        <time>2022-02-08T10:25:19Z</time>
      </trkpt>
      <trkpt lat="41.9086080" lon="-2.8762200">
        <ele>1377.1</ele>
        <time>2022-02-08T10:25:20Z</time>
      </trkpt>
      <trkpt lat="41.9086000" lon="-2.8761880">
        <ele>1377.3</ele>
        <time>2022-02-08T10:25:21Z</time>
      </trkpt>
      <trkpt lat="41.9085920" lon="-2.8761520">
        <ele>1377.6</ele>
        <time>2022-02-08T10:25:22Z</time>
      </trkpt>
      <trkpt lat="41.9085780" lon="-2.8761150">
        <ele>1377.9</ele>
        <time>2022-02-08T10:25:23Z</time>
      </trkpt>
      <trkpt lat="41.9085680" lon="-2.8760750">
        <ele>1378.2</ele>
        <time>2022-02-08T10:25:24Z</time>
      </trkpt>
      <trkpt lat="41.9085550" lon="-2.8760350">
        <ele>1378.5</ele>
        <time>2022-02-08T10:25:25Z</time>
      </trkpt>
      <trkpt lat="41.9085430" lon="-2.8760000">
        <ele>1378.8</ele>
        <time>2022-02-08T10:25:26Z</time>
      </trkpt>
      <trkpt lat="41.9085300" lon="-2.8759620">
        <ele>1379.2</ele>
        <time>2022-02-08T10:25:27Z</time>
      </trkpt>
      <trkpt lat="41.9085180" lon="-2.8759270">
        <ele>1379.5</ele>
        <time>2022-02-08T10:25:28Z</time>
      </trkpt>
      <trkpt lat="41.9085100" lon="-2.8758950">
        <ele>1379.7</ele>
        <time>2022-02-08T10:25:29Z</time>
      </trkpt>
      <trkpt lat="41.9084980" lon="-2.8758600">
        <ele>1380.0</ele>
        <time>2022-02-08T10:25:30Z</time>
      </trkpt>
      <trkpt lat="41.9084920" lon="-2.8758280">
        <ele>1380.3</ele>
        <time>2022-02-08T10:25:31Z</time>
      </trkpt>
      <trkpt lat="41.9084870" lon="-2.8757930">
        <ele>1380.5</ele>
        <time>2022-02-08T10:25:32Z</time>
      </trkpt>
      <trkpt lat="41.9084870" lon="-2.8757570">
        <ele>1380.8</ele>
        <time>2022-02-08T10:25:33Z</time>
      </trkpt>
      <trkpt lat="41.9084720" lon="-2.8757180">
        <ele>1381.2</ele>
        <time>2022-02-08T10:25:34Z</time>
      </trkpt>
      <trkpt lat="41.9084630" lon="-2.8756800">
        <ele>1381.5</ele>
        <time>2022-02-08T10:25:35Z</time>
      </trkpt>
      <trkpt lat="41.9084600" lon="-2.8756330">
        <ele>1381.9</ele>
        <time>2022-02-08T10:25:36Z</time>
      </trkpt>
      <trkpt lat="41.9084520" lon="-2.8756020">
        <ele>1382.1</ele>
        <time>2022-02-08T10:25:37Z</time>
      </trkpt>
      <trkpt lat="41.9084370" lon="-2.8755650">
        <ele>1382.5</ele>
        <time>2022-02-08T10:25:38Z</time>
      </trkpt>
      <trkpt lat="41.9084280" lon="-2.8755420">
        <ele>1382.7</ele>
        <time>2022-02-08T10:25:39Z</time>
      </trkpt>
      <trkpt lat="41.9084230" lon="-2.8755170">
        <ele>1382.9</ele>
        <time>2022-02-08T10:25:40Z</time>
      </trkpt>
      <trkpt lat="41.9084250" lon="-2.8754930">
        <ele>1383.1</ele>
        <time>2022-02-08T10:25:41Z</time>
      </trkpt>
      <trkpt lat="41.9084280" lon="-2.8754670">
        <ele>1383.3</ele>
        <time>2022-02-08T10:25:42Z</time>
      </trkpt>
      <trkpt lat="41.9084180" lon="-2.8754300">
        <ele>1383.6</ele>
        <time>2022-02-08T10:25:43Z</time>
      </trkpt>
      <trkpt lat="41.9084100" lon="-2.8754050">
        <ele>1383.8</ele>
        <time>2022-02-08T10:25:44Z</time>
      </trkpt>
      <trkpt lat="41.9083980" lon="-2.8753750">
        <ele>1384.0</ele>
        <time>2022-02-08T10:25:45Z</time>
      </trkpt>
      <trkpt lat="41.9083880" lon="-2.8753450">
        <ele>1384.2</ele>
        <time>2022-02-08T10:25:46Z</time>
      </trkpt>
      <trkpt lat="41.9083800" lon="-2.8753130">
        <ele>1384.5</ele>
        <time>2022-02-08T10:25:47Z</time>
      </trkpt>
      <trkpt lat="41.9083730" lon="-2.8752830">
        <ele>1384.7</ele>
        <time>2022-02-08T10:25:48Z</time>
      </trkpt>
      <trkpt lat="41.9083630" lon="-2.8752520">
        <ele>1384.9</ele>
        <time>2022-02-08T10:25:49Z</time>
      </trkpt>
      <trkpt lat="41.9083530" lon="-2.8752170">
        <ele>1385.1</ele>
        <time>2022-02-08T10:25:50Z</time>
      </trkpt>
      <trkpt lat="41.9083480" lon="-2.8751800">
        <ele>1385.3</ele>
        <time>2022-02-08T10:25:51Z</time>
      </trkpt>
      <trkpt lat="41.9083400" lon="-2.8751470">
        <ele>1385.5</ele>
        <time>2022-02-08T10:25:52Z</time>
      </trkpt>
      <trkpt lat="41.9083320" lon="-2.8751180">
        <ele>1385.7</ele>
        <time>2022-02-08T10:25:53Z</time>
      </trkpt>
      <trkpt lat="41.9083220" lon="-2.8750880">
        <ele>1385.9</ele>
        <time>2022-02-08T10:25:54Z</time>
      </trkpt>
      <trkpt lat="41.9083100" lon="-2.8750730">
        <ele>1386.0</ele>
        <time>2022-02-08T10:25:55Z</time>
      </trkpt>
      <trkpt lat="41.9083000" lon="-2.8750420">
        <ele>1386.3</ele>
        <time>2022-02-08T10:25:56Z</time>
      </trkpt>
      <trkpt lat="41.9082900" lon="-2.8750050">
        <ele>1386.5</ele>
        <time>2022-02-08T10:25:57Z</time>
      </trkpt>
      <trkpt lat="41.9082780" lon="-2.8749720">
        <ele>1386.8</ele>
        <time>2022-02-08T10:25:58Z</time>
      </trkpt>
      <trkpt lat="41.9082730" lon="-2.8749380">
        <ele>1387.0</ele>
        <time>2022-02-08T10:25:59Z</time>
      </trkpt>
      <trkpt lat="41.9082650" lon="-2.8749080">
        <ele>1387.2</ele>
        <time>2022-02-08T10:26:00Z</time>
      </trkpt>
      <trkpt lat="41.9082580" lon="-2.8748730">
        <ele>1387.5</ele>
        <time>2022-02-08T10:26:01Z</time>
      </trkpt>
      <trkpt lat="41.9082550" lon="-2.8748400">
        <ele>1387.7</ele>
        <time>2022-02-08T10:26:02Z</time>
      </trkpt>
      <trkpt lat="41.9082520" lon="-2.8748080">
        <ele>1387.9</ele>
        <time>2022-02-08T10:26:03Z</time>
      </trkpt>
      <trkpt lat="41.9082480" lon="-2.8747750">
        <ele>1388.1</ele>
        <time>2022-02-08T10:26:04Z</time>
      </trkpt>
      <trkpt lat="41.9082430" lon="-2.8747430">
        <ele>1388.3</ele>
        <time>2022-02-08T10:26:05Z</time>
      </trkpt>
      <trkpt lat="41.9082370" lon="-2.8747120">
        <ele>1388.4</ele>
        <time>2022-02-08T10:26:06Z</time>
      </trkpt>
      <trkpt lat="41.9082300" lon="-2.8746820">
        <ele>1388.6</ele>
        <time>2022-02-08T10:26:07Z</time>
      </trkpt>
      <trkpt lat="41.9082230" lon="-2.8746480">
        <ele>1388.8</ele>
        <time>2022-02-08T10:26:08Z</time>
      </trkpt>
      <trkpt lat="41.9082150" lon="-2.8746170">
        <ele>1389.0</ele>
        <time>2022-02-08T10:26:09Z</time>
      </trkpt>
      <trkpt lat="41.9082070" lon="-2.8745870">
        <ele>1389.1</ele>
        <time>2022-02-08T10:26:10Z</time>
      </trkpt>
      <trkpt lat="41.9081970" lon="-2.8745570">
        <ele>1389.3</ele>
        <time>2022-02-08T10:26:11Z</time>
      </trkpt>
      <trkpt lat="41.9081870" lon="-2.8745250">
        <ele>1389.5</ele>
        <time>2022-02-08T10:26:12Z</time>
      </trkpt>
      <trkpt lat="41.9081800" lon="-2.8744900">
        <ele>1389.7</ele>
        <time>2022-02-08T10:26:13Z</time>
      </trkpt>
      <trkpt lat="41.9081700" lon="-2.8744570">
        <ele>1389.9</ele>
        <time>2022-02-08T10:26:14Z</time>
      </trkpt>
      <trkpt lat="41.9081630" lon="-2.8744230">
        <ele>1390.1</ele>
        <time>2022-02-08T10:26:15Z</time>
      </trkpt>
      <trkpt lat="41.9081530" lon="-2.8743920">
        <ele>1390.3</ele>
        <time>2022-02-08T10:26:16Z</time>
      </trkpt>
      <trkpt lat="41.9081450" lon="-2.8743580">
        <ele>1390.4</ele>
        <time>2022-02-08T10:26:17Z</time>
      </trkpt>
      <trkpt lat="41.9081350" lon="-2.8743250">
        <ele>1390.6</ele>
        <time>2022-02-08T10:26:18Z</time>
      </trkpt>
      <trkpt lat="41.9081270" lon="-2.8742900">
        <ele>1390.8</ele>
        <time>2022-02-08T10:26:19Z</time>
      </trkpt>
      <trkpt lat="41.9081180" lon="-2.8742570">
        <ele>1390.9</ele>
        <time>2022-02-08T10:26:20Z</time>
      </trkpt>
      <trkpt lat="41.9081130" lon="-2.8742230">
        <ele>1391.1</ele>
        <time>2022-02-08T10:26:21Z</time>
      </trkpt>
      <trkpt lat="41.9081030" lon="-2.8741880">
        <ele>1391.3</ele>
        <time>2022-02-08T10:26:22Z</time>
      </trkpt>
      <trkpt lat="41.9080930" lon="-2.8741500">
        <ele>1391.5</ele>
        <time>2022-02-08T10:26:23Z</time>
      </trkpt>
      <trkpt lat="41.9080830" lon="-2.8741150">
        <ele>1391.6</ele>
        <time>2022-02-08T10:26:24Z</time>
      </trkpt>
      <trkpt lat="41.9080730" lon="-2.8740780">
        <ele>1391.8</ele>
        <time>2022-02-08T10:26:25Z</time>
      </trkpt>
      <trkpt lat="41.9080620" lon="-2.8740450">
        <ele>1391.9</ele>
        <time>2022-02-08T10:26:26Z</time>
      </trkpt>
      <trkpt lat="41.9080470" lon="-2.8740100">
        <ele>1392.1</ele>
        <time>2022-02-08T10:26:27Z</time>
      </trkpt>
      <trkpt lat="41.9080300" lon="-2.8739750">
        <ele>1392.3</ele>
        <time>2022-02-08T10:26:28Z</time>
      </trkpt>
      <trkpt lat="41.9080180" lon="-2.8739380">
        <ele>1392.4</ele>
        <time>2022-02-08T10:26:29Z</time>
      </trkpt>
      <trkpt lat="41.9080070" lon="-2.8739020">
        <ele>1392.5</ele>
        <time>2022-02-08T10:26:30Z</time>
      </trkpt>
      <trkpt lat="41.9079950" lon="-2.8738630">
        <ele>1392.7</ele>
        <time>2022-02-08T10:26:31Z</time>
      </trkpt>
      <trkpt lat="41.9079830" lon="-2.8738270">
        <ele>1392.8</ele>
        <time>2022-02-08T10:26:32Z</time>
      </trkpt>
      <trkpt lat="41.9079700" lon="-2.8737880">
        <ele>1392.9</ele>
        <time>2022-02-08T10:26:33Z</time>
      </trkpt>
      <trkpt lat="41.9079550" lon="-2.8737530">
        <ele>1393.0</ele>
        <time>2022-02-08T10:26:34Z</time>
      </trkpt>
      <trkpt lat="41.9079400" lon="-2.8737170">
        <ele>1393.1</ele>
        <time>2022-02-08T10:26:35Z</time>
      </trkpt>
      <trkpt lat="41.9079230" lon="-2.8736750">
        <ele>1393.2</ele>
        <time>2022-02-08T10:26:36Z</time>
      </trkpt>
      <trkpt lat="41.9079150" lon="-2.8736450">
        <ele>1393.3</ele>
        <time>2022-02-08T10:26:37Z</time>
      </trkpt>
      <trkpt lat="41.9079020" lon="-2.8736050">
        <ele>1393.4</ele>
        <time>2022-02-08T10:26:38Z</time>
      </trkpt>
      <trkpt lat="41.9078850" lon="-2.8735700">
        <ele>1393.5</ele>
        <time>2022-02-08T10:26:39Z</time>
      </trkpt>
      <trkpt lat="41.9078700" lon="-2.8735350">
        <ele>1393.6</ele>
        <time>2022-02-08T10:26:40Z</time>
      </trkpt>
      <trkpt lat="41.9078500" lon="-2.8735000">
        <ele>1393.7</ele>
        <time>2022-02-08T10:26:41Z</time>
      </trkpt>
      <trkpt lat="41.9078350" lon="-2.8734650">
        <ele>1393.7</ele>
        <time>2022-02-08T10:26:42Z</time>
      </trkpt>
      <trkpt lat="41.9078180" lon="-2.8734300">
        <ele>1393.8</ele>
        <time>2022-02-08T10:26:43Z</time>
      </trkpt>
      <trkpt lat="41.9078020" lon="-2.8733950">
        <ele>1393.9</ele>
        <time>2022-02-08T10:26:44Z</time>
      </trkpt>
      <trkpt lat="41.9077830" lon="-2.8733580">
        <ele>1393.9</ele>
        <time>2022-02-08T10:26:45Z</time>
      </trkpt>
      <trkpt lat="41.9077650" lon="-2.8733220">
        <ele>1394.0</ele>
        <time>2022-02-08T10:26:46Z</time>
      </trkpt>
      <trkpt lat="41.9077470" lon="-2.8732870">
        <ele>1394.1</ele>
        <time>2022-02-08T10:26:47Z</time>
      </trkpt>
      <trkpt lat="41.9077280" lon="-2.8732520">
        <ele>1394.1</ele>
        <time>2022-02-08T10:26:48Z</time>
      </trkpt>
      <trkpt lat="41.9077120" lon="-2.8732150">
        <ele>1394.2</ele>
        <time>2022-02-08T10:26:49Z</time>
      </trkpt>
      <trkpt lat="41.9076930" lon="-2.8731800">
        <ele>1394.2</ele>
        <time>2022-02-08T10:26:50Z</time>
      </trkpt>
      <trkpt lat="41.9076700" lon="-2.8731480">
        <ele>1394.3</ele>
        <time>2022-02-08T10:26:51Z</time>
      </trkpt>
      <trkpt lat="41.9076450" lon="-2.8731200">
        <ele>1394.3</ele>
        <time>2022-02-08T10:26:52Z</time>
      </trkpt>
      <trkpt lat="41.9076200" lon="-2.8730880">
        <ele>1394.4</ele>
        <time>2022-02-08T10:26:53Z</time>
      </trkpt>
      <trkpt lat="41.9075970" lon="-2.8730570">
        <ele>1394.4</ele>
        <time>2022-02-08T10:26:54Z</time>
      </trkpt>
      <trkpt lat="41.9075730" lon="-2.8730230">
        <ele>1394.4</ele>
        <time>2022-02-08T10:26:55Z</time>
      </trkpt>
      <trkpt lat="41.9075500" lon="-2.8729900">
        <ele>1394.4</ele>
        <time>2022-02-08T10:26:56Z</time>
      </trkpt>
      <trkpt lat="41.9075280" lon="-2.8729570">
        <ele>1394.4</ele>
        <time>2022-02-08T10:26:57Z</time>
      </trkpt>
      <trkpt lat="41.9075080" lon="-2.8729220">
        <ele>1394.4</ele>
        <time>2022-02-08T10:26:58Z</time>
      </trkpt>
      <trkpt lat="41.9074820" lon="-2.8728820">
        <ele>1394.4</ele>
        <time>2022-02-08T10:26:59Z</time>
      </trkpt>
      <trkpt lat="41.9074650" lon="-2.8728530">
        <ele>1394.4</ele>
        <time>2022-02-08T10:27:00Z</time>
      </trkpt>
      <trkpt lat="41.9074420" lon="-2.8728170">
        <ele>1394.4</ele>
        <time>2022-02-08T10:27:01Z</time>
      </trkpt>
      <trkpt lat="41.9074180" lon="-2.8727780">
        <ele>1394.3</ele>
        <time>2022-02-08T10:27:02Z</time>
      </trkpt>
      <trkpt lat="41.9073930" lon="-2.8727430">
        <ele>1394.3</ele>
        <time>2022-02-08T10:27:03Z</time>
      </trkpt>
      <trkpt lat="41.9073670" lon="-2.8727130">
        <ele>1394.2</ele>
        <time>2022-02-08T10:27:04Z</time>
      </trkpt>
      <trkpt lat="41.9073370" lon="-2.8726820">
        <ele>1394.2</ele>
        <time>2022-02-08T10:27:05Z</time>
      </trkpt>
      <trkpt lat="41.9073070" lon="-2.8726480">
        <ele>1394.1</ele>
        <time>2022-02-08T10:27:06Z</time>
      </trkpt>
      <trkpt lat="41.9072770" lon="-2.8726150">
        <ele>1393.9</ele>
        <time>2022-02-08T10:27:07Z</time>
      </trkpt>
      <trkpt lat="41.9072450" lon="-2.8725770">
        <ele>1393.8</ele>
        <time>2022-02-08T10:27:08Z</time>
      </trkpt>
      <trkpt lat="41.9072130" lon="-2.8725330">
        <ele>1393.6</ele>
        <time>2022-02-08T10:27:09Z</time>
      </trkpt>
      <trkpt lat="41.9071850" lon="-2.8724880">
        <ele>1393.4</ele>
        <time>2022-02-08T10:27:10Z</time>
      </trkpt>
      <trkpt lat="41.9071530" lon="-2.8724400">
        <ele>1393.2</ele>
        <time>2022-02-08T10:27:11Z</time>
      </trkpt>
      <trkpt lat="41.9071320" lon="-2.8723900">
        <ele>1393.0</ele>
        <time>2022-02-08T10:27:12Z</time>
      </trkpt>
      <trkpt lat="41.9071030" lon="-2.8723300">
        <ele>1392.8</ele>
        <time>2022-02-08T10:27:13Z</time>
      </trkpt>
      <trkpt lat="41.9070780" lon="-2.8722650">
        <ele>1392.5</ele>
        <time>2022-02-08T10:27:14Z</time>
      </trkpt>
      <trkpt lat="41.9070530" lon="-2.8721930">
        <ele>1392.2</ele>
        <time>2022-02-08T10:27:15Z</time>
      </trkpt>
      <trkpt lat="41.9070330" lon="-2.8721170">
        <ele>1392.0</ele>
        <time>2022-02-08T10:27:16Z</time>
      </trkpt>
      <trkpt lat="41.9070170" lon="-2.8720350">
        <ele>1391.7</ele>
        <time>2022-02-08T10:27:17Z</time>
      </trkpt>
      <trkpt lat="41.9070030" lon="-2.8719480">
        <ele>1391.4</ele>
        <time>2022-02-08T10:27:18Z</time>
      </trkpt>
      <trkpt lat="41.9069820" lon="-2.8718620">
        <ele>1391.1</ele>
        <time>2022-02-08T10:27:19Z</time>
      </trkpt>
      <trkpt lat="41.9069570" lon="-2.8717770">
        <ele>1390.7</ele>
        <time>2022-02-08T10:27:20Z</time>
      </trkpt>
      <trkpt lat="41.9069220" lon="-2.8716980">
        <ele>1390.3</ele>
        <time>2022-02-08T10:27:21Z</time>
      </trkpt>
      <trkpt lat="41.9068720" lon="-2.8716320">
        <ele>1389.8</ele>
        <time>2022-02-08T10:27:22Z</time>
      </trkpt>
      <trkpt lat="41.9068120" lon="-2.8715830">
        <ele>1389.2</ele>
        <time>2022-02-08T10:27:23Z</time>
      </trkpt>
      <trkpt lat="41.9067450" lon="-2.8715530">
        <ele>1388.5</ele>
        <time>2022-02-08T10:27:24Z</time>
      </trkpt>
      <trkpt lat="41.9066580" lon="-2.8715550">
        <ele>1387.7</ele>
        <time>2022-02-08T10:27:25Z</time>
      </trkpt>
      <trkpt lat="41.9065780" lon="-2.8715630">
        <ele>1387.0</ele>
        <time>2022-02-08T10:27:26Z</time>
      </trkpt>
      <trkpt lat="41.9064970" lon="-2.8715830">
        <ele>1386.2</ele>
        <time>2022-02-08T10:27:27Z</time>
      </trkpt>
      <trkpt lat="41.9063900" lon="-2.8716120">
        <ele>1385.1</ele>
        <time>2022-02-08T10:27:28Z</time>
      </trkpt>
      <trkpt lat="41.9063130" lon="-2.8716170">
        <ele>1384.4</ele>
        <time>2022-02-08T10:27:29Z</time>
      </trkpt>
      <trkpt lat="41.9062230" lon="-2.8715980">
        <ele>1383.4</ele>
        <time>2022-02-08T10:27:30Z</time>
      </trkpt>
      <trkpt lat="41.9061330" lon="-2.8715650">
        <ele>1382.4</ele>
        <time>2022-02-08T10:27:31Z</time>
      </trkpt>
      <trkpt lat="41.9060400" lon="-2.8714870">
        <ele>1381.2</ele>
        <time>2022-02-08T10:27:32Z</time>
      </trkpt>
      <trkpt lat="41.9059830" lon="-2.8713980">
        <ele>1380.2</ele>
        <time>2022-02-08T10:27:33Z</time>
      </trkpt>
      <trkpt lat="41.9059330" lon="-2.8712930">
        <ele>1379.2</ele>
        <time>2022-02-08T10:27:34Z</time>
      </trkpt>
      <trkpt lat="41.9059050" lon="-2.8711970">
        <ele>1378.5</ele>
        <time>2022-02-08T10:27:35Z</time>
      </trkpt>
      <trkpt lat="41.9058800" lon="-2.8710670">
        <ele>1377.5</ele>
        <time>2022-02-08T10:27:36Z</time>
      </trkpt>
      <trkpt lat="41.9058700" lon="-2.8709320">
        <ele>1376.6</ele>
        <time>2022-02-08T10:27:37Z</time>
      </trkpt>
      <trkpt lat="41.9058620" lon="-2.8707980">
        <ele>1375.7</ele>
        <time>2022-02-08T10:27:38Z</time>
      </trkpt>
      <trkpt lat="41.9058550" lon="-2.8706630">
        <ele>1374.7</ele>
        <time>2022-02-08T10:27:39Z</time>
      </trkpt>
      <trkpt lat="41.9058430" lon="-2.8705280">
        <ele>1373.8</ele>
        <time>2022-02-08T10:27:40Z</time>
      </trkpt>
      <trkpt lat="41.9058400" lon="-2.8703880">
        <ele>1372.9</ele>
        <time>2022-02-08T10:27:41Z</time>
      </trkpt>
      <trkpt lat="41.9058280" lon="-2.8702220">
        <ele>1371.7</ele>
        <time>2022-02-08T10:27:42Z</time>
      </trkpt>
      <trkpt lat="41.9058150" lon="-2.8700850">
        <ele>1370.7</ele>
        <time>2022-02-08T10:27:43Z</time>
      </trkpt>
      <trkpt lat="41.9057920" lon="-2.8699530">
        <ele>1369.8</ele>
        <time>2022-02-08T10:27:44Z</time>
      </trkpt>
      <trkpt lat="41.9057470" lon="-2.8698350">
        <ele>1368.9</ele>
        <time>2022-02-08T10:27:45Z</time>
      </trkpt>
      <trkpt lat="41.9056980" lon="-2.8697250">
        <ele>1368.1</ele>
        <time>2022-02-08T10:27:46Z</time>
      </trkpt>
      <trkpt lat="41.9056500" lon="-2.8696520">
        <ele>1367.6</ele>
        <time>2022-02-08T10:27:47Z</time>
      </trkpt>
      <trkpt lat="41.9055830" lon="-2.8695720">
        <ele>1367.0</ele>
        <time>2022-02-08T10:27:48Z</time>
      </trkpt>
      <trkpt lat="41.9055000" lon="-2.8695080">
        <ele>1366.5</ele>
        <time>2022-02-08T10:27:49Z</time>
      </trkpt>
      <trkpt lat="41.9054170" lon="-2.8694470">
        <ele>1366.1</ele>
        <time>2022-02-08T10:27:50Z</time>
      </trkpt>
      <trkpt lat="41.9053270" lon="-2.8693920">
        <ele>1365.6</ele>
        <time>2022-02-08T10:27:51Z</time>
      </trkpt>
      <trkpt lat="41.9052380" lon="-2.8693470">
        <ele>1365.1</ele>
        <time>2022-02-08T10:27:52Z</time>
      </trkpt>
      <trkpt lat="41.9051620" lon="-2.8693030">
        <ele>1364.5</ele>
        <time>2022-02-08T10:27:53Z</time>
      </trkpt>
      <trkpt lat="41.9050800" lon="-2.8692650">
        <ele>1364.0</ele>
        <time>2022-02-08T10:27:54Z</time>
      </trkpt>
      <trkpt lat="41.9050030" lon="-2.8692270">
        <ele>1363.5</ele>
        <time>2022-02-08T10:27:55Z</time>
      </trkpt>
      <trkpt lat="41.9049250" lon="-2.8691930">
        <ele>1363.1</ele>
        <time>2022-02-08T10:27:56Z</time>
      </trkpt>
      <trkpt lat="41.9048500" lon="-2.8691580">
        <ele>1362.8</ele>
        <time>2022-02-08T10:27:57Z</time>
      </trkpt>
      <trkpt lat="41.9047600" lon="-2.8691130">
        <ele>1362.5</ele>
        <time>2022-02-08T10:27:58Z</time>
      </trkpt>
      <trkpt lat="41.9046950" lon="-2.8690750">
        <ele>1362.4</ele>
        <time>2022-02-08T10:27:59Z</time>
      </trkpt>
      <trkpt lat="41.9046420" lon="-2.8690320">
        <ele>1362.2</ele>
        <time>2022-02-08T10:28:00Z</time>
      </trkpt>
      <trkpt lat="41.9046120" lon="-2.8689970">
        <ele>1362.1</ele>
        <time>2022-02-08T10:28:01Z</time>
      </trkpt>
      <trkpt lat="41.9045900" lon="-2.8689630">
        <ele>1362.0</ele>
        <time>2022-02-08T10:28:02Z</time>
      </trkpt>
      <trkpt lat="41.9045770" lon="-2.8689420">
        <ele>1362.0</ele>
        <time>2022-02-08T10:28:03Z</time>
      </trkpt>
      <trkpt lat="41.9045700" lon="-2.8689200">
        <ele>1361.9</ele>
        <time>2022-02-08T10:28:04Z</time>
      </trkpt>
      <trkpt lat="41.9045720" lon="-2.8689070">
        <ele>1361.9</ele>
        <time>2022-02-08T10:28:05Z</time>
      </trkpt>
      <trkpt lat="41.9045730" lon="-2.8689050">
        <ele>1361.9</ele>
        <time>2022-02-08T10:28:06Z</time>
      </trkpt>
      <trkpt lat="41.9045700" lon="-2.8689150">
        <ele>1361.8</ele>
        <time>2022-02-08T10:28:07Z</time>
      </trkpt>
      <trkpt lat="41.9045820" lon="-2.8689250">
        <ele>1361.8</ele>
        <time>2022-02-08T10:28:08Z</time>
      </trkpt>
      <trkpt lat="41.9045900" lon="-2.8689220">
        <ele>1361.7</ele>
        <time>2022-02-08T10:28:09Z</time>
      </trkpt>
      <trkpt lat="41.9046030" lon="-2.8689120">
        <ele>1361.7</ele>
        <time>2022-02-08T10:28:10Z</time>
      </trkpt>
      <trkpt lat="41.9046130" lon="-2.8689050">
        <ele>1361.6</ele>
        <time>2022-02-08T10:28:11Z</time>
      </trkpt>
      <trkpt lat="41.9046220" lon="-2.8689050">
        <ele>1361.6</ele>
        <time>2022-02-08T10:28:12Z</time>
      </trkpt>
      <trkpt lat="41.9046330" lon="-2.8689030">
        <ele>1361.5</ele>
        <time>2022-02-08T10:28:13Z</time>
      </trkpt>
      <trkpt lat="41.9046470" lon="-2.8689020">
        <ele>1361.5</ele>
        <time>2022-02-08T10:28:14Z</time>
      </trkpt>
      <trkpt lat="41.9046530" lon="-2.8689070">
        <ele>1361.5</ele>
        <time>2022-02-08T10:28:15Z</time>
      </trkpt>
      <trkpt lat="41.9046720" lon="-2.8689200">
        <ele>1361.4</ele>
        <time>2022-02-08T10:28:16Z</time>
      </trkpt>
      <trkpt lat="41.9046720" lon="-2.8689270">
        <ele>1361.4</ele>
        <time>2022-02-08T10:28:17Z</time>
      </trkpt>
      <trkpt lat="41.9046780" lon="-2.8689220">
        <ele>1361.3</ele>
        <time>2022-02-08T10:28:18Z</time>
      </trkpt>
      <trkpt lat="41.9046750" lon="-2.8688930">
        <ele>1361.2</ele>
        <time>2022-02-08T10:28:19Z</time>
      </trkpt>
      <trkpt lat="41.9046750" lon="-2.8688870">
        <ele>1361.2</ele>
        <time>2022-02-08T10:28:20Z</time>
      </trkpt>
      <trkpt lat="41.9046730" lon="-2.8688950">
        <ele>1361.2</ele>
        <time>2022-02-08T10:28:21Z</time>
      </trkpt>
      <trkpt lat="41.9046730" lon="-2.8688950">
        <ele>1361.2</ele>
        <time>2022-02-08T10:28:22Z</time>
      </trkpt>
      <trkpt lat="41.9046730" lon="-2.8688950">
        <ele>1361.2</ele>
        <time>2022-02-08T10:28:23Z</time>
      </trkpt>
      <trkpt lat="41.9046730" lon="-2.8688950">
        <ele>1361.2</ele>
        <time>2022-02-08T10:28:24Z</time>
      </trkpt>
      <trkpt lat="41.9046730" lon="-2.8688950">
        <ele>1361.2</ele>
        <time>2022-02-08T10:28:25Z</time>
      </trkpt>
      <trkpt lat="41.9046730" lon="-2.8688950">
        <ele>1361.2</ele>
        <time>2022-02-08T10:28:26Z</time>
      </trkpt>
      <trkpt lat="41.9046730" lon="-2.8688950">
        <ele>1361.2</ele>
        <time>2022-02-08T10:28:27Z</time>
      </trkpt>
      <trkpt lat="41.9046730" lon="-2.8688950">
        <ele>1361.2</ele>
        <time>2022-02-08T10:28:28Z</time>
      </trkpt>
      <trkpt lat="41.9046730" lon="-2.8688950">
        <ele>1361.2</ele>
        <time>2022-02-08T10:28:29Z</time>
      </trkpt>
      <trkpt lat="41.9046730" lon="-2.8688950">
        <ele>1361.2</ele>
        <time>2022-02-08T10:28:30Z</time>
      </trkpt>
      <trkpt lat="41.9046730" lon="-2.8688950">
        <ele>1361.2</ele>
        <time>2022-02-08T10:28:31Z</time>
      </trkpt>
      <trkpt lat="41.9046730" lon="-2.8688950">
        <ele>1361.2</ele>
        <time>2022-02-08T10:28:32Z</time>
      </trkpt>
      <trkpt lat="41.9046730" lon="-2.8688950">
        <ele>1361.2</ele>
        <time>2022-02-08T10:28:33Z</time>
      </trkpt>
      <trkpt lat="41.9046730" lon="-2.8688950">
        <ele>1361.2</ele>
        <time>2022-02-08T10:28:34Z</time>
      </trkpt>
      <trkpt lat="41.9046730" lon="-2.8688950">
        <ele>1361.2</ele>
        <time>2022-02-08T10:28:35Z</time>
      </trkpt>
      <trkpt lat="41.9046730" lon="-2.8688950">
        <ele>1361.2</ele>
        <time>2022-02-08T10:28:36Z</time>
      </trkpt>
      <trkpt lat="41.9046730" lon="-2.8688950">
        <ele>1361.2</ele>
        <time>2022-02-08T10:28:37Z</time>
      </trkpt>
      <trkpt lat="41.9046730" lon="-2.8688950">
        <ele>1361.2</ele>
        <time>2022-02-08T10:28:38Z</time>
      </trkpt>
      <trkpt lat="41.9046730" lon="-2.8688950">
        <ele>1361.2</ele>
        <time>2022-02-08T10:28:39Z</time>
      </trkpt>
      <trkpt lat="41.9046730" lon="-2.8688950">
        <ele>1361.2</ele>
        <time>2022-02-08T10:28:40Z</time>
      </trkpt>
      <trkpt lat="41.9046730" lon="-2.8688950">
        <ele>1361.2</ele>
        <time>2022-02-08T10:28:41Z</time>
      </trkpt>
      <trkpt lat="41.9046750" lon="-2.8688950">
        <ele>1361.2</ele>
        <time>2022-02-08T10:28:42Z</time>
      </trkpt>
      <trkpt lat="41.9046750" lon="-2.8688930">
        <ele>1361.2</ele>
        <time>2022-02-08T10:28:43Z</time>
      </trkpt>
      <trkpt lat="41.9046750" lon="-2.8688930">
        <ele>1361.2</ele>
        <time>2022-02-08T10:28:44Z</time>
      </trkpt>
      <trkpt lat="41.9046750" lon="-2.8688920">
        <ele>1361.2</ele>
        <time>2022-02-08T10:28:45Z</time>
      </trkpt>
      <trkpt lat="41.9046770" lon="-2.8688900">
        <ele>1361.2</ele>
        <time>2022-02-08T10:28:46Z</time>
      </trkpt>
      <trkpt lat="41.9046780" lon="-2.8688900">
        <ele>1361.2</ele>
        <time>2022-02-08T10:28:47Z</time>
      </trkpt>
      <trkpt lat="41.9046780" lon="-2.8688900">
        <ele>1361.2</ele>
        <time>2022-02-08T10:28:48Z</time>
      </trkpt>
      <trkpt lat="41.9046820" lon="-2.8688880">
        <ele>1361.2</ele>
        <time>2022-02-08T10:28:49Z</time>
      </trkpt>
      <trkpt lat="41.9046870" lon="-2.8688880">
        <ele>1361.2</ele>
        <time>2022-02-08T10:28:50Z</time>
      </trkpt>
      <trkpt lat="41.9046900" lon="-2.8688880">
        <ele>1361.1</ele>
        <time>2022-02-08T10:28:51Z</time>
      </trkpt>
      <trkpt lat="41.9046900" lon="-2.8688880">
        <ele>1361.1</ele>
        <time>2022-02-08T10:28:52Z</time>
      </trkpt>
      <trkpt lat="41.9046900" lon="-2.8688880">
        <ele>1361.1</ele>
        <time>2022-02-08T10:28:53Z</time>
      </trkpt>
      <trkpt lat="41.9046900" lon="-2.8688880">
        <ele>1361.1</ele>
        <time>2022-02-08T10:28:54Z</time>
      </trkpt>
      <trkpt lat="41.9046900" lon="-2.8688880">
        <ele>1361.1</ele>
        <time>2022-02-08T10:28:55Z</time>
      </trkpt>
      <trkpt lat="41.9046900" lon="-2.8688880">
        <ele>1361.1</ele>
        <time>2022-02-08T10:28:56Z</time>
      </trkpt>
      <trkpt lat="41.9046900" lon="-2.8688880">
        <ele>1361.1</ele>
        <time>2022-02-08T10:28:57Z</time>
      </trkpt>
      <trkpt lat="41.9046900" lon="-2.8688880">
        <ele>1361.1</ele>
        <time>2022-02-08T10:28:58Z</time>
      </trkpt>
      <trkpt lat="41.9046900" lon="-2.8688880">
        <ele>1361.1</ele>
        <time>2022-02-08T10:28:59Z</time>
      </trkpt>
      <trkpt lat="41.9046900" lon="-2.8688880">
        <ele>1361.1</ele>
        <time>2022-02-08T10:29:00Z</time>
      </trkpt>
      <trkpt lat="41.9046900" lon="-2.8688880">
        <ele>1361.1</ele>
        <time>2022-02-08T10:29:01Z</time>
      </trkpt>
      <trkpt lat="41.9046900" lon="-2.8688880">
        <ele>1361.1</ele>
        <time>2022-02-08T10:29:02Z</time>
      </trkpt>
      <trkpt lat="41.9046900" lon="-2.8688880">
        <ele>1361.1</ele>
        <time>2022-02-08T10:29:03Z</time>
      </trkpt>
      <trkpt lat="41.9046900" lon="-2.8688880">
        <ele>1361.1</ele>
        <time>2022-02-08T10:29:04Z</time>
      </trkpt>
      <trkpt lat="41.9046900" lon="-2.8688880">
        <ele>1361.1</ele>
        <time>2022-02-08T10:29:05Z</time>
      </trkpt>
      <trkpt lat="41.9046920" lon="-2.8688830">
        <ele>1361.1</ele>
        <time>2022-02-08T10:29:06Z</time>
      </trkpt>
      <trkpt lat="41.9047000" lon="-2.8688400">
        <ele>1361.0</ele>
        <time>2022-02-08T10:29:07Z</time>
      </trkpt>
      <trkpt lat="41.9047180" lon="-2.8687920">
        <ele>1360.9</ele>
        <time>2022-02-08T10:29:08Z</time>
      </trkpt>
      <trkpt lat="41.9047470" lon="-2.8687420">
        <ele>1360.7</ele>
        <time>2022-02-08T10:29:09Z</time>
      </trkpt>
      <trkpt lat="41.9047820" lon="-2.8686950">
        <ele>1360.6</ele>
        <time>2022-02-08T10:29:10Z</time>
      </trkpt>
      <trkpt lat="41.9048180" lon="-2.8686500">
        <ele>1360.5</ele>
        <time>2022-02-08T10:29:11Z</time>
      </trkpt>
      <trkpt lat="41.9048600" lon="-2.8686080">
        <ele>1360.4</ele>
        <time>2022-02-08T10:29:12Z</time>
      </trkpt>
      <trkpt lat="41.9049070" lon="-2.8685700">
        <ele>1360.2</ele>
        <time>2022-02-08T10:29:13Z</time>
      </trkpt>
      <trkpt lat="41.9049530" lon="-2.8685330">
        <ele>1360.0</ele>
        <time>2022-02-08T10:29:14Z</time>
      </trkpt>
      <trkpt lat="41.9049950" lon="-2.8684970">
        <ele>1359.9</ele>
        <time>2022-02-08T10:29:15Z</time>
      </trkpt>
      <trkpt lat="41.9050350" lon="-2.8684670">
        <ele>1359.7</ele>
        <time>2022-02-08T10:29:16Z</time>
      </trkpt>
      <trkpt lat="41.9050770" lon="-2.8684400">
        <ele>1359.6</ele>
        <time>2022-02-08T10:29:17Z</time>
      </trkpt>
      <trkpt lat="41.9051200" lon="-2.8684100">
        <ele>1359.4</ele>
        <time>2022-02-08T10:29:18Z</time>
      </trkpt>
      <trkpt lat="41.9051630" lon="-2.8683780">
        <ele>1359.3</ele>
        <time>2022-02-08T10:29:19Z</time>
      </trkpt>
      <trkpt lat="41.9052050" lon="-2.8683370">
        <ele>1359.1</ele>
        <time>2022-02-08T10:29:20Z</time>
      </trkpt>
      <trkpt lat="41.9052430" lon="-2.8682880">
        <ele>1359.0</ele>
        <time>2022-02-08T10:29:21Z</time>
      </trkpt>
      <trkpt lat="41.9052800" lon="-2.8682350">
        <ele>1358.8</ele>
        <time>2022-02-08T10:29:22Z</time>
      </trkpt>
      <trkpt lat="41.9053130" lon="-2.8681730">
        <ele>1358.6</ele>
        <time>2022-02-08T10:29:23Z</time>
      </trkpt>
      <trkpt lat="41.9053430" lon="-2.8681080">
        <ele>1358.4</ele>
        <time>2022-02-08T10:29:24Z</time>
      </trkpt>
      <trkpt lat="41.9053680" lon="-2.8680380">
        <ele>1358.1</ele>
        <time>2022-02-08T10:29:25Z</time>
      </trkpt>
      <trkpt lat="41.9054020" lon="-2.8679520">
        <ele>1357.8</ele>
        <time>2022-02-08T10:29:26Z</time>
      </trkpt>
      <trkpt lat="41.9054220" lon="-2.8678920">
        <ele>1357.6</ele>
        <time>2022-02-08T10:29:27Z</time>
      </trkpt>
      <trkpt lat="41.9054500" lon="-2.8677970">
        <ele>1357.3</ele>
        <time>2022-02-08T10:29:28Z</time>
      </trkpt>
      <trkpt lat="41.9054700" lon="-2.8677150">
        <ele>1357.0</ele>
        <time>2022-02-08T10:29:29Z</time>
      </trkpt>
      <trkpt lat="41.9054850" lon="-2.8676480">
        <ele>1356.8</ele>
        <time>2022-02-08T10:29:30Z</time>
      </trkpt>
      <trkpt lat="41.9055020" lon="-2.8675650">
        <ele>1356.6</ele>
        <time>2022-02-08T10:29:31Z</time>
      </trkpt>
      <trkpt lat="41.9055170" lon="-2.8674820">
        <ele>1356.4</ele>
        <time>2022-02-08T10:29:32Z</time>
      </trkpt>
      <trkpt lat="41.9055320" lon="-2.8673930">
        <ele>1356.2</ele>
        <time>2022-02-08T10:29:33Z</time>
      </trkpt>
      <trkpt lat="41.9055450" lon="-2.8672850">
        <ele>1356.0</ele>
        <time>2022-02-08T10:29:34Z</time>
      </trkpt>
      <trkpt lat="41.9055500" lon="-2.8671930">
        <ele>1355.8</ele>
        <time>2022-02-08T10:29:35Z</time>
      </trkpt>
      <trkpt lat="41.9055550" lon="-2.8671050">
        <ele>1355.6</ele>
        <time>2022-02-08T10:29:36Z</time>
      </trkpt>
      <trkpt lat="41.9055570" lon="-2.8670350">
        <ele>1355.5</ele>
        <time>2022-02-08T10:29:37Z</time>
      </trkpt>
      <trkpt lat="41.9055670" lon="-2.8669330">
        <ele>1355.4</ele>
        <time>2022-02-08T10:29:38Z</time>
      </trkpt>
      <trkpt lat="41.9055700" lon="-2.8668550">
        <ele>1355.4</ele>
        <time>2022-02-08T10:29:39Z</time>
      </trkpt>
      <trkpt lat="41.9055770" lon="-2.8667770">
        <ele>1355.3</ele>
        <time>2022-02-08T10:29:40Z</time>
      </trkpt>
      <trkpt lat="41.9055820" lon="-2.8666970">
        <ele>1355.3</ele>
        <time>2022-02-08T10:29:41Z</time>
      </trkpt>
      <trkpt lat="41.9055880" lon="-2.8666220">
        <ele>1355.2</ele>
        <time>2022-02-08T10:29:42Z</time>
      </trkpt>
      <trkpt lat="41.9055950" lon="-2.8665450">
        <ele>1355.3</ele>
        <time>2022-02-08T10:29:43Z</time>
      </trkpt>
      <trkpt lat="41.9055970" lon="-2.8664750">
        <ele>1355.3</ele>
        <time>2022-02-08T10:29:44Z</time>
      </trkpt>
      <trkpt lat="41.9055980" lon="-2.8664030">
        <ele>1355.4</ele>
        <time>2022-02-08T10:29:45Z</time>
      </trkpt>
      <trkpt lat="41.9055980" lon="-2.8663350">
        <ele>1355.4</ele>
        <time>2022-02-08T10:29:46Z</time>
      </trkpt>
      <trkpt lat="41.9055970" lon="-2.8662670">
        <ele>1355.5</ele>
        <time>2022-02-08T10:29:47Z</time>
      </trkpt>
      <trkpt lat="41.9056020" lon="-2.8662000">
        <ele>1355.6</ele>
        <time>2022-02-08T10:29:48Z</time>
      </trkpt>
      <trkpt lat="41.9056030" lon="-2.8661330">
        <ele>1355.7</ele>
        <time>2022-02-08T10:29:49Z</time>
      </trkpt>
      <trkpt lat="41.9056030" lon="-2.8660700">
        <ele>1355.8</ele>
        <time>2022-02-08T10:29:50Z</time>
      </trkpt>
      <trkpt lat="41.9056020" lon="-2.8660120">
        <ele>1356.0</ele>
        <time>2022-02-08T10:29:51Z</time>
      </trkpt>
      <trkpt lat="41.9056030" lon="-2.8659500">
        <ele>1356.1</ele>
        <time>2022-02-08T10:29:52Z</time>
      </trkpt>
      <trkpt lat="41.9056050" lon="-2.8658870">
        <ele>1356.2</ele>
        <time>2022-02-08T10:29:53Z</time>
      </trkpt>
      <trkpt lat="41.9056050" lon="-2.8658250">
        <ele>1356.4</ele>
        <time>2022-02-08T10:29:54Z</time>
      </trkpt>
      <trkpt lat="41.9056120" lon="-2.8657580">
        <ele>1356.6</ele>
        <time>2022-02-08T10:29:55Z</time>
      </trkpt>
      <trkpt lat="41.9056170" lon="-2.8656950">
        <ele>1356.7</ele>
        <time>2022-02-08T10:29:56Z</time>
      </trkpt>
      <trkpt lat="41.9056070" lon="-2.8656430">
        <ele>1356.9</ele>
        <time>2022-02-08T10:29:57Z</time>
      </trkpt>
      <trkpt lat="41.9056000" lon="-2.8655880">
        <ele>1357.0</ele>
        <time>2022-02-08T10:29:58Z</time>
      </trkpt>
      <trkpt lat="41.9055930" lon="-2.8655330">
        <ele>1357.2</ele>
        <time>2022-02-08T10:29:59Z</time>
      </trkpt>
      <trkpt lat="41.9055850" lon="-2.8654780">
        <ele>1357.3</ele>
        <time>2022-02-08T10:30:00Z</time>
      </trkpt>
      <trkpt lat="41.9055780" lon="-2.8654250">
        <ele>1357.5</ele>
        <time>2022-02-08T10:30:01Z</time>
      </trkpt>
      <trkpt lat="41.9055700" lon="-2.8653750">
        <ele>1357.6</ele>
        <time>2022-02-08T10:30:02Z</time>
      </trkpt>
      <trkpt lat="41.9055600" lon="-2.8653230">
        <ele>1357.7</ele>
        <time>2022-02-08T10:30:03Z</time>
      </trkpt>
      <trkpt lat="41.9055480" lon="-2.8652720">
        <ele>1357.8</ele>
        <time>2022-02-08T10:30:04Z</time>
      </trkpt>
      <trkpt lat="41.9055350" lon="-2.8652200">
        <ele>1357.9</ele>
        <time>2022-02-08T10:30:05Z</time>
      </trkpt>
      <trkpt lat="41.9055180" lon="-2.8651720">
        <ele>1358.0</ele>
        <time>2022-02-08T10:30:06Z</time>
      </trkpt>
      <trkpt lat="41.9055020" lon="-2.8651350">
        <ele>1358.1</ele>
        <time>2022-02-08T10:30:07Z</time>
      </trkpt>
      <trkpt lat="41.9054820" lon="-2.8650800">
        <ele>1358.1</ele>
        <time>2022-02-08T10:30:08Z</time>
      </trkpt>
      <trkpt lat="41.9054600" lon="-2.8650370">
        <ele>1358.2</ele>
        <time>2022-02-08T10:30:09Z</time>
      </trkpt>
      <trkpt lat="41.9054370" lon="-2.8649950">
        <ele>1358.2</ele>
        <time>2022-02-08T10:30:10Z</time>
      </trkpt>
      <trkpt lat="41.9054100" lon="-2.8649500">
        <ele>1358.3</ele>
        <time>2022-02-08T10:30:11Z</time>
      </trkpt>
      <trkpt lat="41.9053800" lon="-2.8649070">
        <ele>1358.4</ele>
        <time>2022-02-08T10:30:12Z</time>
      </trkpt>
      <trkpt lat="41.9053500" lon="-2.8648630">
        <ele>1358.5</ele>
        <time>2022-02-08T10:30:13Z</time>
      </trkpt>
      <trkpt lat="41.9053220" lon="-2.8648220">
        <ele>1358.6</ele>
        <time>2022-02-08T10:30:14Z</time>
      </trkpt>
      <trkpt lat="41.9052930" lon="-2.8647780">
        <ele>1358.7</ele>
        <time>2022-02-08T10:30:15Z</time>
      </trkpt>
      <trkpt lat="41.9052650" lon="-2.8647370">
        <ele>1358.8</ele>
        <time>2022-02-08T10:30:16Z</time>
      </trkpt>
      <trkpt lat="41.9052380" lon="-2.8646900">
        <ele>1359.0</ele>
        <time>2022-02-08T10:30:17Z</time>
      </trkpt>
      <trkpt lat="41.9052150" lon="-2.8646400">
        <ele>1359.1</ele>
        <time>2022-02-08T10:30:18Z</time>
      </trkpt>
      <trkpt lat="41.9051900" lon="-2.8645930">
        <ele>1359.3</ele>
        <time>2022-02-08T10:30:19Z</time>
      </trkpt>
      <trkpt lat="41.9051650" lon="-2.8645480">
        <ele>1359.4</ele>
        <time>2022-02-08T10:30:20Z</time>
      </trkpt>
      <trkpt lat="41.9051380" lon="-2.8645030">
        <ele>1359.6</ele>
        <time>2022-02-08T10:30:21Z</time>
      </trkpt>
      <trkpt lat="41.9051150" lon="-2.8644600">
        <ele>1359.8</ele>
        <time>2022-02-08T10:30:22Z</time>
      </trkpt>
      <trkpt lat="41.9050850" lon="-2.8644250">
        <ele>1360.0</ele>
        <time>2022-02-08T10:30:23Z</time>
      </trkpt>
      <trkpt lat="41.9050600" lon="-2.8643920">
        <ele>1360.1</ele>
        <time>2022-02-08T10:30:24Z</time>
      </trkpt>
      <trkpt lat="41.9050480" lon="-2.8643620">
        <ele>1360.2</ele>
        <time>2022-02-08T10:30:25Z</time>
      </trkpt>
      <trkpt lat="41.9050320" lon="-2.8643180">
        <ele>1360.4</ele>
        <time>2022-02-08T10:30:26Z</time>
      </trkpt>
      <trkpt lat="41.9050130" lon="-2.8642820">
        <ele>1360.5</ele>
        <time>2022-02-08T10:30:27Z</time>
      </trkpt>
      <trkpt lat="41.9050000" lon="-2.8642500">
        <ele>1360.6</ele>
        <time>2022-02-08T10:30:28Z</time>
      </trkpt>
      <trkpt lat="41.9049880" lon="-2.8642170">
        <ele>1360.7</ele>
        <time>2022-02-08T10:30:29Z</time>
      </trkpt>
      <trkpt lat="41.9049770" lon="-2.8641850">
        <ele>1360.7</ele>
        <time>2022-02-08T10:30:30Z</time>
      </trkpt>
      <trkpt lat="41.9049620" lon="-2.8641530">
        <ele>1360.8</ele>
        <time>2022-02-08T10:30:31Z</time>
      </trkpt>
      <trkpt lat="41.9049470" lon="-2.8641230">
        <ele>1360.9</ele>
        <time>2022-02-08T10:30:32Z</time>
      </trkpt>
      <trkpt lat="41.9049330" lon="-2.8640920">
        <ele>1361.0</ele>
        <time>2022-02-08T10:30:33Z</time>
      </trkpt>
      <trkpt lat="41.9049200" lon="-2.8640630">
        <ele>1361.1</ele>
        <time>2022-02-08T10:30:34Z</time>
      </trkpt>
      <trkpt lat="41.9049050" lon="-2.8640400">
        <ele>1361.1</ele>
        <time>2022-02-08T10:30:35Z</time>
      </trkpt>
      <trkpt lat="41.9048980" lon="-2.8640230">
        <ele>1361.1</ele>
        <time>2022-02-08T10:30:36Z</time>
      </trkpt>
      <trkpt lat="41.9048930" lon="-2.8640020">
        <ele>1361.2</ele>
        <time>2022-02-08T10:30:37Z</time>
      </trkpt>
      <trkpt lat="41.9048920" lon="-2.8639780">
        <ele>1361.2</ele>
        <time>2022-02-08T10:30:38Z</time>
      </trkpt>
      <trkpt lat="41.9048870" lon="-2.8639570">
        <ele>1361.2</ele>
        <time>2022-02-08T10:30:39Z</time>
      </trkpt>
      <trkpt lat="41.9048730" lon="-2.8639400">
        <ele>1361.3</ele>
        <time>2022-02-08T10:30:40Z</time>
      </trkpt>
      <trkpt lat="41.9048580" lon="-2.8639220">
        <ele>1361.3</ele>
        <time>2022-02-08T10:30:41Z</time>
      </trkpt>
      <trkpt lat="41.9048500" lon="-2.8638980">
        <ele>1361.3</ele>
        <time>2022-02-08T10:30:42Z</time>
      </trkpt>
      <trkpt lat="41.9048380" lon="-2.8638730">
        <ele>1361.3</ele>
        <time>2022-02-08T10:30:43Z</time>
      </trkpt>
      <trkpt lat="41.9048270" lon="-2.8638470">
        <ele>1361.4</ele>
        <time>2022-02-08T10:30:44Z</time>
      </trkpt>
      <trkpt lat="41.9048130" lon="-2.8638230">
        <ele>1361.4</ele>
        <time>2022-02-08T10:30:45Z</time>
      </trkpt>
      <trkpt lat="41.9047970" lon="-2.8637950">
        <ele>1361.4</ele>
        <time>2022-02-08T10:30:46Z</time>
      </trkpt>
      <trkpt lat="41.9047780" lon="-2.8637750">
        <ele>1361.4</ele>
        <time>2022-02-08T10:30:47Z</time>
      </trkpt>
      <trkpt lat="41.9047580" lon="-2.8637470">
        <ele>1361.5</ele>
        <time>2022-02-08T10:30:48Z</time>
      </trkpt>
      <trkpt lat="41.9047470" lon="-2.8637130">
        <ele>1361.5</ele>
        <time>2022-02-08T10:30:49Z</time>
      </trkpt>
      <trkpt lat="41.9047320" lon="-2.8636780">
        <ele>1361.5</ele>
        <time>2022-02-08T10:30:50Z</time>
      </trkpt>
      <trkpt lat="41.9047120" lon="-2.8636520">
        <ele>1361.5</ele>
        <time>2022-02-08T10:30:51Z</time>
      </trkpt>
      <trkpt lat="41.9046920" lon="-2.8636180">
        <ele>1361.6</ele>
        <time>2022-02-08T10:30:52Z</time>
      </trkpt>
      <trkpt lat="41.9046680" lon="-2.8635880">
        <ele>1361.6</ele>
        <time>2022-02-08T10:30:53Z</time>
      </trkpt>
      <trkpt lat="41.9046420" lon="-2.8635620">
        <ele>1361.6</ele>
        <time>2022-02-08T10:30:54Z</time>
      </trkpt>
      <trkpt lat="41.9046130" lon="-2.8635320">
        <ele>1361.6</ele>
        <time>2022-02-08T10:30:55Z</time>
      </trkpt>
      <trkpt lat="41.9045870" lon="-2.8634970">
        <ele>1361.7</ele>
        <time>2022-02-08T10:30:56Z</time>
      </trkpt>
      <trkpt lat="41.9045620" lon="-2.8634670">
        <ele>1361.7</ele>
        <time>2022-02-08T10:30:57Z</time>
      </trkpt>
      <trkpt lat="41.9045380" lon="-2.8634350">
        <ele>1361.7</ele>
        <time>2022-02-08T10:30:58Z</time>
      </trkpt>
      <trkpt lat="41.9045180" lon="-2.8634120">
        <ele>1361.7</ele>
        <time>2022-02-08T10:30:59Z</time>
      </trkpt>
      <trkpt lat="41.9044950" lon="-2.8633800">
        <ele>1361.8</ele>
        <time>2022-02-08T10:31:00Z</time>
      </trkpt>
      <trkpt lat="41.9044650" lon="-2.8633470">
        <ele>1361.8</ele>
        <time>2022-02-08T10:31:01Z</time>
      </trkpt>
      <trkpt lat="41.9044430" lon="-2.8633270">
        <ele>1361.9</ele>
        <time>2022-02-08T10:31:02Z</time>
      </trkpt>
      <trkpt lat="41.9044170" lon="-2.8633070">
        <ele>1362.0</ele>
        <time>2022-02-08T10:31:03Z</time>
      </trkpt>
      <trkpt lat="41.9043780" lon="-2.8632820">
        <ele>1362.3</ele>
        <time>2022-02-08T10:31:04Z</time>
      </trkpt>
      <trkpt lat="41.9043570" lon="-2.8632650">
        <ele>1362.4</ele>
        <time>2022-02-08T10:31:05Z</time>
      </trkpt>
      <trkpt lat="41.9043250" lon="-2.8632400">
        <ele>1362.6</ele>
        <time>2022-02-08T10:31:06Z</time>
      </trkpt>
      <trkpt lat="41.9043030" lon="-2.8632220">
        <ele>1362.8</ele>
        <time>2022-02-08T10:31:07Z</time>
      </trkpt>
      <trkpt lat="41.9042780" lon="-2.8632050">
        <ele>1362.9</ele>
        <time>2022-02-08T10:31:08Z</time>
      </trkpt>
      <trkpt lat="41.9042530" lon="-2.8631870">
        <ele>1363.1</ele>
        <time>2022-02-08T10:31:09Z</time>
      </trkpt>
      <trkpt lat="41.9042230" lon="-2.8631700">
        <ele>1363.2</ele>
        <time>2022-02-08T10:31:10Z</time>
      </trkpt>
      <trkpt lat="41.9042070" lon="-2.8631550">
        <ele>1363.3</ele>
        <time>2022-02-08T10:31:11Z</time>
      </trkpt>
      <trkpt lat="41.9041880" lon="-2.8631430">
        <ele>1363.3</ele>
        <time>2022-02-08T10:31:12Z</time>
      </trkpt>
      <trkpt lat="41.9041720" lon="-2.8631320">
        <ele>1363.4</ele>
        <time>2022-02-08T10:31:13Z</time>
      </trkpt>
      <trkpt lat="41.9041570" lon="-2.8631230">
        <ele>1363.4</ele>
        <time>2022-02-08T10:31:14Z</time>
      </trkpt>
      <trkpt lat="41.9041320" lon="-2.8631050">
        <ele>1363.5</ele>
        <time>2022-02-08T10:31:15Z</time>
      </trkpt>
      <trkpt lat="41.9041100" lon="-2.8630920">
        <ele>1363.6</ele>
        <time>2022-02-08T10:31:16Z</time>
      </trkpt>
      <trkpt lat="41.9040830" lon="-2.8630800">
        <ele>1363.6</ele>
        <time>2022-02-08T10:31:17Z</time>
      </trkpt>
      <trkpt lat="41.9040570" lon="-2.8630630">
        <ele>1363.7</ele>
        <time>2022-02-08T10:31:18Z</time>
      </trkpt>
      <trkpt lat="41.9040370" lon="-2.8630470">
        <ele>1363.7</ele>
        <time>2022-02-08T10:31:19Z</time>
      </trkpt>
      <trkpt lat="41.9040080" lon="-2.8630250">
        <ele>1363.8</ele>
        <time>2022-02-08T10:31:20Z</time>
      </trkpt>
      <trkpt lat="41.9039880" lon="-2.8630030">
        <ele>1363.9</ele>
        <time>2022-02-08T10:31:21Z</time>
      </trkpt>
      <trkpt lat="41.9039750" lon="-2.8629900">
        <ele>1363.9</ele>
        <time>2022-02-08T10:31:22Z</time>
      </trkpt>
      <trkpt lat="41.9039500" lon="-2.8629770">
        <ele>1364.0</ele>
        <time>2022-02-08T10:31:23Z</time>
      </trkpt>
      <trkpt lat="41.9039280" lon="-2.8629600">
        <ele>1364.1</ele>
        <time>2022-02-08T10:31:24Z</time>
      </trkpt>
      <trkpt lat="41.9039000" lon="-2.8629420">
        <ele>1364.2</ele>
        <time>2022-02-08T10:31:25Z</time>
      </trkpt>
      <trkpt lat="41.9038800" lon="-2.8629230">
        <ele>1364.2</ele>
        <time>2022-02-08T10:31:26Z</time>
      </trkpt>
      <trkpt lat="41.9038570" lon="-2.8629070">
        <ele>1364.3</ele>
        <time>2022-02-08T10:31:27Z</time>
      </trkpt>
      <trkpt lat="41.9038370" lon="-2.8628930">
        <ele>1364.4</ele>
        <time>2022-02-08T10:31:28Z</time>
      </trkpt>
      <trkpt lat="41.9038150" lon="-2.8628750">
        <ele>1364.5</ele>
        <time>2022-02-08T10:31:29Z</time>
      </trkpt>
      <trkpt lat="41.9037900" lon="-2.8628500">
        <ele>1364.5</ele>
        <time>2022-02-08T10:31:30Z</time>
      </trkpt>
      <trkpt lat="41.9037680" lon="-2.8628320">
        <ele>1364.6</ele>
        <time>2022-02-08T10:31:31Z</time>
      </trkpt>
      <trkpt lat="41.9037520" lon="-2.8628130">
        <ele>1364.6</ele>
        <time>2022-02-08T10:31:32Z</time>
      </trkpt>
      <trkpt lat="41.9037350" lon="-2.8627970">
        <ele>1364.7</ele>
        <time>2022-02-08T10:31:33Z</time>
      </trkpt>
      <trkpt lat="41.9037120" lon="-2.8627750">
        <ele>1364.7</ele>
        <time>2022-02-08T10:31:34Z</time>
      </trkpt>
      <trkpt lat="41.9036930" lon="-2.8627550">
        <ele>1364.8</ele>
        <time>2022-02-08T10:31:35Z</time>
      </trkpt>
      <trkpt lat="41.9036720" lon="-2.8627350">
        <ele>1364.9</ele>
        <time>2022-02-08T10:31:36Z</time>
      </trkpt>
      <trkpt lat="41.9036470" lon="-2.8627150">
        <ele>1364.9</ele>
        <time>2022-02-08T10:31:37Z</time>
      </trkpt>
      <trkpt lat="41.9036230" lon="-2.8626920">
        <ele>1365.0</ele>
        <time>2022-02-08T10:31:38Z</time>
      </trkpt>
      <trkpt lat="41.9036050" lon="-2.8626680">
        <ele>1365.0</ele>
        <time>2022-02-08T10:31:39Z</time>
      </trkpt>
      <trkpt lat="41.9035870" lon="-2.8626330">
        <ele>1365.1</ele>
        <time>2022-02-08T10:31:40Z</time>
      </trkpt>
      <trkpt lat="41.9035680" lon="-2.8626030">
        <ele>1365.1</ele>
        <time>2022-02-08T10:31:41Z</time>
      </trkpt>
      <trkpt lat="41.9035500" lon="-2.8625700">
        <ele>1365.1</ele>
        <time>2022-02-08T10:31:42Z</time>
      </trkpt>
      <trkpt lat="41.9035330" lon="-2.8625450">
        <ele>1365.2</ele>
        <time>2022-02-08T10:31:43Z</time>
      </trkpt>
      <trkpt lat="41.9035130" lon="-2.8625150">
        <ele>1365.2</ele>
        <time>2022-02-08T10:31:44Z</time>
      </trkpt>
      <trkpt lat="41.9034850" lon="-2.8624870">
        <ele>1365.1</ele>
        <time>2022-02-08T10:31:45Z</time>
      </trkpt>
      <trkpt lat="41.9034630" lon="-2.8624670">
        <ele>1365.1</ele>
        <time>2022-02-08T10:31:46Z</time>
      </trkpt>
      <trkpt lat="41.9034500" lon="-2.8624530">
        <ele>1365.2</ele>
        <time>2022-02-08T10:31:47Z</time>
      </trkpt>
      <trkpt lat="41.9034250" lon="-2.8624400">
        <ele>1366.8</ele>
        <time>2022-02-08T10:31:48Z</time>
      </trkpt>
      <trkpt lat="41.9034020" lon="-2.8624330">
        <ele>1366.9</ele>
        <time>2022-02-08T10:31:49Z</time>
      </trkpt>
      <trkpt lat="41.9033820" lon="-2.8624330">
        <ele>1366.9</ele>
        <time>2022-02-08T10:31:50Z</time>
      </trkpt>
      <trkpt lat="41.9033620" lon="-2.8624380">
        <ele>1366.9</ele>
        <time>2022-02-08T10:31:51Z</time>
      </trkpt>
      <trkpt lat="41.9033420" lon="-2.8624520">
        <ele>1366.9</ele>
        <time>2022-02-08T10:31:52Z</time>
      </trkpt>
      <trkpt lat="41.9033200" lon="-2.8624630">
        <ele>1366.6</ele>
        <time>2022-02-08T10:31:53Z</time>
      </trkpt>
      <trkpt lat="41.9032920" lon="-2.8624770">
        <ele>1368.3</ele>
        <time>2022-02-08T10:31:54Z</time>
      </trkpt>
      <trkpt lat="41.9032650" lon="-2.8624870">
        <ele>1368.3</ele>
        <time>2022-02-08T10:31:55Z</time>
      </trkpt>
      <trkpt lat="41.9032450" lon="-2.8625050">
        <ele>1368.3</ele>
        <time>2022-02-08T10:31:56Z</time>
      </trkpt>
      <trkpt lat="41.9032230" lon="-2.8625270">
        <ele>1368.3</ele>
        <time>2022-02-08T10:31:57Z</time>
      </trkpt>
      <trkpt lat="41.9032020" lon="-2.8625400">
        <ele>1368.3</ele>
        <time>2022-02-08T10:31:58Z</time>
      </trkpt>
      <trkpt lat="41.9031850" lon="-2.8625570">
        <ele>1368.3</ele>
        <time>2022-02-08T10:31:59Z</time>
      </trkpt>
      <trkpt lat="41.9031670" lon="-2.8625680">
        <ele>1369.8</ele>
        <time>2022-02-08T10:32:00Z</time>
      </trkpt>
      <trkpt lat="41.9031420" lon="-2.8625780">
        <ele>1369.8</ele>
        <time>2022-02-08T10:32:01Z</time>
      </trkpt>
      <trkpt lat="41.9031200" lon="-2.8625880">
        <ele>1369.8</ele>
        <time>2022-02-08T10:32:02Z</time>
      </trkpt>
      <trkpt lat="41.9031000" lon="-2.8625980">
        <ele>1369.8</ele>
        <time>2022-02-08T10:32:03Z</time>
      </trkpt>
      <trkpt lat="41.9030700" lon="-2.8626130">
        <ele>1369.8</ele>
        <time>2022-02-08T10:32:04Z</time>
      </trkpt>
      <trkpt lat="41.9030520" lon="-2.8626270">
        <ele>1369.6</ele>
        <time>2022-02-08T10:32:05Z</time>
      </trkpt>
      <trkpt lat="41.9030330" lon="-2.8626420">
        <ele>1371.3</ele>
        <time>2022-02-08T10:32:06Z</time>
      </trkpt>
      <trkpt lat="41.9030150" lon="-2.8626600">
        <ele>1371.3</ele>
        <time>2022-02-08T10:32:07Z</time>
      </trkpt>
      <trkpt lat="41.9030020" lon="-2.8626770">
        <ele>1371.3</ele>
        <time>2022-02-08T10:32:08Z</time>
      </trkpt>
      <trkpt lat="41.9029880" lon="-2.8626980">
        <ele>1371.3</ele>
        <time>2022-02-08T10:32:09Z</time>
      </trkpt>
      <trkpt lat="41.9029750" lon="-2.8627230">
        <ele>1371.3</ele>
        <time>2022-02-08T10:32:10Z</time>
      </trkpt>
      <trkpt lat="41.9029680" lon="-2.8627430">
        <ele>1371.3</ele>
        <time>2022-02-08T10:32:11Z</time>
      </trkpt>
      <trkpt lat="41.9029620" lon="-2.8627650">
        <ele>1371.3</ele>
        <time>2022-02-08T10:32:12Z</time>
      </trkpt>
      <trkpt lat="41.9029530" lon="-2.8627830">
        <ele>1371.3</ele>
        <time>2022-02-08T10:32:13Z</time>
      </trkpt>
      <trkpt lat="41.9029380" lon="-2.8628080">
        <ele>1371.4</ele>
        <time>2022-02-08T10:32:14Z</time>
      </trkpt>
      <trkpt lat="41.9029230" lon="-2.8628300">
        <ele>1371.4</ele>
        <time>2022-02-08T10:32:15Z</time>
      </trkpt>
      <trkpt lat="41.9029070" lon="-2.8628480">
        <ele>1372.9</ele>
        <time>2022-02-08T10:32:16Z</time>
      </trkpt>
      <trkpt lat="41.9028930" lon="-2.8628670">
        <ele>1372.9</ele>
        <time>2022-02-08T10:32:17Z</time>
      </trkpt>
      <trkpt lat="41.9028750" lon="-2.8628920">
        <ele>1372.9</ele>
        <time>2022-02-08T10:32:18Z</time>
      </trkpt>
      <trkpt lat="41.9028570" lon="-2.8629200">
        <ele>1372.9</ele>
        <time>2022-02-08T10:32:19Z</time>
      </trkpt>
      <trkpt lat="41.9028400" lon="-2.8629470">
        <ele>1372.9</ele>
        <time>2022-02-08T10:32:20Z</time>
      </trkpt>
      <trkpt lat="41.9028320" lon="-2.8629670">
        <ele>1372.9</ele>
        <time>2022-02-08T10:32:21Z</time>
      </trkpt>
      <trkpt lat="41.9028170" lon="-2.8629930">
        <ele>1373.4</ele>
        <time>2022-02-08T10:32:22Z</time>
      </trkpt>
      <trkpt lat="41.9028020" lon="-2.8630170">
        <ele>1373.4</ele>
        <time>2022-02-08T10:32:23Z</time>
      </trkpt>
      <trkpt lat="41.9027870" lon="-2.8630470">
        <ele>1375.3</ele>
        <time>2022-02-08T10:32:24Z</time>
      </trkpt>
      <trkpt lat="41.9027750" lon="-2.8630720">
        <ele>1375.3</ele>
        <time>2022-02-08T10:32:25Z</time>
      </trkpt>
      <trkpt lat="41.9027620" lon="-2.8630950">
        <ele>1375.3</ele>
        <time>2022-02-08T10:32:26Z</time>
      </trkpt>
      <trkpt lat="41.9027500" lon="-2.8631130">
        <ele>1375.3</ele>
        <time>2022-02-08T10:32:27Z</time>
      </trkpt>
      <trkpt lat="41.9027300" lon="-2.8631380">
        <ele>1375.3</ele>
        <time>2022-02-08T10:32:28Z</time>
      </trkpt>
      <trkpt lat="41.9027180" lon="-2.8631550">
        <ele>1376.1</ele>
        <time>2022-02-08T10:32:29Z</time>
      </trkpt>
      <trkpt lat="41.9026970" lon="-2.8631770">
        <ele>1376.1</ele>
        <time>2022-02-08T10:32:30Z</time>
      </trkpt>
      <trkpt lat="41.9026750" lon="-2.8632000">
        <ele>1376.1</ele>
        <time>2022-02-08T10:32:31Z</time>
      </trkpt>
      <trkpt lat="41.9026600" lon="-2.8632220">
        <ele>1377.6</ele>
        <time>2022-02-08T10:32:32Z</time>
      </trkpt>
      <trkpt lat="41.9026400" lon="-2.8632550">
        <ele>1377.6</ele>
        <time>2022-02-08T10:32:33Z</time>
      </trkpt>
      <trkpt lat="41.9026300" lon="-2.8632800">
        <ele>1377.6</ele>
        <time>2022-02-08T10:32:34Z</time>
      </trkpt>
      <trkpt lat="41.9026180" lon="-2.8633070">
        <ele>1377.6</ele>
        <time>2022-02-08T10:32:35Z</time>
      </trkpt>
      <trkpt lat="41.9026100" lon="-2.8633280">
        <ele>1378.4</ele>
        <time>2022-02-08T10:32:36Z</time>
      </trkpt>
      <trkpt lat="41.9025980" lon="-2.8633580">
        <ele>1378.4</ele>
        <time>2022-02-08T10:32:37Z</time>
      </trkpt>
      <trkpt lat="41.9025880" lon="-2.8633850">
        <ele>1378.4</ele>
        <time>2022-02-08T10:32:38Z</time>
      </trkpt>
      <trkpt lat="41.9025730" lon="-2.8634130">
        <ele>1378.4</ele>
        <time>2022-02-08T10:32:39Z</time>
      </trkpt>
      <trkpt lat="41.9025450" lon="-2.8634520">
        <ele>1378.4</ele>
        <time>2022-02-08T10:32:40Z</time>
      </trkpt>
      <trkpt lat="41.9025270" lon="-2.8634830">
        <ele>1379.7</ele>
        <time>2022-02-08T10:32:41Z</time>
      </trkpt>
      <trkpt lat="41.9025180" lon="-2.8635130">
        <ele>1379.8</ele>
        <time>2022-02-08T10:32:42Z</time>
      </trkpt>
      <trkpt lat="41.9025000" lon="-2.8635470">
        <ele>1379.8</ele>
        <time>2022-02-08T10:32:43Z</time>
      </trkpt>
      <trkpt lat="41.9024820" lon="-2.8635780">
        <ele>1379.8</ele>
        <time>2022-02-08T10:32:44Z</time>
      </trkpt>
      <trkpt lat="41.9024700" lon="-2.8636170">
        <ele>1379.8</ele>
        <time>2022-02-08T10:32:45Z</time>
      </trkpt>
      <trkpt lat="41.9024650" lon="-2.8636400">
        <ele>1379.8</ele>
        <time>2022-02-08T10:32:46Z</time>
      </trkpt>
      <trkpt lat="41.9024580" lon="-2.8636680">
        <ele>1379.3</ele>
        <time>2022-02-08T10:32:47Z</time>
      </trkpt>
      <trkpt lat="41.9024520" lon="-2.8636980">
        <ele>1379.3</ele>
        <time>2022-02-08T10:32:48Z</time>
      </trkpt>
      <trkpt lat="41.9024500" lon="-2.8637230">
        <ele>1379.3</ele>
        <time>2022-02-08T10:32:49Z</time>
      </trkpt>
      <trkpt lat="41.9024480" lon="-2.8637530">
        <ele>1379.3</ele>
        <time>2022-02-08T10:32:50Z</time>
      </trkpt>
      <trkpt lat="41.9024380" lon="-2.8637830">
        <ele>1379.3</ele>
        <time>2022-02-08T10:32:51Z</time>
      </trkpt>
      <trkpt lat="41.9024270" lon="-2.8638120">
        <ele>1379.3</ele>
        <time>2022-02-08T10:32:52Z</time>
      </trkpt>
      <trkpt lat="41.9024180" lon="-2.8638400">
        <ele>1378.4</ele>
        <time>2022-02-08T10:32:53Z</time>
      </trkpt>
      <trkpt lat="41.9024100" lon="-2.8638680">
        <ele>1378.4</ele>
        <time>2022-02-08T10:32:54Z</time>
      </trkpt>
      <trkpt lat="41.9023950" lon="-2.8639050">
        <ele>1379.1</ele>
        <time>2022-02-08T10:32:55Z</time>
      </trkpt>
      <trkpt lat="41.9023830" lon="-2.8639320">
        <ele>1379.1</ele>
        <time>2022-02-08T10:32:56Z</time>
      </trkpt>
      <trkpt lat="41.9023680" lon="-2.8639700">
        <ele>1379.1</ele>
        <time>2022-02-08T10:32:57Z</time>
      </trkpt>
      <trkpt lat="41.9023550" lon="-2.8640200">
        <ele>1378.7</ele>
        <time>2022-02-08T10:32:58Z</time>
      </trkpt>
      <trkpt lat="41.9023430" lon="-2.8640500">
        <ele>1378.7</ele>
        <time>2022-02-08T10:32:59Z</time>
      </trkpt>
      <trkpt lat="41.9023470" lon="-2.8640730">
        <ele>1378.7</ele>
        <time>2022-02-08T10:33:00Z</time>
      </trkpt>
      <trkpt lat="41.9023520" lon="-2.8640980">
        <ele>1378.7</ele>
        <time>2022-02-08T10:33:01Z</time>
      </trkpt>
      <trkpt lat="41.9023470" lon="-2.8641280">
        <ele>1378.7</ele>
        <time>2022-02-08T10:33:02Z</time>
      </trkpt>
      <trkpt lat="41.9023400" lon="-2.8641630">
        <ele>1378.7</ele>
        <time>2022-02-08T10:33:03Z</time>
      </trkpt>
      <trkpt lat="41.9023330" lon="-2.8641950">
        <ele>1379.3</ele>
        <time>2022-02-08T10:33:04Z</time>
      </trkpt>
      <trkpt lat="41.9023270" lon="-2.8642270">
        <ele>1379.3</ele>
        <time>2022-02-08T10:33:05Z</time>
      </trkpt>
      <trkpt lat="41.9023080" lon="-2.8642570">
        <ele>1379.3</ele>
        <time>2022-02-08T10:33:06Z</time>
      </trkpt>
      <trkpt lat="41.9022970" lon="-2.8642870">
        <ele>1379.3</ele>
        <time>2022-02-08T10:33:07Z</time>
      </trkpt>
      <trkpt lat="41.9022900" lon="-2.8643180">
        <ele>1379.3</ele>
        <time>2022-02-08T10:33:08Z</time>
      </trkpt>
      <trkpt lat="41.9022880" lon="-2.8643480">
        <ele>1380.9</ele>
        <time>2022-02-08T10:33:09Z</time>
      </trkpt>
      <trkpt lat="41.9022850" lon="-2.8643780">
        <ele>1380.9</ele>
        <time>2022-02-08T10:33:10Z</time>
      </trkpt>
      <trkpt lat="41.9022880" lon="-2.8644020">
        <ele>1380.9</ele>
        <time>2022-02-08T10:33:11Z</time>
      </trkpt>
      <trkpt lat="41.9022880" lon="-2.8644320">
        <ele>1380.9</ele>
        <time>2022-02-08T10:33:12Z</time>
      </trkpt>
      <trkpt lat="41.9022820" lon="-2.8644620">
        <ele>1380.9</ele>
        <time>2022-02-08T10:33:13Z</time>
      </trkpt>
      <trkpt lat="41.9022780" lon="-2.8644870">
        <ele>1380.9</ele>
        <time>2022-02-08T10:33:14Z</time>
      </trkpt>
      <trkpt lat="41.9022750" lon="-2.8645070">
        <ele>1382.0</ele>
        <time>2022-02-08T10:33:15Z</time>
      </trkpt>
      <trkpt lat="41.9022750" lon="-2.8645450">
        <ele>1384.4</ele>
        <time>2022-02-08T10:33:16Z</time>
      </trkpt>
      <trkpt lat="41.9022670" lon="-2.8645730">
        <ele>1384.4</ele>
        <time>2022-02-08T10:33:17Z</time>
      </trkpt>
      <trkpt lat="41.9022650" lon="-2.8646000">
        <ele>1384.4</ele>
        <time>2022-02-08T10:33:18Z</time>
      </trkpt>
      <trkpt lat="41.9022600" lon="-2.8646250">
        <ele>1384.4</ele>
        <time>2022-02-08T10:33:19Z</time>
      </trkpt>
      <trkpt lat="41.9022550" lon="-2.8646450">
        <ele>1384.4</ele>
        <time>2022-02-08T10:33:20Z</time>
      </trkpt>
      <trkpt lat="41.9022520" lon="-2.8646680">
        <ele>1384.4</ele>
        <time>2022-02-08T10:33:21Z</time>
      </trkpt>
      <trkpt lat="41.9022480" lon="-2.8646880">
        <ele>1387.3</ele>
        <time>2022-02-08T10:33:22Z</time>
      </trkpt>
      <trkpt lat="41.9022520" lon="-2.8647050">
        <ele>1387.3</ele>
        <time>2022-02-08T10:33:23Z</time>
      </trkpt>
      <trkpt lat="41.9022550" lon="-2.8647180">
        <ele>1387.3</ele>
        <time>2022-02-08T10:33:24Z</time>
      </trkpt>
      <trkpt lat="41.9022580" lon="-2.8647320">
        <ele>1387.3</ele>
        <time>2022-02-08T10:33:25Z</time>
      </trkpt>
      <trkpt lat="41.9022580" lon="-2.8647520">
        <ele>1387.3</ele>
        <time>2022-02-08T10:33:26Z</time>
      </trkpt>
      <trkpt lat="41.9022580" lon="-2.8647700">
        <ele>1387.3</ele>
        <time>2022-02-08T10:33:27Z</time>
      </trkpt>
      <trkpt lat="41.9022650" lon="-2.8647830">
        <ele>1387.3</ele>
        <time>2022-02-08T10:33:28Z</time>
      </trkpt>
      <trkpt lat="41.9022680" lon="-2.8648000">
        <ele>1387.3</ele>
        <time>2022-02-08T10:33:29Z</time>
      </trkpt>
      <trkpt lat="41.9022630" lon="-2.8648100">
        <ele>1387.3</ele>
        <time>2022-02-08T10:33:30Z</time>
      </trkpt>
      <trkpt lat="41.9022630" lon="-2.8648230">
        <ele>1387.3</ele>
        <time>2022-02-08T10:33:31Z</time>
      </trkpt>
      <trkpt lat="41.9022570" lon="-2.8648380">
        <ele>1387.3</ele>
        <time>2022-02-08T10:33:32Z</time>
      </trkpt>
      <trkpt lat="41.9022500" lon="-2.8648550">
        <ele>1387.3</ele>
        <time>2022-02-08T10:33:33Z</time>
      </trkpt>
      <trkpt lat="41.9022370" lon="-2.8648750">
        <ele>1390.0</ele>
        <time>2022-02-08T10:33:34Z</time>
      </trkpt>
      <trkpt lat="41.9022250" lon="-2.8648920">
        <ele>1390.0</ele>
        <time>2022-02-08T10:33:35Z</time>
      </trkpt>
      <trkpt lat="41.9022030" lon="-2.8649350">
        <ele>1390.0</ele>
        <time>2022-02-08T10:33:36Z</time>
      </trkpt>
      <trkpt lat="41.9021930" lon="-2.8649700">
        <ele>1390.0</ele>
        <time>2022-02-08T10:33:37Z</time>
      </trkpt>
      <trkpt lat="41.9021850" lon="-2.8649920">
        <ele>1390.0</ele>
        <time>2022-02-08T10:33:38Z</time>
      </trkpt>
      <trkpt lat="41.9021730" lon="-2.8650150">
        <ele>1390.0</ele>
        <time>2022-02-08T10:33:39Z</time>
      </trkpt>
      <trkpt lat="41.9021580" lon="-2.8650380">
        <ele>1392.5</ele>
        <time>2022-02-08T10:33:40Z</time>
      </trkpt>
      <trkpt lat="41.9021380" lon="-2.8650620">
        <ele>1393.6</ele>
        <time>2022-02-08T10:33:41Z</time>
      </trkpt>
      <trkpt lat="41.9021220" lon="-2.8650880">
        <ele>1393.6</ele>
        <time>2022-02-08T10:33:42Z</time>
      </trkpt>
      <trkpt lat="41.9021050" lon="-2.8651070">
        <ele>1393.7</ele>
        <time>2022-02-08T10:33:43Z</time>
      </trkpt>
      <trkpt lat="41.9020870" lon="-2.8651200">
        <ele>1393.7</ele>
        <time>2022-02-08T10:33:44Z</time>
      </trkpt>
      <trkpt lat="41.9020720" lon="-2.8651350">
        <ele>1393.7</ele>
        <time>2022-02-08T10:33:45Z</time>
      </trkpt>
      <trkpt lat="41.9020550" lon="-2.8651550">
        <ele>1393.7</ele>
        <time>2022-02-08T10:33:46Z</time>
      </trkpt>
      <trkpt lat="41.9020400" lon="-2.8651830">
        <ele>1393.7</ele>
        <time>2022-02-08T10:33:47Z</time>
      </trkpt>
      <trkpt lat="41.9020270" lon="-2.8652000">
        <ele>1393.7</ele>
        <time>2022-02-08T10:33:48Z</time>
      </trkpt>
      <trkpt lat="41.9020130" lon="-2.8652050">
        <ele>1396.2</ele>
        <time>2022-02-08T10:33:49Z</time>
      </trkpt>
      <trkpt lat="41.9020030" lon="-2.8652120">
        <ele>1396.2</ele>
        <time>2022-02-08T10:33:50Z</time>
      </trkpt>
      <trkpt lat="41.9019970" lon="-2.8652280">
        <ele>1396.2</ele>
        <time>2022-02-08T10:33:51Z</time>
      </trkpt>
      <trkpt lat="41.9019850" lon="-2.8652500">
        <ele>1396.2</ele>
        <time>2022-02-08T10:33:52Z</time>
      </trkpt>
      <trkpt lat="41.9019730" lon="-2.8652720">
        <ele>1396.2</ele>
        <time>2022-02-08T10:33:53Z</time>
      </trkpt>
      <trkpt lat="41.9019570" lon="-2.8653000">
        <ele>1396.2</ele>
        <time>2022-02-08T10:33:54Z</time>
      </trkpt>
      <trkpt lat="41.9019470" lon="-2.8653230">
        <ele>1396.2</ele>
        <time>2022-02-08T10:33:55Z</time>
      </trkpt>
      <trkpt lat="41.9019350" lon="-2.8653530">
        <ele>1396.2</ele>
        <time>2022-02-08T10:33:56Z</time>
      </trkpt>
      <trkpt lat="41.9019320" lon="-2.8653700">
        <ele>1396.2</ele>
        <time>2022-02-08T10:33:57Z</time>
      </trkpt>
      <trkpt lat="41.9019270" lon="-2.8653900">
        <ele>1397.5</ele>
        <time>2022-02-08T10:33:58Z</time>
      </trkpt>
      <trkpt lat="41.9019220" lon="-2.8654080">
        <ele>1397.5</ele>
        <time>2022-02-08T10:33:59Z</time>
      </trkpt>
      <trkpt lat="41.9019200" lon="-2.8654250">
        <ele>1397.5</ele>
        <time>2022-02-08T10:34:00Z</time>
      </trkpt>
      <trkpt lat="41.9019180" lon="-2.8654420">
        <ele>1397.5</ele>
        <time>2022-02-08T10:34:01Z</time>
      </trkpt>
      <trkpt lat="41.9019150" lon="-2.8654580">
        <ele>1397.5</ele>
        <time>2022-02-08T10:34:02Z</time>
      </trkpt>
      <trkpt lat="41.9019080" lon="-2.8654720">
        <ele>1397.5</ele>
        <time>2022-02-08T10:34:03Z</time>
      </trkpt>
      <trkpt lat="41.9019030" lon="-2.8654850">
        <ele>1397.5</ele>
        <time>2022-02-08T10:34:04Z</time>
      </trkpt>
      <trkpt lat="41.9018950" lon="-2.8654980">
        <ele>1397.5</ele>
        <time>2022-02-08T10:34:05Z</time>
      </trkpt>
      <trkpt lat="41.9018880" lon="-2.8655120">
        <ele>1398.4</ele>
        <time>2022-02-08T10:34:06Z</time>
      </trkpt>
      <trkpt lat="41.9018820" lon="-2.8655280">
        <ele>1398.4</ele>
        <time>2022-02-08T10:34:07Z</time>
      </trkpt>
      <trkpt lat="41.9018770" lon="-2.8655570">
        <ele>1399.8</ele>
        <time>2022-02-08T10:34:08Z</time>
      </trkpt>
      <trkpt lat="41.9018630" lon="-2.8655870">
        <ele>1399.8</ele>
        <time>2022-02-08T10:34:09Z</time>
      </trkpt>
      <trkpt lat="41.9018570" lon="-2.8656150">
        <ele>1399.8</ele>
        <time>2022-02-08T10:34:10Z</time>
      </trkpt>
      <trkpt lat="41.9018400" lon="-2.8656370">
        <ele>1399.8</ele>
        <time>2022-02-08T10:34:11Z</time>
      </trkpt>
      <trkpt lat="41.9018230" lon="-2.8656580">
        <ele>1399.8</ele>
        <time>2022-02-08T10:34:12Z</time>
      </trkpt>
      <trkpt lat="41.9018050" lon="-2.8656820">
        <ele>1399.8</ele>
        <time>2022-02-08T10:34:13Z</time>
      </trkpt>
      <trkpt lat="41.9018020" lon="-2.8656950">
        <ele>1399.8</ele>
        <time>2022-02-08T10:34:14Z</time>
      </trkpt>
      <trkpt lat="41.9018000" lon="-2.8657050">
        <ele>1399.8</ele>
        <time>2022-02-08T10:34:15Z</time>
      </trkpt>
      <trkpt lat="41.9017980" lon="-2.8657170">
        <ele>1400.9</ele>
        <time>2022-02-08T10:34:16Z</time>
      </trkpt>
      <trkpt lat="41.9018000" lon="-2.8657350">
        <ele>1400.9</ele>
        <time>2022-02-08T10:34:17Z</time>
      </trkpt>
      <trkpt lat="41.9018000" lon="-2.8657480">
        <ele>1400.9</ele>
        <time>2022-02-08T10:34:18Z</time>
      </trkpt>
      <trkpt lat="41.9017950" lon="-2.8657630">
        <ele>1401.0</ele>
        <time>2022-02-08T10:34:19Z</time>
      </trkpt>
      <trkpt lat="41.9017950" lon="-2.8657780">
        <ele>1401.0</ele>
        <time>2022-02-08T10:34:20Z</time>
      </trkpt>
      <trkpt lat="41.9017900" lon="-2.8657980">
        <ele>1401.0</ele>
        <time>2022-02-08T10:34:21Z</time>
      </trkpt>
      <trkpt lat="41.9017900" lon="-2.8658220">
        <ele>1401.0</ele>
        <time>2022-02-08T10:34:22Z</time>
      </trkpt>
      <trkpt lat="41.9017900" lon="-2.8658430">
        <ele>1401.0</ele>
        <time>2022-02-08T10:34:23Z</time>
      </trkpt>
      <trkpt lat="41.9017900" lon="-2.8658750">
        <ele>1401.0</ele>
        <time>2022-02-08T10:34:24Z</time>
      </trkpt>
      <trkpt lat="41.9017920" lon="-2.8658980">
        <ele>1401.9</ele>
        <time>2022-02-08T10:34:25Z</time>
      </trkpt>
      <trkpt lat="41.9017970" lon="-2.8659250">
        <ele>1401.9</ele>
        <time>2022-02-08T10:34:26Z</time>
      </trkpt>
      <trkpt lat="41.9018030" lon="-2.8659620">
        <ele>1401.9</ele>
        <time>2022-02-08T10:34:27Z</time>
      </trkpt>
      <trkpt lat="41.9018020" lon="-2.8659930">
        <ele>1401.9</ele>
        <time>2022-02-08T10:34:28Z</time>
      </trkpt>
      <trkpt lat="41.9018070" lon="-2.8660280">
        <ele>1401.9</ele>
        <time>2022-02-08T10:34:29Z</time>
      </trkpt>
      <trkpt lat="41.9018070" lon="-2.8660570">
        <ele>1401.9</ele>
        <time>2022-02-08T10:34:30Z</time>
      </trkpt>
      <trkpt lat="41.9018080" lon="-2.8660830">
        <ele>1402.5</ele>
        <time>2022-02-08T10:34:31Z</time>
      </trkpt>
      <trkpt lat="41.9018080" lon="-2.8661120">
        <ele>1402.5</ele>
        <time>2022-02-08T10:34:32Z</time>
      </trkpt>
      <trkpt lat="41.9018080" lon="-2.8661280">
        <ele>1402.5</ele>
        <time>2022-02-08T10:34:33Z</time>
      </trkpt>
      <trkpt lat="41.9018080" lon="-2.8661480">
        <ele>1402.5</ele>
        <time>2022-02-08T10:34:34Z</time>
      </trkpt>
      <trkpt lat="41.9018100" lon="-2.8661700">
        <ele>1402.5</ele>
        <time>2022-02-08T10:34:35Z</time>
      </trkpt>
      <trkpt lat="41.9018080" lon="-2.8661970">
        <ele>1402.5</ele>
        <time>2022-02-08T10:34:36Z</time>
      </trkpt>
      <trkpt lat="41.9018070" lon="-2.8662220">
        <ele>1402.5</ele>
        <time>2022-02-08T10:34:37Z</time>
      </trkpt>
      <trkpt lat="41.9018080" lon="-2.8662450">
        <ele>1402.9</ele>
        <time>2022-02-08T10:34:38Z</time>
      </trkpt>
      <trkpt lat="41.9018070" lon="-2.8662670">
        <ele>1402.9</ele>
        <time>2022-02-08T10:34:39Z</time>
      </trkpt>
      <trkpt lat="41.9018030" lon="-2.8662900">
        <ele>1402.9</ele>
        <time>2022-02-08T10:34:40Z</time>
      </trkpt>
      <trkpt lat="41.9017980" lon="-2.8663180">
        <ele>1402.9</ele>
        <time>2022-02-08T10:34:41Z</time>
      </trkpt>
      <trkpt lat="41.9017900" lon="-2.8663430">
        <ele>1402.9</ele>
        <time>2022-02-08T10:34:42Z</time>
      </trkpt>
      <trkpt lat="41.9017830" lon="-2.8663650">
        <ele>1402.9</ele>
        <time>2022-02-08T10:34:43Z</time>
      </trkpt>
      <trkpt lat="41.9017720" lon="-2.8663870">
        <ele>1402.9</ele>
        <time>2022-02-08T10:34:44Z</time>
      </trkpt>
      <trkpt lat="41.9017620" lon="-2.8664120">
        <ele>1404.1</ele>
        <time>2022-02-08T10:34:45Z</time>
      </trkpt>
      <trkpt lat="41.9017500" lon="-2.8664370">
        <ele>1404.1</ele>
        <time>2022-02-08T10:34:46Z</time>
      </trkpt>
      <trkpt lat="41.9017380" lon="-2.8664630">
        <ele>1404.1</ele>
        <time>2022-02-08T10:34:47Z</time>
      </trkpt>
      <trkpt lat="41.9017250" lon="-2.8664870">
        <ele>1404.1</ele>
        <time>2022-02-08T10:34:48Z</time>
      </trkpt>
      <trkpt lat="41.9017130" lon="-2.8665050">
        <ele>1404.1</ele>
        <time>2022-02-08T10:34:49Z</time>
      </trkpt>
      <trkpt lat="41.9017030" lon="-2.8665270">
        <ele>1404.1</ele>
        <time>2022-02-08T10:34:50Z</time>
      </trkpt>
      <trkpt lat="41.9016920" lon="-2.8665530">
        <ele>1404.1</ele>
        <time>2022-02-08T10:34:51Z</time>
      </trkpt>
      <trkpt lat="41.9016820" lon="-2.8665770">
        <ele>1404.3</ele>
        <time>2022-02-08T10:34:52Z</time>
      </trkpt>
      <trkpt lat="41.9016720" lon="-2.8666030">
        <ele>1404.3</ele>
        <time>2022-02-08T10:34:53Z</time>
      </trkpt>
      <trkpt lat="41.9016630" lon="-2.8666250">
        <ele>1404.3</ele>
        <time>2022-02-08T10:34:54Z</time>
      </trkpt>
      <trkpt lat="41.9016570" lon="-2.8666520">
        <ele>1404.3</ele>
        <time>2022-02-08T10:34:55Z</time>
      </trkpt>
      <trkpt lat="41.9016520" lon="-2.8666800">
        <ele>1404.3</ele>
        <time>2022-02-08T10:34:56Z</time>
      </trkpt>
      <trkpt lat="41.9016450" lon="-2.8667070">
        <ele>1404.3</ele>
        <time>2022-02-08T10:34:57Z</time>
      </trkpt>
      <trkpt lat="41.9016430" lon="-2.8667330">
        <ele>1404.3</ele>
        <time>2022-02-08T10:34:58Z</time>
      </trkpt>
      <trkpt lat="41.9016370" lon="-2.8667630">
        <ele>1405.8</ele>
        <time>2022-02-08T10:34:59Z</time>
      </trkpt>
      <trkpt lat="41.9016270" lon="-2.8667950">
        <ele>1405.8</ele>
        <time>2022-02-08T10:35:00Z</time>
      </trkpt>
      <trkpt lat="41.9016200" lon="-2.8668270">
        <ele>1405.8</ele>
        <time>2022-02-08T10:35:01Z</time>
      </trkpt>
      <trkpt lat="41.9016130" lon="-2.8668580">
        <ele>1405.8</ele>
        <time>2022-02-08T10:35:02Z</time>
      </trkpt>
      <trkpt lat="41.9016050" lon="-2.8668920">
        <ele>1405.8</ele>
        <time>2022-02-08T10:35:03Z</time>
      </trkpt>
      <trkpt lat="41.9015980" lon="-2.8669230">
        <ele>1405.9</ele>
        <time>2022-02-08T10:35:04Z</time>
      </trkpt>
      <trkpt lat="41.9015950" lon="-2.8669530">
        <ele>1405.9</ele>
        <time>2022-02-08T10:35:05Z</time>
      </trkpt>
      <trkpt lat="41.9015930" lon="-2.8669870">
        <ele>1406.0</ele>
        <time>2022-02-08T10:35:06Z</time>
      </trkpt>
      <trkpt lat="41.9015950" lon="-2.8670220">
        <ele>1406.0</ele>
        <time>2022-02-08T10:35:07Z</time>
      </trkpt>
      <trkpt lat="41.9015970" lon="-2.8670700">
        <ele>1406.0</ele>
        <time>2022-02-08T10:35:08Z</time>
      </trkpt>
      <trkpt lat="41.9015970" lon="-2.8671180">
        <ele>1405.8</ele>
        <time>2022-02-08T10:35:09Z</time>
      </trkpt>
      <trkpt lat="41.9015900" lon="-2.8671700">
        <ele>1405.8</ele>
        <time>2022-02-08T10:35:10Z</time>
      </trkpt>
      <trkpt lat="41.9015850" lon="-2.8672200">
        <ele>1405.8</ele>
        <time>2022-02-08T10:35:11Z</time>
      </trkpt>
      <trkpt lat="41.9015850" lon="-2.8672620">
        <ele>1405.3</ele>
        <time>2022-02-08T10:35:12Z</time>
      </trkpt>
      <trkpt lat="41.9015880" lon="-2.8672930">
        <ele>1405.4</ele>
        <time>2022-02-08T10:35:13Z</time>
      </trkpt>
      <trkpt lat="41.9015880" lon="-2.8673300">
        <ele>1405.4</ele>
        <time>2022-02-08T10:35:14Z</time>
      </trkpt>
      <trkpt lat="41.9015820" lon="-2.8673680">
        <ele>1405.4</ele>
        <time>2022-02-08T10:35:15Z</time>
      </trkpt>
      <trkpt lat="41.9015770" lon="-2.8673950">
        <ele>1405.4</ele>
        <time>2022-02-08T10:35:16Z</time>
      </trkpt>
      <trkpt lat="41.9015670" lon="-2.8674250">
        <ele>1405.4</ele>
        <time>2022-02-08T10:35:17Z</time>
      </trkpt>
      <trkpt lat="41.9015550" lon="-2.8674520">
        <ele>1405.1</ele>
        <time>2022-02-08T10:35:18Z</time>
      </trkpt>
      <trkpt lat="41.9015450" lon="-2.8674770">
        <ele>1405.1</ele>
        <time>2022-02-08T10:35:19Z</time>
      </trkpt>
      <trkpt lat="41.9015330" lon="-2.8675050">
        <ele>1405.1</ele>
        <time>2022-02-08T10:35:20Z</time>
      </trkpt>
      <trkpt lat="41.9015200" lon="-2.8675320">
        <ele>1405.1</ele>
        <time>2022-02-08T10:35:21Z</time>
      </trkpt>
      <trkpt lat="41.9015020" lon="-2.8675620">
        <ele>1406.2</ele>
        <time>2022-02-08T10:35:22Z</time>
      </trkpt>
      <trkpt lat="41.9014770" lon="-2.8676080">
        <ele>1405.9</ele>
        <time>2022-02-08T10:35:23Z</time>
      </trkpt>
      <trkpt lat="41.9014580" lon="-2.8676380">
        <ele>1405.9</ele>
        <time>2022-02-08T10:35:24Z</time>
      </trkpt>
      <trkpt lat="41.9014450" lon="-2.8676700">
        <ele>1405.9</ele>
        <time>2022-02-08T10:35:25Z</time>
      </trkpt>
      <trkpt lat="41.9014320" lon="-2.8677070">
        <ele>1405.9</ele>
        <time>2022-02-08T10:35:26Z</time>
      </trkpt>
      <trkpt lat="41.9014200" lon="-2.8677370">
        <ele>1405.9</ele>
        <time>2022-02-08T10:35:27Z</time>
      </trkpt>
      <trkpt lat="41.9014080" lon="-2.8677680">
        <ele>1405.9</ele>
        <time>2022-02-08T10:35:28Z</time>
      </trkpt>
      <trkpt lat="41.9013920" lon="-2.8678050">
        <ele>1405.5</ele>
        <time>2022-02-08T10:35:29Z</time>
      </trkpt>
      <trkpt lat="41.9013780" lon="-2.8678420">
        <ele>1407.3</ele>
        <time>2022-02-08T10:35:30Z</time>
      </trkpt>
      <trkpt lat="41.9013750" lon="-2.8678720">
        <ele>1407.3</ele>
        <time>2022-02-08T10:35:31Z</time>
      </trkpt>
      <trkpt lat="41.9013700" lon="-2.8679070">
        <ele>1407.3</ele>
        <time>2022-02-08T10:35:32Z</time>
      </trkpt>
      <trkpt lat="41.9013580" lon="-2.8679430">
        <ele>1407.3</ele>
        <time>2022-02-08T10:35:33Z</time>
      </trkpt>
      <trkpt lat="41.9013520" lon="-2.8679720">
        <ele>1407.1</ele>
        <time>2022-02-08T10:35:34Z</time>
      </trkpt>
      <trkpt lat="41.9013480" lon="-2.8680000">
        <ele>1407.1</ele>
        <time>2022-02-08T10:35:35Z</time>
      </trkpt>
      <trkpt lat="41.9013430" lon="-2.8680320">
        <ele>1407.1</ele>
        <time>2022-02-08T10:35:36Z</time>
      </trkpt>
      <trkpt lat="41.9013300" lon="-2.8680850">
        <ele>1407.1</ele>
        <time>2022-02-08T10:35:37Z</time>
      </trkpt>
      <trkpt lat="41.9013120" lon="-2.8681320">
        <ele>1407.3</ele>
        <time>2022-02-08T10:35:38Z</time>
      </trkpt>
      <trkpt lat="41.9013000" lon="-2.8681650">
        <ele>1407.3</ele>
        <time>2022-02-08T10:35:39Z</time>
      </trkpt>
      <trkpt lat="41.9012880" lon="-2.8681980">
        <ele>1407.3</ele>
        <time>2022-02-08T10:35:40Z</time>
      </trkpt>
      <trkpt lat="41.9012750" lon="-2.8682280">
        <ele>1407.3</ele>
        <time>2022-02-08T10:35:41Z</time>
      </trkpt>
      <trkpt lat="41.9012650" lon="-2.8682600">
        <ele>1407.3</ele>
        <time>2022-02-08T10:35:42Z</time>
      </trkpt>
      <trkpt lat="41.9012550" lon="-2.8682900">
        <ele>1407.7</ele>
        <time>2022-02-08T10:35:43Z</time>
      </trkpt>
      <trkpt lat="41.9012500" lon="-2.8683230">
        <ele>1409.5</ele>
        <time>2022-02-08T10:35:44Z</time>
      </trkpt>
      <trkpt lat="41.9012470" lon="-2.8683600">
        <ele>1409.5</ele>
        <time>2022-02-08T10:35:45Z</time>
      </trkpt>
      <trkpt lat="41.9012420" lon="-2.8683970">
        <ele>1409.5</ele>
        <time>2022-02-08T10:35:46Z</time>
      </trkpt>
      <trkpt lat="41.9012380" lon="-2.8684320">
        <ele>1409.5</ele>
        <time>2022-02-08T10:35:47Z</time>
      </trkpt>
      <trkpt lat="41.9012270" lon="-2.8684730">
        <ele>1409.7</ele>
        <time>2022-02-08T10:35:48Z</time>
      </trkpt>
      <trkpt lat="41.9012170" lon="-2.8685080">
        <ele>1409.7</ele>
        <time>2022-02-08T10:35:49Z</time>
      </trkpt>
      <trkpt lat="41.9012070" lon="-2.8685380">
        <ele>1409.7</ele>
        <time>2022-02-08T10:35:50Z</time>
      </trkpt>
      <trkpt lat="41.9012020" lon="-2.8685680">
        <ele>1409.7</ele>
        <time>2022-02-08T10:35:51Z</time>
      </trkpt>
      <trkpt lat="41.9012000" lon="-2.8685980">
        <ele>1409.8</ele>
        <time>2022-02-08T10:35:52Z</time>
      </trkpt>
      <trkpt lat="41.9011930" lon="-2.8686270">
        <ele>1409.8</ele>
        <time>2022-02-08T10:35:53Z</time>
      </trkpt>
      <trkpt lat="41.9011870" lon="-2.8686520">
        <ele>1409.6</ele>
        <time>2022-02-08T10:35:54Z</time>
      </trkpt>
      <trkpt lat="41.9011830" lon="-2.8686750">
        <ele>1409.6</ele>
        <time>2022-02-08T10:35:55Z</time>
      </trkpt>
      <trkpt lat="41.9011750" lon="-2.8687000">
        <ele>1409.6</ele>
        <time>2022-02-08T10:35:56Z</time>
      </trkpt>
      <trkpt lat="41.9011670" lon="-2.8687220">
        <ele>1409.6</ele>
        <time>2022-02-08T10:35:57Z</time>
      </trkpt>
      <trkpt lat="41.9011580" lon="-2.8687420">
        <ele>1409.6</ele>
        <time>2022-02-08T10:35:58Z</time>
      </trkpt>
      <trkpt lat="41.9011450" lon="-2.8687680">
        <ele>1409.6</ele>
        <time>2022-02-08T10:35:59Z</time>
      </trkpt>
      <trkpt lat="41.9011300" lon="-2.8688000">
        <ele>1409.6</ele>
        <time>2022-02-08T10:36:00Z</time>
      </trkpt>
      <trkpt lat="41.9011180" lon="-2.8688280">
        <ele>1410.9</ele>
        <time>2022-02-08T10:36:01Z</time>
      </trkpt>
      <trkpt lat="41.9011050" lon="-2.8688570">
        <ele>1410.9</ele>
        <time>2022-02-08T10:36:02Z</time>
      </trkpt>
      <trkpt lat="41.9010880" lon="-2.8688870">
        <ele>1410.9</ele>
        <time>2022-02-08T10:36:03Z</time>
      </trkpt>
      <trkpt lat="41.9010680" lon="-2.8689180">
        <ele>1410.9</ele>
        <time>2022-02-08T10:36:04Z</time>
      </trkpt>
      <trkpt lat="41.9010470" lon="-2.8689480">
        <ele>1410.9</ele>
        <time>2022-02-08T10:36:05Z</time>
      </trkpt>
      <trkpt lat="41.9010230" lon="-2.8689780">
        <ele>1410.0</ele>
        <time>2022-02-08T10:36:06Z</time>
      </trkpt>
      <trkpt lat="41.9009970" lon="-2.8690130">
        <ele>1411.6</ele>
        <time>2022-02-08T10:36:07Z</time>
      </trkpt>
      <trkpt lat="41.9009720" lon="-2.8690450">
        <ele>1411.6</ele>
        <time>2022-02-08T10:36:08Z</time>
      </trkpt>
      <trkpt lat="41.9009450" lon="-2.8690830">
        <ele>1411.6</ele>
        <time>2022-02-08T10:36:09Z</time>
      </trkpt>
      <trkpt lat="41.9009150" lon="-2.8691430">
        <ele>1411.6</ele>
        <time>2022-02-08T10:36:10Z</time>
      </trkpt>
      <trkpt lat="41.9008930" lon="-2.8692130">
        <ele>1410.4</ele>
        <time>2022-02-08T10:36:11Z</time>
      </trkpt>
      <trkpt lat="41.9008820" lon="-2.8692670">
        <ele>1410.4</ele>
        <time>2022-02-08T10:36:12Z</time>
      </trkpt>
      <trkpt lat="41.9008680" lon="-2.8693220">
        <ele>1411.1</ele>
        <time>2022-02-08T10:36:13Z</time>
      </trkpt>
      <trkpt lat="41.9008550" lon="-2.8693680">
        <ele>1411.1</ele>
        <time>2022-02-08T10:36:14Z</time>
      </trkpt>
      <trkpt lat="41.9008420" lon="-2.8694050">
        <ele>1411.1</ele>
        <time>2022-02-08T10:36:15Z</time>
      </trkpt>
      <trkpt lat="41.9008300" lon="-2.8694380">
        <ele>1411.1</ele>
        <time>2022-02-08T10:36:16Z</time>
      </trkpt>
      <trkpt lat="41.9008220" lon="-2.8694620">
        <ele>1411.1</ele>
        <time>2022-02-08T10:36:17Z</time>
      </trkpt>
      <trkpt lat="41.9008130" lon="-2.8694820">
        <ele>1411.1</ele>
        <time>2022-02-08T10:36:18Z</time>
      </trkpt>
      <trkpt lat="41.9008030" lon="-2.8695050">
        <ele>1410.0</ele>
        <time>2022-02-08T10:36:19Z</time>
      </trkpt>
      <trkpt lat="41.9007970" lon="-2.8695530">
        <ele>1410.0</ele>
        <time>2022-02-08T10:36:20Z</time>
      </trkpt>
      <trkpt lat="41.9007870" lon="-2.8696000">
        <ele>1410.0</ele>
        <time>2022-02-08T10:36:21Z</time>
      </trkpt>
      <trkpt lat="41.9008020" lon="-2.8696280">
        <ele>1410.0</ele>
        <time>2022-02-08T10:36:22Z</time>
      </trkpt>
      <trkpt lat="41.9008120" lon="-2.8696630">
        <ele>1410.0</ele>
        <time>2022-02-08T10:36:23Z</time>
      </trkpt>
      <trkpt lat="41.9008150" lon="-2.8697030">
        <ele>1409.3</ele>
        <time>2022-02-08T10:36:24Z</time>
      </trkpt>
      <trkpt lat="41.9008100" lon="-2.8697450">
        <ele>1409.3</ele>
        <time>2022-02-08T10:36:25Z</time>
      </trkpt>
      <trkpt lat="41.9008050" lon="-2.8697770">
        <ele>1409.3</ele>
        <time>2022-02-08T10:36:26Z</time>
      </trkpt>
      <trkpt lat="41.9008030" lon="-2.8698080">
        <ele>1409.3</ele>
        <time>2022-02-08T10:36:27Z</time>
      </trkpt>
      <trkpt lat="41.9008030" lon="-2.8698370">
        <ele>1408.9</ele>
        <time>2022-02-08T10:36:28Z</time>
      </trkpt>
      <trkpt lat="41.9008020" lon="-2.8698670">
        <ele>1408.9</ele>
        <time>2022-02-08T10:36:29Z</time>
      </trkpt>
      <trkpt lat="41.9008000" lon="-2.8699000">
        <ele>1408.9</ele>
        <time>2022-02-08T10:36:30Z</time>
      </trkpt>
      <trkpt lat="41.9007970" lon="-2.8699350">
        <ele>1408.9</ele>
        <time>2022-02-08T10:36:31Z</time>
      </trkpt>
      <trkpt lat="41.9007930" lon="-2.8699650">
        <ele>1408.9</ele>
        <time>2022-02-08T10:36:32Z</time>
      </trkpt>
      <trkpt lat="41.9007870" lon="-2.8699980">
        <ele>1408.9</ele>
        <time>2022-02-08T10:36:33Z</time>
      </trkpt>
      <trkpt lat="41.9007830" lon="-2.8700330">
        <ele>1408.7</ele>
        <time>2022-02-08T10:36:34Z</time>
      </trkpt>
      <trkpt lat="41.9007770" lon="-2.8700680">
        <ele>1408.7</ele>
        <time>2022-02-08T10:36:35Z</time>
      </trkpt>
      <trkpt lat="41.9007720" lon="-2.8701080">
        <ele>1408.7</ele>
        <time>2022-02-08T10:36:36Z</time>
      </trkpt>
      <trkpt lat="41.9007800" lon="-2.8701470">
        <ele>1408.7</ele>
        <time>2022-02-08T10:36:37Z</time>
      </trkpt>
      <trkpt lat="41.9007800" lon="-2.8701820">
        <ele>1408.6</ele>
        <time>2022-02-08T10:36:38Z</time>
      </trkpt>
      <trkpt lat="41.9007730" lon="-2.8702180">
        <ele>1408.6</ele>
        <time>2022-02-08T10:36:39Z</time>
      </trkpt>
      <trkpt lat="41.9007650" lon="-2.8702500">
        <ele>1408.6</ele>
        <time>2022-02-08T10:36:40Z</time>
      </trkpt>
      <trkpt lat="41.9007600" lon="-2.8702770">
        <ele>1408.6</ele>
        <time>2022-02-08T10:36:41Z</time>
      </trkpt>
      <trkpt lat="41.9007520" lon="-2.8702970">
        <ele>1408.6</ele>
        <time>2022-02-08T10:36:42Z</time>
      </trkpt>
      <trkpt lat="41.9007430" lon="-2.8703170">
        <ele>1410.5</ele>
        <time>2022-02-08T10:36:43Z</time>
      </trkpt>
      <trkpt lat="41.9007280" lon="-2.8703330">
        <ele>1410.5</ele>
        <time>2022-02-08T10:36:44Z</time>
      </trkpt>
      <trkpt lat="41.9007150" lon="-2.8703480">
        <ele>1410.5</ele>
        <time>2022-02-08T10:36:45Z</time>
      </trkpt>
      <trkpt lat="41.9006880" lon="-2.8703800">
        <ele>1410.3</ele>
        <time>2022-02-08T10:36:46Z</time>
      </trkpt>
      <trkpt lat="41.9006630" lon="-2.8704120">
        <ele>1410.3</ele>
        <time>2022-02-08T10:36:47Z</time>
      </trkpt>
      <trkpt lat="41.9006470" lon="-2.8704300">
        <ele>1410.3</ele>
        <time>2022-02-08T10:36:48Z</time>
      </trkpt>
      <trkpt lat="41.9006370" lon="-2.8704500">
        <ele>1410.3</ele>
        <time>2022-02-08T10:36:49Z</time>
      </trkpt>
      <trkpt lat="41.9006250" lon="-2.8704720">
        <ele>1410.3</ele>
        <time>2022-02-08T10:36:50Z</time>
      </trkpt>
      <trkpt lat="41.9006220" lon="-2.8704880">
        <ele>1410.3</ele>
        <time>2022-02-08T10:36:51Z</time>
      </trkpt>
      <trkpt lat="41.9005980" lon="-2.8705120">
        <ele>1412.6</ele>
        <time>2022-02-08T10:36:52Z</time>
      </trkpt>
      <trkpt lat="41.9005820" lon="-2.8705220">
        <ele>1412.3</ele>
        <time>2022-02-08T10:36:53Z</time>
      </trkpt>
      <trkpt lat="41.9005650" lon="-2.8705350">
        <ele>1412.3</ele>
        <time>2022-02-08T10:36:54Z</time>
      </trkpt>
      <trkpt lat="41.9005550" lon="-2.8705420">
        <ele>1412.3</ele>
        <time>2022-02-08T10:36:55Z</time>
      </trkpt>
      <trkpt lat="41.9005430" lon="-2.8705480">
        <ele>1412.3</ele>
        <time>2022-02-08T10:36:56Z</time>
      </trkpt>
      <trkpt lat="41.9005330" lon="-2.8705570">
        <ele>1412.3</ele>
        <time>2022-02-08T10:36:57Z</time>
      </trkpt>
      <trkpt lat="41.9005250" lon="-2.8705730">
        <ele>1412.3</ele>
        <time>2022-02-08T10:36:58Z</time>
      </trkpt>
      <trkpt lat="41.9005230" lon="-2.8705950">
        <ele>1412.3</ele>
        <time>2022-02-08T10:36:59Z</time>
      </trkpt>
      <trkpt lat="41.9005250" lon="-2.8706220">
        <ele>1412.3</ele>
        <time>2022-02-08T10:37:00Z</time>
      </trkpt>
      <trkpt lat="41.9005280" lon="-2.8706530">
        <ele>1412.3</ele>
        <time>2022-02-08T10:37:01Z</time>
      </trkpt>
      <trkpt lat="41.9005300" lon="-2.8706870">
        <ele>1412.3</ele>
        <time>2022-02-08T10:37:02Z</time>
      </trkpt>
      <trkpt lat="41.9005300" lon="-2.8707370">
        <ele>1412.4</ele>
        <time>2022-02-08T10:37:03Z</time>
      </trkpt>
      <trkpt lat="41.9005300" lon="-2.8707750">
        <ele>1412.4</ele>
        <time>2022-02-08T10:37:04Z</time>
      </trkpt>
      <trkpt lat="41.9005250" lon="-2.8708120">
        <ele>1412.4</ele>
        <time>2022-02-08T10:37:05Z</time>
      </trkpt>
      <trkpt lat="41.9005150" lon="-2.8708530">
        <ele>1412.4</ele>
        <time>2022-02-08T10:37:06Z</time>
      </trkpt>
      <trkpt lat="41.9005050" lon="-2.8708950">
        <ele>1413.0</ele>
        <time>2022-02-08T10:37:07Z</time>
      </trkpt>
      <trkpt lat="41.9004970" lon="-2.8709370">
        <ele>1413.0</ele>
        <time>2022-02-08T10:37:08Z</time>
      </trkpt>
      <trkpt lat="41.9004830" lon="-2.8709850">
        <ele>1414.7</ele>
        <time>2022-02-08T10:37:09Z</time>
      </trkpt>
      <trkpt lat="41.9004700" lon="-2.8710250">
        <ele>1414.7</ele>
        <time>2022-02-08T10:37:10Z</time>
      </trkpt>
      <trkpt lat="41.9004580" lon="-2.8710600">
        <ele>1415.6</ele>
        <time>2022-02-08T10:37:11Z</time>
      </trkpt>
      <trkpt lat="41.9004550" lon="-2.8710930">
        <ele>1415.6</ele>
        <time>2022-02-08T10:37:12Z</time>
      </trkpt>
      <trkpt lat="41.9004550" lon="-2.8711270">
        <ele>1415.7</ele>
        <time>2022-02-08T10:37:13Z</time>
      </trkpt>
      <trkpt lat="41.9004520" lon="-2.8711630">
        <ele>1415.7</ele>
        <time>2022-02-08T10:37:14Z</time>
      </trkpt>
      <trkpt lat="41.9004470" lon="-2.8711980">
        <ele>1415.7</ele>
        <time>2022-02-08T10:37:15Z</time>
      </trkpt>
      <trkpt lat="41.9004400" lon="-2.8712330">
        <ele>1416.8</ele>
        <time>2022-02-08T10:37:16Z</time>
      </trkpt>
      <trkpt lat="41.9004330" lon="-2.8712670">
        <ele>1416.8</ele>
        <time>2022-02-08T10:37:17Z</time>
      </trkpt>
      <trkpt lat="41.9004230" lon="-2.8712970">
        <ele>1416.8</ele>
        <time>2022-02-08T10:37:18Z</time>
      </trkpt>
      <trkpt lat="41.9004180" lon="-2.8713280">
        <ele>1416.8</ele>
        <time>2022-02-08T10:37:19Z</time>
      </trkpt>
      <trkpt lat="41.9004080" lon="-2.8713700">
        <ele>1416.8</ele>
        <time>2022-02-08T10:37:20Z</time>
      </trkpt>
      <trkpt lat="41.9004080" lon="-2.8714050">
        <ele>1418.1</ele>
        <time>2022-02-08T10:37:21Z</time>
      </trkpt>
      <trkpt lat="41.9004100" lon="-2.8714450">
        <ele>1418.1</ele>
        <time>2022-02-08T10:37:22Z</time>
      </trkpt>
      <trkpt lat="41.9004030" lon="-2.8714880">
        <ele>1418.1</ele>
        <time>2022-02-08T10:37:23Z</time>
      </trkpt>
      <trkpt lat="41.9004000" lon="-2.8715320">
        <ele>1418.2</ele>
        <time>2022-02-08T10:37:24Z</time>
      </trkpt>
      <trkpt lat="41.9003880" lon="-2.8715820">
        <ele>1419.8</ele>
        <time>2022-02-08T10:37:25Z</time>
      </trkpt>
      <trkpt lat="41.9003880" lon="-2.8716100">
        <ele>1419.8</ele>
        <time>2022-02-08T10:37:26Z</time>
      </trkpt>
      <trkpt lat="41.9003870" lon="-2.8716420">
        <ele>1419.8</ele>
        <time>2022-02-08T10:37:27Z</time>
      </trkpt>
      <trkpt lat="41.9003820" lon="-2.8716720">
        <ele>1419.9</ele>
        <time>2022-02-08T10:37:28Z</time>
      </trkpt>
      <trkpt lat="41.9003730" lon="-2.8717020">
        <ele>1419.9</ele>
        <time>2022-02-08T10:37:29Z</time>
      </trkpt>
      <trkpt lat="41.9003650" lon="-2.8717300">
        <ele>1422.0</ele>
        <time>2022-02-08T10:37:30Z</time>
      </trkpt>
      <trkpt lat="41.9003570" lon="-2.8717580">
        <ele>1424.0</ele>
        <time>2022-02-08T10:37:31Z</time>
      </trkpt>
      <trkpt lat="41.9003500" lon="-2.8717850">
        <ele>1424.0</ele>
        <time>2022-02-08T10:37:32Z</time>
      </trkpt>
      <trkpt lat="41.9003470" lon="-2.8718130">
        <ele>1424.0</ele>
        <time>2022-02-08T10:37:33Z</time>
      </trkpt>
      <trkpt lat="41.9003400" lon="-2.8718400">
        <ele>1424.0</ele>
        <time>2022-02-08T10:37:34Z</time>
      </trkpt>
      <trkpt lat="41.9003280" lon="-2.8718700">
        <ele>1424.0</ele>
        <time>2022-02-08T10:37:35Z</time>
      </trkpt>
      <trkpt lat="41.9003170" lon="-2.8719030">
        <ele>1425.9</ele>
        <time>2022-02-08T10:37:36Z</time>
      </trkpt>
      <trkpt lat="41.9003070" lon="-2.8719350">
        <ele>1425.9</ele>
        <time>2022-02-08T10:37:37Z</time>
      </trkpt>
      <trkpt lat="41.9003000" lon="-2.8719680">
        <ele>1425.9</ele>
        <time>2022-02-08T10:37:38Z</time>
      </trkpt>
      <trkpt lat="41.9002830" lon="-2.8720170">
        <ele>1425.9</ele>
        <time>2022-02-08T10:37:39Z</time>
      </trkpt>
      <trkpt lat="41.9002720" lon="-2.8720620">
        <ele>1425.9</ele>
        <time>2022-02-08T10:37:40Z</time>
      </trkpt>
      <trkpt lat="41.9002620" lon="-2.8720970">
        <ele>1426.8</ele>
        <time>2022-02-08T10:37:41Z</time>
      </trkpt>
      <trkpt lat="41.9002600" lon="-2.8721330">
        <ele>1426.8</ele>
        <time>2022-02-08T10:37:42Z</time>
      </trkpt>
      <trkpt lat="41.9002480" lon="-2.8721700">
        <ele>1426.8</ele>
        <time>2022-02-08T10:37:43Z</time>
      </trkpt>
      <trkpt lat="41.9002420" lon="-2.8722070">
        <ele>1426.8</ele>
        <time>2022-02-08T10:37:44Z</time>
      </trkpt>
      <trkpt lat="41.9002350" lon="-2.8722450">
        <ele>1426.8</ele>
        <time>2022-02-08T10:37:45Z</time>
      </trkpt>
      <trkpt lat="41.9002320" lon="-2.8722800">
        <ele>1428.4</ele>
        <time>2022-02-08T10:37:46Z</time>
      </trkpt>
      <trkpt lat="41.9002300" lon="-2.8723180">
        <ele>1428.4</ele>
        <time>2022-02-08T10:37:47Z</time>
      </trkpt>
      <trkpt lat="41.9002270" lon="-2.8723600">
        <ele>1428.4</ele>
        <time>2022-02-08T10:37:48Z</time>
      </trkpt>
      <trkpt lat="41.9002270" lon="-2.8723970">
        <ele>1428.4</ele>
        <time>2022-02-08T10:37:49Z</time>
      </trkpt>
      <trkpt lat="41.9002250" lon="-2.8724250">
        <ele>1427.8</ele>
        <time>2022-02-08T10:37:50Z</time>
      </trkpt>
      <trkpt lat="41.9002230" lon="-2.8724530">
        <ele>1427.8</ele>
        <time>2022-02-08T10:37:51Z</time>
      </trkpt>
      <trkpt lat="41.9002200" lon="-2.8724820">
        <ele>1427.8</ele>
        <time>2022-02-08T10:37:52Z</time>
      </trkpt>
      <trkpt lat="41.9002150" lon="-2.8725070">
        <ele>1427.8</ele>
        <time>2022-02-08T10:37:53Z</time>
      </trkpt>
      <trkpt lat="41.9002080" lon="-2.8725330">
        <ele>1427.8</ele>
        <time>2022-02-08T10:37:54Z</time>
      </trkpt>
      <trkpt lat="41.9002020" lon="-2.8725600">
        <ele>1427.8</ele>
        <time>2022-02-08T10:37:55Z</time>
      </trkpt>
      <trkpt lat="41.9001980" lon="-2.8725800">
        <ele>1427.8</ele>
        <time>2022-02-08T10:37:56Z</time>
      </trkpt>
      <trkpt lat="41.9001950" lon="-2.8726020">
        <ele>1427.5</ele>
        <time>2022-02-08T10:37:57Z</time>
      </trkpt>
      <trkpt lat="41.9001880" lon="-2.8726180">
        <ele>1427.5</ele>
        <time>2022-02-08T10:37:58Z</time>
      </trkpt>
      <trkpt lat="41.9001770" lon="-2.8726520">
        <ele>1427.5</ele>
        <time>2022-02-08T10:37:59Z</time>
      </trkpt>
      <trkpt lat="41.9001680" lon="-2.8726830">
        <ele>1427.5</ele>
        <time>2022-02-08T10:38:00Z</time>
      </trkpt>
      <trkpt lat="41.9001670" lon="-2.8727020">
        <ele>1427.5</ele>
        <time>2022-02-08T10:38:01Z</time>
      </trkpt>
      <trkpt lat="41.9001700" lon="-2.8727300">
        <ele>1427.5</ele>
        <time>2022-02-08T10:38:02Z</time>
      </trkpt>
      <trkpt lat="41.9001720" lon="-2.8727450">
        <ele>1427.5</ele>
        <time>2022-02-08T10:38:03Z</time>
      </trkpt>
      <trkpt lat="41.9001720" lon="-2.8727630">
        <ele>1427.7</ele>
        <time>2022-02-08T10:38:04Z</time>
      </trkpt>
      <trkpt lat="41.9001730" lon="-2.8727800">
        <ele>1427.7</ele>
        <time>2022-02-08T10:38:05Z</time>
      </trkpt>
      <trkpt lat="41.9001750" lon="-2.8727950">
        <ele>1427.8</ele>
        <time>2022-02-08T10:38:06Z</time>
      </trkpt>
      <trkpt lat="41.9001730" lon="-2.8728130">
        <ele>1427.8</ele>
        <time>2022-02-08T10:38:07Z</time>
      </trkpt>
      <trkpt lat="41.9001550" lon="-2.8728570">
        <ele>1427.8</ele>
        <time>2022-02-08T10:38:08Z</time>
      </trkpt>
      <trkpt lat="41.9001450" lon="-2.8728900">
        <ele>1427.8</ele>
        <time>2022-02-08T10:38:09Z</time>
      </trkpt>
      <trkpt lat="41.9001430" lon="-2.8729250">
        <ele>1428.3</ele>
        <time>2022-02-08T10:38:10Z</time>
      </trkpt>
      <trkpt lat="41.9001370" lon="-2.8729670">
        <ele>1428.3</ele>
        <time>2022-02-08T10:38:11Z</time>
      </trkpt>
      <trkpt lat="41.9001250" lon="-2.8730030">
        <ele>1428.3</ele>
        <time>2022-02-08T10:38:12Z</time>
      </trkpt>
      <trkpt lat="41.9001150" lon="-2.8730370">
        <ele>1428.3</ele>
        <time>2022-02-08T10:38:13Z</time>
      </trkpt>
      <trkpt lat="41.9001150" lon="-2.8730680">
        <ele>1428.3</ele>
        <time>2022-02-08T10:38:14Z</time>
      </trkpt>
      <trkpt lat="41.9001120" lon="-2.8731000">
        <ele>1429.0</ele>
        <time>2022-02-08T10:38:15Z</time>
      </trkpt>
      <trkpt lat="41.9001080" lon="-2.8731270">
        <ele>1429.0</ele>
        <time>2022-02-08T10:38:16Z</time>
      </trkpt>
      <trkpt lat="41.9001080" lon="-2.8731500">
        <ele>1429.0</ele>
        <time>2022-02-08T10:38:17Z</time>
      </trkpt>
      <trkpt lat="41.9001120" lon="-2.8731720">
        <ele>1429.0</ele>
        <time>2022-02-08T10:38:18Z</time>
      </trkpt>
      <trkpt lat="41.9001150" lon="-2.8731930">
        <ele>1429.0</ele>
        <time>2022-02-08T10:38:19Z</time>
      </trkpt>
      <trkpt lat="41.9001150" lon="-2.8732250">
        <ele>1429.0</ele>
        <time>2022-02-08T10:38:20Z</time>
      </trkpt>
      <trkpt lat="41.9001030" lon="-2.8732530">
        <ele>1429.5</ele>
        <time>2022-02-08T10:38:21Z</time>
      </trkpt>
      <trkpt lat="41.9000930" lon="-2.8732750">
        <ele>1430.0</ele>
        <time>2022-02-08T10:38:22Z</time>
      </trkpt>
      <trkpt lat="41.9000850" lon="-2.8732970">
        <ele>1430.0</ele>
        <time>2022-02-08T10:38:23Z</time>
      </trkpt>
      <trkpt lat="41.9000770" lon="-2.8733200">
        <ele>1430.0</ele>
        <time>2022-02-08T10:38:24Z</time>
      </trkpt>
      <trkpt lat="41.9000670" lon="-2.8733400">
        <ele>1430.0</ele>
        <time>2022-02-08T10:38:25Z</time>
      </trkpt>
      <trkpt lat="41.9000550" lon="-2.8733570">
        <ele>1430.0</ele>
        <time>2022-02-08T10:38:26Z</time>
      </trkpt>
      <trkpt lat="41.9000500" lon="-2.8733730">
        <ele>1430.0</ele>
        <time>2022-02-08T10:38:27Z</time>
      </trkpt>
      <trkpt lat="41.9000450" lon="-2.8733930">
        <ele>1430.0</ele>
        <time>2022-02-08T10:38:28Z</time>
      </trkpt>
      <trkpt lat="41.9000450" lon="-2.8734130">
        <ele>1430.0</ele>
        <time>2022-02-08T10:38:29Z</time>
      </trkpt>
      <trkpt lat="41.9000400" lon="-2.8734380">
        <ele>1430.0</ele>
        <time>2022-02-08T10:38:30Z</time>
      </trkpt>
      <trkpt lat="41.9000370" lon="-2.8734580">
        <ele>1430.6</ele>
        <time>2022-02-08T10:38:31Z</time>
      </trkpt>
      <trkpt lat="41.9000370" lon="-2.8734780">
        <ele>1430.6</ele>
        <time>2022-02-08T10:38:32Z</time>
      </trkpt>
      <trkpt lat="41.9000350" lon="-2.8734980">
        <ele>1430.6</ele>
        <time>2022-02-08T10:38:33Z</time>
      </trkpt>
      <trkpt lat="41.9000280" lon="-2.8735170">
        <ele>1430.6</ele>
        <time>2022-02-08T10:38:34Z</time>
      </trkpt>
      <trkpt lat="41.9000150" lon="-2.8735320">
        <ele>1430.6</ele>
        <time>2022-02-08T10:38:35Z</time>
      </trkpt>
      <trkpt lat="41.8999980" lon="-2.8735380">
        <ele>1430.6</ele>
        <time>2022-02-08T10:38:36Z</time>
      </trkpt>
      <trkpt lat="41.8999780" lon="-2.8735430">
        <ele>1430.6</ele>
        <time>2022-02-08T10:38:37Z</time>
      </trkpt>
      <trkpt lat="41.8999430" lon="-2.8735500">
        <ele>1431.0</ele>
        <time>2022-02-08T10:38:38Z</time>
      </trkpt>
      <trkpt lat="41.8999220" lon="-2.8735420">
        <ele>1431.0</ele>
        <time>2022-02-08T10:38:39Z</time>
      </trkpt>
      <trkpt lat="41.8998980" lon="-2.8735350">
        <ele>1431.0</ele>
        <time>2022-02-08T10:38:40Z</time>
      </trkpt>
      <trkpt lat="41.8998730" lon="-2.8735380">
        <ele>1431.0</ele>
        <time>2022-02-08T10:38:41Z</time>
      </trkpt>
      <trkpt lat="41.8998550" lon="-2.8735420">
        <ele>1431.0</ele>
        <time>2022-02-08T10:38:42Z</time>
      </trkpt>
      <trkpt lat="41.8998350" lon="-2.8735400">
        <ele>1431.9</ele>
        <time>2022-02-08T10:38:43Z</time>
      </trkpt>
      <trkpt lat="41.8998120" lon="-2.8735350">
        <ele>1431.9</ele>
        <time>2022-02-08T10:38:44Z</time>
      </trkpt>
      <trkpt lat="41.8997900" lon="-2.8735270">
        <ele>1431.9</ele>
        <time>2022-02-08T10:38:45Z</time>
      </trkpt>
      <trkpt lat="41.8997670" lon="-2.8735150">
        <ele>1431.9</ele>
        <time>2022-02-08T10:38:46Z</time>
      </trkpt>
      <trkpt lat="41.8997480" lon="-2.8735030">
        <ele>1431.9</ele>
        <time>2022-02-08T10:38:47Z</time>
      </trkpt>
      <trkpt lat="41.8997270" lon="-2.8734950">
        <ele>1431.9</ele>
        <time>2022-02-08T10:38:48Z</time>
      </trkpt>
      <trkpt lat="41.8996980" lon="-2.8734920">
        <ele>1433.5</ele>
        <time>2022-02-08T10:38:49Z</time>
      </trkpt>
      <trkpt lat="41.8996730" lon="-2.8734920">
        <ele>1433.5</ele>
        <time>2022-02-08T10:38:50Z</time>
      </trkpt>
      <trkpt lat="41.8996520" lon="-2.8734870">
        <ele>1433.5</ele>
        <time>2022-02-08T10:38:51Z</time>
      </trkpt>
      <trkpt lat="41.8996330" lon="-2.8734800">
        <ele>1433.5</ele>
        <time>2022-02-08T10:38:52Z</time>
      </trkpt>
      <trkpt lat="41.8996220" lon="-2.8734700">
        <ele>1433.5</ele>
        <time>2022-02-08T10:38:53Z</time>
      </trkpt>
      <trkpt lat="41.8996170" lon="-2.8734630">
        <ele>1433.5</ele>
        <time>2022-02-08T10:38:54Z</time>
      </trkpt>
      <trkpt lat="41.8996030" lon="-2.8734580">
        <ele>1433.5</ele>
        <time>2022-02-08T10:38:55Z</time>
      </trkpt>
      <trkpt lat="41.8995920" lon="-2.8734550">
        <ele>1435.2</ele>
        <time>2022-02-08T10:38:56Z</time>
      </trkpt>
      <trkpt lat="41.8995800" lon="-2.8734500">
        <ele>1435.2</ele>
        <time>2022-02-08T10:38:57Z</time>
      </trkpt>
      <trkpt lat="41.8995700" lon="-2.8734420">
        <ele>1435.2</ele>
        <time>2022-02-08T10:38:58Z</time>
      </trkpt>
      <trkpt lat="41.8995570" lon="-2.8734380">
        <ele>1435.1</ele>
        <time>2022-02-08T10:38:59Z</time>
      </trkpt>
      <trkpt lat="41.8995420" lon="-2.8734370">
        <ele>1435.1</ele>
        <time>2022-02-08T10:39:00Z</time>
      </trkpt>
      <trkpt lat="41.8995280" lon="-2.8734350">
        <ele>1435.1</ele>
        <time>2022-02-08T10:39:01Z</time>
      </trkpt>
      <trkpt lat="41.8995150" lon="-2.8734300">
        <ele>1435.1</ele>
        <time>2022-02-08T10:39:02Z</time>
      </trkpt>
      <trkpt lat="41.8994980" lon="-2.8734220">
        <ele>1435.1</ele>
        <time>2022-02-08T10:39:03Z</time>
      </trkpt>
      <trkpt lat="41.8994820" lon="-2.8734130">
        <ele>1435.1</ele>
        <time>2022-02-08T10:39:04Z</time>
      </trkpt>
      <trkpt lat="41.8994630" lon="-2.8734050">
        <ele>1436.9</ele>
        <time>2022-02-08T10:39:05Z</time>
      </trkpt>
      <trkpt lat="41.8994450" lon="-2.8733930">
        <ele>1436.9</ele>
        <time>2022-02-08T10:39:06Z</time>
      </trkpt>
      <trkpt lat="41.8994250" lon="-2.8733780">
        <ele>1436.9</ele>
        <time>2022-02-08T10:39:07Z</time>
      </trkpt>
      <trkpt lat="41.8994120" lon="-2.8733700">
        <ele>1436.9</ele>
        <time>2022-02-08T10:39:08Z</time>
      </trkpt>
      <trkpt lat="41.8993970" lon="-2.8733600">
        <ele>1436.9</ele>
        <time>2022-02-08T10:39:09Z</time>
      </trkpt>
      <trkpt lat="41.8993830" lon="-2.8733520">
        <ele>1436.9</ele>
        <time>2022-02-08T10:39:10Z</time>
      </trkpt>
      <trkpt lat="41.8993670" lon="-2.8733450">
        <ele>1436.9</ele>
        <time>2022-02-08T10:39:11Z</time>
      </trkpt>
      <trkpt lat="41.8993450" lon="-2.8733420">
        <ele>1436.9</ele>
        <time>2022-02-08T10:39:12Z</time>
      </trkpt>
      <trkpt lat="41.8993300" lon="-2.8733450">
        <ele>1438.4</ele>
        <time>2022-02-08T10:39:13Z</time>
      </trkpt>
      <trkpt lat="41.8993220" lon="-2.8733480">
        <ele>1438.4</ele>
        <time>2022-02-08T10:39:14Z</time>
      </trkpt>
      <trkpt lat="41.8993130" lon="-2.8733450">
        <ele>1438.4</ele>
        <time>2022-02-08T10:39:15Z</time>
      </trkpt>
      <trkpt lat="41.8993030" lon="-2.8733420">
        <ele>1438.4</ele>
        <time>2022-02-08T10:39:16Z</time>
      </trkpt>
      <trkpt lat="41.8992900" lon="-2.8733400">
        <ele>1438.4</ele>
        <time>2022-02-08T10:39:17Z</time>
      </trkpt>
      <trkpt lat="41.8992770" lon="-2.8733370">
        <ele>1438.4</ele>
        <time>2022-02-08T10:39:18Z</time>
      </trkpt>
      <trkpt lat="41.8992620" lon="-2.8733320">
        <ele>1438.4</ele>
        <time>2022-02-08T10:39:19Z</time>
      </trkpt>
      <trkpt lat="41.8992480" lon="-2.8733320">
        <ele>1438.4</ele>
        <time>2022-02-08T10:39:20Z</time>
      </trkpt>
      <trkpt lat="41.8992300" lon="-2.8733320">
        <ele>1438.4</ele>
        <time>2022-02-08T10:39:21Z</time>
      </trkpt>
      <trkpt lat="41.8992130" lon="-2.8733300">
        <ele>1438.4</ele>
        <time>2022-02-08T10:39:22Z</time>
      </trkpt>
      <trkpt lat="41.8992020" lon="-2.8733230">
        <ele>1440.1</ele>
        <time>2022-02-08T10:39:23Z</time>
      </trkpt>
      <trkpt lat="41.8991930" lon="-2.8733150">
        <ele>1440.1</ele>
        <time>2022-02-08T10:39:24Z</time>
      </trkpt>
      <trkpt lat="41.8991780" lon="-2.8733050">
        <ele>1440.1</ele>
        <time>2022-02-08T10:39:25Z</time>
      </trkpt>
      <trkpt lat="41.8991650" lon="-2.8732970">
        <ele>1440.1</ele>
        <time>2022-02-08T10:39:26Z</time>
      </trkpt>
      <trkpt lat="41.8991530" lon="-2.8732930">
        <ele>1440.1</ele>
        <time>2022-02-08T10:39:27Z</time>
      </trkpt>
      <trkpt lat="41.8991400" lon="-2.8732930">
        <ele>1440.1</ele>
        <time>2022-02-08T10:39:28Z</time>
      </trkpt>
      <trkpt lat="41.8991280" lon="-2.8732920">
        <ele>1440.1</ele>
        <time>2022-02-08T10:39:29Z</time>
      </trkpt>
      <trkpt lat="41.8991180" lon="-2.8732880">
        <ele>1440.1</ele>
        <time>2022-02-08T10:39:30Z</time>
      </trkpt>
      <trkpt lat="41.8991050" lon="-2.8732850">
        <ele>1440.1</ele>
        <time>2022-02-08T10:39:31Z</time>
      </trkpt>
      <trkpt lat="41.8990920" lon="-2.8732830">
        <ele>1440.1</ele>
        <time>2022-02-08T10:39:32Z</time>
      </trkpt>
      <trkpt lat="41.8990780" lon="-2.8732780">
        <ele>1441.5</ele>
        <time>2022-02-08T10:39:33Z</time>
      </trkpt>
      <trkpt lat="41.8990650" lon="-2.8732730">
        <ele>1441.5</ele>
        <time>2022-02-08T10:39:34Z</time>
      </trkpt>
      <trkpt lat="41.8990480" lon="-2.8732700">
        <ele>1441.5</ele>
        <time>2022-02-08T10:39:35Z</time>
      </trkpt>
      <trkpt lat="41.8990330" lon="-2.8732650">
        <ele>1440.6</ele>
        <time>2022-02-08T10:39:36Z</time>
      </trkpt>
      <trkpt lat="41.8990170" lon="-2.8732600">
        <ele>1440.6</ele>
        <time>2022-02-08T10:39:37Z</time>
      </trkpt>
      <trkpt lat="41.8990000" lon="-2.8732550">
        <ele>1440.6</ele>
        <time>2022-02-08T10:39:38Z</time>
      </trkpt>
      <trkpt lat="41.8989830" lon="-2.8732470">
        <ele>1440.6</ele>
        <time>2022-02-08T10:39:39Z</time>
      </trkpt>
      <trkpt lat="41.8989720" lon="-2.8732380">
        <ele>1440.6</ele>
        <time>2022-02-08T10:39:40Z</time>
      </trkpt>
      <trkpt lat="41.8989550" lon="-2.8732300">
        <ele>1441.8</ele>
        <time>2022-02-08T10:39:41Z</time>
      </trkpt>
      <trkpt lat="41.8989400" lon="-2.8732220">
        <ele>1441.9</ele>
        <time>2022-02-08T10:39:42Z</time>
      </trkpt>
      <trkpt lat="41.8989250" lon="-2.8732130">
        <ele>1441.9</ele>
        <time>2022-02-08T10:39:43Z</time>
      </trkpt>
      <trkpt lat="41.8989100" lon="-2.8732080">
        <ele>1441.9</ele>
        <time>2022-02-08T10:39:44Z</time>
      </trkpt>
      <trkpt lat="41.8988970" lon="-2.8732000">
        <ele>1441.9</ele>
        <time>2022-02-08T10:39:45Z</time>
      </trkpt>
      <trkpt lat="41.8988820" lon="-2.8731930">
        <ele>1441.9</ele>
        <time>2022-02-08T10:39:46Z</time>
      </trkpt>
      <trkpt lat="41.8988650" lon="-2.8731900">
        <ele>1441.9</ele>
        <time>2022-02-08T10:39:47Z</time>
      </trkpt>
      <trkpt lat="41.8988480" lon="-2.8731870">
        <ele>1441.9</ele>
        <time>2022-02-08T10:39:48Z</time>
      </trkpt>
      <trkpt lat="41.8988350" lon="-2.8731820">
        <ele>1441.9</ele>
        <time>2022-02-08T10:39:49Z</time>
      </trkpt>
      <trkpt lat="41.8988230" lon="-2.8731800">
        <ele>1442.9</ele>
        <time>2022-02-08T10:39:50Z</time>
      </trkpt>
      <trkpt lat="41.8988120" lon="-2.8731820">
        <ele>1442.9</ele>
        <time>2022-02-08T10:39:51Z</time>
      </trkpt>
      <trkpt lat="41.8988000" lon="-2.8731780">
        <ele>1442.9</ele>
        <time>2022-02-08T10:39:52Z</time>
      </trkpt>
      <trkpt lat="41.8987850" lon="-2.8731780">
        <ele>1442.9</ele>
        <time>2022-02-08T10:39:53Z</time>
      </trkpt>
      <trkpt lat="41.8987700" lon="-2.8731820">
        <ele>1442.9</ele>
        <time>2022-02-08T10:39:54Z</time>
      </trkpt>
      <trkpt lat="41.8987520" lon="-2.8731850">
        <ele>1442.9</ele>
        <time>2022-02-08T10:39:55Z</time>
      </trkpt>
      <trkpt lat="41.8987380" lon="-2.8731900">
        <ele>1442.9</ele>
        <time>2022-02-08T10:39:56Z</time>
      </trkpt>
      <trkpt lat="41.8987220" lon="-2.8731880">
        <ele>1442.9</ele>
        <time>2022-02-08T10:39:57Z</time>
      </trkpt>
      <trkpt lat="41.8987050" lon="-2.8731820">
        <ele>1442.9</ele>
        <time>2022-02-08T10:39:58Z</time>
      </trkpt>
      <trkpt lat="41.8986920" lon="-2.8731820">
        <ele>1443.5</ele>
        <time>2022-02-08T10:39:59Z</time>
      </trkpt>
      <trkpt lat="41.8986820" lon="-2.8731820">
        <ele>1443.5</ele>
        <time>2022-02-08T10:40:00Z</time>
      </trkpt>
      <trkpt lat="41.8986720" lon="-2.8731770">
        <ele>1443.5</ele>
        <time>2022-02-08T10:40:01Z</time>
      </trkpt>
      <trkpt lat="41.8986650" lon="-2.8731680">
        <ele>1443.5</ele>
        <time>2022-02-08T10:40:02Z</time>
      </trkpt>
      <trkpt lat="41.8986530" lon="-2.8731580">
        <ele>1443.6</ele>
        <time>2022-02-08T10:40:03Z</time>
      </trkpt>
      <trkpt lat="41.8986400" lon="-2.8731520">
        <ele>1443.6</ele>
        <time>2022-02-08T10:40:04Z</time>
      </trkpt>
      <trkpt lat="41.8986230" lon="-2.8731430">
        <ele>1443.6</ele>
        <time>2022-02-08T10:40:05Z</time>
      </trkpt>
      <trkpt lat="41.8986080" lon="-2.8731420">
        <ele>1443.6</ele>
        <time>2022-02-08T10:40:06Z</time>
      </trkpt>
      <trkpt lat="41.8985930" lon="-2.8731350">
        <ele>1443.6</ele>
        <time>2022-02-08T10:40:07Z</time>
      </trkpt>
      <trkpt lat="41.8985780" lon="-2.8731280">
        <ele>1443.6</ele>
        <time>2022-02-08T10:40:08Z</time>
      </trkpt>
      <trkpt lat="41.8985620" lon="-2.8731230">
        <ele>1444.1</ele>
        <time>2022-02-08T10:40:09Z</time>
      </trkpt>
      <trkpt lat="41.8985470" lon="-2.8731170">
        <ele>1444.1</ele>
        <time>2022-02-08T10:40:10Z</time>
      </trkpt>
      <trkpt lat="41.8985330" lon="-2.8731080">
        <ele>1444.1</ele>
        <time>2022-02-08T10:40:11Z</time>
      </trkpt>
      <trkpt lat="41.8985200" lon="-2.8730980">
        <ele>1444.1</ele>
        <time>2022-02-08T10:40:12Z</time>
      </trkpt>
      <trkpt lat="41.8985080" lon="-2.8730870">
        <ele>1443.8</ele>
        <time>2022-02-08T10:40:13Z</time>
      </trkpt>
      <trkpt lat="41.8984970" lon="-2.8730770">
        <ele>1443.8</ele>
        <time>2022-02-08T10:40:14Z</time>
      </trkpt>
      <trkpt lat="41.8984820" lon="-2.8730680">
        <ele>1443.8</ele>
        <time>2022-02-08T10:40:15Z</time>
      </trkpt>
      <trkpt lat="41.8984670" lon="-2.8730620">
        <ele>1443.8</ele>
        <time>2022-02-08T10:40:16Z</time>
      </trkpt>
      <trkpt lat="41.8984520" lon="-2.8730570">
        <ele>1443.8</ele>
        <time>2022-02-08T10:40:17Z</time>
      </trkpt>
      <trkpt lat="41.8984370" lon="-2.8730500">
        <ele>1444.4</ele>
        <time>2022-02-08T10:40:18Z</time>
      </trkpt>
      <trkpt lat="41.8984250" lon="-2.8730470">
        <ele>1444.4</ele>
        <time>2022-02-08T10:40:19Z</time>
      </trkpt>
      <trkpt lat="41.8984170" lon="-2.8730420">
        <ele>1444.4</ele>
        <time>2022-02-08T10:40:20Z</time>
      </trkpt>
      <trkpt lat="41.8984100" lon="-2.8730370">
        <ele>1444.4</ele>
        <time>2022-02-08T10:40:21Z</time>
      </trkpt>
      <trkpt lat="41.8984000" lon="-2.8730330">
        <ele>1444.4</ele>
        <time>2022-02-08T10:40:22Z</time>
      </trkpt>
      <trkpt lat="41.8983870" lon="-2.8730330">
        <ele>1444.4</ele>
        <time>2022-02-08T10:40:23Z</time>
      </trkpt>
      <trkpt lat="41.8983730" lon="-2.8730320">
        <ele>1444.4</ele>
        <time>2022-02-08T10:40:24Z</time>
      </trkpt>
      <trkpt lat="41.8983650" lon="-2.8730300">
        <ele>1444.4</ele>
        <time>2022-02-08T10:40:25Z</time>
      </trkpt>
      <trkpt lat="41.8983570" lon="-2.8730250">
        <ele>1444.4</ele>
        <time>2022-02-08T10:40:26Z</time>
      </trkpt>
      <trkpt lat="41.8983480" lon="-2.8730200">
        <ele>1444.4</ele>
        <time>2022-02-08T10:40:27Z</time>
      </trkpt>
      <trkpt lat="41.8983370" lon="-2.8730200">
        <ele>1444.4</ele>
        <time>2022-02-08T10:40:28Z</time>
      </trkpt>
      <trkpt lat="41.8983250" lon="-2.8730200">
        <ele>1444.4</ele>
        <time>2022-02-08T10:40:29Z</time>
      </trkpt>
      <trkpt lat="41.8983120" lon="-2.8730180">
        <ele>1445.2</ele>
        <time>2022-02-08T10:40:30Z</time>
      </trkpt>
      <trkpt lat="41.8982980" lon="-2.8730170">
        <ele>1445.2</ele>
        <time>2022-02-08T10:40:31Z</time>
      </trkpt>
      <trkpt lat="41.8982850" lon="-2.8730150">
        <ele>1445.2</ele>
        <time>2022-02-08T10:40:32Z</time>
      </trkpt>
      <trkpt lat="41.8982730" lon="-2.8730100">
        <ele>1445.2</ele>
        <time>2022-02-08T10:40:33Z</time>
      </trkpt>
      <trkpt lat="41.8982630" lon="-2.8730070">
        <ele>1445.2</ele>
        <time>2022-02-08T10:40:34Z</time>
      </trkpt>
      <trkpt lat="41.8982520" lon="-2.8730020">
        <ele>1445.2</ele>
        <time>2022-02-08T10:40:35Z</time>
      </trkpt>
      <trkpt lat="41.8982400" lon="-2.8729980">
        <ele>1445.2</ele>
        <time>2022-02-08T10:40:36Z</time>
      </trkpt>
      <trkpt lat="41.8982270" lon="-2.8729970">
        <ele>1445.2</ele>
        <time>2022-02-08T10:40:37Z</time>
      </trkpt>
      <trkpt lat="41.8982170" lon="-2.8729930">
        <ele>1445.2</ele>
        <time>2022-02-08T10:40:38Z</time>
      </trkpt>
      <trkpt lat="41.8982020" lon="-2.8729900">
        <ele>1445.3</ele>
        <time>2022-02-08T10:40:39Z</time>
      </trkpt>
      <trkpt lat="41.8981870" lon="-2.8729920">
        <ele>1445.7</ele>
        <time>2022-02-08T10:40:40Z</time>
      </trkpt>
      <trkpt lat="41.8981700" lon="-2.8729930">
        <ele>1445.7</ele>
        <time>2022-02-08T10:40:41Z</time>
      </trkpt>
      <trkpt lat="41.8981570" lon="-2.8729920">
        <ele>1445.7</ele>
        <time>2022-02-08T10:40:42Z</time>
      </trkpt>
      <trkpt lat="41.8981450" lon="-2.8729880">
        <ele>1445.7</ele>
        <time>2022-02-08T10:40:43Z</time>
      </trkpt>
      <trkpt lat="41.8981330" lon="-2.8729850">
        <ele>1445.7</ele>
        <time>2022-02-08T10:40:44Z</time>
      </trkpt>
      <trkpt lat="41.8981180" lon="-2.8729770">
        <ele>1445.7</ele>
        <time>2022-02-08T10:40:45Z</time>
      </trkpt>
      <trkpt lat="41.8981030" lon="-2.8729700">
        <ele>1445.7</ele>
        <time>2022-02-08T10:40:46Z</time>
      </trkpt>
      <trkpt lat="41.8980880" lon="-2.8729630">
        <ele>1445.7</ele>
        <time>2022-02-08T10:40:47Z</time>
      </trkpt>
      <trkpt lat="41.8980770" lon="-2.8729600">
        <ele>1445.7</ele>
        <time>2022-02-08T10:40:48Z</time>
      </trkpt>
      <trkpt lat="41.8980630" lon="-2.8729570">
        <ele>1445.7</ele>
        <time>2022-02-08T10:40:49Z</time>
      </trkpt>
      <trkpt lat="41.8980500" lon="-2.8729530">
        <ele>1446.1</ele>
        <time>2022-02-08T10:40:50Z</time>
      </trkpt>
      <trkpt lat="41.8980370" lon="-2.8729480">
        <ele>1446.1</ele>
        <time>2022-02-08T10:40:51Z</time>
      </trkpt>
      <trkpt lat="41.8980300" lon="-2.8729400">
        <ele>1446.1</ele>
        <time>2022-02-08T10:40:52Z</time>
      </trkpt>
      <trkpt lat="41.8980220" lon="-2.8729300">
        <ele>1446.1</ele>
        <time>2022-02-08T10:40:53Z</time>
      </trkpt>
      <trkpt lat="41.8980120" lon="-2.8729180">
        <ele>1446.3</ele>
        <time>2022-02-08T10:40:54Z</time>
      </trkpt>
      <trkpt lat="41.8980020" lon="-2.8729070">
        <ele>1446.3</ele>
        <time>2022-02-08T10:40:55Z</time>
      </trkpt>
      <trkpt lat="41.8979950" lon="-2.8728950">
        <ele>1446.3</ele>
        <time>2022-02-08T10:40:56Z</time>
      </trkpt>
      <trkpt lat="41.8979900" lon="-2.8728820">
        <ele>1446.4</ele>
        <time>2022-02-08T10:40:57Z</time>
      </trkpt>
      <trkpt lat="41.8979930" lon="-2.8728680">
        <ele>1446.4</ele>
        <time>2022-02-08T10:40:58Z</time>
      </trkpt>
      <trkpt lat="41.8979980" lon="-2.8728550">
        <ele>1446.5</ele>
        <time>2022-02-08T10:40:59Z</time>
      </trkpt>
      <trkpt lat="41.8980030" lon="-2.8728400">
        <ele>1446.6</ele>
        <time>2022-02-08T10:41:00Z</time>
      </trkpt>
      <trkpt lat="41.8980080" lon="-2.8728230">
        <ele>1446.8</ele>
        <time>2022-02-08T10:41:01Z</time>
      </trkpt>
      <trkpt lat="41.8980120" lon="-2.8728070">
        <ele>1446.9</ele>
        <time>2022-02-08T10:41:02Z</time>
      </trkpt>
      <trkpt lat="41.8980130" lon="-2.8727780">
        <ele>1447.1</ele>
        <time>2022-02-08T10:41:03Z</time>
      </trkpt>
      <trkpt lat="41.8980050" lon="-2.8727570">
        <ele>1447.3</ele>
        <time>2022-02-08T10:41:04Z</time>
      </trkpt>
      <trkpt lat="41.8980020" lon="-2.8727320">
        <ele>1447.5</ele>
        <time>2022-02-08T10:41:05Z</time>
      </trkpt>
      <trkpt lat="41.8979970" lon="-2.8727100">
        <ele>1447.6</ele>
        <time>2022-02-08T10:41:06Z</time>
      </trkpt>
      <trkpt lat="41.8979950" lon="-2.8726950">
        <ele>1447.7</ele>
        <time>2022-02-08T10:41:07Z</time>
      </trkpt>
      <trkpt lat="41.8979930" lon="-2.8726780">
        <ele>1447.9</ele>
        <time>2022-02-08T10:41:08Z</time>
      </trkpt>
      <trkpt lat="41.8979900" lon="-2.8726580">
        <ele>1448.0</ele>
        <time>2022-02-08T10:41:09Z</time>
      </trkpt>
      <trkpt lat="41.8979880" lon="-2.8726370">
        <ele>1448.2</ele>
        <time>2022-02-08T10:41:10Z</time>
      </trkpt>
      <trkpt lat="41.8979830" lon="-2.8726150">
        <ele>1448.4</ele>
        <time>2022-02-08T10:41:11Z</time>
      </trkpt>
      <trkpt lat="41.8979800" lon="-2.8726000">
        <ele>1448.5</ele>
        <time>2022-02-08T10:41:12Z</time>
      </trkpt>
      <trkpt lat="41.8979770" lon="-2.8725830">
        <ele>1448.7</ele>
        <time>2022-02-08T10:41:13Z</time>
      </trkpt>
      <trkpt lat="41.8979730" lon="-2.8725670">
        <ele>1448.8</ele>
        <time>2022-02-08T10:41:14Z</time>
      </trkpt>
      <trkpt lat="41.8979700" lon="-2.8725500">
        <ele>1449.0</ele>
        <time>2022-02-08T10:41:15Z</time>
      </trkpt>
      <trkpt lat="41.8979680" lon="-2.8725320">
        <ele>1449.2</ele>
        <time>2022-02-08T10:41:16Z</time>
      </trkpt>
      <trkpt lat="41.8979720" lon="-2.8725150">
        <ele>1449.3</ele>
        <time>2022-02-08T10:41:17Z</time>
      </trkpt>
      <trkpt lat="41.8979750" lon="-2.8724970">
        <ele>1449.5</ele>
        <time>2022-02-08T10:41:18Z</time>
      </trkpt>
      <trkpt lat="41.8979770" lon="-2.8724770">
        <ele>1449.7</ele>
        <time>2022-02-08T10:41:19Z</time>
      </trkpt>
      <trkpt lat="41.8979730" lon="-2.8724600">
        <ele>1449.9</ele>
        <time>2022-02-08T10:41:20Z</time>
      </trkpt>
      <trkpt lat="41.8979730" lon="-2.8724420">
        <ele>1450.1</ele>
        <time>2022-02-08T10:41:21Z</time>
      </trkpt>
      <trkpt lat="41.8979700" lon="-2.8724230">
        <ele>1450.3</ele>
        <time>2022-02-08T10:41:22Z</time>
      </trkpt>
      <trkpt lat="41.8979670" lon="-2.8724050">
        <ele>1450.5</ele>
        <time>2022-02-08T10:41:23Z</time>
      </trkpt>
      <trkpt lat="41.8979670" lon="-2.8723800">
        <ele>1450.7</ele>
        <time>2022-02-08T10:41:24Z</time>
      </trkpt>
      <trkpt lat="41.8979650" lon="-2.8723620">
        <ele>1450.9</ele>
        <time>2022-02-08T10:41:25Z</time>
      </trkpt>
      <trkpt lat="41.8979630" lon="-2.8723420">
        <ele>1451.1</ele>
        <time>2022-02-08T10:41:26Z</time>
      </trkpt>
      <trkpt lat="41.8979580" lon="-2.8723200">
        <ele>1451.4</ele>
        <time>2022-02-08T10:41:27Z</time>
      </trkpt>
      <trkpt lat="41.8979530" lon="-2.8722980">
        <ele>1451.6</ele>
        <time>2022-02-08T10:41:28Z</time>
      </trkpt>
      <trkpt lat="41.8979470" lon="-2.8722800">
        <ele>1451.8</ele>
        <time>2022-02-08T10:41:29Z</time>
      </trkpt>
      <trkpt lat="41.8979350" lon="-2.8722600">
        <ele>1452.1</ele>
        <time>2022-02-08T10:41:30Z</time>
      </trkpt>
      <trkpt lat="41.8979200" lon="-2.8722420">
        <ele>1452.4</ele>
        <time>2022-02-08T10:41:31Z</time>
      </trkpt>
      <trkpt lat="41.8979080" lon="-2.8722250">
        <ele>1452.6</ele>
        <time>2022-02-08T10:41:32Z</time>
      </trkpt>
      <trkpt lat="41.8979020" lon="-2.8722070">
        <ele>1452.8</ele>
        <time>2022-02-08T10:41:33Z</time>
      </trkpt>
      <trkpt lat="41.8978930" lon="-2.8721880">
        <ele>1453.1</ele>
        <time>2022-02-08T10:41:34Z</time>
      </trkpt>
      <trkpt lat="41.8978850" lon="-2.8721730">
        <ele>1453.3</ele>
        <time>2022-02-08T10:41:35Z</time>
      </trkpt>
      <trkpt lat="41.8978780" lon="-2.8721600">
        <ele>1453.4</ele>
        <time>2022-02-08T10:41:36Z</time>
      </trkpt>
      <trkpt lat="41.8978700" lon="-2.8721470">
        <ele>1453.6</ele>
        <time>2022-02-08T10:41:37Z</time>
      </trkpt>
      <trkpt lat="41.8978620" lon="-2.8721320">
        <ele>1453.8</ele>
        <time>2022-02-08T10:41:38Z</time>
      </trkpt>
      <trkpt lat="41.8978530" lon="-2.8721180">
        <ele>1454.0</ele>
        <time>2022-02-08T10:41:39Z</time>
      </trkpt>
      <trkpt lat="41.8978430" lon="-2.8721050">
        <ele>1454.1</ele>
        <time>2022-02-08T10:41:40Z</time>
      </trkpt>
      <trkpt lat="41.8978350" lon="-2.8720920">
        <ele>1454.3</ele>
        <time>2022-02-08T10:41:41Z</time>
      </trkpt>
      <trkpt lat="41.8978280" lon="-2.8720770">
        <ele>1454.5</ele>
        <time>2022-02-08T10:41:42Z</time>
      </trkpt>
      <trkpt lat="41.8978200" lon="-2.8720620">
        <ele>1454.7</ele>
        <time>2022-02-08T10:41:43Z</time>
      </trkpt>
      <trkpt lat="41.8978150" lon="-2.8720470">
        <ele>1454.8</ele>
        <time>2022-02-08T10:41:44Z</time>
      </trkpt>
      <trkpt lat="41.8978080" lon="-2.8720330">
        <ele>1455.0</ele>
        <time>2022-02-08T10:41:45Z</time>
      </trkpt>
      <trkpt lat="41.8978050" lon="-2.8720180">
        <ele>1455.1</ele>
        <time>2022-02-08T10:41:46Z</time>
      </trkpt>
      <trkpt lat="41.8978020" lon="-2.8720000">
        <ele>1455.3</ele>
        <time>2022-02-08T10:41:47Z</time>
      </trkpt>
      <trkpt lat="41.8978000" lon="-2.8719830">
        <ele>1455.5</ele>
        <time>2022-02-08T10:41:48Z</time>
      </trkpt>
      <trkpt lat="41.8977950" lon="-2.8719680">
        <ele>1455.6</ele>
        <time>2022-02-08T10:41:49Z</time>
      </trkpt>
      <trkpt lat="41.8977880" lon="-2.8719530">
        <ele>1455.8</ele>
        <time>2022-02-08T10:41:50Z</time>
      </trkpt>
      <trkpt lat="41.8977820" lon="-2.8719400">
        <ele>1455.9</ele>
        <time>2022-02-08T10:41:51Z</time>
      </trkpt>
      <trkpt lat="41.8977750" lon="-2.8719250">
        <ele>1456.1</ele>
        <time>2022-02-08T10:41:52Z</time>
      </trkpt>
      <trkpt lat="41.8977670" lon="-2.8719130">
        <ele>1456.2</ele>
        <time>2022-02-08T10:41:53Z</time>
      </trkpt>
      <trkpt lat="41.8977600" lon="-2.8719000">
        <ele>1456.4</ele>
        <time>2022-02-08T10:41:54Z</time>
      </trkpt>
      <trkpt lat="41.8977550" lon="-2.8718880">
        <ele>1456.5</ele>
        <time>2022-02-08T10:41:55Z</time>
      </trkpt>
      <trkpt lat="41.8977500" lon="-2.8718730">
        <ele>1456.7</ele>
        <time>2022-02-08T10:41:56Z</time>
      </trkpt>
      <trkpt lat="41.8977450" lon="-2.8718580">
        <ele>1456.8</ele>
        <time>2022-02-08T10:41:57Z</time>
      </trkpt>
      <trkpt lat="41.8977420" lon="-2.8718370">
        <ele>1457.0</ele>
        <time>2022-02-08T10:41:58Z</time>
      </trkpt>
      <trkpt lat="41.8977380" lon="-2.8718180">
        <ele>1457.1</ele>
        <time>2022-02-08T10:41:59Z</time>
      </trkpt>
      <trkpt lat="41.8977300" lon="-2.8718050">
        <ele>1457.3</ele>
        <time>2022-02-08T10:42:00Z</time>
      </trkpt>
      <trkpt lat="41.8977230" lon="-2.8717920">
        <ele>1457.4</ele>
        <time>2022-02-08T10:42:01Z</time>
      </trkpt>
      <trkpt lat="41.8977130" lon="-2.8717730">
        <ele>1457.6</ele>
        <time>2022-02-08T10:42:02Z</time>
      </trkpt>
      <trkpt lat="41.8977050" lon="-2.8717550">
        <ele>1457.7</ele>
        <time>2022-02-08T10:42:03Z</time>
      </trkpt>
      <trkpt lat="41.8977000" lon="-2.8717400">
        <ele>1457.8</ele>
        <time>2022-02-08T10:42:04Z</time>
      </trkpt>
      <trkpt lat="41.8976970" lon="-2.8717230">
        <ele>1458.0</ele>
        <time>2022-02-08T10:42:05Z</time>
      </trkpt>
      <trkpt lat="41.8976920" lon="-2.8717050">
        <ele>1458.1</ele>
        <time>2022-02-08T10:42:06Z</time>
      </trkpt>
      <trkpt lat="41.8976930" lon="-2.8716870">
        <ele>1458.2</ele>
        <time>2022-02-08T10:42:07Z</time>
      </trkpt>
      <trkpt lat="41.8977000" lon="-2.8716620">
        <ele>1458.5</ele>
        <time>2022-02-08T10:42:08Z</time>
      </trkpt>
      <trkpt lat="41.8977050" lon="-2.8716450">
        <ele>1458.6</ele>
        <time>2022-02-08T10:42:09Z</time>
      </trkpt>
      <trkpt lat="41.8977130" lon="-2.8716300">
        <ele>1458.7</ele>
        <time>2022-02-08T10:42:10Z</time>
      </trkpt>
      <trkpt lat="41.8977220" lon="-2.8716080">
        <ele>1458.9</ele>
        <time>2022-02-08T10:42:11Z</time>
      </trkpt>
      <trkpt lat="41.8977330" lon="-2.8715780">
        <ele>1459.2</ele>
        <time>2022-02-08T10:42:12Z</time>
      </trkpt>
      <trkpt lat="41.8977480" lon="-2.8715520">
        <ele>1459.5</ele>
        <time>2022-02-08T10:42:13Z</time>
      </trkpt>
      <trkpt lat="41.8977630" lon="-2.8715280">
        <ele>1459.8</ele>
        <time>2022-02-08T10:42:14Z</time>
      </trkpt>
      <trkpt lat="41.8977730" lon="-2.8715020">
        <ele>1460.0</ele>
        <time>2022-02-08T10:42:15Z</time>
      </trkpt>
      <trkpt lat="41.8977800" lon="-2.8714780">
        <ele>1460.3</ele>
        <time>2022-02-08T10:42:16Z</time>
      </trkpt>
      <trkpt lat="41.8977850" lon="-2.8714520">
        <ele>1460.6</ele>
        <time>2022-02-08T10:42:17Z</time>
      </trkpt>
      <trkpt lat="41.8977880" lon="-2.8714280">
        <ele>1460.9</ele>
        <time>2022-02-08T10:42:18Z</time>
      </trkpt>
      <trkpt lat="41.8977870" lon="-2.8714020">
        <ele>1461.2</ele>
        <time>2022-02-08T10:42:19Z</time>
      </trkpt>
      <trkpt lat="41.8977830" lon="-2.8713730">
        <ele>1461.5</ele>
        <time>2022-02-08T10:42:20Z</time>
      </trkpt>
      <trkpt lat="41.8977780" lon="-2.8713430">
        <ele>1462.0</ele>
        <time>2022-02-08T10:42:21Z</time>
      </trkpt>
      <trkpt lat="41.8977770" lon="-2.8713120">
        <ele>1462.4</ele>
        <time>2022-02-08T10:42:22Z</time>
      </trkpt>
      <trkpt lat="41.8977730" lon="-2.8712850">
        <ele>1462.8</ele>
        <time>2022-02-08T10:42:23Z</time>
      </trkpt>
      <trkpt lat="41.8977730" lon="-2.8712620">
        <ele>1463.1</ele>
        <time>2022-02-08T10:42:24Z</time>
      </trkpt>
      <trkpt lat="41.8977730" lon="-2.8712470">
        <ele>1463.3</ele>
        <time>2022-02-08T10:42:25Z</time>
      </trkpt>
      <trkpt lat="41.8977720" lon="-2.8712320">
        <ele>1463.6</ele>
        <time>2022-02-08T10:42:26Z</time>
      </trkpt>
      <trkpt lat="41.8977730" lon="-2.8712150">
        <ele>1463.8</ele>
        <time>2022-02-08T10:42:27Z</time>
      </trkpt>
      <trkpt lat="41.8977750" lon="-2.8711970">
        <ele>1464.1</ele>
        <time>2022-02-08T10:42:28Z</time>
      </trkpt>
      <trkpt lat="41.8977750" lon="-2.8711780">
        <ele>1464.4</ele>
        <time>2022-02-08T10:42:29Z</time>
      </trkpt>
      <trkpt lat="41.8977770" lon="-2.8711600">
        <ele>1464.7</ele>
        <time>2022-02-08T10:42:30Z</time>
      </trkpt>
      <trkpt lat="41.8977780" lon="-2.8711450">
        <ele>1464.9</ele>
        <time>2022-02-08T10:42:31Z</time>
      </trkpt>
      <trkpt lat="41.8977780" lon="-2.8711300">
        <ele>1465.1</ele>
        <time>2022-02-08T10:42:32Z</time>
      </trkpt>
      <trkpt lat="41.8977820" lon="-2.8711150">
        <ele>1465.4</ele>
        <time>2022-02-08T10:42:33Z</time>
      </trkpt>
      <trkpt lat="41.8977830" lon="-2.8711020">
        <ele>1465.6</ele>
        <time>2022-02-08T10:42:34Z</time>
      </trkpt>
      <trkpt lat="41.8977830" lon="-2.8710850">
        <ele>1465.8</ele>
        <time>2022-02-08T10:42:35Z</time>
      </trkpt>
      <trkpt lat="41.8977750" lon="-2.8710700">
        <ele>1466.1</ele>
        <time>2022-02-08T10:42:36Z</time>
      </trkpt>
      <trkpt lat="41.8977720" lon="-2.8710550">
        <ele>1466.3</ele>
        <time>2022-02-08T10:42:37Z</time>
      </trkpt>
      <trkpt lat="41.8977680" lon="-2.8710380">
        <ele>1466.6</ele>
        <time>2022-02-08T10:42:38Z</time>
      </trkpt>
      <trkpt lat="41.8977670" lon="-2.8710230">
        <ele>1466.8</ele>
        <time>2022-02-08T10:42:39Z</time>
      </trkpt>
      <trkpt lat="41.8977620" lon="-2.8710120">
        <ele>1467.0</ele>
        <time>2022-02-08T10:42:40Z</time>
      </trkpt>
      <trkpt lat="41.8977570" lon="-2.8709970">
        <ele>1467.2</ele>
        <time>2022-02-08T10:42:41Z</time>
      </trkpt>
      <trkpt lat="41.8977470" lon="-2.8709800">
        <ele>1467.5</ele>
        <time>2022-02-08T10:42:42Z</time>
      </trkpt>
      <trkpt lat="41.8977450" lon="-2.8709620">
        <ele>1467.7</ele>
        <time>2022-02-08T10:42:43Z</time>
      </trkpt>
      <trkpt lat="41.8977430" lon="-2.8709450">
        <ele>1468.0</ele>
        <time>2022-02-08T10:42:44Z</time>
      </trkpt>
      <trkpt lat="41.8977400" lon="-2.8709350">
        <ele>1468.1</ele>
        <time>2022-02-08T10:42:45Z</time>
      </trkpt>
      <trkpt lat="41.8977350" lon="-2.8709270">
        <ele>1468.3</ele>
        <time>2022-02-08T10:42:46Z</time>
      </trkpt>
      <trkpt lat="41.8977280" lon="-2.8709170">
        <ele>1468.5</ele>
        <time>2022-02-08T10:42:47Z</time>
      </trkpt>
      <trkpt lat="41.8977250" lon="-2.8709080">
        <ele>1468.6</ele>
        <time>2022-02-08T10:42:48Z</time>
      </trkpt>
      <trkpt lat="41.8977200" lon="-2.8709000">
        <ele>1468.8</ele>
        <time>2022-02-08T10:42:49Z</time>
      </trkpt>
      <trkpt lat="41.8977170" lon="-2.8708880">
        <ele>1469.0</ele>
        <time>2022-02-08T10:42:50Z</time>
      </trkpt>
      <trkpt lat="41.8977130" lon="-2.8708770">
        <ele>1469.1</ele>
        <time>2022-02-08T10:42:51Z</time>
      </trkpt>
      <trkpt lat="41.8977100" lon="-2.8708630">
        <ele>1469.3</ele>
        <time>2022-02-08T10:42:52Z</time>
      </trkpt>
      <trkpt lat="41.8977070" lon="-2.8708500">
        <ele>1469.5</ele>
        <time>2022-02-08T10:42:53Z</time>
      </trkpt>
      <trkpt lat="41.8977030" lon="-2.8708370">
        <ele>1469.7</ele>
        <time>2022-02-08T10:42:54Z</time>
      </trkpt>
      <trkpt lat="41.8977000" lon="-2.8708230">
        <ele>1469.9</ele>
        <time>2022-02-08T10:42:55Z</time>
      </trkpt>
      <trkpt lat="41.8976980" lon="-2.8708080">
        <ele>1470.1</ele>
        <time>2022-02-08T10:42:56Z</time>
      </trkpt>
      <trkpt lat="41.8977000" lon="-2.8707970">
        <ele>1470.2</ele>
        <time>2022-02-08T10:42:57Z</time>
      </trkpt>
      <trkpt lat="41.8977020" lon="-2.8707850">
        <ele>1470.4</ele>
        <time>2022-02-08T10:42:58Z</time>
      </trkpt>
      <trkpt lat="41.8977050" lon="-2.8707720">
        <ele>1470.5</ele>
        <time>2022-02-08T10:42:59Z</time>
      </trkpt>
      <trkpt lat="41.8977030" lon="-2.8707570">
        <ele>1470.7</ele>
        <time>2022-02-08T10:43:00Z</time>
      </trkpt>
      <trkpt lat="41.8977030" lon="-2.8707420">
        <ele>1470.9</ele>
        <time>2022-02-08T10:43:01Z</time>
      </trkpt>
      <trkpt lat="41.8977030" lon="-2.8707300">
        <ele>1471.1</ele>
        <time>2022-02-08T10:43:02Z</time>
      </trkpt>
      <trkpt lat="41.8977020" lon="-2.8707170">
        <ele>1471.2</ele>
        <time>2022-02-08T10:43:03Z</time>
      </trkpt>
      <trkpt lat="41.8976980" lon="-2.8707020">
        <ele>1471.4</ele>
        <time>2022-02-08T10:43:04Z</time>
      </trkpt>
      <trkpt lat="41.8976950" lon="-2.8706870">
        <ele>1471.6</ele>
        <time>2022-02-08T10:43:05Z</time>
      </trkpt>
      <trkpt lat="41.8976900" lon="-2.8706720">
        <ele>1471.8</ele>
        <time>2022-02-08T10:43:06Z</time>
      </trkpt>
      <trkpt lat="41.8976870" lon="-2.8706570">
        <ele>1472.0</ele>
        <time>2022-02-08T10:43:07Z</time>
      </trkpt>
      <trkpt lat="41.8976870" lon="-2.8706400">
        <ele>1472.2</ele>
        <time>2022-02-08T10:43:08Z</time>
      </trkpt>
      <trkpt lat="41.8976850" lon="-2.8706230">
        <ele>1472.4</ele>
        <time>2022-02-08T10:43:09Z</time>
      </trkpt>
      <trkpt lat="41.8976820" lon="-2.8706100">
        <ele>1472.6</ele>
        <time>2022-02-08T10:43:10Z</time>
      </trkpt>
      <trkpt lat="41.8976780" lon="-2.8705980">
        <ele>1472.7</ele>
        <time>2022-02-08T10:43:11Z</time>
      </trkpt>
      <trkpt lat="41.8976730" lon="-2.8705870">
        <ele>1472.9</ele>
        <time>2022-02-08T10:43:12Z</time>
      </trkpt>
      <trkpt lat="41.8976680" lon="-2.8705770">
        <ele>1473.0</ele>
        <time>2022-02-08T10:43:13Z</time>
      </trkpt>
      <trkpt lat="41.8976650" lon="-2.8705650">
        <ele>1473.2</ele>
        <time>2022-02-08T10:43:14Z</time>
      </trkpt>
      <trkpt lat="41.8976600" lon="-2.8705530">
        <ele>1473.3</ele>
        <time>2022-02-08T10:43:15Z</time>
      </trkpt>
      <trkpt lat="41.8976550" lon="-2.8705450">
        <ele>1473.4</ele>
        <time>2022-02-08T10:43:16Z</time>
      </trkpt>
      <trkpt lat="41.8976480" lon="-2.8705380">
        <ele>1473.6</ele>
        <time>2022-02-08T10:43:17Z</time>
      </trkpt>
      <trkpt lat="41.8976400" lon="-2.8705300">
        <ele>1473.7</ele>
        <time>2022-02-08T10:43:18Z</time>
      </trkpt>
      <trkpt lat="41.8976320" lon="-2.8705200">
        <ele>1473.9</ele>
        <time>2022-02-08T10:43:19Z</time>
      </trkpt>
      <trkpt lat="41.8976220" lon="-2.8705080">
        <ele>1474.0</ele>
        <time>2022-02-08T10:43:20Z</time>
      </trkpt>
      <trkpt lat="41.8976130" lon="-2.8704980">
        <ele>1474.2</ele>
        <time>2022-02-08T10:43:21Z</time>
      </trkpt>
      <trkpt lat="41.8976080" lon="-2.8704870">
        <ele>1474.3</ele>
        <time>2022-02-08T10:43:22Z</time>
      </trkpt>
      <trkpt lat="41.8976030" lon="-2.8704770">
        <ele>1474.5</ele>
        <time>2022-02-08T10:43:23Z</time>
      </trkpt>
      <trkpt lat="41.8975980" lon="-2.8704650">
        <ele>1474.6</ele>
        <time>2022-02-08T10:43:24Z</time>
      </trkpt>
      <trkpt lat="41.8975930" lon="-2.8704530">
        <ele>1474.7</ele>
        <time>2022-02-08T10:43:25Z</time>
      </trkpt>
      <trkpt lat="41.8975880" lon="-2.8704380">
        <ele>1474.9</ele>
        <time>2022-02-08T10:43:26Z</time>
      </trkpt>
      <trkpt lat="41.8975830" lon="-2.8704220">
        <ele>1475.0</ele>
        <time>2022-02-08T10:43:27Z</time>
      </trkpt>
      <trkpt lat="41.8975770" lon="-2.8704070">
        <ele>1475.2</ele>
        <time>2022-02-08T10:43:28Z</time>
      </trkpt>
      <trkpt lat="41.8975700" lon="-2.8703930">
        <ele>1475.4</ele>
        <time>2022-02-08T10:43:29Z</time>
      </trkpt>
      <trkpt lat="41.8975630" lon="-2.8703770">
        <ele>1475.5</ele>
        <time>2022-02-08T10:43:30Z</time>
      </trkpt>
      <trkpt lat="41.8975570" lon="-2.8703620">
        <ele>1475.7</ele>
        <time>2022-02-08T10:43:31Z</time>
      </trkpt>
      <trkpt lat="41.8975470" lon="-2.8703480">
        <ele>1475.8</ele>
        <time>2022-02-08T10:43:32Z</time>
      </trkpt>
      <trkpt lat="41.8975380" lon="-2.8703350">
        <ele>1476.0</ele>
        <time>2022-02-08T10:43:33Z</time>
      </trkpt>
      <trkpt lat="41.8975320" lon="-2.8703220">
        <ele>1476.1</ele>
        <time>2022-02-08T10:43:34Z</time>
      </trkpt>
      <trkpt lat="41.8975250" lon="-2.8703080">
        <ele>1476.2</ele>
        <time>2022-02-08T10:43:35Z</time>
      </trkpt>
      <trkpt lat="41.8975170" lon="-2.8702970">
        <ele>1476.4</ele>
        <time>2022-02-08T10:43:36Z</time>
      </trkpt>
      <trkpt lat="41.8975080" lon="-2.8702830">
        <ele>1476.5</ele>
        <time>2022-02-08T10:43:37Z</time>
      </trkpt>
      <trkpt lat="41.8974970" lon="-2.8702670">
        <ele>1476.7</ele>
        <time>2022-02-08T10:43:38Z</time>
      </trkpt>
      <trkpt lat="41.8974880" lon="-2.8702500">
        <ele>1476.8</ele>
        <time>2022-02-08T10:43:39Z</time>
      </trkpt>
      <trkpt lat="41.8974780" lon="-2.8702370">
        <ele>1476.9</ele>
        <time>2022-02-08T10:43:40Z</time>
      </trkpt>
      <trkpt lat="41.8974680" lon="-2.8702250">
        <ele>1477.1</ele>
        <time>2022-02-08T10:43:41Z</time>
      </trkpt>
      <trkpt lat="41.8974550" lon="-2.8702120">
        <ele>1477.2</ele>
        <time>2022-02-08T10:43:42Z</time>
      </trkpt>
      <trkpt lat="41.8974400" lon="-2.8701980">
        <ele>1477.4</ele>
        <time>2022-02-08T10:43:43Z</time>
      </trkpt>
      <trkpt lat="41.8974250" lon="-2.8701850">
        <ele>1477.5</ele>
        <time>2022-02-08T10:43:44Z</time>
      </trkpt>
      <trkpt lat="41.8974100" lon="-2.8701680">
        <ele>1477.7</ele>
        <time>2022-02-08T10:43:45Z</time>
      </trkpt>
      <trkpt lat="41.8973950" lon="-2.8701570">
        <ele>1477.8</ele>
        <time>2022-02-08T10:43:46Z</time>
      </trkpt>
      <trkpt lat="41.8973820" lon="-2.8701470">
        <ele>1478.0</ele>
        <time>2022-02-08T10:43:47Z</time>
      </trkpt>
      <trkpt lat="41.8973680" lon="-2.8701350">
        <ele>1478.1</ele>
        <time>2022-02-08T10:43:48Z</time>
      </trkpt>
      <trkpt lat="41.8973530" lon="-2.8701230">
        <ele>1478.2</ele>
        <time>2022-02-08T10:43:49Z</time>
      </trkpt>
      <trkpt lat="41.8973370" lon="-2.8701070">
        <ele>1478.4</ele>
        <time>2022-02-08T10:43:50Z</time>
      </trkpt>
      <trkpt lat="41.8973220" lon="-2.8700870">
        <ele>1478.6</ele>
        <time>2022-02-08T10:43:51Z</time>
      </trkpt>
      <trkpt lat="41.8973130" lon="-2.8700630">
        <ele>1478.7</ele>
        <time>2022-02-08T10:43:52Z</time>
      </trkpt>
      <trkpt lat="41.8973080" lon="-2.8700370">
        <ele>1478.9</ele>
        <time>2022-02-08T10:43:53Z</time>
      </trkpt>
      <trkpt lat="41.8973020" lon="-2.8700070">
        <ele>1479.1</ele>
        <time>2022-02-08T10:43:54Z</time>
      </trkpt>
      <trkpt lat="41.8972930" lon="-2.8699780">
        <ele>1479.3</ele>
        <time>2022-02-08T10:43:55Z</time>
      </trkpt>
      <trkpt lat="41.8972880" lon="-2.8699500">
        <ele>1479.4</ele>
        <time>2022-02-08T10:43:56Z</time>
      </trkpt>
      <trkpt lat="41.8972870" lon="-2.8699220">
        <ele>1479.6</ele>
        <time>2022-02-08T10:43:57Z</time>
      </trkpt>
      <trkpt lat="41.8972850" lon="-2.8698980">
        <ele>1479.8</ele>
        <time>2022-02-08T10:43:58Z</time>
      </trkpt>
      <trkpt lat="41.8972850" lon="-2.8698770">
        <ele>1479.9</ele>
        <time>2022-02-08T10:43:59Z</time>
      </trkpt>
      <trkpt lat="41.8972880" lon="-2.8698580">
        <ele>1480.0</ele>
        <time>2022-02-08T10:44:00Z</time>
      </trkpt>
      <trkpt lat="41.8972930" lon="-2.8698400">
        <ele>1480.2</ele>
        <time>2022-02-08T10:44:01Z</time>
      </trkpt>
      <trkpt lat="41.8972970" lon="-2.8698200">
        <ele>1480.3</ele>
        <time>2022-02-08T10:44:02Z</time>
      </trkpt>
      <trkpt lat="41.8973000" lon="-2.8697980">
        <ele>1480.5</ele>
        <time>2022-02-08T10:44:03Z</time>
      </trkpt>
      <trkpt lat="41.8973020" lon="-2.8697770">
        <ele>1480.6</ele>
        <time>2022-02-08T10:44:04Z</time>
      </trkpt>
      <trkpt lat="41.8973030" lon="-2.8697530">
        <ele>1480.7</ele>
        <time>2022-02-08T10:44:05Z</time>
      </trkpt>
      <trkpt lat="41.8973030" lon="-2.8697300">
        <ele>1480.9</ele>
        <time>2022-02-08T10:44:06Z</time>
      </trkpt>
      <trkpt lat="41.8973030" lon="-2.8697070">
        <ele>1481.0</ele>
        <time>2022-02-08T10:44:07Z</time>
      </trkpt>
      <trkpt lat="41.8973020" lon="-2.8696820">
        <ele>1481.2</ele>
        <time>2022-02-08T10:44:08Z</time>
      </trkpt>
      <trkpt lat="41.8973030" lon="-2.8696570">
        <ele>1481.3</ele>
        <time>2022-02-08T10:44:09Z</time>
      </trkpt>
      <trkpt lat="41.8973030" lon="-2.8696350">
        <ele>1481.4</ele>
        <time>2022-02-08T10:44:10Z</time>
      </trkpt>
      <trkpt lat="41.8973030" lon="-2.8696150">
        <ele>1481.5</ele>
        <time>2022-02-08T10:44:11Z</time>
      </trkpt>
      <trkpt lat="41.8973030" lon="-2.8695970">
        <ele>1481.6</ele>
        <time>2022-02-08T10:44:12Z</time>
      </trkpt>
      <trkpt lat="41.8973030" lon="-2.8695750">
        <ele>1481.7</ele>
        <time>2022-02-08T10:44:13Z</time>
      </trkpt>
      <trkpt lat="41.8973000" lon="-2.8695550">
        <ele>1481.8</ele>
        <time>2022-02-08T10:44:14Z</time>
      </trkpt>
      <trkpt lat="41.8972980" lon="-2.8695320">
        <ele>1481.9</ele>
        <time>2022-02-08T10:44:15Z</time>
      </trkpt>
      <trkpt lat="41.8972980" lon="-2.8695100">
        <ele>1482.0</ele>
        <time>2022-02-08T10:44:16Z</time>
      </trkpt>
      <trkpt lat="41.8972970" lon="-2.8694880">
        <ele>1482.1</ele>
        <time>2022-02-08T10:44:17Z</time>
      </trkpt>
      <trkpt lat="41.8972970" lon="-2.8694670">
        <ele>1482.2</ele>
        <time>2022-02-08T10:44:18Z</time>
      </trkpt>
      <trkpt lat="41.8972950" lon="-2.8694420">
        <ele>1482.3</ele>
        <time>2022-02-08T10:44:19Z</time>
      </trkpt>
      <trkpt lat="41.8972930" lon="-2.8694180">
        <ele>1482.4</ele>
        <time>2022-02-08T10:44:20Z</time>
      </trkpt>
      <trkpt lat="41.8972880" lon="-2.8693920">
        <ele>1482.4</ele>
        <time>2022-02-08T10:44:21Z</time>
      </trkpt>
      <trkpt lat="41.8972850" lon="-2.8693630">
        <ele>1482.5</ele>
        <time>2022-02-08T10:44:22Z</time>
      </trkpt>
      <trkpt lat="41.8972780" lon="-2.8693330">
        <ele>1482.5</ele>
        <time>2022-02-08T10:44:23Z</time>
      </trkpt>
      <trkpt lat="41.8972730" lon="-2.8693020">
        <ele>1482.6</ele>
        <time>2022-02-08T10:44:24Z</time>
      </trkpt>
      <trkpt lat="41.8972670" lon="-2.8692730">
        <ele>1482.6</ele>
        <time>2022-02-08T10:44:25Z</time>
      </trkpt>
      <trkpt lat="41.8972580" lon="-2.8692470">
        <ele>1482.7</ele>
        <time>2022-02-08T10:44:26Z</time>
      </trkpt>
      <trkpt lat="41.8972480" lon="-2.8692180">
        <ele>1482.7</ele>
        <time>2022-02-08T10:44:27Z</time>
      </trkpt>
      <trkpt lat="41.8972430" lon="-2.8691880">
        <ele>1482.7</ele>
        <time>2022-02-08T10:44:28Z</time>
      </trkpt>
      <trkpt lat="41.8972380" lon="-2.8691580">
        <ele>1482.7</ele>
        <time>2022-02-08T10:44:29Z</time>
      </trkpt>
      <trkpt lat="41.8972330" lon="-2.8691270">
        <ele>1482.7</ele>
        <time>2022-02-08T10:44:30Z</time>
      </trkpt>
      <trkpt lat="41.8972300" lon="-2.8690980">
        <ele>1482.7</ele>
        <time>2022-02-08T10:44:31Z</time>
      </trkpt>
      <trkpt lat="41.8972250" lon="-2.8690680">
        <ele>1482.7</ele>
        <time>2022-02-08T10:44:32Z</time>
      </trkpt>
      <trkpt lat="41.8972220" lon="-2.8690350">
        <ele>1482.7</ele>
        <time>2022-02-08T10:44:33Z</time>
      </trkpt>
      <trkpt lat="41.8972170" lon="-2.8690020">
        <ele>1482.7</ele>
        <time>2022-02-08T10:44:34Z</time>
      </trkpt>
      <trkpt lat="41.8972170" lon="-2.8689650">
        <ele>1482.6</ele>
        <time>2022-02-08T10:44:35Z</time>
      </trkpt>
      <trkpt lat="41.8972200" lon="-2.8689230">
        <ele>1482.6</ele>
        <time>2022-02-08T10:44:36Z</time>
      </trkpt>
      <trkpt lat="41.8972250" lon="-2.8688820">
        <ele>1482.5</ele>
        <time>2022-02-08T10:44:37Z</time>
      </trkpt>
      <trkpt lat="41.8972330" lon="-2.8688350">
        <ele>1482.4</ele>
        <time>2022-02-08T10:44:38Z</time>
      </trkpt>
      <trkpt lat="41.8972430" lon="-2.8687900">
        <ele>1482.3</ele>
        <time>2022-02-08T10:44:39Z</time>
      </trkpt>
      <trkpt lat="41.8972600" lon="-2.8687380">
        <ele>1482.2</ele>
        <time>2022-02-08T10:44:40Z</time>
      </trkpt>
      <trkpt lat="41.8972750" lon="-2.8686930">
        <ele>1482.1</ele>
        <time>2022-02-08T10:44:41Z</time>
      </trkpt>
      <trkpt lat="41.8972880" lon="-2.8686480">
        <ele>1481.9</ele>
        <time>2022-02-08T10:44:42Z</time>
      </trkpt>
      <trkpt lat="41.8973000" lon="-2.8686000">
        <ele>1481.8</ele>
        <time>2022-02-08T10:44:43Z</time>
      </trkpt>
      <trkpt lat="41.8973120" lon="-2.8685450">
        <ele>1481.6</ele>
        <time>2022-02-08T10:44:44Z</time>
      </trkpt>
      <trkpt lat="41.8973250" lon="-2.8684820">
        <ele>1481.4</ele>
        <time>2022-02-08T10:44:45Z</time>
      </trkpt>
      <trkpt lat="41.8973400" lon="-2.8684200">
        <ele>1481.2</ele>
        <time>2022-02-08T10:44:46Z</time>
      </trkpt>
      <trkpt lat="41.8973580" lon="-2.8683430">
        <ele>1481.0</ele>
        <time>2022-02-08T10:44:47Z</time>
      </trkpt>
      <trkpt lat="41.8973630" lon="-2.8682600">
        <ele>1480.7</ele>
        <time>2022-02-08T10:44:48Z</time>
      </trkpt>
      <trkpt lat="41.8973620" lon="-2.8681830">
        <ele>1480.3</ele>
        <time>2022-02-08T10:44:49Z</time>
      </trkpt>
      <trkpt lat="41.8973530" lon="-2.8681200">
        <ele>1480.0</ele>
        <time>2022-02-08T10:44:50Z</time>
      </trkpt>
      <trkpt lat="41.8973420" lon="-2.8680750">
        <ele>1479.8</ele>
        <time>2022-02-08T10:44:51Z</time>
      </trkpt>
      <trkpt lat="41.8973320" lon="-2.8680430">
        <ele>1479.6</ele>
        <time>2022-02-08T10:44:52Z</time>
      </trkpt>
      <trkpt lat="41.8973270" lon="-2.8680370">
        <ele>1479.5</ele>
        <time>2022-02-08T10:44:53Z</time>
      </trkpt>
      <trkpt lat="41.8973330" lon="-2.8680350">
        <ele>1479.5</ele>
        <time>2022-02-08T10:44:54Z</time>
      </trkpt>
      <trkpt lat="41.8973420" lon="-2.8680450">
        <ele>1479.4</ele>
        <time>2022-02-08T10:44:55Z</time>
      </trkpt>
      <trkpt lat="41.8973430" lon="-2.8680570">
        <ele>1479.4</ele>
        <time>2022-02-08T10:44:56Z</time>
      </trkpt>
      <trkpt lat="41.8973470" lon="-2.8680730">
        <ele>1479.3</ele>
        <time>2022-02-08T10:44:57Z</time>
      </trkpt>
      <trkpt lat="41.8973550" lon="-2.8680830">
        <ele>1479.2</ele>
        <time>2022-02-08T10:44:58Z</time>
      </trkpt>
      <trkpt lat="41.8973630" lon="-2.8680930">
        <ele>1479.1</ele>
        <time>2022-02-08T10:44:59Z</time>
      </trkpt>
      <trkpt lat="41.8973700" lon="-2.8680980">
        <ele>1479.1</ele>
        <time>2022-02-08T10:45:00Z</time>
      </trkpt>
      <trkpt lat="41.8973780" lon="-2.8680980">
        <ele>1479.0</ele>
        <time>2022-02-08T10:45:01Z</time>
      </trkpt>
      <trkpt lat="41.8973830" lon="-2.8680980">
        <ele>1479.0</ele>
        <time>2022-02-08T10:45:02Z</time>
      </trkpt>
      <trkpt lat="41.8973850" lon="-2.8681000">
        <ele>1479.0</ele>
        <time>2022-02-08T10:45:03Z</time>
      </trkpt>
      <trkpt lat="41.8973870" lon="-2.8680980">
        <ele>1479.0</ele>
        <time>2022-02-08T10:45:04Z</time>
      </trkpt>
      <trkpt lat="41.8973870" lon="-2.8680980">
        <ele>1479.0</ele>
        <time>2022-02-08T10:45:05Z</time>
      </trkpt>
      <trkpt lat="41.8973870" lon="-2.8680980">
        <ele>1479.0</ele>
        <time>2022-02-08T10:45:06Z</time>
      </trkpt>
      <trkpt lat="41.8973870" lon="-2.8680980">
        <ele>1479.0</ele>
        <time>2022-02-08T10:45:07Z</time>
      </trkpt>
      <trkpt lat="41.8973870" lon="-2.8680980">
        <ele>1479.0</ele>
        <time>2022-02-08T10:45:08Z</time>
      </trkpt>
      <trkpt lat="41.8973870" lon="-2.8680980">
        <ele>1479.0</ele>
        <time>2022-02-08T10:45:09Z</time>
      </trkpt>
      <trkpt lat="41.8973870" lon="-2.8680980">
        <ele>1479.0</ele>
        <time>2022-02-08T10:45:10Z</time>
      </trkpt>
      <trkpt lat="41.8973870" lon="-2.8680980">
        <ele>1479.0</ele>
        <time>2022-02-08T10:45:11Z</time>
      </trkpt>
      <trkpt lat="41.8973870" lon="-2.8680980">
        <ele>1479.0</ele>
        <time>2022-02-08T10:45:12Z</time>
      </trkpt>
      <trkpt lat="41.8973870" lon="-2.8680980">
        <ele>1479.0</ele>
        <time>2022-02-08T10:45:13Z</time>
      </trkpt>
      <trkpt lat="41.8973870" lon="-2.8680980">
        <ele>1479.0</ele>
        <time>2022-02-08T10:45:14Z</time>
      </trkpt>
      <trkpt lat="41.8973870" lon="-2.8680980">
        <ele>1479.0</ele>
        <time>2022-02-08T10:45:15Z</time>
      </trkpt>
      <trkpt lat="41.8973870" lon="-2.8680970">
        <ele>1479.0</ele>
        <time>2022-02-08T10:45:16Z</time>
      </trkpt>
      <trkpt lat="41.8973870" lon="-2.8680930">
        <ele>1479.0</ele>
        <time>2022-02-08T10:45:17Z</time>
      </trkpt>
      <trkpt lat="41.8973870" lon="-2.8680920">
        <ele>1479.0</ele>
        <time>2022-02-08T10:45:18Z</time>
      </trkpt>
      <trkpt lat="41.8973850" lon="-2.8680900">
        <ele>1478.9</ele>
        <time>2022-02-08T10:45:19Z</time>
      </trkpt>
      <trkpt lat="41.8973850" lon="-2.8680870">
        <ele>1478.9</ele>
        <time>2022-02-08T10:45:20Z</time>
      </trkpt>
      <trkpt lat="41.8973850" lon="-2.8680830">
        <ele>1478.9</ele>
        <time>2022-02-08T10:45:21Z</time>
      </trkpt>
      <trkpt lat="41.8973850" lon="-2.8680800">
        <ele>1478.9</ele>
        <time>2022-02-08T10:45:22Z</time>
      </trkpt>
      <trkpt lat="41.8973830" lon="-2.8680800">
        <ele>1478.9</ele>
        <time>2022-02-08T10:45:23Z</time>
      </trkpt>
      <trkpt lat="41.8973830" lon="-2.8680800">
        <ele>1478.9</ele>
        <time>2022-02-08T10:45:24Z</time>
      </trkpt>
      <trkpt lat="41.8973830" lon="-2.8680800">
        <ele>1478.9</ele>
        <time>2022-02-08T10:45:25Z</time>
      </trkpt>
      <trkpt lat="41.8973830" lon="-2.8680800">
        <ele>1478.9</ele>
        <time>2022-02-08T10:45:26Z</time>
      </trkpt>
      <trkpt lat="41.8973830" lon="-2.8680800">
        <ele>1478.9</ele>
        <time>2022-02-08T10:45:27Z</time>
      </trkpt>
      <trkpt lat="41.8973830" lon="-2.8680780">
        <ele>1478.9</ele>
        <time>2022-02-08T10:45:28Z</time>
      </trkpt>
      <trkpt lat="41.8973850" lon="-2.8680780">
        <ele>1478.9</ele>
        <time>2022-02-08T10:45:29Z</time>
      </trkpt>
      <trkpt lat="41.8973850" lon="-2.8680770">
        <ele>1478.9</ele>
        <time>2022-02-08T10:45:30Z</time>
      </trkpt>
      <trkpt lat="41.8973850" lon="-2.8680770">
        <ele>1478.9</ele>
        <time>2022-02-08T10:45:31Z</time>
      </trkpt>
      <trkpt lat="41.8973850" lon="-2.8680770">
        <ele>1478.9</ele>
        <time>2022-02-08T10:45:32Z</time>
      </trkpt>
      <trkpt lat="41.8973870" lon="-2.8680750">
        <ele>1478.8</ele>
        <time>2022-02-08T10:45:33Z</time>
      </trkpt>
      <trkpt lat="41.8973870" lon="-2.8680700">
        <ele>1478.8</ele>
        <time>2022-02-08T10:45:34Z</time>
      </trkpt>
      <trkpt lat="41.8973870" lon="-2.8680570">
        <ele>1478.8</ele>
        <time>2022-02-08T10:45:35Z</time>
      </trkpt>
      <trkpt lat="41.8973870" lon="-2.8680480">
        <ele>1478.7</ele>
        <time>2022-02-08T10:45:36Z</time>
      </trkpt>
      <trkpt lat="41.8973870" lon="-2.8680420">
        <ele>1478.7</ele>
        <time>2022-02-08T10:45:37Z</time>
      </trkpt>
      <trkpt lat="41.8973870" lon="-2.8680350">
        <ele>1478.7</ele>
        <time>2022-02-08T10:45:38Z</time>
      </trkpt>
      <trkpt lat="41.8973850" lon="-2.8680300">
        <ele>1478.7</ele>
        <time>2022-02-08T10:45:39Z</time>
      </trkpt>
      <trkpt lat="41.8973850" lon="-2.8680280">
        <ele>1478.7</ele>
        <time>2022-02-08T10:45:40Z</time>
      </trkpt>
      <trkpt lat="41.8973850" lon="-2.8680280">
        <ele>1478.7</ele>
        <time>2022-02-08T10:45:41Z</time>
      </trkpt>
      <trkpt lat="41.8973850" lon="-2.8680280">
        <ele>1478.7</ele>
        <time>2022-02-08T10:45:42Z</time>
      </trkpt>
      <trkpt lat="41.8973850" lon="-2.8680270">
        <ele>1478.7</ele>
        <time>2022-02-08T10:45:43Z</time>
      </trkpt>
      <trkpt lat="41.8973850" lon="-2.8680270">
        <ele>1478.7</ele>
        <time>2022-02-08T10:45:44Z</time>
      </trkpt>
      <trkpt lat="41.8973850" lon="-2.8680270">
        <ele>1478.7</ele>
        <time>2022-02-08T10:45:45Z</time>
      </trkpt>
      <trkpt lat="41.8973850" lon="-2.8680270">
        <ele>1478.7</ele>
        <time>2022-02-08T10:45:46Z</time>
      </trkpt>
      <trkpt lat="41.8973850" lon="-2.8680270">
        <ele>1478.7</ele>
        <time>2022-02-08T10:45:47Z</time>
      </trkpt>
      <trkpt lat="41.8973850" lon="-2.8680270">
        <ele>1478.7</ele>
        <time>2022-02-08T10:45:48Z</time>
      </trkpt>
      <trkpt lat="41.8973850" lon="-2.8680270">
        <ele>1478.7</ele>
        <time>2022-02-08T10:45:49Z</time>
      </trkpt>
      <trkpt lat="41.8973850" lon="-2.8680270">
        <ele>1478.7</ele>
        <time>2022-02-08T10:45:50Z</time>
      </trkpt>
      <trkpt lat="41.8973870" lon="-2.8680270">
        <ele>1478.7</ele>
        <time>2022-02-08T10:45:51Z</time>
      </trkpt>
      <trkpt lat="41.8973870" lon="-2.8680270">
        <ele>1478.7</ele>
        <time>2022-02-08T10:45:52Z</time>
      </trkpt>
      <trkpt lat="41.8973880" lon="-2.8680270">
        <ele>1478.6</ele>
        <time>2022-02-08T10:45:53Z</time>
      </trkpt>
      <trkpt lat="41.8973880" lon="-2.8680270">
        <ele>1478.6</ele>
        <time>2022-02-08T10:45:54Z</time>
      </trkpt>
      <trkpt lat="41.8973880" lon="-2.8680270">
        <ele>1478.6</ele>
        <time>2022-02-08T10:45:55Z</time>
      </trkpt>
      <trkpt lat="41.8973880" lon="-2.8680270">
        <ele>1478.6</ele>
        <time>2022-02-08T10:45:56Z</time>
      </trkpt>
      <trkpt lat="41.8973900" lon="-2.8680280">
        <ele>1478.6</ele>
        <time>2022-02-08T10:45:57Z</time>
      </trkpt>
      <trkpt lat="41.8973880" lon="-2.8680280">
        <ele>1478.6</ele>
        <time>2022-02-08T10:45:58Z</time>
      </trkpt>
      <trkpt lat="41.8973880" lon="-2.8680280">
        <ele>1478.6</ele>
        <time>2022-02-08T10:45:59Z</time>
      </trkpt>
      <trkpt lat="41.8973880" lon="-2.8680280">
        <ele>1478.6</ele>
        <time>2022-02-08T10:46:00Z</time>
      </trkpt>
      <trkpt lat="41.8973880" lon="-2.8680200">
        <ele>1478.6</ele>
        <time>2022-02-08T10:46:01Z</time>
      </trkpt>
      <trkpt lat="41.8973920" lon="-2.8679820">
        <ele>1478.5</ele>
        <time>2022-02-08T10:46:02Z</time>
      </trkpt>
      <trkpt lat="41.8973970" lon="-2.8679400">
        <ele>1478.3</ele>
        <time>2022-02-08T10:46:03Z</time>
      </trkpt>
      <trkpt lat="41.8974050" lon="-2.8678950">
        <ele>1478.2</ele>
        <time>2022-02-08T10:46:04Z</time>
      </trkpt>
      <trkpt lat="41.8974130" lon="-2.8678500">
        <ele>1478.0</ele>
        <time>2022-02-08T10:46:05Z</time>
      </trkpt>
      <trkpt lat="41.8974220" lon="-2.8678030">
        <ele>1477.8</ele>
        <time>2022-02-08T10:46:06Z</time>
      </trkpt>
      <trkpt lat="41.8974320" lon="-2.8677530">
        <ele>1477.7</ele>
        <time>2022-02-08T10:46:07Z</time>
      </trkpt>
      <trkpt lat="41.8974450" lon="-2.8677000">
        <ele>1477.4</ele>
        <time>2022-02-08T10:46:08Z</time>
      </trkpt>
      <trkpt lat="41.8974630" lon="-2.8676430">
        <ele>1477.2</ele>
        <time>2022-02-08T10:46:09Z</time>
      </trkpt>
      <trkpt lat="41.8974780" lon="-2.8675900">
        <ele>1476.9</ele>
        <time>2022-02-08T10:46:10Z</time>
      </trkpt>
      <trkpt lat="41.8974920" lon="-2.8675380">
        <ele>1476.6</ele>
        <time>2022-02-08T10:46:11Z</time>
      </trkpt>
      <trkpt lat="41.8974970" lon="-2.8674780">
        <ele>1476.3</ele>
        <time>2022-02-08T10:46:12Z</time>
      </trkpt>
      <trkpt lat="41.8975000" lon="-2.8674220">
        <ele>1476.0</ele>
        <time>2022-02-08T10:46:13Z</time>
      </trkpt>
      <trkpt lat="41.8975120" lon="-2.8673580">
        <ele>1475.6</ele>
        <time>2022-02-08T10:46:14Z</time>
      </trkpt>
      <trkpt lat="41.8975330" lon="-2.8672830">
        <ele>1475.1</ele>
        <time>2022-02-08T10:46:15Z</time>
      </trkpt>
      <trkpt lat="41.8975530" lon="-2.8672020">
        <ele>1474.5</ele>
        <time>2022-02-08T10:46:16Z</time>
      </trkpt>
      <trkpt lat="41.8975650" lon="-2.8671100">
        <ele>1473.9</ele>
        <time>2022-02-08T10:46:17Z</time>
      </trkpt>
      <trkpt lat="41.8975750" lon="-2.8670070">
        <ele>1473.1</ele>
        <time>2022-02-08T10:46:18Z</time>
      </trkpt>
      <trkpt lat="41.8975820" lon="-2.8668980">
        <ele>1472.3</ele>
        <time>2022-02-08T10:46:19Z</time>
      </trkpt>
      <trkpt lat="41.8976020" lon="-2.8668030">
        <ele>1471.6</ele>
        <time>2022-02-08T10:46:20Z</time>
      </trkpt>
      <trkpt lat="41.8976370" lon="-2.8667270">
        <ele>1470.8</ele>
        <time>2022-02-08T10:46:21Z</time>
      </trkpt>
      <trkpt lat="41.8976780" lon="-2.8666570">
        <ele>1470.1</ele>
        <time>2022-02-08T10:46:22Z</time>
      </trkpt>
      <trkpt lat="41.8977320" lon="-2.8665880">
        <ele>1469.3</ele>
        <time>2022-02-08T10:46:23Z</time>
      </trkpt>
      <trkpt lat="41.8977980" lon="-2.8665120">
        <ele>1468.4</ele>
        <time>2022-02-08T10:46:24Z</time>
      </trkpt>
      <trkpt lat="41.8978520" lon="-2.8664450">
        <ele>1467.7</ele>
        <time>2022-02-08T10:46:25Z</time>
      </trkpt>
      <trkpt lat="41.8978950" lon="-2.8663770">
        <ele>1467.1</ele>
        <time>2022-02-08T10:46:26Z</time>
      </trkpt>
      <trkpt lat="41.8979370" lon="-2.8663070">
        <ele>1466.5</ele>
        <time>2022-02-08T10:46:27Z</time>
      </trkpt>
      <trkpt lat="41.8979720" lon="-2.8662350">
        <ele>1466.0</ele>
        <time>2022-02-08T10:46:28Z</time>
      </trkpt>
      <trkpt lat="41.8980170" lon="-2.8661620">
        <ele>1465.7</ele>
        <time>2022-02-08T10:46:29Z</time>
      </trkpt>
      <trkpt lat="41.8980480" lon="-2.8660870">
        <ele>1465.7</ele>
        <time>2022-02-08T10:46:30Z</time>
      </trkpt>
      <trkpt lat="41.8980820" lon="-2.8660130">
        <ele>1465.7</ele>
        <time>2022-02-08T10:46:31Z</time>
      </trkpt>
      <trkpt lat="41.8981080" lon="-2.8659420">
        <ele>1465.7</ele>
        <time>2022-02-08T10:46:32Z</time>
      </trkpt>
      <trkpt lat="41.8981280" lon="-2.8658780">
        <ele>1465.8</ele>
        <time>2022-02-08T10:46:33Z</time>
      </trkpt>
      <trkpt lat="41.8981520" lon="-2.8658270">
        <ele>1465.9</ele>
        <time>2022-02-08T10:46:34Z</time>
      </trkpt>
      <trkpt lat="41.8981730" lon="-2.8657900">
        <ele>1466.0</ele>
        <time>2022-02-08T10:46:35Z</time>
      </trkpt>
      <trkpt lat="41.8981980" lon="-2.8657780">
        <ele>1466.1</ele>
        <time>2022-02-08T10:46:36Z</time>
      </trkpt>
      <trkpt lat="41.8982280" lon="-2.8657780">
        <ele>1466.2</ele>
        <time>2022-02-08T10:46:37Z</time>
      </trkpt>
      <trkpt lat="41.8982550" lon="-2.8657720">
        <ele>1466.3</ele>
        <time>2022-02-08T10:46:38Z</time>
      </trkpt>
      <trkpt lat="41.8982800" lon="-2.8657630">
        <ele>1466.5</ele>
        <time>2022-02-08T10:46:39Z</time>
      </trkpt>
      <trkpt lat="41.8983000" lon="-2.8657370">
        <ele>1466.6</ele>
        <time>2022-02-08T10:46:40Z</time>
      </trkpt>
      <trkpt lat="41.8983170" lon="-2.8657080">
        <ele>1466.7</ele>
        <time>2022-02-08T10:46:41Z</time>
      </trkpt>
      <trkpt lat="41.8983200" lon="-2.8656670">
        <ele>1466.9</ele>
        <time>2022-02-08T10:46:42Z</time>
      </trkpt>
      <trkpt lat="41.8983120" lon="-2.8656270">
        <ele>1467.0</ele>
        <time>2022-02-08T10:46:43Z</time>
      </trkpt>
      <trkpt lat="41.8982920" lon="-2.8655850">
        <ele>1467.1</ele>
        <time>2022-02-08T10:46:44Z</time>
      </trkpt>
      <trkpt lat="41.8982680" lon="-2.8655530">
        <ele>1467.2</ele>
        <time>2022-02-08T10:46:45Z</time>
      </trkpt>
      <trkpt lat="41.8982400" lon="-2.8655330">
        <ele>1467.3</ele>
        <time>2022-02-08T10:46:46Z</time>
      </trkpt>
      <trkpt lat="41.8982200" lon="-2.8655100">
        <ele>1467.3</ele>
        <time>2022-02-08T10:46:47Z</time>
      </trkpt>
      <trkpt lat="41.8982000" lon="-2.8654800">
        <ele>1467.4</ele>
        <time>2022-02-08T10:46:48Z</time>
      </trkpt>
      <trkpt lat="41.8981780" lon="-2.8654470">
        <ele>1467.4</ele>
        <time>2022-02-08T10:46:49Z</time>
      </trkpt>
      <trkpt lat="41.8981550" lon="-2.8654100">
        <ele>1467.5</ele>
        <time>2022-02-08T10:46:50Z</time>
      </trkpt>
      <trkpt lat="41.8981300" lon="-2.8653750">
        <ele>1467.6</ele>
        <time>2022-02-08T10:46:51Z</time>
      </trkpt>
      <trkpt lat="41.8981020" lon="-2.8653420">
        <ele>1467.7</ele>
        <time>2022-02-08T10:46:52Z</time>
      </trkpt>
      <trkpt lat="41.8980680" lon="-2.8653070">
        <ele>1467.7</ele>
        <time>2022-02-08T10:46:53Z</time>
      </trkpt>
      <trkpt lat="41.8980380" lon="-2.8652800">
        <ele>1467.7</ele>
        <time>2022-02-08T10:46:54Z</time>
      </trkpt>
      <trkpt lat="41.8980050" lon="-2.8652570">
        <ele>1467.7</ele>
        <time>2022-02-08T10:46:55Z</time>
      </trkpt>
      <trkpt lat="41.8979770" lon="-2.8652350">
        <ele>1467.8</ele>
        <time>2022-02-08T10:46:56Z</time>
      </trkpt>
      <trkpt lat="41.8979480" lon="-2.8652100">
        <ele>1467.7</ele>
        <time>2022-02-08T10:46:57Z</time>
      </trkpt>
      <trkpt lat="41.8979230" lon="-2.8651850">
        <ele>1467.7</ele>
        <time>2022-02-08T10:46:58Z</time>
      </trkpt>
      <trkpt lat="41.8979030" lon="-2.8651550">
        <ele>1467.7</ele>
        <time>2022-02-08T10:46:59Z</time>
      </trkpt>
      <trkpt lat="41.8978850" lon="-2.8651230">
        <ele>1467.6</ele>
        <time>2022-02-08T10:47:00Z</time>
      </trkpt>
      <trkpt lat="41.8978650" lon="-2.8650870">
        <ele>1467.5</ele>
        <time>2022-02-08T10:47:01Z</time>
      </trkpt>
      <trkpt lat="41.8978480" lon="-2.8650600">
        <ele>1467.4</ele>
        <time>2022-02-08T10:47:02Z</time>
      </trkpt>
      <trkpt lat="41.8978300" lon="-2.8650220">
        <ele>1467.3</ele>
        <time>2022-02-08T10:47:03Z</time>
      </trkpt>
      <trkpt lat="41.8978080" lon="-2.8649780">
        <ele>1467.0</ele>
        <time>2022-02-08T10:47:04Z</time>
      </trkpt>
      <trkpt lat="41.8977950" lon="-2.8649300">
        <ele>1466.8</ele>
        <time>2022-02-08T10:47:05Z</time>
      </trkpt>
      <trkpt lat="41.8977830" lon="-2.8648820">
        <ele>1466.5</ele>
        <time>2022-02-08T10:47:06Z</time>
      </trkpt>
      <trkpt lat="41.8977750" lon="-2.8648250">
        <ele>1466.2</ele>
        <time>2022-02-08T10:47:07Z</time>
      </trkpt>
      <trkpt lat="41.8977720" lon="-2.8647700">
        <ele>1465.8</ele>
        <time>2022-02-08T10:47:08Z</time>
      </trkpt>
      <trkpt lat="41.8977650" lon="-2.8647080">
        <ele>1465.4</ele>
        <time>2022-02-08T10:47:09Z</time>
      </trkpt>
      <trkpt lat="41.8977650" lon="-2.8646330">
        <ele>1464.8</ele>
        <time>2022-02-08T10:47:10Z</time>
      </trkpt>
      <trkpt lat="41.8977650" lon="-2.8645580">
        <ele>1464.1</ele>
        <time>2022-02-08T10:47:11Z</time>
      </trkpt>
      <trkpt lat="41.8977720" lon="-2.8644780">
        <ele>1463.4</ele>
        <time>2022-02-08T10:47:12Z</time>
      </trkpt>
      <trkpt lat="41.8977770" lon="-2.8643950">
        <ele>1462.6</ele>
        <time>2022-02-08T10:47:13Z</time>
      </trkpt>
      <trkpt lat="41.8977770" lon="-2.8643120">
        <ele>1461.8</ele>
        <time>2022-02-08T10:47:14Z</time>
      </trkpt>
      <trkpt lat="41.8977780" lon="-2.8642300">
        <ele>1461.1</ele>
        <time>2022-02-08T10:47:15Z</time>
      </trkpt>
      <trkpt lat="41.8977820" lon="-2.8641530">
        <ele>1460.3</ele>
        <time>2022-02-08T10:47:16Z</time>
      </trkpt>
      <trkpt lat="41.8977930" lon="-2.8640820">
        <ele>1459.6</ele>
        <time>2022-02-08T10:47:17Z</time>
      </trkpt>
      <trkpt lat="41.8978080" lon="-2.8640100">
        <ele>1458.8</ele>
        <time>2022-02-08T10:47:18Z</time>
      </trkpt>
      <trkpt lat="41.8978200" lon="-2.8639400">
        <ele>1458.0</ele>
        <time>2022-02-08T10:47:19Z</time>
      </trkpt>
      <trkpt lat="41.8978280" lon="-2.8638680">
        <ele>1457.2</ele>
        <time>2022-02-08T10:47:20Z</time>
      </trkpt>
      <trkpt lat="41.8978350" lon="-2.8637900">
        <ele>1456.3</ele>
        <time>2022-02-08T10:47:21Z</time>
      </trkpt>
      <trkpt lat="41.8978300" lon="-2.8637180">
        <ele>1455.5</ele>
        <time>2022-02-08T10:47:22Z</time>
      </trkpt>
      <trkpt lat="41.8978150" lon="-2.8636550">
        <ele>1454.8</ele>
        <time>2022-02-08T10:47:23Z</time>
      </trkpt>
      <trkpt lat="41.8977950" lon="-2.8636030">
        <ele>1454.1</ele>
        <time>2022-02-08T10:47:24Z</time>
      </trkpt>
      <trkpt lat="41.8977670" lon="-2.8635530">
        <ele>1453.5</ele>
        <time>2022-02-08T10:47:25Z</time>
      </trkpt>
      <trkpt lat="41.8977380" lon="-2.8634970">
        <ele>1452.8</ele>
        <time>2022-02-08T10:47:26Z</time>
      </trkpt>
      <trkpt lat="41.8977080" lon="-2.8634350">
        <ele>1452.2</ele>
        <time>2022-02-08T10:47:27Z</time>
      </trkpt>
      <trkpt lat="41.8976800" lon="-2.8633650">
        <ele>1451.7</ele>
        <time>2022-02-08T10:47:28Z</time>
      </trkpt>
      <trkpt lat="41.8976520" lon="-2.8632850">
        <ele>1451.1</ele>
        <time>2022-02-08T10:47:29Z</time>
      </trkpt>
      <trkpt lat="41.8976270" lon="-2.8631950">
        <ele>1450.3</ele>
        <time>2022-02-08T10:47:30Z</time>
      </trkpt>
      <trkpt lat="41.8976070" lon="-2.8631000">
        <ele>1449.6</ele>
        <time>2022-02-08T10:47:31Z</time>
      </trkpt>
      <trkpt lat="41.8975920" lon="-2.8630080">
        <ele>1448.9</ele>
        <time>2022-02-08T10:47:32Z</time>
      </trkpt>
      <trkpt lat="41.8975880" lon="-2.8629200">
        <ele>1448.2</ele>
        <time>2022-02-08T10:47:33Z</time>
      </trkpt>
      <trkpt lat="41.8975880" lon="-2.8628300">
        <ele>1447.5</ele>
        <time>2022-02-08T10:47:34Z</time>
      </trkpt>
      <trkpt lat="41.8975800" lon="-2.8627450">
        <ele>1446.9</ele>
        <time>2022-02-08T10:47:35Z</time>
      </trkpt>
      <trkpt lat="41.8975670" lon="-2.8626570">
        <ele>1446.2</ele>
        <time>2022-02-08T10:47:36Z</time>
      </trkpt>
      <trkpt lat="41.8975580" lon="-2.8625680">
        <ele>1445.6</ele>
        <time>2022-02-08T10:47:37Z</time>
      </trkpt>
      <trkpt lat="41.8975530" lon="-2.8624770">
        <ele>1445.0</ele>
        <time>2022-02-08T10:47:38Z</time>
      </trkpt>
      <trkpt lat="41.8975520" lon="-2.8623820">
        <ele>1444.4</ele>
        <time>2022-02-08T10:47:39Z</time>
      </trkpt>
      <trkpt lat="41.8975550" lon="-2.8622830">
        <ele>1443.9</ele>
        <time>2022-02-08T10:47:40Z</time>
      </trkpt>
      <trkpt lat="41.8975600" lon="-2.8621850">
        <ele>1443.4</ele>
        <time>2022-02-08T10:47:41Z</time>
      </trkpt>
      <trkpt lat="41.8975620" lon="-2.8620870">
        <ele>1442.9</ele>
        <time>2022-02-08T10:47:42Z</time>
      </trkpt>
      <trkpt lat="41.8975670" lon="-2.8619830">
        <ele>1442.6</ele>
        <time>2022-02-08T10:47:43Z</time>
      </trkpt>
      <trkpt lat="41.8975750" lon="-2.8618820">
        <ele>1442.3</ele>
        <time>2022-02-08T10:47:44Z</time>
      </trkpt>
      <trkpt lat="41.8975980" lon="-2.8617880">
        <ele>1442.2</ele>
        <time>2022-02-08T10:47:45Z</time>
      </trkpt>
      <trkpt lat="41.8976250" lon="-2.8617130">
        <ele>1442.1</ele>
        <time>2022-02-08T10:47:46Z</time>
      </trkpt>
      <trkpt lat="41.8976630" lon="-2.8616520">
        <ele>1442.0</ele>
        <time>2022-02-08T10:47:47Z</time>
      </trkpt>
      <trkpt lat="41.8976830" lon="-2.8615930">
        <ele>1441.9</ele>
        <time>2022-02-08T10:47:48Z</time>
      </trkpt>
      <trkpt lat="41.8976920" lon="-2.8615430">
        <ele>1441.8</ele>
        <time>2022-02-08T10:47:49Z</time>
      </trkpt>
      <trkpt lat="41.8976950" lon="-2.8614870">
        <ele>1441.6</ele>
        <time>2022-02-08T10:47:50Z</time>
      </trkpt>
      <trkpt lat="41.8977050" lon="-2.8614250">
        <ele>1441.4</ele>
        <time>2022-02-08T10:47:51Z</time>
      </trkpt>
      <trkpt lat="41.8977130" lon="-2.8613470">
        <ele>1441.1</ele>
        <time>2022-02-08T10:47:52Z</time>
      </trkpt>
      <trkpt lat="41.8977180" lon="-2.8612750">
        <ele>1440.8</ele>
        <time>2022-02-08T10:47:53Z</time>
      </trkpt>
      <trkpt lat="41.8977250" lon="-2.8612080">
        <ele>1440.5</ele>
        <time>2022-02-08T10:47:54Z</time>
      </trkpt>
      <trkpt lat="41.8977400" lon="-2.8611370">
        <ele>1440.1</ele>
        <time>2022-02-08T10:47:55Z</time>
      </trkpt>
      <trkpt lat="41.8977530" lon="-2.8610580">
        <ele>1439.6</ele>
        <time>2022-02-08T10:47:56Z</time>
      </trkpt>
      <trkpt lat="41.8977600" lon="-2.8609750">
        <ele>1439.2</ele>
        <time>2022-02-08T10:47:57Z</time>
      </trkpt>
      <trkpt lat="41.8977630" lon="-2.8608920">
        <ele>1438.8</ele>
        <time>2022-02-08T10:47:58Z</time>
      </trkpt>
      <trkpt lat="41.8977730" lon="-2.8608050">
        <ele>1438.5</ele>
        <time>2022-02-08T10:47:59Z</time>
      </trkpt>
      <trkpt lat="41.8977870" lon="-2.8607200">
        <ele>1438.2</ele>
        <time>2022-02-08T10:48:00Z</time>
      </trkpt>
      <trkpt lat="41.8977970" lon="-2.8606320">
        <ele>1437.9</ele>
        <time>2022-02-08T10:48:01Z</time>
      </trkpt>
      <trkpt lat="41.8978050" lon="-2.8605450">
        <ele>1437.8</ele>
        <time>2022-02-08T10:48:02Z</time>
      </trkpt>
      <trkpt lat="41.8978100" lon="-2.8604580">
        <ele>1437.7</ele>
        <time>2022-02-08T10:48:03Z</time>
      </trkpt>
      <trkpt lat="41.8978200" lon="-2.8603780">
        <ele>1437.7</ele>
        <time>2022-02-08T10:48:04Z</time>
      </trkpt>
      <trkpt lat="41.8978300" lon="-2.8603020">
        <ele>1437.7</ele>
        <time>2022-02-08T10:48:05Z</time>
      </trkpt>
      <trkpt lat="41.8978480" lon="-2.8602300">
        <ele>1437.8</ele>
        <time>2022-02-08T10:48:06Z</time>
      </trkpt>
      <trkpt lat="41.8978680" lon="-2.8601670">
        <ele>1438.0</ele>
        <time>2022-02-08T10:48:07Z</time>
      </trkpt>
      <trkpt lat="41.8978970" lon="-2.8601170">
        <ele>1438.2</ele>
        <time>2022-02-08T10:48:08Z</time>
      </trkpt>
      <trkpt lat="41.8979270" lon="-2.8600780">
        <ele>1438.4</ele>
        <time>2022-02-08T10:48:09Z</time>
      </trkpt>
      <trkpt lat="41.8979600" lon="-2.8600400">
        <ele>1438.6</ele>
        <time>2022-02-08T10:48:10Z</time>
      </trkpt>
      <trkpt lat="41.8979880" lon="-2.8600030">
        <ele>1438.8</ele>
        <time>2022-02-08T10:48:11Z</time>
      </trkpt>
      <trkpt lat="41.8980080" lon="-2.8599650">
        <ele>1439.1</ele>
        <time>2022-02-08T10:48:12Z</time>
      </trkpt>
      <trkpt lat="41.8980270" lon="-2.8599300">
        <ele>1439.3</ele>
        <time>2022-02-08T10:48:13Z</time>
      </trkpt>
      <trkpt lat="41.8980320" lon="-2.8598950">
        <ele>1439.6</ele>
        <time>2022-02-08T10:48:14Z</time>
      </trkpt>
      <trkpt lat="41.8980400" lon="-2.8598650">
        <ele>1439.7</ele>
        <time>2022-02-08T10:48:15Z</time>
      </trkpt>
      <trkpt lat="41.8980430" lon="-2.8598370">
        <ele>1439.9</ele>
        <time>2022-02-08T10:48:16Z</time>
      </trkpt>
      <trkpt lat="41.8980500" lon="-2.8598120">
        <ele>1440.1</ele>
        <time>2022-02-08T10:48:17Z</time>
      </trkpt>
      <trkpt lat="41.8980600" lon="-2.8597850">
        <ele>1440.3</ele>
        <time>2022-02-08T10:48:18Z</time>
      </trkpt>
      <trkpt lat="41.8980700" lon="-2.8597600">
        <ele>1440.5</ele>
        <time>2022-02-08T10:48:19Z</time>
      </trkpt>
      <trkpt lat="41.8980770" lon="-2.8597320">
        <ele>1440.8</ele>
        <time>2022-02-08T10:48:20Z</time>
      </trkpt>
      <trkpt lat="41.8980850" lon="-2.8597070">
        <ele>1441.0</ele>
        <time>2022-02-08T10:48:21Z</time>
      </trkpt>
      <trkpt lat="41.8980870" lon="-2.8596830">
        <ele>1441.2</ele>
        <time>2022-02-08T10:48:22Z</time>
      </trkpt>
      <trkpt lat="41.8980880" lon="-2.8596570">
        <ele>1441.4</ele>
        <time>2022-02-08T10:48:23Z</time>
      </trkpt>
      <trkpt lat="41.8980900" lon="-2.8596300">
        <ele>1441.7</ele>
        <time>2022-02-08T10:48:24Z</time>
      </trkpt>
      <trkpt lat="41.8980980" lon="-2.8596050">
        <ele>1441.9</ele>
        <time>2022-02-08T10:48:25Z</time>
      </trkpt>
      <trkpt lat="41.8981080" lon="-2.8595830">
        <ele>1442.1</ele>
        <time>2022-02-08T10:48:26Z</time>
      </trkpt>
      <trkpt lat="41.8981100" lon="-2.8595650">
        <ele>1442.3</ele>
        <time>2022-02-08T10:48:27Z</time>
      </trkpt>
      <trkpt lat="41.8981120" lon="-2.8595430">
        <ele>1442.5</ele>
        <time>2022-02-08T10:48:28Z</time>
      </trkpt>
      <trkpt lat="41.8981070" lon="-2.8595230">
        <ele>1442.6</ele>
        <time>2022-02-08T10:48:29Z</time>
      </trkpt>
      <trkpt lat="41.8980970" lon="-2.8595030">
        <ele>1442.8</ele>
        <time>2022-02-08T10:48:30Z</time>
      </trkpt>
      <trkpt lat="41.8980850" lon="-2.8594820">
        <ele>1443.0</ele>
        <time>2022-02-08T10:48:31Z</time>
      </trkpt>
      <trkpt lat="41.8980770" lon="-2.8594580">
        <ele>1443.1</ele>
        <time>2022-02-08T10:48:32Z</time>
      </trkpt>
      <trkpt lat="41.8980720" lon="-2.8594320">
        <ele>1443.3</ele>
        <time>2022-02-08T10:48:33Z</time>
      </trkpt>
      <trkpt lat="41.8980680" lon="-2.8594050">
        <ele>1443.4</ele>
        <time>2022-02-08T10:48:34Z</time>
      </trkpt>
      <trkpt lat="41.8980600" lon="-2.8593800">
        <ele>1443.5</ele>
        <time>2022-02-08T10:48:35Z</time>
      </trkpt>
      <trkpt lat="41.8980530" lon="-2.8593580">
        <ele>1443.6</ele>
        <time>2022-02-08T10:48:36Z</time>
      </trkpt>
      <trkpt lat="41.8980470" lon="-2.8593350">
        <ele>1443.7</ele>
        <time>2022-02-08T10:48:37Z</time>
      </trkpt>
      <trkpt lat="41.8980430" lon="-2.8593100">
        <ele>1443.8</ele>
        <time>2022-02-08T10:48:38Z</time>
      </trkpt>
      <trkpt lat="41.8980370" lon="-2.8592870">
        <ele>1443.9</ele>
        <time>2022-02-08T10:48:39Z</time>
      </trkpt>
      <trkpt lat="41.8980320" lon="-2.8592580">
        <ele>1444.0</ele>
        <time>2022-02-08T10:48:40Z</time>
      </trkpt>
      <trkpt lat="41.8980280" lon="-2.8592270">
        <ele>1444.2</ele>
        <time>2022-02-08T10:48:41Z</time>
      </trkpt>
      <trkpt lat="41.8980270" lon="-2.8591970">
        <ele>1444.3</ele>
        <time>2022-02-08T10:48:42Z</time>
      </trkpt>
      <trkpt lat="41.8980270" lon="-2.8591670">
        <ele>1444.4</ele>
        <time>2022-02-08T10:48:43Z</time>
      </trkpt>
      <trkpt lat="41.8980330" lon="-2.8591400">
        <ele>1444.5</ele>
        <time>2022-02-08T10:48:44Z</time>
      </trkpt>
      <trkpt lat="41.8980400" lon="-2.8591150">
        <ele>1444.6</ele>
        <time>2022-02-08T10:48:45Z</time>
      </trkpt>
      <trkpt lat="41.8980480" lon="-2.8590880">
        <ele>1444.7</ele>
        <time>2022-02-08T10:48:46Z</time>
      </trkpt>
      <trkpt lat="41.8980600" lon="-2.8590620">
        <ele>1444.8</ele>
        <time>2022-02-08T10:48:47Z</time>
      </trkpt>
      <trkpt lat="41.8980700" lon="-2.8590300">
        <ele>1445.0</ele>
        <time>2022-02-08T10:48:48Z</time>
      </trkpt>
      <trkpt lat="41.8980780" lon="-2.8589980">
        <ele>1445.1</ele>
        <time>2022-02-08T10:48:49Z</time>
      </trkpt>
      <trkpt lat="41.8980800" lon="-2.8589680">
        <ele>1445.2</ele>
        <time>2022-02-08T10:48:50Z</time>
      </trkpt>
      <trkpt lat="41.8980770" lon="-2.8589370">
        <ele>1445.4</ele>
        <time>2022-02-08T10:48:51Z</time>
      </trkpt>
      <trkpt lat="41.8980730" lon="-2.8589070">
        <ele>1445.5</ele>
        <time>2022-02-08T10:48:52Z</time>
      </trkpt>
      <trkpt lat="41.8980720" lon="-2.8588750">
        <ele>1445.7</ele>
        <time>2022-02-08T10:48:53Z</time>
      </trkpt>
      <trkpt lat="41.8980720" lon="-2.8588470">
        <ele>1445.8</ele>
        <time>2022-02-08T10:48:54Z</time>
      </trkpt>
      <trkpt lat="41.8980730" lon="-2.8588130">
        <ele>1446.0</ele>
        <time>2022-02-08T10:48:55Z</time>
      </trkpt>
      <trkpt lat="41.8980770" lon="-2.8587820">
        <ele>1446.1</ele>
        <time>2022-02-08T10:48:56Z</time>
      </trkpt>
      <trkpt lat="41.8980830" lon="-2.8587550">
        <ele>1446.3</ele>
        <time>2022-02-08T10:48:57Z</time>
      </trkpt>
      <trkpt lat="41.8980880" lon="-2.8587230">
        <ele>1446.4</ele>
        <time>2022-02-08T10:48:58Z</time>
      </trkpt>
      <trkpt lat="41.8980930" lon="-2.8586950">
        <ele>1446.5</ele>
        <time>2022-02-08T10:48:59Z</time>
      </trkpt>
      <trkpt lat="41.8980980" lon="-2.8586650">
        <ele>1446.7</ele>
        <time>2022-02-08T10:49:00Z</time>
      </trkpt>
      <trkpt lat="41.8981030" lon="-2.8586380">
        <ele>1446.8</ele>
        <time>2022-02-08T10:49:01Z</time>
      </trkpt>
      <trkpt lat="41.8981120" lon="-2.8586120">
        <ele>1447.0</ele>
        <time>2022-02-08T10:49:02Z</time>
      </trkpt>
      <trkpt lat="41.8981220" lon="-2.8585850">
        <ele>1447.1</ele>
        <time>2022-02-08T10:49:03Z</time>
      </trkpt>
      <trkpt lat="41.8981330" lon="-2.8585600">
        <ele>1447.2</ele>
        <time>2022-02-08T10:49:04Z</time>
      </trkpt>
      <trkpt lat="41.8981430" lon="-2.8585320">
        <ele>1447.4</ele>
        <time>2022-02-08T10:49:05Z</time>
      </trkpt>
      <trkpt lat="41.8981550" lon="-2.8585020">
        <ele>1447.5</ele>
        <time>2022-02-08T10:49:06Z</time>
      </trkpt>
      <trkpt lat="41.8981670" lon="-2.8584700">
        <ele>1447.7</ele>
        <time>2022-02-08T10:49:07Z</time>
      </trkpt>
      <trkpt lat="41.8981820" lon="-2.8584370">
        <ele>1447.9</ele>
        <time>2022-02-08T10:49:08Z</time>
      </trkpt>
      <trkpt lat="41.8981980" lon="-2.8584070">
        <ele>1448.0</ele>
        <time>2022-02-08T10:49:09Z</time>
      </trkpt>
      <trkpt lat="41.8982120" lon="-2.8583750">
        <ele>1448.2</ele>
        <time>2022-02-08T10:49:10Z</time>
      </trkpt>
      <trkpt lat="41.8982220" lon="-2.8583430">
        <ele>1448.4</ele>
        <time>2022-02-08T10:49:11Z</time>
      </trkpt>
      <trkpt lat="41.8982330" lon="-2.8583150">
        <ele>1448.6</ele>
        <time>2022-02-08T10:49:12Z</time>
      </trkpt>
      <trkpt lat="41.8982470" lon="-2.8582870">
        <ele>1448.8</ele>
        <time>2022-02-08T10:49:13Z</time>
      </trkpt>
      <trkpt lat="41.8982600" lon="-2.8582580">
        <ele>1449.0</ele>
        <time>2022-02-08T10:49:14Z</time>
      </trkpt>
      <trkpt lat="41.8982730" lon="-2.8582280">
        <ele>1449.2</ele>
        <time>2022-02-08T10:49:15Z</time>
      </trkpt>
      <trkpt lat="41.8982800" lon="-2.8581950">
        <ele>1449.5</ele>
        <time>2022-02-08T10:49:16Z</time>
      </trkpt>
      <trkpt lat="41.8982850" lon="-2.8581630">
        <ele>1449.7</ele>
        <time>2022-02-08T10:49:17Z</time>
      </trkpt>
      <trkpt lat="41.8982850" lon="-2.8581420">
        <ele>1449.8</ele>
        <time>2022-02-08T10:49:18Z</time>
      </trkpt>
      <trkpt lat="41.8982770" lon="-2.8581120">
        <ele>1450.1</ele>
        <time>2022-02-08T10:49:19Z</time>
      </trkpt>
      <trkpt lat="41.8982630" lon="-2.8580920">
        <ele>1450.3</ele>
        <time>2022-02-08T10:49:20Z</time>
      </trkpt>
      <trkpt lat="41.8982450" lon="-2.8580770">
        <ele>1450.5</ele>
        <time>2022-02-08T10:49:21Z</time>
      </trkpt>
      <trkpt lat="41.8982100" lon="-2.8580730">
        <ele>1450.8</ele>
        <time>2022-02-08T10:49:22Z</time>
      </trkpt>
      <trkpt lat="41.8981830" lon="-2.8580580">
        <ele>1451.1</ele>
        <time>2022-02-08T10:49:23Z</time>
      </trkpt>
      <trkpt lat="41.8981620" lon="-2.8580450">
        <ele>1451.3</ele>
        <time>2022-02-08T10:49:24Z</time>
      </trkpt>
      <trkpt lat="41.8981400" lon="-2.8580250">
        <ele>1451.5</ele>
        <time>2022-02-08T10:49:25Z</time>
      </trkpt>
      <trkpt lat="41.8981180" lon="-2.8580080">
        <ele>1451.7</ele>
        <time>2022-02-08T10:49:26Z</time>
      </trkpt>
      <trkpt lat="41.8981050" lon="-2.8579830">
        <ele>1451.9</ele>
        <time>2022-02-08T10:49:27Z</time>
      </trkpt>
      <trkpt lat="41.8980920" lon="-2.8579550">
        <ele>1452.1</ele>
        <time>2022-02-08T10:49:28Z</time>
      </trkpt>
      <trkpt lat="41.8980750" lon="-2.8579280">
        <ele>1452.2</ele>
        <time>2022-02-08T10:49:29Z</time>
      </trkpt>
      <trkpt lat="41.8980580" lon="-2.8579020">
        <ele>1452.4</ele>
        <time>2022-02-08T10:49:30Z</time>
      </trkpt>
      <trkpt lat="41.8980430" lon="-2.8578750">
        <ele>1452.6</ele>
        <time>2022-02-08T10:49:31Z</time>
      </trkpt>
      <trkpt lat="41.8980320" lon="-2.8578500">
        <ele>1452.7</ele>
        <time>2022-02-08T10:49:32Z</time>
      </trkpt>
      <trkpt lat="41.8980150" lon="-2.8578270">
        <ele>1452.9</ele>
        <time>2022-02-08T10:49:33Z</time>
      </trkpt>
      <trkpt lat="41.8980000" lon="-2.8578050">
        <ele>1453.0</ele>
        <time>2022-02-08T10:49:34Z</time>
      </trkpt>
      <trkpt lat="41.8979850" lon="-2.8577850">
        <ele>1453.1</ele>
        <time>2022-02-08T10:49:35Z</time>
      </trkpt>
      <trkpt lat="41.8979720" lon="-2.8577650">
        <ele>1453.3</ele>
        <time>2022-02-08T10:49:36Z</time>
      </trkpt>
      <trkpt lat="41.8979570" lon="-2.8577430">
        <ele>1453.4</ele>
        <time>2022-02-08T10:49:37Z</time>
      </trkpt>
      <trkpt lat="41.8979420" lon="-2.8577220">
        <ele>1453.5</ele>
        <time>2022-02-08T10:49:38Z</time>
      </trkpt>
      <trkpt lat="41.8979320" lon="-2.8576980">
        <ele>1453.6</ele>
        <time>2022-02-08T10:49:39Z</time>
      </trkpt>
      <trkpt lat="41.8979220" lon="-2.8576750">
        <ele>1453.7</ele>
        <time>2022-02-08T10:49:40Z</time>
      </trkpt>
      <trkpt lat="41.8979170" lon="-2.8576550">
        <ele>1453.8</ele>
        <time>2022-02-08T10:49:41Z</time>
      </trkpt>
      <trkpt lat="41.8979100" lon="-2.8576300">
        <ele>1453.8</ele>
        <time>2022-02-08T10:49:42Z</time>
      </trkpt>
      <trkpt lat="41.8979050" lon="-2.8576030">
        <ele>1453.9</ele>
        <time>2022-02-08T10:49:43Z</time>
      </trkpt>
      <trkpt lat="41.8979000" lon="-2.8575750">
        <ele>1454.0</ele>
        <time>2022-02-08T10:49:44Z</time>
      </trkpt>
      <trkpt lat="41.8978950" lon="-2.8575470">
        <ele>1454.0</ele>
        <time>2022-02-08T10:49:45Z</time>
      </trkpt>
      <trkpt lat="41.8978880" lon="-2.8575150">
        <ele>1454.1</ele>
        <time>2022-02-08T10:49:46Z</time>
      </trkpt>
      <trkpt lat="41.8978780" lon="-2.8574830">
        <ele>1454.1</ele>
        <time>2022-02-08T10:49:47Z</time>
      </trkpt>
      <trkpt lat="41.8978670" lon="-2.8574480">
        <ele>1454.1</ele>
        <time>2022-02-08T10:49:48Z</time>
      </trkpt>
      <trkpt lat="41.8978550" lon="-2.8574150">
        <ele>1454.1</ele>
        <time>2022-02-08T10:49:49Z</time>
      </trkpt>
      <trkpt lat="41.8978430" lon="-2.8573830">
        <ele>1454.2</ele>
        <time>2022-02-08T10:49:50Z</time>
      </trkpt>
      <trkpt lat="41.8978350" lon="-2.8573500">
        <ele>1454.1</ele>
        <time>2022-02-08T10:49:51Z</time>
      </trkpt>
      <trkpt lat="41.8978250" lon="-2.8573130">
        <ele>1454.1</ele>
        <time>2022-02-08T10:49:52Z</time>
      </trkpt>
      <trkpt lat="41.8978150" lon="-2.8572750">
        <ele>1454.1</ele>
        <time>2022-02-08T10:49:53Z</time>
      </trkpt>
      <trkpt lat="41.8978030" lon="-2.8572330">
        <ele>1454.1</ele>
        <time>2022-02-08T10:49:54Z</time>
      </trkpt>
      <trkpt lat="41.8977900" lon="-2.8571900">
        <ele>1454.0</ele>
        <time>2022-02-08T10:49:55Z</time>
      </trkpt>
      <trkpt lat="41.8977730" lon="-2.8571470">
        <ele>1453.9</ele>
        <time>2022-02-08T10:49:56Z</time>
      </trkpt>
      <trkpt lat="41.8977550" lon="-2.8571020">
        <ele>1453.8</ele>
        <time>2022-02-08T10:49:57Z</time>
      </trkpt>
      <trkpt lat="41.8977330" lon="-2.8570530">
        <ele>1453.7</ele>
        <time>2022-02-08T10:49:58Z</time>
      </trkpt>
      <trkpt lat="41.8977080" lon="-2.8570030">
        <ele>1453.6</ele>
        <time>2022-02-08T10:49:59Z</time>
      </trkpt>
      <trkpt lat="41.8976830" lon="-2.8569530">
        <ele>1453.5</ele>
        <time>2022-02-08T10:50:00Z</time>
      </trkpt>
      <trkpt lat="41.8976570" lon="-2.8569050">
        <ele>1453.3</ele>
        <time>2022-02-08T10:50:01Z</time>
      </trkpt>
      <trkpt lat="41.8976300" lon="-2.8568550">
        <ele>1453.2</ele>
        <time>2022-02-08T10:50:02Z</time>
      </trkpt>
      <trkpt lat="41.8976070" lon="-2.8568080">
        <ele>1453.1</ele>
        <time>2022-02-08T10:50:03Z</time>
      </trkpt>
      <trkpt lat="41.8975850" lon="-2.8567600">
        <ele>1453.0</ele>
        <time>2022-02-08T10:50:04Z</time>
      </trkpt>
      <trkpt lat="41.8975600" lon="-2.8567130">
        <ele>1452.8</ele>
        <time>2022-02-08T10:50:05Z</time>
      </trkpt>
      <trkpt lat="41.8975400" lon="-2.8566630">
        <ele>1452.7</ele>
        <time>2022-02-08T10:50:06Z</time>
      </trkpt>
      <trkpt lat="41.8975230" lon="-2.8566100">
        <ele>1452.6</ele>
        <time>2022-02-08T10:50:07Z</time>
      </trkpt>
      <trkpt lat="41.8975080" lon="-2.8565580">
        <ele>1452.4</ele>
        <time>2022-02-08T10:50:08Z</time>
      </trkpt>
      <trkpt lat="41.8974970" lon="-2.8565050">
        <ele>1452.3</ele>
        <time>2022-02-08T10:50:09Z</time>
      </trkpt>
      <trkpt lat="41.8974850" lon="-2.8564550">
        <ele>1452.1</ele>
        <time>2022-02-08T10:50:10Z</time>
      </trkpt>
      <trkpt lat="41.8974720" lon="-2.8563980">
        <ele>1451.9</ele>
        <time>2022-02-08T10:50:11Z</time>
      </trkpt>
      <trkpt lat="41.8974520" lon="-2.8563400">
        <ele>1451.6</ele>
        <time>2022-02-08T10:50:12Z</time>
      </trkpt>
      <trkpt lat="41.8974330" lon="-2.8562780">
        <ele>1451.2</ele>
        <time>2022-02-08T10:50:13Z</time>
      </trkpt>
      <trkpt lat="41.8974120" lon="-2.8562120">
        <ele>1450.8</ele>
        <time>2022-02-08T10:50:14Z</time>
      </trkpt>
      <trkpt lat="41.8973850" lon="-2.8561430">
        <ele>1450.4</ele>
        <time>2022-02-08T10:50:15Z</time>
      </trkpt>
      <trkpt lat="41.8973550" lon="-2.8560680">
        <ele>1449.9</ele>
        <time>2022-02-08T10:50:16Z</time>
      </trkpt>
      <trkpt lat="41.8973270" lon="-2.8559870">
        <ele>1449.4</ele>
        <time>2022-02-08T10:50:17Z</time>
      </trkpt>
      <trkpt lat="41.8972980" lon="-2.8559000">
        <ele>1448.9</ele>
        <time>2022-02-08T10:50:18Z</time>
      </trkpt>
      <trkpt lat="41.8972750" lon="-2.8558100">
        <ele>1448.5</ele>
        <time>2022-02-08T10:50:19Z</time>
      </trkpt>
      <trkpt lat="41.8972550" lon="-2.8557170">
        <ele>1448.2</ele>
        <time>2022-02-08T10:50:20Z</time>
      </trkpt>
      <trkpt lat="41.8972350" lon="-2.8556270">
        <ele>1448.0</ele>
        <time>2022-02-08T10:50:21Z</time>
      </trkpt>
      <trkpt lat="41.8972100" lon="-2.8555420">
        <ele>1447.8</ele>
        <time>2022-02-08T10:50:22Z</time>
      </trkpt>
      <trkpt lat="41.8971780" lon="-2.8554620">
        <ele>1447.6</ele>
        <time>2022-02-08T10:50:23Z</time>
      </trkpt>
      <trkpt lat="41.8971370" lon="-2.8553930">
        <ele>1447.5</ele>
        <time>2022-02-08T10:50:24Z</time>
      </trkpt>
      <trkpt lat="41.8970920" lon="-2.8553280">
        <ele>1447.3</ele>
        <time>2022-02-08T10:50:25Z</time>
      </trkpt>
      <trkpt lat="41.8970430" lon="-2.8552670">
        <ele>1447.2</ele>
        <time>2022-02-08T10:50:26Z</time>
      </trkpt>
      <trkpt lat="41.8969950" lon="-2.8551980">
        <ele>1446.9</ele>
        <time>2022-02-08T10:50:27Z</time>
      </trkpt>
      <trkpt lat="41.8969550" lon="-2.8551300">
        <ele>1446.8</ele>
        <time>2022-02-08T10:50:28Z</time>
      </trkpt>
      <trkpt lat="41.8969200" lon="-2.8550550">
        <ele>1446.6</ele>
        <time>2022-02-08T10:50:29Z</time>
      </trkpt>
      <trkpt lat="41.8968880" lon="-2.8549650">
        <ele>1446.5</ele>
        <time>2022-02-08T10:50:30Z</time>
      </trkpt>
      <trkpt lat="41.8968630" lon="-2.8548750">
        <ele>1446.4</ele>
        <time>2022-02-08T10:50:31Z</time>
      </trkpt>
      <trkpt lat="41.8968420" lon="-2.8547900">
        <ele>1446.4</ele>
        <time>2022-02-08T10:50:32Z</time>
      </trkpt>
      <trkpt lat="41.8968200" lon="-2.8547080">
        <ele>1446.4</ele>
        <time>2022-02-08T10:50:33Z</time>
      </trkpt>
      <trkpt lat="41.8967930" lon="-2.8546300">
        <ele>1446.3</ele>
        <time>2022-02-08T10:50:34Z</time>
      </trkpt>
      <trkpt lat="41.8967750" lon="-2.8545550">
        <ele>1446.3</ele>
        <time>2022-02-08T10:50:35Z</time>
      </trkpt>
      <trkpt lat="41.8967720" lon="-2.8544850">
        <ele>1446.3</ele>
        <time>2022-02-08T10:50:36Z</time>
      </trkpt>
      <trkpt lat="41.8967720" lon="-2.8544150">
        <ele>1446.2</ele>
        <time>2022-02-08T10:50:37Z</time>
      </trkpt>
      <trkpt lat="41.8967670" lon="-2.8543470">
        <ele>1446.1</ele>
        <time>2022-02-08T10:50:38Z</time>
      </trkpt>
      <trkpt lat="41.8967480" lon="-2.8542900">
        <ele>1445.9</ele>
        <time>2022-02-08T10:50:39Z</time>
      </trkpt>
      <trkpt lat="41.8967320" lon="-2.8542300">
        <ele>1445.8</ele>
        <time>2022-02-08T10:50:40Z</time>
      </trkpt>
      <trkpt lat="41.8967170" lon="-2.8541650">
        <ele>1445.6</ele>
        <time>2022-02-08T10:50:41Z</time>
      </trkpt>
      <trkpt lat="41.8967070" lon="-2.8540930">
        <ele>1445.4</ele>
        <time>2022-02-08T10:50:42Z</time>
      </trkpt>
      <trkpt lat="41.8967030" lon="-2.8540270">
        <ele>1445.3</ele>
        <time>2022-02-08T10:50:43Z</time>
      </trkpt>
      <trkpt lat="41.8966930" lon="-2.8539600">
        <ele>1445.0</ele>
        <time>2022-02-08T10:50:44Z</time>
      </trkpt>
      <trkpt lat="41.8966770" lon="-2.8538950">
        <ele>1444.7</ele>
        <time>2022-02-08T10:50:45Z</time>
      </trkpt>
      <trkpt lat="41.8966530" lon="-2.8538300">
        <ele>1444.4</ele>
        <time>2022-02-08T10:50:46Z</time>
      </trkpt>
      <trkpt lat="41.8966300" lon="-2.8537570">
        <ele>1444.1</ele>
        <time>2022-02-08T10:50:47Z</time>
      </trkpt>
      <trkpt lat="41.8966120" lon="-2.8536780">
        <ele>1443.8</ele>
        <time>2022-02-08T10:50:48Z</time>
      </trkpt>
      <trkpt lat="41.8966050" lon="-2.8535950">
        <ele>1443.4</ele>
        <time>2022-02-08T10:50:49Z</time>
      </trkpt>
      <trkpt lat="41.8966020" lon="-2.8535100">
        <ele>1443.1</ele>
        <time>2022-02-08T10:50:50Z</time>
      </trkpt>
      <trkpt lat="41.8965920" lon="-2.8534250">
        <ele>1442.7</ele>
        <time>2022-02-08T10:50:51Z</time>
      </trkpt>
      <trkpt lat="41.8965780" lon="-2.8533400">
        <ele>1442.3</ele>
        <time>2022-02-08T10:50:52Z</time>
      </trkpt>
      <trkpt lat="41.8965680" lon="-2.8532530">
        <ele>1441.9</ele>
        <time>2022-02-08T10:50:53Z</time>
      </trkpt>
      <trkpt lat="41.8965630" lon="-2.8531650">
        <ele>1441.5</ele>
        <time>2022-02-08T10:50:54Z</time>
      </trkpt>
      <trkpt lat="41.8965570" lon="-2.8530700">
        <ele>1441.1</ele>
        <time>2022-02-08T10:50:55Z</time>
      </trkpt>
      <trkpt lat="41.8965570" lon="-2.8529780">
        <ele>1440.8</ele>
        <time>2022-02-08T10:50:56Z</time>
      </trkpt>
      <trkpt lat="41.8965530" lon="-2.8528870">
        <ele>1440.4</ele>
        <time>2022-02-08T10:50:57Z</time>
      </trkpt>
      <trkpt lat="41.8965520" lon="-2.8527920">
        <ele>1440.1</ele>
        <time>2022-02-08T10:50:58Z</time>
      </trkpt>
      <trkpt lat="41.8965470" lon="-2.8526970">
        <ele>1439.7</ele>
        <time>2022-02-08T10:50:59Z</time>
      </trkpt>
      <trkpt lat="41.8965320" lon="-2.8526080">
        <ele>1439.3</ele>
        <time>2022-02-08T10:51:00Z</time>
      </trkpt>
      <trkpt lat="41.8965130" lon="-2.8525200">
        <ele>1439.0</ele>
        <time>2022-02-08T10:51:01Z</time>
      </trkpt>
      <trkpt lat="41.8964920" lon="-2.8524350">
        <ele>1438.7</ele>
        <time>2022-02-08T10:51:02Z</time>
      </trkpt>
      <trkpt lat="41.8964820" lon="-2.8523480">
        <ele>1438.5</ele>
        <time>2022-02-08T10:51:03Z</time>
      </trkpt>
      <trkpt lat="41.8964750" lon="-2.8522650">
        <ele>1438.3</ele>
        <time>2022-02-08T10:51:04Z</time>
      </trkpt>
      <trkpt lat="41.8964780" lon="-2.8521830">
        <ele>1438.2</ele>
        <time>2022-02-08T10:51:05Z</time>
      </trkpt>
      <trkpt lat="41.8964870" lon="-2.8521020">
        <ele>1438.1</ele>
        <time>2022-02-08T10:51:06Z</time>
      </trkpt>
      <trkpt lat="41.8965020" lon="-2.8520250">
        <ele>1438.0</ele>
        <time>2022-02-08T10:51:07Z</time>
      </trkpt>
      <trkpt lat="41.8965170" lon="-2.8519520">
        <ele>1438.0</ele>
        <time>2022-02-08T10:51:08Z</time>
      </trkpt>
      <trkpt lat="41.8965230" lon="-2.8518730">
        <ele>1437.9</ele>
        <time>2022-02-08T10:51:09Z</time>
      </trkpt>
      <trkpt lat="41.8965330" lon="-2.8517970">
        <ele>1437.9</ele>
        <time>2022-02-08T10:51:10Z</time>
      </trkpt>
      <trkpt lat="41.8965450" lon="-2.8517200">
        <ele>1437.9</ele>
        <time>2022-02-08T10:51:11Z</time>
      </trkpt>
      <trkpt lat="41.8965520" lon="-2.8516400">
        <ele>1437.9</ele>
        <time>2022-02-08T10:51:12Z</time>
      </trkpt>
      <trkpt lat="41.8965620" lon="-2.8515600">
        <ele>1437.9</ele>
        <time>2022-02-08T10:51:13Z</time>
      </trkpt>
      <trkpt lat="41.8965630" lon="-2.8514780">
        <ele>1437.9</ele>
        <time>2022-02-08T10:51:14Z</time>
      </trkpt>
      <trkpt lat="41.8965700" lon="-2.8513970">
        <ele>1437.9</ele>
        <time>2022-02-08T10:51:15Z</time>
      </trkpt>
      <trkpt lat="41.8965780" lon="-2.8513120">
        <ele>1437.9</ele>
        <time>2022-02-08T10:51:16Z</time>
      </trkpt>
      <trkpt lat="41.8965920" lon="-2.8512320">
        <ele>1437.9</ele>
        <time>2022-02-08T10:51:17Z</time>
      </trkpt>
      <trkpt lat="41.8966130" lon="-2.8511530">
        <ele>1438.0</ele>
        <time>2022-02-08T10:51:18Z</time>
      </trkpt>
      <trkpt lat="41.8966300" lon="-2.8510770">
        <ele>1438.1</ele>
        <time>2022-02-08T10:51:19Z</time>
      </trkpt>
      <trkpt lat="41.8966450" lon="-2.8510030">
        <ele>1438.2</ele>
        <time>2022-02-08T10:51:20Z</time>
      </trkpt>
      <trkpt lat="41.8966600" lon="-2.8509380">
        <ele>1438.3</ele>
        <time>2022-02-08T10:51:21Z</time>
      </trkpt>
      <trkpt lat="41.8966680" lon="-2.8508750">
        <ele>1438.3</ele>
        <time>2022-02-08T10:51:22Z</time>
      </trkpt>
      <trkpt lat="41.8966720" lon="-2.8508100">
        <ele>1438.3</ele>
        <time>2022-02-08T10:51:23Z</time>
      </trkpt>
      <trkpt lat="41.8966720" lon="-2.8507520">
        <ele>1438.2</ele>
        <time>2022-02-08T10:51:24Z</time>
      </trkpt>
      <trkpt lat="41.8966700" lon="-2.8506930">
        <ele>1438.1</ele>
        <time>2022-02-08T10:51:25Z</time>
      </trkpt>
      <trkpt lat="41.8966580" lon="-2.8506270">
        <ele>1438.0</ele>
        <time>2022-02-08T10:51:26Z</time>
      </trkpt>
      <trkpt lat="41.8966520" lon="-2.8505520">
        <ele>1437.9</ele>
        <time>2022-02-08T10:51:27Z</time>
      </trkpt>
      <trkpt lat="41.8966420" lon="-2.8504700">
        <ele>1437.8</ele>
        <time>2022-02-08T10:51:28Z</time>
      </trkpt>
      <trkpt lat="41.8966280" lon="-2.8503930">
        <ele>1437.7</ele>
        <time>2022-02-08T10:51:29Z</time>
      </trkpt>
      <trkpt lat="41.8966230" lon="-2.8503200">
        <ele>1437.6</ele>
        <time>2022-02-08T10:51:30Z</time>
      </trkpt>
      <trkpt lat="41.8966230" lon="-2.8502470">
        <ele>1437.7</ele>
        <time>2022-02-08T10:51:31Z</time>
      </trkpt>
      <trkpt lat="41.8966230" lon="-2.8501670">
        <ele>1437.7</ele>
        <time>2022-02-08T10:51:32Z</time>
      </trkpt>
      <trkpt lat="41.8966220" lon="-2.8500870">
        <ele>1437.8</ele>
        <time>2022-02-08T10:51:33Z</time>
      </trkpt>
      <trkpt lat="41.8966250" lon="-2.8500150">
        <ele>1438.0</ele>
        <time>2022-02-08T10:51:34Z</time>
      </trkpt>
      <trkpt lat="41.8966330" lon="-2.8499570">
        <ele>1438.2</ele>
        <time>2022-02-08T10:51:35Z</time>
      </trkpt>
      <trkpt lat="41.8966480" lon="-2.8498930">
        <ele>1438.4</ele>
        <time>2022-02-08T10:51:36Z</time>
      </trkpt>
      <trkpt lat="41.8966680" lon="-2.8498380">
        <ele>1438.7</ele>
        <time>2022-02-08T10:51:37Z</time>
      </trkpt>
      <trkpt lat="41.8966970" lon="-2.8497880">
        <ele>1439.0</ele>
        <time>2022-02-08T10:51:38Z</time>
      </trkpt>
      <trkpt lat="41.8967270" lon="-2.8497450">
        <ele>1439.3</ele>
        <time>2022-02-08T10:51:39Z</time>
      </trkpt>
      <trkpt lat="41.8967570" lon="-2.8497030">
        <ele>1439.7</ele>
        <time>2022-02-08T10:51:40Z</time>
      </trkpt>
      <trkpt lat="41.8967880" lon="-2.8496620">
        <ele>1440.0</ele>
        <time>2022-02-08T10:51:41Z</time>
      </trkpt>
      <trkpt lat="41.8968120" lon="-2.8496280">
        <ele>1440.3</ele>
        <time>2022-02-08T10:51:42Z</time>
      </trkpt>
      <trkpt lat="41.8968370" lon="-2.8495980">
        <ele>1440.5</ele>
        <time>2022-02-08T10:51:43Z</time>
      </trkpt>
      <trkpt lat="41.8968600" lon="-2.8495720">
        <ele>1440.7</ele>
        <time>2022-02-08T10:51:44Z</time>
      </trkpt>
      <trkpt lat="41.8968880" lon="-2.8495430">
        <ele>1440.9</ele>
        <time>2022-02-08T10:51:45Z</time>
      </trkpt>
      <trkpt lat="41.8969150" lon="-2.8495200">
        <ele>1441.0</ele>
        <time>2022-02-08T10:51:46Z</time>
      </trkpt>
      <trkpt lat="41.8969470" lon="-2.8494930">
        <ele>1441.2</ele>
        <time>2022-02-08T10:51:47Z</time>
      </trkpt>
      <trkpt lat="41.8969650" lon="-2.8494680">
        <ele>1441.3</ele>
        <time>2022-02-08T10:51:48Z</time>
      </trkpt>
      <trkpt lat="41.8969820" lon="-2.8494450">
        <ele>1441.3</ele>
        <time>2022-02-08T10:51:49Z</time>
      </trkpt>
      <trkpt lat="41.8969930" lon="-2.8494200">
        <ele>1441.3</ele>
        <time>2022-02-08T10:51:50Z</time>
      </trkpt>
      <trkpt lat="41.8970000" lon="-2.8493930">
        <ele>1441.3</ele>
        <time>2022-02-08T10:51:51Z</time>
      </trkpt>
      <trkpt lat="41.8969970" lon="-2.8493630">
        <ele>1441.2</ele>
        <time>2022-02-08T10:51:52Z</time>
      </trkpt>
      <trkpt lat="41.8969900" lon="-2.8493300">
        <ele>1441.2</ele>
        <time>2022-02-08T10:51:53Z</time>
      </trkpt>
      <trkpt lat="41.8969730" lon="-2.8493020">
        <ele>1441.1</ele>
        <time>2022-02-08T10:51:54Z</time>
      </trkpt>
      <trkpt lat="41.8969520" lon="-2.8492700">
        <ele>1441.0</ele>
        <time>2022-02-08T10:51:55Z</time>
      </trkpt>
      <trkpt lat="41.8969280" lon="-2.8492270">
        <ele>1440.8</ele>
        <time>2022-02-08T10:51:56Z</time>
      </trkpt>
      <trkpt lat="41.8969030" lon="-2.8491850">
        <ele>1440.5</ele>
        <time>2022-02-08T10:51:57Z</time>
      </trkpt>
      <trkpt lat="41.8968880" lon="-2.8491380">
        <ele>1440.2</ele>
        <time>2022-02-08T10:51:58Z</time>
      </trkpt>
      <trkpt lat="41.8968780" lon="-2.8490770">
        <ele>1439.9</ele>
        <time>2022-02-08T10:51:59Z</time>
      </trkpt>
      <trkpt lat="41.8968630" lon="-2.8489820">
        <ele>1439.3</ele>
        <time>2022-02-08T10:52:00Z</time>
      </trkpt>
      <trkpt lat="41.8968500" lon="-2.8489020">
        <ele>1438.8</ele>
        <time>2022-02-08T10:52:01Z</time>
      </trkpt>
      <trkpt lat="41.8968250" lon="-2.8488270">
        <ele>1438.3</ele>
        <time>2022-02-08T10:52:02Z</time>
      </trkpt>
      <trkpt lat="41.8968000" lon="-2.8487520">
        <ele>1437.9</ele>
        <time>2022-02-08T10:52:03Z</time>
      </trkpt>
      <trkpt lat="41.8967750" lon="-2.8486880">
        <ele>1437.5</ele>
        <time>2022-02-08T10:52:04Z</time>
      </trkpt>
      <trkpt lat="41.8967580" lon="-2.8486120">
        <ele>1437.1</ele>
        <time>2022-02-08T10:52:05Z</time>
      </trkpt>
      <trkpt lat="41.8967350" lon="-2.8485250">
        <ele>1436.7</ele>
        <time>2022-02-08T10:52:06Z</time>
      </trkpt>
      <trkpt lat="41.8967200" lon="-2.8484430">
        <ele>1436.3</ele>
        <time>2022-02-08T10:52:07Z</time>
      </trkpt>
      <trkpt lat="41.8966980" lon="-2.8483520">
        <ele>1435.8</ele>
        <time>2022-02-08T10:52:08Z</time>
      </trkpt>
      <trkpt lat="41.8966680" lon="-2.8482730">
        <ele>1435.3</ele>
        <time>2022-02-08T10:52:09Z</time>
      </trkpt>
      <trkpt lat="41.8966320" lon="-2.8481980">
        <ele>1434.9</ele>
        <time>2022-02-08T10:52:10Z</time>
      </trkpt>
      <trkpt lat="41.8965870" lon="-2.8481280">
        <ele>1434.5</ele>
        <time>2022-02-08T10:52:11Z</time>
      </trkpt>
      <trkpt lat="41.8965350" lon="-2.8480620">
        <ele>1434.2</ele>
        <time>2022-02-08T10:52:12Z</time>
      </trkpt>
      <trkpt lat="41.8964820" lon="-2.8480000">
        <ele>1433.8</ele>
        <time>2022-02-08T10:52:13Z</time>
      </trkpt>
      <trkpt lat="41.8964170" lon="-2.8479500">
        <ele>1433.5</ele>
        <time>2022-02-08T10:52:14Z</time>
      </trkpt>
      <trkpt lat="41.8963330" lon="-2.8479070">
        <ele>1433.0</ele>
        <time>2022-02-08T10:52:15Z</time>
      </trkpt>
      <trkpt lat="41.8962620" lon="-2.8478670">
        <ele>1432.7</ele>
        <time>2022-02-08T10:52:16Z</time>
      </trkpt>
      <trkpt lat="41.8961920" lon="-2.8478350">
        <ele>1432.3</ele>
        <time>2022-02-08T10:52:17Z</time>
      </trkpt>
      <trkpt lat="41.8961280" lon="-2.8478070">
        <ele>1432.0</ele>
        <time>2022-02-08T10:52:18Z</time>
      </trkpt>
      <trkpt lat="41.8960720" lon="-2.8477820">
        <ele>1431.7</ele>
        <time>2022-02-08T10:52:19Z</time>
      </trkpt>
      <trkpt lat="41.8960280" lon="-2.8477530">
        <ele>1431.4</ele>
        <time>2022-02-08T10:52:20Z</time>
      </trkpt>
      <trkpt lat="41.8959830" lon="-2.8477180">
        <ele>1431.2</ele>
        <time>2022-02-08T10:52:21Z</time>
      </trkpt>
      <trkpt lat="41.8959330" lon="-2.8476770">
        <ele>1430.9</ele>
        <time>2022-02-08T10:52:22Z</time>
      </trkpt>
      <trkpt lat="41.8958850" lon="-2.8476280">
        <ele>1430.6</ele>
        <time>2022-02-08T10:52:23Z</time>
      </trkpt>
      <trkpt lat="41.8958380" lon="-2.8475900">
        <ele>1430.3</ele>
        <time>2022-02-08T10:52:24Z</time>
      </trkpt>
      <trkpt lat="41.8957830" lon="-2.8475420">
        <ele>1430.0</ele>
        <time>2022-02-08T10:52:25Z</time>
      </trkpt>
      <trkpt lat="41.8957280" lon="-2.8474820">
        <ele>1429.6</ele>
        <time>2022-02-08T10:52:26Z</time>
      </trkpt>
      <trkpt lat="41.8956500" lon="-2.8474050">
        <ele>1429.2</ele>
        <time>2022-02-08T10:52:27Z</time>
      </trkpt>
      <trkpt lat="41.8956030" lon="-2.8473300">
        <ele>1428.8</ele>
        <time>2022-02-08T10:52:28Z</time>
      </trkpt>
      <trkpt lat="41.8955720" lon="-2.8472600">
        <ele>1428.5</ele>
        <time>2022-02-08T10:52:29Z</time>
      </trkpt>
      <trkpt lat="41.8955480" lon="-2.8471830">
        <ele>1428.2</ele>
        <time>2022-02-08T10:52:30Z</time>
      </trkpt>
      <trkpt lat="41.8955270" lon="-2.8470980">
        <ele>1427.9</ele>
        <time>2022-02-08T10:52:31Z</time>
      </trkpt>
      <trkpt lat="41.8954870" lon="-2.8470300">
        <ele>1427.7</ele>
        <time>2022-02-08T10:52:32Z</time>
      </trkpt>
      <trkpt lat="41.8954420" lon="-2.8469650">
        <ele>1427.4</ele>
        <time>2022-02-08T10:52:33Z</time>
      </trkpt>
      <trkpt lat="41.8954100" lon="-2.8468980">
        <ele>1427.2</ele>
        <time>2022-02-08T10:52:34Z</time>
      </trkpt>
      <trkpt lat="41.8953720" lon="-2.8468450">
        <ele>1427.0</ele>
        <time>2022-02-08T10:52:35Z</time>
      </trkpt>
      <trkpt lat="41.8953300" lon="-2.8467920">
        <ele>1426.8</ele>
        <time>2022-02-08T10:52:36Z</time>
      </trkpt>
      <trkpt lat="41.8952720" lon="-2.8467380">
        <ele>1426.7</ele>
        <time>2022-02-08T10:52:37Z</time>
      </trkpt>
      <trkpt lat="41.8952270" lon="-2.8466800">
        <ele>1426.5</ele>
        <time>2022-02-08T10:52:38Z</time>
      </trkpt>
      <trkpt lat="41.8951830" lon="-2.8466120">
        <ele>1426.4</ele>
        <time>2022-02-08T10:52:39Z</time>
      </trkpt>
      <trkpt lat="41.8951480" lon="-2.8465520">
        <ele>1426.2</ele>
        <time>2022-02-08T10:52:40Z</time>
      </trkpt>
      <trkpt lat="41.8951250" lon="-2.8464780">
        <ele>1426.1</ele>
        <time>2022-02-08T10:52:41Z</time>
      </trkpt>
      <trkpt lat="41.8950930" lon="-2.8464070">
        <ele>1426.0</ele>
        <time>2022-02-08T10:52:42Z</time>
      </trkpt>
      <trkpt lat="41.8950630" lon="-2.8463250">
        <ele>1425.8</ele>
        <time>2022-02-08T10:52:43Z</time>
      </trkpt>
      <trkpt lat="41.8950580" lon="-2.8462400">
        <ele>1425.7</ele>
        <time>2022-02-08T10:52:44Z</time>
      </trkpt>
      <trkpt lat="41.8950450" lon="-2.8461650">
        <ele>1425.5</ele>
        <time>2022-02-08T10:52:45Z</time>
      </trkpt>
      <trkpt lat="41.8950720" lon="-2.8460580">
        <ele>1425.2</ele>
        <time>2022-02-08T10:52:46Z</time>
      </trkpt>
      <trkpt lat="41.8950730" lon="-2.8459830">
        <ele>1424.9</ele>
        <time>2022-02-08T10:52:47Z</time>
      </trkpt>
      <trkpt lat="41.8950720" lon="-2.8459050">
        <ele>1424.6</ele>
        <time>2022-02-08T10:52:48Z</time>
      </trkpt>
      <trkpt lat="41.8950650" lon="-2.8458200">
        <ele>1424.3</ele>
        <time>2022-02-08T10:52:49Z</time>
      </trkpt>
      <trkpt lat="41.8950520" lon="-2.8457300">
        <ele>1423.9</ele>
        <time>2022-02-08T10:52:50Z</time>
      </trkpt>
      <trkpt lat="41.8950400" lon="-2.8456420">
        <ele>1423.5</ele>
        <time>2022-02-08T10:52:51Z</time>
      </trkpt>
      <trkpt lat="41.8950380" lon="-2.8455470">
        <ele>1423.1</ele>
        <time>2022-02-08T10:52:52Z</time>
      </trkpt>
      <trkpt lat="41.8950380" lon="-2.8454430">
        <ele>1422.6</ele>
        <time>2022-02-08T10:52:53Z</time>
      </trkpt>
      <trkpt lat="41.8950350" lon="-2.8453380">
        <ele>1422.0</ele>
        <time>2022-02-08T10:52:54Z</time>
      </trkpt>
      <trkpt lat="41.8950300" lon="-2.8452330">
        <ele>1421.4</ele>
        <time>2022-02-08T10:52:55Z</time>
      </trkpt>
      <trkpt lat="41.8950300" lon="-2.8451270">
        <ele>1420.8</ele>
        <time>2022-02-08T10:52:56Z</time>
      </trkpt>
      <trkpt lat="41.8950380" lon="-2.8450250">
        <ele>1420.2</ele>
        <time>2022-02-08T10:52:57Z</time>
      </trkpt>
      <trkpt lat="41.8950420" lon="-2.8449230">
        <ele>1419.6</ele>
        <time>2022-02-08T10:52:58Z</time>
      </trkpt>
      <trkpt lat="41.8950450" lon="-2.8448280">
        <ele>1419.0</ele>
        <time>2022-02-08T10:52:59Z</time>
      </trkpt>
      <trkpt lat="41.8950500" lon="-2.8447330">
        <ele>1418.4</ele>
        <time>2022-02-08T10:53:00Z</time>
      </trkpt>
      <trkpt lat="41.8950480" lon="-2.8446430">
        <ele>1417.8</ele>
        <time>2022-02-08T10:53:01Z</time>
      </trkpt>
      <trkpt lat="41.8950330" lon="-2.8445570">
        <ele>1417.2</ele>
        <time>2022-02-08T10:53:02Z</time>
      </trkpt>
      <trkpt lat="41.8950080" lon="-2.8444730">
        <ele>1416.6</ele>
        <time>2022-02-08T10:53:03Z</time>
      </trkpt>
      <trkpt lat="41.8949830" lon="-2.8443880">
        <ele>1415.9</ele>
        <time>2022-02-08T10:53:04Z</time>
      </trkpt>
      <trkpt lat="41.8949580" lon="-2.8443050">
        <ele>1415.3</ele>
        <time>2022-02-08T10:53:05Z</time>
      </trkpt>
      <trkpt lat="41.8949380" lon="-2.8442230">
        <ele>1414.7</ele>
        <time>2022-02-08T10:53:06Z</time>
      </trkpt>
      <trkpt lat="41.8949150" lon="-2.8441480">
        <ele>1414.2</ele>
        <time>2022-02-08T10:53:07Z</time>
      </trkpt>
      <trkpt lat="41.8948900" lon="-2.8440700">
        <ele>1413.6</ele>
        <time>2022-02-08T10:53:08Z</time>
      </trkpt>
      <trkpt lat="41.8948630" lon="-2.8439850">
        <ele>1413.0</ele>
        <time>2022-02-08T10:53:09Z</time>
      </trkpt>
      <trkpt lat="41.8948420" lon="-2.8439000">
        <ele>1412.3</ele>
        <time>2022-02-08T10:53:10Z</time>
      </trkpt>
      <trkpt lat="41.8948220" lon="-2.8438130">
        <ele>1411.6</ele>
        <time>2022-02-08T10:53:11Z</time>
      </trkpt>
      <trkpt lat="41.8947970" lon="-2.8437320">
        <ele>1410.7</ele>
        <time>2022-02-08T10:53:12Z</time>
      </trkpt>
      <trkpt lat="41.8947700" lon="-2.8436520">
        <ele>1409.9</ele>
        <time>2022-02-08T10:53:13Z</time>
      </trkpt>
      <trkpt lat="41.8947430" lon="-2.8435780">
        <ele>1409.1</ele>
        <time>2022-02-08T10:53:14Z</time>
      </trkpt>
      <trkpt lat="41.8947230" lon="-2.8435050">
        <ele>1408.3</ele>
        <time>2022-02-08T10:53:15Z</time>
      </trkpt>
      <trkpt lat="41.8947100" lon="-2.8434280">
        <ele>1407.6</ele>
        <time>2022-02-08T10:53:16Z</time>
      </trkpt>
      <trkpt lat="41.8946980" lon="-2.8433420">
        <ele>1406.8</ele>
        <time>2022-02-08T10:53:17Z</time>
      </trkpt>
      <trkpt lat="41.8946830" lon="-2.8432500">
        <ele>1406.1</ele>
        <time>2022-02-08T10:53:18Z</time>
      </trkpt>
      <trkpt lat="41.8946680" lon="-2.8431620">
        <ele>1405.5</ele>
        <time>2022-02-08T10:53:19Z</time>
      </trkpt>
      <trkpt lat="41.8946630" lon="-2.8430620">
        <ele>1404.9</ele>
        <time>2022-02-08T10:53:20Z</time>
      </trkpt>
      <trkpt lat="41.8946620" lon="-2.8429550">
        <ele>1404.4</ele>
        <time>2022-02-08T10:53:21Z</time>
      </trkpt>
      <trkpt lat="41.8946600" lon="-2.8428430">
        <ele>1403.8</ele>
        <time>2022-02-08T10:53:22Z</time>
      </trkpt>
      <trkpt lat="41.8946670" lon="-2.8427320">
        <ele>1403.2</ele>
        <time>2022-02-08T10:53:23Z</time>
      </trkpt>
      <trkpt lat="41.8946780" lon="-2.8426270">
        <ele>1402.6</ele>
        <time>2022-02-08T10:53:24Z</time>
      </trkpt>
      <trkpt lat="41.8946930" lon="-2.8425380">
        <ele>1402.1</ele>
        <time>2022-02-08T10:53:25Z</time>
      </trkpt>
      <trkpt lat="41.8947120" lon="-2.8424670">
        <ele>1401.7</ele>
        <time>2022-02-08T10:53:26Z</time>
      </trkpt>
      <trkpt lat="41.8947420" lon="-2.8424050">
        <ele>1401.3</ele>
        <time>2022-02-08T10:53:27Z</time>
      </trkpt>
      <trkpt lat="41.8947630" lon="-2.8423320">
        <ele>1400.9</ele>
        <time>2022-02-08T10:53:28Z</time>
      </trkpt>
      <trkpt lat="41.8947830" lon="-2.8422550">
        <ele>1400.5</ele>
        <time>2022-02-08T10:53:29Z</time>
      </trkpt>
      <trkpt lat="41.8948050" lon="-2.8421650">
        <ele>1400.1</ele>
        <time>2022-02-08T10:53:30Z</time>
      </trkpt>
      <trkpt lat="41.8948300" lon="-2.8420720">
        <ele>1399.6</ele>
        <time>2022-02-08T10:53:31Z</time>
      </trkpt>
      <trkpt lat="41.8948430" lon="-2.8419880">
        <ele>1399.2</ele>
        <time>2022-02-08T10:53:32Z</time>
      </trkpt>
      <trkpt lat="41.8948530" lon="-2.8419020">
        <ele>1398.7</ele>
        <time>2022-02-08T10:53:33Z</time>
      </trkpt>
      <trkpt lat="41.8948600" lon="-2.8418100">
        <ele>1398.1</ele>
        <time>2022-02-08T10:53:34Z</time>
      </trkpt>
      <trkpt lat="41.8948620" lon="-2.8417150">
        <ele>1397.4</ele>
        <time>2022-02-08T10:53:35Z</time>
      </trkpt>
      <trkpt lat="41.8948650" lon="-2.8416170">
        <ele>1396.7</ele>
        <time>2022-02-08T10:53:36Z</time>
      </trkpt>
      <trkpt lat="41.8948720" lon="-2.8415230">
        <ele>1395.9</ele>
        <time>2022-02-08T10:53:37Z</time>
      </trkpt>
      <trkpt lat="41.8948870" lon="-2.8414230">
        <ele>1395.0</ele>
        <time>2022-02-08T10:53:38Z</time>
      </trkpt>
      <trkpt lat="41.8948970" lon="-2.8413270">
        <ele>1394.0</ele>
        <time>2022-02-08T10:53:39Z</time>
      </trkpt>
      <trkpt lat="41.8949170" lon="-2.8412400">
        <ele>1392.9</ele>
        <time>2022-02-08T10:53:40Z</time>
      </trkpt>
      <trkpt lat="41.8949370" lon="-2.8411570">
        <ele>1391.9</ele>
        <time>2022-02-08T10:53:41Z</time>
      </trkpt>
      <trkpt lat="41.8949550" lon="-2.8410630">
        <ele>1390.8</ele>
        <time>2022-02-08T10:53:42Z</time>
      </trkpt>
      <trkpt lat="41.8949620" lon="-2.8409620">
        <ele>1389.7</ele>
        <time>2022-02-08T10:53:43Z</time>
      </trkpt>
      <trkpt lat="41.8949580" lon="-2.8408600">
        <ele>1388.8</ele>
        <time>2022-02-08T10:53:44Z</time>
      </trkpt>
      <trkpt lat="41.8949570" lon="-2.8407480">
        <ele>1387.9</ele>
        <time>2022-02-08T10:53:45Z</time>
      </trkpt>
      <trkpt lat="41.8949530" lon="-2.8406350">
        <ele>1387.0</ele>
        <time>2022-02-08T10:53:46Z</time>
      </trkpt>
      <trkpt lat="41.8949420" lon="-2.8405220">
        <ele>1386.1</ele>
        <time>2022-02-08T10:53:47Z</time>
      </trkpt>
      <trkpt lat="41.8949270" lon="-2.8404150">
        <ele>1385.2</ele>
        <time>2022-02-08T10:53:48Z</time>
      </trkpt>
      <trkpt lat="41.8949130" lon="-2.8403130">
        <ele>1384.5</ele>
        <time>2022-02-08T10:53:49Z</time>
      </trkpt>
      <trkpt lat="41.8948930" lon="-2.8402150">
        <ele>1383.9</ele>
        <time>2022-02-08T10:53:50Z</time>
      </trkpt>
      <trkpt lat="41.8948680" lon="-2.8401200">
        <ele>1383.2</ele>
        <time>2022-02-08T10:53:51Z</time>
      </trkpt>
      <trkpt lat="41.8948430" lon="-2.8400280">
        <ele>1382.7</ele>
        <time>2022-02-08T10:53:52Z</time>
      </trkpt>
      <trkpt lat="41.8948270" lon="-2.8399380">
        <ele>1382.1</ele>
        <time>2022-02-08T10:53:53Z</time>
      </trkpt>
      <trkpt lat="41.8948150" lon="-2.8398520">
        <ele>1381.6</ele>
        <time>2022-02-08T10:53:54Z</time>
      </trkpt>
      <trkpt lat="41.8948180" lon="-2.8397720">
        <ele>1381.1</ele>
        <time>2022-02-08T10:53:55Z</time>
      </trkpt>
      <trkpt lat="41.8948320" lon="-2.8396900">
        <ele>1380.7</ele>
        <time>2022-02-08T10:53:56Z</time>
      </trkpt>
      <trkpt lat="41.8948420" lon="-2.8396080">
        <ele>1380.3</ele>
        <time>2022-02-08T10:53:57Z</time>
      </trkpt>
      <trkpt lat="41.8948470" lon="-2.8395280">
        <ele>1379.9</ele>
        <time>2022-02-08T10:53:58Z</time>
      </trkpt>
      <trkpt lat="41.8948500" lon="-2.8394530">
        <ele>1379.6</ele>
        <time>2022-02-08T10:53:59Z</time>
      </trkpt>
      <trkpt lat="41.8948450" lon="-2.8393770">
        <ele>1379.3</ele>
        <time>2022-02-08T10:54:00Z</time>
      </trkpt>
      <trkpt lat="41.8948350" lon="-2.8392950">
        <ele>1379.0</ele>
        <time>2022-02-08T10:54:01Z</time>
      </trkpt>
      <trkpt lat="41.8948250" lon="-2.8392120">
        <ele>1378.6</ele>
        <time>2022-02-08T10:54:02Z</time>
      </trkpt>
      <trkpt lat="41.8948130" lon="-2.8391230">
        <ele>1378.3</ele>
        <time>2022-02-08T10:54:03Z</time>
      </trkpt>
      <trkpt lat="41.8948050" lon="-2.8390350">
        <ele>1377.9</ele>
        <time>2022-02-08T10:54:04Z</time>
      </trkpt>
      <trkpt lat="41.8947950" lon="-2.8389470">
        <ele>1377.5</ele>
        <time>2022-02-08T10:54:05Z</time>
      </trkpt>
      <trkpt lat="41.8947880" lon="-2.8388570">
        <ele>1377.1</ele>
        <time>2022-02-08T10:54:06Z</time>
      </trkpt>
      <trkpt lat="41.8947850" lon="-2.8387720">
        <ele>1376.7</ele>
        <time>2022-02-08T10:54:07Z</time>
      </trkpt>
      <trkpt lat="41.8947880" lon="-2.8386950">
        <ele>1376.4</ele>
        <time>2022-02-08T10:54:08Z</time>
      </trkpt>
      <trkpt lat="41.8947850" lon="-2.8386170">
        <ele>1376.0</ele>
        <time>2022-02-08T10:54:09Z</time>
      </trkpt>
      <trkpt lat="41.8947720" lon="-2.8385370">
        <ele>1375.5</ele>
        <time>2022-02-08T10:54:10Z</time>
      </trkpt>
      <trkpt lat="41.8947470" lon="-2.8384580">
        <ele>1375.0</ele>
        <time>2022-02-08T10:54:11Z</time>
      </trkpt>
      <trkpt lat="41.8947180" lon="-2.8383850">
        <ele>1374.4</ele>
        <time>2022-02-08T10:54:12Z</time>
      </trkpt>
      <trkpt lat="41.8946850" lon="-2.8383100">
        <ele>1373.9</ele>
        <time>2022-02-08T10:54:13Z</time>
      </trkpt>
      <trkpt lat="41.8946450" lon="-2.8382300">
        <ele>1373.3</ele>
        <time>2022-02-08T10:54:14Z</time>
      </trkpt>
      <trkpt lat="41.8945970" lon="-2.8381600">
        <ele>1372.7</ele>
        <time>2022-02-08T10:54:15Z</time>
      </trkpt>
      <trkpt lat="41.8945470" lon="-2.8380900">
        <ele>1372.1</ele>
        <time>2022-02-08T10:54:16Z</time>
      </trkpt>
      <trkpt lat="41.8945020" lon="-2.8380130">
        <ele>1371.5</ele>
        <time>2022-02-08T10:54:17Z</time>
      </trkpt>
      <trkpt lat="41.8944620" lon="-2.8379380">
        <ele>1370.9</ele>
        <time>2022-02-08T10:54:18Z</time>
      </trkpt>
      <trkpt lat="41.8944280" lon="-2.8378520">
        <ele>1370.3</ele>
        <time>2022-02-08T10:54:19Z</time>
      </trkpt>
      <trkpt lat="41.8944020" lon="-2.8377670">
        <ele>1369.7</ele>
        <time>2022-02-08T10:54:20Z</time>
      </trkpt>
      <trkpt lat="41.8943770" lon="-2.8376820">
        <ele>1369.1</ele>
        <time>2022-02-08T10:54:21Z</time>
      </trkpt>
      <trkpt lat="41.8943570" lon="-2.8376000">
        <ele>1368.7</ele>
        <time>2022-02-08T10:54:22Z</time>
      </trkpt>
      <trkpt lat="41.8943330" lon="-2.8375230">
        <ele>1368.3</ele>
        <time>2022-02-08T10:54:23Z</time>
      </trkpt>
      <trkpt lat="41.8942970" lon="-2.8374570">
        <ele>1368.0</ele>
        <time>2022-02-08T10:54:24Z</time>
      </trkpt>
      <trkpt lat="41.8942570" lon="-2.8373980">
        <ele>1367.7</ele>
        <time>2022-02-08T10:54:25Z</time>
      </trkpt>
      <trkpt lat="41.8942120" lon="-2.8373350">
        <ele>1367.4</ele>
        <time>2022-02-08T10:54:26Z</time>
      </trkpt>
      <trkpt lat="41.8941730" lon="-2.8372730">
        <ele>1367.1</ele>
        <time>2022-02-08T10:54:27Z</time>
      </trkpt>
      <trkpt lat="41.8941470" lon="-2.8372080">
        <ele>1366.8</ele>
        <time>2022-02-08T10:54:28Z</time>
      </trkpt>
      <trkpt lat="41.8941230" lon="-2.8371400">
        <ele>1366.6</ele>
        <time>2022-02-08T10:54:29Z</time>
      </trkpt>
      <trkpt lat="41.8941080" lon="-2.8370700">
        <ele>1366.4</ele>
        <time>2022-02-08T10:54:30Z</time>
      </trkpt>
      <trkpt lat="41.8940930" lon="-2.8369980">
        <ele>1366.2</ele>
        <time>2022-02-08T10:54:31Z</time>
      </trkpt>
      <trkpt lat="41.8940750" lon="-2.8369300">
        <ele>1366.0</ele>
        <time>2022-02-08T10:54:32Z</time>
      </trkpt>
      <trkpt lat="41.8940620" lon="-2.8368650">
        <ele>1365.8</ele>
        <time>2022-02-08T10:54:33Z</time>
      </trkpt>
      <trkpt lat="41.8940480" lon="-2.8367980">
        <ele>1365.7</ele>
        <time>2022-02-08T10:54:34Z</time>
      </trkpt>
      <trkpt lat="41.8940250" lon="-2.8367280">
        <ele>1365.6</ele>
        <time>2022-02-08T10:54:35Z</time>
      </trkpt>
      <trkpt lat="41.8940030" lon="-2.8366600">
        <ele>1365.4</ele>
        <time>2022-02-08T10:54:36Z</time>
      </trkpt>
      <trkpt lat="41.8939780" lon="-2.8365980">
        <ele>1365.3</ele>
        <time>2022-02-08T10:54:37Z</time>
      </trkpt>
      <trkpt lat="41.8939570" lon="-2.8365480">
        <ele>1365.1</ele>
        <time>2022-02-08T10:54:38Z</time>
      </trkpt>
      <trkpt lat="41.8939250" lon="-2.8364950">
        <ele>1365.0</ele>
        <time>2022-02-08T10:54:39Z</time>
      </trkpt>
      <trkpt lat="41.8938750" lon="-2.8364520">
        <ele>1364.7</ele>
        <time>2022-02-08T10:54:40Z</time>
      </trkpt>
      <trkpt lat="41.8938280" lon="-2.8364300">
        <ele>1364.5</ele>
        <time>2022-02-08T10:54:41Z</time>
      </trkpt>
      <trkpt lat="41.8937780" lon="-2.8364120">
        <ele>1364.3</ele>
        <time>2022-02-08T10:54:42Z</time>
      </trkpt>
      <trkpt lat="41.8937330" lon="-2.8363850">
        <ele>1364.1</ele>
        <time>2022-02-08T10:54:43Z</time>
      </trkpt>
      <trkpt lat="41.8936970" lon="-2.8363420">
        <ele>1363.9</ele>
        <time>2022-02-08T10:54:44Z</time>
      </trkpt>
      <trkpt lat="41.8936720" lon="-2.8362800">
        <ele>1363.5</ele>
        <time>2022-02-08T10:54:45Z</time>
      </trkpt>
      <trkpt lat="41.8936570" lon="-2.8361980">
        <ele>1363.1</ele>
        <time>2022-02-08T10:54:46Z</time>
      </trkpt>
      <trkpt lat="41.8936430" lon="-2.8361200">
        <ele>1362.7</ele>
        <time>2022-02-08T10:54:47Z</time>
      </trkpt>
      <trkpt lat="41.8936230" lon="-2.8360330">
        <ele>1362.1</ele>
        <time>2022-02-08T10:54:48Z</time>
      </trkpt>
      <trkpt lat="41.8936000" lon="-2.8359600">
        <ele>1361.5</ele>
        <time>2022-02-08T10:54:49Z</time>
      </trkpt>
      <trkpt lat="41.8935820" lon="-2.8358880">
        <ele>1360.9</ele>
        <time>2022-02-08T10:54:50Z</time>
      </trkpt>
      <trkpt lat="41.8935800" lon="-2.8358280">
        <ele>1360.4</ele>
        <time>2022-02-08T10:54:51Z</time>
      </trkpt>
      <trkpt lat="41.8935850" lon="-2.8357700">
        <ele>1359.8</ele>
        <time>2022-02-08T10:54:52Z</time>
      </trkpt>
      <trkpt lat="41.8935780" lon="-2.8357080">
        <ele>1359.2</ele>
        <time>2022-02-08T10:54:53Z</time>
      </trkpt>
      <trkpt lat="41.8935530" lon="-2.8356430">
        <ele>1358.4</ele>
        <time>2022-02-08T10:54:54Z</time>
      </trkpt>
      <trkpt lat="41.8935170" lon="-2.8355820">
        <ele>1357.5</ele>
        <time>2022-02-08T10:54:55Z</time>
      </trkpt>
      <trkpt lat="41.8934770" lon="-2.8355180">
        <ele>1356.4</ele>
        <time>2022-02-08T10:54:56Z</time>
      </trkpt>
      <trkpt lat="41.8934320" lon="-2.8354530">
        <ele>1355.3</ele>
        <time>2022-02-08T10:54:57Z</time>
      </trkpt>
      <trkpt lat="41.8933880" lon="-2.8353870">
        <ele>1354.2</ele>
        <time>2022-02-08T10:54:58Z</time>
      </trkpt>
      <trkpt lat="41.8933380" lon="-2.8353280">
        <ele>1353.2</ele>
        <time>2022-02-08T10:54:59Z</time>
      </trkpt>
      <trkpt lat="41.8932820" lon="-2.8352770">
        <ele>1352.1</ele>
        <time>2022-02-08T10:55:00Z</time>
      </trkpt>
      <trkpt lat="41.8932200" lon="-2.8352320">
        <ele>1351.1</ele>
        <time>2022-02-08T10:55:01Z</time>
      </trkpt>
      <trkpt lat="41.8931570" lon="-2.8351970">
        <ele>1350.1</ele>
        <time>2022-02-08T10:55:02Z</time>
      </trkpt>
      <trkpt lat="41.8930930" lon="-2.8351750">
        <ele>1349.3</ele>
        <time>2022-02-08T10:55:03Z</time>
      </trkpt>
      <trkpt lat="41.8930320" lon="-2.8351650">
        <ele>1348.4</ele>
        <time>2022-02-08T10:55:04Z</time>
      </trkpt>
      <trkpt lat="41.8929730" lon="-2.8351870">
        <ele>1347.6</ele>
        <time>2022-02-08T10:55:05Z</time>
      </trkpt>
      <trkpt lat="41.8929220" lon="-2.8352150">
        <ele>1346.8</ele>
        <time>2022-02-08T10:55:06Z</time>
      </trkpt>
      <trkpt lat="41.8928720" lon="-2.8352670">
        <ele>1345.8</ele>
        <time>2022-02-08T10:55:07Z</time>
      </trkpt>
      <trkpt lat="41.8928170" lon="-2.8353150">
        <ele>1345.0</ele>
        <time>2022-02-08T10:55:08Z</time>
      </trkpt>
      <trkpt lat="41.8927570" lon="-2.8353450">
        <ele>1344.2</ele>
        <time>2022-02-08T10:55:09Z</time>
      </trkpt>
      <trkpt lat="41.8926920" lon="-2.8353570">
        <ele>1343.5</ele>
        <time>2022-02-08T10:55:10Z</time>
      </trkpt>
      <trkpt lat="41.8926220" lon="-2.8353580">
        <ele>1342.8</ele>
        <time>2022-02-08T10:55:11Z</time>
      </trkpt>
      <trkpt lat="41.8925570" lon="-2.8353630">
        <ele>1342.1</ele>
        <time>2022-02-08T10:55:12Z</time>
      </trkpt>
      <trkpt lat="41.8925000" lon="-2.8353820">
        <ele>1341.5</ele>
        <time>2022-02-08T10:55:13Z</time>
      </trkpt>
      <trkpt lat="41.8924550" lon="-2.8354130">
        <ele>1341.0</ele>
        <time>2022-02-08T10:55:14Z</time>
      </trkpt>
      <trkpt lat="41.8924080" lon="-2.8354480">
        <ele>1340.3</ele>
        <time>2022-02-08T10:55:15Z</time>
      </trkpt>
      <trkpt lat="41.8923530" lon="-2.8354680">
        <ele>1339.6</ele>
        <time>2022-02-08T10:55:16Z</time>
      </trkpt>
      <trkpt lat="41.8922970" lon="-2.8354720">
        <ele>1339.0</ele>
        <time>2022-02-08T10:55:17Z</time>
      </trkpt>
      <trkpt lat="41.8922350" lon="-2.8354530">
        <ele>1338.2</ele>
        <time>2022-02-08T10:55:18Z</time>
      </trkpt>
      <trkpt lat="41.8921770" lon="-2.8354330">
        <ele>1337.7</ele>
        <time>2022-02-08T10:55:19Z</time>
      </trkpt>
      <trkpt lat="41.8921180" lon="-2.8353970">
        <ele>1337.1</ele>
        <time>2022-02-08T10:55:20Z</time>
      </trkpt>
      <trkpt lat="41.8920650" lon="-2.8353530">
        <ele>1336.6</ele>
        <time>2022-02-08T10:55:21Z</time>
      </trkpt>
      <trkpt lat="41.8920100" lon="-2.8353050">
        <ele>1336.1</ele>
        <time>2022-02-08T10:55:22Z</time>
      </trkpt>
      <trkpt lat="41.8919600" lon="-2.8352450">
        <ele>1335.7</ele>
        <time>2022-02-08T10:55:23Z</time>
      </trkpt>
      <trkpt lat="41.8919130" lon="-2.8351680">
        <ele>1335.3</ele>
        <time>2022-02-08T10:55:24Z</time>
      </trkpt>
      <trkpt lat="41.8918670" lon="-2.8350970">
        <ele>1334.8</ele>
        <time>2022-02-08T10:55:25Z</time>
      </trkpt>
      <trkpt lat="41.8918300" lon="-2.8350370">
        <ele>1334.4</ele>
        <time>2022-02-08T10:55:26Z</time>
      </trkpt>
      <trkpt lat="41.8917800" lon="-2.8349980">
        <ele>1334.0</ele>
        <time>2022-02-08T10:55:27Z</time>
      </trkpt>
      <trkpt lat="41.8917200" lon="-2.8349730">
        <ele>1333.5</ele>
        <time>2022-02-08T10:55:28Z</time>
      </trkpt>
      <trkpt lat="41.8916680" lon="-2.8349520">
        <ele>1333.1</ele>
        <time>2022-02-08T10:55:29Z</time>
      </trkpt>
      <trkpt lat="41.8916130" lon="-2.8349280">
        <ele>1332.6</ele>
        <time>2022-02-08T10:55:30Z</time>
      </trkpt>
      <trkpt lat="41.8915630" lon="-2.8348920">
        <ele>1332.3</ele>
        <time>2022-02-08T10:55:31Z</time>
      </trkpt>
      <trkpt lat="41.8915170" lon="-2.8348480">
        <ele>1331.9</ele>
        <time>2022-02-08T10:55:32Z</time>
      </trkpt>
      <trkpt lat="41.8914780" lon="-2.8348030">
        <ele>1331.6</ele>
        <time>2022-02-08T10:55:33Z</time>
      </trkpt>
      <trkpt lat="41.8914380" lon="-2.8347530">
        <ele>1331.4</ele>
        <time>2022-02-08T10:55:34Z</time>
      </trkpt>
      <trkpt lat="41.8914030" lon="-2.8347070">
        <ele>1331.2</ele>
        <time>2022-02-08T10:55:35Z</time>
      </trkpt>
      <trkpt lat="41.8913750" lon="-2.8346650">
        <ele>1331.1</ele>
        <time>2022-02-08T10:55:36Z</time>
      </trkpt>
      <trkpt lat="41.8913470" lon="-2.8346270">
        <ele>1331.0</ele>
        <time>2022-02-08T10:55:37Z</time>
      </trkpt>
      <trkpt lat="41.8913280" lon="-2.8345970">
        <ele>1330.9</ele>
        <time>2022-02-08T10:55:38Z</time>
      </trkpt>
      <trkpt lat="41.8913150" lon="-2.8345770">
        <ele>1330.9</ele>
        <time>2022-02-08T10:55:39Z</time>
      </trkpt>
      <trkpt lat="41.8913100" lon="-2.8345650">
        <ele>1330.9</ele>
        <time>2022-02-08T10:55:40Z</time>
      </trkpt>
      <trkpt lat="41.8913130" lon="-2.8345550">
        <ele>1330.8</ele>
        <time>2022-02-08T10:55:41Z</time>
      </trkpt>
      <trkpt lat="41.8913130" lon="-2.8345470">
        <ele>1330.8</ele>
        <time>2022-02-08T10:55:42Z</time>
      </trkpt>
      <trkpt lat="41.8913150" lon="-2.8345430">
        <ele>1330.8</ele>
        <time>2022-02-08T10:55:43Z</time>
      </trkpt>
      <trkpt lat="41.8913150" lon="-2.8345430">
        <ele>1330.8</ele>
        <time>2022-02-08T10:55:44Z</time>
      </trkpt>
      <trkpt lat="41.8913070" lon="-2.8345430">
        <ele>1330.8</ele>
        <time>2022-02-08T10:55:45Z</time>
      </trkpt>
      <trkpt lat="41.8913020" lon="-2.8345470">
        <ele>1330.8</ele>
        <time>2022-02-08T10:55:46Z</time>
      </trkpt>
      <trkpt lat="41.8913050" lon="-2.8345420">
        <ele>1330.8</ele>
        <time>2022-02-08T10:55:47Z</time>
      </trkpt>
      <trkpt lat="41.8913030" lon="-2.8345400">
        <ele>1330.8</ele>
        <time>2022-02-08T10:55:48Z</time>
      </trkpt>
      <trkpt lat="41.8913030" lon="-2.8345300">
        <ele>1330.7</ele>
        <time>2022-02-08T10:55:49Z</time>
      </trkpt>
      <trkpt lat="41.8913030" lon="-2.8345270">
        <ele>1330.7</ele>
        <time>2022-02-08T10:55:50Z</time>
      </trkpt>
      <trkpt lat="41.8912950" lon="-2.8345180">
        <ele>1330.7</ele>
        <time>2022-02-08T10:55:51Z</time>
      </trkpt>
      <trkpt lat="41.8912900" lon="-2.8345120">
        <ele>1330.7</ele>
        <time>2022-02-08T10:55:52Z</time>
      </trkpt>
      <trkpt lat="41.8912900" lon="-2.8345030">
        <ele>1330.7</ele>
        <time>2022-02-08T10:55:53Z</time>
      </trkpt>
      <trkpt lat="41.8912870" lon="-2.8344950">
        <ele>1330.7</ele>
        <time>2022-02-08T10:55:54Z</time>
      </trkpt>
      <trkpt lat="41.8912800" lon="-2.8344900">
        <ele>1330.6</ele>
        <time>2022-02-08T10:55:55Z</time>
      </trkpt>
      <trkpt lat="41.8912700" lon="-2.8344830">
        <ele>1330.7</ele>
        <time>2022-02-08T10:55:56Z</time>
      </trkpt>
      <trkpt lat="41.8912620" lon="-2.8344730">
        <ele>1330.7</ele>
        <time>2022-02-08T10:55:57Z</time>
      </trkpt>
      <trkpt lat="41.8912550" lon="-2.8344620">
        <ele>1330.7</ele>
        <time>2022-02-08T10:55:58Z</time>
      </trkpt>
      <trkpt lat="41.8912500" lon="-2.8344500">
        <ele>1330.7</ele>
        <time>2022-02-08T10:55:59Z</time>
      </trkpt>
      <trkpt lat="41.8912520" lon="-2.8344330">
        <ele>1330.7</ele>
        <time>2022-02-08T10:56:00Z</time>
      </trkpt>
      <trkpt lat="41.8912570" lon="-2.8344150">
        <ele>1330.8</ele>
        <time>2022-02-08T10:56:01Z</time>
      </trkpt>
      <trkpt lat="41.8912670" lon="-2.8343970">
        <ele>1330.8</ele>
        <time>2022-02-08T10:56:02Z</time>
      </trkpt>
      <trkpt lat="41.8912770" lon="-2.8343800">
        <ele>1330.8</ele>
        <time>2022-02-08T10:56:03Z</time>
      </trkpt>
      <trkpt lat="41.8913000" lon="-2.8343620">
        <ele>1330.8</ele>
        <time>2022-02-08T10:56:04Z</time>
      </trkpt>
      <trkpt lat="41.8913170" lon="-2.8343280">
        <ele>1330.9</ele>
        <time>2022-02-08T10:56:05Z</time>
      </trkpt>
      <trkpt lat="41.8913350" lon="-2.8342950">
        <ele>1330.9</ele>
        <time>2022-02-08T10:56:06Z</time>
      </trkpt>
      <trkpt lat="41.8913530" lon="-2.8342620">
        <ele>1330.9</ele>
        <time>2022-02-08T10:56:07Z</time>
      </trkpt>
      <trkpt lat="41.8913680" lon="-2.8342250">
        <ele>1330.9</ele>
        <time>2022-02-08T10:56:08Z</time>
      </trkpt>
      <trkpt lat="41.8913850" lon="-2.8341920">
        <ele>1331.0</ele>
        <time>2022-02-08T10:56:09Z</time>
      </trkpt>
      <trkpt lat="41.8914050" lon="-2.8341580">
        <ele>1331.0</ele>
        <time>2022-02-08T10:56:10Z</time>
      </trkpt>
      <trkpt lat="41.8914250" lon="-2.8341230">
        <ele>1331.0</ele>
        <time>2022-02-08T10:56:11Z</time>
      </trkpt>
      <trkpt lat="41.8914450" lon="-2.8340900">
        <ele>1331.1</ele>
        <time>2022-02-08T10:56:12Z</time>
      </trkpt>
      <trkpt lat="41.8914550" lon="-2.8340650">
        <ele>1331.0</ele>
        <time>2022-02-08T10:56:13Z</time>
      </trkpt>
      <trkpt lat="41.8914700" lon="-2.8340450">
        <ele>1331.0</ele>
        <time>2022-02-08T10:56:14Z</time>
      </trkpt>
      <trkpt lat="41.8914880" lon="-2.8340220">
        <ele>1331.0</ele>
        <time>2022-02-08T10:56:15Z</time>
      </trkpt>
      <trkpt lat="41.8915000" lon="-2.8339970">
        <ele>1331.0</ele>
        <time>2022-02-08T10:56:16Z</time>
      </trkpt>
      <trkpt lat="41.8915100" lon="-2.8339780">
        <ele>1331.0</ele>
        <time>2022-02-08T10:56:17Z</time>
      </trkpt>
      <trkpt lat="41.8915110" lon="-2.8339590">
        <ele>1331.0</ele>
        <time>2022-02-08T10:56:18Z</time>
      </trkpt>
      <trkpt lat="41.8915100" lon="-2.8339610">
        <ele>1331.0</ele>
        <time>2022-02-08T10:56:19Z</time>
      </trkpt>
      <trkpt lat="41.8915090" lon="-2.8339630">
        <ele>1331.0</ele>
        <time>2022-02-08T10:56:20Z</time>
      </trkpt>
      <trkpt lat="41.8915080" lon="-2.8339650">
        <ele>1331.0</ele>
        <time>2022-02-08T10:56:21Z</time>
      </trkpt>
      <trkpt lat="41.8915070" lon="-2.8339670">
        <ele>1331.0</ele>
        <time>2022-02-08T10:56:22Z</time>
      </trkpt>
      <trkpt lat="41.8915060" lon="-2.8339690">
        <ele>1331.0</ele>
        <time>2022-02-08T10:56:23Z</time>
      </trkpt>
      <trkpt lat="41.8915050" lon="-2.8339710">
        <ele>1331.0</ele>
        <time>2022-02-08T10:56:24Z</time>
      </trkpt>
      <trkpt lat="41.8915040" lon="-2.8339730">
        <ele>1331.0</ele>
        <time>2022-02-08T10:56:25Z</time>
      </trkpt>
      <trkpt lat="41.8915030" lon="-2.8339750">
        <ele>1331.0</ele>
        <time>2022-02-08T10:56:26Z</time>
      </trkpt>
      <trkpt lat="41.8915020" lon="-2.8339770">
        <ele>1331.0</ele>
        <time>2022-02-08T10:56:27Z</time>
      </trkpt>
      <trkpt lat="41.8915010" lon="-2.8339790">
        <ele>1331.0</ele>
        <time>2022-02-08T10:56:28Z</time>
      </trkpt>
      <trkpt lat="41.8915000" lon="-2.8339810">
        <ele>1331.0</ele>
        <time>2022-02-08T10:56:29Z</time>
      </trkpt>
      <trkpt lat="41.8914990" lon="-2.8339830">
        <ele>1331.0</ele>
        <time>2022-02-08T10:56:30Z</time>
      </trkpt>
      <trkpt lat="41.8914980" lon="-2.8339850">
        <ele>1331.0</ele>
        <time>2022-02-08T10:56:31Z</time>
      </trkpt>
      <trkpt lat="41.8914970" lon="-2.8339870">
        <ele>1330.9</ele>
        <time>2022-02-08T10:56:32Z</time>
      </trkpt>
      <trkpt lat="41.8914960" lon="-2.8339890">
        <ele>1330.9</ele>
        <time>2022-02-08T10:56:33Z</time>
      </trkpt>
      <trkpt lat="41.8914950" lon="-2.8339910">
        <ele>1330.9</ele>
        <time>2022-02-08T10:56:34Z</time>
      </trkpt>
      <trkpt lat="41.8914940" lon="-2.8339930">
        <ele>1330.9</ele>
        <time>2022-02-08T10:56:35Z</time>
      </trkpt>
      <trkpt lat="41.8914930" lon="-2.8339950">
        <ele>1330.9</ele>
        <time>2022-02-08T10:56:36Z</time>
      </trkpt>
      <trkpt lat="41.8914930" lon="-2.8339970">
        <ele>1330.9</ele>
        <time>2022-02-08T10:56:37Z</time>
      </trkpt>
      <trkpt lat="41.8914920" lon="-2.8339990">
        <ele>1330.9</ele>
        <time>2022-02-08T10:56:38Z</time>
      </trkpt>
      <trkpt lat="41.8914910" lon="-2.8340010">
        <ele>1330.9</ele>
        <time>2022-02-08T10:56:39Z</time>
      </trkpt>
      <trkpt lat="41.8914900" lon="-2.8340030">
        <ele>1330.9</ele>
        <time>2022-02-08T10:56:40Z</time>
      </trkpt>
      <trkpt lat="41.8914890" lon="-2.8340050">
        <ele>1330.9</ele>
        <time>2022-02-08T10:56:41Z</time>
      </trkpt>
      <trkpt lat="41.8914880" lon="-2.8340070">
        <ele>1330.9</ele>
        <time>2022-02-08T10:56:42Z</time>
      </trkpt>
      <trkpt lat="41.8914870" lon="-2.8340090">
        <ele>1330.9</ele>
        <time>2022-02-08T10:56:43Z</time>
      </trkpt>
      <trkpt lat="41.8914860" lon="-2.8340110">
        <ele>1330.9</ele>
        <time>2022-02-08T10:56:44Z</time>
      </trkpt>
      <trkpt lat="41.8914850" lon="-2.8340130">
        <ele>1330.9</ele>
        <time>2022-02-08T10:56:45Z</time>
      </trkpt>
      <trkpt lat="41.8914840" lon="-2.8340150">
        <ele>1330.9</ele>
        <time>2022-02-08T10:56:46Z</time>
      </trkpt>
      <trkpt lat="41.8914830" lon="-2.8340170">
        <ele>1330.9</ele>
        <time>2022-02-08T10:56:47Z</time>
      </trkpt>
      <trkpt lat="41.8914820" lon="-2.8340190">
        <ele>1330.9</ele>
        <time>2022-02-08T10:56:48Z</time>
      </trkpt>
      <trkpt lat="41.8914810" lon="-2.8340210">
        <ele>1330.9</ele>
        <time>2022-02-08T10:56:49Z</time>
      </trkpt>
      <trkpt lat="41.8914800" lon="-2.8340230">
        <ele>1330.9</ele>
        <time>2022-02-08T10:56:50Z</time>
      </trkpt>
      <trkpt lat="41.8914790" lon="-2.8340250">
        <ele>1330.9</ele>
        <time>2022-02-08T10:56:51Z</time>
      </trkpt>
      <trkpt lat="41.8914780" lon="-2.8340270">
        <ele>1330.9</ele>
        <time>2022-02-08T10:56:52Z</time>
      </trkpt>
      <trkpt lat="41.8914770" lon="-2.8340290">
        <ele>1330.9</ele>
        <time>2022-02-08T10:56:53Z</time>
      </trkpt>
      <trkpt lat="41.8914760" lon="-2.8340310">
        <ele>1330.9</ele>
        <time>2022-02-08T10:56:54Z</time>
      </trkpt>
      <trkpt lat="41.8914750" lon="-2.8340330">
        <ele>1330.9</ele>
        <time>2022-02-08T10:56:55Z</time>
      </trkpt>
      <trkpt lat="41.8914740" lon="-2.8340350">
        <ele>1330.9</ele>
        <time>2022-02-08T10:56:56Z</time>
      </trkpt>
      <trkpt lat="41.8914730" lon="-2.8340380">
        <ele>1330.9</ele>
        <time>2022-02-08T10:56:57Z</time>
      </trkpt>
      <trkpt lat="41.8914720" lon="-2.8340400">
        <ele>1330.9</ele>
        <time>2022-02-08T10:56:58Z</time>
      </trkpt>
      <trkpt lat="41.8914710" lon="-2.8340420">
        <ele>1330.9</ele>
        <time>2022-02-08T10:56:59Z</time>
      </trkpt>
      <trkpt lat="41.8914700" lon="-2.8340440">
        <ele>1330.9</ele>
        <time>2022-02-08T10:57:00Z</time>
      </trkpt>
      <trkpt lat="41.8914700" lon="-2.8340460">
        <ele>1330.9</ele>
        <time>2022-02-08T10:57:01Z</time>
      </trkpt>
      <trkpt lat="41.8914690" lon="-2.8340480">
        <ele>1330.9</ele>
        <time>2022-02-08T10:57:02Z</time>
      </trkpt>
      <trkpt lat="41.8914680" lon="-2.8340500">
        <ele>1330.9</ele>
        <time>2022-02-08T10:57:03Z</time>
      </trkpt>
      <trkpt lat="41.8914670" lon="-2.8340520">
        <ele>1330.9</ele>
        <time>2022-02-08T10:57:04Z</time>
      </trkpt>
      <trkpt lat="41.8914660" lon="-2.8340540">
        <ele>1330.9</ele>
        <time>2022-02-08T10:57:05Z</time>
      </trkpt>
      <trkpt lat="41.8914650" lon="-2.8340560">
        <ele>1330.9</ele>
        <time>2022-02-08T10:57:06Z</time>
      </trkpt>
      <trkpt lat="41.8914640" lon="-2.8340580">
        <ele>1330.9</ele>
        <time>2022-02-08T10:57:07Z</time>
      </trkpt>
      <trkpt lat="41.8914630" lon="-2.8340600">
        <ele>1330.9</ele>
        <time>2022-02-08T10:57:08Z</time>
      </trkpt>
      <trkpt lat="41.8914620" lon="-2.8340620">
        <ele>1330.9</ele>
        <time>2022-02-08T10:57:09Z</time>
      </trkpt>
      <trkpt lat="41.8914610" lon="-2.8340640">
        <ele>1330.9</ele>
        <time>2022-02-08T10:57:10Z</time>
      </trkpt>
      <trkpt lat="41.8914600" lon="-2.8340660">
        <ele>1330.9</ele>
        <time>2022-02-08T10:57:11Z</time>
      </trkpt>
      <trkpt lat="41.8914590" lon="-2.8340680">
        <ele>1330.9</ele>
        <time>2022-02-08T10:57:12Z</time>
      </trkpt>
      <trkpt lat="41.8914580" lon="-2.8340700">
        <ele>1330.9</ele>
        <time>2022-02-08T10:57:13Z</time>
      </trkpt>
      <trkpt lat="41.8914570" lon="-2.8340720">
        <ele>1330.9</ele>
        <time>2022-02-08T10:57:14Z</time>
      </trkpt>
      <trkpt lat="41.8914560" lon="-2.8340740">
        <ele>1330.9</ele>
        <time>2022-02-08T10:57:15Z</time>
      </trkpt>
      <trkpt lat="41.8914550" lon="-2.8340760">
        <ele>1330.9</ele>
        <time>2022-02-08T10:57:16Z</time>
      </trkpt>
      <trkpt lat="41.8914540" lon="-2.8340780">
        <ele>1330.9</ele>
        <time>2022-02-08T10:57:17Z</time>
      </trkpt>
      <trkpt lat="41.8914530" lon="-2.8340800">
        <ele>1330.9</ele>
        <time>2022-02-08T10:57:18Z</time>
      </trkpt>
      <trkpt lat="41.8914520" lon="-2.8340820">
        <ele>1330.9</ele>
        <time>2022-02-08T10:57:19Z</time>
      </trkpt>
      <trkpt lat="41.8914510" lon="-2.8340840">
        <ele>1330.9</ele>
        <time>2022-02-08T10:57:20Z</time>
      </trkpt>
      <trkpt lat="41.8914500" lon="-2.8340860">
        <ele>1330.9</ele>
        <time>2022-02-08T10:57:21Z</time>
      </trkpt>
      <trkpt lat="41.8914490" lon="-2.8340880">
        <ele>1330.9</ele>
        <time>2022-02-08T10:57:22Z</time>
      </trkpt>
      <trkpt lat="41.8914480" lon="-2.8340900">
        <ele>1330.9</ele>
        <time>2022-02-08T10:57:23Z</time>
      </trkpt>
      <trkpt lat="41.8914470" lon="-2.8340920">
        <ele>1330.9</ele>
        <time>2022-02-08T10:57:24Z</time>
      </trkpt>
      <trkpt lat="41.8914470" lon="-2.8340940">
        <ele>1330.9</ele>
        <time>2022-02-08T10:57:25Z</time>
      </trkpt>
      <trkpt lat="41.8914460" lon="-2.8340960">
        <ele>1330.9</ele>
        <time>2022-02-08T10:57:26Z</time>
      </trkpt>
      <trkpt lat="41.8914450" lon="-2.8340980">
        <ele>1330.9</ele>
        <time>2022-02-08T10:57:27Z</time>
      </trkpt>
      <trkpt lat="41.8914440" lon="-2.8341000">
        <ele>1330.9</ele>
        <time>2022-02-08T10:57:28Z</time>
      </trkpt>
      <trkpt lat="41.8914430" lon="-2.8341020">
        <ele>1330.9</ele>
        <time>2022-02-08T10:57:29Z</time>
      </trkpt>
      <trkpt lat="41.8914420" lon="-2.8341040">
        <ele>1330.9</ele>
        <time>2022-02-08T10:57:30Z</time>
      </trkpt>
      <trkpt lat="41.8914410" lon="-2.8341060">
        <ele>1330.9</ele>
        <time>2022-02-08T10:57:31Z</time>
      </trkpt>
      <trkpt lat="41.8914400" lon="-2.8341080">
        <ele>1330.9</ele>
        <time>2022-02-08T10:57:32Z</time>
      </trkpt>
      <trkpt lat="41.8914390" lon="-2.8341100">
        <ele>1330.9</ele>
        <time>2022-02-08T10:57:33Z</time>
      </trkpt>
      <trkpt lat="41.8914380" lon="-2.8341120">
        <ele>1330.9</ele>
        <time>2022-02-08T10:57:34Z</time>
      </trkpt>
      <trkpt lat="41.8914370" lon="-2.8341140">
        <ele>1330.9</ele>
        <time>2022-02-08T10:57:35Z</time>
      </trkpt>
      <trkpt lat="41.8914360" lon="-2.8341160">
        <ele>1330.9</ele>
        <time>2022-02-08T10:57:36Z</time>
      </trkpt>
      <trkpt lat="41.8914350" lon="-2.8341180">
        <ele>1330.9</ele>
        <time>2022-02-08T10:57:37Z</time>
      </trkpt>
      <trkpt lat="41.8914340" lon="-2.8341200">
        <ele>1330.9</ele>
        <time>2022-02-08T10:57:38Z</time>
      </trkpt>
      <trkpt lat="41.8914330" lon="-2.8341220">
        <ele>1330.9</ele>
        <time>2022-02-08T10:57:39Z</time>
      </trkpt>
      <trkpt lat="41.8914320" lon="-2.8341240">
        <ele>1330.9</ele>
        <time>2022-02-08T10:57:40Z</time>
      </trkpt>
      <trkpt lat="41.8914310" lon="-2.8341260">
        <ele>1330.9</ele>
        <time>2022-02-08T10:57:41Z</time>
      </trkpt>
      <trkpt lat="41.8914300" lon="-2.8341280">
        <ele>1330.9</ele>
        <time>2022-02-08T10:57:42Z</time>
      </trkpt>
      <trkpt lat="41.8914290" lon="-2.8341300">
        <ele>1330.9</ele>
        <time>2022-02-08T10:57:43Z</time>
      </trkpt>
      <trkpt lat="41.8914280" lon="-2.8341320">
        <ele>1330.9</ele>
        <time>2022-02-08T10:57:44Z</time>
      </trkpt>
      <trkpt lat="41.8914270" lon="-2.8341350">
        <ele>1330.9</ele>
        <time>2022-02-08T10:57:45Z</time>
      </trkpt>
      <trkpt lat="41.8914260" lon="-2.8341370">
        <ele>1330.9</ele>
        <time>2022-02-08T10:57:46Z</time>
      </trkpt>
      <trkpt lat="41.8914250" lon="-2.8341390">
        <ele>1330.9</ele>
        <time>2022-02-08T10:57:47Z</time>
      </trkpt>
      <trkpt lat="41.8914240" lon="-2.8341410">
        <ele>1330.9</ele>
        <time>2022-02-08T10:57:48Z</time>
      </trkpt>
      <trkpt lat="41.8914240" lon="-2.8341430">
        <ele>1330.9</ele>
        <time>2022-02-08T10:57:49Z</time>
      </trkpt>
      <trkpt lat="41.8914230" lon="-2.8341450">
        <ele>1330.9</ele>
        <time>2022-02-08T10:57:50Z</time>
      </trkpt>
      <trkpt lat="41.8914220" lon="-2.8341470">
        <ele>1330.9</ele>
        <time>2022-02-08T10:57:51Z</time>
      </trkpt>
      <trkpt lat="41.8914210" lon="-2.8341490">
        <ele>1330.9</ele>
        <time>2022-02-08T10:57:52Z</time>
      </trkpt>
      <trkpt lat="41.8914200" lon="-2.8341510">
        <ele>1330.9</ele>
        <time>2022-02-08T10:57:53Z</time>
      </trkpt>
      <trkpt lat="41.8914190" lon="-2.8341530">
        <ele>1330.9</ele>
        <time>2022-02-08T10:57:54Z</time>
      </trkpt>
      <trkpt lat="41.8914180" lon="-2.8341550">
        <ele>1330.9</ele>
        <time>2022-02-08T10:57:55Z</time>
      </trkpt>
      <trkpt lat="41.8914170" lon="-2.8341570">
        <ele>1330.9</ele>
        <time>2022-02-08T10:57:56Z</time>
      </trkpt>
      <trkpt lat="41.8914160" lon="-2.8341590">
        <ele>1330.9</ele>
        <time>2022-02-08T10:57:57Z</time>
      </trkpt>
      <trkpt lat="41.8914150" lon="-2.8341610">
        <ele>1330.9</ele>
        <time>2022-02-08T10:57:58Z</time>
      </trkpt>
      <trkpt lat="41.8914140" lon="-2.8341630">
        <ele>1330.9</ele>
        <time>2022-02-08T10:57:59Z</time>
      </trkpt>
      <trkpt lat="41.8914130" lon="-2.8341650">
        <ele>1330.9</ele>
        <time>2022-02-08T10:58:00Z</time>
      </trkpt>
      <trkpt lat="41.8914120" lon="-2.8341670">
        <ele>1330.9</ele>
        <time>2022-02-08T10:58:01Z</time>
      </trkpt>
      <trkpt lat="41.8914110" lon="-2.8341690">
        <ele>1330.9</ele>
        <time>2022-02-08T10:58:02Z</time>
      </trkpt>
      <trkpt lat="41.8914100" lon="-2.8341710">
        <ele>1330.9</ele>
        <time>2022-02-08T10:58:03Z</time>
      </trkpt>
      <trkpt lat="41.8914090" lon="-2.8341730">
        <ele>1330.9</ele>
        <time>2022-02-08T10:58:04Z</time>
      </trkpt>
      <trkpt lat="41.8914080" lon="-2.8341750">
        <ele>1330.9</ele>
        <time>2022-02-08T10:58:05Z</time>
      </trkpt>
      <trkpt lat="41.8914070" lon="-2.8341770">
        <ele>1330.9</ele>
        <time>2022-02-08T10:58:06Z</time>
      </trkpt>
      <trkpt lat="41.8914060" lon="-2.8341790">
        <ele>1330.9</ele>
        <time>2022-02-08T10:58:07Z</time>
      </trkpt>
      <trkpt lat="41.8914050" lon="-2.8341810">
        <ele>1330.9</ele>
        <time>2022-02-08T10:58:08Z</time>
      </trkpt>
      <trkpt lat="41.8914040" lon="-2.8341830">
        <ele>1330.9</ele>
        <time>2022-02-08T10:58:09Z</time>
      </trkpt>
      <trkpt lat="41.8914030" lon="-2.8341850">
        <ele>1330.9</ele>
        <time>2022-02-08T10:58:10Z</time>
      </trkpt>
      <trkpt lat="41.8914020" lon="-2.8341870">
        <ele>1330.9</ele>
        <time>2022-02-08T10:58:11Z</time>
      </trkpt>
      <trkpt lat="41.8914010" lon="-2.8341890">
        <ele>1330.9</ele>
        <time>2022-02-08T10:58:12Z</time>
      </trkpt>
      <trkpt lat="41.8914010" lon="-2.8341910">
        <ele>1330.9</ele>
        <time>2022-02-08T10:58:13Z</time>
      </trkpt>
      <trkpt lat="41.8914000" lon="-2.8341930">
        <ele>1330.9</ele>
        <time>2022-02-08T10:58:14Z</time>
      </trkpt>
      <trkpt lat="41.8913990" lon="-2.8341950">
        <ele>1330.9</ele>
        <time>2022-02-08T10:58:15Z</time>
      </trkpt>
      <trkpt lat="41.8913980" lon="-2.8341970">
        <ele>1330.9</ele>
        <time>2022-02-08T10:58:16Z</time>
      </trkpt>
      <trkpt lat="41.8913970" lon="-2.8341990">
        <ele>1330.9</ele>
        <time>2022-02-08T10:58:17Z</time>
      </trkpt>
      <trkpt lat="41.8913960" lon="-2.8342010">
        <ele>1330.9</ele>
        <time>2022-02-08T10:58:18Z</time>
      </trkpt>
      <trkpt lat="41.8913950" lon="-2.8342030">
        <ele>1330.9</ele>
        <time>2022-02-08T10:58:19Z</time>
      </trkpt>
      <trkpt lat="41.8913940" lon="-2.8342050">
        <ele>1330.9</ele>
        <time>2022-02-08T10:58:20Z</time>
      </trkpt>
      <trkpt lat="41.8913930" lon="-2.8342070">
        <ele>1330.9</ele>
        <time>2022-02-08T10:58:21Z</time>
      </trkpt>
      <trkpt lat="41.8913920" lon="-2.8342090">
        <ele>1330.9</ele>
        <time>2022-02-08T10:58:22Z</time>
      </trkpt>
      <trkpt lat="41.8913910" lon="-2.8342110">
        <ele>1330.9</ele>
        <time>2022-02-08T10:58:23Z</time>
      </trkpt>
      <trkpt lat="41.8913900" lon="-2.8342130">
        <ele>1330.9</ele>
        <time>2022-02-08T10:58:24Z</time>
      </trkpt>
      <trkpt lat="41.8913720" lon="-2.8342650">
        <ele>1330.8</ele>
        <time>2022-02-08T10:58:25Z</time>
      </trkpt>
      <trkpt lat="41.8913550" lon="-2.8343180">
        <ele>1330.8</ele>
        <time>2022-02-08T10:58:26Z</time>
      </trkpt>
      <trkpt lat="41.8913370" lon="-2.8343670">
        <ele>1330.8</ele>
        <time>2022-02-08T10:58:27Z</time>
      </trkpt>
      <trkpt lat="41.8913170" lon="-2.8344020">
        <ele>1330.6</ele>
        <time>2022-02-08T10:58:28Z</time>
      </trkpt>
      <trkpt lat="41.8912980" lon="-2.8344220">
        <ele>1330.6</ele>
        <time>2022-02-08T10:58:29Z</time>
      </trkpt>
      <trkpt lat="41.8912780" lon="-2.8344270">
        <ele>1330.6</ele>
        <time>2022-02-08T10:58:30Z</time>
      </trkpt>
      <trkpt lat="41.8912600" lon="-2.8344230">
        <ele>1330.5</ele>
        <time>2022-02-08T10:58:31Z</time>
      </trkpt>
      <trkpt lat="41.8912350" lon="-2.8344050">
        <ele>1330.5</ele>
        <time>2022-02-08T10:58:32Z</time>
      </trkpt>
      <trkpt lat="41.8912050" lon="-2.8343880">
        <ele>1330.5</ele>
        <time>2022-02-08T10:58:33Z</time>
      </trkpt>
      <trkpt lat="41.8911770" lon="-2.8343720">
        <ele>1330.4</ele>
        <time>2022-02-08T10:58:34Z</time>
      </trkpt>
      <trkpt lat="41.8911450" lon="-2.8343550">
        <ele>1330.4</ele>
        <time>2022-02-08T10:58:35Z</time>
      </trkpt>
      <trkpt lat="41.8911150" lon="-2.8343430">
        <ele>1330.4</ele>
        <time>2022-02-08T10:58:36Z</time>
      </trkpt>
      <trkpt lat="41.8910900" lon="-2.8343330">
        <ele>1330.4</ele>
        <time>2022-02-08T10:58:37Z</time>
      </trkpt>
      <trkpt lat="41.8910670" lon="-2.8343230">
        <ele>1330.3</ele>
        <time>2022-02-08T10:58:38Z</time>
      </trkpt>
      <trkpt lat="41.8910450" lon="-2.8343030">
        <ele>1330.3</ele>
        <time>2022-02-08T10:58:39Z</time>
      </trkpt>
      <trkpt lat="41.8910230" lon="-2.8342800">
        <ele>1330.3</ele>
        <time>2022-02-08T10:58:40Z</time>
      </trkpt>
      <trkpt lat="41.8910050" lon="-2.8342580">
        <ele>1330.3</ele>
        <time>2022-02-08T10:58:41Z</time>
      </trkpt>
      <trkpt lat="41.8909800" lon="-2.8342280">
        <ele>1330.3</ele>
        <time>2022-02-08T10:58:42Z</time>
      </trkpt>
      <trkpt lat="41.8909470" lon="-2.8341880">
        <ele>1330.3</ele>
        <time>2022-02-08T10:58:43Z</time>
      </trkpt>
      <trkpt lat="41.8909170" lon="-2.8341470">
        <ele>1330.3</ele>
        <time>2022-02-08T10:58:44Z</time>
      </trkpt>
      <trkpt lat="41.8908870" lon="-2.8341120">
        <ele>1330.3</ele>
        <time>2022-02-08T10:58:45Z</time>
      </trkpt>
      <trkpt lat="41.8908550" lon="-2.8340770">
        <ele>1330.3</ele>
        <time>2022-02-08T10:58:46Z</time>
      </trkpt>
      <trkpt lat="41.8908200" lon="-2.8340380">
        <ele>1330.4</ele>
        <time>2022-02-08T10:58:47Z</time>
      </trkpt>
      <trkpt lat="41.8907830" lon="-2.8339970">
        <ele>1330.4</ele>
        <time>2022-02-08T10:58:48Z</time>
      </trkpt>
      <trkpt lat="41.8907430" lon="-2.8339570">
        <ele>1330.5</ele>
        <time>2022-02-08T10:58:49Z</time>
      </trkpt>
      <trkpt lat="41.8907050" lon="-2.8339120">
        <ele>1330.6</ele>
        <time>2022-02-08T10:58:50Z</time>
      </trkpt>
      <trkpt lat="41.8906670" lon="-2.8338700">
        <ele>1330.7</ele>
        <time>2022-02-08T10:58:51Z</time>
      </trkpt>
      <trkpt lat="41.8906280" lon="-2.8338270">
        <ele>1330.8</ele>
        <time>2022-02-08T10:58:52Z</time>
      </trkpt>
      <trkpt lat="41.8905970" lon="-2.8337830">
        <ele>1330.9</ele>
        <time>2022-02-08T10:58:53Z</time>
      </trkpt>
      <trkpt lat="41.8905700" lon="-2.8337480">
        <ele>1331.0</ele>
        <time>2022-02-08T10:58:54Z</time>
      </trkpt>
      <trkpt lat="41.8905370" lon="-2.8337070">
        <ele>1331.1</ele>
        <time>2022-02-08T10:58:55Z</time>
      </trkpt>
      <trkpt lat="41.8905020" lon="-2.8336580">
        <ele>1331.2</ele>
        <time>2022-02-08T10:58:56Z</time>
      </trkpt>
      <trkpt lat="41.8904770" lon="-2.8336170">
        <ele>1331.3</ele>
        <time>2022-02-08T10:58:57Z</time>
      </trkpt>
      <trkpt lat="41.8904520" lon="-2.8335750">
        <ele>1331.4</ele>
        <time>2022-02-08T10:58:58Z</time>
      </trkpt>
      <trkpt lat="41.8904280" lon="-2.8335280">
        <ele>1331.5</ele>
        <time>2022-02-08T10:58:59Z</time>
      </trkpt>
      <trkpt lat="41.8904120" lon="-2.8334880">
        <ele>1331.6</ele>
        <time>2022-02-08T10:59:00Z</time>
      </trkpt>
      <trkpt lat="41.8903880" lon="-2.8334330">
        <ele>1331.7</ele>
        <time>2022-02-08T10:59:01Z</time>
      </trkpt>
      <trkpt lat="41.8903680" lon="-2.8333880">
        <ele>1331.8</ele>
        <time>2022-02-08T10:59:02Z</time>
      </trkpt>
      <trkpt lat="41.8903500" lon="-2.8333420">
        <ele>1331.9</ele>
        <time>2022-02-08T10:59:03Z</time>
      </trkpt>
      <trkpt lat="41.8903370" lon="-2.8332930">
        <ele>1332.0</ele>
        <time>2022-02-08T10:59:04Z</time>
      </trkpt>
      <trkpt lat="41.8903280" lon="-2.8332450">
        <ele>1332.1</ele>
        <time>2022-02-08T10:59:05Z</time>
      </trkpt>
      <trkpt lat="41.8903230" lon="-2.8331980">
        <ele>1332.2</ele>
        <time>2022-02-08T10:59:06Z</time>
      </trkpt>
      <trkpt lat="41.8903200" lon="-2.8331520">
        <ele>1332.3</ele>
        <time>2022-02-08T10:59:07Z</time>
      </trkpt>
      <trkpt lat="41.8903150" lon="-2.8331020">
        <ele>1332.3</ele>
        <time>2022-02-08T10:59:08Z</time>
      </trkpt>
      <trkpt lat="41.8903050" lon="-2.8330450">
        <ele>1332.5</ele>
        <time>2022-02-08T10:59:09Z</time>
      </trkpt>
      <trkpt lat="41.8902950" lon="-2.8329900">
        <ele>1332.6</ele>
        <time>2022-02-08T10:59:10Z</time>
      </trkpt>
      <trkpt lat="41.8902820" lon="-2.8329370">
        <ele>1332.6</ele>
        <time>2022-02-08T10:59:11Z</time>
      </trkpt>
      <trkpt lat="41.8902600" lon="-2.8328800">
        <ele>1332.7</ele>
        <time>2022-02-08T10:59:12Z</time>
      </trkpt>
      <trkpt lat="41.8902430" lon="-2.8328280">
        <ele>1332.8</ele>
        <time>2022-02-08T10:59:13Z</time>
      </trkpt>
      <trkpt lat="41.8902180" lon="-2.8327700">
        <ele>1332.8</ele>
        <time>2022-02-08T10:59:14Z</time>
      </trkpt>
      <trkpt lat="41.8901920" lon="-2.8327130">
        <ele>1332.8</ele>
        <time>2022-02-08T10:59:15Z</time>
      </trkpt>
      <trkpt lat="41.8901570" lon="-2.8326280">
        <ele>1332.9</ele>
        <time>2022-02-08T10:59:16Z</time>
      </trkpt>
      <trkpt lat="41.8901250" lon="-2.8325700">
        <ele>1332.9</ele>
        <time>2022-02-08T10:59:17Z</time>
      </trkpt>
      <trkpt lat="41.8900870" lon="-2.8325200">
        <ele>1332.9</ele>
        <time>2022-02-08T10:59:18Z</time>
      </trkpt>
      <trkpt lat="41.8900470" lon="-2.8324850">
        <ele>1332.9</ele>
        <time>2022-02-08T10:59:19Z</time>
      </trkpt>
      <trkpt lat="41.8900030" lon="-2.8324580">
        <ele>1332.9</ele>
        <time>2022-02-08T10:59:20Z</time>
      </trkpt>
      <trkpt lat="41.8899620" lon="-2.8324350">
        <ele>1333.0</ele>
        <time>2022-02-08T10:59:21Z</time>
      </trkpt>
      <trkpt lat="41.8899250" lon="-2.8324130">
        <ele>1333.0</ele>
        <time>2022-02-08T10:59:22Z</time>
      </trkpt>
      <trkpt lat="41.8898820" lon="-2.8323950">
        <ele>1333.0</ele>
        <time>2022-02-08T10:59:23Z</time>
      </trkpt>
      <trkpt lat="41.8898550" lon="-2.8323770">
        <ele>1333.1</ele>
        <time>2022-02-08T10:59:24Z</time>
      </trkpt>
      <trkpt lat="41.8898330" lon="-2.8323700">
        <ele>1333.1</ele>
        <time>2022-02-08T10:59:29Z</time>
      </trkpt>
      <trkpt lat="41.8887630" lon="-2.8268600">
        <ele>1313.3</ele>
        <time>2022-01-30T09:47:37Z</time>
      </trkpt>
      <trkpt lat="41.8887630" lon="-2.8268600">
        <ele>1313.3</ele>
        <time>2022-01-30T09:47:38Z</time>
      </trkpt>
      <trkpt lat="41.8887480" lon="-2.8269050">
        <ele>1313.5</ele>
        <time>2022-01-30T09:47:39Z</time>
      </trkpt>
      <trkpt lat="41.8887280" lon="-2.8269420">
        <ele>1313.6</ele>
        <time>2022-01-30T09:47:40Z</time>
      </trkpt>
      <trkpt lat="41.8887000" lon="-2.8269800">
        <ele>1313.7</ele>
        <time>2022-01-30T09:47:41Z</time>
      </trkpt>
      <trkpt lat="41.8886720" lon="-2.8270050">
        <ele>1313.8</ele>
        <time>2022-01-30T09:47:42Z</time>
      </trkpt>
      <trkpt lat="41.8886500" lon="-2.8270250">
        <ele>1313.9</ele>
        <time>2022-01-30T09:47:43Z</time>
      </trkpt>
      <trkpt lat="41.8886220" lon="-2.8270520">
        <ele>1313.9</ele>
        <time>2022-01-30T09:47:44Z</time>
      </trkpt>
      <trkpt lat="41.8885870" lon="-2.8270850">
        <ele>1314.0</ele>
        <time>2022-01-30T09:47:45Z</time>
      </trkpt>
      <trkpt lat="41.8885630" lon="-2.8271080">
        <ele>1314.0</ele>
        <time>2022-01-30T09:47:46Z</time>
      </trkpt>
      <trkpt lat="41.8885320" lon="-2.8271380">
        <ele>1314.0</ele>
        <time>2022-01-30T09:47:47Z</time>
      </trkpt>
      <trkpt lat="41.8884980" lon="-2.8271700">
        <ele>1313.9</ele>
        <time>2022-01-30T09:47:48Z</time>
      </trkpt>
      <trkpt lat="41.8884630" lon="-2.8272070">
        <ele>1313.9</ele>
        <time>2022-01-30T09:47:49Z</time>
      </trkpt>
      <trkpt lat="41.8884270" lon="-2.8272470">
        <ele>1313.9</ele>
        <time>2022-01-30T09:47:50Z</time>
      </trkpt>
      <trkpt lat="41.8883830" lon="-2.8272980">
        <ele>1313.8</ele>
        <time>2022-01-30T09:47:51Z</time>
      </trkpt>
      <trkpt lat="41.8883550" lon="-2.8273380">
        <ele>1313.8</ele>
        <time>2022-01-30T09:47:52Z</time>
      </trkpt>
      <trkpt lat="41.8883220" lon="-2.8273930">
        <ele>1313.8</ele>
        <time>2022-01-30T09:47:53Z</time>
      </trkpt>
      <trkpt lat="41.8882900" lon="-2.8274620">
        <ele>1313.8</ele>
        <time>2022-01-30T09:47:54Z</time>
      </trkpt>
      <trkpt lat="41.8882730" lon="-2.8275120">
        <ele>1313.8</ele>
        <time>2022-01-30T09:47:55Z</time>
      </trkpt>
      <trkpt lat="41.8882570" lon="-2.8275780">
        <ele>1313.8</ele>
        <time>2022-01-30T09:47:56Z</time>
      </trkpt>
      <trkpt lat="41.8882450" lon="-2.8276450">
        <ele>1313.8</ele>
        <time>2022-01-30T09:47:57Z</time>
      </trkpt>
      <trkpt lat="41.8882350" lon="-2.8277080">
        <ele>1313.9</ele>
        <time>2022-01-30T09:47:58Z</time>
      </trkpt>
      <trkpt lat="41.8882270" lon="-2.8277850">
        <ele>1314.1</ele>
        <time>2022-01-30T09:47:59Z</time>
      </trkpt>
      <trkpt lat="41.8882250" lon="-2.8278350">
        <ele>1314.2</ele>
        <time>2022-01-30T09:48:00Z</time>
      </trkpt>
      <trkpt lat="41.8882200" lon="-2.8278970">
        <ele>1314.3</ele>
        <time>2022-01-30T09:48:01Z</time>
      </trkpt>
      <trkpt lat="41.8882130" lon="-2.8279700">
        <ele>1314.5</ele>
        <time>2022-01-30T09:48:02Z</time>
      </trkpt>
      <trkpt lat="41.8882080" lon="-2.8280320">
        <ele>1314.7</ele>
        <time>2022-01-30T09:48:03Z</time>
      </trkpt>
      <trkpt lat="41.8882030" lon="-2.8280800">
        <ele>1314.8</ele>
        <time>2022-01-30T09:48:04Z</time>
      </trkpt>
      <trkpt lat="41.8881980" lon="-2.8281420">
        <ele>1315.0</ele>
        <time>2022-01-30T09:48:05Z</time>
      </trkpt>
      <trkpt lat="41.8881900" lon="-2.8282130">
        <ele>1315.3</ele>
        <time>2022-01-30T09:48:06Z</time>
      </trkpt>
      <trkpt lat="41.8881850" lon="-2.8282600">
        <ele>1315.5</ele>
        <time>2022-01-30T09:48:07Z</time>
      </trkpt>
      <trkpt lat="41.8881750" lon="-2.8283170">
        <ele>1315.8</ele>
        <time>2022-01-30T09:48:08Z</time>
      </trkpt>
      <trkpt lat="41.8881650" lon="-2.8283750">
        <ele>1316.1</ele>
        <time>2022-01-30T09:48:09Z</time>
      </trkpt>
      <trkpt lat="41.8881550" lon="-2.8284300">
        <ele>1316.4</ele>
        <time>2022-01-30T09:48:10Z</time>
      </trkpt>
      <trkpt lat="41.8881450" lon="-2.8284830">
        <ele>1316.6</ele>
        <time>2022-01-30T09:48:11Z</time>
      </trkpt>
      <trkpt lat="41.8881320" lon="-2.8285450">
        <ele>1317.0</ele>
        <time>2022-01-30T09:48:12Z</time>
      </trkpt>
      <trkpt lat="41.8881200" lon="-2.8285850">
        <ele>1317.2</ele>
        <time>2022-01-30T09:48:13Z</time>
      </trkpt>
      <trkpt lat="41.8881050" lon="-2.8286320">
        <ele>1317.5</ele>
        <time>2022-01-30T09:48:14Z</time>
      </trkpt>
      <trkpt lat="41.8880880" lon="-2.8286880">
        <ele>1317.8</ele>
        <time>2022-01-30T09:48:15Z</time>
      </trkpt>
      <trkpt lat="41.8880800" lon="-2.8287250">
        <ele>1318.0</ele>
        <time>2022-01-30T09:48:16Z</time>
      </trkpt>
      <trkpt lat="41.8880650" lon="-2.8287680">
        <ele>1318.3</ele>
        <time>2022-01-30T09:48:17Z</time>
      </trkpt>
      <trkpt lat="41.8880500" lon="-2.8288130">
        <ele>1318.6</ele>
        <time>2022-01-30T09:48:18Z</time>
      </trkpt>
      <trkpt lat="41.8880370" lon="-2.8288580">
        <ele>1318.8</ele>
        <time>2022-01-30T09:48:19Z</time>
      </trkpt>
      <trkpt lat="41.8880200" lon="-2.8289130">
        <ele>1319.1</ele>
        <time>2022-01-30T09:48:20Z</time>
      </trkpt>
      <trkpt lat="41.8880100" lon="-2.8289500">
        <ele>1319.4</ele>
        <time>2022-01-30T09:48:21Z</time>
      </trkpt>
      <trkpt lat="41.8879980" lon="-2.8289970">
        <ele>1319.6</ele>
        <time>2022-01-30T09:48:22Z</time>
      </trkpt>
      <trkpt lat="41.8879870" lon="-2.8290420">
        <ele>1319.9</ele>
        <time>2022-01-30T09:48:23Z</time>
      </trkpt>
      <trkpt lat="41.8879770" lon="-2.8290850">
        <ele>1320.1</ele>
        <time>2022-01-30T09:48:24Z</time>
      </trkpt>
      <trkpt lat="41.8879650" lon="-2.8291420">
        <ele>1320.5</ele>
        <time>2022-01-30T09:48:25Z</time>
      </trkpt>
      <trkpt lat="41.8879580" lon="-2.8291920">
        <ele>1320.8</ele>
        <time>2022-01-30T09:48:26Z</time>
      </trkpt>
      <trkpt lat="41.8879550" lon="-2.8292320">
        <ele>1321.0</ele>
        <time>2022-01-30T09:48:27Z</time>
      </trkpt>
      <trkpt lat="41.8879570" lon="-2.8292880">
        <ele>1321.3</ele>
        <time>2022-01-30T09:48:28Z</time>
      </trkpt>
      <trkpt lat="41.8879600" lon="-2.8293250">
        <ele>1321.5</ele>
        <time>2022-01-30T09:48:29Z</time>
      </trkpt>
      <trkpt lat="41.8879680" lon="-2.8293720">
        <ele>1321.8</ele>
        <time>2022-01-30T09:48:30Z</time>
      </trkpt>
      <trkpt lat="41.8879800" lon="-2.8294170">
        <ele>1322.1</ele>
        <time>2022-01-30T09:48:31Z</time>
      </trkpt>
      <trkpt lat="41.8879950" lon="-2.8294600">
        <ele>1322.4</ele>
        <time>2022-01-30T09:48:32Z</time>
      </trkpt>
      <trkpt lat="41.8880120" lon="-2.8295020">
        <ele>1322.6</ele>
        <time>2022-01-30T09:48:33Z</time>
      </trkpt>
      <trkpt lat="41.8880320" lon="-2.8295380">
        <ele>1322.9</ele>
        <time>2022-01-30T09:48:34Z</time>
      </trkpt>
      <trkpt lat="41.8880530" lon="-2.8295770">
        <ele>1323.2</ele>
        <time>2022-01-30T09:48:35Z</time>
      </trkpt>
      <trkpt lat="41.8880700" lon="-2.8296020">
        <ele>1323.4</ele>
        <time>2022-01-30T09:48:36Z</time>
      </trkpt>
      <trkpt lat="41.8880930" lon="-2.8296330">
        <ele>1323.6</ele>
        <time>2022-01-30T09:48:37Z</time>
      </trkpt>
      <trkpt lat="41.8881220" lon="-2.8296680">
        <ele>1323.9</ele>
        <time>2022-01-30T09:48:38Z</time>
      </trkpt>
      <trkpt lat="41.8881430" lon="-2.8296970">
        <ele>1324.1</ele>
        <time>2022-01-30T09:48:39Z</time>
      </trkpt>
      <trkpt lat="41.8881580" lon="-2.8297200">
        <ele>1324.3</ele>
        <time>2022-01-30T09:48:40Z</time>
      </trkpt>
      <trkpt lat="41.8881800" lon="-2.8297500">
        <ele>1324.5</ele>
        <time>2022-01-30T09:48:41Z</time>
      </trkpt>
      <trkpt lat="41.8882030" lon="-2.8297780">
        <ele>1324.7</ele>
        <time>2022-01-30T09:48:42Z</time>
      </trkpt>
      <trkpt lat="41.8882250" lon="-2.8298080">
        <ele>1324.9</ele>
        <time>2022-01-30T09:48:43Z</time>
      </trkpt>
      <trkpt lat="41.8882550" lon="-2.8298480">
        <ele>1325.2</ele>
        <time>2022-01-30T09:48:44Z</time>
      </trkpt>
      <trkpt lat="41.8882770" lon="-2.8298750">
        <ele>1325.4</ele>
        <time>2022-01-30T09:48:45Z</time>
      </trkpt>
      <trkpt lat="41.8883070" lon="-2.8299130">
        <ele>1325.6</ele>
        <time>2022-01-30T09:48:46Z</time>
      </trkpt>
      <trkpt lat="41.8883280" lon="-2.8299480">
        <ele>1325.8</ele>
        <time>2022-01-30T09:48:47Z</time>
      </trkpt>
      <trkpt lat="41.8883450" lon="-2.8299800">
        <ele>1326.0</ele>
        <time>2022-01-30T09:48:48Z</time>
      </trkpt>
      <trkpt lat="41.8883630" lon="-2.8300200">
        <ele>1326.2</ele>
        <time>2022-01-30T09:48:49Z</time>
      </trkpt>
      <trkpt lat="41.8883830" lon="-2.8300580">
        <ele>1326.5</ele>
        <time>2022-01-30T09:48:50Z</time>
      </trkpt>
      <trkpt lat="41.8884050" lon="-2.8300980">
        <ele>1326.7</ele>
        <time>2022-01-30T09:48:51Z</time>
      </trkpt>
      <trkpt lat="41.8884300" lon="-2.8301300">
        <ele>1327.0</ele>
        <time>2022-01-30T09:48:52Z</time>
      </trkpt>
      <trkpt lat="41.8884480" lon="-2.8301600">
        <ele>1327.2</ele>
        <time>2022-01-30T09:48:53Z</time>
      </trkpt>
      <trkpt lat="41.8884650" lon="-2.8301920">
        <ele>1327.4</ele>
        <time>2022-01-30T09:48:54Z</time>
      </trkpt>
      <trkpt lat="41.8884850" lon="-2.8302230">
        <ele>1327.6</ele>
        <time>2022-01-30T09:48:55Z</time>
      </trkpt>
      <trkpt lat="41.8885100" lon="-2.8302650">
        <ele>1327.9</ele>
        <time>2022-01-30T09:48:56Z</time>
      </trkpt>
      <trkpt lat="41.8885250" lon="-2.8302930">
        <ele>1328.1</ele>
        <time>2022-01-30T09:48:57Z</time>
      </trkpt>
      <trkpt lat="41.8885400" lon="-2.8303230">
        <ele>1328.3</ele>
        <time>2022-01-30T09:48:58Z</time>
      </trkpt>
      <trkpt lat="41.8885550" lon="-2.8303570">
        <ele>1328.6</ele>
        <time>2022-01-30T09:48:59Z</time>
      </trkpt>
      <trkpt lat="41.8885720" lon="-2.8303830">
        <ele>1328.8</ele>
        <time>2022-01-30T09:49:00Z</time>
      </trkpt>
      <trkpt lat="41.8885920" lon="-2.8304230">
        <ele>1329.1</ele>
        <time>2022-01-30T09:49:01Z</time>
      </trkpt>
      <trkpt lat="41.8886080" lon="-2.8304450">
        <ele>1329.3</ele>
        <time>2022-01-30T09:49:02Z</time>
      </trkpt>
      <trkpt lat="41.8886300" lon="-2.8304720">
        <ele>1329.5</ele>
        <time>2022-01-30T09:49:03Z</time>
      </trkpt>
      <trkpt lat="41.8886550" lon="-2.8305030">
        <ele>1329.8</ele>
        <time>2022-01-30T09:49:04Z</time>
      </trkpt>
      <trkpt lat="41.8886780" lon="-2.8305250">
        <ele>1330.0</ele>
        <time>2022-01-30T09:49:05Z</time>
      </trkpt>
      <trkpt lat="41.8887000" lon="-2.8305480">
        <ele>1330.2</ele>
        <time>2022-01-30T09:49:06Z</time>
      </trkpt>
      <trkpt lat="41.8887170" lon="-2.8305670">
        <ele>1330.3</ele>
        <time>2022-01-30T09:49:07Z</time>
      </trkpt>
      <trkpt lat="41.8887430" lon="-2.8305970">
        <ele>1330.6</ele>
        <time>2022-01-30T09:49:08Z</time>
      </trkpt>
      <trkpt lat="41.8887620" lon="-2.8306130">
        <ele>1330.7</ele>
        <time>2022-01-30T09:49:09Z</time>
      </trkpt>
      <trkpt lat="41.8887900" lon="-2.8306430">
        <ele>1330.9</ele>
        <time>2022-01-30T09:49:10Z</time>
      </trkpt>
      <trkpt lat="41.8888080" lon="-2.8306650">
        <ele>1331.1</ele>
        <time>2022-01-30T09:49:11Z</time>
      </trkpt>
      <trkpt lat="41.8888300" lon="-2.8306900">
        <ele>1331.2</ele>
        <time>2022-01-30T09:49:12Z</time>
      </trkpt>
      <trkpt lat="41.8888530" lon="-2.8307170">
        <ele>1331.4</ele>
        <time>2022-01-30T09:49:13Z</time>
      </trkpt>
      <trkpt lat="41.8888750" lon="-2.8307420">
        <ele>1331.5</ele>
        <time>2022-01-30T09:49:14Z</time>
      </trkpt>
      <trkpt lat="41.8888970" lon="-2.8307700">
        <ele>1331.6</ele>
        <time>2022-01-30T09:49:15Z</time>
      </trkpt>
      <trkpt lat="41.8889180" lon="-2.8308000">
        <ele>1331.8</ele>
        <time>2022-01-30T09:49:16Z</time>
      </trkpt>
      <trkpt lat="41.8889470" lon="-2.8308370">
        <ele>1331.9</ele>
        <time>2022-01-30T09:49:17Z</time>
      </trkpt>
      <trkpt lat="41.8889650" lon="-2.8308620">
        <ele>1331.9</ele>
        <time>2022-01-30T09:49:18Z</time>
      </trkpt>
      <trkpt lat="41.8889900" lon="-2.8309000">
        <ele>1332.0</ele>
        <time>2022-01-30T09:49:19Z</time>
      </trkpt>
      <trkpt lat="41.8890070" lon="-2.8309270">
        <ele>1332.1</ele>
        <time>2022-01-30T09:49:20Z</time>
      </trkpt>
      <trkpt lat="41.8890250" lon="-2.8309600">
        <ele>1332.1</ele>
        <time>2022-01-30T09:49:21Z</time>
      </trkpt>
      <trkpt lat="41.8890480" lon="-2.8310020">
        <ele>1332.2</ele>
        <time>2022-01-30T09:49:22Z</time>
      </trkpt>
      <trkpt lat="41.8890670" lon="-2.8310370">
        <ele>1332.2</ele>
        <time>2022-01-30T09:49:23Z</time>
      </trkpt>
      <trkpt lat="41.8890870" lon="-2.8310720">
        <ele>1332.3</ele>
        <time>2022-01-30T09:49:24Z</time>
      </trkpt>
      <trkpt lat="41.8891020" lon="-2.8311000">
        <ele>1332.3</ele>
        <time>2022-01-30T09:49:25Z</time>
      </trkpt>
      <trkpt lat="41.8891230" lon="-2.8311370">
        <ele>1332.4</ele>
        <time>2022-01-30T09:49:26Z</time>
      </trkpt>
      <trkpt lat="41.8891470" lon="-2.8311800">
        <ele>1332.5</ele>
        <time>2022-01-30T09:49:27Z</time>
      </trkpt>
      <trkpt lat="41.8891680" lon="-2.8312200">
        <ele>1332.5</ele>
        <time>2022-01-30T09:49:28Z</time>
      </trkpt>
      <trkpt lat="41.8891850" lon="-2.8312500">
        <ele>1332.5</ele>
        <time>2022-01-30T09:49:29Z</time>
      </trkpt>
      <trkpt lat="41.8892080" lon="-2.8312970">
        <ele>1332.6</ele>
        <time>2022-01-30T09:49:30Z</time>
      </trkpt>
      <trkpt lat="41.8892300" lon="-2.8313370">
        <ele>1332.7</ele>
        <time>2022-01-30T09:49:31Z</time>
      </trkpt>
      <trkpt lat="41.8892530" lon="-2.8313750">
        <ele>1332.7</ele>
        <time>2022-01-30T09:49:32Z</time>
      </trkpt>
      <trkpt lat="41.8892700" lon="-2.8314080">
        <ele>1332.7</ele>
        <time>2022-01-30T09:49:33Z</time>
      </trkpt>
      <trkpt lat="41.8892900" lon="-2.8314480">
        <ele>1332.8</ele>
        <time>2022-01-30T09:49:34Z</time>
      </trkpt>
      <trkpt lat="41.8893130" lon="-2.8314880">
        <ele>1332.9</ele>
        <time>2022-01-30T09:49:35Z</time>
      </trkpt>
      <trkpt lat="41.8893400" lon="-2.8315350">
        <ele>1332.9</ele>
        <time>2022-01-30T09:49:36Z</time>
      </trkpt>
      <trkpt lat="41.8893650" lon="-2.8315720">
        <ele>1333.0</ele>
        <time>2022-01-30T09:49:37Z</time>
      </trkpt>
      <trkpt lat="41.8893850" lon="-2.8316000">
        <ele>1333.0</ele>
        <time>2022-01-30T09:49:38Z</time>
      </trkpt>
      <trkpt lat="41.8894080" lon="-2.8316330">
        <ele>1333.1</ele>
        <time>2022-01-30T09:49:39Z</time>
      </trkpt>
      <trkpt lat="41.8894380" lon="-2.8316770">
        <ele>1333.2</ele>
        <time>2022-01-30T09:49:40Z</time>
      </trkpt>
      <trkpt lat="41.8894580" lon="-2.8317050">
        <ele>1333.2</ele>
        <time>2022-01-30T09:49:41Z</time>
      </trkpt>
      <trkpt lat="41.8894820" lon="-2.8317420">
        <ele>1333.2</ele>
        <time>2022-01-30T09:49:42Z</time>
      </trkpt>
      <trkpt lat="41.8895070" lon="-2.8317780">
        <ele>1333.3</ele>
        <time>2022-01-30T09:49:43Z</time>
      </trkpt>
      <trkpt lat="41.8895320" lon="-2.8318150">
        <ele>1333.3</ele>
        <time>2022-01-30T09:49:44Z</time>
      </trkpt>
      <trkpt lat="41.8895650" lon="-2.8318580">
        <ele>1333.3</ele>
        <time>2022-01-30T09:49:45Z</time>
      </trkpt>
      <trkpt lat="41.8895880" lon="-2.8318900">
        <ele>1333.3</ele>
        <time>2022-01-30T09:49:46Z</time>
      </trkpt>
      <trkpt lat="41.8896180" lon="-2.8319280">
        <ele>1333.3</ele>
        <time>2022-01-30T09:49:47Z</time>
      </trkpt>
      <trkpt lat="41.8896530" lon="-2.8319750">
        <ele>1333.3</ele>
        <time>2022-01-30T09:49:48Z</time>
      </trkpt>
      <trkpt lat="41.8896780" lon="-2.8320150">
        <ele>1333.3</ele>
        <time>2022-01-30T09:49:49Z</time>
      </trkpt>
      <trkpt lat="41.8896980" lon="-2.8320480">
        <ele>1333.3</ele>
        <time>2022-01-30T09:49:50Z</time>
      </trkpt>
      <trkpt lat="41.8897220" lon="-2.8320930">
        <ele>1333.3</ele>
        <time>2022-01-30T09:49:51Z</time>
      </trkpt>
      <trkpt lat="41.8897470" lon="-2.8321450">
        <ele>1333.2</ele>
        <time>2022-01-30T09:49:52Z</time>
      </trkpt>
      <trkpt lat="41.8897630" lon="-2.8321820">
        <ele>1333.2</ele>
        <time>2022-01-30T09:49:53Z</time>
      </trkpt>
      <trkpt lat="41.8897880" lon="-2.8322380">
        <ele>1333.2</ele>
        <time>2022-01-30T09:49:54Z</time>
      </trkpt>
      <trkpt lat="41.8898030" lon="-2.8322750">
        <ele>1333.1</ele>
        <time>2022-01-30T09:49:55Z</time>
      </trkpt>
      <trkpt lat="41.8898220" lon="-2.8323220">
        <ele>1333.1</ele>
        <time>2022-01-30T09:49:56Z</time>
      </trkpt>
      <trkpt lat="41.8898420" lon="-2.8323680">
        <ele>1333.1</ele>
        <time>2022-01-30T09:49:57Z</time>
      </trkpt>
      <trkpt lat="41.8898630" lon="-2.8324250">
        <ele>1333.0</ele>
        <time>2022-01-30T09:49:58Z</time>
      </trkpt>
      <trkpt lat="41.8898750" lon="-2.8324630">
        <ele>1333.0</ele>
        <time>2022-01-30T09:49:59Z</time>
      </trkpt>
      <trkpt lat="41.8898900" lon="-2.8325100">
        <ele>1333.0</ele>
        <time>2022-01-30T09:50:00Z</time>
      </trkpt>
      <trkpt lat="41.8899100" lon="-2.8325680">
        <ele>1332.9</ele>
        <time>2022-01-30T09:50:01Z</time>
      </trkpt>
      <trkpt lat="41.8899220" lon="-2.8326070">
        <ele>1332.9</ele>
        <time>2022-01-30T09:50:02Z</time>
      </trkpt>
      <trkpt lat="41.8899420" lon="-2.8326620">
        <ele>1332.9</ele>
        <time>2022-01-30T09:50:03Z</time>
      </trkpt>
      <trkpt lat="41.8899550" lon="-2.8326980">
        <ele>1332.9</ele>
        <time>2022-01-30T09:50:04Z</time>
      </trkpt>
      <trkpt lat="41.8899720" lon="-2.8327450">
        <ele>1332.9</ele>
        <time>2022-01-30T09:50:05Z</time>
      </trkpt>
      <trkpt lat="41.8899930" lon="-2.8328000">
        <ele>1332.9</ele>
        <time>2022-01-30T09:50:06Z</time>
      </trkpt>
      <trkpt lat="41.8900130" lon="-2.8328420">
        <ele>1332.9</ele>
        <time>2022-01-30T09:50:07Z</time>
      </trkpt>
      <trkpt lat="41.8900280" lon="-2.8328780">
        <ele>1332.8</ele>
        <time>2022-01-30T09:50:08Z</time>
      </trkpt>
      <trkpt lat="41.8900520" lon="-2.8329230">
        <ele>1332.8</ele>
        <time>2022-01-30T09:50:09Z</time>
      </trkpt>
      <trkpt lat="41.8900770" lon="-2.8329780">
        <ele>1332.8</ele>
        <time>2022-01-30T09:50:10Z</time>
      </trkpt>
      <trkpt lat="41.8900930" lon="-2.8330250">
        <ele>1332.7</ele>
        <time>2022-01-30T09:50:11Z</time>
      </trkpt>
      <trkpt lat="41.8901100" lon="-2.8330620">
        <ele>1332.6</ele>
        <time>2022-01-30T09:50:12Z</time>
      </trkpt>
      <trkpt lat="41.8901320" lon="-2.8331120">
        <ele>1332.6</ele>
        <time>2022-01-30T09:50:13Z</time>
      </trkpt>
      <trkpt lat="41.8901600" lon="-2.8331700">
        <ele>1332.4</ele>
        <time>2022-01-30T09:50:14Z</time>
      </trkpt>
      <trkpt lat="41.8901830" lon="-2.8332100">
        <ele>1332.3</ele>
        <time>2022-01-30T09:50:15Z</time>
      </trkpt>
      <trkpt lat="41.8902150" lon="-2.8332750">
        <ele>1332.2</ele>
        <time>2022-01-30T09:50:16Z</time>
      </trkpt>
      <trkpt lat="41.8902370" lon="-2.8333200">
        <ele>1332.1</ele>
        <time>2022-01-30T09:50:17Z</time>
      </trkpt>
      <trkpt lat="41.8902600" lon="-2.8333800">
        <ele>1331.9</ele>
        <time>2022-01-30T09:50:18Z</time>
      </trkpt>
      <trkpt lat="41.8902850" lon="-2.8334520">
        <ele>1331.9</ele>
        <time>2022-01-30T09:50:19Z</time>
      </trkpt>
      <trkpt lat="41.8903050" lon="-2.8335130">
        <ele>1331.8</ele>
        <time>2022-01-30T09:50:20Z</time>
      </trkpt>
      <trkpt lat="41.8903180" lon="-2.8335620">
        <ele>1331.8</ele>
        <time>2022-01-30T09:50:21Z</time>
      </trkpt>
      <trkpt lat="41.8903350" lon="-2.8336220">
        <ele>1331.8</ele>
        <time>2022-01-30T09:50:22Z</time>
      </trkpt>
      <trkpt lat="41.8903650" lon="-2.8336980">
        <ele>1331.7</ele>
        <time>2022-01-30T09:50:23Z</time>
      </trkpt>
      <trkpt lat="41.8903870" lon="-2.8337470">
        <ele>1331.8</ele>
        <time>2022-01-30T09:50:24Z</time>
      </trkpt>
      <trkpt lat="41.8904130" lon="-2.8338320">
        <ele>1331.8</ele>
        <time>2022-01-30T09:50:25Z</time>
      </trkpt>
      <trkpt lat="41.8904350" lon="-2.8338920">
        <ele>1331.8</ele>
        <time>2022-01-30T09:50:26Z</time>
      </trkpt>
      <trkpt lat="41.8904620" lon="-2.8339580">
        <ele>1331.9</ele>
        <time>2022-01-30T09:50:27Z</time>
      </trkpt>
      <trkpt lat="41.8904950" lon="-2.8340350">
        <ele>1332.0</ele>
        <time>2022-01-30T09:50:28Z</time>
      </trkpt>
      <trkpt lat="41.8905250" lon="-2.8341030">
        <ele>1332.1</ele>
        <time>2022-01-30T09:50:29Z</time>
      </trkpt>
      <trkpt lat="41.8905530" lon="-2.8341680">
        <ele>1332.1</ele>
        <time>2022-01-30T09:50:30Z</time>
      </trkpt>
      <trkpt lat="41.8905700" lon="-2.8342200">
        <ele>1332.2</ele>
        <time>2022-01-30T09:50:31Z</time>
      </trkpt>
      <trkpt lat="41.8905900" lon="-2.8342830">
        <ele>1332.2</ele>
        <time>2022-01-30T09:50:32Z</time>
      </trkpt>
      <trkpt lat="41.8906220" lon="-2.8343550">
        <ele>1332.3</ele>
        <time>2022-01-30T09:50:33Z</time>
      </trkpt>
      <trkpt lat="41.8906500" lon="-2.8344120">
        <ele>1332.3</ele>
        <time>2022-01-30T09:50:34Z</time>
      </trkpt>
      <trkpt lat="41.8906720" lon="-2.8344520">
        <ele>1332.3</ele>
        <time>2022-01-30T09:50:35Z</time>
      </trkpt>
      <trkpt lat="41.8906950" lon="-2.8345050">
        <ele>1332.4</ele>
        <time>2022-01-30T09:50:36Z</time>
      </trkpt>
      <trkpt lat="41.8907230" lon="-2.8345720">
        <ele>1332.4</ele>
        <time>2022-01-30T09:50:37Z</time>
      </trkpt>
      <trkpt lat="41.8907420" lon="-2.8346130">
        <ele>1332.4</ele>
        <time>2022-01-30T09:50:38Z</time>
      </trkpt>
      <trkpt lat="41.8907630" lon="-2.8346680">
        <ele>1332.5</ele>
        <time>2022-01-30T09:50:39Z</time>
      </trkpt>
      <trkpt lat="41.8907870" lon="-2.8347200">
        <ele>1332.6</ele>
        <time>2022-01-30T09:50:40Z</time>
      </trkpt>
      <trkpt lat="41.8908120" lon="-2.8347720">
        <ele>1332.7</ele>
        <time>2022-01-30T09:50:41Z</time>
      </trkpt>
      <trkpt lat="41.8908370" lon="-2.8348230">
        <ele>1332.8</ele>
        <time>2022-01-30T09:50:42Z</time>
      </trkpt>
      <trkpt lat="41.8908670" lon="-2.8348820">
        <ele>1332.9</ele>
        <time>2022-01-30T09:50:43Z</time>
      </trkpt>
      <trkpt lat="41.8908880" lon="-2.8349200">
        <ele>1333.0</ele>
        <time>2022-01-30T09:50:44Z</time>
      </trkpt>
      <trkpt lat="41.8909170" lon="-2.8349750">
        <ele>1333.2</ele>
        <time>2022-01-30T09:50:45Z</time>
      </trkpt>
      <trkpt lat="41.8909420" lon="-2.8350180">
        <ele>1333.3</ele>
        <time>2022-01-30T09:50:46Z</time>
      </trkpt>
      <trkpt lat="41.8909580" lon="-2.8350520">
        <ele>1333.4</ele>
        <time>2022-01-30T09:50:47Z</time>
      </trkpt>
      <trkpt lat="41.8909830" lon="-2.8350930">
        <ele>1333.5</ele>
        <time>2022-01-30T09:50:48Z</time>
      </trkpt>
      <trkpt lat="41.8910020" lon="-2.8351330">
        <ele>1333.6</ele>
        <time>2022-01-30T09:50:49Z</time>
      </trkpt>
      <trkpt lat="41.8910200" lon="-2.8351720">
        <ele>1333.7</ele>
        <time>2022-01-30T09:50:50Z</time>
      </trkpt>
      <trkpt lat="41.8910380" lon="-2.8352170">
        <ele>1333.8</ele>
        <time>2022-01-30T09:50:51Z</time>
      </trkpt>
      <trkpt lat="41.8910500" lon="-2.8352470">
        <ele>1333.9</ele>
        <time>2022-01-30T09:50:52Z</time>
      </trkpt>
      <trkpt lat="41.8910700" lon="-2.8352770">
        <ele>1334.0</ele>
        <time>2022-01-30T09:50:53Z</time>
      </trkpt>
      <trkpt lat="41.8910920" lon="-2.8353130">
        <ele>1334.1</ele>
        <time>2022-01-30T09:50:54Z</time>
      </trkpt>
      <trkpt lat="41.8911130" lon="-2.8353420">
        <ele>1334.2</ele>
        <time>2022-01-30T09:50:55Z</time>
      </trkpt>
      <trkpt lat="41.8911280" lon="-2.8353650">
        <ele>1334.3</ele>
        <time>2022-01-30T09:50:56Z</time>
      </trkpt>
      <trkpt lat="41.8911470" lon="-2.8353930">
        <ele>1334.4</ele>
        <time>2022-01-30T09:50:57Z</time>
      </trkpt>
      <trkpt lat="41.8911800" lon="-2.8354220">
        <ele>1334.5</ele>
        <time>2022-01-30T09:50:58Z</time>
      </trkpt>
      <trkpt lat="41.8911970" lon="-2.8354520">
        <ele>1334.5</ele>
        <time>2022-01-30T09:50:59Z</time>
      </trkpt>
      <trkpt lat="41.8912130" lon="-2.8354830">
        <ele>1334.5</ele>
        <time>2022-01-30T09:51:00Z</time>
      </trkpt>
      <trkpt lat="41.8912300" lon="-2.8355120">
        <ele>1334.6</ele>
        <time>2022-01-30T09:51:01Z</time>
      </trkpt>
      <trkpt lat="41.8912520" lon="-2.8355480">
        <ele>1334.6</ele>
        <time>2022-01-30T09:51:02Z</time>
      </trkpt>
      <trkpt lat="41.8912630" lon="-2.8355950">
        <ele>1334.6</ele>
        <time>2022-01-30T09:51:03Z</time>
      </trkpt>
      <trkpt lat="41.8912800" lon="-2.8356280">
        <ele>1334.5</ele>
        <time>2022-01-30T09:51:04Z</time>
      </trkpt>
      <trkpt lat="41.8912970" lon="-2.8356620">
        <ele>1334.5</ele>
        <time>2022-01-30T09:51:05Z</time>
      </trkpt>
      <trkpt lat="41.8913100" lon="-2.8356900">
        <ele>1334.5</ele>
        <time>2022-01-30T09:51:06Z</time>
      </trkpt>
      <trkpt lat="41.8913280" lon="-2.8357230">
        <ele>1334.4</ele>
        <time>2022-01-30T09:51:07Z</time>
      </trkpt>
      <trkpt lat="41.8913480" lon="-2.8357670">
        <ele>1334.3</ele>
        <time>2022-01-30T09:51:08Z</time>
      </trkpt>
      <trkpt lat="41.8913630" lon="-2.8358030">
        <ele>1334.2</ele>
        <time>2022-01-30T09:51:09Z</time>
      </trkpt>
      <trkpt lat="41.8913750" lon="-2.8358330">
        <ele>1334.2</ele>
        <time>2022-01-30T09:51:10Z</time>
      </trkpt>
      <trkpt lat="41.8913880" lon="-2.8358720">
        <ele>1334.1</ele>
        <time>2022-01-30T09:51:11Z</time>
      </trkpt>
      <trkpt lat="41.8914030" lon="-2.8359170">
        <ele>1334.0</ele>
        <time>2022-01-30T09:51:12Z</time>
      </trkpt>
      <trkpt lat="41.8914120" lon="-2.8359500">
        <ele>1333.9</ele>
        <time>2022-01-30T09:51:13Z</time>
      </trkpt>
      <trkpt lat="41.8914250" lon="-2.8359900">
        <ele>1333.7</ele>
        <time>2022-01-30T09:51:14Z</time>
      </trkpt>
      <trkpt lat="41.8914370" lon="-2.8360330">
        <ele>1333.6</ele>
        <time>2022-01-30T09:51:15Z</time>
      </trkpt>
      <trkpt lat="41.8914500" lon="-2.8360750">
        <ele>1333.4</ele>
        <time>2022-01-30T09:51:16Z</time>
      </trkpt>
      <trkpt lat="41.8914650" lon="-2.8361280">
        <ele>1333.2</ele>
        <time>2022-01-30T09:51:17Z</time>
      </trkpt>
      <trkpt lat="41.8914800" lon="-2.8361730">
        <ele>1332.9</ele>
        <time>2022-01-30T09:51:18Z</time>
      </trkpt>
      <trkpt lat="41.8914920" lon="-2.8362100">
        <ele>1332.7</ele>
        <time>2022-01-30T09:51:19Z</time>
      </trkpt>
      <trkpt lat="41.8915070" lon="-2.8362600">
        <ele>1332.4</ele>
        <time>2022-01-30T09:51:20Z</time>
      </trkpt>
      <trkpt lat="41.8915170" lon="-2.8363030">
        <ele>1332.2</ele>
        <time>2022-01-30T09:51:21Z</time>
      </trkpt>
      <trkpt lat="41.8915230" lon="-2.8363320">
        <ele>1332.0</ele>
        <time>2022-01-30T09:51:22Z</time>
      </trkpt>
      <trkpt lat="41.8915330" lon="-2.8363730">
        <ele>1331.8</ele>
        <time>2022-01-30T09:51:23Z</time>
      </trkpt>
      <trkpt lat="41.8915450" lon="-2.8364130">
        <ele>1331.5</ele>
        <time>2022-01-30T09:51:24Z</time>
      </trkpt>
      <trkpt lat="41.8915550" lon="-2.8364520">
        <ele>1331.3</ele>
        <time>2022-01-30T09:51:25Z</time>
      </trkpt>
      <trkpt lat="41.8915680" lon="-2.8364980">
        <ele>1331.0</ele>
        <time>2022-01-30T09:51:26Z</time>
      </trkpt>
      <trkpt lat="41.8915800" lon="-2.8365370">
        <ele>1330.7</ele>
        <time>2022-01-30T09:51:27Z</time>
      </trkpt>
      <trkpt lat="41.8915870" lon="-2.8365680">
        <ele>1330.6</ele>
        <time>2022-01-30T09:51:28Z</time>
      </trkpt>
      <trkpt lat="41.8915950" lon="-2.8366070">
        <ele>1330.3</ele>
        <time>2022-01-30T09:51:29Z</time>
      </trkpt>
      <trkpt lat="41.8916030" lon="-2.8366400">
        <ele>1330.1</ele>
        <time>2022-01-30T09:51:30Z</time>
      </trkpt>
      <trkpt lat="41.8916120" lon="-2.8366670">
        <ele>1329.9</ele>
        <time>2022-01-30T09:51:31Z</time>
      </trkpt>
      <trkpt lat="41.8916220" lon="-2.8367000">
        <ele>1329.7</ele>
        <time>2022-01-30T09:51:32Z</time>
      </trkpt>
      <trkpt lat="41.8916300" lon="-2.8367330">
        <ele>1329.5</ele>
        <time>2022-01-30T09:51:33Z</time>
      </trkpt>
      <trkpt lat="41.8916370" lon="-2.8367550">
        <ele>1329.4</ele>
        <time>2022-01-30T09:51:34Z</time>
      </trkpt>
      <trkpt lat="41.8916430" lon="-2.8367880">
        <ele>1329.2</ele>
        <time>2022-01-30T09:51:35Z</time>
      </trkpt>
      <trkpt lat="41.8916430" lon="-2.8368100">
        <ele>1329.0</ele>
        <time>2022-01-30T09:51:36Z</time>
      </trkpt>
      <trkpt lat="41.8916400" lon="-2.8368280">
        <ele>1328.9</ele>
        <time>2022-01-30T09:51:37Z</time>
      </trkpt>
      <trkpt lat="41.8916270" lon="-2.8368470">
        <ele>1328.9</ele>
        <time>2022-01-30T09:51:38Z</time>
      </trkpt>
      <trkpt lat="41.8916020" lon="-2.8368700">
        <ele>1328.9</ele>
        <time>2022-01-30T09:51:39Z</time>
      </trkpt>
      <trkpt lat="41.8915770" lon="-2.8368900">
        <ele>1327.5</ele>
        <time>2022-01-30T09:51:40Z</time>
      </trkpt>
      <trkpt lat="41.8915420" lon="-2.8369200">
        <ele>1326.2</ele>
        <time>2022-01-30T09:51:41Z</time>
      </trkpt>
      <trkpt lat="41.8914970" lon="-2.8369580">
        <ele>1326.2</ele>
        <time>2022-01-30T09:51:42Z</time>
      </trkpt>
      <trkpt lat="41.8914650" lon="-2.8369750">
        <ele>1326.1</ele>
        <time>2022-01-30T09:51:43Z</time>
      </trkpt>
      <trkpt lat="41.8914280" lon="-2.8369920">
        <ele>1326.1</ele>
        <time>2022-01-30T09:51:44Z</time>
      </trkpt>
      <trkpt lat="41.8914000" lon="-2.8370130">
        <ele>1324.3</ele>
        <time>2022-01-30T09:51:45Z</time>
      </trkpt>
      <trkpt lat="41.8913800" lon="-2.8370370">
        <ele>1324.2</ele>
        <time>2022-01-30T09:51:46Z</time>
      </trkpt>
      <trkpt lat="41.8913620" lon="-2.8370700">
        <ele>1322.5</ele>
        <time>2022-01-30T09:51:47Z</time>
      </trkpt>
      <trkpt lat="41.8913430" lon="-2.8371070">
        <ele>1322.4</ele>
        <time>2022-01-30T09:51:48Z</time>
      </trkpt>
      <trkpt lat="41.8913300" lon="-2.8371300">
        <ele>1322.4</ele>
        <time>2022-01-30T09:51:49Z</time>
      </trkpt>
      <trkpt lat="41.8913150" lon="-2.8371550">
        <ele>1322.4</ele>
        <time>2022-01-30T09:51:50Z</time>
      </trkpt>
      <trkpt lat="41.8912980" lon="-2.8371850">
        <ele>1322.4</ele>
        <time>2022-01-30T09:51:51Z</time>
      </trkpt>
      <trkpt lat="41.8912830" lon="-2.8372080">
        <ele>1320.1</ele>
        <time>2022-01-30T09:51:52Z</time>
      </trkpt>
      <trkpt lat="41.8912700" lon="-2.8372350">
        <ele>1317.3</ele>
        <time>2022-01-30T09:51:53Z</time>
      </trkpt>
      <trkpt lat="41.8912520" lon="-2.8372700">
        <ele>1317.3</ele>
        <time>2022-01-30T09:51:54Z</time>
      </trkpt>
      <trkpt lat="41.8912300" lon="-2.8373050">
        <ele>1317.3</ele>
        <time>2022-01-30T09:51:55Z</time>
      </trkpt>
      <trkpt lat="41.8912150" lon="-2.8373300">
        <ele>1317.2</ele>
        <time>2022-01-30T09:51:56Z</time>
      </trkpt>
      <trkpt lat="41.8911870" lon="-2.8373600">
        <ele>1317.2</ele>
        <time>2022-01-30T09:51:57Z</time>
      </trkpt>
      <trkpt lat="41.8911670" lon="-2.8373920">
        <ele>1314.1</ele>
        <time>2022-01-30T09:51:58Z</time>
      </trkpt>
      <trkpt lat="41.8911420" lon="-2.8374320">
        <ele>1311.2</ele>
        <time>2022-01-30T09:51:59Z</time>
      </trkpt>
      <trkpt lat="41.8911070" lon="-2.8374930">
        <ele>1311.2</ele>
        <time>2022-01-30T09:52:00Z</time>
      </trkpt>
      <trkpt lat="41.8910730" lon="-2.8375500">
        <ele>1311.1</ele>
        <time>2022-01-30T09:52:01Z</time>
      </trkpt>
      <trkpt lat="41.8910380" lon="-2.8376000">
        <ele>1307.6</ele>
        <time>2022-01-30T09:52:02Z</time>
      </trkpt>
      <trkpt lat="41.8910050" lon="-2.8376280">
        <ele>1304.9</ele>
        <time>2022-01-30T09:52:03Z</time>
      </trkpt>
      <trkpt lat="41.8909650" lon="-2.8376570">
        <ele>1304.9</ele>
        <time>2022-01-30T09:52:04Z</time>
      </trkpt>
      <trkpt lat="41.8909230" lon="-2.8376750">
        <ele>1304.8</ele>
        <time>2022-01-30T09:52:05Z</time>
      </trkpt>
      <trkpt lat="41.8908920" lon="-2.8376870">
        <ele>1302.3</ele>
        <time>2022-01-30T09:52:06Z</time>
      </trkpt>
      <trkpt lat="41.8908650" lon="-2.8377030">
        <ele>1302.3</ele>
        <time>2022-01-30T09:52:07Z</time>
      </trkpt>
      <trkpt lat="41.8908450" lon="-2.8377270">
        <ele>1302.3</ele>
        <time>2022-01-30T09:52:08Z</time>
      </trkpt>
      <trkpt lat="41.8908200" lon="-2.8377630">
        <ele>1299.7</ele>
        <time>2022-01-30T09:52:09Z</time>
      </trkpt>
      <trkpt lat="41.8908030" lon="-2.8378070">
        <ele>1299.6</ele>
        <time>2022-01-30T09:52:10Z</time>
      </trkpt>
      <trkpt lat="41.8907870" lon="-2.8378570">
        <ele>1299.6</ele>
        <time>2022-01-30T09:52:11Z</time>
      </trkpt>
      <trkpt lat="41.8907720" lon="-2.8379030">
        <ele>1298.1</ele>
        <time>2022-01-30T09:52:12Z</time>
      </trkpt>
      <trkpt lat="41.8907520" lon="-2.8379530">
        <ele>1296.8</ele>
        <time>2022-01-30T09:52:13Z</time>
      </trkpt>
      <trkpt lat="41.8907270" lon="-2.8379870">
        <ele>1296.8</ele>
        <time>2022-01-30T09:52:14Z</time>
      </trkpt>
      <trkpt lat="41.8907030" lon="-2.8379870">
        <ele>1296.8</ele>
        <time>2022-01-30T09:52:15Z</time>
      </trkpt>
      <trkpt lat="41.8906800" lon="-2.8379780">
        <ele>1296.7</ele>
        <time>2022-01-30T09:52:16Z</time>
      </trkpt>
      <trkpt lat="41.8906400" lon="-2.8379650">
        <ele>1295.8</ele>
        <time>2022-01-30T09:52:17Z</time>
      </trkpt>
      <trkpt lat="41.8906020" lon="-2.8379450">
        <ele>1295.8</ele>
        <time>2022-01-30T09:52:18Z</time>
      </trkpt>
      <trkpt lat="41.8905620" lon="-2.8379280">
        <ele>1295.8</ele>
        <time>2022-01-30T09:52:19Z</time>
      </trkpt>
      <trkpt lat="41.8905150" lon="-2.8379080">
        <ele>1294.1</ele>
        <time>2022-01-30T09:52:20Z</time>
      </trkpt>
      <trkpt lat="41.8904700" lon="-2.8378950">
        <ele>1295.2</ele>
        <time>2022-01-30T09:52:21Z</time>
      </trkpt>
      <trkpt lat="41.8904270" lon="-2.8378820">
        <ele>1295.1</ele>
        <time>2022-01-30T09:52:22Z</time>
      </trkpt>
      <trkpt lat="41.8903780" lon="-2.8378630">
        <ele>1293.4</ele>
        <time>2022-01-30T09:52:23Z</time>
      </trkpt>
      <trkpt lat="41.8903400" lon="-2.8378470">
        <ele>1293.3</ele>
        <time>2022-01-30T09:52:24Z</time>
      </trkpt>
      <trkpt lat="41.8903150" lon="-2.8378270">
        <ele>1293.3</ele>
        <time>2022-01-30T09:52:25Z</time>
      </trkpt>
      <trkpt lat="41.8902850" lon="-2.8377820">
        <ele>1293.3</ele>
        <time>2022-01-30T09:52:26Z</time>
      </trkpt>
      <trkpt lat="41.8902680" lon="-2.8377430">
        <ele>1293.2</ele>
        <time>2022-01-30T09:52:27Z</time>
      </trkpt>
      <trkpt lat="41.8902500" lon="-2.8377000">
        <ele>1292.7</ele>
        <time>2022-01-30T09:52:28Z</time>
      </trkpt>
      <trkpt lat="41.8902320" lon="-2.8376600">
        <ele>1292.7</ele>
        <time>2022-01-30T09:52:29Z</time>
      </trkpt>
      <trkpt lat="41.8902100" lon="-2.8376170">
        <ele>1292.7</ele>
        <time>2022-01-30T09:52:30Z</time>
      </trkpt>
      <trkpt lat="41.8901880" lon="-2.8375720">
        <ele>1292.6</ele>
        <time>2022-01-30T09:52:31Z</time>
      </trkpt>
      <trkpt lat="41.8901530" lon="-2.8375150">
        <ele>1295.3</ele>
        <time>2022-01-30T09:52:32Z</time>
      </trkpt>
      <trkpt lat="41.8901250" lon="-2.8374870">
        <ele>1293.1</ele>
        <time>2022-01-30T09:52:33Z</time>
      </trkpt>
      <trkpt lat="41.8901000" lon="-2.8374720">
        <ele>1293.1</ele>
        <time>2022-01-30T09:52:34Z</time>
      </trkpt>
      <trkpt lat="41.8900520" lon="-2.8374380">
        <ele>1293.1</ele>
        <time>2022-01-30T09:52:35Z</time>
      </trkpt>
      <trkpt lat="41.8900150" lon="-2.8373920">
        <ele>1293.0</ele>
        <time>2022-01-30T09:52:36Z</time>
      </trkpt>
      <trkpt lat="41.8899820" lon="-2.8373570">
        <ele>1293.9</ele>
        <time>2022-01-30T09:52:37Z</time>
      </trkpt>
      <trkpt lat="41.8899480" lon="-2.8373130">
        <ele>1293.9</ele>
        <time>2022-01-30T09:52:38Z</time>
      </trkpt>
      <trkpt lat="41.8899100" lon="-2.8372650">
        <ele>1293.9</ele>
        <time>2022-01-30T09:52:39Z</time>
      </trkpt>
      <trkpt lat="41.8898920" lon="-2.8372380">
        <ele>1293.8</ele>
        <time>2022-01-30T09:52:40Z</time>
      </trkpt>
      <trkpt lat="41.8898770" lon="-2.8371950">
        <ele>1295.5</ele>
        <time>2022-01-30T09:52:41Z</time>
      </trkpt>
      <trkpt lat="41.8898720" lon="-2.8371650">
        <ele>1295.5</ele>
        <time>2022-01-30T09:52:42Z</time>
      </trkpt>
      <trkpt lat="41.8898620" lon="-2.8371270">
        <ele>1295.4</ele>
        <time>2022-01-30T09:52:43Z</time>
      </trkpt>
      <trkpt lat="41.8898480" lon="-2.8370900">
        <ele>1295.4</ele>
        <time>2022-01-30T09:52:44Z</time>
      </trkpt>
      <trkpt lat="41.8898270" lon="-2.8370570">
        <ele>1295.4</ele>
        <time>2022-01-30T09:52:45Z</time>
      </trkpt>
      <trkpt lat="41.8897970" lon="-2.8370250">
        <ele>1299.0</ele>
        <time>2022-01-30T09:52:46Z</time>
      </trkpt>
      <trkpt lat="41.8897620" lon="-2.8369900">
        <ele>1299.0</ele>
        <time>2022-01-30T09:52:47Z</time>
      </trkpt>
      <trkpt lat="41.8897300" lon="-2.8369520">
        <ele>1296.1</ele>
        <time>2022-01-30T09:52:48Z</time>
      </trkpt>
      <trkpt lat="41.8896970" lon="-2.8369050">
        <ele>1296.1</ele>
        <time>2022-01-30T09:52:49Z</time>
      </trkpt>
      <trkpt lat="41.8896630" lon="-2.8368550">
        <ele>1299.6</ele>
        <time>2022-01-30T09:52:50Z</time>
      </trkpt>
      <trkpt lat="41.8896300" lon="-2.8368050">
        <ele>1299.5</ele>
        <time>2022-01-30T09:52:51Z</time>
      </trkpt>
      <trkpt lat="41.8896020" lon="-2.8367530">
        <ele>1296.6</ele>
        <time>2022-01-30T09:52:52Z</time>
      </trkpt>
      <trkpt lat="41.8895670" lon="-2.8366850">
        <ele>1299.9</ele>
        <time>2022-01-30T09:52:53Z</time>
      </trkpt>
      <trkpt lat="41.8895380" lon="-2.8366270">
        <ele>1299.9</ele>
        <time>2022-01-30T09:52:54Z</time>
      </trkpt>
      <trkpt lat="41.8895150" lon="-2.8365850">
        <ele>1299.9</ele>
        <time>2022-01-30T09:52:55Z</time>
      </trkpt>
      <trkpt lat="41.8894830" lon="-2.8365320">
        <ele>1300.1</ele>
        <time>2022-01-30T09:52:56Z</time>
      </trkpt>
      <trkpt lat="41.8894420" lon="-2.8364800">
        <ele>1300.1</ele>
        <time>2022-01-30T09:52:57Z</time>
      </trkpt>
      <trkpt lat="41.8894100" lon="-2.8364480">
        <ele>1300.1</ele>
        <time>2022-01-30T09:52:58Z</time>
      </trkpt>
      <trkpt lat="41.8893570" lon="-2.8364100">
        <ele>1297.8</ele>
        <time>2022-01-30T09:52:59Z</time>
      </trkpt>
      <trkpt lat="41.8893200" lon="-2.8363970">
        <ele>1297.7</ele>
        <time>2022-01-30T09:53:00Z</time>
      </trkpt>
      <trkpt lat="41.8892750" lon="-2.8363730">
        <ele>1297.7</ele>
        <time>2022-01-30T09:53:01Z</time>
      </trkpt>
      <trkpt lat="41.8892300" lon="-2.8363550">
        <ele>1298.9</ele>
        <time>2022-01-30T09:53:02Z</time>
      </trkpt>
      <trkpt lat="41.8891830" lon="-2.8363370">
        <ele>1298.9</ele>
        <time>2022-01-30T09:53:03Z</time>
      </trkpt>
      <trkpt lat="41.8891370" lon="-2.8363150">
        <ele>1298.9</ele>
        <time>2022-01-30T09:53:04Z</time>
      </trkpt>
      <trkpt lat="41.8890900" lon="-2.8362920">
        <ele>1296.6</ele>
        <time>2022-01-30T09:53:05Z</time>
      </trkpt>
      <trkpt lat="41.8890470" lon="-2.8362700">
        <ele>1296.6</ele>
        <time>2022-01-30T09:53:06Z</time>
      </trkpt>
      <trkpt lat="41.8889970" lon="-2.8362370">
        <ele>1296.6</ele>
        <time>2022-01-30T09:53:07Z</time>
      </trkpt>
      <trkpt lat="41.8889550" lon="-2.8362080">
        <ele>1294.6</ele>
        <time>2022-01-30T09:53:08Z</time>
      </trkpt>
      <trkpt lat="41.8889220" lon="-2.8361880">
        <ele>1298.0</ele>
        <time>2022-01-30T09:53:09Z</time>
      </trkpt>
      <trkpt lat="41.8888800" lon="-2.8361600">
        <ele>1297.9</ele>
        <time>2022-01-30T09:53:10Z</time>
      </trkpt>
      <trkpt lat="41.8888330" lon="-2.8361320">
        <ele>1295.8</ele>
        <time>2022-01-30T09:53:11Z</time>
      </trkpt>
      <trkpt lat="41.8887720" lon="-2.8361050">
        <ele>1295.8</ele>
        <time>2022-01-30T09:53:12Z</time>
      </trkpt>
      <trkpt lat="41.8887170" lon="-2.8360980">
        <ele>1293.7</ele>
        <time>2022-01-30T09:53:13Z</time>
      </trkpt>
      <trkpt lat="41.8886720" lon="-2.8360970">
        <ele>1293.7</ele>
        <time>2022-01-30T09:53:14Z</time>
      </trkpt>
      <trkpt lat="41.8886100" lon="-2.8360920">
        <ele>1293.6</ele>
        <time>2022-01-30T09:53:15Z</time>
      </trkpt>
      <trkpt lat="41.8885350" lon="-2.8360930">
        <ele>1291.1</ele>
        <time>2022-01-30T09:53:16Z</time>
      </trkpt>
      <trkpt lat="41.8884770" lon="-2.8361030">
        <ele>1291.1</ele>
        <time>2022-01-30T09:53:17Z</time>
      </trkpt>
      <trkpt lat="41.8884320" lon="-2.8361220">
        <ele>1289.3</ele>
        <time>2022-01-30T09:53:18Z</time>
      </trkpt>
      <trkpt lat="41.8883720" lon="-2.8361600">
        <ele>1289.2</ele>
        <time>2022-01-30T09:53:19Z</time>
      </trkpt>
      <trkpt lat="41.8883330" lon="-2.8361950">
        <ele>1284.8</ele>
        <time>2022-01-30T09:53:20Z</time>
      </trkpt>
      <trkpt lat="41.8883030" lon="-2.8362400">
        <ele>1284.7</ele>
        <time>2022-01-30T09:53:21Z</time>
      </trkpt>
      <trkpt lat="41.8882870" lon="-2.8362830">
        <ele>1284.7</ele>
        <time>2022-01-30T09:53:22Z</time>
      </trkpt>
      <trkpt lat="41.8882650" lon="-2.8363320">
        <ele>1284.7</ele>
        <time>2022-01-30T09:53:23Z</time>
      </trkpt>
      <trkpt lat="41.8882470" lon="-2.8363970">
        <ele>1281.5</ele>
        <time>2022-01-30T09:53:24Z</time>
      </trkpt>
      <trkpt lat="41.8882280" lon="-2.8364600">
        <ele>1281.5</ele>
        <time>2022-01-30T09:53:25Z</time>
      </trkpt>
      <trkpt lat="41.8881950" lon="-2.8365150">
        <ele>1280.0</ele>
        <time>2022-01-30T09:53:26Z</time>
      </trkpt>
      <trkpt lat="41.8881670" lon="-2.8365400">
        <ele>1276.9</ele>
        <time>2022-01-30T09:53:27Z</time>
      </trkpt>
      <trkpt lat="41.8881280" lon="-2.8365680">
        <ele>1276.9</ele>
        <time>2022-01-30T09:53:28Z</time>
      </trkpt>
      <trkpt lat="41.8880800" lon="-2.8365830">
        <ele>1275.0</ele>
        <time>2022-01-30T09:53:29Z</time>
      </trkpt>
      <trkpt lat="41.8880430" lon="-2.8365820">
        <ele>1274.9</ele>
        <time>2022-01-30T09:53:30Z</time>
      </trkpt>
      <trkpt lat="41.8879970" lon="-2.8365780">
        <ele>1274.9</ele>
        <time>2022-01-30T09:53:31Z</time>
      </trkpt>
      <trkpt lat="41.8879500" lon="-2.8365730">
        <ele>1272.9</ele>
        <time>2022-01-30T09:53:32Z</time>
      </trkpt>
      <trkpt lat="41.8879020" lon="-2.8365730">
        <ele>1272.9</ele>
        <time>2022-01-30T09:53:33Z</time>
      </trkpt>
      <trkpt lat="41.8878480" lon="-2.8365730">
        <ele>1272.8</ele>
        <time>2022-01-30T09:53:34Z</time>
      </trkpt>
      <trkpt lat="41.8877850" lon="-2.8365550">
        <ele>1270.6</ele>
        <time>2022-01-30T09:53:35Z</time>
      </trkpt>
      <trkpt lat="41.8877430" lon="-2.8365380">
        <ele>1270.6</ele>
        <time>2022-01-30T09:53:36Z</time>
      </trkpt>
      <trkpt lat="41.8876950" lon="-2.8365170">
        <ele>1270.7</ele>
        <time>2022-01-30T09:53:37Z</time>
      </trkpt>
      <trkpt lat="41.8876450" lon="-2.8364930">
        <ele>1270.6</ele>
        <time>2022-01-30T09:53:38Z</time>
      </trkpt>
      <trkpt lat="41.8876000" lon="-2.8364600">
        <ele>1270.6</ele>
        <time>2022-01-30T09:53:39Z</time>
      </trkpt>
      <trkpt lat="41.8875650" lon="-2.8364150">
        <ele>1268.2</ele>
        <time>2022-01-30T09:53:40Z</time>
      </trkpt>
      <trkpt lat="41.8875300" lon="-2.8363700">
        <ele>1268.1</ele>
        <time>2022-01-30T09:53:41Z</time>
      </trkpt>
      <trkpt lat="41.8874970" lon="-2.8363180">
        <ele>1270.2</ele>
        <time>2022-01-30T09:53:42Z</time>
      </trkpt>
      <trkpt lat="41.8874520" lon="-2.8362580">
        <ele>1267.2</ele>
        <time>2022-01-30T09:53:43Z</time>
      </trkpt>
      <trkpt lat="41.8874200" lon="-2.8362200">
        <ele>1267.1</ele>
        <time>2022-01-30T09:53:44Z</time>
      </trkpt>
      <trkpt lat="41.8873870" lon="-2.8361820">
        <ele>1268.6</ele>
        <time>2022-01-30T09:53:45Z</time>
      </trkpt>
      <trkpt lat="41.8873570" lon="-2.8361430">
        <ele>1268.6</ele>
        <time>2022-01-30T09:53:46Z</time>
      </trkpt>
      <trkpt lat="41.8873380" lon="-2.8361050">
        <ele>1268.6</ele>
        <time>2022-01-30T09:53:47Z</time>
      </trkpt>
      <trkpt lat="41.8873280" lon="-2.8360620">
        <ele>1268.5</ele>
        <time>2022-01-30T09:53:48Z</time>
      </trkpt>
      <trkpt lat="41.8873120" lon="-2.8360200">
        <ele>1265.9</ele>
        <time>2022-01-30T09:53:49Z</time>
      </trkpt>
      <trkpt lat="41.8873030" lon="-2.8359780">
        <ele>1267.6</ele>
        <time>2022-01-30T09:53:50Z</time>
      </trkpt>
      <trkpt lat="41.8872900" lon="-2.8359350">
        <ele>1267.6</ele>
        <time>2022-01-30T09:53:51Z</time>
      </trkpt>
      <trkpt lat="41.8872720" lon="-2.8358830">
        <ele>1267.5</ele>
        <time>2022-01-30T09:53:52Z</time>
      </trkpt>
      <trkpt lat="41.8872580" lon="-2.8358450">
        <ele>1269.6</ele>
        <time>2022-01-30T09:53:53Z</time>
      </trkpt>
      <trkpt lat="41.8872350" lon="-2.8357950">
        <ele>1269.5</ele>
        <time>2022-01-30T09:53:54Z</time>
      </trkpt>
      <trkpt lat="41.8872100" lon="-2.8357420">
        <ele>1269.5</ele>
        <time>2022-01-30T09:53:55Z</time>
      </trkpt>
      <trkpt lat="41.8871780" lon="-2.8356780">
        <ele>1266.4</ele>
        <time>2022-01-30T09:53:56Z</time>
      </trkpt>
      <trkpt lat="41.8871620" lon="-2.8356330">
        <ele>1267.9</ele>
        <time>2022-01-30T09:53:57Z</time>
      </trkpt>
      <trkpt lat="41.8871430" lon="-2.8355770">
        <ele>1267.9</ele>
        <time>2022-01-30T09:53:58Z</time>
      </trkpt>
      <trkpt lat="41.8871250" lon="-2.8355180">
        <ele>1267.8</ele>
        <time>2022-01-30T09:53:59Z</time>
      </trkpt>
      <trkpt lat="41.8871050" lon="-2.8354580">
        <ele>1269.4</ele>
        <time>2022-01-30T09:54:00Z</time>
      </trkpt>
      <trkpt lat="41.8870830" lon="-2.8354020">
        <ele>1269.4</ele>
        <time>2022-01-30T09:54:01Z</time>
      </trkpt>
      <trkpt lat="41.8870650" lon="-2.8353480">
        <ele>1266.7</ele>
        <time>2022-01-30T09:54:02Z</time>
      </trkpt>
      <trkpt lat="41.8870500" lon="-2.8352900">
        <ele>1268.6</ele>
        <time>2022-01-30T09:54:03Z</time>
      </trkpt>
      <trkpt lat="41.8870380" lon="-2.8352270">
        <ele>1268.5</ele>
        <time>2022-01-30T09:54:04Z</time>
      </trkpt>
      <trkpt lat="41.8870320" lon="-2.8351870">
        <ele>1268.5</ele>
        <time>2022-01-30T09:54:05Z</time>
      </trkpt>
      <trkpt lat="41.8870170" lon="-2.8351300">
        <ele>1270.3</ele>
        <time>2022-01-30T09:54:06Z</time>
      </trkpt>
      <trkpt lat="41.8870020" lon="-2.8350670">
        <ele>1270.2</ele>
        <time>2022-01-30T09:54:07Z</time>
      </trkpt>
      <trkpt lat="41.8869900" lon="-2.8350080">
        <ele>1270.2</ele>
        <time>2022-01-30T09:54:08Z</time>
      </trkpt>
      <trkpt lat="41.8869750" lon="-2.8349500">
        <ele>1272.0</ele>
        <time>2022-01-30T09:54:09Z</time>
      </trkpt>
      <trkpt lat="41.8869550" lon="-2.8348770">
        <ele>1271.9</ele>
        <time>2022-01-30T09:54:10Z</time>
      </trkpt>
      <trkpt lat="41.8869380" lon="-2.8348220">
        <ele>1268.6</ele>
        <time>2022-01-30T09:54:11Z</time>
      </trkpt>
      <trkpt lat="41.8869180" lon="-2.8347680">
        <ele>1270.4</ele>
        <time>2022-01-30T09:54:12Z</time>
      </trkpt>
      <trkpt lat="41.8868930" lon="-2.8347130">
        <ele>1270.4</ele>
        <time>2022-01-30T09:54:13Z</time>
      </trkpt>
      <trkpt lat="41.8868720" lon="-2.8346600">
        <ele>1270.3</ele>
        <time>2022-01-30T09:54:14Z</time>
      </trkpt>
      <trkpt lat="41.8868550" lon="-2.8346030">
        <ele>1272.0</ele>
        <time>2022-01-30T09:54:15Z</time>
      </trkpt>
      <trkpt lat="41.8868270" lon="-2.8345370">
        <ele>1272.0</ele>
        <time>2022-01-30T09:54:16Z</time>
      </trkpt>
      <trkpt lat="41.8867970" lon="-2.8344850">
        <ele>1269.4</ele>
        <time>2022-01-30T09:54:17Z</time>
      </trkpt>
      <trkpt lat="41.8867600" lon="-2.8344420">
        <ele>1271.1</ele>
        <time>2022-01-30T09:54:18Z</time>
      </trkpt>
      <trkpt lat="41.8867080" lon="-2.8344000">
        <ele>1271.1</ele>
        <time>2022-01-30T09:54:19Z</time>
      </trkpt>
      <trkpt lat="41.8866680" lon="-2.8343800">
        <ele>1267.8</ele>
        <time>2022-01-30T09:54:20Z</time>
      </trkpt>
      <trkpt lat="41.8866220" lon="-2.8343480">
        <ele>1267.8</ele>
        <time>2022-01-30T09:54:21Z</time>
      </trkpt>
      <trkpt lat="41.8865770" lon="-2.8343130">
        <ele>1267.8</ele>
        <time>2022-01-30T09:54:22Z</time>
      </trkpt>
      <trkpt lat="41.8865300" lon="-2.8342730">
        <ele>1266.5</ele>
        <time>2022-01-30T09:54:23Z</time>
      </trkpt>
      <trkpt lat="41.8864850" lon="-2.8342320">
        <ele>1266.5</ele>
        <time>2022-01-30T09:54:24Z</time>
      </trkpt>
      <trkpt lat="41.8864430" lon="-2.8341870">
        <ele>1266.5</ele>
        <time>2022-01-30T09:54:25Z</time>
      </trkpt>
      <trkpt lat="41.8864050" lon="-2.8341420">
        <ele>1263.1</ele>
        <time>2022-01-30T09:54:26Z</time>
      </trkpt>
      <trkpt lat="41.8863700" lon="-2.8340880">
        <ele>1264.8</ele>
        <time>2022-01-30T09:54:27Z</time>
      </trkpt>
      <trkpt lat="41.8863420" lon="-2.8340330">
        <ele>1264.8</ele>
        <time>2022-01-30T09:54:28Z</time>
      </trkpt>
      <trkpt lat="41.8863230" lon="-2.8339800">
        <ele>1264.7</ele>
        <time>2022-01-30T09:54:29Z</time>
      </trkpt>
      <trkpt lat="41.8863070" lon="-2.8339230">
        <ele>1265.8</ele>
        <time>2022-01-30T09:54:30Z</time>
      </trkpt>
      <trkpt lat="41.8862920" lon="-2.8338720">
        <ele>1262.6</ele>
        <time>2022-01-30T09:54:31Z</time>
      </trkpt>
      <trkpt lat="41.8862630" lon="-2.8338230">
        <ele>1262.6</ele>
        <time>2022-01-30T09:54:32Z</time>
      </trkpt>
      <trkpt lat="41.8862350" lon="-2.8338050">
        <ele>1262.6</ele>
        <time>2022-01-30T09:54:33Z</time>
      </trkpt>
      <trkpt lat="41.8861980" lon="-2.8337820">
        <ele>1263.2</ele>
        <time>2022-01-30T09:54:34Z</time>
      </trkpt>
      <trkpt lat="41.8861570" lon="-2.8337750">
        <ele>1260.2</ele>
        <time>2022-01-30T09:54:35Z</time>
      </trkpt>
      <trkpt lat="41.8861130" lon="-2.8337770">
        <ele>1260.2</ele>
        <time>2022-01-30T09:54:36Z</time>
      </trkpt>
      <trkpt lat="41.8860700" lon="-2.8337900">
        <ele>1259.2</ele>
        <time>2022-01-30T09:54:37Z</time>
      </trkpt>
      <trkpt lat="41.8860330" lon="-2.8338180">
        <ele>1256.1</ele>
        <time>2022-01-30T09:54:38Z</time>
      </trkpt>
      <trkpt lat="41.8860030" lon="-2.8338550">
        <ele>1256.1</ele>
        <time>2022-01-30T09:54:39Z</time>
      </trkpt>
      <trkpt lat="41.8859750" lon="-2.8339000">
        <ele>1256.0</ele>
        <time>2022-01-30T09:54:40Z</time>
      </trkpt>
      <trkpt lat="41.8859370" lon="-2.8339550">
        <ele>1256.0</ele>
        <time>2022-01-30T09:54:41Z</time>
      </trkpt>
      <trkpt lat="41.8859130" lon="-2.8339970">
        <ele>1252.1</ele>
        <time>2022-01-30T09:54:42Z</time>
      </trkpt>
      <trkpt lat="41.8858850" lon="-2.8340730">
        <ele>1252.0</ele>
        <time>2022-01-30T09:54:43Z</time>
      </trkpt>
      <trkpt lat="41.8858680" lon="-2.8341450">
        <ele>1250.8</ele>
        <time>2022-01-30T09:54:44Z</time>
      </trkpt>
      <trkpt lat="41.8858520" lon="-2.8342200">
        <ele>1250.7</ele>
        <time>2022-01-30T09:54:45Z</time>
      </trkpt>
      <trkpt lat="41.8858430" lon="-2.8342880">
        <ele>1250.7</ele>
        <time>2022-01-30T09:54:46Z</time>
      </trkpt>
      <trkpt lat="41.8858420" lon="-2.8343670">
        <ele>1249.5</ele>
        <time>2022-01-30T09:54:47Z</time>
      </trkpt>
      <trkpt lat="41.8858470" lon="-2.8344370">
        <ele>1249.4</ele>
        <time>2022-01-30T09:54:48Z</time>
      </trkpt>
      <trkpt lat="41.8858620" lon="-2.8345050">
        <ele>1248.1</ele>
        <time>2022-01-30T09:54:49Z</time>
      </trkpt>
      <trkpt lat="41.8858900" lon="-2.8345850">
        <ele>1248.0</ele>
        <time>2022-01-30T09:54:50Z</time>
      </trkpt>
      <trkpt lat="41.8859130" lon="-2.8346380">
        <ele>1248.0</ele>
        <time>2022-01-30T09:54:51Z</time>
      </trkpt>
      <trkpt lat="41.8859330" lon="-2.8346900">
        <ele>1249.3</ele>
        <time>2022-01-30T09:54:52Z</time>
      </trkpt>
      <trkpt lat="41.8859570" lon="-2.8347530">
        <ele>1249.3</ele>
        <time>2022-01-30T09:54:53Z</time>
      </trkpt>
      <trkpt lat="41.8859730" lon="-2.8348050">
        <ele>1249.3</ele>
        <time>2022-01-30T09:54:54Z</time>
      </trkpt>
      <trkpt lat="41.8859780" lon="-2.8348550">
        <ele>1248.0</ele>
        <time>2022-01-30T09:54:55Z</time>
      </trkpt>
      <trkpt lat="41.8859920" lon="-2.8349220">
        <ele>1247.9</ele>
        <time>2022-01-30T09:54:56Z</time>
      </trkpt>
      <trkpt lat="41.8860050" lon="-2.8349970">
        <ele>1246.5</ele>
        <time>2022-01-30T09:54:57Z</time>
      </trkpt>
      <trkpt lat="41.8860170" lon="-2.8350700">
        <ele>1246.4</ele>
        <time>2022-01-30T09:54:58Z</time>
      </trkpt>
      <trkpt lat="41.8860280" lon="-2.8351400">
        <ele>1246.4</ele>
        <time>2022-01-30T09:54:59Z</time>
      </trkpt>
      <trkpt lat="41.8860430" lon="-2.8352200">
        <ele>1245.2</ele>
        <time>2022-01-30T09:55:00Z</time>
      </trkpt>
      <trkpt lat="41.8860580" lon="-2.8353020">
        <ele>1247.3</ele>
        <time>2022-01-30T09:55:01Z</time>
      </trkpt>
      <trkpt lat="41.8860750" lon="-2.8353820">
        <ele>1246.0</ele>
        <time>2022-01-30T09:55:02Z</time>
      </trkpt>
      <trkpt lat="41.8860920" lon="-2.8354670">
        <ele>1246.0</ele>
        <time>2022-01-30T09:55:03Z</time>
      </trkpt>
      <trkpt lat="41.8861020" lon="-2.8355470">
        <ele>1244.5</ele>
        <time>2022-01-30T09:55:04Z</time>
      </trkpt>
      <trkpt lat="41.8861150" lon="-2.8356300">
        <ele>1244.5</ele>
        <time>2022-01-30T09:55:05Z</time>
      </trkpt>
      <trkpt lat="41.8861350" lon="-2.8357350">
        <ele>1242.9</ele>
        <time>2022-01-30T09:55:06Z</time>
      </trkpt>
      <trkpt lat="41.8861520" lon="-2.8358100">
        <ele>1242.9</ele>
        <time>2022-01-30T09:55:07Z</time>
      </trkpt>
      <trkpt lat="41.8861780" lon="-2.8359170">
        <ele>1243.6</ele>
        <time>2022-01-30T09:55:08Z</time>
      </trkpt>
      <trkpt lat="41.8862020" lon="-2.8359900">
        <ele>1243.5</ele>
        <time>2022-01-30T09:55:09Z</time>
      </trkpt>
      <trkpt lat="41.8862320" lon="-2.8360820">
        <ele>1241.9</ele>
        <time>2022-01-30T09:55:10Z</time>
      </trkpt>
      <trkpt lat="41.8862580" lon="-2.8361630">
        <ele>1241.9</ele>
        <time>2022-01-30T09:55:11Z</time>
      </trkpt>
      <trkpt lat="41.8862770" lon="-2.8362480">
        <ele>1240.3</ele>
        <time>2022-01-30T09:55:12Z</time>
      </trkpt>
      <trkpt lat="41.8862850" lon="-2.8363470">
        <ele>1240.3</ele>
        <time>2022-01-30T09:55:13Z</time>
      </trkpt>
      <trkpt lat="41.8862870" lon="-2.8364370">
        <ele>1238.5</ele>
        <time>2022-01-30T09:55:14Z</time>
      </trkpt>
      <trkpt lat="41.8862830" lon="-2.8365270">
        <ele>1238.5</ele>
        <time>2022-01-30T09:55:15Z</time>
      </trkpt>
      <trkpt lat="41.8862770" lon="-2.8366100">
        <ele>1236.6</ele>
        <time>2022-01-30T09:55:16Z</time>
      </trkpt>
      <trkpt lat="41.8862720" lon="-2.8366870">
        <ele>1236.6</ele>
        <time>2022-01-30T09:55:17Z</time>
      </trkpt>
      <trkpt lat="41.8862600" lon="-2.8367620">
        <ele>1234.5</ele>
        <time>2022-01-30T09:55:18Z</time>
      </trkpt>
      <trkpt lat="41.8862470" lon="-2.8368380">
        <ele>1234.4</ele>
        <time>2022-01-30T09:55:19Z</time>
      </trkpt>
      <trkpt lat="41.8862270" lon="-2.8369130">
        <ele>1232.6</ele>
        <time>2022-01-30T09:55:20Z</time>
      </trkpt>
      <trkpt lat="41.8862030" lon="-2.8370030">
        <ele>1232.6</ele>
        <time>2022-01-30T09:55:21Z</time>
      </trkpt>
      <trkpt lat="41.8861830" lon="-2.8370800">
        <ele>1231.1</ele>
        <time>2022-01-30T09:55:22Z</time>
      </trkpt>
      <trkpt lat="41.8861650" lon="-2.8371430">
        <ele>1228.4</ele>
        <time>2022-01-30T09:55:23Z</time>
      </trkpt>
      <trkpt lat="41.8861450" lon="-2.8372270">
        <ele>1226.7</ele>
        <time>2022-01-30T09:55:24Z</time>
      </trkpt>
      <trkpt lat="41.8861270" lon="-2.8373130">
        <ele>1226.7</ele>
        <time>2022-01-30T09:55:25Z</time>
      </trkpt>
      <trkpt lat="41.8861020" lon="-2.8374100">
        <ele>1225.4</ele>
        <time>2022-01-30T09:55:26Z</time>
      </trkpt>
      <trkpt lat="41.8860800" lon="-2.8374720">
        <ele>1225.4</ele>
        <time>2022-01-30T09:55:27Z</time>
      </trkpt>
      <trkpt lat="41.8860520" lon="-2.8375380">
        <ele>1225.4</ele>
        <time>2022-01-30T09:55:28Z</time>
      </trkpt>
      <trkpt lat="41.8860200" lon="-2.8376020">
        <ele>1221.2</ele>
        <time>2022-01-30T09:55:29Z</time>
      </trkpt>
      <trkpt lat="41.8859920" lon="-2.8376350">
        <ele>1221.2</ele>
        <time>2022-01-30T09:55:30Z</time>
      </trkpt>
      <trkpt lat="41.8859630" lon="-2.8376480">
        <ele>1221.1</ele>
        <time>2022-01-30T09:55:31Z</time>
      </trkpt>
      <trkpt lat="41.8859380" lon="-2.8376530">
        <ele>1221.1</ele>
        <time>2022-01-30T09:55:32Z</time>
      </trkpt>
      <trkpt lat="41.8859080" lon="-2.8376370">
        <ele>1218.6</ele>
        <time>2022-01-30T09:55:33Z</time>
      </trkpt>
      <trkpt lat="41.8858780" lon="-2.8375980">
        <ele>1218.6</ele>
        <time>2022-01-30T09:55:34Z</time>
      </trkpt>
      <trkpt lat="41.8858350" lon="-2.8375180">
        <ele>1220.0</ele>
        <time>2022-01-30T09:55:35Z</time>
      </trkpt>
      <trkpt lat="41.8857930" lon="-2.8374500">
        <ele>1217.7</ele>
        <time>2022-01-30T09:55:36Z</time>
      </trkpt>
      <trkpt lat="41.8857550" lon="-2.8373770">
        <ele>1219.0</ele>
        <time>2022-01-30T09:55:37Z</time>
      </trkpt>
      <trkpt lat="41.8857070" lon="-2.8372880">
        <ele>1218.9</ele>
        <time>2022-01-30T09:55:38Z</time>
      </trkpt>
      <trkpt lat="41.8856630" lon="-2.8372230">
        <ele>1216.8</ele>
        <time>2022-01-30T09:55:39Z</time>
      </trkpt>
      <trkpt lat="41.8856280" lon="-2.8371680">
        <ele>1218.1</ele>
        <time>2022-01-30T09:55:40Z</time>
      </trkpt>
      <trkpt lat="41.8855880" lon="-2.8371130">
        <ele>1218.1</ele>
        <time>2022-01-30T09:55:41Z</time>
      </trkpt>
      <trkpt lat="41.8855430" lon="-2.8370330">
        <ele>1219.5</ele>
        <time>2022-01-30T09:55:42Z</time>
      </trkpt>
      <trkpt lat="41.8855080" lon="-2.8369620">
        <ele>1217.0</ele>
        <time>2022-01-30T09:55:43Z</time>
      </trkpt>
      <trkpt lat="41.8854730" lon="-2.8368930">
        <ele>1217.0</ele>
        <time>2022-01-30T09:55:44Z</time>
      </trkpt>
      <trkpt lat="41.8854420" lon="-2.8368230">
        <ele>1218.8</ele>
        <time>2022-01-30T09:55:45Z</time>
      </trkpt>
      <trkpt lat="41.8854220" lon="-2.8367780">
        <ele>1218.8</ele>
        <time>2022-01-30T09:55:46Z</time>
      </trkpt>
      <trkpt lat="41.8854000" lon="-2.8367070">
        <ele>1216.7</ele>
        <time>2022-01-30T09:55:47Z</time>
      </trkpt>
      <trkpt lat="41.8853830" lon="-2.8366620">
        <ele>1218.5</ele>
        <time>2022-01-30T09:55:48Z</time>
      </trkpt>
      <trkpt lat="41.8853670" lon="-2.8366230">
        <ele>1218.4</ele>
        <time>2022-01-30T09:55:49Z</time>
      </trkpt>
      <trkpt lat="41.8853570" lon="-2.8365930">
        <ele>1218.4</ele>
        <time>2022-01-30T09:55:50Z</time>
      </trkpt>
      <trkpt lat="41.8853400" lon="-2.8365430">
        <ele>1218.4</ele>
        <time>2022-01-30T09:55:51Z</time>
      </trkpt>
      <trkpt lat="41.8853270" lon="-2.8365180">
        <ele>1219.9</ele>
        <time>2022-01-30T09:55:52Z</time>
      </trkpt>
      <trkpt lat="41.8853150" lon="-2.8364830">
        <ele>1219.9</ele>
        <time>2022-01-30T09:55:53Z</time>
      </trkpt>
      <trkpt lat="41.8852980" lon="-2.8364470">
        <ele>1219.9</ele>
        <time>2022-01-30T09:55:54Z</time>
      </trkpt>
      <trkpt lat="41.8852870" lon="-2.8364120">
        <ele>1219.8</ele>
        <time>2022-01-30T09:55:55Z</time>
      </trkpt>
      <trkpt lat="41.8852770" lon="-2.8363850">
        <ele>1217.5</ele>
        <time>2022-01-30T09:55:56Z</time>
      </trkpt>
      <trkpt lat="41.8852670" lon="-2.8363580">
        <ele>1219.3</ele>
        <time>2022-01-30T09:55:57Z</time>
      </trkpt>
      <trkpt lat="41.8852550" lon="-2.8363300">
        <ele>1219.3</ele>
        <time>2022-01-30T09:55:58Z</time>
      </trkpt>
      <trkpt lat="41.8852430" lon="-2.8362950">
        <ele>1219.2</ele>
        <time>2022-01-30T09:55:59Z</time>
      </trkpt>
      <trkpt lat="41.8852350" lon="-2.8362650">
        <ele>1219.2</ele>
        <time>2022-01-30T09:56:00Z</time>
      </trkpt>
      <trkpt lat="41.8852300" lon="-2.8362350">
        <ele>1219.2</ele>
        <time>2022-01-30T09:56:01Z</time>
      </trkpt>
      <trkpt lat="41.8852270" lon="-2.8362030">
        <ele>1219.1</ele>
        <time>2022-01-30T09:56:02Z</time>
      </trkpt>
      <trkpt lat="41.8852200" lon="-2.8361720">
        <ele>1220.8</ele>
        <time>2022-01-30T09:56:03Z</time>
      </trkpt>
      <trkpt lat="41.8852100" lon="-2.8361420">
        <ele>1220.7</ele>
        <time>2022-01-30T09:56:04Z</time>
      </trkpt>
      <trkpt lat="41.8852000" lon="-2.8361070">
        <ele>1220.7</ele>
        <time>2022-01-30T09:56:05Z</time>
      </trkpt>
      <trkpt lat="41.8851900" lon="-2.8360750">
        <ele>1220.7</ele>
        <time>2022-01-30T09:56:06Z</time>
      </trkpt>
      <trkpt lat="41.8851780" lon="-2.8360470">
        <ele>1220.6</ele>
        <time>2022-01-30T09:56:07Z</time>
      </trkpt>
      <trkpt lat="41.8851670" lon="-2.8360170">
        <ele>1222.3</ele>
        <time>2022-01-30T09:56:08Z</time>
      </trkpt>
      <trkpt lat="41.8851580" lon="-2.8359920">
        <ele>1222.3</ele>
        <time>2022-01-30T09:56:09Z</time>
      </trkpt>
      <trkpt lat="41.8851450" lon="-2.8359620">
        <ele>1220.1</ele>
        <time>2022-01-30T09:56:10Z</time>
      </trkpt>
      <trkpt lat="41.8851320" lon="-2.8359370">
        <ele>1220.1</ele>
        <time>2022-01-30T09:56:11Z</time>
      </trkpt>
      <trkpt lat="41.8851200" lon="-2.8359050">
        <ele>1220.0</ele>
        <time>2022-01-30T09:56:12Z</time>
      </trkpt>
      <trkpt lat="41.8851070" lon="-2.8358770">
        <ele>1220.0</ele>
        <time>2022-01-30T09:56:13Z</time>
      </trkpt>
      <trkpt lat="41.8850970" lon="-2.8358520">
        <ele>1220.0</ele>
        <time>2022-01-30T09:56:14Z</time>
      </trkpt>
      <trkpt lat="41.8850820" lon="-2.8358220">
        <ele>1221.7</ele>
        <time>2022-01-30T09:56:15Z</time>
      </trkpt>
      <trkpt lat="41.8850680" lon="-2.8357900">
        <ele>1221.7</ele>
        <time>2022-01-30T09:56:16Z</time>
      </trkpt>
      <trkpt lat="41.8850520" lon="-2.8357480">
        <ele>1221.7</ele>
        <time>2022-01-30T09:56:17Z</time>
      </trkpt>
      <trkpt lat="41.8850350" lon="-2.8357130">
        <ele>1221.6</ele>
        <time>2022-01-30T09:56:18Z</time>
      </trkpt>
      <trkpt lat="41.8850180" lon="-2.8356780">
        <ele>1219.1</ele>
        <time>2022-01-30T09:56:19Z</time>
      </trkpt>
      <trkpt lat="41.8850020" lon="-2.8356400">
        <ele>1220.4</ele>
        <time>2022-01-30T09:56:20Z</time>
      </trkpt>
      <trkpt lat="41.8849900" lon="-2.8356070">
        <ele>1220.4</ele>
        <time>2022-01-30T09:56:21Z</time>
      </trkpt>
      <trkpt lat="41.8849770" lon="-2.8355700">
        <ele>1220.4</ele>
        <time>2022-01-30T09:56:22Z</time>
      </trkpt>
      <trkpt lat="41.8849720" lon="-2.8355470">
        <ele>1220.3</ele>
        <time>2022-01-30T09:56:23Z</time>
      </trkpt>
      <trkpt lat="41.8849580" lon="-2.8355100">
        <ele>1220.3</ele>
        <time>2022-01-30T09:56:24Z</time>
      </trkpt>
      <trkpt lat="41.8849470" lon="-2.8354780">
        <ele>1221.7</ele>
        <time>2022-01-30T09:56:25Z</time>
      </trkpt>
      <trkpt lat="41.8849370" lon="-2.8354480">
        <ele>1221.6</ele>
        <time>2022-01-30T09:56:26Z</time>
      </trkpt>
      <trkpt lat="41.8849220" lon="-2.8354220">
        <ele>1221.6</ele>
        <time>2022-01-30T09:56:27Z</time>
      </trkpt>
      <trkpt lat="41.8849080" lon="-2.8353950">
        <ele>1221.6</ele>
        <time>2022-01-30T09:56:28Z</time>
      </trkpt>
      <trkpt lat="41.8848930" lon="-2.8353630">
        <ele>1219.4</ele>
        <time>2022-01-30T09:56:29Z</time>
      </trkpt>
      <trkpt lat="41.8848720" lon="-2.8353270">
        <ele>1220.8</ele>
        <time>2022-01-30T09:56:30Z</time>
      </trkpt>
      <trkpt lat="41.8848520" lon="-2.8352870">
        <ele>1220.8</ele>
        <time>2022-01-30T09:56:31Z</time>
      </trkpt>
      <trkpt lat="41.8848330" lon="-2.8352380">
        <ele>1220.8</ele>
        <time>2022-01-30T09:56:32Z</time>
      </trkpt>
      <trkpt lat="41.8848180" lon="-2.8351930">
        <ele>1220.7</ele>
        <time>2022-01-30T09:56:33Z</time>
      </trkpt>
      <trkpt lat="41.8848050" lon="-2.8351470">
        <ele>1221.9</ele>
        <time>2022-01-30T09:56:34Z</time>
      </trkpt>
      <trkpt lat="41.8847980" lon="-2.8350970">
        <ele>1221.9</ele>
        <time>2022-01-30T09:56:35Z</time>
      </trkpt>
      <trkpt lat="41.8847950" lon="-2.8350500">
        <ele>1221.9</ele>
        <time>2022-01-30T09:56:36Z</time>
      </trkpt>
      <trkpt lat="41.8847920" lon="-2.8350050">
        <ele>1221.8</ele>
        <time>2022-01-30T09:56:37Z</time>
      </trkpt>
      <trkpt lat="41.8847850" lon="-2.8349580">
        <ele>1222.9</ele>
        <time>2022-01-30T09:56:38Z</time>
      </trkpt>
      <trkpt lat="41.8847800" lon="-2.8349170">
        <ele>1222.9</ele>
        <time>2022-01-30T09:56:39Z</time>
      </trkpt>
      <trkpt lat="41.8847750" lon="-2.8348720">
        <ele>1222.8</ele>
        <time>2022-01-30T09:56:40Z</time>
      </trkpt>
      <trkpt lat="41.8847680" lon="-2.8348280">
        <ele>1220.3</ele>
        <time>2022-01-30T09:56:41Z</time>
      </trkpt>
      <trkpt lat="41.8847630" lon="-2.8347850">
        <ele>1221.0</ele>
        <time>2022-01-30T09:56:42Z</time>
      </trkpt>
      <trkpt lat="41.8847600" lon="-2.8347450">
        <ele>1220.9</ele>
        <time>2022-01-30T09:56:43Z</time>
      </trkpt>
      <trkpt lat="41.8847570" lon="-2.8347050">
        <ele>1220.9</ele>
        <time>2022-01-30T09:56:44Z</time>
      </trkpt>
      <trkpt lat="41.8847530" lon="-2.8346630">
        <ele>1220.9</ele>
        <time>2022-01-30T09:56:45Z</time>
      </trkpt>
      <trkpt lat="41.8847480" lon="-2.8346230">
        <ele>1221.5</ele>
        <time>2022-01-30T09:56:46Z</time>
      </trkpt>
      <trkpt lat="41.8847420" lon="-2.8345830">
        <ele>1221.5</ele>
        <time>2022-01-30T09:56:47Z</time>
      </trkpt>
      <trkpt lat="41.8847300" lon="-2.8345430">
        <ele>1221.4</ele>
        <time>2022-01-30T09:56:48Z</time>
      </trkpt>
      <trkpt lat="41.8847070" lon="-2.8345000">
        <ele>1221.4</ele>
        <time>2022-01-30T09:56:49Z</time>
      </trkpt>
      <trkpt lat="41.8846680" lon="-2.8344600">
        <ele>1222.1</ele>
        <time>2022-01-30T09:56:50Z</time>
      </trkpt>
      <trkpt lat="41.8846180" lon="-2.8344300">
        <ele>1220.0</ele>
        <time>2022-01-30T09:56:51Z</time>
      </trkpt>
      <trkpt lat="41.8845630" lon="-2.8344180">
        <ele>1219.9</ele>
        <time>2022-01-30T09:56:52Z</time>
      </trkpt>
      <trkpt lat="41.8844980" lon="-2.8344170">
        <ele>1218.0</ele>
        <time>2022-01-30T09:56:53Z</time>
      </trkpt>
      <trkpt lat="41.8844300" lon="-2.8344370">
        <ele>1218.0</ele>
        <time>2022-01-30T09:56:54Z</time>
      </trkpt>
      <trkpt lat="41.8843650" lon="-2.8344670">
        <ele>1216.0</ele>
        <time>2022-01-30T09:56:55Z</time>
      </trkpt>
      <trkpt lat="41.8843000" lon="-2.8345020">
        <ele>1215.3</ele>
        <time>2022-01-30T09:56:56Z</time>
      </trkpt>
      <trkpt lat="41.8842450" lon="-2.8345320">
        <ele>1213.4</ele>
        <time>2022-01-30T09:56:57Z</time>
      </trkpt>
      <trkpt lat="41.8841970" lon="-2.8345600">
        <ele>1213.4</ele>
        <time>2022-01-30T09:56:58Z</time>
      </trkpt>
      <trkpt lat="41.8841570" lon="-2.8345820">
        <ele>1213.4</ele>
        <time>2022-01-30T09:56:59Z</time>
      </trkpt>
      <trkpt lat="41.8841220" lon="-2.8345980">
        <ele>1211.4</ele>
        <time>2022-01-30T09:57:00Z</time>
      </trkpt>
      <trkpt lat="41.8840850" lon="-2.8346100">
        <ele>1211.3</ele>
        <time>2022-01-30T09:57:01Z</time>
      </trkpt>
      <trkpt lat="41.8840470" lon="-2.8346100">
        <ele>1211.3</ele>
        <time>2022-01-30T09:57:02Z</time>
      </trkpt>
      <trkpt lat="41.8840270" lon="-2.8346320">
        <ele>1211.3</ele>
        <time>2022-01-30T09:57:03Z</time>
      </trkpt>
      <trkpt lat="41.8840100" lon="-2.8346350">
        <ele>1211.2</ele>
        <time>2022-01-30T09:57:04Z</time>
      </trkpt>
      <trkpt lat="41.8840030" lon="-2.8346430">
        <ele>1209.7</ele>
        <time>2022-01-30T09:57:05Z</time>
      </trkpt>
      <trkpt lat="41.8839950" lon="-2.8346520">
        <ele>1209.2</ele>
        <time>2022-01-30T09:57:06Z</time>
      </trkpt>
      <trkpt lat="41.8839920" lon="-2.8346480">
        <ele>1209.1</ele>
        <time>2022-01-30T09:57:07Z</time>
      </trkpt>
      <trkpt lat="41.8839870" lon="-2.8346700">
        <ele>1209.1</ele>
        <time>2022-01-30T09:57:08Z</time>
      </trkpt>
      <trkpt lat="41.8839820" lon="-2.8346950">
        <ele>1209.1</ele>
        <time>2022-01-30T09:57:09Z</time>
      </trkpt>
      <trkpt lat="41.8839780" lon="-2.8347200">
        <ele>1209.0</ele>
        <time>2022-01-30T09:57:10Z</time>
      </trkpt>
      <trkpt lat="41.8839770" lon="-2.8347250">
        <ele>1209.0</ele>
        <time>2022-01-30T09:57:11Z</time>
      </trkpt>
      <trkpt lat="41.8839800" lon="-2.8347170">
        <ele>1209.0</ele>
        <time>2022-01-30T09:57:12Z</time>
      </trkpt>
      <trkpt lat="41.8839800" lon="-2.8347080">
        <ele>1209.0</ele>
        <time>2022-01-30T09:57:13Z</time>
      </trkpt>
      <trkpt lat="41.8839800" lon="-2.8347030">
        <ele>1208.9</ele>
        <time>2022-01-30T09:57:14Z</time>
      </trkpt>
      <trkpt lat="41.8839800" lon="-2.8347050">
        <ele>1208.9</ele>
        <time>2022-01-30T09:57:15Z</time>
      </trkpt>
      <trkpt lat="41.8839800" lon="-2.8347100">
        <ele>1208.9</ele>
        <time>2022-01-30T09:57:16Z</time>
      </trkpt>
      <trkpt lat="41.8839770" lon="-2.8347150">
        <ele>1208.8</ele>
        <time>2022-01-30T09:57:17Z</time>
      </trkpt>
      <trkpt lat="41.8839750" lon="-2.8347220">
        <ele>1208.8</ele>
        <time>2022-01-30T09:57:18Z</time>
      </trkpt>
      <trkpt lat="41.8839730" lon="-2.8347270">
        <ele>1208.8</ele>
        <time>2022-01-30T09:57:19Z</time>
      </trkpt>
      <trkpt lat="41.8839680" lon="-2.8347300">
        <ele>1208.7</ele>
        <time>2022-01-30T09:57:20Z</time>
      </trkpt>
      <trkpt lat="41.8839620" lon="-2.8347280">
        <ele>1208.7</ele>
        <time>2022-01-30T09:57:21Z</time>
      </trkpt>
      <trkpt lat="41.8839550" lon="-2.8347250">
        <ele>1208.7</ele>
        <time>2022-01-30T09:57:22Z</time>
      </trkpt>
      <trkpt lat="41.8839520" lon="-2.8347250">
        <ele>1208.6</ele>
        <time>2022-01-30T09:57:23Z</time>
      </trkpt>
      <trkpt lat="41.8839470" lon="-2.8347270">
        <ele>1208.6</ele>
        <time>2022-01-30T09:57:24Z</time>
      </trkpt>
      <trkpt lat="41.8839430" lon="-2.8347320">
        <ele>1208.6</ele>
        <time>2022-01-30T09:57:25Z</time>
      </trkpt>
      <trkpt lat="41.8839420" lon="-2.8347320">
        <ele>1208.6</ele>
        <time>2022-01-30T09:57:26Z</time>
      </trkpt>
      <trkpt lat="41.8839400" lon="-2.8347280">
        <ele>1208.5</ele>
        <time>2022-01-30T09:57:27Z</time>
      </trkpt>
      <trkpt lat="41.8839400" lon="-2.8347370">
        <ele>1208.5</ele>
        <time>2022-01-30T09:57:28Z</time>
      </trkpt>
      <trkpt lat="41.8839350" lon="-2.8347430">
        <ele>1208.5</ele>
        <time>2022-01-30T09:57:29Z</time>
      </trkpt>
      <trkpt lat="41.8839230" lon="-2.8347450">
        <ele>1208.4</ele>
        <time>2022-01-30T09:57:30Z</time>
      </trkpt>
      <trkpt lat="41.8839080" lon="-2.8347320">
        <ele>1208.4</ele>
        <time>2022-01-30T09:57:31Z</time>
      </trkpt>
      <trkpt lat="41.8838970" lon="-2.8347250">
        <ele>1208.4</ele>
        <time>2022-01-30T09:57:32Z</time>
      </trkpt>
      <trkpt lat="41.8838830" lon="-2.8347200">
        <ele>1208.3</ele>
        <time>2022-01-30T09:57:33Z</time>
      </trkpt>
      <trkpt lat="41.8838720" lon="-2.8347130">
        <ele>1206.8</ele>
        <time>2022-01-30T09:57:34Z</time>
      </trkpt>
      <trkpt lat="41.8838620" lon="-2.8347020">
        <ele>1206.8</ele>
        <time>2022-01-30T09:57:35Z</time>
      </trkpt>
      <trkpt lat="41.8838520" lon="-2.8346830">
        <ele>1206.7</ele>
        <time>2022-01-30T09:57:36Z</time>
      </trkpt>
      <trkpt lat="41.8838380" lon="-2.8346630">
        <ele>1206.7</ele>
        <time>2022-01-30T09:57:37Z</time>
      </trkpt>
      <trkpt lat="41.8838270" lon="-2.8346370">
        <ele>1206.6</ele>
        <time>2022-01-30T09:57:38Z</time>
      </trkpt>
      <trkpt lat="41.8838120" lon="-2.8346080">
        <ele>1206.5</ele>
        <time>2022-01-30T09:57:39Z</time>
      </trkpt>
      <trkpt lat="41.8837900" lon="-2.8345850">
        <ele>1206.4</ele>
        <time>2022-01-30T09:57:40Z</time>
      </trkpt>
      <trkpt lat="41.8837620" lon="-2.8345650">
        <ele>1206.3</ele>
        <time>2022-01-30T09:57:41Z</time>
      </trkpt>
      <trkpt lat="41.8837280" lon="-2.8345430">
        <ele>1206.1</ele>
        <time>2022-01-30T09:57:42Z</time>
      </trkpt>
      <trkpt lat="41.8836930" lon="-2.8345250">
        <ele>1206.0</ele>
        <time>2022-01-30T09:57:43Z</time>
      </trkpt>
      <trkpt lat="41.8836600" lon="-2.8345080">
        <ele>1205.8</ele>
        <time>2022-01-30T09:57:44Z</time>
      </trkpt>
      <trkpt lat="41.8836350" lon="-2.8344920">
        <ele>1205.7</ele>
        <time>2022-01-30T09:57:45Z</time>
      </trkpt>
      <trkpt lat="41.8836150" lon="-2.8344680">
        <ele>1205.6</ele>
        <time>2022-01-30T09:57:46Z</time>
      </trkpt>
      <trkpt lat="41.8836030" lon="-2.8344400">
        <ele>1205.5</ele>
        <time>2022-01-30T09:57:47Z</time>
      </trkpt>
      <trkpt lat="41.8835930" lon="-2.8344120">
        <ele>1205.4</ele>
        <time>2022-01-30T09:57:48Z</time>
      </trkpt>
      <trkpt lat="41.8835780" lon="-2.8343730">
        <ele>1205.3</ele>
        <time>2022-01-30T09:57:49Z</time>
      </trkpt>
      <trkpt lat="41.8835720" lon="-2.8343380">
        <ele>1205.2</ele>
        <time>2022-01-30T09:57:50Z</time>
      </trkpt>
      <trkpt lat="41.8835650" lon="-2.8343050">
        <ele>1205.1</ele>
        <time>2022-01-30T09:57:51Z</time>
      </trkpt>
      <trkpt lat="41.8835600" lon="-2.8342850">
        <ele>1205.0</ele>
        <time>2022-01-30T09:57:52Z</time>
      </trkpt>
      <trkpt lat="41.8835530" lon="-2.8342620">
        <ele>1204.9</ele>
        <time>2022-01-30T09:57:53Z</time>
      </trkpt>
      <trkpt lat="41.8835530" lon="-2.8342330">
        <ele>1204.8</ele>
        <time>2022-01-30T09:57:54Z</time>
      </trkpt>
      <trkpt lat="41.8835530" lon="-2.8342130">
        <ele>1204.8</ele>
        <time>2022-01-30T09:57:55Z</time>
      </trkpt>
      <trkpt lat="41.8835500" lon="-2.8341900">
        <ele>1204.7</ele>
        <time>2022-01-30T09:57:56Z</time>
      </trkpt>
      <trkpt lat="41.8835550" lon="-2.8341650">
        <ele>1204.6</ele>
        <time>2022-01-30T09:57:57Z</time>
      </trkpt>
      <trkpt lat="41.8835580" lon="-2.8341370">
        <ele>1204.5</ele>
        <time>2022-01-30T09:57:58Z</time>
      </trkpt>
      <trkpt lat="41.8835680" lon="-2.8341100">
        <ele>1204.5</ele>
        <time>2022-01-30T09:57:59Z</time>
      </trkpt>
      <trkpt lat="41.8835600" lon="-2.8340830">
        <ele>1204.4</ele>
        <time>2022-01-30T09:58:00Z</time>
      </trkpt>
      <trkpt lat="41.8835600" lon="-2.8340650">
        <ele>1204.3</ele>
        <time>2022-01-30T09:58:01Z</time>
      </trkpt>
      <trkpt lat="41.8835430" lon="-2.8340520">
        <ele>1204.3</ele>
        <time>2022-01-30T09:58:02Z</time>
      </trkpt>
      <trkpt lat="41.8835300" lon="-2.8340330">
        <ele>1204.2</ele>
        <time>2022-01-30T09:58:03Z</time>
      </trkpt>
      <trkpt lat="41.8835250" lon="-2.8340170">
        <ele>1204.2</ele>
        <time>2022-01-30T09:58:04Z</time>
      </trkpt>
      <trkpt lat="41.8835200" lon="-2.8339970">
        <ele>1204.1</ele>
        <time>2022-01-30T09:58:05Z</time>
      </trkpt>
      <trkpt lat="41.8835170" lon="-2.8339770">
        <ele>1204.1</ele>
        <time>2022-01-30T09:58:06Z</time>
      </trkpt>
      <trkpt lat="41.8835130" lon="-2.8339580">
        <ele>1204.0</ele>
        <time>2022-01-30T09:58:07Z</time>
      </trkpt>
      <trkpt lat="41.8835080" lon="-2.8339400">
        <ele>1204.0</ele>
        <time>2022-01-30T09:58:08Z</time>
      </trkpt>
      <trkpt lat="41.8835020" lon="-2.8339200">
        <ele>1203.9</ele>
        <time>2022-01-30T09:58:09Z</time>
      </trkpt>
      <trkpt lat="41.8834970" lon="-2.8339000">
        <ele>1203.9</ele>
        <time>2022-01-30T09:58:10Z</time>
      </trkpt>
      <trkpt lat="41.8834950" lon="-2.8338780">
        <ele>1203.8</ele>
        <time>2022-01-30T09:58:11Z</time>
      </trkpt>
      <trkpt lat="41.8834920" lon="-2.8338570">
        <ele>1203.7</ele>
        <time>2022-01-30T09:58:12Z</time>
      </trkpt>
      <trkpt lat="41.8834880" lon="-2.8338350">
        <ele>1203.7</ele>
        <time>2022-01-30T09:58:13Z</time>
      </trkpt>
      <trkpt lat="41.8834830" lon="-2.8338150">
        <ele>1203.6</ele>
        <time>2022-01-30T09:58:14Z</time>
      </trkpt>
      <trkpt lat="41.8834770" lon="-2.8338000">
        <ele>1203.6</ele>
        <time>2022-01-30T09:58:15Z</time>
      </trkpt>
      <trkpt lat="41.8834680" lon="-2.8337820">
        <ele>1203.5</ele>
        <time>2022-01-30T09:58:16Z</time>
      </trkpt>
      <trkpt lat="41.8834570" lon="-2.8337720">
        <ele>1203.5</ele>
        <time>2022-01-30T09:58:17Z</time>
      </trkpt>
      <trkpt lat="41.8834450" lon="-2.8337670">
        <ele>1203.4</ele>
        <time>2022-01-30T09:58:18Z</time>
      </trkpt>
      <trkpt lat="41.8834350" lon="-2.8337630">
        <ele>1203.4</ele>
        <time>2022-01-30T09:58:19Z</time>
      </trkpt>
      <trkpt lat="41.8834270" lon="-2.8337600">
        <ele>1203.4</ele>
        <time>2022-01-30T09:58:20Z</time>
      </trkpt>
      <trkpt lat="41.8834120" lon="-2.8337630">
        <ele>1203.3</ele>
        <time>2022-01-30T09:58:21Z</time>
      </trkpt>
      <trkpt lat="41.8833880" lon="-2.8337750">
        <ele>1203.2</ele>
        <time>2022-01-30T09:58:22Z</time>
      </trkpt>
      <trkpt lat="41.8833620" lon="-2.8337920">
        <ele>1203.1</ele>
        <time>2022-01-30T09:58:23Z</time>
      </trkpt>
      <trkpt lat="41.8833280" lon="-2.8338130">
        <ele>1203.0</ele>
        <time>2022-01-30T09:58:24Z</time>
      </trkpt>
      <trkpt lat="41.8832920" lon="-2.8338420">
        <ele>1202.8</ele>
        <time>2022-01-30T09:58:25Z</time>
      </trkpt>
      <trkpt lat="41.8832520" lon="-2.8338720">
        <ele>1202.6</ele>
        <time>2022-01-30T09:58:26Z</time>
      </trkpt>
      <trkpt lat="41.8832100" lon="-2.8339070">
        <ele>1202.4</ele>
        <time>2022-01-30T09:58:27Z</time>
      </trkpt>
      <trkpt lat="41.8831630" lon="-2.8339350">
        <ele>1202.2</ele>
        <time>2022-01-30T09:58:28Z</time>
      </trkpt>
      <trkpt lat="41.8831130" lon="-2.8339570">
        <ele>1202.0</ele>
        <time>2022-01-30T09:58:29Z</time>
      </trkpt>
      <trkpt lat="41.8830630" lon="-2.8339820">
        <ele>1201.8</ele>
        <time>2022-01-30T09:58:30Z</time>
      </trkpt>
      <trkpt lat="41.8830150" lon="-2.8340100">
        <ele>1201.5</ele>
        <time>2022-01-30T09:58:31Z</time>
      </trkpt>
      <trkpt lat="41.8829680" lon="-2.8340400">
        <ele>1201.3</ele>
        <time>2022-01-30T09:58:32Z</time>
      </trkpt>
      <trkpt lat="41.8829200" lon="-2.8340630">
        <ele>1200.9</ele>
        <time>2022-01-30T09:58:33Z</time>
      </trkpt>
      <trkpt lat="41.8828720" lon="-2.8340720">
        <ele>1200.6</ele>
        <time>2022-01-30T09:58:34Z</time>
      </trkpt>
      <trkpt lat="41.8828180" lon="-2.8340670">
        <ele>1200.2</ele>
        <time>2022-01-30T09:58:35Z</time>
      </trkpt>
      <trkpt lat="41.8827630" lon="-2.8340550">
        <ele>1199.7</ele>
        <time>2022-01-30T09:58:36Z</time>
      </trkpt>
      <trkpt lat="41.8827050" lon="-2.8340320">
        <ele>1199.3</ele>
        <time>2022-01-30T09:58:37Z</time>
      </trkpt>
      <trkpt lat="41.8826470" lon="-2.8340000">
        <ele>1198.9</ele>
        <time>2022-01-30T09:58:38Z</time>
      </trkpt>
      <trkpt lat="41.8825900" lon="-2.8339650">
        <ele>1198.5</ele>
        <time>2022-01-30T09:58:39Z</time>
      </trkpt>
      <trkpt lat="41.8825320" lon="-2.8339300">
        <ele>1198.1</ele>
        <time>2022-01-30T09:58:40Z</time>
      </trkpt>
      <trkpt lat="41.8824730" lon="-2.8339000">
        <ele>1197.5</ele>
        <time>2022-01-30T09:58:41Z</time>
      </trkpt>
      <trkpt lat="41.8824130" lon="-2.8338750">
        <ele>1197.0</ele>
        <time>2022-01-30T09:58:42Z</time>
      </trkpt>
      <trkpt lat="41.8823520" lon="-2.8338470">
        <ele>1196.4</ele>
        <time>2022-01-30T09:58:43Z</time>
      </trkpt>
      <trkpt lat="41.8822900" lon="-2.8338130">
        <ele>1195.9</ele>
        <time>2022-01-30T09:58:44Z</time>
      </trkpt>
      <trkpt lat="41.8822250" lon="-2.8337830">
        <ele>1195.3</ele>
        <time>2022-01-30T09:58:45Z</time>
      </trkpt>
      <trkpt lat="41.8821570" lon="-2.8337620">
        <ele>1194.8</ele>
        <time>2022-01-30T09:58:46Z</time>
      </trkpt>
      <trkpt lat="41.8820830" lon="-2.8337520">
        <ele>1194.2</ele>
        <time>2022-01-30T09:58:47Z</time>
      </trkpt>
      <trkpt lat="41.8820100" lon="-2.8337500">
        <ele>1193.6</ele>
        <time>2022-01-30T09:58:48Z</time>
      </trkpt>
      <trkpt lat="41.8819330" lon="-2.8337500">
        <ele>1192.9</ele>
        <time>2022-01-30T09:58:49Z</time>
      </trkpt>
      <trkpt lat="41.8818580" lon="-2.8337470">
        <ele>1192.3</ele>
        <time>2022-01-30T09:58:50Z</time>
      </trkpt>
      <trkpt lat="41.8817900" lon="-2.8337400">
        <ele>1191.6</ele>
        <time>2022-01-30T09:58:51Z</time>
      </trkpt>
      <trkpt lat="41.8817270" lon="-2.8337300">
        <ele>1191.0</ele>
        <time>2022-01-30T09:58:52Z</time>
      </trkpt>
      <trkpt lat="41.8816670" lon="-2.8337270">
        <ele>1190.5</ele>
        <time>2022-01-30T09:58:53Z</time>
      </trkpt>
      <trkpt lat="41.8816120" lon="-2.8337370">
        <ele>1190.0</ele>
        <time>2022-01-30T09:58:54Z</time>
      </trkpt>
      <trkpt lat="41.8815580" lon="-2.8337670">
        <ele>1189.6</ele>
        <time>2022-01-30T09:58:55Z</time>
      </trkpt>
      <trkpt lat="41.8815030" lon="-2.8338130">
        <ele>1189.0</ele>
        <time>2022-01-30T09:58:56Z</time>
      </trkpt>
      <trkpt lat="41.8814450" lon="-2.8338600">
        <ele>1188.5</ele>
        <time>2022-01-30T09:58:57Z</time>
      </trkpt>
      <trkpt lat="41.8813780" lon="-2.8338930">
        <ele>1187.9</ele>
        <time>2022-01-30T09:58:58Z</time>
      </trkpt>
      <trkpt lat="41.8813100" lon="-2.8339130">
        <ele>1187.4</ele>
        <time>2022-01-30T09:58:59Z</time>
      </trkpt>
      <trkpt lat="41.8812400" lon="-2.8339320">
        <ele>1186.9</ele>
        <time>2022-01-30T09:59:00Z</time>
      </trkpt>
      <trkpt lat="41.8811700" lon="-2.8339520">
        <ele>1186.5</ele>
        <time>2022-01-30T09:59:01Z</time>
      </trkpt>
      <trkpt lat="41.8811130" lon="-2.8339720">
        <ele>1186.2</ele>
        <time>2022-01-30T09:59:02Z</time>
      </trkpt>
      <trkpt lat="41.8810270" lon="-2.8340070">
        <ele>1185.8</ele>
        <time>2022-01-30T09:59:03Z</time>
      </trkpt>
      <trkpt lat="41.8809530" lon="-2.8340270">
        <ele>1185.3</ele>
        <time>2022-01-30T09:59:04Z</time>
      </trkpt>
      <trkpt lat="41.8808830" lon="-2.8340280">
        <ele>1184.8</ele>
        <time>2022-01-30T09:59:05Z</time>
      </trkpt>
      <trkpt lat="41.8808130" lon="-2.8340070">
        <ele>1184.1</ele>
        <time>2022-01-30T09:59:06Z</time>
      </trkpt>
      <trkpt lat="41.8807430" lon="-2.8339630">
        <ele>1183.5</ele>
        <time>2022-01-30T09:59:07Z</time>
      </trkpt>
      <trkpt lat="41.8806770" lon="-2.8339150">
        <ele>1183.1</ele>
        <time>2022-01-30T09:59:08Z</time>
      </trkpt>
      <trkpt lat="41.8806150" lon="-2.8338730">
        <ele>1182.9</ele>
        <time>2022-01-30T09:59:09Z</time>
      </trkpt>
      <trkpt lat="41.8805580" lon="-2.8338380">
        <ele>1182.7</ele>
        <time>2022-01-30T09:59:10Z</time>
      </trkpt>
      <trkpt lat="41.8805070" lon="-2.8338150">
        <ele>1182.5</ele>
        <time>2022-01-30T09:59:11Z</time>
      </trkpt>
      <trkpt lat="41.8804630" lon="-2.8338180">
        <ele>1182.4</ele>
        <time>2022-01-30T09:59:12Z</time>
      </trkpt>
      <trkpt lat="41.8804250" lon="-2.8338400">
        <ele>1182.3</ele>
        <time>2022-01-30T09:59:13Z</time>
      </trkpt>
      <trkpt lat="41.8803950" lon="-2.8338750">
        <ele>1182.2</ele>
        <time>2022-01-30T09:59:14Z</time>
      </trkpt>
      <trkpt lat="41.8803670" lon="-2.8339230">
        <ele>1182.0</ele>
        <time>2022-01-30T09:59:15Z</time>
      </trkpt>
      <trkpt lat="41.8803430" lon="-2.8339730">
        <ele>1181.9</ele>
        <time>2022-01-30T09:59:16Z</time>
      </trkpt>
      <trkpt lat="41.8803200" lon="-2.8340270">
        <ele>1181.7</ele>
        <time>2022-01-30T09:59:17Z</time>
      </trkpt>
      <trkpt lat="41.8802950" lon="-2.8340780">
        <ele>1181.5</ele>
        <time>2022-01-30T09:59:18Z</time>
      </trkpt>
      <trkpt lat="41.8802700" lon="-2.8341320">
        <ele>1181.3</ele>
        <time>2022-01-30T09:59:19Z</time>
      </trkpt>
      <trkpt lat="41.8802470" lon="-2.8341800">
        <ele>1181.1</ele>
        <time>2022-01-30T09:59:20Z</time>
      </trkpt>
      <trkpt lat="41.8802220" lon="-2.8342280">
        <ele>1180.8</ele>
        <time>2022-01-30T09:59:21Z</time>
      </trkpt>
      <trkpt lat="41.8801970" lon="-2.8342700">
        <ele>1180.5</ele>
        <time>2022-01-30T09:59:22Z</time>
      </trkpt>
      <trkpt lat="41.8801720" lon="-2.8343130">
        <ele>1180.2</ele>
        <time>2022-01-30T09:59:23Z</time>
      </trkpt>
      <trkpt lat="41.8801500" lon="-2.8343580">
        <ele>1179.9</ele>
        <time>2022-01-30T09:59:24Z</time>
      </trkpt>
      <trkpt lat="41.8801270" lon="-2.8344070">
        <ele>1179.5</ele>
        <time>2022-01-30T09:59:25Z</time>
      </trkpt>
      <trkpt lat="41.8801030" lon="-2.8344630">
        <ele>1179.2</ele>
        <time>2022-01-30T09:59:26Z</time>
      </trkpt>
      <trkpt lat="41.8800730" lon="-2.8345230">
        <ele>1178.8</ele>
        <time>2022-01-30T09:59:27Z</time>
      </trkpt>
      <trkpt lat="41.8800370" lon="-2.8345830">
        <ele>1178.4</ele>
        <time>2022-01-30T09:59:28Z</time>
      </trkpt>
      <trkpt lat="41.8799970" lon="-2.8346450">
        <ele>1178.1</ele>
        <time>2022-01-30T09:59:29Z</time>
      </trkpt>
      <trkpt lat="41.8799530" lon="-2.8347070">
        <ele>1177.6</ele>
        <time>2022-01-30T09:59:30Z</time>
      </trkpt>
      <trkpt lat="41.8799130" lon="-2.8347680">
        <ele>1177.1</ele>
        <time>2022-01-30T09:59:31Z</time>
      </trkpt>
      <trkpt lat="41.8798730" lon="-2.8348400">
        <ele>1176.6</ele>
        <time>2022-01-30T09:59:32Z</time>
      </trkpt>
      <trkpt lat="41.8798330" lon="-2.8349130">
        <ele>1176.1</ele>
        <time>2022-01-30T09:59:33Z</time>
      </trkpt>
      <trkpt lat="41.8797900" lon="-2.8349920">
        <ele>1175.6</ele>
        <time>2022-01-30T09:59:34Z</time>
      </trkpt>
      <trkpt lat="41.8797470" lon="-2.8350720">
        <ele>1175.0</ele>
        <time>2022-01-30T09:59:35Z</time>
      </trkpt>
      <trkpt lat="41.8797030" lon="-2.8351570">
        <ele>1174.4</ele>
        <time>2022-01-30T09:59:36Z</time>
      </trkpt>
      <trkpt lat="41.8796670" lon="-2.8352450">
        <ele>1173.7</ele>
        <time>2022-01-30T09:59:37Z</time>
      </trkpt>
      <trkpt lat="41.8796400" lon="-2.8353330">
        <ele>1173.0</ele>
        <time>2022-01-30T09:59:38Z</time>
      </trkpt>
      <trkpt lat="41.8796330" lon="-2.8354180">
        <ele>1172.2</ele>
        <time>2022-01-30T09:59:39Z</time>
      </trkpt>
      <trkpt lat="41.8796400" lon="-2.8355030">
        <ele>1171.4</ele>
        <time>2022-01-30T09:59:40Z</time>
      </trkpt>
      <trkpt lat="41.8796620" lon="-2.8355780">
        <ele>1170.7</ele>
        <time>2022-01-30T09:59:41Z</time>
      </trkpt>
      <trkpt lat="41.8796880" lon="-2.8356520">
        <ele>1170.1</ele>
        <time>2022-01-30T09:59:42Z</time>
      </trkpt>
      <trkpt lat="41.8797270" lon="-2.8357300">
        <ele>1169.4</ele>
        <time>2022-01-30T09:59:43Z</time>
      </trkpt>
      <trkpt lat="41.8797580" lon="-2.8358130">
        <ele>1168.7</ele>
        <time>2022-01-30T09:59:44Z</time>
      </trkpt>
      <trkpt lat="41.8797850" lon="-2.8358970">
        <ele>1168.1</ele>
        <time>2022-01-30T09:59:45Z</time>
      </trkpt>
      <trkpt lat="41.8798120" lon="-2.8359800">
        <ele>1167.6</ele>
        <time>2022-01-30T09:59:46Z</time>
      </trkpt>
      <trkpt lat="41.8798320" lon="-2.8360670">
        <ele>1167.0</ele>
        <time>2022-01-30T09:59:47Z</time>
      </trkpt>
      <trkpt lat="41.8798600" lon="-2.8361570">
        <ele>1166.4</ele>
        <time>2022-01-30T09:59:48Z</time>
      </trkpt>
      <trkpt lat="41.8798880" lon="-2.8362330">
        <ele>1166.0</ele>
        <time>2022-01-30T09:59:49Z</time>
      </trkpt>
      <trkpt lat="41.8799220" lon="-2.8363100">
        <ele>1165.5</ele>
        <time>2022-01-30T09:59:50Z</time>
      </trkpt>
      <trkpt lat="41.8799570" lon="-2.8363870">
        <ele>1165.0</ele>
        <time>2022-01-30T09:59:51Z</time>
      </trkpt>
      <trkpt lat="41.8799900" lon="-2.8364580">
        <ele>1164.4</ele>
        <time>2022-01-30T09:59:52Z</time>
      </trkpt>
      <trkpt lat="41.8800180" lon="-2.8365280">
        <ele>1163.9</ele>
        <time>2022-01-30T09:59:53Z</time>
      </trkpt>
      <trkpt lat="41.8800450" lon="-2.8365970">
        <ele>1163.4</ele>
        <time>2022-01-30T09:59:54Z</time>
      </trkpt>
      <trkpt lat="41.8800720" lon="-2.8366650">
        <ele>1163.0</ele>
        <time>2022-01-30T09:59:55Z</time>
      </trkpt>
      <trkpt lat="41.8800920" lon="-2.8367380">
        <ele>1162.5</ele>
        <time>2022-01-30T09:59:56Z</time>
      </trkpt>
      <trkpt lat="41.8801150" lon="-2.8368180">
        <ele>1162.0</ele>
        <time>2022-01-30T09:59:57Z</time>
      </trkpt>
      <trkpt lat="41.8801400" lon="-2.8369050">
        <ele>1161.6</ele>
        <time>2022-01-30T09:59:58Z</time>
      </trkpt>
      <trkpt lat="41.8801670" lon="-2.8369870">
        <ele>1161.3</ele>
        <time>2022-01-30T09:59:59Z</time>
      </trkpt>
      <trkpt lat="41.8801930" lon="-2.8370620">
        <ele>1161.1</ele>
        <time>2022-01-30T10:00:00Z</time>
      </trkpt>
      <trkpt lat="41.8802220" lon="-2.8371370">
        <ele>1160.9</ele>
        <time>2022-01-30T10:00:01Z</time>
      </trkpt>
      <trkpt lat="41.8802520" lon="-2.8372080">
        <ele>1160.6</ele>
        <time>2022-01-30T10:00:02Z</time>
      </trkpt>
      <trkpt lat="41.8802750" lon="-2.8372830">
        <ele>1160.3</ele>
        <time>2022-01-30T10:00:03Z</time>
      </trkpt>
      <trkpt lat="41.8802980" lon="-2.8373600">
        <ele>1160.0</ele>
        <time>2022-01-30T10:00:04Z</time>
      </trkpt>
      <trkpt lat="41.8803220" lon="-2.8374520">
        <ele>1159.5</ele>
        <time>2022-01-30T10:00:05Z</time>
      </trkpt>
      <trkpt lat="41.8803380" lon="-2.8375430">
        <ele>1159.0</ele>
        <time>2022-01-30T10:00:06Z</time>
      </trkpt>
      <trkpt lat="41.8803570" lon="-2.8376350">
        <ele>1158.5</ele>
        <time>2022-01-30T10:00:07Z</time>
      </trkpt>
      <trkpt lat="41.8803800" lon="-2.8377350">
        <ele>1158.0</ele>
        <time>2022-01-30T10:00:08Z</time>
      </trkpt>
      <trkpt lat="41.8804080" lon="-2.8378330">
        <ele>1157.7</ele>
        <time>2022-01-30T10:00:09Z</time>
      </trkpt>
      <trkpt lat="41.8804420" lon="-2.8379280">
        <ele>1157.4</ele>
        <time>2022-01-30T10:00:10Z</time>
      </trkpt>
      <trkpt lat="41.8804700" lon="-2.8380200">
        <ele>1157.1</ele>
        <time>2022-01-30T10:00:11Z</time>
      </trkpt>
      <trkpt lat="41.8804950" lon="-2.8381070">
        <ele>1156.9</ele>
        <time>2022-01-30T10:00:12Z</time>
      </trkpt>
      <trkpt lat="41.8805020" lon="-2.8382000">
        <ele>1156.6</ele>
        <time>2022-01-30T10:00:13Z</time>
      </trkpt>
      <trkpt lat="41.8805170" lon="-2.8382900">
        <ele>1156.4</ele>
        <time>2022-01-30T10:00:14Z</time>
      </trkpt>
      <trkpt lat="41.8805350" lon="-2.8383780">
        <ele>1156.3</ele>
        <time>2022-01-30T10:00:15Z</time>
      </trkpt>
      <trkpt lat="41.8805550" lon="-2.8384550">
        <ele>1156.2</ele>
        <time>2022-01-30T10:00:16Z</time>
      </trkpt>
      <trkpt lat="41.8805700" lon="-2.8385270">
        <ele>1156.1</ele>
        <time>2022-01-30T10:00:17Z</time>
      </trkpt>
      <trkpt lat="41.8805870" lon="-2.8385920">
        <ele>1156.0</ele>
        <time>2022-01-30T10:00:18Z</time>
      </trkpt>
      <trkpt lat="41.8806000" lon="-2.8386520">
        <ele>1155.9</ele>
        <time>2022-01-30T10:00:19Z</time>
      </trkpt>
      <trkpt lat="41.8806200" lon="-2.8387020">
        <ele>1155.9</ele>
        <time>2022-01-30T10:00:20Z</time>
      </trkpt>
      <trkpt lat="41.8806370" lon="-2.8387430">
        <ele>1155.8</ele>
        <time>2022-01-30T10:00:21Z</time>
      </trkpt>
      <trkpt lat="41.8806570" lon="-2.8387820">
        <ele>1155.7</ele>
        <time>2022-01-30T10:00:22Z</time>
      </trkpt>
      <trkpt lat="41.8806720" lon="-2.8388050">
        <ele>1155.7</ele>
        <time>2022-01-30T10:00:23Z</time>
      </trkpt>
      <trkpt lat="41.8806850" lon="-2.8388200">
        <ele>1155.6</ele>
        <time>2022-01-30T10:00:24Z</time>
      </trkpt>
      <trkpt lat="41.8807050" lon="-2.8388220">
        <ele>1155.6</ele>
        <time>2022-01-30T10:00:25Z</time>
      </trkpt>
      <trkpt lat="41.8807200" lon="-2.8388250">
        <ele>1155.6</ele>
        <time>2022-01-30T10:00:26Z</time>
      </trkpt>
      <trkpt lat="41.8807300" lon="-2.8388480">
        <ele>1155.6</ele>
        <time>2022-01-30T10:00:27Z</time>
      </trkpt>
      <trkpt lat="41.8807480" lon="-2.8388670">
        <ele>1155.6</ele>
        <time>2022-01-30T10:00:28Z</time>
      </trkpt>
      <trkpt lat="41.8807520" lon="-2.8388830">
        <ele>1155.6</ele>
        <time>2022-01-30T10:00:29Z</time>
      </trkpt>
      <trkpt lat="41.8807480" lon="-2.8388880">
        <ele>1155.6</ele>
        <time>2022-01-30T10:00:30Z</time>
      </trkpt>
      <trkpt lat="41.8807520" lon="-2.8388920">
        <ele>1155.6</ele>
        <time>2022-01-30T10:00:31Z</time>
      </trkpt>
      <trkpt lat="41.8807630" lon="-2.8389000">
        <ele>1155.7</ele>
        <time>2022-01-30T10:00:32Z</time>
      </trkpt>
      <trkpt lat="41.8807750" lon="-2.8389080">
        <ele>1155.7</ele>
        <time>2022-01-30T10:00:33Z</time>
      </trkpt>
      <trkpt lat="41.8807820" lon="-2.8389080">
        <ele>1155.8</ele>
        <time>2022-01-30T10:00:34Z</time>
      </trkpt>
      <trkpt lat="41.8807920" lon="-2.8389350">
        <ele>1156.0</ele>
        <time>2022-01-30T10:00:35Z</time>
      </trkpt>
      <trkpt lat="41.8807980" lon="-2.8389750">
        <ele>1156.3</ele>
        <time>2022-01-30T10:00:36Z</time>
      </trkpt>
      <trkpt lat="41.8808050" lon="-2.8390180">
        <ele>1156.8</ele>
        <time>2022-01-30T10:00:37Z</time>
      </trkpt>
      <trkpt lat="41.8808170" lon="-2.8390530">
        <ele>1157.3</ele>
        <time>2022-01-30T10:00:38Z</time>
      </trkpt>
      <trkpt lat="41.8808200" lon="-2.8390880">
        <ele>1157.8</ele>
        <time>2022-01-30T10:00:39Z</time>
      </trkpt>
      <trkpt lat="41.8808220" lon="-2.8391100">
        <ele>1158.1</ele>
        <time>2022-01-30T10:00:40Z</time>
      </trkpt>
      <trkpt lat="41.8808250" lon="-2.8391270">
        <ele>1158.3</ele>
        <time>2022-01-30T10:00:41Z</time>
      </trkpt>
      <trkpt lat="41.8808300" lon="-2.8391420">
        <ele>1158.5</ele>
        <time>2022-01-30T10:00:42Z</time>
      </trkpt>
      <trkpt lat="41.8808400" lon="-2.8391620">
        <ele>1158.8</ele>
        <time>2022-01-30T10:00:43Z</time>
      </trkpt>
      <trkpt lat="41.8808480" lon="-2.8391780">
        <ele>1159.1</ele>
        <time>2022-01-30T10:00:44Z</time>
      </trkpt>
      <trkpt lat="41.8808500" lon="-2.8391950">
        <ele>1159.3</ele>
        <time>2022-01-30T10:00:45Z</time>
      </trkpt>
      <trkpt lat="41.8808470" lon="-2.8392150">
        <ele>1159.5</ele>
        <time>2022-01-30T10:00:46Z</time>
      </trkpt>
      <trkpt lat="41.8808480" lon="-2.8392300">
        <ele>1159.7</ele>
        <time>2022-01-30T10:00:47Z</time>
      </trkpt>
      <trkpt lat="41.8808520" lon="-2.8392500">
        <ele>1159.9</ele>
        <time>2022-01-30T10:00:48Z</time>
      </trkpt>
      <trkpt lat="41.8808570" lon="-2.8392680">
        <ele>1160.1</ele>
        <time>2022-01-30T10:00:49Z</time>
      </trkpt>
      <trkpt lat="41.8808650" lon="-2.8392900">
        <ele>1160.4</ele>
        <time>2022-01-30T10:00:50Z</time>
      </trkpt>
      <trkpt lat="41.8808770" lon="-2.8393150">
        <ele>1160.7</ele>
        <time>2022-01-30T10:00:51Z</time>
      </trkpt>
      <trkpt lat="41.8808850" lon="-2.8393420">
        <ele>1161.0</ele>
        <time>2022-01-30T10:00:52Z</time>
      </trkpt>
      <trkpt lat="41.8808950" lon="-2.8393580">
        <ele>1161.2</ele>
        <time>2022-01-30T10:00:53Z</time>
      </trkpt>
      <trkpt lat="41.8809020" lon="-2.8393770">
        <ele>1161.4</ele>
        <time>2022-01-30T10:00:54Z</time>
      </trkpt>
      <trkpt lat="41.8809100" lon="-2.8393950">
        <ele>1161.6</ele>
        <time>2022-01-30T10:00:55Z</time>
      </trkpt>
      <trkpt lat="41.8809130" lon="-2.8394120">
        <ele>1161.8</ele>
        <time>2022-01-30T10:00:56Z</time>
      </trkpt>
      <trkpt lat="41.8809150" lon="-2.8394300">
        <ele>1162.0</ele>
        <time>2022-01-30T10:00:57Z</time>
      </trkpt>
      <trkpt lat="41.8809200" lon="-2.8394500">
        <ele>1162.3</ele>
        <time>2022-01-30T10:00:58Z</time>
      </trkpt>
      <trkpt lat="41.8809230" lon="-2.8394700">
        <ele>1162.5</ele>
        <time>2022-01-30T10:00:59Z</time>
      </trkpt>
      <trkpt lat="41.8809300" lon="-2.8394880">
        <ele>1162.8</ele>
        <time>2022-01-30T10:01:00Z</time>
      </trkpt>
      <trkpt lat="41.8809350" lon="-2.8395080">
        <ele>1163.1</ele>
        <time>2022-01-30T10:01:01Z</time>
      </trkpt>
      <trkpt lat="41.8809350" lon="-2.8395300">
        <ele>1163.4</ele>
        <time>2022-01-30T10:01:02Z</time>
      </trkpt>
      <trkpt lat="41.8809350" lon="-2.8395520">
        <ele>1163.8</ele>
        <time>2022-01-30T10:01:03Z</time>
      </trkpt>
      <trkpt lat="41.8809350" lon="-2.8395750">
        <ele>1164.1</ele>
        <time>2022-01-30T10:01:04Z</time>
      </trkpt>
      <trkpt lat="41.8809370" lon="-2.8395970">
        <ele>1164.5</ele>
        <time>2022-01-30T10:01:05Z</time>
      </trkpt>
      <trkpt lat="41.8809330" lon="-2.8396180">
        <ele>1164.8</ele>
        <time>2022-01-30T10:01:06Z</time>
      </trkpt>
      <trkpt lat="41.8809370" lon="-2.8396370">
        <ele>1165.1</ele>
        <time>2022-01-30T10:01:07Z</time>
      </trkpt>
      <trkpt lat="41.8809400" lon="-2.8396500">
        <ele>1165.3</ele>
        <time>2022-01-30T10:01:08Z</time>
      </trkpt>
      <trkpt lat="41.8809420" lon="-2.8396670">
        <ele>1165.6</ele>
        <time>2022-01-30T10:01:09Z</time>
      </trkpt>
      <trkpt lat="41.8809430" lon="-2.8396880">
        <ele>1165.9</ele>
        <time>2022-01-30T10:01:10Z</time>
      </trkpt>
      <trkpt lat="41.8809420" lon="-2.8397130">
        <ele>1166.3</ele>
        <time>2022-01-30T10:01:11Z</time>
      </trkpt>
      <trkpt lat="41.8809400" lon="-2.8397370">
        <ele>1166.6</ele>
        <time>2022-01-30T10:01:12Z</time>
      </trkpt>
      <trkpt lat="41.8809350" lon="-2.8397600">
        <ele>1167.0</ele>
        <time>2022-01-30T10:01:13Z</time>
      </trkpt>
      <trkpt lat="41.8809280" lon="-2.8397820">
        <ele>1167.3</ele>
        <time>2022-01-30T10:01:14Z</time>
      </trkpt>
      <trkpt lat="41.8809220" lon="-2.8398050">
        <ele>1167.6</ele>
        <time>2022-01-30T10:01:15Z</time>
      </trkpt>
      <trkpt lat="41.8809120" lon="-2.8398200">
        <ele>1167.9</ele>
        <time>2022-01-30T10:01:16Z</time>
      </trkpt>
      <trkpt lat="41.8809020" lon="-2.8398350">
        <ele>1168.2</ele>
        <time>2022-01-30T10:01:17Z</time>
      </trkpt>
      <trkpt lat="41.8808850" lon="-2.8398380">
        <ele>1168.5</ele>
        <time>2022-01-30T10:01:18Z</time>
      </trkpt>
      <trkpt lat="41.8808700" lon="-2.8398520">
        <ele>1168.9</ele>
        <time>2022-01-30T10:01:19Z</time>
      </trkpt>
      <trkpt lat="41.8808570" lon="-2.8398620">
        <ele>1169.2</ele>
        <time>2022-01-30T10:01:20Z</time>
      </trkpt>
      <trkpt lat="41.8808400" lon="-2.8398680">
        <ele>1169.5</ele>
        <time>2022-01-30T10:01:21Z</time>
      </trkpt>
      <trkpt lat="41.8808250" lon="-2.8398720">
        <ele>1169.8</ele>
        <time>2022-01-30T10:01:22Z</time>
      </trkpt>
      <trkpt lat="41.8808050" lon="-2.8398800">
        <ele>1170.2</ele>
        <time>2022-01-30T10:01:23Z</time>
      </trkpt>
      <trkpt lat="41.8807880" lon="-2.8398870">
        <ele>1170.6</ele>
        <time>2022-01-30T10:01:24Z</time>
      </trkpt>
      <trkpt lat="41.8807680" lon="-2.8398930">
        <ele>1171.0</ele>
        <time>2022-01-30T10:01:25Z</time>
      </trkpt>
      <trkpt lat="41.8807530" lon="-2.8399020">
        <ele>1171.3</ele>
        <time>2022-01-30T10:01:26Z</time>
      </trkpt>
      <trkpt lat="41.8807380" lon="-2.8399050">
        <ele>1171.6</ele>
        <time>2022-01-30T10:01:27Z</time>
      </trkpt>
      <trkpt lat="41.8807250" lon="-2.8399080">
        <ele>1171.8</ele>
        <time>2022-01-30T10:01:28Z</time>
      </trkpt>
      <trkpt lat="41.8807070" lon="-2.8399170">
        <ele>1172.2</ele>
        <time>2022-01-30T10:01:29Z</time>
      </trkpt>
      <trkpt lat="41.8806930" lon="-2.8399220">
        <ele>1172.4</ele>
        <time>2022-01-30T10:01:30Z</time>
      </trkpt>
      <trkpt lat="41.8806780" lon="-2.8399250">
        <ele>1172.7</ele>
        <time>2022-01-30T10:01:31Z</time>
      </trkpt>
      <trkpt lat="41.8806650" lon="-2.8399270">
        <ele>1172.9</ele>
        <time>2022-01-30T10:01:32Z</time>
      </trkpt>
      <trkpt lat="41.8806480" lon="-2.8399250">
        <ele>1173.1</ele>
        <time>2022-01-30T10:01:33Z</time>
      </trkpt>
      <trkpt lat="41.8806300" lon="-2.8399220">
        <ele>1173.4</ele>
        <time>2022-01-30T10:01:34Z</time>
      </trkpt>
      <trkpt lat="41.8806150" lon="-2.8399230">
        <ele>1173.6</ele>
        <time>2022-01-30T10:01:35Z</time>
      </trkpt>
      <trkpt lat="41.8806000" lon="-2.8399250">
        <ele>1173.9</ele>
        <time>2022-01-30T10:01:36Z</time>
      </trkpt>
      <trkpt lat="41.8805850" lon="-2.8399300">
        <ele>1174.1</ele>
        <time>2022-01-30T10:01:37Z</time>
      </trkpt>
      <trkpt lat="41.8805720" lon="-2.8399370">
        <ele>1174.3</ele>
        <time>2022-01-30T10:01:38Z</time>
      </trkpt>
      <trkpt lat="41.8805570" lon="-2.8399430">
        <ele>1174.5</ele>
        <time>2022-01-30T10:01:39Z</time>
      </trkpt>
      <trkpt lat="41.8805400" lon="-2.8399470">
        <ele>1174.7</ele>
        <time>2022-01-30T10:01:40Z</time>
      </trkpt>
      <trkpt lat="41.8805270" lon="-2.8399530">
        <ele>1174.9</ele>
        <time>2022-01-30T10:01:41Z</time>
      </trkpt>
      <trkpt lat="41.8805150" lon="-2.8399620">
        <ele>1175.0</ele>
        <time>2022-01-30T10:01:42Z</time>
      </trkpt>
      <trkpt lat="41.8805020" lon="-2.8399700">
        <ele>1175.2</ele>
        <time>2022-01-30T10:01:43Z</time>
      </trkpt>
      <trkpt lat="41.8804900" lon="-2.8399780">
        <ele>1175.3</ele>
        <time>2022-01-30T10:01:44Z</time>
      </trkpt>
      <trkpt lat="41.8804770" lon="-2.8399920">
        <ele>1175.5</ele>
        <time>2022-01-30T10:01:45Z</time>
      </trkpt>
      <trkpt lat="41.8804670" lon="-2.8400020">
        <ele>1175.6</ele>
        <time>2022-01-30T10:01:46Z</time>
      </trkpt>
      <trkpt lat="41.8804570" lon="-2.8400150">
        <ele>1175.7</ele>
        <time>2022-01-30T10:01:47Z</time>
      </trkpt>
      <trkpt lat="41.8804450" lon="-2.8400280">
        <ele>1175.9</ele>
        <time>2022-01-30T10:01:48Z</time>
      </trkpt>
      <trkpt lat="41.8804330" lon="-2.8400500">
        <ele>1176.0</ele>
        <time>2022-01-30T10:01:49Z</time>
      </trkpt>
      <trkpt lat="41.8804220" lon="-2.8400730">
        <ele>1176.1</ele>
        <time>2022-01-30T10:01:50Z</time>
      </trkpt>
      <trkpt lat="41.8804080" lon="-2.8400970">
        <ele>1176.3</ele>
        <time>2022-01-30T10:01:51Z</time>
      </trkpt>
      <trkpt lat="41.8803930" lon="-2.8401200">
        <ele>1176.4</ele>
        <time>2022-01-30T10:01:52Z</time>
      </trkpt>
      <trkpt lat="41.8803780" lon="-2.8401470">
        <ele>1176.5</ele>
        <time>2022-01-30T10:01:53Z</time>
      </trkpt>
      <trkpt lat="41.8803650" lon="-2.8401680">
        <ele>1176.6</ele>
        <time>2022-01-30T10:01:54Z</time>
      </trkpt>
      <trkpt lat="41.8803530" lon="-2.8401920">
        <ele>1176.7</ele>
        <time>2022-01-30T10:01:55Z</time>
      </trkpt>
      <trkpt lat="41.8803400" lon="-2.8402170">
        <ele>1176.9</ele>
        <time>2022-01-30T10:01:56Z</time>
      </trkpt>
      <trkpt lat="41.8803280" lon="-2.8402450">
        <ele>1177.0</ele>
        <time>2022-01-30T10:01:57Z</time>
      </trkpt>
      <trkpt lat="41.8803230" lon="-2.8402770">
        <ele>1177.1</ele>
        <time>2022-01-30T10:01:58Z</time>
      </trkpt>
      <trkpt lat="41.8803220" lon="-2.8403120">
        <ele>1177.2</ele>
        <time>2022-01-30T10:01:59Z</time>
      </trkpt>
      <trkpt lat="41.8803220" lon="-2.8403380">
        <ele>1177.3</ele>
        <time>2022-01-30T10:02:00Z</time>
      </trkpt>
      <trkpt lat="41.8803270" lon="-2.8403780">
        <ele>1177.5</ele>
        <time>2022-01-30T10:02:01Z</time>
      </trkpt>
      <trkpt lat="41.8803330" lon="-2.8404100">
        <ele>1177.6</ele>
        <time>2022-01-30T10:02:02Z</time>
      </trkpt>
      <trkpt lat="41.8803380" lon="-2.8404420">
        <ele>1177.7</ele>
        <time>2022-01-30T10:02:03Z</time>
      </trkpt>
      <trkpt lat="41.8803420" lon="-2.8404680">
        <ele>1177.8</ele>
        <time>2022-01-30T10:02:04Z</time>
      </trkpt>
      <trkpt lat="41.8803470" lon="-2.8405020">
        <ele>1178.0</ele>
        <time>2022-01-30T10:02:05Z</time>
      </trkpt>
      <trkpt lat="41.8803520" lon="-2.8405420">
        <ele>1178.1</ele>
        <time>2022-01-30T10:02:06Z</time>
      </trkpt>
      <trkpt lat="41.8803580" lon="-2.8405750">
        <ele>1178.2</ele>
        <time>2022-01-30T10:02:07Z</time>
      </trkpt>
      <trkpt lat="41.8803620" lon="-2.8406070">
        <ele>1178.3</ele>
        <time>2022-01-30T10:02:08Z</time>
      </trkpt>
      <trkpt lat="41.8803650" lon="-2.8406370">
        <ele>1178.4</ele>
        <time>2022-01-30T10:02:09Z</time>
      </trkpt>
      <trkpt lat="41.8803680" lon="-2.8406680">
        <ele>1178.4</ele>
        <time>2022-01-30T10:02:10Z</time>
      </trkpt>
      <trkpt lat="41.8803700" lon="-2.8407020">
        <ele>1178.5</ele>
        <time>2022-01-30T10:02:11Z</time>
      </trkpt>
      <trkpt lat="41.8803700" lon="-2.8407350">
        <ele>1178.6</ele>
        <time>2022-01-30T10:02:12Z</time>
      </trkpt>
      <trkpt lat="41.8803730" lon="-2.8407630">
        <ele>1178.6</ele>
        <time>2022-01-30T10:02:13Z</time>
      </trkpt>
      <trkpt lat="41.8803730" lon="-2.8408050">
        <ele>1178.7</ele>
        <time>2022-01-30T10:02:14Z</time>
      </trkpt>
      <trkpt lat="41.8803730" lon="-2.8408380">
        <ele>1178.8</ele>
        <time>2022-01-30T10:02:15Z</time>
      </trkpt>
      <trkpt lat="41.8803700" lon="-2.8408700">
        <ele>1178.8</ele>
        <time>2022-01-30T10:02:16Z</time>
      </trkpt>
      <trkpt lat="41.8803650" lon="-2.8409020">
        <ele>1178.9</ele>
        <time>2022-01-30T10:02:17Z</time>
      </trkpt>
      <trkpt lat="41.8803580" lon="-2.8409330">
        <ele>1178.9</ele>
        <time>2022-01-30T10:02:18Z</time>
      </trkpt>
      <trkpt lat="41.8803520" lon="-2.8409670">
        <ele>1178.9</ele>
        <time>2022-01-30T10:02:19Z</time>
      </trkpt>
      <trkpt lat="41.8803430" lon="-2.8409980">
        <ele>1179.0</ele>
        <time>2022-01-30T10:02:20Z</time>
      </trkpt>
      <trkpt lat="41.8803370" lon="-2.8410270">
        <ele>1179.0</ele>
        <time>2022-01-30T10:02:21Z</time>
      </trkpt>
      <trkpt lat="41.8803270" lon="-2.8410580">
        <ele>1179.0</ele>
        <time>2022-01-30T10:02:22Z</time>
      </trkpt>
      <trkpt lat="41.8803180" lon="-2.8410850">
        <ele>1179.0</ele>
        <time>2022-01-30T10:02:23Z</time>
      </trkpt>
      <trkpt lat="41.8803070" lon="-2.8411230">
        <ele>1179.1</ele>
        <time>2022-01-30T10:02:24Z</time>
      </trkpt>
      <trkpt lat="41.8803020" lon="-2.8411530">
        <ele>1179.1</ele>
        <time>2022-01-30T10:02:25Z</time>
      </trkpt>
      <trkpt lat="41.8802970" lon="-2.8411830">
        <ele>1179.1</ele>
        <time>2022-01-30T10:02:26Z</time>
      </trkpt>
      <trkpt lat="41.8802880" lon="-2.8412130">
        <ele>1179.1</ele>
        <time>2022-01-30T10:02:27Z</time>
      </trkpt>
      <trkpt lat="41.8802820" lon="-2.8412420">
        <ele>1179.1</ele>
        <time>2022-01-30T10:02:28Z</time>
      </trkpt>
      <trkpt lat="41.8802750" lon="-2.8412680">
        <ele>1179.1</ele>
        <time>2022-01-30T10:02:29Z</time>
      </trkpt>
      <trkpt lat="41.8802700" lon="-2.8412930">
        <ele>1179.1</ele>
        <time>2022-01-30T10:02:30Z</time>
      </trkpt>
      <trkpt lat="41.8802670" lon="-2.8413100">
        <ele>1179.1</ele>
        <time>2022-01-30T10:02:31Z</time>
      </trkpt>
      <trkpt lat="41.8802620" lon="-2.8413270">
        <ele>1179.1</ele>
        <time>2022-01-30T10:02:32Z</time>
      </trkpt>
      <trkpt lat="41.8802580" lon="-2.8413420">
        <ele>1179.1</ele>
        <time>2022-01-30T10:02:33Z</time>
      </trkpt>
      <trkpt lat="41.8802570" lon="-2.8413570">
        <ele>1179.1</ele>
        <time>2022-01-30T10:02:34Z</time>
      </trkpt>
      <trkpt lat="41.8802550" lon="-2.8413770">
        <ele>1179.1</ele>
        <time>2022-01-30T10:02:35Z</time>
      </trkpt>
      <trkpt lat="41.8802550" lon="-2.8414000">
        <ele>1179.1</ele>
        <time>2022-01-30T10:02:36Z</time>
      </trkpt>
      <trkpt lat="41.8802550" lon="-2.8414270">
        <ele>1179.1</ele>
        <time>2022-01-30T10:02:37Z</time>
      </trkpt>
      <trkpt lat="41.8802550" lon="-2.8414470">
        <ele>1179.1</ele>
        <time>2022-01-30T10:02:38Z</time>
      </trkpt>
      <trkpt lat="41.8802550" lon="-2.8414780">
        <ele>1179.0</ele>
        <time>2022-01-30T10:02:39Z</time>
      </trkpt>
      <trkpt lat="41.8802580" lon="-2.8415070">
        <ele>1179.0</ele>
        <time>2022-01-30T10:02:40Z</time>
      </trkpt>
      <trkpt lat="41.8802620" lon="-2.8415350">
        <ele>1179.1</ele>
        <time>2022-01-30T10:02:41Z</time>
      </trkpt>
      <trkpt lat="41.8802670" lon="-2.8415630">
        <ele>1179.1</ele>
        <time>2022-01-30T10:02:42Z</time>
      </trkpt>
      <trkpt lat="41.8802700" lon="-2.8415870">
        <ele>1179.1</ele>
        <time>2022-01-30T10:02:43Z</time>
      </trkpt>
      <trkpt lat="41.8802680" lon="-2.8416080">
        <ele>1179.2</ele>
        <time>2022-01-30T10:02:44Z</time>
      </trkpt>
      <trkpt lat="41.8802650" lon="-2.8416330">
        <ele>1179.2</ele>
        <time>2022-01-30T10:02:45Z</time>
      </trkpt>
      <trkpt lat="41.8802620" lon="-2.8416550">
        <ele>1179.2</ele>
        <time>2022-01-30T10:02:46Z</time>
      </trkpt>
      <trkpt lat="41.8802600" lon="-2.8416830">
        <ele>1179.3</ele>
        <time>2022-01-30T10:02:47Z</time>
      </trkpt>
      <trkpt lat="41.8802580" lon="-2.8417200">
        <ele>1179.3</ele>
        <time>2022-01-30T10:02:48Z</time>
      </trkpt>
      <trkpt lat="41.8802580" lon="-2.8417530">
        <ele>1179.3</ele>
        <time>2022-01-30T10:02:49Z</time>
      </trkpt>
      <trkpt lat="41.8802580" lon="-2.8417870">
        <ele>1179.3</ele>
        <time>2022-01-30T10:02:50Z</time>
      </trkpt>
      <trkpt lat="41.8802570" lon="-2.8418220">
        <ele>1179.3</ele>
        <time>2022-01-30T10:02:51Z</time>
      </trkpt>
      <trkpt lat="41.8802530" lon="-2.8418470">
        <ele>1179.3</ele>
        <time>2022-01-30T10:02:52Z</time>
      </trkpt>
      <trkpt lat="41.8802480" lon="-2.8418900">
        <ele>1179.3</ele>
        <time>2022-01-30T10:02:53Z</time>
      </trkpt>
      <trkpt lat="41.8802450" lon="-2.8419280">
        <ele>1179.3</ele>
        <time>2022-01-30T10:02:54Z</time>
      </trkpt>
      <trkpt lat="41.8802400" lon="-2.8419680">
        <ele>1179.2</ele>
        <time>2022-01-30T10:02:55Z</time>
      </trkpt>
      <trkpt lat="41.8802350" lon="-2.8420030">
        <ele>1179.2</ele>
        <time>2022-01-30T10:02:56Z</time>
      </trkpt>
      <trkpt lat="41.8802300" lon="-2.8420530">
        <ele>1179.1</ele>
        <time>2022-01-30T10:02:57Z</time>
      </trkpt>
      <trkpt lat="41.8802270" lon="-2.8420980">
        <ele>1179.1</ele>
        <time>2022-01-30T10:02:58Z</time>
      </trkpt>
      <trkpt lat="41.8802250" lon="-2.8421450">
        <ele>1179.0</ele>
        <time>2022-01-30T10:02:59Z</time>
      </trkpt>
      <trkpt lat="41.8802230" lon="-2.8421930">
        <ele>1178.9</ele>
        <time>2022-01-30T10:03:00Z</time>
      </trkpt>
      <trkpt lat="41.8802270" lon="-2.8422450">
        <ele>1178.8</ele>
        <time>2022-01-30T10:03:01Z</time>
      </trkpt>
      <trkpt lat="41.8802270" lon="-2.8422980">
        <ele>1178.7</ele>
        <time>2022-01-30T10:03:02Z</time>
      </trkpt>
      <trkpt lat="41.8802300" lon="-2.8423530">
        <ele>1178.6</ele>
        <time>2022-01-30T10:03:03Z</time>
      </trkpt>
      <trkpt lat="41.8802350" lon="-2.8424100">
        <ele>1178.4</ele>
        <time>2022-01-30T10:03:04Z</time>
      </trkpt>
      <trkpt lat="41.8802400" lon="-2.8424650">
        <ele>1178.3</ele>
        <time>2022-01-30T10:03:05Z</time>
      </trkpt>
      <trkpt lat="41.8802470" lon="-2.8425200">
        <ele>1178.1</ele>
        <time>2022-01-30T10:03:06Z</time>
      </trkpt>
      <trkpt lat="41.8802520" lon="-2.8425750">
        <ele>1177.9</ele>
        <time>2022-01-30T10:03:07Z</time>
      </trkpt>
      <trkpt lat="41.8802550" lon="-2.8426320">
        <ele>1177.7</ele>
        <time>2022-01-30T10:03:08Z</time>
      </trkpt>
      <trkpt lat="41.8802580" lon="-2.8426900">
        <ele>1177.5</ele>
        <time>2022-01-30T10:03:09Z</time>
      </trkpt>
      <trkpt lat="41.8802600" lon="-2.8427520">
        <ele>1177.3</ele>
        <time>2022-01-30T10:03:10Z</time>
      </trkpt>
      <trkpt lat="41.8802620" lon="-2.8428150">
        <ele>1177.1</ele>
        <time>2022-01-30T10:03:11Z</time>
      </trkpt>
      <trkpt lat="41.8802620" lon="-2.8428780">
        <ele>1176.8</ele>
        <time>2022-01-30T10:03:12Z</time>
      </trkpt>
      <trkpt lat="41.8802630" lon="-2.8429470">
        <ele>1176.6</ele>
        <time>2022-01-30T10:03:13Z</time>
      </trkpt>
      <trkpt lat="41.8802670" lon="-2.8430180">
        <ele>1176.3</ele>
        <time>2022-01-30T10:03:14Z</time>
      </trkpt>
      <trkpt lat="41.8802750" lon="-2.8430900">
        <ele>1176.1</ele>
        <time>2022-01-30T10:03:15Z</time>
      </trkpt>
      <trkpt lat="41.8802800" lon="-2.8431650">
        <ele>1175.8</ele>
        <time>2022-01-30T10:03:16Z</time>
      </trkpt>
      <trkpt lat="41.8802880" lon="-2.8432380">
        <ele>1175.6</ele>
        <time>2022-01-30T10:03:17Z</time>
      </trkpt>
      <trkpt lat="41.8802930" lon="-2.8433150">
        <ele>1175.3</ele>
        <time>2022-01-30T10:03:18Z</time>
      </trkpt>
      <trkpt lat="41.8803030" lon="-2.8433950">
        <ele>1175.1</ele>
        <time>2022-01-30T10:03:19Z</time>
      </trkpt>
      <trkpt lat="41.8803100" lon="-2.8434580">
        <ele>1174.9</ele>
        <time>2022-01-30T10:03:20Z</time>
      </trkpt>
      <trkpt lat="41.8803230" lon="-2.8435550">
        <ele>1174.7</ele>
        <time>2022-01-30T10:03:21Z</time>
      </trkpt>
      <trkpt lat="41.8803320" lon="-2.8436370">
        <ele>1174.6</ele>
        <time>2022-01-30T10:03:22Z</time>
      </trkpt>
      <trkpt lat="41.8803350" lon="-2.8437220">
        <ele>1174.5</ele>
        <time>2022-01-30T10:03:23Z</time>
      </trkpt>
      <trkpt lat="41.8803320" lon="-2.8438080">
        <ele>1174.5</ele>
        <time>2022-01-30T10:03:24Z</time>
      </trkpt>
      <trkpt lat="41.8803230" lon="-2.8438930">
        <ele>1174.4</ele>
        <time>2022-01-30T10:03:25Z</time>
      </trkpt>
      <trkpt lat="41.8803100" lon="-2.8439720">
        <ele>1174.4</ele>
        <time>2022-01-30T10:03:26Z</time>
      </trkpt>
      <trkpt lat="41.8802950" lon="-2.8440480">
        <ele>1174.4</ele>
        <time>2022-01-30T10:03:27Z</time>
      </trkpt>
      <trkpt lat="41.8802850" lon="-2.8441200">
        <ele>1174.4</ele>
        <time>2022-01-30T10:03:28Z</time>
      </trkpt>
      <trkpt lat="41.8802770" lon="-2.8441730">
        <ele>1174.4</ele>
        <time>2022-01-30T10:03:29Z</time>
      </trkpt>
      <trkpt lat="41.8802630" lon="-2.8442500">
        <ele>1174.5</ele>
        <time>2022-01-30T10:03:30Z</time>
      </trkpt>
      <trkpt lat="41.8802570" lon="-2.8443050">
        <ele>1174.5</ele>
        <time>2022-01-30T10:03:31Z</time>
      </trkpt>
      <trkpt lat="41.8802500" lon="-2.8443570">
        <ele>1174.5</ele>
        <time>2022-01-30T10:03:32Z</time>
      </trkpt>
      <trkpt lat="41.8802520" lon="-2.8443970">
        <ele>1174.5</ele>
        <time>2022-01-30T10:03:33Z</time>
      </trkpt>
      <trkpt lat="41.8802530" lon="-2.8444470">
        <ele>1174.5</ele>
        <time>2022-01-30T10:03:34Z</time>
      </trkpt>
      <trkpt lat="41.8802600" lon="-2.8445070">
        <ele>1174.5</ele>
        <time>2022-01-30T10:03:35Z</time>
      </trkpt>
      <trkpt lat="41.8802650" lon="-2.8445600">
        <ele>1174.4</ele>
        <time>2022-01-30T10:03:36Z</time>
      </trkpt>
      <trkpt lat="41.8802720" lon="-2.8446150">
        <ele>1174.4</ele>
        <time>2022-01-30T10:03:37Z</time>
      </trkpt>
      <trkpt lat="41.8802750" lon="-2.8446680">
        <ele>1174.3</ele>
        <time>2022-01-30T10:03:38Z</time>
      </trkpt>
      <trkpt lat="41.8802800" lon="-2.8447200">
        <ele>1174.2</ele>
        <time>2022-01-30T10:03:39Z</time>
      </trkpt>
      <trkpt lat="41.8802820" lon="-2.8447780">
        <ele>1174.1</ele>
        <time>2022-01-30T10:03:40Z</time>
      </trkpt>
      <trkpt lat="41.8802820" lon="-2.8448370">
        <ele>1174.0</ele>
        <time>2022-01-30T10:03:41Z</time>
      </trkpt>
      <trkpt lat="41.8802820" lon="-2.8449030">
        <ele>1173.9</ele>
        <time>2022-01-30T10:03:42Z</time>
      </trkpt>
      <trkpt lat="41.8802820" lon="-2.8449750">
        <ele>1173.8</ele>
        <time>2022-01-30T10:03:43Z</time>
      </trkpt>
      <trkpt lat="41.8802820" lon="-2.8450500">
        <ele>1173.6</ele>
        <time>2022-01-30T10:03:44Z</time>
      </trkpt>
      <trkpt lat="41.8802820" lon="-2.8451300">
        <ele>1173.4</ele>
        <time>2022-01-30T10:03:45Z</time>
      </trkpt>
      <trkpt lat="41.8802830" lon="-2.8452100">
        <ele>1173.0</ele>
        <time>2022-01-30T10:03:46Z</time>
      </trkpt>
      <trkpt lat="41.8802900" lon="-2.8452920">
        <ele>1172.7</ele>
        <time>2022-01-30T10:03:47Z</time>
      </trkpt>
      <trkpt lat="41.8803000" lon="-2.8453700">
        <ele>1172.4</ele>
        <time>2022-01-30T10:03:48Z</time>
      </trkpt>
      <trkpt lat="41.8803100" lon="-2.8454500">
        <ele>1172.2</ele>
        <time>2022-01-30T10:03:49Z</time>
      </trkpt>
      <trkpt lat="41.8803200" lon="-2.8455350">
        <ele>1172.0</ele>
        <time>2022-01-30T10:03:50Z</time>
      </trkpt>
      <trkpt lat="41.8803280" lon="-2.8456200">
        <ele>1171.9</ele>
        <time>2022-01-30T10:03:51Z</time>
      </trkpt>
      <trkpt lat="41.8803370" lon="-2.8457050">
        <ele>1171.8</ele>
        <time>2022-01-30T10:03:52Z</time>
      </trkpt>
      <trkpt lat="41.8803420" lon="-2.8457720">
        <ele>1171.7</ele>
        <time>2022-01-30T10:03:53Z</time>
      </trkpt>
      <trkpt lat="41.8803480" lon="-2.8458670">
        <ele>1171.7</ele>
        <time>2022-01-30T10:03:54Z</time>
      </trkpt>
      <trkpt lat="41.8803520" lon="-2.8459470">
        <ele>1171.7</ele>
        <time>2022-01-30T10:03:55Z</time>
      </trkpt>
      <trkpt lat="41.8803480" lon="-2.8460200">
        <ele>1171.6</ele>
        <time>2022-01-30T10:03:56Z</time>
      </trkpt>
      <trkpt lat="41.8803450" lon="-2.8460930">
        <ele>1171.7</ele>
        <time>2022-01-30T10:03:57Z</time>
      </trkpt>
      <trkpt lat="41.8803420" lon="-2.8461470">
        <ele>1171.7</ele>
        <time>2022-01-30T10:03:58Z</time>
      </trkpt>
      <trkpt lat="41.8803350" lon="-2.8462230">
        <ele>1171.7</ele>
        <time>2022-01-30T10:03:59Z</time>
      </trkpt>
      <trkpt lat="41.8803330" lon="-2.8462830">
        <ele>1171.8</ele>
        <time>2022-01-30T10:04:00Z</time>
      </trkpt>
      <trkpt lat="41.8803250" lon="-2.8463450">
        <ele>1171.8</ele>
        <time>2022-01-30T10:04:01Z</time>
      </trkpt>
      <trkpt lat="41.8803170" lon="-2.8463930">
        <ele>1171.8</ele>
        <time>2022-01-30T10:04:02Z</time>
      </trkpt>
      <trkpt lat="41.8803150" lon="-2.8464630">
        <ele>1171.8</ele>
        <time>2022-01-30T10:04:03Z</time>
      </trkpt>
      <trkpt lat="41.8803180" lon="-2.8465230">
        <ele>1171.8</ele>
        <time>2022-01-30T10:04:04Z</time>
      </trkpt>
      <trkpt lat="41.8803200" lon="-2.8465830">
        <ele>1171.8</ele>
        <time>2022-01-30T10:04:05Z</time>
      </trkpt>
      <trkpt lat="41.8803280" lon="-2.8466450">
        <ele>1171.7</ele>
        <time>2022-01-30T10:04:06Z</time>
      </trkpt>
      <trkpt lat="41.8803430" lon="-2.8466920">
        <ele>1171.7</ele>
        <time>2022-01-30T10:04:07Z</time>
      </trkpt>
      <trkpt lat="41.8803550" lon="-2.8467630">
        <ele>1171.6</ele>
        <time>2022-01-30T10:04:08Z</time>
      </trkpt>
      <trkpt lat="41.8803650" lon="-2.8468230">
        <ele>1171.4</ele>
        <time>2022-01-30T10:04:09Z</time>
      </trkpt>
      <trkpt lat="41.8803770" lon="-2.8468880">
        <ele>1171.3</ele>
        <time>2022-01-30T10:04:10Z</time>
      </trkpt>
      <trkpt lat="41.8803900" lon="-2.8469620">
        <ele>1171.0</ele>
        <time>2022-01-30T10:04:11Z</time>
      </trkpt>
      <trkpt lat="41.8804020" lon="-2.8470470">
        <ele>1170.7</ele>
        <time>2022-01-30T10:04:12Z</time>
      </trkpt>
      <trkpt lat="41.8804170" lon="-2.8471270">
        <ele>1170.3</ele>
        <time>2022-01-30T10:04:13Z</time>
      </trkpt>
      <trkpt lat="41.8804300" lon="-2.8472020">
        <ele>1170.0</ele>
        <time>2022-01-30T10:04:14Z</time>
      </trkpt>
      <trkpt lat="41.8804430" lon="-2.8472780">
        <ele>1169.6</ele>
        <time>2022-01-30T10:04:15Z</time>
      </trkpt>
      <trkpt lat="41.8804530" lon="-2.8473630">
        <ele>1169.2</ele>
        <time>2022-01-30T10:04:16Z</time>
      </trkpt>
      <trkpt lat="41.8804570" lon="-2.8474520">
        <ele>1168.8</ele>
        <time>2022-01-30T10:04:17Z</time>
      </trkpt>
      <trkpt lat="41.8804600" lon="-2.8475370">
        <ele>1168.4</ele>
        <time>2022-01-30T10:04:18Z</time>
      </trkpt>
      <trkpt lat="41.8804600" lon="-2.8476130">
        <ele>1168.1</ele>
        <time>2022-01-30T10:04:19Z</time>
      </trkpt>
      <trkpt lat="41.8804650" lon="-2.8476830">
        <ele>1167.7</ele>
        <time>2022-01-30T10:04:20Z</time>
      </trkpt>
      <trkpt lat="41.8804680" lon="-2.8477400">
        <ele>1167.4</ele>
        <time>2022-01-30T10:04:21Z</time>
      </trkpt>
      <trkpt lat="41.8804680" lon="-2.8477950">
        <ele>1167.2</ele>
        <time>2022-01-30T10:04:22Z</time>
      </trkpt>
      <trkpt lat="41.8804680" lon="-2.8478520">
        <ele>1167.0</ele>
        <time>2022-01-30T10:04:23Z</time>
      </trkpt>
      <trkpt lat="41.8804680" lon="-2.8479080">
        <ele>1166.8</ele>
        <time>2022-01-30T10:04:24Z</time>
      </trkpt>
      <trkpt lat="41.8804650" lon="-2.8479630">
        <ele>1166.7</ele>
        <time>2022-01-30T10:04:25Z</time>
      </trkpt>
      <trkpt lat="41.8804600" lon="-2.8480180">
        <ele>1166.5</ele>
        <time>2022-01-30T10:04:26Z</time>
      </trkpt>
      <trkpt lat="41.8804500" lon="-2.8480770">
        <ele>1166.4</ele>
        <time>2022-01-30T10:04:27Z</time>
      </trkpt>
      <trkpt lat="41.8804350" lon="-2.8481380">
        <ele>1166.1</ele>
        <time>2022-01-30T10:04:28Z</time>
      </trkpt>
      <trkpt lat="41.8804180" lon="-2.8482030">
        <ele>1165.9</ele>
        <time>2022-01-30T10:04:29Z</time>
      </trkpt>
      <trkpt lat="41.8804020" lon="-2.8482630">
        <ele>1165.5</ele>
        <time>2022-01-30T10:04:30Z</time>
      </trkpt>
      <trkpt lat="41.8803830" lon="-2.8483150">
        <ele>1165.2</ele>
        <time>2022-01-30T10:04:31Z</time>
      </trkpt>
      <trkpt lat="41.8803720" lon="-2.8483500">
        <ele>1165.0</ele>
        <time>2022-01-30T10:04:32Z</time>
      </trkpt>
      <trkpt lat="41.8803570" lon="-2.8483800">
        <ele>1164.8</ele>
        <time>2022-01-30T10:04:33Z</time>
      </trkpt>
      <trkpt lat="41.8803430" lon="-2.8484100">
        <ele>1164.8</ele>
        <time>2022-01-30T10:04:34Z</time>
      </trkpt>
      <trkpt lat="41.8803270" lon="-2.8484330">
        <ele>1164.7</ele>
        <time>2022-01-30T10:04:35Z</time>
      </trkpt>
      <trkpt lat="41.8803050" lon="-2.8484470">
        <ele>1164.5</ele>
        <time>2022-01-30T10:04:36Z</time>
      </trkpt>
      <trkpt lat="41.8802820" lon="-2.8484530">
        <ele>1164.4</ele>
        <time>2022-01-30T10:04:37Z</time>
      </trkpt>
      <trkpt lat="41.8802550" lon="-2.8484520">
        <ele>1164.2</ele>
        <time>2022-01-30T10:04:38Z</time>
      </trkpt>
      <trkpt lat="41.8802280" lon="-2.8484450">
        <ele>1164.0</ele>
        <time>2022-01-30T10:04:39Z</time>
      </trkpt>
      <trkpt lat="41.8802020" lon="-2.8484370">
        <ele>1163.9</ele>
        <time>2022-01-30T10:04:40Z</time>
      </trkpt>
      <trkpt lat="41.8801620" lon="-2.8484200">
        <ele>1163.6</ele>
        <time>2022-01-30T10:04:41Z</time>
      </trkpt>
      <trkpt lat="41.8801270" lon="-2.8484000">
        <ele>1163.4</ele>
        <time>2022-01-30T10:04:42Z</time>
      </trkpt>
      <trkpt lat="41.8800920" lon="-2.8483650">
        <ele>1163.1</ele>
        <time>2022-01-30T10:04:43Z</time>
      </trkpt>
      <trkpt lat="41.8800620" lon="-2.8483170">
        <ele>1162.9</ele>
        <time>2022-01-30T10:04:44Z</time>
      </trkpt>
      <trkpt lat="41.8800300" lon="-2.8482620">
        <ele>1162.6</ele>
        <time>2022-01-30T10:04:45Z</time>
      </trkpt>
      <trkpt lat="41.8800020" lon="-2.8482070">
        <ele>1162.4</ele>
        <time>2022-01-30T10:04:46Z</time>
      </trkpt>
      <trkpt lat="41.8799780" lon="-2.8481500">
        <ele>1162.2</ele>
        <time>2022-01-30T10:04:47Z</time>
      </trkpt>
      <trkpt lat="41.8799530" lon="-2.8480930">
        <ele>1162.0</ele>
        <time>2022-01-30T10:04:48Z</time>
      </trkpt>
      <trkpt lat="41.8799280" lon="-2.8480400">
        <ele>1161.9</ele>
        <time>2022-01-30T10:04:49Z</time>
      </trkpt>
      <trkpt lat="41.8799030" lon="-2.8479880">
        <ele>1161.8</ele>
        <time>2022-01-30T10:04:50Z</time>
      </trkpt>
      <trkpt lat="41.8798800" lon="-2.8479420">
        <ele>1161.6</ele>
        <time>2022-01-30T10:04:51Z</time>
      </trkpt>
      <trkpt lat="41.8798570" lon="-2.8478970">
        <ele>1161.5</ele>
        <time>2022-01-30T10:04:52Z</time>
      </trkpt>
      <trkpt lat="41.8798300" lon="-2.8478630">
        <ele>1161.4</ele>
        <time>2022-01-30T10:04:53Z</time>
      </trkpt>
      <trkpt lat="41.8798000" lon="-2.8478330">
        <ele>1161.4</ele>
        <time>2022-01-30T10:04:54Z</time>
      </trkpt>
      <trkpt lat="41.8797720" lon="-2.8478080">
        <ele>1161.3</ele>
        <time>2022-01-30T10:04:55Z</time>
      </trkpt>
      <trkpt lat="41.8797400" lon="-2.8477920">
        <ele>1161.2</ele>
        <time>2022-01-30T10:04:56Z</time>
      </trkpt>
      <trkpt lat="41.8797080" lon="-2.8477770">
        <ele>1161.1</ele>
        <time>2022-01-30T10:04:57Z</time>
      </trkpt>
      <trkpt lat="41.8796820" lon="-2.8477630">
        <ele>1161.0</ele>
        <time>2022-01-30T10:04:58Z</time>
      </trkpt>
      <trkpt lat="41.8796470" lon="-2.8477600">
        <ele>1160.9</ele>
        <time>2022-01-30T10:04:59Z</time>
      </trkpt>
      <trkpt lat="41.8796100" lon="-2.8477680">
        <ele>1160.8</ele>
        <time>2022-01-30T10:05:00Z</time>
      </trkpt>
      <trkpt lat="41.8795870" lon="-2.8478070">
        <ele>1160.6</ele>
        <time>2022-01-30T10:05:01Z</time>
      </trkpt>
      <trkpt lat="41.8795500" lon="-2.8478330">
        <ele>1160.5</ele>
        <time>2022-01-30T10:05:02Z</time>
      </trkpt>
      <trkpt lat="41.8795250" lon="-2.8478500">
        <ele>1160.5</ele>
        <time>2022-01-30T10:05:03Z</time>
      </trkpt>
      <trkpt lat="41.8794950" lon="-2.8478700">
        <ele>1160.4</ele>
        <time>2022-01-30T10:05:04Z</time>
      </trkpt>
      <trkpt lat="41.8794500" lon="-2.8478930">
        <ele>1160.3</ele>
        <time>2022-01-30T10:05:05Z</time>
      </trkpt>
      <trkpt lat="41.8794170" lon="-2.8479180">
        <ele>1160.3</ele>
        <time>2022-01-30T10:05:06Z</time>
      </trkpt>
      <trkpt lat="41.8793830" lon="-2.8479500">
        <ele>1160.4</ele>
        <time>2022-01-30T10:05:07Z</time>
      </trkpt>
      <trkpt lat="41.8793530" lon="-2.8479730">
        <ele>1160.4</ele>
        <time>2022-01-30T10:05:08Z</time>
      </trkpt>
      <trkpt lat="41.8793250" lon="-2.8479920">
        <ele>1160.5</ele>
        <time>2022-01-30T10:05:09Z</time>
      </trkpt>
      <trkpt lat="41.8792900" lon="-2.8480130">
        <ele>1160.6</ele>
        <time>2022-01-30T10:05:10Z</time>
      </trkpt>
      <trkpt lat="41.8792580" lon="-2.8480400">
        <ele>1160.7</ele>
        <time>2022-01-30T10:05:11Z</time>
      </trkpt>
      <trkpt lat="41.8792270" lon="-2.8480550">
        <ele>1160.8</ele>
        <time>2022-01-30T10:05:12Z</time>
      </trkpt>
      <trkpt lat="41.8792000" lon="-2.8480750">
        <ele>1160.9</ele>
        <time>2022-01-30T10:05:13Z</time>
      </trkpt>
      <trkpt lat="41.8791730" lon="-2.8480980">
        <ele>1161.0</ele>
        <time>2022-01-30T10:05:14Z</time>
      </trkpt>
      <trkpt lat="41.8791450" lon="-2.8481250">
        <ele>1161.1</ele>
        <time>2022-01-30T10:05:15Z</time>
      </trkpt>
      <trkpt lat="41.8791200" lon="-2.8481500">
        <ele>1161.2</ele>
        <time>2022-01-30T10:05:16Z</time>
      </trkpt>
      <trkpt lat="41.8790930" lon="-2.8481770">
        <ele>1161.4</ele>
        <time>2022-01-30T10:05:17Z</time>
      </trkpt>
      <trkpt lat="41.8790570" lon="-2.8482020">
        <ele>1161.6</ele>
        <time>2022-01-30T10:05:18Z</time>
      </trkpt>
      <trkpt lat="41.8790220" lon="-2.8482330">
        <ele>1161.8</ele>
        <time>2022-01-30T10:05:19Z</time>
      </trkpt>
      <trkpt lat="41.8789950" lon="-2.8482570">
        <ele>1162.1</ele>
        <time>2022-01-30T10:05:20Z</time>
      </trkpt>
      <trkpt lat="41.8789680" lon="-2.8482830">
        <ele>1162.3</ele>
        <time>2022-01-30T10:05:21Z</time>
      </trkpt>
      <trkpt lat="41.8789450" lon="-2.8483100">
        <ele>1162.5</ele>
        <time>2022-01-30T10:05:22Z</time>
      </trkpt>
      <trkpt lat="41.8789230" lon="-2.8483350">
        <ele>1162.7</ele>
        <time>2022-01-30T10:05:23Z</time>
      </trkpt>
      <trkpt lat="41.8788980" lon="-2.8483580">
        <ele>1163.0</ele>
        <time>2022-01-30T10:05:24Z</time>
      </trkpt>
      <trkpt lat="41.8788730" lon="-2.8483780">
        <ele>1163.2</ele>
        <time>2022-01-30T10:05:25Z</time>
      </trkpt>
      <trkpt lat="41.8788450" lon="-2.8483870">
        <ele>1163.5</ele>
        <time>2022-01-30T10:05:26Z</time>
      </trkpt>
      <trkpt lat="41.8788130" lon="-2.8483930">
        <ele>1163.7</ele>
        <time>2022-01-30T10:05:27Z</time>
      </trkpt>
      <trkpt lat="41.8787850" lon="-2.8483970">
        <ele>1164.0</ele>
        <time>2022-01-30T10:05:28Z</time>
      </trkpt>
      <trkpt lat="41.8787580" lon="-2.8483980">
        <ele>1164.2</ele>
        <time>2022-01-30T10:05:29Z</time>
      </trkpt>
      <trkpt lat="41.8787330" lon="-2.8484020">
        <ele>1164.4</ele>
        <time>2022-01-30T10:05:30Z</time>
      </trkpt>
      <trkpt lat="41.8787100" lon="-2.8484030">
        <ele>1164.6</ele>
        <time>2022-01-30T10:05:31Z</time>
      </trkpt>
      <trkpt lat="41.8786870" lon="-2.8484000">
        <ele>1164.8</ele>
        <time>2022-01-30T10:05:32Z</time>
      </trkpt>
      <trkpt lat="41.8786650" lon="-2.8483980">
        <ele>1165.0</ele>
        <time>2022-01-30T10:05:33Z</time>
      </trkpt>
      <trkpt lat="41.8786450" lon="-2.8483970">
        <ele>1165.2</ele>
        <time>2022-01-30T10:05:34Z</time>
      </trkpt>
      <trkpt lat="41.8786250" lon="-2.8483880">
        <ele>1165.3</ele>
        <time>2022-01-30T10:05:35Z</time>
      </trkpt>
      <trkpt lat="41.8786070" lon="-2.8483780">
        <ele>1165.5</ele>
        <time>2022-01-30T10:05:36Z</time>
      </trkpt>
      <trkpt lat="41.8785800" lon="-2.8483670">
        <ele>1165.8</ele>
        <time>2022-01-30T10:05:37Z</time>
      </trkpt>
      <trkpt lat="41.8785550" lon="-2.8483630">
        <ele>1166.0</ele>
        <time>2022-01-30T10:05:38Z</time>
      </trkpt>
      <trkpt lat="41.8785300" lon="-2.8483580">
        <ele>1166.2</ele>
        <time>2022-01-30T10:05:39Z</time>
      </trkpt>
      <trkpt lat="41.8785030" lon="-2.8483580">
        <ele>1166.4</ele>
        <time>2022-01-30T10:05:40Z</time>
      </trkpt>
      <trkpt lat="41.8784700" lon="-2.8483700">
        <ele>1166.6</ele>
        <time>2022-01-30T10:05:41Z</time>
      </trkpt>
      <trkpt lat="41.8784380" lon="-2.8483780">
        <ele>1166.8</ele>
        <time>2022-01-30T10:05:42Z</time>
      </trkpt>
      <trkpt lat="41.8784100" lon="-2.8483820">
        <ele>1167.0</ele>
        <time>2022-01-30T10:05:43Z</time>
      </trkpt>
      <trkpt lat="41.8783850" lon="-2.8483880">
        <ele>1167.1</ele>
        <time>2022-01-30T10:05:44Z</time>
      </trkpt>
      <trkpt lat="41.8783580" lon="-2.8483920">
        <ele>1167.2</ele>
        <time>2022-01-30T10:05:45Z</time>
      </trkpt>
      <trkpt lat="41.8783280" lon="-2.8484050">
        <ele>1167.4</ele>
        <time>2022-01-30T10:05:46Z</time>
      </trkpt>
      <trkpt lat="41.8783000" lon="-2.8484170">
        <ele>1167.5</ele>
        <time>2022-01-30T10:05:47Z</time>
      </trkpt>
      <trkpt lat="41.8782700" lon="-2.8484270">
        <ele>1167.5</ele>
        <time>2022-01-30T10:05:48Z</time>
      </trkpt>
      <trkpt lat="41.8782400" lon="-2.8484380">
        <ele>1167.6</ele>
        <time>2022-01-30T10:05:49Z</time>
      </trkpt>
      <trkpt lat="41.8782120" lon="-2.8484500">
        <ele>1167.6</ele>
        <time>2022-01-30T10:05:50Z</time>
      </trkpt>
      <trkpt lat="41.8781870" lon="-2.8484630">
        <ele>1167.7</ele>
        <time>2022-01-30T10:05:51Z</time>
      </trkpt>
      <trkpt lat="41.8781600" lon="-2.8484800">
        <ele>1167.7</ele>
        <time>2022-01-30T10:05:52Z</time>
      </trkpt>
      <trkpt lat="41.8781330" lon="-2.8485020">
        <ele>1167.8</ele>
        <time>2022-01-30T10:05:53Z</time>
      </trkpt>
      <trkpt lat="41.8781100" lon="-2.8485230">
        <ele>1167.9</ele>
        <time>2022-01-30T10:05:54Z</time>
      </trkpt>
      <trkpt lat="41.8780930" lon="-2.8485480">
        <ele>1167.9</ele>
        <time>2022-01-30T10:05:55Z</time>
      </trkpt>
      <trkpt lat="41.8780800" lon="-2.8485800">
        <ele>1167.9</ele>
        <time>2022-01-30T10:05:56Z</time>
      </trkpt>
      <trkpt lat="41.8780680" lon="-2.8486120">
        <ele>1168.0</ele>
        <time>2022-01-30T10:05:57Z</time>
      </trkpt>
      <trkpt lat="41.8780570" lon="-2.8486420">
        <ele>1168.0</ele>
        <time>2022-01-30T10:05:58Z</time>
      </trkpt>
      <trkpt lat="41.8780420" lon="-2.8486630">
        <ele>1168.0</ele>
        <time>2022-01-30T10:05:59Z</time>
      </trkpt>
      <trkpt lat="41.8780220" lon="-2.8486720">
        <ele>1168.0</ele>
        <time>2022-01-30T10:06:00Z</time>
      </trkpt>
      <trkpt lat="41.8780070" lon="-2.8486720">
        <ele>1168.0</ele>
        <time>2022-01-30T10:06:01Z</time>
      </trkpt>
      <trkpt lat="41.8779780" lon="-2.8486630">
        <ele>1168.0</ele>
        <time>2022-01-30T10:06:02Z</time>
      </trkpt>
      <trkpt lat="41.8779530" lon="-2.8486550">
        <ele>1168.0</ele>
        <time>2022-01-30T10:06:03Z</time>
      </trkpt>
      <trkpt lat="41.8779250" lon="-2.8486430">
        <ele>1168.0</ele>
        <time>2022-01-30T10:06:04Z</time>
      </trkpt>
      <trkpt lat="41.8778930" lon="-2.8486350">
        <ele>1168.0</ele>
        <time>2022-01-30T10:06:05Z</time>
      </trkpt>
      <trkpt lat="41.8778580" lon="-2.8486200">
        <ele>1167.9</ele>
        <time>2022-01-30T10:06:06Z</time>
      </trkpt>
      <trkpt lat="41.8778270" lon="-2.8486080">
        <ele>1167.9</ele>
        <time>2022-01-30T10:06:07Z</time>
      </trkpt>
      <trkpt lat="41.8777930" lon="-2.8486000">
        <ele>1167.9</ele>
        <time>2022-01-30T10:06:08Z</time>
      </trkpt>
      <trkpt lat="41.8777580" lon="-2.8485950">
        <ele>1167.8</ele>
        <time>2022-01-30T10:06:09Z</time>
      </trkpt>
      <trkpt lat="41.8777280" lon="-2.8485900">
        <ele>1167.7</ele>
        <time>2022-01-30T10:06:10Z</time>
      </trkpt>
      <trkpt lat="41.8776980" lon="-2.8485870">
        <ele>1167.6</ele>
        <time>2022-01-30T10:06:11Z</time>
      </trkpt>
      <trkpt lat="41.8776650" lon="-2.8485870">
        <ele>1167.4</ele>
        <time>2022-01-30T10:06:12Z</time>
      </trkpt>
      <trkpt lat="41.8776300" lon="-2.8485850">
        <ele>1167.2</ele>
        <time>2022-01-30T10:06:13Z</time>
      </trkpt>
      <trkpt lat="41.8776000" lon="-2.8485850">
        <ele>1167.0</ele>
        <time>2022-01-30T10:06:14Z</time>
      </trkpt>
      <trkpt lat="41.8775700" lon="-2.8485900">
        <ele>1166.8</ele>
        <time>2022-01-30T10:06:15Z</time>
      </trkpt>
      <trkpt lat="41.8775400" lon="-2.8485930">
        <ele>1166.6</ele>
        <time>2022-01-30T10:06:16Z</time>
      </trkpt>
      <trkpt lat="41.8775070" lon="-2.8485950">
        <ele>1166.4</ele>
        <time>2022-01-30T10:06:17Z</time>
      </trkpt>
      <trkpt lat="41.8774730" lon="-2.8485930">
        <ele>1166.1</ele>
        <time>2022-01-30T10:06:18Z</time>
      </trkpt>
      <trkpt lat="41.8774380" lon="-2.8485870">
        <ele>1165.7</ele>
        <time>2022-01-30T10:06:19Z</time>
      </trkpt>
      <trkpt lat="41.8773980" lon="-2.8485820">
        <ele>1165.3</ele>
        <time>2022-01-30T10:06:20Z</time>
      </trkpt>
      <trkpt lat="41.8773570" lon="-2.8485870">
        <ele>1164.9</ele>
        <time>2022-01-30T10:06:21Z</time>
      </trkpt>
      <trkpt lat="41.8773150" lon="-2.8486000">
        <ele>1164.4</ele>
        <time>2022-01-30T10:06:22Z</time>
      </trkpt>
      <trkpt lat="41.8772750" lon="-2.8486230">
        <ele>1164.0</ele>
        <time>2022-01-30T10:06:23Z</time>
      </trkpt>
      <trkpt lat="41.8772350" lon="-2.8486500">
        <ele>1163.6</ele>
        <time>2022-01-30T10:06:24Z</time>
      </trkpt>
      <trkpt lat="41.8771900" lon="-2.8486770">
        <ele>1163.1</ele>
        <time>2022-01-30T10:06:25Z</time>
      </trkpt>
      <trkpt lat="41.8771420" lon="-2.8486980">
        <ele>1162.7</ele>
        <time>2022-01-30T10:06:26Z</time>
      </trkpt>
      <trkpt lat="41.8770920" lon="-2.8487080">
        <ele>1162.4</ele>
        <time>2022-01-30T10:06:27Z</time>
      </trkpt>
      <trkpt lat="41.8770420" lon="-2.8487100">
        <ele>1162.0</ele>
        <time>2022-01-30T10:06:28Z</time>
      </trkpt>
      <trkpt lat="41.8769920" lon="-2.8487100">
        <ele>1161.7</ele>
        <time>2022-01-30T10:06:29Z</time>
      </trkpt>
      <trkpt lat="41.8769280" lon="-2.8487200">
        <ele>1161.3</ele>
        <time>2022-01-30T10:06:30Z</time>
      </trkpt>
      <trkpt lat="41.8768750" lon="-2.8487220">
        <ele>1161.0</ele>
        <time>2022-01-30T10:06:31Z</time>
      </trkpt>
      <trkpt lat="41.8768300" lon="-2.8487150">
        <ele>1160.7</ele>
        <time>2022-01-30T10:06:32Z</time>
      </trkpt>
      <trkpt lat="41.8767830" lon="-2.8487050">
        <ele>1160.3</ele>
        <time>2022-01-30T10:06:33Z</time>
      </trkpt>
      <trkpt lat="41.8767350" lon="-2.8486930">
        <ele>1160.0</ele>
        <time>2022-01-30T10:06:34Z</time>
      </trkpt>
      <trkpt lat="41.8766770" lon="-2.8486830">
        <ele>1159.5</ele>
        <time>2022-01-30T10:06:35Z</time>
      </trkpt>
      <trkpt lat="41.8766170" lon="-2.8486920">
        <ele>1159.1</ele>
        <time>2022-01-30T10:06:36Z</time>
      </trkpt>
      <trkpt lat="41.8765670" lon="-2.8487080">
        <ele>1158.8</ele>
        <time>2022-01-30T10:06:37Z</time>
      </trkpt>
      <trkpt lat="41.8765280" lon="-2.8487320">
        <ele>1158.5</ele>
        <time>2022-01-30T10:06:38Z</time>
      </trkpt>
      <trkpt lat="41.8765080" lon="-2.8487330">
        <ele>1158.4</ele>
        <time>2022-01-30T10:06:39Z</time>
      </trkpt>
      <trkpt lat="41.8764920" lon="-2.8487270">
        <ele>1158.3</ele>
        <time>2022-01-30T10:06:40Z</time>
      </trkpt>
      <trkpt lat="41.8764720" lon="-2.8487170">
        <ele>1158.2</ele>
        <time>2022-01-30T10:06:41Z</time>
      </trkpt>
      <trkpt lat="41.8764520" lon="-2.8486930">
        <ele>1158.1</ele>
        <time>2022-01-30T10:06:42Z</time>
      </trkpt>
      <trkpt lat="41.8764430" lon="-2.8486620">
        <ele>1158.0</ele>
        <time>2022-01-30T10:06:43Z</time>
      </trkpt>
      <trkpt lat="41.8764380" lon="-2.8486280">
        <ele>1157.9</ele>
        <time>2022-01-30T10:06:44Z</time>
      </trkpt>
      <trkpt lat="41.8764370" lon="-2.8485930">
        <ele>1157.8</ele>
        <time>2022-01-30T10:06:45Z</time>
      </trkpt>
      <trkpt lat="41.8764370" lon="-2.8485530">
        <ele>1157.7</ele>
        <time>2022-01-30T10:06:46Z</time>
      </trkpt>
      <trkpt lat="41.8764370" lon="-2.8485120">
        <ele>1157.6</ele>
        <time>2022-01-30T10:06:47Z</time>
      </trkpt>
      <trkpt lat="41.8764370" lon="-2.8484730">
        <ele>1157.5</ele>
        <time>2022-01-30T10:06:48Z</time>
      </trkpt>
      <trkpt lat="41.8764400" lon="-2.8484330">
        <ele>1157.4</ele>
        <time>2022-01-30T10:06:49Z</time>
      </trkpt>
      <trkpt lat="41.8764400" lon="-2.8483920">
        <ele>1157.4</ele>
        <time>2022-01-30T10:06:50Z</time>
      </trkpt>
      <trkpt lat="41.8764370" lon="-2.8483450">
        <ele>1157.3</ele>
        <time>2022-01-30T10:06:51Z</time>
      </trkpt>
      <trkpt lat="41.8764330" lon="-2.8482970">
        <ele>1157.2</ele>
        <time>2022-01-30T10:06:52Z</time>
      </trkpt>
      <trkpt lat="41.8764280" lon="-2.8482480">
        <ele>1157.1</ele>
        <time>2022-01-30T10:06:53Z</time>
      </trkpt>
      <trkpt lat="41.8764150" lon="-2.8482020">
        <ele>1157.1</ele>
        <time>2022-01-30T10:06:54Z</time>
      </trkpt>
      <trkpt lat="41.8764050" lon="-2.8481520">
        <ele>1157.0</ele>
        <time>2022-01-30T10:06:55Z</time>
      </trkpt>
      <trkpt lat="41.8763900" lon="-2.8480980">
        <ele>1156.9</ele>
        <time>2022-01-30T10:06:56Z</time>
      </trkpt>
      <trkpt lat="41.8763780" lon="-2.8480430">
        <ele>1156.9</ele>
        <time>2022-01-30T10:06:57Z</time>
      </trkpt>
      <trkpt lat="41.8763680" lon="-2.8479770">
        <ele>1156.8</ele>
        <time>2022-01-30T10:06:58Z</time>
      </trkpt>
      <trkpt lat="41.8763630" lon="-2.8479200">
        <ele>1156.8</ele>
        <time>2022-01-30T10:06:59Z</time>
      </trkpt>
      <trkpt lat="41.8763620" lon="-2.8478630">
        <ele>1156.7</ele>
        <time>2022-01-30T10:07:00Z</time>
      </trkpt>
      <trkpt lat="41.8763630" lon="-2.8478080">
        <ele>1156.7</ele>
        <time>2022-01-30T10:07:01Z</time>
      </trkpt>
      <trkpt lat="41.8763630" lon="-2.8477550">
        <ele>1156.7</ele>
        <time>2022-01-30T10:07:02Z</time>
      </trkpt>
      <trkpt lat="41.8763570" lon="-2.8477070">
        <ele>1156.7</ele>
        <time>2022-01-30T10:07:03Z</time>
      </trkpt>
      <trkpt lat="41.8763500" lon="-2.8476570">
        <ele>1156.7</ele>
        <time>2022-01-30T10:07:04Z</time>
      </trkpt>
      <trkpt lat="41.8763470" lon="-2.8476080">
        <ele>1156.7</ele>
        <time>2022-01-30T10:07:05Z</time>
      </trkpt>
      <trkpt lat="41.8763380" lon="-2.8475400">
        <ele>1156.7</ele>
        <time>2022-01-30T10:07:06Z</time>
      </trkpt>
      <trkpt lat="41.8763370" lon="-2.8474720">
        <ele>1156.8</ele>
        <time>2022-01-30T10:07:07Z</time>
      </trkpt>
      <trkpt lat="41.8763450" lon="-2.8474000">
        <ele>1156.9</ele>
        <time>2022-01-30T10:07:08Z</time>
      </trkpt>
      <trkpt lat="41.8763620" lon="-2.8473480">
        <ele>1157.0</ele>
        <time>2022-01-30T10:07:09Z</time>
      </trkpt>
      <trkpt lat="41.8763800" lon="-2.8473050">
        <ele>1157.1</ele>
        <time>2022-01-30T10:07:10Z</time>
      </trkpt>
      <trkpt lat="41.8763980" lon="-2.8472570">
        <ele>1157.2</ele>
        <time>2022-01-30T10:07:11Z</time>
      </trkpt>
      <trkpt lat="41.8764200" lon="-2.8472080">
        <ele>1157.3</ele>
        <time>2022-01-30T10:07:12Z</time>
      </trkpt>
      <trkpt lat="41.8764370" lon="-2.8471570">
        <ele>1157.3</ele>
        <time>2022-01-30T10:07:13Z</time>
      </trkpt>
      <trkpt lat="41.8764480" lon="-2.8471000">
        <ele>1157.5</ele>
        <time>2022-01-30T10:07:14Z</time>
      </trkpt>
      <trkpt lat="41.8764530" lon="-2.8470420">
        <ele>1157.6</ele>
        <time>2022-01-30T10:07:15Z</time>
      </trkpt>
      <trkpt lat="41.8764630" lon="-2.8469850">
        <ele>1157.7</ele>
        <time>2022-01-30T10:07:16Z</time>
      </trkpt>
      <trkpt lat="41.8764770" lon="-2.8469280">
        <ele>1157.8</ele>
        <time>2022-01-30T10:07:17Z</time>
      </trkpt>
      <trkpt lat="41.8765000" lon="-2.8468750">
        <ele>1158.0</ele>
        <time>2022-01-30T10:07:18Z</time>
      </trkpt>
      <trkpt lat="41.8765270" lon="-2.8468220">
        <ele>1158.1</ele>
        <time>2022-01-30T10:07:19Z</time>
      </trkpt>
      <trkpt lat="41.8765470" lon="-2.8467680">
        <ele>1158.3</ele>
        <time>2022-01-30T10:07:20Z</time>
      </trkpt>
      <trkpt lat="41.8765600" lon="-2.8467170">
        <ele>1158.4</ele>
        <time>2022-01-30T10:07:21Z</time>
      </trkpt>
      <trkpt lat="41.8765720" lon="-2.8466680">
        <ele>1158.6</ele>
        <time>2022-01-30T10:07:22Z</time>
      </trkpt>
      <trkpt lat="41.8765820" lon="-2.8466200">
        <ele>1158.7</ele>
        <time>2022-01-30T10:07:23Z</time>
      </trkpt>
      <trkpt lat="41.8765900" lon="-2.8465670">
        <ele>1158.8</ele>
        <time>2022-01-30T10:07:24Z</time>
      </trkpt>
      <trkpt lat="41.8765970" lon="-2.8465130">
        <ele>1159.0</ele>
        <time>2022-01-30T10:07:25Z</time>
      </trkpt>
      <trkpt lat="41.8766030" lon="-2.8464580">
        <ele>1159.1</ele>
        <time>2022-01-30T10:07:26Z</time>
      </trkpt>
      <trkpt lat="41.8766100" lon="-2.8464080">
        <ele>1159.2</ele>
        <time>2022-01-30T10:07:27Z</time>
      </trkpt>
      <trkpt lat="41.8766180" lon="-2.8463620">
        <ele>1159.3</ele>
        <time>2022-01-30T10:07:28Z</time>
      </trkpt>
      <trkpt lat="41.8766300" lon="-2.8463170">
        <ele>1159.4</ele>
        <time>2022-01-30T10:07:29Z</time>
      </trkpt>
      <trkpt lat="41.8766420" lon="-2.8462720">
        <ele>1159.5</ele>
        <time>2022-01-30T10:07:30Z</time>
      </trkpt>
      <trkpt lat="41.8766570" lon="-2.8462320">
        <ele>1159.7</ele>
        <time>2022-01-30T10:07:31Z</time>
      </trkpt>
      <trkpt lat="41.8766730" lon="-2.8461900">
        <ele>1159.8</ele>
        <time>2022-01-30T10:07:32Z</time>
      </trkpt>
      <trkpt lat="41.8766880" lon="-2.8461450">
        <ele>1159.9</ele>
        <time>2022-01-30T10:07:33Z</time>
      </trkpt>
      <trkpt lat="41.8767030" lon="-2.8461030">
        <ele>1160.1</ele>
        <time>2022-01-30T10:07:34Z</time>
      </trkpt>
      <trkpt lat="41.8767170" lon="-2.8460580">
        <ele>1160.2</ele>
        <time>2022-01-30T10:07:35Z</time>
      </trkpt>
      <trkpt lat="41.8767280" lon="-2.8460120">
        <ele>1160.4</ele>
        <time>2022-01-30T10:07:36Z</time>
      </trkpt>
      <trkpt lat="41.8767380" lon="-2.8459670">
        <ele>1160.5</ele>
        <time>2022-01-30T10:07:37Z</time>
      </trkpt>
      <trkpt lat="41.8767520" lon="-2.8459220">
        <ele>1160.7</ele>
        <time>2022-01-30T10:07:38Z</time>
      </trkpt>
      <trkpt lat="41.8767650" lon="-2.8458770">
        <ele>1160.8</ele>
        <time>2022-01-30T10:07:39Z</time>
      </trkpt>
      <trkpt lat="41.8767730" lon="-2.8458300">
        <ele>1161.0</ele>
        <time>2022-01-30T10:07:40Z</time>
      </trkpt>
      <trkpt lat="41.8767770" lon="-2.8457820">
        <ele>1161.1</ele>
        <time>2022-01-30T10:07:41Z</time>
      </trkpt>
      <trkpt lat="41.8767820" lon="-2.8457370">
        <ele>1161.3</ele>
        <time>2022-01-30T10:07:42Z</time>
      </trkpt>
      <trkpt lat="41.8767870" lon="-2.8456930">
        <ele>1161.4</ele>
        <time>2022-01-30T10:07:43Z</time>
      </trkpt>
      <trkpt lat="41.8767870" lon="-2.8456450">
        <ele>1161.7</ele>
        <time>2022-01-30T10:07:44Z</time>
      </trkpt>
      <trkpt lat="41.8767870" lon="-2.8456020">
        <ele>1161.8</ele>
        <time>2022-01-30T10:07:45Z</time>
      </trkpt>
      <trkpt lat="41.8767850" lon="-2.8455570">
        <ele>1162.0</ele>
        <time>2022-01-30T10:07:46Z</time>
      </trkpt>
      <trkpt lat="41.8767850" lon="-2.8455170">
        <ele>1162.1</ele>
        <time>2022-01-30T10:07:47Z</time>
      </trkpt>
      <trkpt lat="41.8767820" lon="-2.8454800">
        <ele>1162.3</ele>
        <time>2022-01-30T10:07:48Z</time>
      </trkpt>
      <trkpt lat="41.8767750" lon="-2.8454470">
        <ele>1162.4</ele>
        <time>2022-01-30T10:07:49Z</time>
      </trkpt>
      <trkpt lat="41.8767630" lon="-2.8454080">
        <ele>1162.6</ele>
        <time>2022-01-30T10:07:50Z</time>
      </trkpt>
      <trkpt lat="41.8767550" lon="-2.8453680">
        <ele>1162.7</ele>
        <time>2022-01-30T10:07:51Z</time>
      </trkpt>
      <trkpt lat="41.8767520" lon="-2.8453270">
        <ele>1162.9</ele>
        <time>2022-01-30T10:07:52Z</time>
      </trkpt>
      <trkpt lat="41.8767520" lon="-2.8452830">
        <ele>1163.1</ele>
        <time>2022-01-30T10:07:53Z</time>
      </trkpt>
      <trkpt lat="41.8767550" lon="-2.8452400">
        <ele>1163.2</ele>
        <time>2022-01-30T10:07:54Z</time>
      </trkpt>
      <trkpt lat="41.8767580" lon="-2.8451950">
        <ele>1163.4</ele>
        <time>2022-01-30T10:07:55Z</time>
      </trkpt>
      <trkpt lat="41.8767630" lon="-2.8451520">
        <ele>1163.5</ele>
        <time>2022-01-30T10:07:56Z</time>
      </trkpt>
      <trkpt lat="41.8767700" lon="-2.8451070">
        <ele>1163.6</ele>
        <time>2022-01-30T10:07:57Z</time>
      </trkpt>
      <trkpt lat="41.8767780" lon="-2.8450680">
        <ele>1163.8</ele>
        <time>2022-01-30T10:07:58Z</time>
      </trkpt>
      <trkpt lat="41.8767830" lon="-2.8450280">
        <ele>1163.9</ele>
        <time>2022-01-30T10:07:59Z</time>
      </trkpt>
      <trkpt lat="41.8767920" lon="-2.8449930">
        <ele>1164.0</ele>
        <time>2022-01-30T10:08:00Z</time>
      </trkpt>
      <trkpt lat="41.8768020" lon="-2.8449570">
        <ele>1164.2</ele>
        <time>2022-01-30T10:08:01Z</time>
      </trkpt>
      <trkpt lat="41.8768120" lon="-2.8449220">
        <ele>1164.3</ele>
        <time>2022-01-30T10:08:02Z</time>
      </trkpt>
      <trkpt lat="41.8768200" lon="-2.8448880">
        <ele>1164.4</ele>
        <time>2022-01-30T10:08:03Z</time>
      </trkpt>
      <trkpt lat="41.8768320" lon="-2.8448550">
        <ele>1164.5</ele>
        <time>2022-01-30T10:08:04Z</time>
      </trkpt>
      <trkpt lat="41.8768400" lon="-2.8448170">
        <ele>1164.6</ele>
        <time>2022-01-30T10:08:05Z</time>
      </trkpt>
      <trkpt lat="41.8768480" lon="-2.8447730">
        <ele>1164.7</ele>
        <time>2022-01-30T10:08:06Z</time>
      </trkpt>
      <trkpt lat="41.8768520" lon="-2.8447350">
        <ele>1164.8</ele>
        <time>2022-01-30T10:08:07Z</time>
      </trkpt>
      <trkpt lat="41.8768550" lon="-2.8446980">
        <ele>1164.9</ele>
        <time>2022-01-30T10:08:08Z</time>
      </trkpt>
      <trkpt lat="41.8768580" lon="-2.8446600">
        <ele>1164.9</ele>
        <time>2022-01-30T10:08:09Z</time>
      </trkpt>
      <trkpt lat="41.8768620" lon="-2.8446170">
        <ele>1165.0</ele>
        <time>2022-01-30T10:08:10Z</time>
      </trkpt>
      <trkpt lat="41.8768650" lon="-2.8445730">
        <ele>1165.0</ele>
        <time>2022-01-30T10:08:11Z</time>
      </trkpt>
      <trkpt lat="41.8768650" lon="-2.8445380">
        <ele>1165.0</ele>
        <time>2022-01-30T10:08:12Z</time>
      </trkpt>
      <trkpt lat="41.8768670" lon="-2.8445070">
        <ele>1165.1</ele>
        <time>2022-01-30T10:08:13Z</time>
      </trkpt>
      <trkpt lat="41.8768720" lon="-2.8444730">
        <ele>1165.1</ele>
        <time>2022-01-30T10:08:14Z</time>
      </trkpt>
      <trkpt lat="41.8768780" lon="-2.8444330">
        <ele>1165.1</ele>
        <time>2022-01-30T10:08:15Z</time>
      </trkpt>
      <trkpt lat="41.8768880" lon="-2.8443920">
        <ele>1165.1</ele>
        <time>2022-01-30T10:08:16Z</time>
      </trkpt>
      <trkpt lat="41.8769020" lon="-2.8443500">
        <ele>1165.1</ele>
        <time>2022-01-30T10:08:17Z</time>
      </trkpt>
      <trkpt lat="41.8769130" lon="-2.8443080">
        <ele>1165.1</ele>
        <time>2022-01-30T10:08:18Z</time>
      </trkpt>
      <trkpt lat="41.8769230" lon="-2.8442670">
        <ele>1165.1</ele>
        <time>2022-01-30T10:08:19Z</time>
      </trkpt>
      <trkpt lat="41.8769350" lon="-2.8442230">
        <ele>1165.0</ele>
        <time>2022-01-30T10:08:20Z</time>
      </trkpt>
      <trkpt lat="41.8769470" lon="-2.8441830">
        <ele>1165.0</ele>
        <time>2022-01-30T10:08:21Z</time>
      </trkpt>
      <trkpt lat="41.8769530" lon="-2.8441470">
        <ele>1164.9</ele>
        <time>2022-01-30T10:08:22Z</time>
      </trkpt>
      <trkpt lat="41.8769620" lon="-2.8441080">
        <ele>1164.8</ele>
        <time>2022-01-30T10:08:23Z</time>
      </trkpt>
      <trkpt lat="41.8769720" lon="-2.8440730">
        <ele>1164.7</ele>
        <time>2022-01-30T10:08:24Z</time>
      </trkpt>
      <trkpt lat="41.8769820" lon="-2.8440380">
        <ele>1164.6</ele>
        <time>2022-01-30T10:08:25Z</time>
      </trkpt>
      <trkpt lat="41.8769900" lon="-2.8440020">
        <ele>1164.5</ele>
        <time>2022-01-30T10:08:26Z</time>
      </trkpt>
      <trkpt lat="41.8769970" lon="-2.8439630">
        <ele>1164.4</ele>
        <time>2022-01-30T10:08:27Z</time>
      </trkpt>
      <trkpt lat="41.8770030" lon="-2.8439280">
        <ele>1164.3</ele>
        <time>2022-01-30T10:08:28Z</time>
      </trkpt>
      <trkpt lat="41.8770170" lon="-2.8438880">
        <ele>1164.2</ele>
        <time>2022-01-30T10:08:29Z</time>
      </trkpt>
      <trkpt lat="41.8770280" lon="-2.8438450">
        <ele>1164.1</ele>
        <time>2022-01-30T10:08:30Z</time>
      </trkpt>
      <trkpt lat="41.8770400" lon="-2.8438020">
        <ele>1164.0</ele>
        <time>2022-01-30T10:08:31Z</time>
      </trkpt>
      <trkpt lat="41.8770500" lon="-2.8437620">
        <ele>1163.9</ele>
        <time>2022-01-30T10:08:32Z</time>
      </trkpt>
      <trkpt lat="41.8770630" lon="-2.8437180">
        <ele>1163.7</ele>
        <time>2022-01-30T10:08:33Z</time>
      </trkpt>
      <trkpt lat="41.8770870" lon="-2.8436580">
        <ele>1163.5</ele>
        <time>2022-01-30T10:08:34Z</time>
      </trkpt>
      <trkpt lat="41.8770970" lon="-2.8435920">
        <ele>1163.2</ele>
        <time>2022-01-30T10:08:35Z</time>
      </trkpt>
      <trkpt lat="41.8770980" lon="-2.8435320">
        <ele>1162.9</ele>
        <time>2022-01-30T10:08:36Z</time>
      </trkpt>
      <trkpt lat="41.8770920" lon="-2.8434700">
        <ele>1162.6</ele>
        <time>2022-01-30T10:08:37Z</time>
      </trkpt>
      <trkpt lat="41.8770870" lon="-2.8434150">
        <ele>1162.3</ele>
        <time>2022-01-30T10:08:38Z</time>
      </trkpt>
      <trkpt lat="41.8770850" lon="-2.8433700">
        <ele>1162.1</ele>
        <time>2022-01-30T10:08:39Z</time>
      </trkpt>
      <trkpt lat="41.8770800" lon="-2.8433220">
        <ele>1161.9</ele>
        <time>2022-01-30T10:08:40Z</time>
      </trkpt>
      <trkpt lat="41.8770770" lon="-2.8432720">
        <ele>1161.7</ele>
        <time>2022-01-30T10:08:41Z</time>
      </trkpt>
      <trkpt lat="41.8770770" lon="-2.8432180">
        <ele>1161.4</ele>
        <time>2022-01-30T10:08:42Z</time>
      </trkpt>
      <trkpt lat="41.8770750" lon="-2.8431600">
        <ele>1161.1</ele>
        <time>2022-01-30T10:08:43Z</time>
      </trkpt>
      <trkpt lat="41.8770670" lon="-2.8431030">
        <ele>1160.7</ele>
        <time>2022-01-30T10:08:44Z</time>
      </trkpt>
      <trkpt lat="41.8770530" lon="-2.8430450">
        <ele>1160.3</ele>
        <time>2022-01-30T10:08:45Z</time>
      </trkpt>
      <trkpt lat="41.8770380" lon="-2.8429900">
        <ele>1159.9</ele>
        <time>2022-01-30T10:08:46Z</time>
      </trkpt>
      <trkpt lat="41.8770270" lon="-2.8429330">
        <ele>1159.5</ele>
        <time>2022-01-30T10:08:47Z</time>
      </trkpt>
      <trkpt lat="41.8770230" lon="-2.8428770">
        <ele>1159.1</ele>
        <time>2022-01-30T10:08:48Z</time>
      </trkpt>
      <trkpt lat="41.8770170" lon="-2.8428150">
        <ele>1158.7</ele>
        <time>2022-01-30T10:08:49Z</time>
      </trkpt>
      <trkpt lat="41.8770080" lon="-2.8427480">
        <ele>1158.3</ele>
        <time>2022-01-30T10:08:50Z</time>
      </trkpt>
      <trkpt lat="41.8769970" lon="-2.8426820">
        <ele>1157.9</ele>
        <time>2022-01-30T10:08:51Z</time>
      </trkpt>
      <trkpt lat="41.8769820" lon="-2.8426130">
        <ele>1157.4</ele>
        <time>2022-01-30T10:08:52Z</time>
      </trkpt>
      <trkpt lat="41.8769720" lon="-2.8425470">
        <ele>1157.0</ele>
        <time>2022-01-30T10:08:53Z</time>
      </trkpt>
      <trkpt lat="41.8769480" lon="-2.8424670">
        <ele>1156.3</ele>
        <time>2022-01-30T10:08:54Z</time>
      </trkpt>
      <trkpt lat="41.8769370" lon="-2.8424000">
        <ele>1155.9</ele>
        <time>2022-01-30T10:08:55Z</time>
      </trkpt>
      <trkpt lat="41.8769330" lon="-2.8423380">
        <ele>1155.6</ele>
        <time>2022-01-30T10:08:56Z</time>
      </trkpt>
      <trkpt lat="41.8769200" lon="-2.8422770">
        <ele>1155.3</ele>
        <time>2022-01-30T10:08:57Z</time>
      </trkpt>
      <trkpt lat="41.8769100" lon="-2.8422200">
        <ele>1155.1</ele>
        <time>2022-01-30T10:08:58Z</time>
      </trkpt>
      <trkpt lat="41.8769100" lon="-2.8421700">
        <ele>1155.0</ele>
        <time>2022-01-30T10:08:59Z</time>
      </trkpt>
      <trkpt lat="41.8769130" lon="-2.8421230">
        <ele>1154.9</ele>
        <time>2022-01-30T10:09:00Z</time>
      </trkpt>
      <trkpt lat="41.8769200" lon="-2.8420750">
        <ele>1154.9</ele>
        <time>2022-01-30T10:09:01Z</time>
      </trkpt>
      <trkpt lat="41.8769280" lon="-2.8420330">
        <ele>1154.9</ele>
        <time>2022-01-30T10:09:02Z</time>
      </trkpt>
      <trkpt lat="41.8769320" lon="-2.8419980">
        <ele>1154.9</ele>
        <time>2022-01-30T10:09:03Z</time>
      </trkpt>
      <trkpt lat="41.8769350" lon="-2.8419670">
        <ele>1154.9</ele>
        <time>2022-01-30T10:09:04Z</time>
      </trkpt>
      <trkpt lat="41.8769370" lon="-2.8419350">
        <ele>1155.0</ele>
        <time>2022-01-30T10:09:05Z</time>
      </trkpt>
      <trkpt lat="41.8769350" lon="-2.8419000">
        <ele>1155.0</ele>
        <time>2022-01-30T10:09:06Z</time>
      </trkpt>
      <trkpt lat="41.8769320" lon="-2.8418700">
        <ele>1155.1</ele>
        <time>2022-01-30T10:09:07Z</time>
      </trkpt>
      <trkpt lat="41.8769280" lon="-2.8418430">
        <ele>1155.1</ele>
        <time>2022-01-30T10:09:08Z</time>
      </trkpt>
      <trkpt lat="41.8769220" lon="-2.8418080">
        <ele>1155.2</ele>
        <time>2022-01-30T10:09:09Z</time>
      </trkpt>
      <trkpt lat="41.8769120" lon="-2.8417770">
        <ele>1155.2</ele>
        <time>2022-01-30T10:09:10Z</time>
      </trkpt>
      <trkpt lat="41.8768970" lon="-2.8417420">
        <ele>1155.3</ele>
        <time>2022-01-30T10:09:11Z</time>
      </trkpt>
      <trkpt lat="41.8768820" lon="-2.8417030">
        <ele>1155.4</ele>
        <time>2022-01-30T10:09:12Z</time>
      </trkpt>
      <trkpt lat="41.8768700" lon="-2.8416620">
        <ele>1155.5</ele>
        <time>2022-01-30T10:09:13Z</time>
      </trkpt>
      <trkpt lat="41.8768570" lon="-2.8416350">
        <ele>1155.6</ele>
        <time>2022-01-30T10:09:14Z</time>
      </trkpt>
      <trkpt lat="41.8768470" lon="-2.8416100">
        <ele>1155.6</ele>
        <time>2022-01-30T10:09:15Z</time>
      </trkpt>
      <trkpt lat="41.8768380" lon="-2.8415850">
        <ele>1155.7</ele>
        <time>2022-01-30T10:09:16Z</time>
      </trkpt>
      <trkpt lat="41.8768350" lon="-2.8415550">
        <ele>1155.8</ele>
        <time>2022-01-30T10:09:17Z</time>
      </trkpt>
      <trkpt lat="41.8768280" lon="-2.8415230">
        <ele>1155.9</ele>
        <time>2022-01-30T10:09:18Z</time>
      </trkpt>
      <trkpt lat="41.8768200" lon="-2.8414930">
        <ele>1156.0</ele>
        <time>2022-01-30T10:09:19Z</time>
      </trkpt>
      <trkpt lat="41.8768170" lon="-2.8414650">
        <ele>1156.0</ele>
        <time>2022-01-30T10:09:20Z</time>
      </trkpt>
      <trkpt lat="41.8768100" lon="-2.8414350">
        <ele>1156.1</ele>
        <time>2022-01-30T10:09:21Z</time>
      </trkpt>
      <trkpt lat="41.8768080" lon="-2.8414050">
        <ele>1156.2</ele>
        <time>2022-01-30T10:09:22Z</time>
      </trkpt>
      <trkpt lat="41.8768030" lon="-2.8413730">
        <ele>1156.3</ele>
        <time>2022-01-30T10:09:23Z</time>
      </trkpt>
      <trkpt lat="41.8767970" lon="-2.8413450">
        <ele>1156.4</ele>
        <time>2022-01-30T10:09:24Z</time>
      </trkpt>
      <trkpt lat="41.8767950" lon="-2.8413200">
        <ele>1156.4</ele>
        <time>2022-01-30T10:09:25Z</time>
      </trkpt>
      <trkpt lat="41.8767900" lon="-2.8412980">
        <ele>1156.5</ele>
        <time>2022-01-30T10:09:26Z</time>
      </trkpt>
      <trkpt lat="41.8767830" lon="-2.8412770">
        <ele>1156.5</ele>
        <time>2022-01-30T10:09:27Z</time>
      </trkpt>
      <trkpt lat="41.8767750" lon="-2.8412550">
        <ele>1156.6</ele>
        <time>2022-01-30T10:09:28Z</time>
      </trkpt>
      <trkpt lat="41.8767670" lon="-2.8412300">
        <ele>1156.6</ele>
        <time>2022-01-30T10:09:29Z</time>
      </trkpt>
      <trkpt lat="41.8767580" lon="-2.8412000">
        <ele>1156.7</ele>
        <time>2022-01-30T10:09:30Z</time>
      </trkpt>
      <trkpt lat="41.8767480" lon="-2.8411680">
        <ele>1156.8</ele>
        <time>2022-01-30T10:09:31Z</time>
      </trkpt>
      <trkpt lat="41.8767400" lon="-2.8411370">
        <ele>1156.9</ele>
        <time>2022-01-30T10:09:32Z</time>
      </trkpt>
      <trkpt lat="41.8767350" lon="-2.8411070">
        <ele>1156.9</ele>
        <time>2022-01-30T10:09:33Z</time>
      </trkpt>
      <trkpt lat="41.8767320" lon="-2.8410770">
        <ele>1157.0</ele>
        <time>2022-01-30T10:09:34Z</time>
      </trkpt>
      <trkpt lat="41.8767280" lon="-2.8410450">
        <ele>1157.1</ele>
        <time>2022-01-30T10:09:35Z</time>
      </trkpt>
      <trkpt lat="41.8767270" lon="-2.8410150">
        <ele>1157.1</ele>
        <time>2022-01-30T10:09:36Z</time>
      </trkpt>
      <trkpt lat="41.8767300" lon="-2.8409930">
        <ele>1157.2</ele>
        <time>2022-01-30T10:09:37Z</time>
      </trkpt>
      <trkpt lat="41.8767330" lon="-2.8409650">
        <ele>1157.3</ele>
        <time>2022-01-30T10:09:38Z</time>
      </trkpt>
      <trkpt lat="41.8767370" lon="-2.8409350">
        <ele>1157.3</ele>
        <time>2022-01-30T10:09:39Z</time>
      </trkpt>
      <trkpt lat="41.8767380" lon="-2.8409080">
        <ele>1157.4</ele>
        <time>2022-01-30T10:09:40Z</time>
      </trkpt>
      <trkpt lat="41.8767330" lon="-2.8408820">
        <ele>1157.4</ele>
        <time>2022-01-30T10:09:41Z</time>
      </trkpt>
      <trkpt lat="41.8767270" lon="-2.8408480">
        <ele>1157.5</ele>
        <time>2022-01-30T10:09:42Z</time>
      </trkpt>
      <trkpt lat="41.8767150" lon="-2.8408130">
        <ele>1157.6</ele>
        <time>2022-01-30T10:09:43Z</time>
      </trkpt>
      <trkpt lat="41.8767120" lon="-2.8407780">
        <ele>1157.6</ele>
        <time>2022-01-30T10:09:44Z</time>
      </trkpt>
      <trkpt lat="41.8767050" lon="-2.8407420">
        <ele>1157.7</ele>
        <time>2022-01-30T10:09:45Z</time>
      </trkpt>
      <trkpt lat="41.8766970" lon="-2.8407150">
        <ele>1157.7</ele>
        <time>2022-01-30T10:09:46Z</time>
      </trkpt>
      <trkpt lat="41.8766870" lon="-2.8406880">
        <ele>1157.8</ele>
        <time>2022-01-30T10:09:47Z</time>
      </trkpt>
      <trkpt lat="41.8766780" lon="-2.8406580">
        <ele>1157.8</ele>
        <time>2022-01-30T10:09:48Z</time>
      </trkpt>
      <trkpt lat="41.8766720" lon="-2.8406330">
        <ele>1157.8</ele>
        <time>2022-01-30T10:09:49Z</time>
      </trkpt>
      <trkpt lat="41.8766620" lon="-2.8406050">
        <ele>1157.9</ele>
        <time>2022-01-30T10:09:50Z</time>
      </trkpt>
      <trkpt lat="41.8766530" lon="-2.8405800">
        <ele>1157.9</ele>
        <time>2022-01-30T10:09:51Z</time>
      </trkpt>
      <trkpt lat="41.8766450" lon="-2.8405580">
        <ele>1157.9</ele>
        <time>2022-01-30T10:09:52Z</time>
      </trkpt>
      <trkpt lat="41.8766350" lon="-2.8405420">
        <ele>1157.9</ele>
        <time>2022-01-30T10:09:53Z</time>
      </trkpt>
      <trkpt lat="41.8766180" lon="-2.8405280">
        <ele>1157.8</ele>
        <time>2022-01-30T10:09:54Z</time>
      </trkpt>
      <trkpt lat="41.8765980" lon="-2.8405230">
        <ele>1157.8</ele>
        <time>2022-01-30T10:09:55Z</time>
      </trkpt>
      <trkpt lat="41.8765770" lon="-2.8405230">
        <ele>1157.8</ele>
        <time>2022-01-30T10:09:56Z</time>
      </trkpt>
      <trkpt lat="41.8765550" lon="-2.8405300">
        <ele>1157.7</ele>
        <time>2022-01-30T10:09:57Z</time>
      </trkpt>
      <trkpt lat="41.8765300" lon="-2.8405380">
        <ele>1157.7</ele>
        <time>2022-01-30T10:09:58Z</time>
      </trkpt>
      <trkpt lat="41.8765030" lon="-2.8405580">
        <ele>1157.6</ele>
        <time>2022-01-30T10:09:59Z</time>
      </trkpt>
      <trkpt lat="41.8764730" lon="-2.8405750">
        <ele>1157.6</ele>
        <time>2022-01-30T10:10:00Z</time>
      </trkpt>
      <trkpt lat="41.8764450" lon="-2.8405880">
        <ele>1157.7</ele>
        <time>2022-01-30T10:10:01Z</time>
      </trkpt>
      <trkpt lat="41.8764130" lon="-2.8405870">
        <ele>1157.7</ele>
        <time>2022-01-30T10:10:02Z</time>
      </trkpt>
      <trkpt lat="41.8763900" lon="-2.8406030">
        <ele>1157.7</ele>
        <time>2022-01-30T10:10:03Z</time>
      </trkpt>
      <trkpt lat="41.8763670" lon="-2.8406130">
        <ele>1157.8</ele>
        <time>2022-01-30T10:10:04Z</time>
      </trkpt>
      <trkpt lat="41.8763420" lon="-2.8406250">
        <ele>1157.8</ele>
        <time>2022-01-30T10:10:05Z</time>
      </trkpt>
      <trkpt lat="41.8763170" lon="-2.8406330">
        <ele>1157.8</ele>
        <time>2022-01-30T10:10:06Z</time>
      </trkpt>
      <trkpt lat="41.8762930" lon="-2.8406380">
        <ele>1157.8</ele>
        <time>2022-01-30T10:10:07Z</time>
      </trkpt>
      <trkpt lat="41.8762700" lon="-2.8406400">
        <ele>1157.8</ele>
        <time>2022-01-30T10:10:08Z</time>
      </trkpt>
      <trkpt lat="41.8762430" lon="-2.8406430">
        <ele>1157.9</ele>
        <time>2022-01-30T10:10:09Z</time>
      </trkpt>
      <trkpt lat="41.8762170" lon="-2.8406420">
        <ele>1157.9</ele>
        <time>2022-01-30T10:10:10Z</time>
      </trkpt>
      <trkpt lat="41.8761880" lon="-2.8406350">
        <ele>1157.9</ele>
        <time>2022-01-30T10:10:11Z</time>
      </trkpt>
      <trkpt lat="41.8761620" lon="-2.8406270">
        <ele>1157.9</ele>
        <time>2022-01-30T10:10:12Z</time>
      </trkpt>
      <trkpt lat="41.8761330" lon="-2.8406180">
        <ele>1157.9</ele>
        <time>2022-01-30T10:10:13Z</time>
      </trkpt>
      <trkpt lat="41.8761050" lon="-2.8406050">
        <ele>1157.9</ele>
        <time>2022-01-30T10:10:14Z</time>
      </trkpt>
      <trkpt lat="41.8760800" lon="-2.8405920">
        <ele>1157.9</ele>
        <time>2022-01-30T10:10:15Z</time>
      </trkpt>
      <trkpt lat="41.8760550" lon="-2.8405770">
        <ele>1157.9</ele>
        <time>2022-01-30T10:10:16Z</time>
      </trkpt>
      <trkpt lat="41.8760320" lon="-2.8405600">
        <ele>1157.9</ele>
        <time>2022-01-30T10:10:17Z</time>
      </trkpt>
      <trkpt lat="41.8760070" lon="-2.8405420">
        <ele>1157.9</ele>
        <time>2022-01-30T10:10:18Z</time>
      </trkpt>
      <trkpt lat="41.8759820" lon="-2.8405220">
        <ele>1157.9</ele>
        <time>2022-01-30T10:10:19Z</time>
      </trkpt>
      <trkpt lat="41.8759550" lon="-2.8405020">
        <ele>1157.9</ele>
        <time>2022-01-30T10:10:20Z</time>
      </trkpt>
      <trkpt lat="41.8759280" lon="-2.8404820">
        <ele>1157.8</ele>
        <time>2022-01-30T10:10:21Z</time>
      </trkpt>
      <trkpt lat="41.8759020" lon="-2.8404620">
        <ele>1157.8</ele>
        <time>2022-01-30T10:10:22Z</time>
      </trkpt>
      <trkpt lat="41.8758730" lon="-2.8404420">
        <ele>1157.7</ele>
        <time>2022-01-30T10:10:23Z</time>
      </trkpt>
      <trkpt lat="41.8758470" lon="-2.8404230">
        <ele>1157.7</ele>
        <time>2022-01-30T10:10:24Z</time>
      </trkpt>
      <trkpt lat="41.8758200" lon="-2.8404080">
        <ele>1157.6</ele>
        <time>2022-01-30T10:10:25Z</time>
      </trkpt>
      <trkpt lat="41.8757880" lon="-2.8403930">
        <ele>1157.6</ele>
        <time>2022-01-30T10:10:26Z</time>
      </trkpt>
      <trkpt lat="41.8757530" lon="-2.8403800">
        <ele>1157.5</ele>
        <time>2022-01-30T10:10:27Z</time>
      </trkpt>
      <trkpt lat="41.8757170" lon="-2.8403680">
        <ele>1157.4</ele>
        <time>2022-01-30T10:10:28Z</time>
      </trkpt>
      <trkpt lat="41.8756770" lon="-2.8403620">
        <ele>1157.4</ele>
        <time>2022-01-30T10:10:29Z</time>
      </trkpt>
      <trkpt lat="41.8756320" lon="-2.8403570">
        <ele>1157.3</ele>
        <time>2022-01-30T10:10:30Z</time>
      </trkpt>
      <trkpt lat="41.8755870" lon="-2.8403620">
        <ele>1157.3</ele>
        <time>2022-01-30T10:10:31Z</time>
      </trkpt>
      <trkpt lat="41.8755420" lon="-2.8403770">
        <ele>1157.3</ele>
        <time>2022-01-30T10:10:32Z</time>
      </trkpt>
      <trkpt lat="41.8754970" lon="-2.8403970">
        <ele>1157.3</ele>
        <time>2022-01-30T10:10:33Z</time>
      </trkpt>
      <trkpt lat="41.8754520" lon="-2.8404220">
        <ele>1157.2</ele>
        <time>2022-01-30T10:10:34Z</time>
      </trkpt>
      <trkpt lat="41.8754080" lon="-2.8404470">
        <ele>1157.2</ele>
        <time>2022-01-30T10:10:35Z</time>
      </trkpt>
      <trkpt lat="41.8753630" lon="-2.8404700">
        <ele>1157.2</ele>
        <time>2022-01-30T10:10:36Z</time>
      </trkpt>
      <trkpt lat="41.8753200" lon="-2.8404950">
        <ele>1157.1</ele>
        <time>2022-01-30T10:10:37Z</time>
      </trkpt>
      <trkpt lat="41.8752800" lon="-2.8405130">
        <ele>1157.1</ele>
        <time>2022-01-30T10:10:38Z</time>
      </trkpt>
      <trkpt lat="41.8752400" lon="-2.8405270">
        <ele>1157.1</ele>
        <time>2022-01-30T10:10:39Z</time>
      </trkpt>
      <trkpt lat="41.8752000" lon="-2.8405380">
        <ele>1157.1</ele>
        <time>2022-01-30T10:10:40Z</time>
      </trkpt>
      <trkpt lat="41.8751580" lon="-2.8405450">
        <ele>1157.1</ele>
        <time>2022-01-30T10:10:41Z</time>
      </trkpt>
      <trkpt lat="41.8751180" lon="-2.8405520">
        <ele>1157.2</ele>
        <time>2022-01-30T10:10:42Z</time>
      </trkpt>
      <trkpt lat="41.8750780" lon="-2.8405580">
        <ele>1157.2</ele>
        <time>2022-01-30T10:10:43Z</time>
      </trkpt>
      <trkpt lat="41.8750380" lon="-2.8405620">
        <ele>1157.2</ele>
        <time>2022-01-30T10:10:44Z</time>
      </trkpt>
      <trkpt lat="41.8749980" lon="-2.8405630">
        <ele>1157.2</ele>
        <time>2022-01-30T10:10:45Z</time>
      </trkpt>
      <trkpt lat="41.8749580" lon="-2.8405680">
        <ele>1157.3</ele>
        <time>2022-01-30T10:10:46Z</time>
      </trkpt>
      <trkpt lat="41.8749180" lon="-2.8405730">
        <ele>1157.3</ele>
        <time>2022-01-30T10:10:47Z</time>
      </trkpt>
      <trkpt lat="41.8748780" lon="-2.8405800">
        <ele>1157.3</ele>
        <time>2022-01-30T10:10:48Z</time>
      </trkpt>
      <trkpt lat="41.8748370" lon="-2.8405850">
        <ele>1157.3</ele>
        <time>2022-01-30T10:10:49Z</time>
      </trkpt>
      <trkpt lat="41.8747970" lon="-2.8405920">
        <ele>1157.3</ele>
        <time>2022-01-30T10:10:50Z</time>
      </trkpt>
      <trkpt lat="41.8747600" lon="-2.8405980">
        <ele>1157.3</ele>
        <time>2022-01-30T10:10:51Z</time>
      </trkpt>
      <trkpt lat="41.8747230" lon="-2.8406020">
        <ele>1157.2</ele>
        <time>2022-01-30T10:10:52Z</time>
      </trkpt>
      <trkpt lat="41.8746880" lon="-2.8406050">
        <ele>1157.1</ele>
        <time>2022-01-30T10:10:53Z</time>
      </trkpt>
      <trkpt lat="41.8746530" lon="-2.8406030">
        <ele>1157.1</ele>
        <time>2022-01-30T10:10:54Z</time>
      </trkpt>
      <trkpt lat="41.8746200" lon="-2.8406000">
        <ele>1157.0</ele>
        <time>2022-01-30T10:10:55Z</time>
      </trkpt>
      <trkpt lat="41.8745870" lon="-2.8405930">
        <ele>1156.9</ele>
        <time>2022-01-30T10:10:56Z</time>
      </trkpt>
      <trkpt lat="41.8745500" lon="-2.8405850">
        <ele>1156.8</ele>
        <time>2022-01-30T10:10:57Z</time>
      </trkpt>
      <trkpt lat="41.8745130" lon="-2.8405770">
        <ele>1156.7</ele>
        <time>2022-01-30T10:10:58Z</time>
      </trkpt>
      <trkpt lat="41.8744780" lon="-2.8405720">
        <ele>1156.7</ele>
        <time>2022-01-30T10:10:59Z</time>
      </trkpt>
      <trkpt lat="41.8744400" lon="-2.8405680">
        <ele>1156.5</ele>
        <time>2022-01-30T10:11:00Z</time>
      </trkpt>
      <trkpt lat="41.8743980" lon="-2.8405650">
        <ele>1156.4</ele>
        <time>2022-01-30T10:11:01Z</time>
      </trkpt>
      <trkpt lat="41.8743600" lon="-2.8405580">
        <ele>1156.3</ele>
        <time>2022-01-30T10:11:02Z</time>
      </trkpt>
      <trkpt lat="41.8743180" lon="-2.8405550">
        <ele>1156.1</ele>
        <time>2022-01-30T10:11:03Z</time>
      </trkpt>
      <trkpt lat="41.8742780" lon="-2.8405500">
        <ele>1156.0</ele>
        <time>2022-01-30T10:11:04Z</time>
      </trkpt>
      <trkpt lat="41.8742380" lon="-2.8405450">
        <ele>1155.8</ele>
        <time>2022-01-30T10:11:05Z</time>
      </trkpt>
      <trkpt lat="41.8742000" lon="-2.8405400">
        <ele>1155.6</ele>
        <time>2022-01-30T10:11:06Z</time>
      </trkpt>
      <trkpt lat="41.8741620" lon="-2.8405350">
        <ele>1155.5</ele>
        <time>2022-01-30T10:11:07Z</time>
      </trkpt>
      <trkpt lat="41.8741270" lon="-2.8405300">
        <ele>1155.3</ele>
        <time>2022-01-30T10:11:08Z</time>
      </trkpt>
      <trkpt lat="41.8740970" lon="-2.8405300">
        <ele>1155.2</ele>
        <time>2022-01-30T10:11:09Z</time>
      </trkpt>
      <trkpt lat="41.8740700" lon="-2.8405320">
        <ele>1155.1</ele>
        <time>2022-01-30T10:11:10Z</time>
      </trkpt>
      <trkpt lat="41.8740470" lon="-2.8405370">
        <ele>1155.0</ele>
        <time>2022-01-30T10:11:11Z</time>
      </trkpt>
      <trkpt lat="41.8740270" lon="-2.8405420">
        <ele>1154.9</ele>
        <time>2022-01-30T10:11:12Z</time>
      </trkpt>
      <trkpt lat="41.8740070" lon="-2.8405480">
        <ele>1154.8</ele>
        <time>2022-01-30T10:11:13Z</time>
      </trkpt>
      <trkpt lat="41.8739920" lon="-2.8405500">
        <ele>1154.7</ele>
        <time>2022-01-30T10:11:14Z</time>
      </trkpt>
      <trkpt lat="41.8739780" lon="-2.8405550">
        <ele>1154.6</ele>
        <time>2022-01-30T10:11:15Z</time>
      </trkpt>
      <trkpt lat="41.8739670" lon="-2.8405580">
        <ele>1154.6</ele>
        <time>2022-01-30T10:11:16Z</time>
      </trkpt>
      <trkpt lat="41.8739570" lon="-2.8405570">
        <ele>1154.5</ele>
        <time>2022-01-30T10:11:17Z</time>
      </trkpt>
      <trkpt lat="41.8739450" lon="-2.8405550">
        <ele>1154.4</ele>
        <time>2022-01-30T10:11:18Z</time>
      </trkpt>
      <trkpt lat="41.8739320" lon="-2.8405500">
        <ele>1154.4</ele>
        <time>2022-01-30T10:11:19Z</time>
      </trkpt>
      <trkpt lat="41.8739200" lon="-2.8405450">
        <ele>1154.3</ele>
        <time>2022-01-30T10:11:20Z</time>
      </trkpt>
      <trkpt lat="41.8739050" lon="-2.8405350">
        <ele>1154.2</ele>
        <time>2022-01-30T10:11:21Z</time>
      </trkpt>
      <trkpt lat="41.8738850" lon="-2.8405230">
        <ele>1154.0</ele>
        <time>2022-01-30T10:11:22Z</time>
      </trkpt>
      <trkpt lat="41.8738570" lon="-2.8405080">
        <ele>1153.8</ele>
        <time>2022-01-30T10:11:23Z</time>
      </trkpt>
      <trkpt lat="41.8738230" lon="-2.8404970">
        <ele>1153.7</ele>
        <time>2022-01-30T10:11:24Z</time>
      </trkpt>
      <trkpt lat="41.8737900" lon="-2.8404820">
        <ele>1153.7</ele>
        <time>2022-01-30T10:11:25Z</time>
      </trkpt>
      <trkpt lat="41.8737550" lon="-2.8404670">
        <ele>1153.7</ele>
        <time>2022-01-30T10:11:26Z</time>
      </trkpt>
      <trkpt lat="41.8737200" lon="-2.8404470">
        <ele>1153.6</ele>
        <time>2022-01-30T10:11:27Z</time>
      </trkpt>
      <trkpt lat="41.8736870" lon="-2.8404230">
        <ele>1153.5</ele>
        <time>2022-01-30T10:11:28Z</time>
      </trkpt>
      <trkpt lat="41.8736550" lon="-2.8404020">
        <ele>1153.4</ele>
        <time>2022-01-30T10:11:29Z</time>
      </trkpt>
      <trkpt lat="41.8736250" lon="-2.8403830">
        <ele>1153.3</ele>
        <time>2022-01-30T10:11:30Z</time>
      </trkpt>
      <trkpt lat="41.8735930" lon="-2.8403720">
        <ele>1153.2</ele>
        <time>2022-01-30T10:11:31Z</time>
      </trkpt>
      <trkpt lat="41.8735600" lon="-2.8403630">
        <ele>1153.1</ele>
        <time>2022-01-30T10:11:32Z</time>
      </trkpt>
      <trkpt lat="41.8735270" lon="-2.8403570">
        <ele>1153.0</ele>
        <time>2022-01-30T10:11:33Z</time>
      </trkpt>
      <trkpt lat="41.8734930" lon="-2.8403520">
        <ele>1152.9</ele>
        <time>2022-01-30T10:11:34Z</time>
      </trkpt>
      <trkpt lat="41.8734600" lon="-2.8403420">
        <ele>1152.9</ele>
        <time>2022-01-30T10:11:35Z</time>
      </trkpt>
      <trkpt lat="41.8734300" lon="-2.8403230">
        <ele>1152.8</ele>
        <time>2022-01-30T10:11:36Z</time>
      </trkpt>
      <trkpt lat="41.8734070" lon="-2.8402930">
        <ele>1152.8</ele>
        <time>2022-01-30T10:11:37Z</time>
      </trkpt>
      <trkpt lat="41.8733900" lon="-2.8402530">
        <ele>1152.8</ele>
        <time>2022-01-30T10:11:38Z</time>
      </trkpt>
      <trkpt lat="41.8733800" lon="-2.8402050">
        <ele>1152.7</ele>
        <time>2022-01-30T10:11:39Z</time>
      </trkpt>
      <trkpt lat="41.8733730" lon="-2.8401580">
        <ele>1152.7</ele>
        <time>2022-01-30T10:11:40Z</time>
      </trkpt>
      <trkpt lat="41.8733730" lon="-2.8401120">
        <ele>1152.6</ele>
        <time>2022-01-30T10:11:41Z</time>
      </trkpt>
      <trkpt lat="41.8733730" lon="-2.8400680">
        <ele>1152.6</ele>
        <time>2022-01-30T10:11:42Z</time>
      </trkpt>
      <trkpt lat="41.8733750" lon="-2.8400250">
        <ele>1152.6</ele>
        <time>2022-01-30T10:11:43Z</time>
      </trkpt>
      <trkpt lat="41.8733830" lon="-2.8399850">
        <ele>1152.6</ele>
        <time>2022-01-30T10:11:44Z</time>
      </trkpt>
      <trkpt lat="41.8733880" lon="-2.8399430">
        <ele>1152.6</ele>
        <time>2022-01-30T10:11:45Z</time>
      </trkpt>
      <trkpt lat="41.8733900" lon="-2.8399080">
        <ele>1152.6</ele>
        <time>2022-01-30T10:11:46Z</time>
      </trkpt>
      <trkpt lat="41.8733870" lon="-2.8398730">
        <ele>1152.6</ele>
        <time>2022-01-30T10:11:47Z</time>
      </trkpt>
      <trkpt lat="41.8733820" lon="-2.8398330">
        <ele>1152.6</ele>
        <time>2022-01-30T10:11:48Z</time>
      </trkpt>
      <trkpt lat="41.8733750" lon="-2.8397850">
        <ele>1152.7</ele>
        <time>2022-01-30T10:11:49Z</time>
      </trkpt>
      <trkpt lat="41.8733650" lon="-2.8397350">
        <ele>1152.7</ele>
        <time>2022-01-30T10:11:50Z</time>
      </trkpt>
      <trkpt lat="41.8733530" lon="-2.8396780">
        <ele>1152.7</ele>
        <time>2022-01-30T10:11:51Z</time>
      </trkpt>
      <trkpt lat="41.8733430" lon="-2.8396180">
        <ele>1152.7</ele>
        <time>2022-01-30T10:11:52Z</time>
      </trkpt>
      <trkpt lat="41.8733400" lon="-2.8395570">
        <ele>1152.7</ele>
        <time>2022-01-30T10:11:53Z</time>
      </trkpt>
      <trkpt lat="41.8733400" lon="-2.8394930">
        <ele>1152.7</ele>
        <time>2022-01-30T10:11:54Z</time>
      </trkpt>
      <trkpt lat="41.8733420" lon="-2.8394330">
        <ele>1152.6</ele>
        <time>2022-01-30T10:11:55Z</time>
      </trkpt>
      <trkpt lat="41.8733400" lon="-2.8393730">
        <ele>1152.5</ele>
        <time>2022-01-30T10:11:56Z</time>
      </trkpt>
      <trkpt lat="41.8733400" lon="-2.8393170">
        <ele>1152.4</ele>
        <time>2022-01-30T10:11:57Z</time>
      </trkpt>
      <trkpt lat="41.8733420" lon="-2.8392580">
        <ele>1152.3</ele>
        <time>2022-01-30T10:11:58Z</time>
      </trkpt>
      <trkpt lat="41.8733420" lon="-2.8392020">
        <ele>1152.2</ele>
        <time>2022-01-30T10:11:59Z</time>
      </trkpt>
      <trkpt lat="41.8733450" lon="-2.8391420">
        <ele>1152.1</ele>
        <time>2022-01-30T10:12:00Z</time>
      </trkpt>
      <trkpt lat="41.8733500" lon="-2.8390950">
        <ele>1152.1</ele>
        <time>2022-01-30T10:12:01Z</time>
      </trkpt>
      <trkpt lat="41.8733650" lon="-2.8390280">
        <ele>1152.0</ele>
        <time>2022-01-30T10:12:02Z</time>
      </trkpt>
      <trkpt lat="41.8733830" lon="-2.8389770">
        <ele>1152.0</ele>
        <time>2022-01-30T10:12:03Z</time>
      </trkpt>
      <trkpt lat="41.8734050" lon="-2.8389220">
        <ele>1152.0</ele>
        <time>2022-01-30T10:12:04Z</time>
      </trkpt>
      <trkpt lat="41.8734280" lon="-2.8388700">
        <ele>1152.0</ele>
        <time>2022-01-30T10:12:05Z</time>
      </trkpt>
      <trkpt lat="41.8734530" lon="-2.8388170">
        <ele>1152.1</ele>
        <time>2022-01-30T10:12:06Z</time>
      </trkpt>
      <trkpt lat="41.8734770" lon="-2.8387630">
        <ele>1152.1</ele>
        <time>2022-01-30T10:12:07Z</time>
      </trkpt>
      <trkpt lat="41.8735000" lon="-2.8387120">
        <ele>1152.1</ele>
        <time>2022-01-30T10:12:08Z</time>
      </trkpt>
      <trkpt lat="41.8735220" lon="-2.8386580">
        <ele>1152.1</ele>
        <time>2022-01-30T10:12:09Z</time>
      </trkpt>
      <trkpt lat="41.8735430" lon="-2.8386080">
        <ele>1152.1</ele>
        <time>2022-01-30T10:12:10Z</time>
      </trkpt>
      <trkpt lat="41.8735630" lon="-2.8385600">
        <ele>1152.1</ele>
        <time>2022-01-30T10:12:11Z</time>
      </trkpt>
      <trkpt lat="41.8735880" lon="-2.8385180">
        <ele>1152.2</ele>
        <time>2022-01-30T10:12:12Z</time>
      </trkpt>
      <trkpt lat="41.8736180" lon="-2.8384820">
        <ele>1152.3</ele>
        <time>2022-01-30T10:12:13Z</time>
      </trkpt>
      <trkpt lat="41.8736530" lon="-2.8384500">
        <ele>1152.3</ele>
        <time>2022-01-30T10:12:14Z</time>
      </trkpt>
      <trkpt lat="41.8736830" lon="-2.8384200">
        <ele>1152.4</ele>
        <time>2022-01-30T10:12:15Z</time>
      </trkpt>
      <trkpt lat="41.8737100" lon="-2.8383930">
        <ele>1152.5</ele>
        <time>2022-01-30T10:12:16Z</time>
      </trkpt>
      <trkpt lat="41.8737350" lon="-2.8383650">
        <ele>1152.5</ele>
        <time>2022-01-30T10:12:17Z</time>
      </trkpt>
      <trkpt lat="41.8737570" lon="-2.8383400">
        <ele>1152.6</ele>
        <time>2022-01-30T10:12:18Z</time>
      </trkpt>
      <trkpt lat="41.8737730" lon="-2.8383130">
        <ele>1152.7</ele>
        <time>2022-01-30T10:12:19Z</time>
      </trkpt>
      <trkpt lat="41.8737880" lon="-2.8382830">
        <ele>1152.8</ele>
        <time>2022-01-30T10:12:20Z</time>
      </trkpt>
      <trkpt lat="41.8738020" lon="-2.8382480">
        <ele>1152.9</ele>
        <time>2022-01-30T10:12:21Z</time>
      </trkpt>
      <trkpt lat="41.8738180" lon="-2.8382150">
        <ele>1153.0</ele>
        <time>2022-01-30T10:12:22Z</time>
      </trkpt>
      <trkpt lat="41.8738330" lon="-2.8381850">
        <ele>1153.1</ele>
        <time>2022-01-30T10:12:23Z</time>
      </trkpt>
      <trkpt lat="41.8738550" lon="-2.8381670">
        <ele>1153.2</ele>
        <time>2022-01-30T10:12:24Z</time>
      </trkpt>
      <trkpt lat="41.8738770" lon="-2.8381480">
        <ele>1153.3</ele>
        <time>2022-01-30T10:12:25Z</time>
      </trkpt>
      <trkpt lat="41.8738980" lon="-2.8381280">
        <ele>1153.5</ele>
        <time>2022-01-30T10:12:26Z</time>
      </trkpt>
      <trkpt lat="41.8739230" lon="-2.8381080">
        <ele>1153.6</ele>
        <time>2022-01-30T10:12:27Z</time>
      </trkpt>
      <trkpt lat="41.8739480" lon="-2.8380850">
        <ele>1153.7</ele>
        <time>2022-01-30T10:12:28Z</time>
      </trkpt>
      <trkpt lat="41.8739700" lon="-2.8380620">
        <ele>1153.8</ele>
        <time>2022-01-30T10:12:29Z</time>
      </trkpt>
      <trkpt lat="41.8739900" lon="-2.8380370">
        <ele>1154.0</ele>
        <time>2022-01-30T10:12:30Z</time>
      </trkpt>
      <trkpt lat="41.8740120" lon="-2.8380130">
        <ele>1154.1</ele>
        <time>2022-01-30T10:12:31Z</time>
      </trkpt>
      <trkpt lat="41.8740370" lon="-2.8379880">
        <ele>1154.2</ele>
        <time>2022-01-30T10:12:32Z</time>
      </trkpt>
      <trkpt lat="41.8740620" lon="-2.8379630">
        <ele>1154.3</ele>
        <time>2022-01-30T10:12:33Z</time>
      </trkpt>
      <trkpt lat="41.8740850" lon="-2.8379400">
        <ele>1154.5</ele>
        <time>2022-01-30T10:12:34Z</time>
      </trkpt>
      <trkpt lat="41.8741120" lon="-2.8379180">
        <ele>1154.6</ele>
        <time>2022-01-30T10:12:35Z</time>
      </trkpt>
      <trkpt lat="41.8741370" lon="-2.8378970">
        <ele>1154.7</ele>
        <time>2022-01-30T10:12:36Z</time>
      </trkpt>
      <trkpt lat="41.8741630" lon="-2.8378770">
        <ele>1154.8</ele>
        <time>2022-01-30T10:12:37Z</time>
      </trkpt>
      <trkpt lat="41.8741920" lon="-2.8378550">
        <ele>1154.9</ele>
        <time>2022-01-30T10:12:38Z</time>
      </trkpt>
      <trkpt lat="41.8742200" lon="-2.8378330">
        <ele>1155.0</ele>
        <time>2022-01-30T10:12:39Z</time>
      </trkpt>
      <trkpt lat="41.8742480" lon="-2.8378080">
        <ele>1155.2</ele>
        <time>2022-01-30T10:12:40Z</time>
      </trkpt>
      <trkpt lat="41.8742730" lon="-2.8377780">
        <ele>1155.3</ele>
        <time>2022-01-30T10:12:41Z</time>
      </trkpt>
      <trkpt lat="41.8742930" lon="-2.8377470">
        <ele>1155.4</ele>
        <time>2022-01-30T10:12:42Z</time>
      </trkpt>
      <trkpt lat="41.8743120" lon="-2.8377170">
        <ele>1155.6</ele>
        <time>2022-01-30T10:12:43Z</time>
      </trkpt>
      <trkpt lat="41.8743330" lon="-2.8376900">
        <ele>1155.8</ele>
        <time>2022-01-30T10:12:44Z</time>
      </trkpt>
      <trkpt lat="41.8743530" lon="-2.8376670">
        <ele>1155.9</ele>
        <time>2022-01-30T10:12:45Z</time>
      </trkpt>
      <trkpt lat="41.8743750" lon="-2.8376480">
        <ele>1156.1</ele>
        <time>2022-01-30T10:12:46Z</time>
      </trkpt>
      <trkpt lat="41.8743970" lon="-2.8376330">
        <ele>1156.2</ele>
        <time>2022-01-30T10:12:47Z</time>
      </trkpt>
      <trkpt lat="41.8744180" lon="-2.8376180">
        <ele>1156.4</ele>
        <time>2022-01-30T10:12:48Z</time>
      </trkpt>
      <trkpt lat="41.8744380" lon="-2.8376050">
        <ele>1156.5</ele>
        <time>2022-01-30T10:12:49Z</time>
      </trkpt>
      <trkpt lat="41.8744600" lon="-2.8375820">
        <ele>1156.7</ele>
        <time>2022-01-30T10:12:50Z</time>
      </trkpt>
      <trkpt lat="41.8744820" lon="-2.8375570">
        <ele>1156.9</ele>
        <time>2022-01-30T10:12:51Z</time>
      </trkpt>
      <trkpt lat="41.8745050" lon="-2.8375330">
        <ele>1157.1</ele>
        <time>2022-01-30T10:12:52Z</time>
      </trkpt>
      <trkpt lat="41.8745280" lon="-2.8375120">
        <ele>1157.4</ele>
        <time>2022-01-30T10:12:53Z</time>
      </trkpt>
      <trkpt lat="41.8745500" lon="-2.8374880">
        <ele>1157.6</ele>
        <time>2022-01-30T10:12:54Z</time>
      </trkpt>
      <trkpt lat="41.8745730" lon="-2.8374630">
        <ele>1157.9</ele>
        <time>2022-01-30T10:12:55Z</time>
      </trkpt>
      <trkpt lat="41.8745900" lon="-2.8374350">
        <ele>1158.1</ele>
        <time>2022-01-30T10:12:56Z</time>
      </trkpt>
      <trkpt lat="41.8746070" lon="-2.8374100">
        <ele>1158.3</ele>
        <time>2022-01-30T10:12:57Z</time>
      </trkpt>
      <trkpt lat="41.8746230" lon="-2.8373870">
        <ele>1158.5</ele>
        <time>2022-01-30T10:12:58Z</time>
      </trkpt>
      <trkpt lat="41.8746430" lon="-2.8373620">
        <ele>1158.6</ele>
        <time>2022-01-30T10:12:59Z</time>
      </trkpt>
      <trkpt lat="41.8746670" lon="-2.8373350">
        <ele>1158.8</ele>
        <time>2022-01-30T10:13:00Z</time>
      </trkpt>
      <trkpt lat="41.8746900" lon="-2.8373070">
        <ele>1158.9</ele>
        <time>2022-01-30T10:13:01Z</time>
      </trkpt>
      <trkpt lat="41.8747100" lon="-2.8372720">
        <ele>1158.9</ele>
        <time>2022-01-30T10:13:02Z</time>
      </trkpt>
      <trkpt lat="41.8747270" lon="-2.8372330">
        <ele>1158.9</ele>
        <time>2022-01-30T10:13:03Z</time>
      </trkpt>
      <trkpt lat="41.8747420" lon="-2.8371970">
        <ele>1158.9</ele>
        <time>2022-01-30T10:13:04Z</time>
      </trkpt>
      <trkpt lat="41.8747600" lon="-2.8371630">
        <ele>1158.8</ele>
        <time>2022-01-30T10:13:05Z</time>
      </trkpt>
      <trkpt lat="41.8747800" lon="-2.8371370">
        <ele>1158.7</ele>
        <time>2022-01-30T10:13:06Z</time>
      </trkpt>
      <trkpt lat="41.8748020" lon="-2.8371000">
        <ele>1158.6</ele>
        <time>2022-01-30T10:13:07Z</time>
      </trkpt>
      <trkpt lat="41.8748320" lon="-2.8370680">
        <ele>1158.3</ele>
        <time>2022-01-30T10:13:08Z</time>
      </trkpt>
      <trkpt lat="41.8748630" lon="-2.8370520">
        <ele>1158.1</ele>
        <time>2022-01-30T10:13:09Z</time>
      </trkpt>
      <trkpt lat="41.8748920" lon="-2.8370450">
        <ele>1157.9</ele>
        <time>2022-01-30T10:13:10Z</time>
      </trkpt>
      <trkpt lat="41.8749280" lon="-2.8370430">
        <ele>1157.6</ele>
        <time>2022-01-30T10:13:11Z</time>
      </trkpt>
      <trkpt lat="41.8749630" lon="-2.8370500">
        <ele>1157.3</ele>
        <time>2022-01-30T10:13:12Z</time>
      </trkpt>
      <trkpt lat="41.8750000" lon="-2.8370620">
        <ele>1157.0</ele>
        <time>2022-01-30T10:13:13Z</time>
      </trkpt>
      <trkpt lat="41.8750370" lon="-2.8370770">
        <ele>1156.7</ele>
        <time>2022-01-30T10:13:14Z</time>
      </trkpt>
      <trkpt lat="41.8750720" lon="-2.8370880">
        <ele>1156.4</ele>
        <time>2022-01-30T10:13:15Z</time>
      </trkpt>
      <trkpt lat="41.8750980" lon="-2.8370920">
        <ele>1156.2</ele>
        <time>2022-01-30T10:13:16Z</time>
      </trkpt>
      <trkpt lat="41.8751250" lon="-2.8370880">
        <ele>1156.0</ele>
        <time>2022-01-30T10:13:17Z</time>
      </trkpt>
      <trkpt lat="41.8751530" lon="-2.8370800">
        <ele>1155.8</ele>
        <time>2022-01-30T10:13:18Z</time>
      </trkpt>
      <trkpt lat="41.8751870" lon="-2.8370620">
        <ele>1155.5</ele>
        <time>2022-01-30T10:13:19Z</time>
      </trkpt>
      <trkpt lat="41.8752200" lon="-2.8370380">
        <ele>1155.1</ele>
        <time>2022-01-30T10:13:20Z</time>
      </trkpt>
      <trkpt lat="41.8752730" lon="-2.8370000">
        <ele>1154.6</ele>
        <time>2022-01-30T10:13:21Z</time>
      </trkpt>
      <trkpt lat="41.8753270" lon="-2.8369650">
        <ele>1154.1</ele>
        <time>2022-01-30T10:13:22Z</time>
      </trkpt>
      <trkpt lat="41.8753870" lon="-2.8369370">
        <ele>1153.5</ele>
        <time>2022-01-30T10:13:23Z</time>
      </trkpt>
      <trkpt lat="41.8754320" lon="-2.8369050">
        <ele>1153.1</ele>
        <time>2022-01-30T10:13:24Z</time>
      </trkpt>
      <trkpt lat="41.8754700" lon="-2.8368680">
        <ele>1152.9</ele>
        <time>2022-01-30T10:13:25Z</time>
      </trkpt>
      <trkpt lat="41.8754970" lon="-2.8368250">
        <ele>1152.7</ele>
        <time>2022-01-30T10:13:26Z</time>
      </trkpt>
      <trkpt lat="41.8755250" lon="-2.8367730">
        <ele>1152.5</ele>
        <time>2022-01-30T10:13:27Z</time>
      </trkpt>
      <trkpt lat="41.8755450" lon="-2.8367220">
        <ele>1152.4</ele>
        <time>2022-01-30T10:13:28Z</time>
      </trkpt>
      <trkpt lat="41.8755670" lon="-2.8366630">
        <ele>1152.3</ele>
        <time>2022-01-30T10:13:29Z</time>
      </trkpt>
      <trkpt lat="41.8755930" lon="-2.8366030">
        <ele>1152.3</ele>
        <time>2022-01-30T10:13:30Z</time>
      </trkpt>
      <trkpt lat="41.8756120" lon="-2.8365470">
        <ele>1152.2</ele>
        <time>2022-01-30T10:13:31Z</time>
      </trkpt>
      <trkpt lat="41.8756350" lon="-2.8364870">
        <ele>1152.2</ele>
        <time>2022-01-30T10:13:32Z</time>
      </trkpt>
      <trkpt lat="41.8756720" lon="-2.8364300">
        <ele>1152.2</ele>
        <time>2022-01-30T10:13:33Z</time>
      </trkpt>
      <trkpt lat="41.8757130" lon="-2.8363900">
        <ele>1152.2</ele>
        <time>2022-01-30T10:13:34Z</time>
      </trkpt>
      <trkpt lat="41.8757430" lon="-2.8363500">
        <ele>1152.2</ele>
        <time>2022-01-30T10:13:35Z</time>
      </trkpt>
      <trkpt lat="41.8757820" lon="-2.8363180">
        <ele>1152.2</ele>
        <time>2022-01-30T10:13:36Z</time>
      </trkpt>
      <trkpt lat="41.8758120" lon="-2.8362830">
        <ele>1152.2</ele>
        <time>2022-01-30T10:13:37Z</time>
      </trkpt>
      <trkpt lat="41.8758380" lon="-2.8362480">
        <ele>1152.2</ele>
        <time>2022-01-30T10:13:38Z</time>
      </trkpt>
      <trkpt lat="41.8758600" lon="-2.8362080">
        <ele>1152.2</ele>
        <time>2022-01-30T10:13:39Z</time>
      </trkpt>
      <trkpt lat="41.8758770" lon="-2.8361720">
        <ele>1152.2</ele>
        <time>2022-01-30T10:13:40Z</time>
      </trkpt>
      <trkpt lat="41.8758930" lon="-2.8361350">
        <ele>1152.1</ele>
        <time>2022-01-30T10:13:41Z</time>
      </trkpt>
      <trkpt lat="41.8759100" lon="-2.8360980">
        <ele>1151.9</ele>
        <time>2022-01-30T10:13:42Z</time>
      </trkpt>
      <trkpt lat="41.8759320" lon="-2.8360680">
        <ele>1151.7</ele>
        <time>2022-01-30T10:13:43Z</time>
      </trkpt>
      <trkpt lat="41.8759550" lon="-2.8360350">
        <ele>1151.3</ele>
        <time>2022-01-30T10:13:44Z</time>
      </trkpt>
      <trkpt lat="41.8759730" lon="-2.8360000">
        <ele>1150.9</ele>
        <time>2022-01-30T10:13:45Z</time>
      </trkpt>
      <trkpt lat="41.8759970" lon="-2.8359680">
        <ele>1150.2</ele>
        <time>2022-01-30T10:13:46Z</time>
      </trkpt>
      <trkpt lat="41.8760220" lon="-2.8359350">
        <ele>1149.4</ele>
        <time>2022-01-30T10:13:47Z</time>
      </trkpt>
      <trkpt lat="41.8760480" lon="-2.8359020">
        <ele>1148.5</ele>
        <time>2022-01-30T10:13:48Z</time>
      </trkpt>
      <trkpt lat="41.8760670" lon="-2.8358600">
        <ele>1147.5</ele>
        <time>2022-01-30T10:13:49Z</time>
      </trkpt>
      <trkpt lat="41.8760830" lon="-2.8358000">
        <ele>1146.1</ele>
        <time>2022-01-30T10:13:50Z</time>
      </trkpt>
      <trkpt lat="41.8761000" lon="-2.8357430">
        <ele>1144.8</ele>
        <time>2022-01-30T10:13:51Z</time>
      </trkpt>
      <trkpt lat="41.8761230" lon="-2.8356730">
        <ele>1143.3</ele>
        <time>2022-01-30T10:13:52Z</time>
      </trkpt>
      <trkpt lat="41.8761370" lon="-2.8355900">
        <ele>1141.8</ele>
        <time>2022-01-30T10:13:53Z</time>
      </trkpt>
      <trkpt lat="41.8761500" lon="-2.8355250">
        <ele>1140.8</ele>
        <time>2022-01-30T10:13:54Z</time>
      </trkpt>
      <trkpt lat="41.8761580" lon="-2.8354630">
        <ele>1139.9</ele>
        <time>2022-01-30T10:13:55Z</time>
      </trkpt>
      <trkpt lat="41.8761600" lon="-2.8354070">
        <ele>1139.2</ele>
        <time>2022-01-30T10:13:56Z</time>
      </trkpt>
      <trkpt lat="41.8761550" lon="-2.8353600">
        <ele>1138.5</ele>
        <time>2022-01-30T10:13:57Z</time>
      </trkpt>
      <trkpt lat="41.8761470" lon="-2.8353130">
        <ele>1137.9</ele>
        <time>2022-01-30T10:13:58Z</time>
      </trkpt>
      <trkpt lat="41.8761430" lon="-2.8352650">
        <ele>1137.2</ele>
        <time>2022-01-30T10:13:59Z</time>
      </trkpt>
      <trkpt lat="41.8761470" lon="-2.8352020">
        <ele>1136.3</ele>
        <time>2022-01-30T10:14:00Z</time>
      </trkpt>
      <trkpt lat="41.8761500" lon="-2.8351470">
        <ele>1135.4</ele>
        <time>2022-01-30T10:14:01Z</time>
      </trkpt>
      <trkpt lat="41.8761570" lon="-2.8350930">
        <ele>1134.3</ele>
        <time>2022-01-30T10:14:02Z</time>
      </trkpt>
      <trkpt lat="41.8761480" lon="-2.8350330">
        <ele>1133.1</ele>
        <time>2022-01-30T10:14:03Z</time>
      </trkpt>
      <trkpt lat="41.8761320" lon="-2.8349700">
        <ele>1131.7</ele>
        <time>2022-01-30T10:14:04Z</time>
      </trkpt>
      <trkpt lat="41.8761100" lon="-2.8348930">
        <ele>1130.2</ele>
        <time>2022-01-30T10:14:05Z</time>
      </trkpt>
      <trkpt lat="41.8760920" lon="-2.8348280">
        <ele>1129.3</ele>
        <time>2022-01-30T10:14:06Z</time>
      </trkpt>
      <trkpt lat="41.8760770" lon="-2.8347700">
        <ele>1128.8</ele>
        <time>2022-01-30T10:14:07Z</time>
      </trkpt>
      <trkpt lat="41.8760670" lon="-2.8347170">
        <ele>1128.5</ele>
        <time>2022-01-30T10:14:08Z</time>
      </trkpt>
      <trkpt lat="41.8760500" lon="-2.8346720">
        <ele>1128.4</ele>
        <time>2022-01-30T10:14:09Z</time>
      </trkpt>
      <trkpt lat="41.8760420" lon="-2.8346280">
        <ele>1128.5</ele>
        <time>2022-01-30T10:14:10Z</time>
      </trkpt>
      <trkpt lat="41.8760330" lon="-2.8345870">
        <ele>1128.6</ele>
        <time>2022-01-30T10:14:11Z</time>
      </trkpt>
      <trkpt lat="41.8760150" lon="-2.8345600">
        <ele>1128.8</ele>
        <time>2022-01-30T10:14:12Z</time>
      </trkpt>
      <trkpt lat="41.8760050" lon="-2.8345420">
        <ele>1128.9</ele>
        <time>2022-01-30T10:14:13Z</time>
      </trkpt>
      <trkpt lat="41.8760030" lon="-2.8345170">
        <ele>1129.1</ele>
        <time>2022-01-30T10:14:14Z</time>
      </trkpt>
      <trkpt lat="41.8760080" lon="-2.8344970">
        <ele>1129.2</ele>
        <time>2022-01-30T10:14:15Z</time>
      </trkpt>
      <trkpt lat="41.8760180" lon="-2.8344880">
        <ele>1129.3</ele>
        <time>2022-01-30T10:14:16Z</time>
      </trkpt>
      <trkpt lat="41.8760250" lon="-2.8344800">
        <ele>1129.4</ele>
        <time>2022-01-30T10:14:17Z</time>
      </trkpt>
      <trkpt lat="41.8760320" lon="-2.8344730">
        <ele>1129.5</ele>
        <time>2022-01-30T10:14:18Z</time>
      </trkpt>
      <trkpt lat="41.8760470" lon="-2.8344730">
        <ele>1129.7</ele>
        <time>2022-01-30T10:14:19Z</time>
      </trkpt>
      <trkpt lat="41.8760670" lon="-2.8344620">
        <ele>1129.9</ele>
        <time>2022-01-30T10:14:20Z</time>
      </trkpt>
      <trkpt lat="41.8760830" lon="-2.8344380">
        <ele>1130.1</ele>
        <time>2022-01-30T10:14:21Z</time>
      </trkpt>
      <trkpt lat="41.8761050" lon="-2.8344180">
        <ele>1130.2</ele>
        <time>2022-01-30T10:14:22Z</time>
      </trkpt>
      <trkpt lat="41.8761200" lon="-2.8343930">
        <ele>1130.4</ele>
        <time>2022-01-30T10:14:23Z</time>
      </trkpt>
      <trkpt lat="41.8761300" lon="-2.8343730">
        <ele>1130.5</ele>
        <time>2022-01-30T10:14:24Z</time>
      </trkpt>
      <trkpt lat="41.8761350" lon="-2.8343500">
        <ele>1130.6</ele>
        <time>2022-01-30T10:14:25Z</time>
      </trkpt>
      <trkpt lat="41.8761330" lon="-2.8343270">
        <ele>1130.7</ele>
        <time>2022-01-30T10:14:26Z</time>
      </trkpt>
      <trkpt lat="41.8761330" lon="-2.8343070">
        <ele>1130.7</ele>
        <time>2022-01-30T10:14:27Z</time>
      </trkpt>
      <trkpt lat="41.8761280" lon="-2.8342870">
        <ele>1130.8</ele>
        <time>2022-01-30T10:14:28Z</time>
      </trkpt>
      <trkpt lat="41.8761180" lon="-2.8342570">
        <ele>1130.9</ele>
        <time>2022-01-30T10:14:29Z</time>
      </trkpt>
      <trkpt lat="41.8761100" lon="-2.8342170">
        <ele>1131.1</ele>
        <time>2022-01-30T10:14:30Z</time>
      </trkpt>
      <trkpt lat="41.8760980" lon="-2.8341800">
        <ele>1131.3</ele>
        <time>2022-01-30T10:14:31Z</time>
      </trkpt>
      <trkpt lat="41.8760930" lon="-2.8341500">
        <ele>1131.4</ele>
        <time>2022-01-30T10:14:32Z</time>
      </trkpt>
      <trkpt lat="41.8760780" lon="-2.8341220">
        <ele>1131.6</ele>
        <time>2022-01-30T10:14:33Z</time>
      </trkpt>
      <trkpt lat="41.8760700" lon="-2.8340850">
        <ele>1131.8</ele>
        <time>2022-01-30T10:14:34Z</time>
      </trkpt>
      <trkpt lat="41.8760680" lon="-2.8340480">
        <ele>1132.0</ele>
        <time>2022-01-30T10:14:35Z</time>
      </trkpt>
      <trkpt lat="41.8760650" lon="-2.8340150">
        <ele>1132.1</ele>
        <time>2022-01-30T10:14:36Z</time>
      </trkpt>
      <trkpt lat="41.8760550" lon="-2.8339880">
        <ele>1132.2</ele>
        <time>2022-01-30T10:14:37Z</time>
      </trkpt>
      <trkpt lat="41.8760530" lon="-2.8339600">
        <ele>1132.3</ele>
        <time>2022-01-30T10:14:38Z</time>
      </trkpt>
      <trkpt lat="41.8760530" lon="-2.8339280">
        <ele>1132.4</ele>
        <time>2022-01-30T10:14:39Z</time>
      </trkpt>
      <trkpt lat="41.8760450" lon="-2.8339020">
        <ele>1132.4</ele>
        <time>2022-01-30T10:14:40Z</time>
      </trkpt>
      <trkpt lat="41.8760400" lon="-2.8338770">
        <ele>1132.5</ele>
        <time>2022-01-30T10:14:41Z</time>
      </trkpt>
      <trkpt lat="41.8760300" lon="-2.8338520">
        <ele>1132.5</ele>
        <time>2022-01-30T10:14:42Z</time>
      </trkpt>
      <trkpt lat="41.8760220" lon="-2.8338280">
        <ele>1132.6</ele>
        <time>2022-01-30T10:14:43Z</time>
      </trkpt>
      <trkpt lat="41.8760100" lon="-2.8338080">
        <ele>1132.6</ele>
        <time>2022-01-30T10:14:44Z</time>
      </trkpt>
      <trkpt lat="41.8760020" lon="-2.8337870">
        <ele>1132.6</ele>
        <time>2022-01-30T10:14:45Z</time>
      </trkpt>
      <trkpt lat="41.8759930" lon="-2.8337650">
        <ele>1132.7</ele>
        <time>2022-01-30T10:14:46Z</time>
      </trkpt>
      <trkpt lat="41.8759920" lon="-2.8337380">
        <ele>1132.7</ele>
        <time>2022-01-30T10:14:47Z</time>
      </trkpt>
      <trkpt lat="41.8759850" lon="-2.8337070">
        <ele>1132.8</ele>
        <time>2022-01-30T10:14:48Z</time>
      </trkpt>
      <trkpt lat="41.8759750" lon="-2.8336730">
        <ele>1132.9</ele>
        <time>2022-01-30T10:14:49Z</time>
      </trkpt>
      <trkpt lat="41.8759620" lon="-2.8336520">
        <ele>1132.9</ele>
        <time>2022-01-30T10:14:50Z</time>
      </trkpt>
      <trkpt lat="41.8759550" lon="-2.8336270">
        <ele>1133.0</ele>
        <time>2022-01-30T10:14:51Z</time>
      </trkpt>
      <trkpt lat="41.8759450" lon="-2.8336030">
        <ele>1133.1</ele>
        <time>2022-01-30T10:14:52Z</time>
      </trkpt>
      <trkpt lat="41.8759320" lon="-2.8335800">
        <ele>1133.2</ele>
        <time>2022-01-30T10:14:53Z</time>
      </trkpt>
      <trkpt lat="41.8759230" lon="-2.8335570">
        <ele>1133.3</ele>
        <time>2022-01-30T10:14:54Z</time>
      </trkpt>
      <trkpt lat="41.8759120" lon="-2.8335280">
        <ele>1133.4</ele>
        <time>2022-01-30T10:14:55Z</time>
      </trkpt>
      <trkpt lat="41.8759050" lon="-2.8335070">
        <ele>1133.5</ele>
        <time>2022-01-30T10:14:56Z</time>
      </trkpt>
      <trkpt lat="41.8758880" lon="-2.8334720">
        <ele>1133.6</ele>
        <time>2022-01-30T10:14:57Z</time>
      </trkpt>
      <trkpt lat="41.8758750" lon="-2.8334420">
        <ele>1133.8</ele>
        <time>2022-01-30T10:14:58Z</time>
      </trkpt>
      <trkpt lat="41.8758630" lon="-2.8334130">
        <ele>1133.9</ele>
        <time>2022-01-30T10:14:59Z</time>
      </trkpt>
      <trkpt lat="41.8758520" lon="-2.8333870">
        <ele>1134.0</ele>
        <time>2022-01-30T10:15:00Z</time>
      </trkpt>
      <trkpt lat="41.8758420" lon="-2.8333580">
        <ele>1134.2</ele>
        <time>2022-01-30T10:15:01Z</time>
      </trkpt>
      <trkpt lat="41.8758370" lon="-2.8333280">
        <ele>1134.3</ele>
        <time>2022-01-30T10:15:02Z</time>
      </trkpt>
      <trkpt lat="41.8758300" lon="-2.8332980">
        <ele>1134.5</ele>
        <time>2022-01-30T10:15:03Z</time>
      </trkpt>
      <trkpt lat="41.8758270" lon="-2.8332720">
        <ele>1134.6</ele>
        <time>2022-01-30T10:15:04Z</time>
      </trkpt>
      <trkpt lat="41.8758200" lon="-2.8332400">
        <ele>1134.8</ele>
        <time>2022-01-30T10:15:05Z</time>
      </trkpt>
      <trkpt lat="41.8758150" lon="-2.8332120">
        <ele>1134.9</ele>
        <time>2022-01-30T10:15:06Z</time>
      </trkpt>
      <trkpt lat="41.8758120" lon="-2.8331820">
        <ele>1135.1</ele>
        <time>2022-01-30T10:15:07Z</time>
      </trkpt>
      <trkpt lat="41.8758100" lon="-2.8331520">
        <ele>1135.2</ele>
        <time>2022-01-30T10:15:08Z</time>
      </trkpt>
      <trkpt lat="41.8758080" lon="-2.8331180">
        <ele>1135.4</ele>
        <time>2022-01-30T10:15:09Z</time>
      </trkpt>
      <trkpt lat="41.8758080" lon="-2.8330920">
        <ele>1135.6</ele>
        <time>2022-01-30T10:15:10Z</time>
      </trkpt>
      <trkpt lat="41.8758080" lon="-2.8330650">
        <ele>1135.7</ele>
        <time>2022-01-30T10:15:11Z</time>
      </trkpt>
      <trkpt lat="41.8758100" lon="-2.8330380">
        <ele>1135.9</ele>
        <time>2022-01-30T10:15:12Z</time>
      </trkpt>
      <trkpt lat="41.8758100" lon="-2.8330080">
        <ele>1136.0</ele>
        <time>2022-01-30T10:15:13Z</time>
      </trkpt>
      <trkpt lat="41.8758100" lon="-2.8329750">
        <ele>1136.2</ele>
        <time>2022-01-30T10:15:14Z</time>
      </trkpt>
      <trkpt lat="41.8758050" lon="-2.8329450">
        <ele>1136.3</ele>
        <time>2022-01-30T10:15:15Z</time>
      </trkpt>
      <trkpt lat="41.8758020" lon="-2.8329170">
        <ele>1136.4</ele>
        <time>2022-01-30T10:15:16Z</time>
      </trkpt>
      <trkpt lat="41.8757970" lon="-2.8328850">
        <ele>1136.6</ele>
        <time>2022-01-30T10:15:17Z</time>
      </trkpt>
      <trkpt lat="41.8757920" lon="-2.8328570">
        <ele>1136.7</ele>
        <time>2022-01-30T10:15:18Z</time>
      </trkpt>
      <trkpt lat="41.8757830" lon="-2.8328270">
        <ele>1136.8</ele>
        <time>2022-01-30T10:15:19Z</time>
      </trkpt>
      <trkpt lat="41.8757750" lon="-2.8327970">
        <ele>1136.9</ele>
        <time>2022-01-30T10:15:20Z</time>
      </trkpt>
      <trkpt lat="41.8757700" lon="-2.8327680">
        <ele>1136.9</ele>
        <time>2022-01-30T10:15:21Z</time>
      </trkpt>
      <trkpt lat="41.8757650" lon="-2.8327380">
        <ele>1137.0</ele>
        <time>2022-01-30T10:15:22Z</time>
      </trkpt>
      <trkpt lat="41.8757600" lon="-2.8327120">
        <ele>1137.1</ele>
        <time>2022-01-30T10:15:23Z</time>
      </trkpt>
      <trkpt lat="41.8757520" lon="-2.8326850">
        <ele>1137.1</ele>
        <time>2022-01-30T10:15:24Z</time>
      </trkpt>
      <trkpt lat="41.8757430" lon="-2.8326600">
        <ele>1137.1</ele>
        <time>2022-01-30T10:15:25Z</time>
      </trkpt>
      <trkpt lat="41.8757380" lon="-2.8326330">
        <ele>1137.1</ele>
        <time>2022-01-30T10:15:26Z</time>
      </trkpt>
      <trkpt lat="41.8757330" lon="-2.8326050">
        <ele>1137.0</ele>
        <time>2022-01-30T10:15:27Z</time>
      </trkpt>
      <trkpt lat="41.8757270" lon="-2.8325770">
        <ele>1137.0</ele>
        <time>2022-01-30T10:15:28Z</time>
      </trkpt>
      <trkpt lat="41.8757220" lon="-2.8325480">
        <ele>1136.9</ele>
        <time>2022-01-30T10:15:29Z</time>
      </trkpt>
      <trkpt lat="41.8757170" lon="-2.8325230">
        <ele>1136.7</ele>
        <time>2022-01-30T10:15:30Z</time>
      </trkpt>
      <trkpt lat="41.8757120" lon="-2.8324970">
        <ele>1136.6</ele>
        <time>2022-01-30T10:15:31Z</time>
      </trkpt>
      <trkpt lat="41.8757070" lon="-2.8324680">
        <ele>1136.4</ele>
        <time>2022-01-30T10:15:32Z</time>
      </trkpt>
      <trkpt lat="41.8757020" lon="-2.8324430">
        <ele>1136.2</ele>
        <time>2022-01-30T10:15:33Z</time>
      </trkpt>
      <trkpt lat="41.8756980" lon="-2.8324170">
        <ele>1136.0</ele>
        <time>2022-01-30T10:15:34Z</time>
      </trkpt>
      <trkpt lat="41.8756930" lon="-2.8323880">
        <ele>1135.8</ele>
        <time>2022-01-30T10:15:35Z</time>
      </trkpt>
      <trkpt lat="41.8756930" lon="-2.8323550">
        <ele>1135.6</ele>
        <time>2022-01-30T10:15:36Z</time>
      </trkpt>
      <trkpt lat="41.8756950" lon="-2.8323170">
        <ele>1135.3</ele>
        <time>2022-01-30T10:15:37Z</time>
      </trkpt>
      <trkpt lat="41.8756970" lon="-2.8322730">
        <ele>1134.9</ele>
        <time>2022-01-30T10:15:38Z</time>
      </trkpt>
      <trkpt lat="41.8757000" lon="-2.8322270">
        <ele>1134.6</ele>
        <time>2022-01-30T10:15:39Z</time>
      </trkpt>
      <trkpt lat="41.8757020" lon="-2.8321800">
        <ele>1134.2</ele>
        <time>2022-01-30T10:15:40Z</time>
      </trkpt>
      <trkpt lat="41.8756970" lon="-2.8321250">
        <ele>1133.7</ele>
        <time>2022-01-30T10:15:41Z</time>
      </trkpt>
      <trkpt lat="41.8756880" lon="-2.8320780">
        <ele>1133.3</ele>
        <time>2022-01-30T10:15:42Z</time>
      </trkpt>
      <trkpt lat="41.8756730" lon="-2.8320330">
        <ele>1132.9</ele>
        <time>2022-01-30T10:15:43Z</time>
      </trkpt>
      <trkpt lat="41.8756530" lon="-2.8319900">
        <ele>1132.5</ele>
        <time>2022-01-30T10:15:44Z</time>
      </trkpt>
      <trkpt lat="41.8756400" lon="-2.8319480">
        <ele>1132.3</ele>
        <time>2022-01-30T10:15:45Z</time>
      </trkpt>
      <trkpt lat="41.8756280" lon="-2.8319050">
        <ele>1132.0</ele>
        <time>2022-01-30T10:15:46Z</time>
      </trkpt>
      <trkpt lat="41.8756250" lon="-2.8318600">
        <ele>1131.9</ele>
        <time>2022-01-30T10:15:47Z</time>
      </trkpt>
      <trkpt lat="41.8756300" lon="-2.8318180">
        <ele>1131.8</ele>
        <time>2022-01-30T10:15:48Z</time>
      </trkpt>
      <trkpt lat="41.8756380" lon="-2.8317820">
        <ele>1131.7</ele>
        <time>2022-01-30T10:15:49Z</time>
      </trkpt>
      <trkpt lat="41.8756500" lon="-2.8317470">
        <ele>1131.7</ele>
        <time>2022-01-30T10:15:50Z</time>
      </trkpt>
      <trkpt lat="41.8756720" lon="-2.8317280">
        <ele>1131.8</ele>
        <time>2022-01-30T10:15:51Z</time>
      </trkpt>
      <trkpt lat="41.8756900" lon="-2.8317120">
        <ele>1131.8</ele>
        <time>2022-01-30T10:15:52Z</time>
      </trkpt>
      <trkpt lat="41.8757130" lon="-2.8317050">
        <ele>1131.9</ele>
        <time>2022-01-30T10:15:53Z</time>
      </trkpt>
      <trkpt lat="41.8757350" lon="-2.8316920">
        <ele>1132.0</ele>
        <time>2022-01-30T10:15:54Z</time>
      </trkpt>
      <trkpt lat="41.8757530" lon="-2.8316680">
        <ele>1132.1</ele>
        <time>2022-01-30T10:15:55Z</time>
      </trkpt>
      <trkpt lat="41.8757680" lon="-2.8316420">
        <ele>1132.2</ele>
        <time>2022-01-30T10:15:56Z</time>
      </trkpt>
      <trkpt lat="41.8757750" lon="-2.8316080">
        <ele>1132.3</ele>
        <time>2022-01-30T10:15:57Z</time>
      </trkpt>
      <trkpt lat="41.8757770" lon="-2.8315680">
        <ele>1132.4</ele>
        <time>2022-01-30T10:15:58Z</time>
      </trkpt>
      <trkpt lat="41.8757800" lon="-2.8315320">
        <ele>1132.5</ele>
        <time>2022-01-30T10:15:59Z</time>
      </trkpt>
      <trkpt lat="41.8757780" lon="-2.8314980">
        <ele>1132.6</ele>
        <time>2022-01-30T10:16:00Z</time>
      </trkpt>
      <trkpt lat="41.8757670" lon="-2.8314700">
        <ele>1132.7</ele>
        <time>2022-01-30T10:16:01Z</time>
      </trkpt>
      <trkpt lat="41.8757520" lon="-2.8314400">
        <ele>1132.8</ele>
        <time>2022-01-30T10:16:02Z</time>
      </trkpt>
      <trkpt lat="41.8757370" lon="-2.8314130">
        <ele>1132.9</ele>
        <time>2022-01-30T10:16:03Z</time>
      </trkpt>
      <trkpt lat="41.8757220" lon="-2.8313920">
        <ele>1133.0</ele>
        <time>2022-01-30T10:16:04Z</time>
      </trkpt>
      <trkpt lat="41.8757080" lon="-2.8313750">
        <ele>1133.1</ele>
        <time>2022-01-30T10:16:05Z</time>
      </trkpt>
      <trkpt lat="41.8756920" lon="-2.8313600">
        <ele>1133.2</ele>
        <time>2022-01-30T10:16:06Z</time>
      </trkpt>
      <trkpt lat="41.8756730" lon="-2.8313450">
        <ele>1133.3</ele>
        <time>2022-01-30T10:16:07Z</time>
      </trkpt>
      <trkpt lat="41.8756600" lon="-2.8313320">
        <ele>1133.4</ele>
        <time>2022-01-30T10:16:08Z</time>
      </trkpt>
      <trkpt lat="41.8756430" lon="-2.8313070">
        <ele>1133.6</ele>
        <time>2022-01-30T10:16:09Z</time>
      </trkpt>
      <trkpt lat="41.8756220" lon="-2.8312830">
        <ele>1133.7</ele>
        <time>2022-01-30T10:16:10Z</time>
      </trkpt>
      <trkpt lat="41.8756070" lon="-2.8312670">
        <ele>1133.9</ele>
        <time>2022-01-30T10:16:11Z</time>
      </trkpt>
      <trkpt lat="41.8755900" lon="-2.8312430">
        <ele>1134.0</ele>
        <time>2022-01-30T10:16:12Z</time>
      </trkpt>
      <trkpt lat="41.8755720" lon="-2.8312270">
        <ele>1134.2</ele>
        <time>2022-01-30T10:16:13Z</time>
      </trkpt>
      <trkpt lat="41.8755580" lon="-2.8312130">
        <ele>1134.3</ele>
        <time>2022-01-30T10:16:14Z</time>
      </trkpt>
      <trkpt lat="41.8755450" lon="-2.8311930">
        <ele>1134.5</ele>
        <time>2022-01-30T10:16:15Z</time>
      </trkpt>
      <trkpt lat="41.8755320" lon="-2.8311730">
        <ele>1134.7</ele>
        <time>2022-01-30T10:16:16Z</time>
      </trkpt>
      <trkpt lat="41.8755180" lon="-2.8311450">
        <ele>1134.9</ele>
        <time>2022-01-30T10:16:17Z</time>
      </trkpt>
      <trkpt lat="41.8755070" lon="-2.8311250">
        <ele>1135.0</ele>
        <time>2022-01-30T10:16:18Z</time>
      </trkpt>
      <trkpt lat="41.8754920" lon="-2.8311020">
        <ele>1135.2</ele>
        <time>2022-01-30T10:16:19Z</time>
      </trkpt>
      <trkpt lat="41.8754770" lon="-2.8310770">
        <ele>1135.5</ele>
        <time>2022-01-30T10:16:20Z</time>
      </trkpt>
      <trkpt lat="41.8754620" lon="-2.8310550">
        <ele>1135.7</ele>
        <time>2022-01-30T10:16:21Z</time>
      </trkpt>
      <trkpt lat="41.8754450" lon="-2.8310320">
        <ele>1135.9</ele>
        <time>2022-01-30T10:16:22Z</time>
      </trkpt>
      <trkpt lat="41.8754330" lon="-2.8310130">
        <ele>1136.1</ele>
        <time>2022-01-30T10:16:23Z</time>
      </trkpt>
      <trkpt lat="41.8754130" lon="-2.8309870">
        <ele>1136.5</ele>
        <time>2022-01-30T10:16:24Z</time>
      </trkpt>
      <trkpt lat="41.8754000" lon="-2.8309700">
        <ele>1136.7</ele>
        <time>2022-01-30T10:16:25Z</time>
      </trkpt>
      <trkpt lat="41.8753770" lon="-2.8309470">
        <ele>1137.0</ele>
        <time>2022-01-30T10:16:26Z</time>
      </trkpt>
      <trkpt lat="41.8753620" lon="-2.8309320">
        <ele>1137.2</ele>
        <time>2022-01-30T10:16:27Z</time>
      </trkpt>
      <trkpt lat="41.8753420" lon="-2.8309130">
        <ele>1137.5</ele>
        <time>2022-01-30T10:16:28Z</time>
      </trkpt>
      <trkpt lat="41.8753220" lon="-2.8308920">
        <ele>1137.8</ele>
        <time>2022-01-30T10:16:29Z</time>
      </trkpt>
      <trkpt lat="41.8753020" lon="-2.8308730">
        <ele>1138.1</ele>
        <time>2022-01-30T10:16:30Z</time>
      </trkpt>
      <trkpt lat="41.8752850" lon="-2.8308580">
        <ele>1138.3</ele>
        <time>2022-01-30T10:16:31Z</time>
      </trkpt>
      <trkpt lat="41.8752630" lon="-2.8308470">
        <ele>1138.6</ele>
        <time>2022-01-30T10:16:32Z</time>
      </trkpt>
      <trkpt lat="41.8752430" lon="-2.8308300">
        <ele>1138.9</ele>
        <time>2022-01-30T10:16:33Z</time>
      </trkpt>
      <trkpt lat="41.8752230" lon="-2.8308080">
        <ele>1139.2</ele>
        <time>2022-01-30T10:16:34Z</time>
      </trkpt>
      <trkpt lat="41.8752100" lon="-2.8307950">
        <ele>1139.4</ele>
        <time>2022-01-30T10:16:35Z</time>
      </trkpt>
      <trkpt lat="41.8751950" lon="-2.8307750">
        <ele>1139.6</ele>
        <time>2022-01-30T10:16:36Z</time>
      </trkpt>
      <trkpt lat="41.8751780" lon="-2.8307550">
        <ele>1139.9</ele>
        <time>2022-01-30T10:16:37Z</time>
      </trkpt>
      <trkpt lat="41.8751630" lon="-2.8307330">
        <ele>1140.2</ele>
        <time>2022-01-30T10:16:38Z</time>
      </trkpt>
      <trkpt lat="41.8751480" lon="-2.8307150">
        <ele>1140.5</ele>
        <time>2022-01-30T10:16:39Z</time>
      </trkpt>
      <trkpt lat="41.8751350" lon="-2.8306920">
        <ele>1140.8</ele>
        <time>2022-01-30T10:16:40Z</time>
      </trkpt>
      <trkpt lat="41.8751220" lon="-2.8306680">
        <ele>1141.1</ele>
        <time>2022-01-30T10:16:41Z</time>
      </trkpt>
      <trkpt lat="41.8751100" lon="-2.8306470">
        <ele>1141.3</ele>
        <time>2022-01-30T10:16:42Z</time>
      </trkpt>
      <trkpt lat="41.8750980" lon="-2.8306200">
        <ele>1141.6</ele>
        <time>2022-01-30T10:16:43Z</time>
      </trkpt>
      <trkpt lat="41.8750880" lon="-2.8306000">
        <ele>1141.8</ele>
        <time>2022-01-30T10:16:44Z</time>
      </trkpt>
      <trkpt lat="41.8750780" lon="-2.8305830">
        <ele>1142.0</ele>
        <time>2022-01-30T10:16:45Z</time>
      </trkpt>
      <trkpt lat="41.8750680" lon="-2.8305630">
        <ele>1142.2</ele>
        <time>2022-01-30T10:16:46Z</time>
      </trkpt>
      <trkpt lat="41.8750550" lon="-2.8305370">
        <ele>1142.5</ele>
        <time>2022-01-30T10:16:47Z</time>
      </trkpt>
      <trkpt lat="41.8750430" lon="-2.8305220">
        <ele>1142.7</ele>
        <time>2022-01-30T10:16:48Z</time>
      </trkpt>
      <trkpt lat="41.8750250" lon="-2.8305050">
        <ele>1143.0</ele>
        <time>2022-01-30T10:16:49Z</time>
      </trkpt>
      <trkpt lat="41.8750150" lon="-2.8304800">
        <ele>1143.2</ele>
        <time>2022-01-30T10:16:50Z</time>
      </trkpt>
      <trkpt lat="41.8750020" lon="-2.8304570">
        <ele>1143.5</ele>
        <time>2022-01-30T10:16:51Z</time>
      </trkpt>
      <trkpt lat="41.8749930" lon="-2.8304330">
        <ele>1143.7</ele>
        <time>2022-01-30T10:16:52Z</time>
      </trkpt>
      <trkpt lat="41.8749820" lon="-2.8304030">
        <ele>1144.0</ele>
        <time>2022-01-30T10:16:53Z</time>
      </trkpt>
      <trkpt lat="41.8749750" lon="-2.8303830">
        <ele>1144.2</ele>
        <time>2022-01-30T10:16:54Z</time>
      </trkpt>
      <trkpt lat="41.8749650" lon="-2.8303550">
        <ele>1144.5</ele>
        <time>2022-01-30T10:16:55Z</time>
      </trkpt>
      <trkpt lat="41.8749550" lon="-2.8303350">
        <ele>1144.7</ele>
        <time>2022-01-30T10:16:56Z</time>
      </trkpt>
      <trkpt lat="41.8749450" lon="-2.8303120">
        <ele>1144.9</ele>
        <time>2022-01-30T10:16:57Z</time>
      </trkpt>
      <trkpt lat="41.8749380" lon="-2.8302930">
        <ele>1145.1</ele>
        <time>2022-01-30T10:16:58Z</time>
      </trkpt>
      <trkpt lat="41.8749300" lon="-2.8302700">
        <ele>1145.3</ele>
        <time>2022-01-30T10:16:59Z</time>
      </trkpt>
      <trkpt lat="41.8749230" lon="-2.8302470">
        <ele>1145.5</ele>
        <time>2022-01-30T10:17:00Z</time>
      </trkpt>
      <trkpt lat="41.8749150" lon="-2.8302220">
        <ele>1145.7</ele>
        <time>2022-01-30T10:17:01Z</time>
      </trkpt>
      <trkpt lat="41.8749050" lon="-2.8301920">
        <ele>1146.0</ele>
        <time>2022-01-30T10:17:02Z</time>
      </trkpt>
      <trkpt lat="41.8748980" lon="-2.8301720">
        <ele>1146.2</ele>
        <time>2022-01-30T10:17:03Z</time>
      </trkpt>
      <trkpt lat="41.8748880" lon="-2.8301430">
        <ele>1146.4</ele>
        <time>2022-01-30T10:17:04Z</time>
      </trkpt>
      <trkpt lat="41.8748780" lon="-2.8301180">
        <ele>1146.6</ele>
        <time>2022-01-30T10:17:05Z</time>
      </trkpt>
      <trkpt lat="41.8748730" lon="-2.8300980">
        <ele>1146.8</ele>
        <time>2022-01-30T10:17:06Z</time>
      </trkpt>
      <trkpt lat="41.8748650" lon="-2.8300750">
        <ele>1147.0</ele>
        <time>2022-01-30T10:17:07Z</time>
      </trkpt>
      <trkpt lat="41.8748600" lon="-2.8300500">
        <ele>1147.1</ele>
        <time>2022-01-30T10:17:08Z</time>
      </trkpt>
      <trkpt lat="41.8748520" lon="-2.8300270">
        <ele>1147.3</ele>
        <time>2022-01-30T10:17:09Z</time>
      </trkpt>
      <trkpt lat="41.8748430" lon="-2.8300020">
        <ele>1147.5</ele>
        <time>2022-01-30T10:17:10Z</time>
      </trkpt>
      <trkpt lat="41.8748330" lon="-2.8299780">
        <ele>1147.7</ele>
        <time>2022-01-30T10:17:11Z</time>
      </trkpt>
      <trkpt lat="41.8748270" lon="-2.8299570">
        <ele>1147.8</ele>
        <time>2022-01-30T10:17:12Z</time>
      </trkpt>
      <trkpt lat="41.8748220" lon="-2.8299330">
        <ele>1148.0</ele>
        <time>2022-01-30T10:17:13Z</time>
      </trkpt>
      <trkpt lat="41.8748100" lon="-2.8299030">
        <ele>1148.2</ele>
        <time>2022-01-30T10:17:14Z</time>
      </trkpt>
      <trkpt lat="41.8748020" lon="-2.8298870">
        <ele>1148.3</ele>
        <time>2022-01-30T10:17:15Z</time>
      </trkpt>
      <trkpt lat="41.8747920" lon="-2.8298630">
        <ele>1148.5</ele>
        <time>2022-01-30T10:17:16Z</time>
      </trkpt>
      <trkpt lat="41.8747780" lon="-2.8298350">
        <ele>1148.7</ele>
        <time>2022-01-30T10:17:17Z</time>
      </trkpt>
      <trkpt lat="41.8747680" lon="-2.8298150">
        <ele>1148.9</ele>
        <time>2022-01-30T10:17:18Z</time>
      </trkpt>
      <trkpt lat="41.8747570" lon="-2.8297920">
        <ele>1149.1</ele>
        <time>2022-01-30T10:17:19Z</time>
      </trkpt>
      <trkpt lat="41.8747470" lon="-2.8297700">
        <ele>1149.2</ele>
        <time>2022-01-30T10:17:20Z</time>
      </trkpt>
      <trkpt lat="41.8747350" lon="-2.8297480">
        <ele>1149.4</ele>
        <time>2022-01-30T10:17:21Z</time>
      </trkpt>
      <trkpt lat="41.8747220" lon="-2.8297250">
        <ele>1149.6</ele>
        <time>2022-01-30T10:17:22Z</time>
      </trkpt>
      <trkpt lat="41.8747070" lon="-2.8296950">
        <ele>1149.8</ele>
        <time>2022-01-30T10:17:23Z</time>
      </trkpt>
      <trkpt lat="41.8746950" lon="-2.8296750">
        <ele>1150.0</ele>
        <time>2022-01-30T10:17:24Z</time>
      </trkpt>
      <trkpt lat="41.8746800" lon="-2.8296530">
        <ele>1150.1</ele>
        <time>2022-01-30T10:17:25Z</time>
      </trkpt>
      <trkpt lat="41.8746650" lon="-2.8296300">
        <ele>1150.3</ele>
        <time>2022-01-30T10:17:26Z</time>
      </trkpt>
      <trkpt lat="41.8746500" lon="-2.8296070">
        <ele>1150.5</ele>
        <time>2022-01-30T10:17:27Z</time>
      </trkpt>
      <trkpt lat="41.8746350" lon="-2.8295780">
        <ele>1150.6</ele>
        <time>2022-01-30T10:17:28Z</time>
      </trkpt>
      <trkpt lat="41.8746250" lon="-2.8295600">
        <ele>1150.8</ele>
        <time>2022-01-30T10:17:29Z</time>
      </trkpt>
      <trkpt lat="41.8746120" lon="-2.8295330">
        <ele>1150.9</ele>
        <time>2022-01-30T10:17:30Z</time>
      </trkpt>
      <trkpt lat="41.8746000" lon="-2.8295100">
        <ele>1151.1</ele>
        <time>2022-01-30T10:17:31Z</time>
      </trkpt>
      <trkpt lat="41.8745880" lon="-2.8294870">
        <ele>1151.2</ele>
        <time>2022-01-30T10:17:32Z</time>
      </trkpt>
      <trkpt lat="41.8745770" lon="-2.8294620">
        <ele>1151.4</ele>
        <time>2022-01-30T10:17:33Z</time>
      </trkpt>
      <trkpt lat="41.8745680" lon="-2.8294370">
        <ele>1151.5</ele>
        <time>2022-01-30T10:17:34Z</time>
      </trkpt>
      <trkpt lat="41.8745620" lon="-2.8294080">
        <ele>1151.7</ele>
        <time>2022-01-30T10:17:35Z</time>
      </trkpt>
      <trkpt lat="41.8745530" lon="-2.8293820">
        <ele>1151.9</ele>
        <time>2022-01-30T10:17:36Z</time>
      </trkpt>
      <trkpt lat="41.8745450" lon="-2.8293520">
        <ele>1152.1</ele>
        <time>2022-01-30T10:17:37Z</time>
      </trkpt>
      <trkpt lat="41.8745350" lon="-2.8293230">
        <ele>1152.2</ele>
        <time>2022-01-30T10:17:38Z</time>
      </trkpt>
      <trkpt lat="41.8745300" lon="-2.8292950">
        <ele>1152.4</ele>
        <time>2022-01-30T10:17:39Z</time>
      </trkpt>
      <trkpt lat="41.8745250" lon="-2.8292670">
        <ele>1152.6</ele>
        <time>2022-01-30T10:17:40Z</time>
      </trkpt>
      <trkpt lat="41.8745220" lon="-2.8292380">
        <ele>1152.7</ele>
        <time>2022-01-30T10:17:41Z</time>
      </trkpt>
      <trkpt lat="41.8745180" lon="-2.8292100">
        <ele>1152.8</ele>
        <time>2022-01-30T10:17:42Z</time>
      </trkpt>
      <trkpt lat="41.8745150" lon="-2.8291830">
        <ele>1152.9</ele>
        <time>2022-01-30T10:17:43Z</time>
      </trkpt>
      <trkpt lat="41.8745130" lon="-2.8291570">
        <ele>1153.0</ele>
        <time>2022-01-30T10:17:44Z</time>
      </trkpt>
      <trkpt lat="41.8745120" lon="-2.8291320">
        <ele>1153.1</ele>
        <time>2022-01-30T10:17:45Z</time>
      </trkpt>
      <trkpt lat="41.8745100" lon="-2.8291050">
        <ele>1153.2</ele>
        <time>2022-01-30T10:17:46Z</time>
      </trkpt>
      <trkpt lat="41.8745100" lon="-2.8290770">
        <ele>1153.3</ele>
        <time>2022-01-30T10:17:47Z</time>
      </trkpt>
      <trkpt lat="41.8745130" lon="-2.8290470">
        <ele>1153.4</ele>
        <time>2022-01-30T10:17:48Z</time>
      </trkpt>
      <trkpt lat="41.8745170" lon="-2.8290150">
        <ele>1153.5</ele>
        <time>2022-01-30T10:17:49Z</time>
      </trkpt>
      <trkpt lat="41.8745220" lon="-2.8289870">
        <ele>1153.6</ele>
        <time>2022-01-30T10:17:50Z</time>
      </trkpt>
      <trkpt lat="41.8745280" lon="-2.8289580">
        <ele>1153.7</ele>
        <time>2022-01-30T10:17:51Z</time>
      </trkpt>
      <trkpt lat="41.8745350" lon="-2.8289280">
        <ele>1153.8</ele>
        <time>2022-01-30T10:17:52Z</time>
      </trkpt>
      <trkpt lat="41.8745430" lon="-2.8288980">
        <ele>1153.9</ele>
        <time>2022-01-30T10:17:53Z</time>
      </trkpt>
      <trkpt lat="41.8745530" lon="-2.8288730">
        <ele>1154.0</ele>
        <time>2022-01-30T10:17:54Z</time>
      </trkpt>
      <trkpt lat="41.8745580" lon="-2.8288430">
        <ele>1154.1</ele>
        <time>2022-01-30T10:17:55Z</time>
      </trkpt>
      <trkpt lat="41.8745650" lon="-2.8288150">
        <ele>1154.2</ele>
        <time>2022-01-30T10:17:56Z</time>
      </trkpt>
      <trkpt lat="41.8745750" lon="-2.8287870">
        <ele>1154.2</ele>
        <time>2022-01-30T10:17:57Z</time>
      </trkpt>
      <trkpt lat="41.8745850" lon="-2.8287570">
        <ele>1154.3</ele>
        <time>2022-01-30T10:17:58Z</time>
      </trkpt>
      <trkpt lat="41.8745980" lon="-2.8287320">
        <ele>1154.4</ele>
        <time>2022-01-30T10:17:59Z</time>
      </trkpt>
      <trkpt lat="41.8746100" lon="-2.8287100">
        <ele>1154.4</ele>
        <time>2022-01-30T10:18:00Z</time>
      </trkpt>
      <trkpt lat="41.8746250" lon="-2.8286880">
        <ele>1154.5</ele>
        <time>2022-01-30T10:18:01Z</time>
      </trkpt>
      <trkpt lat="41.8746380" lon="-2.8286650">
        <ele>1154.5</ele>
        <time>2022-01-30T10:18:02Z</time>
      </trkpt>
      <trkpt lat="41.8746500" lon="-2.8286380">
        <ele>1154.6</ele>
        <time>2022-01-30T10:18:03Z</time>
      </trkpt>
      <trkpt lat="41.8746580" lon="-2.8286130">
        <ele>1154.7</ele>
        <time>2022-01-30T10:18:04Z</time>
      </trkpt>
      <trkpt lat="41.8746670" lon="-2.8285880">
        <ele>1154.8</ele>
        <time>2022-01-30T10:18:05Z</time>
      </trkpt>
      <trkpt lat="41.8746800" lon="-2.8285680">
        <ele>1154.9</ele>
        <time>2022-01-30T10:18:06Z</time>
      </trkpt>
      <trkpt lat="41.8746970" lon="-2.8285450">
        <ele>1155.0</ele>
        <time>2022-01-30T10:18:07Z</time>
      </trkpt>
      <trkpt lat="41.8747150" lon="-2.8285220">
        <ele>1155.2</ele>
        <time>2022-01-30T10:18:08Z</time>
      </trkpt>
      <trkpt lat="41.8747330" lon="-2.8285000">
        <ele>1155.3</ele>
        <time>2022-01-30T10:18:09Z</time>
      </trkpt>
      <trkpt lat="41.8747480" lon="-2.8284770">
        <ele>1155.5</ele>
        <time>2022-01-30T10:18:10Z</time>
      </trkpt>
      <trkpt lat="41.8747650" lon="-2.8284550">
        <ele>1155.6</ele>
        <time>2022-01-30T10:18:11Z</time>
      </trkpt>
      <trkpt lat="41.8747780" lon="-2.8284330">
        <ele>1155.7</ele>
        <time>2022-01-30T10:18:12Z</time>
      </trkpt>
      <trkpt lat="41.8747920" lon="-2.8284130">
        <ele>1155.8</ele>
        <time>2022-01-30T10:18:13Z</time>
      </trkpt>
      <trkpt lat="41.8748070" lon="-2.8283920">
        <ele>1155.9</ele>
        <time>2022-01-30T10:18:14Z</time>
      </trkpt>
      <trkpt lat="41.8748220" lon="-2.8283670">
        <ele>1156.1</ele>
        <time>2022-01-30T10:18:15Z</time>
      </trkpt>
      <trkpt lat="41.8748380" lon="-2.8283400">
        <ele>1156.2</ele>
        <time>2022-01-30T10:18:16Z</time>
      </trkpt>
      <trkpt lat="41.8748550" lon="-2.8283130">
        <ele>1156.3</ele>
        <time>2022-01-30T10:18:17Z</time>
      </trkpt>
      <trkpt lat="41.8748700" lon="-2.8282850">
        <ele>1156.4</ele>
        <time>2022-01-30T10:18:18Z</time>
      </trkpt>
      <trkpt lat="41.8748870" lon="-2.8282580">
        <ele>1156.5</ele>
        <time>2022-01-30T10:18:19Z</time>
      </trkpt>
      <trkpt lat="41.8749020" lon="-2.8282300">
        <ele>1156.5</ele>
        <time>2022-01-30T10:18:20Z</time>
      </trkpt>
      <trkpt lat="41.8749180" lon="-2.8282020">
        <ele>1156.6</ele>
        <time>2022-01-30T10:18:21Z</time>
      </trkpt>
      <trkpt lat="41.8749320" lon="-2.8281770">
        <ele>1156.7</ele>
        <time>2022-01-30T10:18:22Z</time>
      </trkpt>
      <trkpt lat="41.8749430" lon="-2.8281470">
        <ele>1156.7</ele>
        <time>2022-01-30T10:18:23Z</time>
      </trkpt>
      <trkpt lat="41.8749570" lon="-2.8281130">
        <ele>1156.8</ele>
        <time>2022-01-30T10:18:24Z</time>
      </trkpt>
      <trkpt lat="41.8749700" lon="-2.8280800">
        <ele>1156.9</ele>
        <time>2022-01-30T10:18:25Z</time>
      </trkpt>
      <trkpt lat="41.8749850" lon="-2.8280470">
        <ele>1156.9</ele>
        <time>2022-01-30T10:18:26Z</time>
      </trkpt>
      <trkpt lat="41.8750000" lon="-2.8280170">
        <ele>1157.0</ele>
        <time>2022-01-30T10:18:27Z</time>
      </trkpt>
      <trkpt lat="41.8750130" lon="-2.8279850">
        <ele>1157.1</ele>
        <time>2022-01-30T10:18:28Z</time>
      </trkpt>
      <trkpt lat="41.8750270" lon="-2.8279550">
        <ele>1157.2</ele>
        <time>2022-01-30T10:18:29Z</time>
      </trkpt>
      <trkpt lat="41.8750350" lon="-2.8279230">
        <ele>1157.3</ele>
        <time>2022-01-30T10:18:30Z</time>
      </trkpt>
      <trkpt lat="41.8750420" lon="-2.8278920">
        <ele>1157.3</ele>
        <time>2022-01-30T10:18:31Z</time>
      </trkpt>
      <trkpt lat="41.8750500" lon="-2.8278620">
        <ele>1157.4</ele>
        <time>2022-01-30T10:18:32Z</time>
      </trkpt>
      <trkpt lat="41.8750580" lon="-2.8278320">
        <ele>1157.5</ele>
        <time>2022-01-30T10:18:33Z</time>
      </trkpt>
      <trkpt lat="41.8750670" lon="-2.8278000">
        <ele>1157.6</ele>
        <time>2022-01-30T10:18:34Z</time>
      </trkpt>
      <trkpt lat="41.8750770" lon="-2.8277680">
        <ele>1157.7</ele>
        <time>2022-01-30T10:18:35Z</time>
      </trkpt>
      <trkpt lat="41.8750880" lon="-2.8277370">
        <ele>1157.8</ele>
        <time>2022-01-30T10:18:36Z</time>
      </trkpt>
      <trkpt lat="41.8751020" lon="-2.8277080">
        <ele>1157.9</ele>
        <time>2022-01-30T10:18:37Z</time>
      </trkpt>
      <trkpt lat="41.8751150" lon="-2.8276800">
        <ele>1158.0</ele>
        <time>2022-01-30T10:18:38Z</time>
      </trkpt>
      <trkpt lat="41.8751300" lon="-2.8276520">
        <ele>1158.1</ele>
        <time>2022-01-30T10:18:39Z</time>
      </trkpt>
      <trkpt lat="41.8751470" lon="-2.8276250">
        <ele>1158.2</ele>
        <time>2022-01-30T10:18:40Z</time>
      </trkpt>
      <trkpt lat="41.8751630" lon="-2.8276000">
        <ele>1158.2</ele>
        <time>2022-01-30T10:18:41Z</time>
      </trkpt>
      <trkpt lat="41.8751780" lon="-2.8275750">
        <ele>1158.3</ele>
        <time>2022-01-30T10:18:42Z</time>
      </trkpt>
      <trkpt lat="41.8751970" lon="-2.8275480">
        <ele>1158.4</ele>
        <time>2022-01-30T10:18:43Z</time>
      </trkpt>
      <trkpt lat="41.8752120" lon="-2.8275200">
        <ele>1158.5</ele>
        <time>2022-01-30T10:18:44Z</time>
      </trkpt>
      <trkpt lat="41.8752250" lon="-2.8274970">
        <ele>1158.5</ele>
        <time>2022-01-30T10:18:45Z</time>
      </trkpt>
      <trkpt lat="41.8752420" lon="-2.8274720">
        <ele>1158.6</ele>
        <time>2022-01-30T10:18:46Z</time>
      </trkpt>
      <trkpt lat="41.8752580" lon="-2.8274470">
        <ele>1158.7</ele>
        <time>2022-01-30T10:18:47Z</time>
      </trkpt>
      <trkpt lat="41.8752720" lon="-2.8274180">
        <ele>1158.8</ele>
        <time>2022-01-30T10:18:48Z</time>
      </trkpt>
      <trkpt lat="41.8752900" lon="-2.8273930">
        <ele>1158.9</ele>
        <time>2022-01-30T10:18:49Z</time>
      </trkpt>
      <trkpt lat="41.8753080" lon="-2.8273630">
        <ele>1159.0</ele>
        <time>2022-01-30T10:18:50Z</time>
      </trkpt>
      <trkpt lat="41.8753320" lon="-2.8273300">
        <ele>1159.1</ele>
        <time>2022-01-30T10:18:51Z</time>
      </trkpt>
      <trkpt lat="41.8753530" lon="-2.8273050">
        <ele>1159.1</ele>
        <time>2022-01-30T10:18:52Z</time>
      </trkpt>
      <trkpt lat="41.8753720" lon="-2.8272720">
        <ele>1159.2</ele>
        <time>2022-01-30T10:18:53Z</time>
      </trkpt>
      <trkpt lat="41.8753930" lon="-2.8272380">
        <ele>1159.3</ele>
        <time>2022-01-30T10:18:54Z</time>
      </trkpt>
      <trkpt lat="41.8754120" lon="-2.8272130">
        <ele>1159.4</ele>
        <time>2022-01-30T10:18:55Z</time>
      </trkpt>
      <trkpt lat="41.8754320" lon="-2.8271970">
        <ele>1159.5</ele>
        <time>2022-01-30T10:18:56Z</time>
      </trkpt>
      <trkpt lat="41.8754480" lon="-2.8271700">
        <ele>1159.6</ele>
        <time>2022-01-30T10:18:57Z</time>
      </trkpt>
      <trkpt lat="41.8754680" lon="-2.8271470">
        <ele>1159.7</ele>
        <time>2022-01-30T10:18:58Z</time>
      </trkpt>
      <trkpt lat="41.8754900" lon="-2.8271250">
        <ele>1159.8</ele>
        <time>2022-01-30T10:18:59Z</time>
      </trkpt>
      <trkpt lat="41.8755150" lon="-2.8271030">
        <ele>1160.0</ele>
        <time>2022-01-30T10:19:00Z</time>
      </trkpt>
      <trkpt lat="41.8755370" lon="-2.8270900">
        <ele>1160.1</ele>
        <time>2022-01-30T10:19:01Z</time>
      </trkpt>
      <trkpt lat="41.8755600" lon="-2.8270750">
        <ele>1160.2</ele>
        <time>2022-01-30T10:19:02Z</time>
      </trkpt>
      <trkpt lat="41.8755850" lon="-2.8270600">
        <ele>1160.3</ele>
        <time>2022-01-30T10:19:03Z</time>
      </trkpt>
      <trkpt lat="41.8756080" lon="-2.8270400">
        <ele>1160.5</ele>
        <time>2022-01-30T10:19:04Z</time>
      </trkpt>
      <trkpt lat="41.8756420" lon="-2.8270220">
        <ele>1160.7</ele>
        <time>2022-01-30T10:19:05Z</time>
      </trkpt>
      <trkpt lat="41.8756650" lon="-2.8270030">
        <ele>1160.9</ele>
        <time>2022-01-30T10:19:06Z</time>
      </trkpt>
      <trkpt lat="41.8756900" lon="-2.8269850">
        <ele>1161.0</ele>
        <time>2022-01-30T10:19:07Z</time>
      </trkpt>
      <trkpt lat="41.8757150" lon="-2.8269670">
        <ele>1161.2</ele>
        <time>2022-01-30T10:19:08Z</time>
      </trkpt>
      <trkpt lat="41.8757420" lon="-2.8269480">
        <ele>1161.4</ele>
        <time>2022-01-30T10:19:09Z</time>
      </trkpt>
      <trkpt lat="41.8757630" lon="-2.8269270">
        <ele>1161.5</ele>
        <time>2022-01-30T10:19:10Z</time>
      </trkpt>
      <trkpt lat="41.8757870" lon="-2.8269030">
        <ele>1161.7</ele>
        <time>2022-01-30T10:19:11Z</time>
      </trkpt>
      <trkpt lat="41.8758100" lon="-2.8268820">
        <ele>1161.9</ele>
        <time>2022-01-30T10:19:12Z</time>
      </trkpt>
      <trkpt lat="41.8758320" lon="-2.8268580">
        <ele>1162.0</ele>
        <time>2022-01-30T10:19:13Z</time>
      </trkpt>
      <trkpt lat="41.8758500" lon="-2.8268300">
        <ele>1162.1</ele>
        <time>2022-01-30T10:19:14Z</time>
      </trkpt>
      <trkpt lat="41.8758680" lon="-2.8268070">
        <ele>1162.2</ele>
        <time>2022-01-30T10:19:15Z</time>
      </trkpt>
      <trkpt lat="41.8758830" lon="-2.8267870">
        <ele>1162.3</ele>
        <time>2022-01-30T10:19:16Z</time>
      </trkpt>
      <trkpt lat="41.8759000" lon="-2.8267670">
        <ele>1162.4</ele>
        <time>2022-01-30T10:19:17Z</time>
      </trkpt>
      <trkpt lat="41.8759220" lon="-2.8267480">
        <ele>1162.5</ele>
        <time>2022-01-30T10:19:18Z</time>
      </trkpt>
      <trkpt lat="41.8759420" lon="-2.8267300">
        <ele>1162.6</ele>
        <time>2022-01-30T10:19:19Z</time>
      </trkpt>
      <trkpt lat="41.8759630" lon="-2.8267100">
        <ele>1162.8</ele>
        <time>2022-01-30T10:19:20Z</time>
      </trkpt>
      <trkpt lat="41.8759850" lon="-2.8266900">
        <ele>1162.9</ele>
        <time>2022-01-30T10:19:21Z</time>
      </trkpt>
      <trkpt lat="41.8760070" lon="-2.8266600">
        <ele>1163.1</ele>
        <time>2022-01-30T10:19:22Z</time>
      </trkpt>
      <trkpt lat="41.8760280" lon="-2.8266350">
        <ele>1163.3</ele>
        <time>2022-01-30T10:19:23Z</time>
      </trkpt>
      <trkpt lat="41.8760450" lon="-2.8266080">
        <ele>1163.4</ele>
        <time>2022-01-30T10:19:24Z</time>
      </trkpt>
      <trkpt lat="41.8760630" lon="-2.8265870">
        <ele>1163.6</ele>
        <time>2022-01-30T10:19:25Z</time>
      </trkpt>
      <trkpt lat="41.8760820" lon="-2.8265630">
        <ele>1163.7</ele>
        <time>2022-01-30T10:19:26Z</time>
      </trkpt>
      <trkpt lat="41.8761020" lon="-2.8265470">
        <ele>1163.9</ele>
        <time>2022-01-30T10:19:27Z</time>
      </trkpt>
      <trkpt lat="41.8761250" lon="-2.8265300">
        <ele>1164.1</ele>
        <time>2022-01-30T10:19:28Z</time>
      </trkpt>
      <trkpt lat="41.8761450" lon="-2.8265130">
        <ele>1164.2</ele>
        <time>2022-01-30T10:19:29Z</time>
      </trkpt>
      <trkpt lat="41.8761650" lon="-2.8264970">
        <ele>1164.4</ele>
        <time>2022-01-30T10:19:30Z</time>
      </trkpt>
      <trkpt lat="41.8761800" lon="-2.8264850">
        <ele>1164.6</ele>
        <time>2022-01-30T10:19:31Z</time>
      </trkpt>
      <trkpt lat="41.8762000" lon="-2.8264750">
        <ele>1164.7</ele>
        <time>2022-01-30T10:19:32Z</time>
      </trkpt>
      <trkpt lat="41.8762180" lon="-2.8264680">
        <ele>1164.9</ele>
        <time>2022-01-30T10:19:33Z</time>
      </trkpt>
      <trkpt lat="41.8762420" lon="-2.8264630">
        <ele>1165.1</ele>
        <time>2022-01-30T10:19:34Z</time>
      </trkpt>
      <trkpt lat="41.8762630" lon="-2.8264630">
        <ele>1165.3</ele>
        <time>2022-01-30T10:19:35Z</time>
      </trkpt>
      <trkpt lat="41.8762850" lon="-2.8264680">
        <ele>1165.4</ele>
        <time>2022-01-30T10:19:36Z</time>
      </trkpt>
      <trkpt lat="41.8763020" lon="-2.8264850">
        <ele>1165.6</ele>
        <time>2022-01-30T10:19:37Z</time>
      </trkpt>
      <trkpt lat="41.8763130" lon="-2.8265070">
        <ele>1165.8</ele>
        <time>2022-01-30T10:19:38Z</time>
      </trkpt>
      <trkpt lat="41.8763250" lon="-2.8265350">
        <ele>1165.9</ele>
        <time>2022-01-30T10:19:39Z</time>
      </trkpt>
      <trkpt lat="41.8763380" lon="-2.8265600">
        <ele>1166.1</ele>
        <time>2022-01-30T10:19:40Z</time>
      </trkpt>
      <trkpt lat="41.8763530" lon="-2.8265830">
        <ele>1166.2</ele>
        <time>2022-01-30T10:19:41Z</time>
      </trkpt>
      <trkpt lat="41.8763680" lon="-2.8266080">
        <ele>1166.3</ele>
        <time>2022-01-30T10:19:42Z</time>
      </trkpt>
      <trkpt lat="41.8763800" lon="-2.8266400">
        <ele>1166.4</ele>
        <time>2022-01-30T10:19:43Z</time>
      </trkpt>
      <trkpt lat="41.8763880" lon="-2.8266680">
        <ele>1166.5</ele>
        <time>2022-01-30T10:19:44Z</time>
      </trkpt>
      <trkpt lat="41.8763930" lon="-2.8266980">
        <ele>1166.6</ele>
        <time>2022-01-30T10:19:45Z</time>
      </trkpt>
      <trkpt lat="41.8764000" lon="-2.8267320">
        <ele>1166.7</ele>
        <time>2022-01-30T10:19:46Z</time>
      </trkpt>
      <trkpt lat="41.8764030" lon="-2.8267680">
        <ele>1166.9</ele>
        <time>2022-01-30T10:19:47Z</time>
      </trkpt>
      <trkpt lat="41.8764020" lon="-2.8268050">
        <ele>1167.0</ele>
        <time>2022-01-30T10:19:48Z</time>
      </trkpt>
      <trkpt lat="41.8763970" lon="-2.8268430">
        <ele>1167.2</ele>
        <time>2022-01-30T10:19:49Z</time>
      </trkpt>
      <trkpt lat="41.8763950" lon="-2.8268820">
        <ele>1167.3</ele>
        <time>2022-01-30T10:19:50Z</time>
      </trkpt>
      <trkpt lat="41.8763930" lon="-2.8269150">
        <ele>1167.5</ele>
        <time>2022-01-30T10:19:51Z</time>
      </trkpt>
      <trkpt lat="41.8763900" lon="-2.8269480">
        <ele>1167.6</ele>
        <time>2022-01-30T10:19:52Z</time>
      </trkpt>
      <trkpt lat="41.8763870" lon="-2.8269830">
        <ele>1167.8</ele>
        <time>2022-01-30T10:19:53Z</time>
      </trkpt>
      <trkpt lat="41.8763820" lon="-2.8270170">
        <ele>1167.9</ele>
        <time>2022-01-30T10:19:54Z</time>
      </trkpt>
      <trkpt lat="41.8763730" lon="-2.8270520">
        <ele>1168.1</ele>
        <time>2022-01-30T10:19:55Z</time>
      </trkpt>
      <trkpt lat="41.8763670" lon="-2.8270870">
        <ele>1168.2</ele>
        <time>2022-01-30T10:19:56Z</time>
      </trkpt>
      <trkpt lat="41.8763580" lon="-2.8271200">
        <ele>1168.4</ele>
        <time>2022-01-30T10:19:57Z</time>
      </trkpt>
      <trkpt lat="41.8763530" lon="-2.8271530">
        <ele>1168.5</ele>
        <time>2022-01-30T10:19:58Z</time>
      </trkpt>
      <trkpt lat="41.8763500" lon="-2.8271870">
        <ele>1168.7</ele>
        <time>2022-01-30T10:19:59Z</time>
      </trkpt>
      <trkpt lat="41.8763500" lon="-2.8272220">
        <ele>1168.8</ele>
        <time>2022-01-30T10:20:00Z</time>
      </trkpt>
      <trkpt lat="41.8763500" lon="-2.8272550">
        <ele>1169.0</ele>
        <time>2022-01-30T10:20:01Z</time>
      </trkpt>
      <trkpt lat="41.8763480" lon="-2.8272880">
        <ele>1169.1</ele>
        <time>2022-01-30T10:20:02Z</time>
      </trkpt>
      <trkpt lat="41.8763480" lon="-2.8273220">
        <ele>1169.3</ele>
        <time>2022-01-30T10:20:03Z</time>
      </trkpt>
      <trkpt lat="41.8763530" lon="-2.8273520">
        <ele>1169.5</ele>
        <time>2022-01-30T10:20:04Z</time>
      </trkpt>
      <trkpt lat="41.8763620" lon="-2.8273780">
        <ele>1169.6</ele>
        <time>2022-01-30T10:20:05Z</time>
      </trkpt>
      <trkpt lat="41.8763770" lon="-2.8274020">
        <ele>1169.8</ele>
        <time>2022-01-30T10:20:06Z</time>
      </trkpt>
      <trkpt lat="41.8763930" lon="-2.8274220">
        <ele>1169.9</ele>
        <time>2022-01-30T10:20:07Z</time>
      </trkpt>
      <trkpt lat="41.8764150" lon="-2.8274330">
        <ele>1170.1</ele>
        <time>2022-01-30T10:20:08Z</time>
      </trkpt>
      <trkpt lat="41.8764380" lon="-2.8274380">
        <ele>1170.2</ele>
        <time>2022-01-30T10:20:09Z</time>
      </trkpt>
      <trkpt lat="41.8764620" lon="-2.8274370">
        <ele>1170.4</ele>
        <time>2022-01-30T10:20:10Z</time>
      </trkpt>
      <trkpt lat="41.8764870" lon="-2.8274330">
        <ele>1170.5</ele>
        <time>2022-01-30T10:20:11Z</time>
      </trkpt>
      <trkpt lat="41.8765120" lon="-2.8274320">
        <ele>1170.7</ele>
        <time>2022-01-30T10:20:12Z</time>
      </trkpt>
      <trkpt lat="41.8765400" lon="-2.8274300">
        <ele>1170.9</ele>
        <time>2022-01-30T10:20:13Z</time>
      </trkpt>
      <trkpt lat="41.8765670" lon="-2.8274300">
        <ele>1171.0</ele>
        <time>2022-01-30T10:20:14Z</time>
      </trkpt>
      <trkpt lat="41.8765930" lon="-2.8274330">
        <ele>1171.2</ele>
        <time>2022-01-30T10:20:15Z</time>
      </trkpt>
      <trkpt lat="41.8766170" lon="-2.8274370">
        <ele>1171.3</ele>
        <time>2022-01-30T10:20:16Z</time>
      </trkpt>
      <trkpt lat="41.8766400" lon="-2.8274420">
        <ele>1171.5</ele>
        <time>2022-01-30T10:20:17Z</time>
      </trkpt>
      <trkpt lat="41.8766620" lon="-2.8274470">
        <ele>1171.6</ele>
        <time>2022-01-30T10:20:18Z</time>
      </trkpt>
      <trkpt lat="41.8766870" lon="-2.8274520">
        <ele>1171.7</ele>
        <time>2022-01-30T10:20:19Z</time>
      </trkpt>
      <trkpt lat="41.8767100" lon="-2.8274570">
        <ele>1171.9</ele>
        <time>2022-01-30T10:20:20Z</time>
      </trkpt>
      <trkpt lat="41.8767330" lon="-2.8274630">
        <ele>1172.0</ele>
        <time>2022-01-30T10:20:21Z</time>
      </trkpt>
      <trkpt lat="41.8767550" lon="-2.8274680">
        <ele>1172.1</ele>
        <time>2022-01-30T10:20:22Z</time>
      </trkpt>
      <trkpt lat="41.8767780" lon="-2.8274730">
        <ele>1172.3</ele>
        <time>2022-01-30T10:20:23Z</time>
      </trkpt>
      <trkpt lat="41.8768030" lon="-2.8274770">
        <ele>1172.4</ele>
        <time>2022-01-30T10:20:24Z</time>
      </trkpt>
      <trkpt lat="41.8768280" lon="-2.8274820">
        <ele>1172.6</ele>
        <time>2022-01-30T10:20:25Z</time>
      </trkpt>
      <trkpt lat="41.8768530" lon="-2.8274850">
        <ele>1172.7</ele>
        <time>2022-01-30T10:20:26Z</time>
      </trkpt>
      <trkpt lat="41.8768750" lon="-2.8274800">
        <ele>1172.9</ele>
        <time>2022-01-30T10:20:27Z</time>
      </trkpt>
      <trkpt lat="41.8768970" lon="-2.8274720">
        <ele>1173.0</ele>
        <time>2022-01-30T10:20:28Z</time>
      </trkpt>
      <trkpt lat="41.8769170" lon="-2.8274570">
        <ele>1173.1</ele>
        <time>2022-01-30T10:20:29Z</time>
      </trkpt>
      <trkpt lat="41.8769330" lon="-2.8274370">
        <ele>1173.2</ele>
        <time>2022-01-30T10:20:30Z</time>
      </trkpt>
      <trkpt lat="41.8769520" lon="-2.8274130">
        <ele>1173.4</ele>
        <time>2022-01-30T10:20:31Z</time>
      </trkpt>
      <trkpt lat="41.8769650" lon="-2.8273850">
        <ele>1173.5</ele>
        <time>2022-01-30T10:20:32Z</time>
      </trkpt>
      <trkpt lat="41.8769780" lon="-2.8273580">
        <ele>1173.6</ele>
        <time>2022-01-30T10:20:33Z</time>
      </trkpt>
      <trkpt lat="41.8769900" lon="-2.8273300">
        <ele>1173.7</ele>
        <time>2022-01-30T10:20:34Z</time>
      </trkpt>
      <trkpt lat="41.8770050" lon="-2.8273020">
        <ele>1173.8</ele>
        <time>2022-01-30T10:20:35Z</time>
      </trkpt>
      <trkpt lat="41.8770180" lon="-2.8272720">
        <ele>1173.9</ele>
        <time>2022-01-30T10:20:36Z</time>
      </trkpt>
      <trkpt lat="41.8770300" lon="-2.8272480">
        <ele>1174.0</ele>
        <time>2022-01-30T10:20:37Z</time>
      </trkpt>
      <trkpt lat="41.8770500" lon="-2.8272150">
        <ele>1174.2</ele>
        <time>2022-01-30T10:20:38Z</time>
      </trkpt>
      <trkpt lat="41.8770670" lon="-2.8271870">
        <ele>1174.3</ele>
        <time>2022-01-30T10:20:39Z</time>
      </trkpt>
      <trkpt lat="41.8770850" lon="-2.8271600">
        <ele>1174.4</ele>
        <time>2022-01-30T10:20:40Z</time>
      </trkpt>
      <trkpt lat="41.8771050" lon="-2.8271370">
        <ele>1174.6</ele>
        <time>2022-01-30T10:20:41Z</time>
      </trkpt>
      <trkpt lat="41.8771270" lon="-2.8271170">
        <ele>1174.7</ele>
        <time>2022-01-30T10:20:42Z</time>
      </trkpt>
      <trkpt lat="41.8771480" lon="-2.8270970">
        <ele>1174.8</ele>
        <time>2022-01-30T10:20:43Z</time>
      </trkpt>
      <trkpt lat="41.8771700" lon="-2.8270780">
        <ele>1174.9</ele>
        <time>2022-01-30T10:20:44Z</time>
      </trkpt>
      <trkpt lat="41.8771900" lon="-2.8270630">
        <ele>1175.0</ele>
        <time>2022-01-30T10:20:45Z</time>
      </trkpt>
      <trkpt lat="41.8772120" lon="-2.8270500">
        <ele>1175.1</ele>
        <time>2022-01-30T10:20:46Z</time>
      </trkpt>
      <trkpt lat="41.8772350" lon="-2.8270370">
        <ele>1175.3</ele>
        <time>2022-01-30T10:20:47Z</time>
      </trkpt>
      <trkpt lat="41.8772600" lon="-2.8270230">
        <ele>1175.4</ele>
        <time>2022-01-30T10:20:48Z</time>
      </trkpt>
      <trkpt lat="41.8772800" lon="-2.8270120">
        <ele>1175.5</ele>
        <time>2022-01-30T10:20:49Z</time>
      </trkpt>
      <trkpt lat="41.8773030" lon="-2.8269970">
        <ele>1175.6</ele>
        <time>2022-01-30T10:20:50Z</time>
      </trkpt>
      <trkpt lat="41.8773250" lon="-2.8269800">
        <ele>1175.7</ele>
        <time>2022-01-30T10:20:51Z</time>
      </trkpt>
      <trkpt lat="41.8773470" lon="-2.8269600">
        <ele>1175.9</ele>
        <time>2022-01-30T10:20:52Z</time>
      </trkpt>
      <trkpt lat="41.8773680" lon="-2.8269380">
        <ele>1176.0</ele>
        <time>2022-01-30T10:20:53Z</time>
      </trkpt>
      <trkpt lat="41.8773900" lon="-2.8269150">
        <ele>1176.2</ele>
        <time>2022-01-30T10:20:54Z</time>
      </trkpt>
      <trkpt lat="41.8774080" lon="-2.8268980">
        <ele>1176.3</ele>
        <time>2022-01-30T10:20:55Z</time>
      </trkpt>
      <trkpt lat="41.8774300" lon="-2.8268700">
        <ele>1176.4</ele>
        <time>2022-01-30T10:20:56Z</time>
      </trkpt>
      <trkpt lat="41.8774480" lon="-2.8268430">
        <ele>1176.6</ele>
        <time>2022-01-30T10:20:57Z</time>
      </trkpt>
      <trkpt lat="41.8774670" lon="-2.8268200">
        <ele>1176.7</ele>
        <time>2022-01-30T10:20:58Z</time>
      </trkpt>
      <trkpt lat="41.8774820" lon="-2.8267950">
        <ele>1176.8</ele>
        <time>2022-01-30T10:20:59Z</time>
      </trkpt>
      <trkpt lat="41.8774950" lon="-2.8267700">
        <ele>1176.9</ele>
        <time>2022-01-30T10:21:00Z</time>
      </trkpt>
      <trkpt lat="41.8775100" lon="-2.8267480">
        <ele>1177.0</ele>
        <time>2022-01-30T10:21:01Z</time>
      </trkpt>
      <trkpt lat="41.8775280" lon="-2.8267280">
        <ele>1177.1</ele>
        <time>2022-01-30T10:21:02Z</time>
      </trkpt>
      <trkpt lat="41.8775480" lon="-2.8267100">
        <ele>1177.3</ele>
        <time>2022-01-30T10:21:03Z</time>
      </trkpt>
      <trkpt lat="41.8775670" lon="-2.8266970">
        <ele>1177.4</ele>
        <time>2022-01-30T10:21:04Z</time>
      </trkpt>
      <trkpt lat="41.8775870" lon="-2.8266820">
        <ele>1177.5</ele>
        <time>2022-01-30T10:21:05Z</time>
      </trkpt>
      <trkpt lat="41.8776100" lon="-2.8266680">
        <ele>1177.6</ele>
        <time>2022-01-30T10:21:06Z</time>
      </trkpt>
      <trkpt lat="41.8776320" lon="-2.8266530">
        <ele>1177.7</ele>
        <time>2022-01-30T10:21:07Z</time>
      </trkpt>
      <trkpt lat="41.8776530" lon="-2.8266370">
        <ele>1177.9</ele>
        <time>2022-01-30T10:21:08Z</time>
      </trkpt>
      <trkpt lat="41.8776700" lon="-2.8266150">
        <ele>1178.0</ele>
        <time>2022-01-30T10:21:09Z</time>
      </trkpt>
      <trkpt lat="41.8776800" lon="-2.8265880">
        <ele>1178.1</ele>
        <time>2022-01-30T10:21:10Z</time>
      </trkpt>
      <trkpt lat="41.8776880" lon="-2.8265620">
        <ele>1178.2</ele>
        <time>2022-01-30T10:21:11Z</time>
      </trkpt>
      <trkpt lat="41.8776970" lon="-2.8265330">
        <ele>1178.3</ele>
        <time>2022-01-30T10:21:12Z</time>
      </trkpt>
      <trkpt lat="41.8777030" lon="-2.8265030">
        <ele>1178.4</ele>
        <time>2022-01-30T10:21:13Z</time>
      </trkpt>
      <trkpt lat="41.8777100" lon="-2.8264750">
        <ele>1178.5</ele>
        <time>2022-01-30T10:21:14Z</time>
      </trkpt>
      <trkpt lat="41.8777220" lon="-2.8264480">
        <ele>1178.6</ele>
        <time>2022-01-30T10:21:15Z</time>
      </trkpt>
      <trkpt lat="41.8777320" lon="-2.8264200">
        <ele>1178.7</ele>
        <time>2022-01-30T10:21:16Z</time>
      </trkpt>
      <trkpt lat="41.8777470" lon="-2.8263920">
        <ele>1178.8</ele>
        <time>2022-01-30T10:21:17Z</time>
      </trkpt>
      <trkpt lat="41.8777600" lon="-2.8263600">
        <ele>1179.0</ele>
        <time>2022-01-30T10:21:18Z</time>
      </trkpt>
      <trkpt lat="41.8777700" lon="-2.8263250">
        <ele>1179.1</ele>
        <time>2022-01-30T10:21:19Z</time>
      </trkpt>
      <trkpt lat="41.8777770" lon="-2.8262920">
        <ele>1179.2</ele>
        <time>2022-01-30T10:21:20Z</time>
      </trkpt>
      <trkpt lat="41.8777780" lon="-2.8262570">
        <ele>1179.4</ele>
        <time>2022-01-30T10:21:21Z</time>
      </trkpt>
      <trkpt lat="41.8777800" lon="-2.8262220">
        <ele>1179.5</ele>
        <time>2022-01-30T10:21:22Z</time>
      </trkpt>
      <trkpt lat="41.8777820" lon="-2.8261870">
        <ele>1179.6</ele>
        <time>2022-01-30T10:21:23Z</time>
      </trkpt>
      <trkpt lat="41.8777870" lon="-2.8261500">
        <ele>1179.7</ele>
        <time>2022-01-30T10:21:24Z</time>
      </trkpt>
      <trkpt lat="41.8777920" lon="-2.8261130">
        <ele>1179.8</ele>
        <time>2022-01-30T10:21:25Z</time>
      </trkpt>
      <trkpt lat="41.8777950" lon="-2.8260750">
        <ele>1179.9</ele>
        <time>2022-01-30T10:21:26Z</time>
      </trkpt>
      <trkpt lat="41.8778020" lon="-2.8260330">
        <ele>1180.0</ele>
        <time>2022-01-30T10:21:27Z</time>
      </trkpt>
      <trkpt lat="41.8778080" lon="-2.8259920">
        <ele>1180.1</ele>
        <time>2022-01-30T10:21:28Z</time>
      </trkpt>
      <trkpt lat="41.8778130" lon="-2.8259520">
        <ele>1180.2</ele>
        <time>2022-01-30T10:21:29Z</time>
      </trkpt>
      <trkpt lat="41.8778150" lon="-2.8259130">
        <ele>1180.3</ele>
        <time>2022-01-30T10:21:30Z</time>
      </trkpt>
      <trkpt lat="41.8778170" lon="-2.8258730">
        <ele>1180.4</ele>
        <time>2022-01-30T10:21:31Z</time>
      </trkpt>
      <trkpt lat="41.8778250" lon="-2.8258370">
        <ele>1180.5</ele>
        <time>2022-01-30T10:21:32Z</time>
      </trkpt>
      <trkpt lat="41.8778370" lon="-2.8258070">
        <ele>1180.5</ele>
        <time>2022-01-30T10:21:33Z</time>
      </trkpt>
      <trkpt lat="41.8778520" lon="-2.8257780">
        <ele>1180.6</ele>
        <time>2022-01-30T10:21:34Z</time>
      </trkpt>
      <trkpt lat="41.8778700" lon="-2.8257480">
        <ele>1180.7</ele>
        <time>2022-01-30T10:21:35Z</time>
      </trkpt>
      <trkpt lat="41.8778880" lon="-2.8257150">
        <ele>1180.8</ele>
        <time>2022-01-30T10:21:36Z</time>
      </trkpt>
      <trkpt lat="41.8779100" lon="-2.8256830">
        <ele>1180.8</ele>
        <time>2022-01-30T10:21:37Z</time>
      </trkpt>
      <trkpt lat="41.8779280" lon="-2.8256500">
        <ele>1180.8</ele>
        <time>2022-01-30T10:21:38Z</time>
      </trkpt>
      <trkpt lat="41.8779400" lon="-2.8256100">
        <ele>1180.8</ele>
        <time>2022-01-30T10:21:39Z</time>
      </trkpt>
      <trkpt lat="41.8779450" lon="-2.8255670">
        <ele>1180.8</ele>
        <time>2022-01-30T10:21:40Z</time>
      </trkpt>
      <trkpt lat="41.8779500" lon="-2.8255170">
        <ele>1180.8</ele>
        <time>2022-01-30T10:21:41Z</time>
      </trkpt>
      <trkpt lat="41.8779580" lon="-2.8254480">
        <ele>1180.8</ele>
        <time>2022-01-30T10:21:42Z</time>
      </trkpt>
      <trkpt lat="41.8779630" lon="-2.8253900">
        <ele>1180.8</ele>
        <time>2022-01-30T10:21:43Z</time>
      </trkpt>
      <trkpt lat="41.8779750" lon="-2.8253330">
        <ele>1180.8</ele>
        <time>2022-01-30T10:21:44Z</time>
      </trkpt>
      <trkpt lat="41.8779870" lon="-2.8252800">
        <ele>1180.7</ele>
        <time>2022-01-30T10:21:45Z</time>
      </trkpt>
      <trkpt lat="41.8779970" lon="-2.8252200">
        <ele>1180.6</ele>
        <time>2022-01-30T10:21:46Z</time>
      </trkpt>
      <trkpt lat="41.8780120" lon="-2.8251680">
        <ele>1180.5</ele>
        <time>2022-01-30T10:21:47Z</time>
      </trkpt>
      <trkpt lat="41.8780280" lon="-2.8251130">
        <ele>1180.5</ele>
        <time>2022-01-30T10:21:48Z</time>
      </trkpt>
      <trkpt lat="41.8780450" lon="-2.8250600">
        <ele>1180.4</ele>
        <time>2022-01-30T10:21:49Z</time>
      </trkpt>
      <trkpt lat="41.8780630" lon="-2.8250070">
        <ele>1180.4</ele>
        <time>2022-01-30T10:21:50Z</time>
      </trkpt>
      <trkpt lat="41.8780820" lon="-2.8249570">
        <ele>1180.3</ele>
        <time>2022-01-30T10:21:51Z</time>
      </trkpt>
      <trkpt lat="41.8780970" lon="-2.8249030">
        <ele>1180.1</ele>
        <time>2022-01-30T10:21:52Z</time>
      </trkpt>
      <trkpt lat="41.8781120" lon="-2.8248520">
        <ele>1180.0</ele>
        <time>2022-01-30T10:21:53Z</time>
      </trkpt>
      <trkpt lat="41.8781270" lon="-2.8248000">
        <ele>1179.9</ele>
        <time>2022-01-30T10:21:54Z</time>
      </trkpt>
      <trkpt lat="41.8781450" lon="-2.8247520">
        <ele>1179.8</ele>
        <time>2022-01-30T10:21:55Z</time>
      </trkpt>
      <trkpt lat="41.8781620" lon="-2.8247030">
        <ele>1179.8</ele>
        <time>2022-01-30T10:21:56Z</time>
      </trkpt>
      <trkpt lat="41.8781780" lon="-2.8246530">
        <ele>1179.8</ele>
        <time>2022-01-30T10:21:57Z</time>
      </trkpt>
      <trkpt lat="41.8781950" lon="-2.8246000">
        <ele>1179.8</ele>
        <time>2022-01-30T10:21:58Z</time>
      </trkpt>
      <trkpt lat="41.8782080" lon="-2.8245550">
        <ele>1179.9</ele>
        <time>2022-01-30T10:21:59Z</time>
      </trkpt>
      <trkpt lat="41.8782270" lon="-2.8244930">
        <ele>1179.9</ele>
        <time>2022-01-30T10:22:00Z</time>
      </trkpt>
      <trkpt lat="41.8782430" lon="-2.8244450">
        <ele>1180.0</ele>
        <time>2022-01-30T10:22:01Z</time>
      </trkpt>
      <trkpt lat="41.8782570" lon="-2.8243980">
        <ele>1180.1</ele>
        <time>2022-01-30T10:22:02Z</time>
      </trkpt>
      <trkpt lat="41.8782670" lon="-2.8243500">
        <ele>1180.2</ele>
        <time>2022-01-30T10:22:03Z</time>
      </trkpt>
      <trkpt lat="41.8782780" lon="-2.8243030">
        <ele>1180.3</ele>
        <time>2022-01-30T10:22:04Z</time>
      </trkpt>
      <trkpt lat="41.8782870" lon="-2.8242530">
        <ele>1180.4</ele>
        <time>2022-01-30T10:22:05Z</time>
      </trkpt>
      <trkpt lat="41.8782870" lon="-2.8242530">
        <ele>1180.4</ele>
        <time>2022-01-30T10:22:06Z</time>
      </trkpt>
      <trkpt lat="41.8782930" lon="-2.8241480">
        <ele>1180.5</ele>
        <time>2022-01-30T10:22:07Z</time>
      </trkpt>
      <trkpt lat="41.8783050" lon="-2.8240950">
        <ele>1180.6</ele>
        <time>2022-01-30T10:22:08Z</time>
      </trkpt>
      <trkpt lat="41.8783170" lon="-2.8240570">
        <ele>1180.7</ele>
        <time>2022-01-30T10:22:09Z</time>
      </trkpt>
      <trkpt lat="41.8783330" lon="-2.8239970">
        <ele>1180.8</ele>
        <time>2022-01-30T10:22:10Z</time>
      </trkpt>
      <trkpt lat="41.8783480" lon="-2.8239470">
        <ele>1180.8</ele>
        <time>2022-01-30T10:22:11Z</time>
      </trkpt>
      <trkpt lat="41.8783630" lon="-2.8239020">
        <ele>1180.9</ele>
        <time>2022-01-30T10:22:12Z</time>
      </trkpt>
      <trkpt lat="41.8783720" lon="-2.8238550">
        <ele>1181.0</ele>
        <time>2022-01-30T10:22:13Z</time>
      </trkpt>
      <trkpt lat="41.8783770" lon="-2.8238120">
        <ele>1181.1</ele>
        <time>2022-01-30T10:22:14Z</time>
      </trkpt>
      <trkpt lat="41.8783800" lon="-2.8237700">
        <ele>1181.2</ele>
        <time>2022-01-30T10:22:15Z</time>
      </trkpt>
      <trkpt lat="41.8783920" lon="-2.8237300">
        <ele>1181.3</ele>
        <time>2022-01-30T10:22:16Z</time>
      </trkpt>
      <trkpt lat="41.8783970" lon="-2.8236950">
        <ele>1181.4</ele>
        <time>2022-01-30T10:22:17Z</time>
      </trkpt>
      <trkpt lat="41.8783950" lon="-2.8236570">
        <ele>1181.5</ele>
        <time>2022-01-30T10:22:18Z</time>
      </trkpt>
      <trkpt lat="41.8783900" lon="-2.8236200">
        <ele>1181.6</ele>
        <time>2022-01-30T10:22:19Z</time>
      </trkpt>
      <trkpt lat="41.8783870" lon="-2.8235870">
        <ele>1181.7</ele>
        <time>2022-01-30T10:22:20Z</time>
      </trkpt>
      <trkpt lat="41.8783820" lon="-2.8235570">
        <ele>1181.7</ele>
        <time>2022-01-30T10:22:21Z</time>
      </trkpt>
      <trkpt lat="41.8783770" lon="-2.8235280">
        <ele>1181.1</ele>
        <time>2022-01-30T10:22:22Z</time>
      </trkpt>
      <trkpt lat="41.8783700" lon="-2.8235050">
        <ele>1181.2</ele>
        <time>2022-01-30T10:22:23Z</time>
      </trkpt>
      <trkpt lat="41.8783600" lon="-2.8234870">
        <ele>1181.2</ele>
        <time>2022-01-30T10:22:24Z</time>
      </trkpt>
      <trkpt lat="41.8783400" lon="-2.8234820">
        <ele>1181.0</ele>
        <time>2022-01-30T10:22:25Z</time>
      </trkpt>
      <trkpt lat="41.8783120" lon="-2.8234850">
        <ele>1181.0</ele>
        <time>2022-01-30T10:22:26Z</time>
      </trkpt>
      <trkpt lat="41.8782820" lon="-2.8234830">
        <ele>1181.0</ele>
        <time>2022-01-30T10:22:27Z</time>
      </trkpt>
      <trkpt lat="41.8782530" lon="-2.8234750">
        <ele>1181.0</ele>
        <time>2022-01-30T10:22:28Z</time>
      </trkpt>
      <trkpt lat="41.8782270" lon="-2.8234580">
        <ele>1180.3</ele>
        <time>2022-01-30T10:22:29Z</time>
      </trkpt>
      <trkpt lat="41.8782070" lon="-2.8234430">
        <ele>1180.3</ele>
        <time>2022-01-30T10:22:30Z</time>
      </trkpt>
      <trkpt lat="41.8781830" lon="-2.8234300">
        <ele>1180.3</ele>
        <time>2022-01-30T10:22:31Z</time>
      </trkpt>
      <trkpt lat="41.8781530" lon="-2.8234180">
        <ele>1180.3</ele>
        <time>2022-01-30T10:22:32Z</time>
      </trkpt>
      <trkpt lat="41.8781250" lon="-2.8234120">
        <ele>1180.4</ele>
        <time>2022-01-30T10:22:33Z</time>
      </trkpt>
      <trkpt lat="41.8780950" lon="-2.8234080">
        <ele>1179.6</ele>
        <time>2022-01-30T10:22:34Z</time>
      </trkpt>
      <trkpt lat="41.8780650" lon="-2.8234120">
        <ele>1179.7</ele>
        <time>2022-01-30T10:22:35Z</time>
      </trkpt>
      <trkpt lat="41.8780350" lon="-2.8234150">
        <ele>1179.7</ele>
        <time>2022-01-30T10:22:36Z</time>
      </trkpt>
      <trkpt lat="41.8780020" lon="-2.8234130">
        <ele>1179.7</ele>
        <time>2022-01-30T10:22:37Z</time>
      </trkpt>
      <trkpt lat="41.8779650" lon="-2.8234120">
        <ele>1179.0</ele>
        <time>2022-01-30T10:22:38Z</time>
      </trkpt>
      <trkpt lat="41.8779380" lon="-2.8234030">
        <ele>1179.0</ele>
        <time>2022-01-30T10:22:39Z</time>
      </trkpt>
      <trkpt lat="41.8779100" lon="-2.8233930">
        <ele>1179.0</ele>
        <time>2022-01-30T10:22:40Z</time>
      </trkpt>
      <trkpt lat="41.8778770" lon="-2.8233820">
        <ele>1179.0</ele>
        <time>2022-01-30T10:22:41Z</time>
      </trkpt>
      <trkpt lat="41.8778430" lon="-2.8233630">
        <ele>1178.3</ele>
        <time>2022-01-30T10:22:42Z</time>
      </trkpt>
      <trkpt lat="41.8778150" lon="-2.8233430">
        <ele>1178.3</ele>
        <time>2022-01-30T10:22:43Z</time>
      </trkpt>
      <trkpt lat="41.8777850" lon="-2.8233200">
        <ele>1178.3</ele>
        <time>2022-01-30T10:22:44Z</time>
      </trkpt>
      <trkpt lat="41.8777530" lon="-2.8232930">
        <ele>1178.3</ele>
        <time>2022-01-30T10:22:45Z</time>
      </trkpt>
      <trkpt lat="41.8777220" lon="-2.8232670">
        <ele>1177.5</ele>
        <time>2022-01-30T10:22:46Z</time>
      </trkpt>
      <trkpt lat="41.8776880" lon="-2.8232430">
        <ele>1177.5</ele>
        <time>2022-01-30T10:22:47Z</time>
      </trkpt>
      <trkpt lat="41.8776570" lon="-2.8232270">
        <ele>1177.5</ele>
        <time>2022-01-30T10:22:48Z</time>
      </trkpt>
      <trkpt lat="41.8776200" lon="-2.8232100">
        <ele>1177.5</ele>
        <time>2022-01-30T10:22:49Z</time>
      </trkpt>
      <trkpt lat="41.8775820" lon="-2.8231930">
        <ele>1176.8</ele>
        <time>2022-01-30T10:22:50Z</time>
      </trkpt>
      <trkpt lat="41.8775470" lon="-2.8231750">
        <ele>1176.8</ele>
        <time>2022-01-30T10:22:51Z</time>
      </trkpt>
      <trkpt lat="41.8775130" lon="-2.8231580">
        <ele>1176.8</ele>
        <time>2022-01-30T10:22:52Z</time>
      </trkpt>
      <trkpt lat="41.8774830" lon="-2.8231470">
        <ele>1176.0</ele>
        <time>2022-01-30T10:22:53Z</time>
      </trkpt>
      <trkpt lat="41.8774580" lon="-2.8231370">
        <ele>1175.9</ele>
        <time>2022-01-30T10:22:54Z</time>
      </trkpt>
      <trkpt lat="41.8774370" lon="-2.8231330">
        <ele>1175.9</ele>
        <time>2022-01-30T10:22:55Z</time>
      </trkpt>
      <trkpt lat="41.8774150" lon="-2.8231270">
        <ele>1175.9</ele>
        <time>2022-01-30T10:22:56Z</time>
      </trkpt>
      <trkpt lat="41.8773920" lon="-2.8231250">
        <ele>1176.0</ele>
        <time>2022-01-30T10:22:57Z</time>
      </trkpt>
      <trkpt lat="41.8773650" lon="-2.8231320">
        <ele>1176.0</ele>
        <time>2022-01-30T10:22:58Z</time>
      </trkpt>
      <trkpt lat="41.8773320" lon="-2.8231420">
        <ele>1175.2</ele>
        <time>2022-01-30T10:22:59Z</time>
      </trkpt>
      <trkpt lat="41.8772980" lon="-2.8231620">
        <ele>1175.2</ele>
        <time>2022-01-30T10:23:00Z</time>
      </trkpt>
      <trkpt lat="41.8772620" lon="-2.8231880">
        <ele>1175.2</ele>
        <time>2022-01-30T10:23:01Z</time>
      </trkpt>
      <trkpt lat="41.8772230" lon="-2.8232120">
        <ele>1174.1</ele>
        <time>2022-01-30T10:23:02Z</time>
      </trkpt>
      <trkpt lat="41.8771850" lon="-2.8232380">
        <ele>1174.1</ele>
        <time>2022-01-30T10:23:03Z</time>
      </trkpt>
      <trkpt lat="41.8771520" lon="-2.8232620">
        <ele>1174.1</ele>
        <time>2022-01-30T10:23:04Z</time>
      </trkpt>
      <trkpt lat="41.8771200" lon="-2.8232820">
        <ele>1174.1</ele>
        <time>2022-01-30T10:23:05Z</time>
      </trkpt>
      <trkpt lat="41.8771200" lon="-2.8232820">
        <ele>1174.1</ele>
        <time>2022-01-30T10:23:06Z</time>
      </trkpt>
      <trkpt lat="41.8770580" lon="-2.8232930">
        <ele>1173.2</ele>
        <time>2022-01-30T10:23:07Z</time>
      </trkpt>
      <trkpt lat="41.8770350" lon="-2.8232880">
        <ele>1173.2</ele>
        <time>2022-01-30T10:23:08Z</time>
      </trkpt>
      <trkpt lat="41.8770170" lon="-2.8232750">
        <ele>1173.2</ele>
        <time>2022-01-30T10:23:09Z</time>
      </trkpt>
      <trkpt lat="41.8769970" lon="-2.8232570">
        <ele>1173.2</ele>
        <time>2022-01-30T10:23:10Z</time>
      </trkpt>
      <trkpt lat="41.8769770" lon="-2.8232330">
        <ele>1173.2</ele>
        <time>2022-01-30T10:23:11Z</time>
      </trkpt>
      <trkpt lat="41.8769600" lon="-2.8232070">
        <ele>1172.2</ele>
        <time>2022-01-30T10:23:12Z</time>
      </trkpt>
      <trkpt lat="41.8769420" lon="-2.8231780">
        <ele>1172.2</ele>
        <time>2022-01-30T10:23:13Z</time>
      </trkpt>
      <trkpt lat="41.8769200" lon="-2.8231480">
        <ele>1172.2</ele>
        <time>2022-01-30T10:23:14Z</time>
      </trkpt>
      <trkpt lat="41.8768950" lon="-2.8231180">
        <ele>1172.6</ele>
        <time>2022-01-30T10:23:15Z</time>
      </trkpt>
      <trkpt lat="41.8768700" lon="-2.8230850">
        <ele>1172.6</ele>
        <time>2022-01-30T10:23:16Z</time>
      </trkpt>
      <trkpt lat="41.8768450" lon="-2.8230500">
        <ele>1171.8</ele>
        <time>2022-01-30T10:23:17Z</time>
      </trkpt>
      <trkpt lat="41.8768200" lon="-2.8230130">
        <ele>1171.8</ele>
        <time>2022-01-30T10:23:18Z</time>
      </trkpt>
      <trkpt lat="41.8767930" lon="-2.8229780">
        <ele>1171.8</ele>
        <time>2022-01-30T10:23:19Z</time>
      </trkpt>
      <trkpt lat="41.8767680" lon="-2.8229480">
        <ele>1172.2</ele>
        <time>2022-01-30T10:23:20Z</time>
      </trkpt>
      <trkpt lat="41.8767420" lon="-2.8229250">
        <ele>1172.2</ele>
        <time>2022-01-30T10:23:21Z</time>
      </trkpt>
      <trkpt lat="41.8767180" lon="-2.8229000">
        <ele>1171.2</ele>
        <time>2022-01-30T10:23:22Z</time>
      </trkpt>
      <trkpt lat="41.8767000" lon="-2.8228680">
        <ele>1171.2</ele>
        <time>2022-01-30T10:23:23Z</time>
      </trkpt>
      <trkpt lat="41.8766780" lon="-2.8228280">
        <ele>1171.2</ele>
        <time>2022-01-30T10:23:24Z</time>
      </trkpt>
      <trkpt lat="41.8766600" lon="-2.8227920">
        <ele>1171.5</ele>
        <time>2022-01-30T10:23:25Z</time>
      </trkpt>
      <trkpt lat="41.8766450" lon="-2.8227580">
        <ele>1171.5</ele>
        <time>2022-01-30T10:23:26Z</time>
      </trkpt>
      <trkpt lat="41.8766330" lon="-2.8227270">
        <ele>1171.5</ele>
        <time>2022-01-30T10:23:27Z</time>
      </trkpt>
      <trkpt lat="41.8766250" lon="-2.8226930">
        <ele>1171.5</ele>
        <time>2022-01-30T10:23:28Z</time>
      </trkpt>
      <trkpt lat="41.8766150" lon="-2.8226570">
        <ele>1171.5</ele>
        <time>2022-01-30T10:23:29Z</time>
      </trkpt>
      <trkpt lat="41.8766020" lon="-2.8226200">
        <ele>1171.6</ele>
        <time>2022-01-30T10:23:30Z</time>
      </trkpt>
      <trkpt lat="41.8765800" lon="-2.8225850">
        <ele>1171.0</ele>
        <time>2022-01-30T10:23:31Z</time>
      </trkpt>
      <trkpt lat="41.8765570" lon="-2.8225550">
        <ele>1171.0</ele>
        <time>2022-01-30T10:23:32Z</time>
      </trkpt>
      <trkpt lat="41.8765350" lon="-2.8225270">
        <ele>1171.0</ele>
        <time>2022-01-30T10:23:33Z</time>
      </trkpt>
      <trkpt lat="41.8765120" lon="-2.8225050">
        <ele>1171.0</ele>
        <time>2022-01-30T10:23:34Z</time>
      </trkpt>
      <trkpt lat="41.8764880" lon="-2.8224820">
        <ele>1171.0</ele>
        <time>2022-01-30T10:23:35Z</time>
      </trkpt>
      <trkpt lat="41.8764700" lon="-2.8224580">
        <ele>1171.0</ele>
        <time>2022-01-30T10:23:36Z</time>
      </trkpt>
      <trkpt lat="41.8764520" lon="-2.8224330">
        <ele>1170.7</ele>
        <time>2022-01-30T10:23:37Z</time>
      </trkpt>
      <trkpt lat="41.8764330" lon="-2.8224120">
        <ele>1170.7</ele>
        <time>2022-01-30T10:23:38Z</time>
      </trkpt>
      <trkpt lat="41.8764130" lon="-2.8223880">
        <ele>1170.7</ele>
        <time>2022-01-30T10:23:39Z</time>
      </trkpt>
      <trkpt lat="41.8763970" lon="-2.8223720">
        <ele>1170.7</ele>
        <time>2022-01-30T10:23:40Z</time>
      </trkpt>
      <trkpt lat="41.8763800" lon="-2.8223550">
        <ele>1170.7</ele>
        <time>2022-01-30T10:23:41Z</time>
      </trkpt>
      <trkpt lat="41.8763650" lon="-2.8223350">
        <ele>1170.7</ele>
        <time>2022-01-30T10:23:42Z</time>
      </trkpt>
      <trkpt lat="41.8763500" lon="-2.8223100">
        <ele>1170.8</ele>
        <time>2022-01-30T10:23:43Z</time>
      </trkpt>
      <trkpt lat="41.8763350" lon="-2.8222850">
        <ele>1170.2</ele>
        <time>2022-01-30T10:23:44Z</time>
      </trkpt>
      <trkpt lat="41.8763180" lon="-2.8222580">
        <ele>1170.4</ele>
        <time>2022-01-30T10:23:45Z</time>
      </trkpt>
      <trkpt lat="41.8763070" lon="-2.8222330">
        <ele>1170.4</ele>
        <time>2022-01-30T10:23:46Z</time>
      </trkpt>
      <trkpt lat="41.8762980" lon="-2.8222030">
        <ele>1170.4</ele>
        <time>2022-01-30T10:23:47Z</time>
      </trkpt>
      <trkpt lat="41.8762950" lon="-2.8221770">
        <ele>1170.4</ele>
        <time>2022-01-30T10:23:48Z</time>
      </trkpt>
      <trkpt lat="41.8762920" lon="-2.8221450">
        <ele>1170.4</ele>
        <time>2022-01-30T10:23:49Z</time>
      </trkpt>
      <trkpt lat="41.8762920" lon="-2.8221120">
        <ele>1170.5</ele>
        <time>2022-01-30T10:23:50Z</time>
      </trkpt>
      <trkpt lat="41.8762950" lon="-2.8220800">
        <ele>1170.5</ele>
        <time>2022-01-30T10:23:51Z</time>
      </trkpt>
      <trkpt lat="41.8762980" lon="-2.8220480">
        <ele>1170.5</ele>
        <time>2022-01-30T10:23:52Z</time>
      </trkpt>
      <trkpt lat="41.8763020" lon="-2.8220170">
        <ele>1170.5</ele>
        <time>2022-01-30T10:23:53Z</time>
      </trkpt>
      <trkpt lat="41.8763070" lon="-2.8219820">
        <ele>1170.5</ele>
        <time>2022-01-30T10:23:54Z</time>
      </trkpt>
      <trkpt lat="41.8763150" lon="-2.8219470">
        <ele>1170.5</ele>
        <time>2022-01-30T10:23:55Z</time>
      </trkpt>
      <trkpt lat="41.8763250" lon="-2.8219100">
        <ele>1170.6</ele>
        <time>2022-01-30T10:23:56Z</time>
      </trkpt>
      <trkpt lat="41.8763330" lon="-2.8218730">
        <ele>1170.6</ele>
        <time>2022-01-30T10:23:57Z</time>
      </trkpt>
      <trkpt lat="41.8763420" lon="-2.8218350">
        <ele>1170.9</ele>
        <time>2022-01-30T10:23:58Z</time>
      </trkpt>
      <trkpt lat="41.8763480" lon="-2.8217970">
        <ele>1170.9</ele>
        <time>2022-01-30T10:23:59Z</time>
      </trkpt>
      <trkpt lat="41.8763570" lon="-2.8217580">
        <ele>1170.9</ele>
        <time>2022-01-30T10:24:00Z</time>
      </trkpt>
      <trkpt lat="41.8763650" lon="-2.8217220">
        <ele>1170.9</ele>
        <time>2022-01-30T10:24:01Z</time>
      </trkpt>
      <trkpt lat="41.8763750" lon="-2.8216870">
        <ele>1171.0</ele>
        <time>2022-01-30T10:24:02Z</time>
      </trkpt>
      <trkpt lat="41.8763820" lon="-2.8216480">
        <ele>1171.0</ele>
        <time>2022-01-30T10:24:03Z</time>
      </trkpt>
      <trkpt lat="41.8763880" lon="-2.8216120">
        <ele>1171.0</ele>
        <time>2022-01-30T10:24:04Z</time>
      </trkpt>
      <trkpt lat="41.8763950" lon="-2.8215750">
        <ele>1171.0</ele>
        <time>2022-01-30T10:24:05Z</time>
      </trkpt>
      <trkpt lat="41.8764000" lon="-2.8215450">
        <ele>1171.0</ele>
        <time>2022-01-30T10:24:06Z</time>
      </trkpt>
      <trkpt lat="41.8764030" lon="-2.8215120">
        <ele>1171.0</ele>
        <time>2022-01-30T10:24:07Z</time>
      </trkpt>
      <trkpt lat="41.8764050" lon="-2.8214750">
        <ele>1171.1</ele>
        <time>2022-01-30T10:24:08Z</time>
      </trkpt>
      <trkpt lat="41.8764050" lon="-2.8214370">
        <ele>1171.1</ele>
        <time>2022-01-30T10:24:09Z</time>
      </trkpt>
      <trkpt lat="41.8764050" lon="-2.8213950">
        <ele>1171.2</ele>
        <time>2022-01-30T10:24:10Z</time>
      </trkpt>
      <trkpt lat="41.8764070" lon="-2.8213550">
        <ele>1171.2</ele>
        <time>2022-01-30T10:24:11Z</time>
      </trkpt>
      <trkpt lat="41.8764130" lon="-2.8213180">
        <ele>1171.2</ele>
        <time>2022-01-30T10:24:12Z</time>
      </trkpt>
      <trkpt lat="41.8764220" lon="-2.8212800">
        <ele>1171.2</ele>
        <time>2022-01-30T10:24:13Z</time>
      </trkpt>
      <trkpt lat="41.8764320" lon="-2.8212420">
        <ele>1171.3</ele>
        <time>2022-01-30T10:24:14Z</time>
      </trkpt>
      <trkpt lat="41.8764450" lon="-2.8212120">
        <ele>1171.3</ele>
        <time>2022-01-30T10:24:15Z</time>
      </trkpt>
      <trkpt lat="41.8764580" lon="-2.8211820">
        <ele>1171.3</ele>
        <time>2022-01-30T10:24:16Z</time>
      </trkpt>
      <trkpt lat="41.8764720" lon="-2.8211530">
        <ele>1171.7</ele>
        <time>2022-01-30T10:24:17Z</time>
      </trkpt>
      <trkpt lat="41.8764830" lon="-2.8211220">
        <ele>1171.7</ele>
        <time>2022-01-30T10:24:18Z</time>
      </trkpt>
      <trkpt lat="41.8764970" lon="-2.8210870">
        <ele>1171.7</ele>
        <time>2022-01-30T10:24:19Z</time>
      </trkpt>
      <trkpt lat="41.8765080" lon="-2.8210520">
        <ele>1171.9</ele>
        <time>2022-01-30T10:24:20Z</time>
      </trkpt>
      <trkpt lat="41.8765250" lon="-2.8210200">
        <ele>1171.9</ele>
        <time>2022-01-30T10:24:21Z</time>
      </trkpt>
      <trkpt lat="41.8765470" lon="-2.8209920">
        <ele>1171.9</ele>
        <time>2022-01-30T10:24:22Z</time>
      </trkpt>
      <trkpt lat="41.8765670" lon="-2.8209670">
        <ele>1171.9</ele>
        <time>2022-01-30T10:24:23Z</time>
      </trkpt>
      <trkpt lat="41.8765880" lon="-2.8209420">
        <ele>1171.9</ele>
        <time>2022-01-30T10:24:24Z</time>
      </trkpt>
      <trkpt lat="41.8766150" lon="-2.8209200">
        <ele>1172.3</ele>
        <time>2022-01-30T10:24:25Z</time>
      </trkpt>
      <trkpt lat="41.8766430" lon="-2.8208980">
        <ele>1172.4</ele>
        <time>2022-01-30T10:24:26Z</time>
      </trkpt>
      <trkpt lat="41.8766730" lon="-2.8208770">
        <ele>1172.4</ele>
        <time>2022-01-30T10:24:27Z</time>
      </trkpt>
      <trkpt lat="41.8767000" lon="-2.8208520">
        <ele>1172.4</ele>
        <time>2022-01-30T10:24:28Z</time>
      </trkpt>
      <trkpt lat="41.8767270" lon="-2.8208270">
        <ele>1172.8</ele>
        <time>2022-01-30T10:24:29Z</time>
      </trkpt>
      <trkpt lat="41.8767500" lon="-2.8207980">
        <ele>1172.8</ele>
        <time>2022-01-30T10:24:30Z</time>
      </trkpt>
      <trkpt lat="41.8767800" lon="-2.8207750">
        <ele>1172.8</ele>
        <time>2022-01-30T10:24:31Z</time>
      </trkpt>
      <trkpt lat="41.8768000" lon="-2.8207500">
        <ele>1172.8</ele>
        <time>2022-01-30T10:24:32Z</time>
      </trkpt>
      <trkpt lat="41.8768150" lon="-2.8207250">
        <ele>1172.7</ele>
        <time>2022-01-30T10:24:33Z</time>
      </trkpt>
      <trkpt lat="41.8768200" lon="-2.8207030">
        <ele>1172.6</ele>
        <time>2022-01-30T10:24:34Z</time>
      </trkpt>
      <trkpt lat="41.8768180" lon="-2.8206920">
        <ele>1172.6</ele>
        <time>2022-01-30T10:24:35Z</time>
      </trkpt>
      <trkpt lat="41.8768100" lon="-2.8206780">
        <ele>1172.5</ele>
        <time>2022-01-30T10:24:36Z</time>
      </trkpt>
      <trkpt lat="41.8767980" lon="-2.8206720">
        <ele>1172.4</ele>
        <time>2022-01-30T10:24:37Z</time>
      </trkpt>
      <trkpt lat="41.8767780" lon="-2.8206620">
        <ele>1172.3</ele>
        <time>2022-01-30T10:24:38Z</time>
      </trkpt>
      <trkpt lat="41.8767570" lon="-2.8206600">
        <ele>1172.2</ele>
        <time>2022-01-30T10:24:39Z</time>
      </trkpt>
      <trkpt lat="41.8767300" lon="-2.8206520">
        <ele>1172.1</ele>
        <time>2022-01-30T10:24:40Z</time>
      </trkpt>
      <trkpt lat="41.8767000" lon="-2.8206470">
        <ele>1171.9</ele>
        <time>2022-01-30T10:24:41Z</time>
      </trkpt>
      <trkpt lat="41.8766650" lon="-2.8206420">
        <ele>1171.8</ele>
        <time>2022-01-30T10:24:42Z</time>
      </trkpt>
      <trkpt lat="41.8766270" lon="-2.8206370">
        <ele>1171.6</ele>
        <time>2022-01-30T10:24:43Z</time>
      </trkpt>
      <trkpt lat="41.8765880" lon="-2.8206370">
        <ele>1171.5</ele>
        <time>2022-01-30T10:24:44Z</time>
      </trkpt>
      <trkpt lat="41.8765470" lon="-2.8206400">
        <ele>1171.3</ele>
        <time>2022-01-30T10:24:45Z</time>
      </trkpt>
      <trkpt lat="41.8765050" lon="-2.8206500">
        <ele>1171.2</ele>
        <time>2022-01-30T10:24:46Z</time>
      </trkpt>
      <trkpt lat="41.8764630" lon="-2.8206680">
        <ele>1171.0</ele>
        <time>2022-01-30T10:24:47Z</time>
      </trkpt>
      <trkpt lat="41.8764270" lon="-2.8206880">
        <ele>1170.9</ele>
        <time>2022-01-30T10:24:48Z</time>
      </trkpt>
      <trkpt lat="41.8763730" lon="-2.8207130">
        <ele>1170.7</ele>
        <time>2022-01-30T10:24:49Z</time>
      </trkpt>
      <trkpt lat="41.8763230" lon="-2.8207280">
        <ele>1170.5</ele>
        <time>2022-01-30T10:24:50Z</time>
      </trkpt>
      <trkpt lat="41.8762700" lon="-2.8207370">
        <ele>1170.3</ele>
        <time>2022-01-30T10:24:51Z</time>
      </trkpt>
      <trkpt lat="41.8762200" lon="-2.8207330">
        <ele>1170.1</ele>
        <time>2022-01-30T10:24:52Z</time>
      </trkpt>
      <trkpt lat="41.8761720" lon="-2.8207180">
        <ele>1169.9</ele>
        <time>2022-01-30T10:24:53Z</time>
      </trkpt>
      <trkpt lat="41.8761230" lon="-2.8206930">
        <ele>1169.7</ele>
        <time>2022-01-30T10:24:54Z</time>
      </trkpt>
      <trkpt lat="41.8760770" lon="-2.8206620">
        <ele>1169.5</ele>
        <time>2022-01-30T10:24:55Z</time>
      </trkpt>
      <trkpt lat="41.8760320" lon="-2.8206280">
        <ele>1169.2</ele>
        <time>2022-01-30T10:24:56Z</time>
      </trkpt>
      <trkpt lat="41.8759900" lon="-2.8205970">
        <ele>1169.0</ele>
        <time>2022-01-30T10:24:57Z</time>
      </trkpt>
      <trkpt lat="41.8759450" lon="-2.8205650">
        <ele>1168.8</ele>
        <time>2022-01-30T10:24:58Z</time>
      </trkpt>
      <trkpt lat="41.8758980" lon="-2.8205370">
        <ele>1168.5</ele>
        <time>2022-01-30T10:24:59Z</time>
      </trkpt>
      <trkpt lat="41.8758500" lon="-2.8205080">
        <ele>1168.3</ele>
        <time>2022-01-30T10:25:00Z</time>
      </trkpt>
      <trkpt lat="41.8758020" lon="-2.8204780">
        <ele>1168.1</ele>
        <time>2022-01-30T10:25:01Z</time>
      </trkpt>
      <trkpt lat="41.8757550" lon="-2.8204470">
        <ele>1168.0</ele>
        <time>2022-01-30T10:25:02Z</time>
      </trkpt>
      <trkpt lat="41.8757050" lon="-2.8204170">
        <ele>1167.8</ele>
        <time>2022-01-30T10:25:03Z</time>
      </trkpt>
      <trkpt lat="41.8756520" lon="-2.8203970">
        <ele>1167.7</ele>
        <time>2022-01-30T10:25:04Z</time>
      </trkpt>
      <trkpt lat="41.8755980" lon="-2.8203800">
        <ele>1167.6</ele>
        <time>2022-01-30T10:25:05Z</time>
      </trkpt>
      <trkpt lat="41.8755430" lon="-2.8203720">
        <ele>1167.5</ele>
        <time>2022-01-30T10:25:06Z</time>
      </trkpt>
      <trkpt lat="41.8754980" lon="-2.8203680">
        <ele>1167.3</ele>
        <time>2022-01-30T10:25:07Z</time>
      </trkpt>
      <trkpt lat="41.8754330" lon="-2.8203680">
        <ele>1167.0</ele>
        <time>2022-01-30T10:25:08Z</time>
      </trkpt>
      <trkpt lat="41.8753780" lon="-2.8203680">
        <ele>1166.7</ele>
        <time>2022-01-30T10:25:09Z</time>
      </trkpt>
      <trkpt lat="41.8753230" lon="-2.8203680">
        <ele>1166.3</ele>
        <time>2022-01-30T10:25:10Z</time>
      </trkpt>
      <trkpt lat="41.8752780" lon="-2.8203700">
        <ele>1166.0</ele>
        <time>2022-01-30T10:25:11Z</time>
      </trkpt>
      <trkpt lat="41.8752080" lon="-2.8203770">
        <ele>1165.5</ele>
        <time>2022-01-30T10:25:12Z</time>
      </trkpt>
      <trkpt lat="41.8751470" lon="-2.8203870">
        <ele>1165.0</ele>
        <time>2022-01-30T10:25:13Z</time>
      </trkpt>
      <trkpt lat="41.8750830" lon="-2.8203970">
        <ele>1164.5</ele>
        <time>2022-01-30T10:25:14Z</time>
      </trkpt>
      <trkpt lat="41.8750180" lon="-2.8204080">
        <ele>1164.0</ele>
        <time>2022-01-30T10:25:15Z</time>
      </trkpt>
      <trkpt lat="41.8749480" lon="-2.8204220">
        <ele>1163.6</ele>
        <time>2022-01-30T10:25:16Z</time>
      </trkpt>
      <trkpt lat="41.8748800" lon="-2.8204370">
        <ele>1163.3</ele>
        <time>2022-01-30T10:25:17Z</time>
      </trkpt>
      <trkpt lat="41.8748130" lon="-2.8204530">
        <ele>1163.0</ele>
        <time>2022-01-30T10:25:18Z</time>
      </trkpt>
      <trkpt lat="41.8747430" lon="-2.8204680">
        <ele>1162.8</ele>
        <time>2022-01-30T10:25:19Z</time>
      </trkpt>
      <trkpt lat="41.8746730" lon="-2.8204750">
        <ele>1162.6</ele>
        <time>2022-01-30T10:25:20Z</time>
      </trkpt>
      <trkpt lat="41.8746050" lon="-2.8204700">
        <ele>1162.4</ele>
        <time>2022-01-30T10:25:21Z</time>
      </trkpt>
      <trkpt lat="41.8745380" lon="-2.8204520">
        <ele>1162.3</ele>
        <time>2022-01-30T10:25:22Z</time>
      </trkpt>
      <trkpt lat="41.8744730" lon="-2.8204230">
        <ele>1162.2</ele>
        <time>2022-01-30T10:25:23Z</time>
      </trkpt>
      <trkpt lat="41.8744080" lon="-2.8203900">
        <ele>1162.1</ele>
        <time>2022-01-30T10:25:24Z</time>
      </trkpt>
      <trkpt lat="41.8743480" lon="-2.8203550">
        <ele>1162.0</ele>
        <time>2022-01-30T10:25:25Z</time>
      </trkpt>
      <trkpt lat="41.8742900" lon="-2.8203170">
        <ele>1162.0</ele>
        <time>2022-01-30T10:25:26Z</time>
      </trkpt>
      <trkpt lat="41.8742320" lon="-2.8202870">
        <ele>1162.0</ele>
        <time>2022-01-30T10:25:27Z</time>
      </trkpt>
      <trkpt lat="41.8741770" lon="-2.8202620">
        <ele>1162.0</ele>
        <time>2022-01-30T10:25:28Z</time>
      </trkpt>
      <trkpt lat="41.8741200" lon="-2.8202430">
        <ele>1161.9</ele>
        <time>2022-01-30T10:25:29Z</time>
      </trkpt>
      <trkpt lat="41.8740650" lon="-2.8202280">
        <ele>1161.8</ele>
        <time>2022-01-30T10:25:30Z</time>
      </trkpt>
      <trkpt lat="41.8740200" lon="-2.8202170">
        <ele>1161.7</ele>
        <time>2022-01-30T10:25:31Z</time>
      </trkpt>
      <trkpt lat="41.8739520" lon="-2.8202020">
        <ele>1161.5</ele>
        <time>2022-01-30T10:25:32Z</time>
      </trkpt>
      <trkpt lat="41.8738920" lon="-2.8201930">
        <ele>1161.4</ele>
        <time>2022-01-30T10:25:33Z</time>
      </trkpt>
      <trkpt lat="41.8738300" lon="-2.8201900">
        <ele>1161.4</ele>
        <time>2022-01-30T10:25:34Z</time>
      </trkpt>
      <trkpt lat="41.8737700" lon="-2.8201880">
        <ele>1161.4</ele>
        <time>2022-01-30T10:25:35Z</time>
      </trkpt>
      <trkpt lat="41.8737100" lon="-2.8201920">
        <ele>1161.5</ele>
        <time>2022-01-30T10:25:36Z</time>
      </trkpt>
      <trkpt lat="41.8736530" lon="-2.8201950">
        <ele>1161.5</ele>
        <time>2022-01-30T10:25:37Z</time>
      </trkpt>
      <trkpt lat="41.8735970" lon="-2.8201980">
        <ele>1161.6</ele>
        <time>2022-01-30T10:25:38Z</time>
      </trkpt>
      <trkpt lat="41.8735430" lon="-2.8201980">
        <ele>1161.6</ele>
        <time>2022-01-30T10:25:39Z</time>
      </trkpt>
      <trkpt lat="41.8734900" lon="-2.8201980">
        <ele>1161.5</ele>
        <time>2022-01-30T10:25:40Z</time>
      </trkpt>
      <trkpt lat="41.8734400" lon="-2.8201950">
        <ele>1161.4</ele>
        <time>2022-01-30T10:25:41Z</time>
      </trkpt>
      <trkpt lat="41.8733920" lon="-2.8201930">
        <ele>1161.3</ele>
        <time>2022-01-30T10:25:42Z</time>
      </trkpt>
      <trkpt lat="41.8733450" lon="-2.8201920">
        <ele>1161.2</ele>
        <time>2022-01-30T10:25:43Z</time>
      </trkpt>
      <trkpt lat="41.8733000" lon="-2.8201930">
        <ele>1161.1</ele>
        <time>2022-01-30T10:25:44Z</time>
      </trkpt>
      <trkpt lat="41.8732570" lon="-2.8201930">
        <ele>1161.1</ele>
        <time>2022-01-30T10:25:45Z</time>
      </trkpt>
      <trkpt lat="41.8732170" lon="-2.8201970">
        <ele>1161.0</ele>
        <time>2022-01-30T10:25:46Z</time>
      </trkpt>
      <trkpt lat="41.8731800" lon="-2.8201980">
        <ele>1160.8</ele>
        <time>2022-01-30T10:25:47Z</time>
      </trkpt>
      <trkpt lat="41.8731450" lon="-2.8201900">
        <ele>1160.7</ele>
        <time>2022-01-30T10:25:48Z</time>
      </trkpt>
      <trkpt lat="41.8731080" lon="-2.8201820">
        <ele>1160.5</ele>
        <time>2022-01-30T10:25:49Z</time>
      </trkpt>
      <trkpt lat="41.8730700" lon="-2.8201780">
        <ele>1160.2</ele>
        <time>2022-01-30T10:25:50Z</time>
      </trkpt>
      <trkpt lat="41.8730320" lon="-2.8201730">
        <ele>1159.9</ele>
        <time>2022-01-30T10:25:51Z</time>
      </trkpt>
      <trkpt lat="41.8729950" lon="-2.8201700">
        <ele>1159.7</ele>
        <time>2022-01-30T10:25:52Z</time>
      </trkpt>
      <trkpt lat="41.8729600" lon="-2.8201670">
        <ele>1159.5</ele>
        <time>2022-01-30T10:25:53Z</time>
      </trkpt>
      <trkpt lat="41.8729230" lon="-2.8201580">
        <ele>1159.3</ele>
        <time>2022-01-30T10:25:54Z</time>
      </trkpt>
      <trkpt lat="41.8728850" lon="-2.8201530">
        <ele>1159.1</ele>
        <time>2022-01-30T10:25:55Z</time>
      </trkpt>
      <trkpt lat="41.8728450" lon="-2.8201520">
        <ele>1158.9</ele>
        <time>2022-01-30T10:25:56Z</time>
      </trkpt>
      <trkpt lat="41.8728050" lon="-2.8201520">
        <ele>1158.6</ele>
        <time>2022-01-30T10:25:57Z</time>
      </trkpt>
      <trkpt lat="41.8727630" lon="-2.8201530">
        <ele>1158.3</ele>
        <time>2022-01-30T10:25:58Z</time>
      </trkpt>
      <trkpt lat="41.8727180" lon="-2.8201550">
        <ele>1158.0</ele>
        <time>2022-01-30T10:25:59Z</time>
      </trkpt>
      <trkpt lat="41.8726730" lon="-2.8201500">
        <ele>1157.7</ele>
        <time>2022-01-30T10:26:00Z</time>
      </trkpt>
      <trkpt lat="41.8726230" lon="-2.8201400">
        <ele>1157.3</ele>
        <time>2022-01-30T10:26:01Z</time>
      </trkpt>
      <trkpt lat="41.8725700" lon="-2.8201200">
        <ele>1156.9</ele>
        <time>2022-01-30T10:26:02Z</time>
      </trkpt>
      <trkpt lat="41.8725230" lon="-2.8201000">
        <ele>1156.6</ele>
        <time>2022-01-30T10:26:03Z</time>
      </trkpt>
      <trkpt lat="41.8724780" lon="-2.8200780">
        <ele>1156.3</ele>
        <time>2022-01-30T10:26:04Z</time>
      </trkpt>
      <trkpt lat="41.8724370" lon="-2.8200550">
        <ele>1156.0</ele>
        <time>2022-01-30T10:26:05Z</time>
      </trkpt>
      <trkpt lat="41.8723970" lon="-2.8200320">
        <ele>1155.8</ele>
        <time>2022-01-30T10:26:06Z</time>
      </trkpt>
      <trkpt lat="41.8723620" lon="-2.8200050">
        <ele>1155.6</ele>
        <time>2022-01-30T10:26:07Z</time>
      </trkpt>
      <trkpt lat="41.8723320" lon="-2.8199720">
        <ele>1155.4</ele>
        <time>2022-01-30T10:26:08Z</time>
      </trkpt>
      <trkpt lat="41.8722950" lon="-2.8199380">
        <ele>1155.1</ele>
        <time>2022-01-30T10:26:09Z</time>
      </trkpt>
      <trkpt lat="41.8722630" lon="-2.8199050">
        <ele>1154.9</ele>
        <time>2022-01-30T10:26:10Z</time>
      </trkpt>
      <trkpt lat="41.8722170" lon="-2.8198800">
        <ele>1154.7</ele>
        <time>2022-01-30T10:26:11Z</time>
      </trkpt>
      <trkpt lat="41.8721720" lon="-2.8198580">
        <ele>1154.4</ele>
        <time>2022-01-30T10:26:12Z</time>
      </trkpt>
      <trkpt lat="41.8721180" lon="-2.8198420">
        <ele>1154.2</ele>
        <time>2022-01-30T10:26:13Z</time>
      </trkpt>
      <trkpt lat="41.8720680" lon="-2.8198430">
        <ele>1153.9</ele>
        <time>2022-01-30T10:26:14Z</time>
      </trkpt>
      <trkpt lat="41.8720150" lon="-2.8198370">
        <ele>1153.7</ele>
        <time>2022-01-30T10:26:15Z</time>
      </trkpt>
      <trkpt lat="41.8719580" lon="-2.8198220">
        <ele>1153.6</ele>
        <time>2022-01-30T10:26:16Z</time>
      </trkpt>
      <trkpt lat="41.8719050" lon="-2.8197930">
        <ele>1153.4</ele>
        <time>2022-01-30T10:26:17Z</time>
      </trkpt>
      <trkpt lat="41.8718520" lon="-2.8197550">
        <ele>1153.3</ele>
        <time>2022-01-30T10:26:18Z</time>
      </trkpt>
      <trkpt lat="41.8718130" lon="-2.8197230">
        <ele>1153.1</ele>
        <time>2022-01-30T10:26:19Z</time>
      </trkpt>
      <trkpt lat="41.8717530" lon="-2.8196720">
        <ele>1152.9</ele>
        <time>2022-01-30T10:26:20Z</time>
      </trkpt>
      <trkpt lat="41.8717070" lon="-2.8196270">
        <ele>1152.8</ele>
        <time>2022-01-30T10:26:21Z</time>
      </trkpt>
      <trkpt lat="41.8716620" lon="-2.8195800">
        <ele>1152.7</ele>
        <time>2022-01-30T10:26:22Z</time>
      </trkpt>
      <trkpt lat="41.8716150" lon="-2.8195320">
        <ele>1152.6</ele>
        <time>2022-01-30T10:26:23Z</time>
      </trkpt>
      <trkpt lat="41.8715780" lon="-2.8194930">
        <ele>1152.6</ele>
        <time>2022-01-30T10:26:24Z</time>
      </trkpt>
      <trkpt lat="41.8715270" lon="-2.8194300">
        <ele>1152.5</ele>
        <time>2022-01-30T10:26:25Z</time>
      </trkpt>
      <trkpt lat="41.8714920" lon="-2.8193670">
        <ele>1152.4</ele>
        <time>2022-01-30T10:26:26Z</time>
      </trkpt>
      <trkpt lat="41.8714680" lon="-2.8192970">
        <ele>1152.4</ele>
        <time>2022-01-30T10:26:27Z</time>
      </trkpt>
      <trkpt lat="41.8714530" lon="-2.8192220">
        <ele>1152.3</ele>
        <time>2022-01-30T10:26:28Z</time>
      </trkpt>
      <trkpt lat="41.8714430" lon="-2.8191580">
        <ele>1152.3</ele>
        <time>2022-01-30T10:26:29Z</time>
      </trkpt>
      <trkpt lat="41.8714300" lon="-2.8190780">
        <ele>1152.2</ele>
        <time>2022-01-30T10:26:30Z</time>
      </trkpt>
      <trkpt lat="41.8714100" lon="-2.8189830">
        <ele>1152.2</ele>
        <time>2022-01-30T10:26:31Z</time>
      </trkpt>
      <trkpt lat="41.8713920" lon="-2.8189070">
        <ele>1152.1</ele>
        <time>2022-01-30T10:26:32Z</time>
      </trkpt>
      <trkpt lat="41.8713750" lon="-2.8188480">
        <ele>1152.0</ele>
        <time>2022-01-30T10:26:33Z</time>
      </trkpt>
      <trkpt lat="41.8713530" lon="-2.8187770">
        <ele>1151.9</ele>
        <time>2022-01-30T10:26:34Z</time>
      </trkpt>
      <trkpt lat="41.8713350" lon="-2.8187030">
        <ele>1151.9</ele>
        <time>2022-01-30T10:26:35Z</time>
      </trkpt>
      <trkpt lat="41.8713150" lon="-2.8186300">
        <ele>1151.8</ele>
        <time>2022-01-30T10:26:36Z</time>
      </trkpt>
      <trkpt lat="41.8712870" lon="-2.8185530">
        <ele>1151.8</ele>
        <time>2022-01-30T10:26:37Z</time>
      </trkpt>
      <trkpt lat="41.8712570" lon="-2.8184980">
        <ele>1151.7</ele>
        <time>2022-01-30T10:26:38Z</time>
      </trkpt>
      <trkpt lat="41.8712270" lon="-2.8184620">
        <ele>1151.7</ele>
        <time>2022-01-30T10:26:39Z</time>
      </trkpt>
      <trkpt lat="41.8711920" lon="-2.8184250">
        <ele>1151.6</ele>
        <time>2022-01-30T10:26:40Z</time>
      </trkpt>
      <trkpt lat="41.8711520" lon="-2.8183900">
        <ele>1151.6</ele>
        <time>2022-01-30T10:26:41Z</time>
      </trkpt>
      <trkpt lat="41.8711070" lon="-2.8183520">
        <ele>1151.5</ele>
        <time>2022-01-30T10:26:42Z</time>
      </trkpt>
      <trkpt lat="41.8710720" lon="-2.8183180">
        <ele>1151.4</ele>
        <time>2022-01-30T10:26:43Z</time>
      </trkpt>
      <trkpt lat="41.8710500" lon="-2.8182880">
        <ele>1151.3</ele>
        <time>2022-01-30T10:26:44Z</time>
      </trkpt>
      <trkpt lat="41.8710270" lon="-2.8182480">
        <ele>1151.3</ele>
        <time>2022-01-30T10:26:45Z</time>
      </trkpt>
      <trkpt lat="41.8710150" lon="-2.8182070">
        <ele>1151.2</ele>
        <time>2022-01-30T10:26:46Z</time>
      </trkpt>
      <trkpt lat="41.8710050" lon="-2.8181550">
        <ele>1151.1</ele>
        <time>2022-01-30T10:26:47Z</time>
      </trkpt>
      <trkpt lat="41.8710000" lon="-2.8181180">
        <ele>1151.1</ele>
        <time>2022-01-30T10:26:48Z</time>
      </trkpt>
      <trkpt lat="41.8709950" lon="-2.8180750">
        <ele>1151.0</ele>
        <time>2022-01-30T10:26:49Z</time>
      </trkpt>
      <trkpt lat="41.8710030" lon="-2.8180280">
        <ele>1150.2</ele>
        <time>2022-01-30T10:26:50Z</time>
      </trkpt>
      <trkpt lat="41.8710200" lon="-2.8180020">
        <ele>1150.1</ele>
        <time>2022-01-30T10:26:51Z</time>
      </trkpt>
      <trkpt lat="41.8710430" lon="-2.8179880">
        <ele>1150.0</ele>
        <time>2022-01-30T10:26:52Z</time>
      </trkpt>
      <trkpt lat="41.8710680" lon="-2.8179870">
        <ele>1149.9</ele>
        <time>2022-01-30T10:26:53Z</time>
      </trkpt>
      <trkpt lat="41.8710930" lon="-2.8179950">
        <ele>1149.8</ele>
        <time>2022-01-30T10:26:54Z</time>
      </trkpt>
      <trkpt lat="41.8711230" lon="-2.8180020">
        <ele>1149.7</ele>
        <time>2022-01-30T10:26:55Z</time>
      </trkpt>
      <trkpt lat="41.8711550" lon="-2.8180050">
        <ele>1149.5</ele>
        <time>2022-01-30T10:26:56Z</time>
      </trkpt>
      <trkpt lat="41.8711830" lon="-2.8180030">
        <ele>1149.4</ele>
        <time>2022-01-30T10:26:57Z</time>
      </trkpt>
      <trkpt lat="41.8712080" lon="-2.8180000">
        <ele>1149.3</ele>
        <time>2022-01-30T10:26:58Z</time>
      </trkpt>
      <trkpt lat="41.8712350" lon="-2.8179880">
        <ele>1149.1</ele>
        <time>2022-01-30T10:26:59Z</time>
      </trkpt>
      <trkpt lat="41.8712650" lon="-2.8179820">
        <ele>1149.0</ele>
        <time>2022-01-30T10:27:00Z</time>
      </trkpt>
      <trkpt lat="41.8713020" lon="-2.8179730">
        <ele>1148.8</ele>
        <time>2022-01-30T10:27:01Z</time>
      </trkpt>
      <trkpt lat="41.8713350" lon="-2.8179600">
        <ele>1148.6</ele>
        <time>2022-01-30T10:27:02Z</time>
      </trkpt>
      <trkpt lat="41.8713630" lon="-2.8179450">
        <ele>1148.4</ele>
        <time>2022-01-30T10:27:03Z</time>
      </trkpt>
      <trkpt lat="41.8713980" lon="-2.8179230">
        <ele>1148.2</ele>
        <time>2022-01-30T10:27:04Z</time>
      </trkpt>
      <trkpt lat="41.8714350" lon="-2.8179020">
        <ele>1148.0</ele>
        <time>2022-01-30T10:27:05Z</time>
      </trkpt>
      <trkpt lat="41.8714820" lon="-2.8178820">
        <ele>1147.8</ele>
        <time>2022-01-30T10:27:06Z</time>
      </trkpt>
      <trkpt lat="41.8715250" lon="-2.8178680">
        <ele>1147.6</ele>
        <time>2022-01-30T10:27:07Z</time>
      </trkpt>
      <trkpt lat="41.8715630" lon="-2.8178600">
        <ele>1147.5</ele>
        <time>2022-01-30T10:27:08Z</time>
      </trkpt>
      <trkpt lat="41.8716120" lon="-2.8178530">
        <ele>1147.4</ele>
        <time>2022-01-30T10:27:09Z</time>
      </trkpt>
      <trkpt lat="41.8716630" lon="-2.8178420">
        <ele>1147.2</ele>
        <time>2022-01-30T10:27:10Z</time>
      </trkpt>
      <trkpt lat="41.8717180" lon="-2.8178300">
        <ele>1147.0</ele>
        <time>2022-01-30T10:27:11Z</time>
      </trkpt>
      <trkpt lat="41.8717750" lon="-2.8178180">
        <ele>1146.8</ele>
        <time>2022-01-30T10:27:12Z</time>
      </trkpt>
      <trkpt lat="41.8718320" lon="-2.8178120">
        <ele>1146.6</ele>
        <time>2022-01-30T10:27:13Z</time>
      </trkpt>
      <trkpt lat="41.8718880" lon="-2.8178030">
        <ele>1146.5</ele>
        <time>2022-01-30T10:27:14Z</time>
      </trkpt>
      <trkpt lat="41.8719480" lon="-2.8177970">
        <ele>1146.3</ele>
        <time>2022-01-30T10:27:15Z</time>
      </trkpt>
      <trkpt lat="41.8720050" lon="-2.8177870">
        <ele>1146.2</ele>
        <time>2022-01-30T10:27:16Z</time>
      </trkpt>
      <trkpt lat="41.8720580" lon="-2.8177720">
        <ele>1146.1</ele>
        <time>2022-01-30T10:27:17Z</time>
      </trkpt>
      <trkpt lat="41.8721120" lon="-2.8177530">
        <ele>1146.0</ele>
        <time>2022-01-30T10:27:18Z</time>
      </trkpt>
      <trkpt lat="41.8721620" lon="-2.8177350">
        <ele>1145.8</ele>
        <time>2022-01-30T10:27:19Z</time>
      </trkpt>
      <trkpt lat="41.8722070" lon="-2.8177230">
        <ele>1145.7</ele>
        <time>2022-01-30T10:27:20Z</time>
      </trkpt>
      <trkpt lat="41.8722380" lon="-2.8177120">
        <ele>1145.6</ele>
        <time>2022-01-30T10:27:21Z</time>
      </trkpt>
      <trkpt lat="41.8722630" lon="-2.8176900">
        <ele>1145.5</ele>
        <time>2022-01-30T10:27:22Z</time>
      </trkpt>
      <trkpt lat="41.8722830" lon="-2.8176580">
        <ele>1145.4</ele>
        <time>2022-01-30T10:27:23Z</time>
      </trkpt>
      <trkpt lat="41.8723020" lon="-2.8176200">
        <ele>1145.3</ele>
        <time>2022-01-30T10:27:24Z</time>
      </trkpt>
      <trkpt lat="41.8723220" lon="-2.8175750">
        <ele>1145.2</ele>
        <time>2022-01-30T10:27:25Z</time>
      </trkpt>
      <trkpt lat="41.8723450" lon="-2.8175300">
        <ele>1145.0</ele>
        <time>2022-01-30T10:27:26Z</time>
      </trkpt>
      <trkpt lat="41.8723720" lon="-2.8174900">
        <ele>1144.9</ele>
        <time>2022-01-30T10:27:27Z</time>
      </trkpt>
      <trkpt lat="41.8724030" lon="-2.8174520">
        <ele>1144.8</ele>
        <time>2022-01-30T10:27:28Z</time>
      </trkpt>
      <trkpt lat="41.8724370" lon="-2.8174120">
        <ele>1144.6</ele>
        <time>2022-01-30T10:27:29Z</time>
      </trkpt>
      <trkpt lat="41.8724750" lon="-2.8173750">
        <ele>1144.5</ele>
        <time>2022-01-30T10:27:30Z</time>
      </trkpt>
      <trkpt lat="41.8725100" lon="-2.8173300">
        <ele>1144.4</ele>
        <time>2022-01-30T10:27:31Z</time>
      </trkpt>
      <trkpt lat="41.8725450" lon="-2.8172780">
        <ele>1144.3</ele>
        <time>2022-01-30T10:27:32Z</time>
      </trkpt>
      <trkpt lat="41.8725780" lon="-2.8172250">
        <ele>1144.2</ele>
        <time>2022-01-30T10:27:33Z</time>
      </trkpt>
      <trkpt lat="41.8726150" lon="-2.8171780">
        <ele>1144.0</ele>
        <time>2022-01-30T10:27:34Z</time>
      </trkpt>
      <trkpt lat="41.8726520" lon="-2.8171250">
        <ele>1143.9</ele>
        <time>2022-01-30T10:27:35Z</time>
      </trkpt>
      <trkpt lat="41.8726880" lon="-2.8170720">
        <ele>1143.8</ele>
        <time>2022-01-30T10:27:36Z</time>
      </trkpt>
      <trkpt lat="41.8727250" lon="-2.8170130">
        <ele>1143.7</ele>
        <time>2022-01-30T10:27:37Z</time>
      </trkpt>
      <trkpt lat="41.8727580" lon="-2.8169580">
        <ele>1143.6</ele>
        <time>2022-01-30T10:27:38Z</time>
      </trkpt>
      <trkpt lat="41.8727980" lon="-2.8169120">
        <ele>1143.6</ele>
        <time>2022-01-30T10:27:39Z</time>
      </trkpt>
      <trkpt lat="41.8728420" lon="-2.8168800">
        <ele>1143.5</ele>
        <time>2022-01-30T10:27:40Z</time>
      </trkpt>
      <trkpt lat="41.8728900" lon="-2.8168630">
        <ele>1143.5</ele>
        <time>2022-01-30T10:27:41Z</time>
      </trkpt>
      <trkpt lat="41.8729370" lon="-2.8168520">
        <ele>1143.4</ele>
        <time>2022-01-30T10:27:42Z</time>
      </trkpt>
      <trkpt lat="41.8729870" lon="-2.8168450">
        <ele>1143.3</ele>
        <time>2022-01-30T10:27:43Z</time>
      </trkpt>
      <trkpt lat="41.8730330" lon="-2.8168420">
        <ele>1143.3</ele>
        <time>2022-01-30T10:27:44Z</time>
      </trkpt>
      <trkpt lat="41.8730780" lon="-2.8168350">
        <ele>1143.2</ele>
        <time>2022-01-30T10:27:45Z</time>
      </trkpt>
      <trkpt lat="41.8731230" lon="-2.8168230">
        <ele>1143.1</ele>
        <time>2022-01-30T10:27:46Z</time>
      </trkpt>
      <trkpt lat="41.8731670" lon="-2.8168150">
        <ele>1143.0</ele>
        <time>2022-01-30T10:27:47Z</time>
      </trkpt>
      <trkpt lat="41.8732100" lon="-2.8168150">
        <ele>1142.9</ele>
        <time>2022-01-30T10:27:48Z</time>
      </trkpt>
      <trkpt lat="41.8732530" lon="-2.8168180">
        <ele>1142.8</ele>
        <time>2022-01-30T10:27:49Z</time>
      </trkpt>
      <trkpt lat="41.8732970" lon="-2.8168200">
        <ele>1142.7</ele>
        <time>2022-01-30T10:27:50Z</time>
      </trkpt>
      <trkpt lat="41.8733380" lon="-2.8168180">
        <ele>1142.6</ele>
        <time>2022-01-30T10:27:51Z</time>
      </trkpt>
      <trkpt lat="41.8733780" lon="-2.8168120">
        <ele>1142.4</ele>
        <time>2022-01-30T10:27:52Z</time>
      </trkpt>
      <trkpt lat="41.8734180" lon="-2.8167980">
        <ele>1142.3</ele>
        <time>2022-01-30T10:27:53Z</time>
      </trkpt>
      <trkpt lat="41.8734570" lon="-2.8167800">
        <ele>1142.1</ele>
        <time>2022-01-30T10:27:54Z</time>
      </trkpt>
      <trkpt lat="41.8734970" lon="-2.8167570">
        <ele>1141.8</ele>
        <time>2022-01-30T10:27:55Z</time>
      </trkpt>
      <trkpt lat="41.8735370" lon="-2.8167280">
        <ele>1141.5</ele>
        <time>2022-01-30T10:27:56Z</time>
      </trkpt>
      <trkpt lat="41.8735770" lon="-2.8167020">
        <ele>1141.3</ele>
        <time>2022-01-30T10:27:57Z</time>
      </trkpt>
      <trkpt lat="41.8736100" lon="-2.8166830">
        <ele>1141.1</ele>
        <time>2022-01-30T10:27:58Z</time>
      </trkpt>
      <trkpt lat="41.8736400" lon="-2.8166750">
        <ele>1140.9</ele>
        <time>2022-01-30T10:27:59Z</time>
      </trkpt>
      <trkpt lat="41.8736720" lon="-2.8166670">
        <ele>1140.8</ele>
        <time>2022-01-30T10:28:00Z</time>
      </trkpt>
      <trkpt lat="41.8737030" lon="-2.8166580">
        <ele>1140.6</ele>
        <time>2022-01-30T10:28:01Z</time>
      </trkpt>
      <trkpt lat="41.8737380" lon="-2.8166480">
        <ele>1140.4</ele>
        <time>2022-01-30T10:28:02Z</time>
      </trkpt>
      <trkpt lat="41.8737780" lon="-2.8166420">
        <ele>1140.2</ele>
        <time>2022-01-30T10:28:03Z</time>
      </trkpt>
      <trkpt lat="41.8738220" lon="-2.8166380">
        <ele>1139.9</ele>
        <time>2022-01-30T10:28:04Z</time>
      </trkpt>
      <trkpt lat="41.8738650" lon="-2.8166370">
        <ele>1139.6</ele>
        <time>2022-01-30T10:28:05Z</time>
      </trkpt>
      <trkpt lat="41.8739050" lon="-2.8166330">
        <ele>1139.2</ele>
        <time>2022-01-30T10:28:06Z</time>
      </trkpt>
      <trkpt lat="41.8739470" lon="-2.8166320">
        <ele>1138.9</ele>
        <time>2022-01-30T10:28:07Z</time>
      </trkpt>
      <trkpt lat="41.8739870" lon="-2.8166320">
        <ele>1138.5</ele>
        <time>2022-01-30T10:28:08Z</time>
      </trkpt>
      <trkpt lat="41.8740270" lon="-2.8166320">
        <ele>1138.2</ele>
        <time>2022-01-30T10:28:09Z</time>
      </trkpt>
      <trkpt lat="41.8740600" lon="-2.8166220">
        <ele>1137.9</ele>
        <time>2022-01-30T10:28:10Z</time>
      </trkpt>
      <trkpt lat="41.8740900" lon="-2.8166000">
        <ele>1137.6</ele>
        <time>2022-01-30T10:28:11Z</time>
      </trkpt>
      <trkpt lat="41.8741120" lon="-2.8165630">
        <ele>1137.3</ele>
        <time>2022-01-30T10:28:12Z</time>
      </trkpt>
      <trkpt lat="41.8741320" lon="-2.8165170">
        <ele>1137.0</ele>
        <time>2022-01-30T10:28:13Z</time>
      </trkpt>
      <trkpt lat="41.8741500" lon="-2.8164630">
        <ele>1136.6</ele>
        <time>2022-01-30T10:28:14Z</time>
      </trkpt>
      <trkpt lat="41.8741670" lon="-2.8164100">
        <ele>1136.2</ele>
        <time>2022-01-30T10:28:15Z</time>
      </trkpt>
      <trkpt lat="41.8741870" lon="-2.8163630">
        <ele>1135.8</ele>
        <time>2022-01-30T10:28:16Z</time>
      </trkpt>
      <trkpt lat="41.8742120" lon="-2.8163220">
        <ele>1135.4</ele>
        <time>2022-01-30T10:28:17Z</time>
      </trkpt>
      <trkpt lat="41.8742380" lon="-2.8162880">
        <ele>1135.0</ele>
        <time>2022-01-30T10:28:18Z</time>
      </trkpt>
      <trkpt lat="41.8742630" lon="-2.8162530">
        <ele>1134.6</ele>
        <time>2022-01-30T10:28:19Z</time>
      </trkpt>
      <trkpt lat="41.8742870" lon="-2.8162130">
        <ele>1134.2</ele>
        <time>2022-01-30T10:28:20Z</time>
      </trkpt>
      <trkpt lat="41.8743130" lon="-2.8161700">
        <ele>1133.8</ele>
        <time>2022-01-30T10:28:21Z</time>
      </trkpt>
      <trkpt lat="41.8743370" lon="-2.8161200">
        <ele>1133.4</ele>
        <time>2022-01-30T10:28:22Z</time>
      </trkpt>
      <trkpt lat="41.8743630" lon="-2.8160670">
        <ele>1133.0</ele>
        <time>2022-01-30T10:28:23Z</time>
      </trkpt>
      <trkpt lat="41.8743870" lon="-2.8160130">
        <ele>1132.6</ele>
        <time>2022-01-30T10:28:24Z</time>
      </trkpt>
      <trkpt lat="41.8744100" lon="-2.8159630">
        <ele>1132.2</ele>
        <time>2022-01-30T10:28:25Z</time>
      </trkpt>
      <trkpt lat="41.8744300" lon="-2.8159150">
        <ele>1131.8</ele>
        <time>2022-01-30T10:28:26Z</time>
      </trkpt>
      <trkpt lat="41.8744530" lon="-2.8158630">
        <ele>1131.3</ele>
        <time>2022-01-30T10:28:27Z</time>
      </trkpt>
      <trkpt lat="41.8744800" lon="-2.8158050">
        <ele>1130.8</ele>
        <time>2022-01-30T10:28:28Z</time>
      </trkpt>
      <trkpt lat="41.8745050" lon="-2.8157470">
        <ele>1130.3</ele>
        <time>2022-01-30T10:28:29Z</time>
      </trkpt>
      <trkpt lat="41.8745320" lon="-2.8156920">
        <ele>1129.8</ele>
        <time>2022-01-30T10:28:30Z</time>
      </trkpt>
      <trkpt lat="41.8745520" lon="-2.8156350">
        <ele>1129.2</ele>
        <time>2022-01-30T10:28:31Z</time>
      </trkpt>
      <trkpt lat="41.8745680" lon="-2.8155780">
        <ele>1128.7</ele>
        <time>2022-01-30T10:28:32Z</time>
      </trkpt>
      <trkpt lat="41.8745780" lon="-2.8155250">
        <ele>1128.3</ele>
        <time>2022-01-30T10:28:33Z</time>
      </trkpt>
      <trkpt lat="41.8745850" lon="-2.8154770">
        <ele>1127.9</ele>
        <time>2022-01-30T10:28:34Z</time>
      </trkpt>
      <trkpt lat="41.8745920" lon="-2.8154330">
        <ele>1127.5</ele>
        <time>2022-01-30T10:28:35Z</time>
      </trkpt>
      <trkpt lat="41.8746020" lon="-2.8153950">
        <ele>1127.3</ele>
        <time>2022-01-30T10:28:36Z</time>
      </trkpt>
      <trkpt lat="41.8746130" lon="-2.8153530">
        <ele>1127.0</ele>
        <time>2022-01-30T10:28:37Z</time>
      </trkpt>
      <trkpt lat="41.8746230" lon="-2.8153100">
        <ele>1126.8</ele>
        <time>2022-01-30T10:28:38Z</time>
      </trkpt>
      <trkpt lat="41.8746320" lon="-2.8152770">
        <ele>1126.7</ele>
        <time>2022-01-30T10:28:39Z</time>
      </trkpt>
      <trkpt lat="41.8746420" lon="-2.8152550">
        <ele>1126.7</ele>
        <time>2022-01-30T10:28:40Z</time>
      </trkpt>
      <trkpt lat="41.8746470" lon="-2.8152400">
        <ele>1126.7</ele>
        <time>2022-01-30T10:28:41Z</time>
      </trkpt>
      <trkpt lat="41.8746470" lon="-2.8152280">
        <ele>1126.7</ele>
        <time>2022-01-30T10:28:42Z</time>
      </trkpt>
      <trkpt lat="41.8746470" lon="-2.8152220">
        <ele>1126.7</ele>
        <time>2022-01-30T10:28:43Z</time>
      </trkpt>
      <trkpt lat="41.8746480" lon="-2.8152150">
        <ele>1126.7</ele>
        <time>2022-01-30T10:28:44Z</time>
      </trkpt>
      <trkpt lat="41.8746500" lon="-2.8152070">
        <ele>1126.7</ele>
        <time>2022-01-30T10:28:45Z</time>
      </trkpt>
      <trkpt lat="41.8746520" lon="-2.8151930">
        <ele>1126.8</ele>
        <time>2022-01-30T10:28:46Z</time>
      </trkpt>
      <trkpt lat="41.8746520" lon="-2.8151820">
        <ele>1126.8</ele>
        <time>2022-01-30T10:28:47Z</time>
      </trkpt>
      <trkpt lat="41.8746520" lon="-2.8151720">
        <ele>1126.8</ele>
        <time>2022-01-30T10:28:48Z</time>
      </trkpt>
      <trkpt lat="41.8746520" lon="-2.8151620">
        <ele>1126.9</ele>
        <time>2022-01-30T10:28:49Z</time>
      </trkpt>
      <trkpt lat="41.8746530" lon="-2.8151500">
        <ele>1126.9</ele>
        <time>2022-01-30T10:28:50Z</time>
      </trkpt>
      <trkpt lat="41.8746520" lon="-2.8151380">
        <ele>1127.0</ele>
        <time>2022-01-30T10:28:51Z</time>
      </trkpt>
      <trkpt lat="41.8746520" lon="-2.8151250">
        <ele>1127.1</ele>
        <time>2022-01-30T10:28:52Z</time>
      </trkpt>
      <trkpt lat="41.8746500" lon="-2.8151080">
        <ele>1127.3</ele>
        <time>2022-01-30T10:28:53Z</time>
      </trkpt>
      <trkpt lat="41.8746520" lon="-2.8150900">
        <ele>1127.4</ele>
        <time>2022-01-30T10:28:54Z</time>
      </trkpt>
      <trkpt lat="41.8746520" lon="-2.8150670">
        <ele>1127.6</ele>
        <time>2022-01-30T10:28:55Z</time>
      </trkpt>
      <trkpt lat="41.8746530" lon="-2.8150470">
        <ele>1127.9</ele>
        <time>2022-01-30T10:28:56Z</time>
      </trkpt>
      <trkpt lat="41.8746600" lon="-2.8150320">
        <ele>1128.1</ele>
        <time>2022-01-30T10:28:57Z</time>
      </trkpt>
      <trkpt lat="41.8746670" lon="-2.8150180">
        <ele>1128.3</ele>
        <time>2022-01-30T10:28:58Z</time>
      </trkpt>
      <trkpt lat="41.8746750" lon="-2.8150070">
        <ele>1128.5</ele>
        <time>2022-01-30T10:28:59Z</time>
      </trkpt>
      <trkpt lat="41.8746880" lon="-2.8149930">
        <ele>1128.9</ele>
        <time>2022-01-30T10:29:00Z</time>
      </trkpt>
      <trkpt lat="41.8747020" lon="-2.8149780">
        <ele>1129.2</ele>
        <time>2022-01-30T10:29:01Z</time>
      </trkpt>
      <trkpt lat="41.8747130" lon="-2.8149570">
        <ele>1129.7</ele>
        <time>2022-01-30T10:29:02Z</time>
      </trkpt>
      <trkpt lat="41.8747220" lon="-2.8149280">
        <ele>1130.2</ele>
        <time>2022-01-30T10:29:03Z</time>
      </trkpt>
      <trkpt lat="41.8747250" lon="-2.8149020">
        <ele>1130.7</ele>
        <time>2022-01-30T10:29:04Z</time>
      </trkpt>
      <trkpt lat="41.8747280" lon="-2.8148750">
        <ele>1131.1</ele>
        <time>2022-01-30T10:29:05Z</time>
      </trkpt>
      <trkpt lat="41.8747350" lon="-2.8148480">
        <ele>1131.7</ele>
        <time>2022-01-30T10:29:06Z</time>
      </trkpt>
      <trkpt lat="41.8747430" lon="-2.8148230">
        <ele>1132.2</ele>
        <time>2022-01-30T10:29:07Z</time>
      </trkpt>
      <trkpt lat="41.8747500" lon="-2.8147980">
        <ele>1132.7</ele>
        <time>2022-01-30T10:29:08Z</time>
      </trkpt>
      <trkpt lat="41.8747570" lon="-2.8147750">
        <ele>1133.1</ele>
        <time>2022-01-30T10:29:09Z</time>
      </trkpt>
      <trkpt lat="41.8747600" lon="-2.8147530">
        <ele>1133.5</ele>
        <time>2022-01-30T10:29:10Z</time>
      </trkpt>
      <trkpt lat="41.8747630" lon="-2.8147350">
        <ele>1133.9</ele>
        <time>2022-01-30T10:29:11Z</time>
      </trkpt>
      <trkpt lat="41.8747670" lon="-2.8147180">
        <ele>1134.2</ele>
        <time>2022-01-30T10:29:12Z</time>
      </trkpt>
      <trkpt lat="41.8747680" lon="-2.8147030">
        <ele>1134.5</ele>
        <time>2022-01-30T10:29:13Z</time>
      </trkpt>
      <trkpt lat="41.8747720" lon="-2.8146900">
        <ele>1134.7</ele>
        <time>2022-01-30T10:29:14Z</time>
      </trkpt>
      <trkpt lat="41.8747750" lon="-2.8146750">
        <ele>1135.0</ele>
        <time>2022-01-30T10:29:15Z</time>
      </trkpt>
      <trkpt lat="41.8747800" lon="-2.8146620">
        <ele>1135.2</ele>
        <time>2022-01-30T10:29:16Z</time>
      </trkpt>
      <trkpt lat="41.8747870" lon="-2.8146480">
        <ele>1135.5</ele>
        <time>2022-01-30T10:29:17Z</time>
      </trkpt>
      <trkpt lat="41.8747920" lon="-2.8146350">
        <ele>1135.7</ele>
        <time>2022-01-30T10:29:18Z</time>
      </trkpt>
      <trkpt lat="41.8747950" lon="-2.8146220">
        <ele>1135.9</ele>
        <time>2022-01-30T10:29:19Z</time>
      </trkpt>
      <trkpt lat="41.8748000" lon="-2.8146070">
        <ele>1136.2</ele>
        <time>2022-01-30T10:29:20Z</time>
      </trkpt>
      <trkpt lat="41.8748020" lon="-2.8145930">
        <ele>1136.4</ele>
        <time>2022-01-30T10:29:21Z</time>
      </trkpt>
      <trkpt lat="41.8748050" lon="-2.8145800">
        <ele>1136.6</ele>
        <time>2022-01-30T10:29:22Z</time>
      </trkpt>
      <trkpt lat="41.8748080" lon="-2.8145670">
        <ele>1136.8</ele>
        <time>2022-01-30T10:29:23Z</time>
      </trkpt>
      <trkpt lat="41.8748120" lon="-2.8145530">
        <ele>1137.0</ele>
        <time>2022-01-30T10:29:24Z</time>
      </trkpt>
      <trkpt lat="41.8748150" lon="-2.8145380">
        <ele>1137.2</ele>
        <time>2022-01-30T10:29:25Z</time>
      </trkpt>
      <trkpt lat="41.8748170" lon="-2.8145230">
        <ele>1137.4</ele>
        <time>2022-01-30T10:29:26Z</time>
      </trkpt>
      <trkpt lat="41.8748200" lon="-2.8145080">
        <ele>1137.6</ele>
        <time>2022-01-30T10:29:27Z</time>
      </trkpt>
      <trkpt lat="41.8748220" lon="-2.8144950">
        <ele>1137.8</ele>
        <time>2022-01-30T10:29:28Z</time>
      </trkpt>
      <trkpt lat="41.8748250" lon="-2.8144820">
        <ele>1137.9</ele>
        <time>2022-01-30T10:29:29Z</time>
      </trkpt>
      <trkpt lat="41.8748280" lon="-2.8144670">
        <ele>1138.1</ele>
        <time>2022-01-30T10:29:30Z</time>
      </trkpt>
      <trkpt lat="41.8748330" lon="-2.8144530">
        <ele>1138.3</ele>
        <time>2022-01-30T10:29:31Z</time>
      </trkpt>
      <trkpt lat="41.8748380" lon="-2.8144380">
        <ele>1138.5</ele>
        <time>2022-01-30T10:29:32Z</time>
      </trkpt>
      <trkpt lat="41.8748430" lon="-2.8144250">
        <ele>1138.7</ele>
        <time>2022-01-30T10:29:33Z</time>
      </trkpt>
      <trkpt lat="41.8748500" lon="-2.8144120">
        <ele>1138.9</ele>
        <time>2022-01-30T10:29:34Z</time>
      </trkpt>
      <trkpt lat="41.8748570" lon="-2.8143980">
        <ele>1139.1</ele>
        <time>2022-01-30T10:29:35Z</time>
      </trkpt>
      <trkpt lat="41.8748650" lon="-2.8143870">
        <ele>1139.3</ele>
        <time>2022-01-30T10:29:36Z</time>
      </trkpt>
      <trkpt lat="41.8748750" lon="-2.8143750">
        <ele>1139.5</ele>
        <time>2022-01-30T10:29:37Z</time>
      </trkpt>
      <trkpt lat="41.8748850" lon="-2.8143650">
        <ele>1139.7</ele>
        <time>2022-01-30T10:29:38Z</time>
      </trkpt>
      <trkpt lat="41.8748930" lon="-2.8143530">
        <ele>1139.9</ele>
        <time>2022-01-30T10:29:39Z</time>
      </trkpt>
      <trkpt lat="41.8749020" lon="-2.8143420">
        <ele>1140.1</ele>
        <time>2022-01-30T10:29:40Z</time>
      </trkpt>
      <trkpt lat="41.8749080" lon="-2.8143250">
        <ele>1140.3</ele>
        <time>2022-01-30T10:29:41Z</time>
      </trkpt>
      <trkpt lat="41.8749170" lon="-2.8143120">
        <ele>1140.5</ele>
        <time>2022-01-30T10:29:42Z</time>
      </trkpt>
      <trkpt lat="41.8749250" lon="-2.8143020">
        <ele>1140.7</ele>
        <time>2022-01-30T10:29:43Z</time>
      </trkpt>
      <trkpt lat="41.8749330" lon="-2.8142920">
        <ele>1140.9</ele>
        <time>2022-01-30T10:29:44Z</time>
      </trkpt>
      <trkpt lat="41.8749420" lon="-2.8142800">
        <ele>1141.1</ele>
        <time>2022-01-30T10:29:45Z</time>
      </trkpt>
      <trkpt lat="41.8749480" lon="-2.8142720">
        <ele>1141.2</ele>
        <time>2022-01-30T10:29:46Z</time>
      </trkpt>
      <trkpt lat="41.8749550" lon="-2.8142630">
        <ele>1141.4</ele>
        <time>2022-01-30T10:29:47Z</time>
      </trkpt>
      <trkpt lat="41.8749650" lon="-2.8142550">
        <ele>1141.5</ele>
        <time>2022-01-30T10:29:48Z</time>
      </trkpt>
      <trkpt lat="41.8749750" lon="-2.8142500">
        <ele>1141.7</ele>
        <time>2022-01-30T10:29:49Z</time>
      </trkpt>
      <trkpt lat="41.8749900" lon="-2.8142420">
        <ele>1142.0</ele>
        <time>2022-01-30T10:29:50Z</time>
      </trkpt>
      <trkpt lat="41.8750030" lon="-2.8142350">
        <ele>1142.2</ele>
        <time>2022-01-30T10:29:51Z</time>
      </trkpt>
      <trkpt lat="41.8750200" lon="-2.8142280">
        <ele>1142.5</ele>
        <time>2022-01-30T10:29:52Z</time>
      </trkpt>
      <trkpt lat="41.8750320" lon="-2.8142220">
        <ele>1142.7</ele>
        <time>2022-01-30T10:29:53Z</time>
      </trkpt>
      <trkpt lat="41.8750420" lon="-2.8142120">
        <ele>1142.9</ele>
        <time>2022-01-30T10:29:54Z</time>
      </trkpt>
      <trkpt lat="41.8750500" lon="-2.8141980">
        <ele>1143.1</ele>
        <time>2022-01-30T10:29:55Z</time>
      </trkpt>
      <trkpt lat="41.8750580" lon="-2.8141820">
        <ele>1143.3</ele>
        <time>2022-01-30T10:29:56Z</time>
      </trkpt>
      <trkpt lat="41.8750650" lon="-2.8141650">
        <ele>1143.5</ele>
        <time>2022-01-30T10:29:57Z</time>
      </trkpt>
      <trkpt lat="41.8750750" lon="-2.8141500">
        <ele>1143.7</ele>
        <time>2022-01-30T10:29:58Z</time>
      </trkpt>
      <trkpt lat="41.8750830" lon="-2.8141350">
        <ele>1144.0</ele>
        <time>2022-01-30T10:29:59Z</time>
      </trkpt>
      <trkpt lat="41.8750930" lon="-2.8141180">
        <ele>1144.2</ele>
        <time>2022-01-30T10:30:00Z</time>
      </trkpt>
      <trkpt lat="41.8751020" lon="-2.8141020">
        <ele>1144.4</ele>
        <time>2022-01-30T10:30:01Z</time>
      </trkpt>
      <trkpt lat="41.8751120" lon="-2.8140830">
        <ele>1144.7</ele>
        <time>2022-01-30T10:30:02Z</time>
      </trkpt>
      <trkpt lat="41.8751200" lon="-2.8140670">
        <ele>1144.9</ele>
        <time>2022-01-30T10:30:03Z</time>
      </trkpt>
      <trkpt lat="41.8751320" lon="-2.8140550">
        <ele>1145.1</ele>
        <time>2022-01-30T10:30:04Z</time>
      </trkpt>
      <trkpt lat="41.8751470" lon="-2.8140450">
        <ele>1145.4</ele>
        <time>2022-01-30T10:30:05Z</time>
      </trkpt>
      <trkpt lat="41.8751630" lon="-2.8140370">
        <ele>1145.7</ele>
        <time>2022-01-30T10:30:06Z</time>
      </trkpt>
      <trkpt lat="41.8751830" lon="-2.8140250">
        <ele>1146.0</ele>
        <time>2022-01-30T10:30:07Z</time>
      </trkpt>
      <trkpt lat="41.8752000" lon="-2.8140120">
        <ele>1146.3</ele>
        <time>2022-01-30T10:30:08Z</time>
      </trkpt>
      <trkpt lat="41.8752120" lon="-2.8139970">
        <ele>1146.6</ele>
        <time>2022-01-30T10:30:09Z</time>
      </trkpt>
      <trkpt lat="41.8752230" lon="-2.8139830">
        <ele>1146.9</ele>
        <time>2022-01-30T10:30:10Z</time>
      </trkpt>
      <trkpt lat="41.8752330" lon="-2.8139720">
        <ele>1147.1</ele>
        <time>2022-01-30T10:30:11Z</time>
      </trkpt>
      <trkpt lat="41.8752470" lon="-2.8139630">
        <ele>1147.3</ele>
        <time>2022-01-30T10:30:12Z</time>
      </trkpt>
      <trkpt lat="41.8752580" lon="-2.8139530">
        <ele>1147.5</ele>
        <time>2022-01-30T10:30:13Z</time>
      </trkpt>
      <trkpt lat="41.8752680" lon="-2.8139430">
        <ele>1147.7</ele>
        <time>2022-01-30T10:30:14Z</time>
      </trkpt>
      <trkpt lat="41.8752800" lon="-2.8139350">
        <ele>1147.9</ele>
        <time>2022-01-30T10:30:15Z</time>
      </trkpt>
      <trkpt lat="41.8752900" lon="-2.8139250">
        <ele>1148.1</ele>
        <time>2022-01-30T10:30:16Z</time>
      </trkpt>
      <trkpt lat="41.8753020" lon="-2.8139150">
        <ele>1148.3</ele>
        <time>2022-01-30T10:30:17Z</time>
      </trkpt>
      <trkpt lat="41.8753130" lon="-2.8139030">
        <ele>1148.5</ele>
        <time>2022-01-30T10:30:18Z</time>
      </trkpt>
      <trkpt lat="41.8753270" lon="-2.8138950">
        <ele>1148.7</ele>
        <time>2022-01-30T10:30:19Z</time>
      </trkpt>
      <trkpt lat="41.8753370" lon="-2.8138850">
        <ele>1148.9</ele>
        <time>2022-01-30T10:30:20Z</time>
      </trkpt>
      <trkpt lat="41.8753470" lon="-2.8138750">
        <ele>1149.0</ele>
        <time>2022-01-30T10:30:21Z</time>
      </trkpt>
      <trkpt lat="41.8753570" lon="-2.8138650">
        <ele>1149.2</ele>
        <time>2022-01-30T10:30:22Z</time>
      </trkpt>
      <trkpt lat="41.8753680" lon="-2.8138570">
        <ele>1149.4</ele>
        <time>2022-01-30T10:30:23Z</time>
      </trkpt>
      <trkpt lat="41.8753780" lon="-2.8138470">
        <ele>1149.6</ele>
        <time>2022-01-30T10:30:24Z</time>
      </trkpt>
      <trkpt lat="41.8753880" lon="-2.8138350">
        <ele>1149.8</ele>
        <time>2022-01-30T10:30:25Z</time>
      </trkpt>
      <trkpt lat="41.8754000" lon="-2.8138250">
        <ele>1150.0</ele>
        <time>2022-01-30T10:30:26Z</time>
      </trkpt>
      <trkpt lat="41.8754080" lon="-2.8138130">
        <ele>1150.1</ele>
        <time>2022-01-30T10:30:27Z</time>
      </trkpt>
      <trkpt lat="41.8754180" lon="-2.8138020">
        <ele>1150.3</ele>
        <time>2022-01-30T10:30:28Z</time>
      </trkpt>
      <trkpt lat="41.8754270" lon="-2.8137930">
        <ele>1150.5</ele>
        <time>2022-01-30T10:30:29Z</time>
      </trkpt>
      <trkpt lat="41.8754370" lon="-2.8137850">
        <ele>1150.6</ele>
        <time>2022-01-30T10:30:30Z</time>
      </trkpt>
      <trkpt lat="41.8754480" lon="-2.8137770">
        <ele>1150.8</ele>
        <time>2022-01-30T10:30:31Z</time>
      </trkpt>
      <trkpt lat="41.8754580" lon="-2.8137680">
        <ele>1151.0</ele>
        <time>2022-01-30T10:30:32Z</time>
      </trkpt>
      <trkpt lat="41.8754680" lon="-2.8137570">
        <ele>1151.2</ele>
        <time>2022-01-30T10:30:33Z</time>
      </trkpt>
      <trkpt lat="41.8754770" lon="-2.8137450">
        <ele>1151.4</ele>
        <time>2022-01-30T10:30:34Z</time>
      </trkpt>
      <trkpt lat="41.8754880" lon="-2.8137320">
        <ele>1151.6</ele>
        <time>2022-01-30T10:30:35Z</time>
      </trkpt>
      <trkpt lat="41.8754950" lon="-2.8137180">
        <ele>1151.8</ele>
        <time>2022-01-30T10:30:36Z</time>
      </trkpt>
      <trkpt lat="41.8755050" lon="-2.8137050">
        <ele>1152.0</ele>
        <time>2022-01-30T10:30:37Z</time>
      </trkpt>
      <trkpt lat="41.8755120" lon="-2.8136900">
        <ele>1152.2</ele>
        <time>2022-01-30T10:30:38Z</time>
      </trkpt>
      <trkpt lat="41.8755180" lon="-2.8136770">
        <ele>1152.3</ele>
        <time>2022-01-30T10:30:39Z</time>
      </trkpt>
      <trkpt lat="41.8755280" lon="-2.8136620">
        <ele>1152.5</ele>
        <time>2022-01-30T10:30:40Z</time>
      </trkpt>
      <trkpt lat="41.8755400" lon="-2.8136470">
        <ele>1152.8</ele>
        <time>2022-01-30T10:30:41Z</time>
      </trkpt>
      <trkpt lat="41.8755520" lon="-2.8136300">
        <ele>1153.0</ele>
        <time>2022-01-30T10:30:42Z</time>
      </trkpt>
      <trkpt lat="41.8755600" lon="-2.8136150">
        <ele>1153.2</ele>
        <time>2022-01-30T10:30:43Z</time>
      </trkpt>
      <trkpt lat="41.8755670" lon="-2.8136000">
        <ele>1153.4</ele>
        <time>2022-01-30T10:30:44Z</time>
      </trkpt>
      <trkpt lat="41.8755730" lon="-2.8135850">
        <ele>1153.6</ele>
        <time>2022-01-30T10:30:45Z</time>
      </trkpt>
      <trkpt lat="41.8755800" lon="-2.8135680">
        <ele>1153.9</ele>
        <time>2022-01-30T10:30:46Z</time>
      </trkpt>
      <trkpt lat="41.8755880" lon="-2.8135530">
        <ele>1154.1</ele>
        <time>2022-01-30T10:30:47Z</time>
      </trkpt>
      <trkpt lat="41.8755950" lon="-2.8135380">
        <ele>1154.3</ele>
        <time>2022-01-30T10:30:48Z</time>
      </trkpt>
      <trkpt lat="41.8756020" lon="-2.8135230">
        <ele>1154.5</ele>
        <time>2022-01-30T10:30:49Z</time>
      </trkpt>
      <trkpt lat="41.8756100" lon="-2.8135080">
        <ele>1154.7</ele>
        <time>2022-01-30T10:30:50Z</time>
      </trkpt>
      <trkpt lat="41.8756180" lon="-2.8134930">
        <ele>1155.0</ele>
        <time>2022-01-30T10:30:51Z</time>
      </trkpt>
      <trkpt lat="41.8756250" lon="-2.8134800">
        <ele>1155.2</ele>
        <time>2022-01-30T10:30:52Z</time>
      </trkpt>
      <trkpt lat="41.8756330" lon="-2.8134670">
        <ele>1155.4</ele>
        <time>2022-01-30T10:30:53Z</time>
      </trkpt>
      <trkpt lat="41.8756420" lon="-2.8134520">
        <ele>1155.6</ele>
        <time>2022-01-30T10:30:54Z</time>
      </trkpt>
      <trkpt lat="41.8756500" lon="-2.8134350">
        <ele>1155.8</ele>
        <time>2022-01-30T10:30:55Z</time>
      </trkpt>
      <trkpt lat="41.8756580" lon="-2.8134180">
        <ele>1156.1</ele>
        <time>2022-01-30T10:30:56Z</time>
      </trkpt>
      <trkpt lat="41.8756670" lon="-2.8134050">
        <ele>1156.3</ele>
        <time>2022-01-30T10:30:57Z</time>
      </trkpt>
      <trkpt lat="41.8756780" lon="-2.8133930">
        <ele>1156.5</ele>
        <time>2022-01-30T10:30:58Z</time>
      </trkpt>
      <trkpt lat="41.8756900" lon="-2.8133820">
        <ele>1156.7</ele>
        <time>2022-01-30T10:30:59Z</time>
      </trkpt>
      <trkpt lat="41.8757000" lon="-2.8133700">
        <ele>1156.9</ele>
        <time>2022-01-30T10:31:00Z</time>
      </trkpt>
      <trkpt lat="41.8757100" lon="-2.8133580">
        <ele>1157.1</ele>
        <time>2022-01-30T10:31:01Z</time>
      </trkpt>
      <trkpt lat="41.8757180" lon="-2.8133450">
        <ele>1157.3</ele>
        <time>2022-01-30T10:31:02Z</time>
      </trkpt>
      <trkpt lat="41.8757280" lon="-2.8133320">
        <ele>1157.5</ele>
        <time>2022-01-30T10:31:03Z</time>
      </trkpt>
      <trkpt lat="41.8757380" lon="-2.8133150">
        <ele>1157.7</ele>
        <time>2022-01-30T10:31:04Z</time>
      </trkpt>
      <trkpt lat="41.8757500" lon="-2.8132980">
        <ele>1157.9</ele>
        <time>2022-01-30T10:31:05Z</time>
      </trkpt>
      <trkpt lat="41.8757620" lon="-2.8132820">
        <ele>1158.1</ele>
        <time>2022-01-30T10:31:06Z</time>
      </trkpt>
      <trkpt lat="41.8757750" lon="-2.8132630">
        <ele>1158.4</ele>
        <time>2022-01-30T10:31:07Z</time>
      </trkpt>
      <trkpt lat="41.8757850" lon="-2.8132450">
        <ele>1158.6</ele>
        <time>2022-01-30T10:31:08Z</time>
      </trkpt>
      <trkpt lat="41.8757950" lon="-2.8132300">
        <ele>1158.8</ele>
        <time>2022-01-30T10:31:09Z</time>
      </trkpt>
      <trkpt lat="41.8758050" lon="-2.8132170">
        <ele>1159.0</ele>
        <time>2022-01-30T10:31:10Z</time>
      </trkpt>
      <trkpt lat="41.8758120" lon="-2.8132030">
        <ele>1159.2</ele>
        <time>2022-01-30T10:31:11Z</time>
      </trkpt>
      <trkpt lat="41.8758200" lon="-2.8131880">
        <ele>1159.4</ele>
        <time>2022-01-30T10:31:12Z</time>
      </trkpt>
      <trkpt lat="41.8758270" lon="-2.8131730">
        <ele>1159.5</ele>
        <time>2022-01-30T10:31:13Z</time>
      </trkpt>
      <trkpt lat="41.8758330" lon="-2.8131580">
        <ele>1159.7</ele>
        <time>2022-01-30T10:31:14Z</time>
      </trkpt>
      <trkpt lat="41.8758420" lon="-2.8131400">
        <ele>1159.9</ele>
        <time>2022-01-30T10:31:15Z</time>
      </trkpt>
      <trkpt lat="41.8758470" lon="-2.8131200">
        <ele>1160.1</ele>
        <time>2022-01-30T10:31:16Z</time>
      </trkpt>
      <trkpt lat="41.8758520" lon="-2.8131000">
        <ele>1160.4</ele>
        <time>2022-01-30T10:31:17Z</time>
      </trkpt>
      <trkpt lat="41.8758530" lon="-2.8130800">
        <ele>1160.6</ele>
        <time>2022-01-30T10:31:18Z</time>
      </trkpt>
      <trkpt lat="41.8758550" lon="-2.8130620">
        <ele>1160.7</ele>
        <time>2022-01-30T10:31:19Z</time>
      </trkpt>
      <trkpt lat="41.8758570" lon="-2.8130420">
        <ele>1160.9</ele>
        <time>2022-01-30T10:31:20Z</time>
      </trkpt>
      <trkpt lat="41.8758580" lon="-2.8130220">
        <ele>1161.1</ele>
        <time>2022-01-30T10:31:21Z</time>
      </trkpt>
      <trkpt lat="41.8758600" lon="-2.8130000">
        <ele>1161.3</ele>
        <time>2022-01-30T10:31:22Z</time>
      </trkpt>
      <trkpt lat="41.8758600" lon="-2.8129770">
        <ele>1161.5</ele>
        <time>2022-01-30T10:31:23Z</time>
      </trkpt>
      <trkpt lat="41.8758600" lon="-2.8129530">
        <ele>1161.7</ele>
        <time>2022-01-30T10:31:24Z</time>
      </trkpt>
      <trkpt lat="41.8758600" lon="-2.8129320">
        <ele>1161.8</ele>
        <time>2022-01-30T10:31:25Z</time>
      </trkpt>
      <trkpt lat="41.8758600" lon="-2.8129070">
        <ele>1162.0</ele>
        <time>2022-01-30T10:31:26Z</time>
      </trkpt>
      <trkpt lat="41.8758620" lon="-2.8128820">
        <ele>1162.2</ele>
        <time>2022-01-30T10:31:27Z</time>
      </trkpt>
      <trkpt lat="41.8758630" lon="-2.8128570">
        <ele>1162.4</ele>
        <time>2022-01-30T10:31:28Z</time>
      </trkpt>
      <trkpt lat="41.8758670" lon="-2.8128330">
        <ele>1162.5</ele>
        <time>2022-01-30T10:31:29Z</time>
      </trkpt>
      <trkpt lat="41.8758730" lon="-2.8128080">
        <ele>1162.7</ele>
        <time>2022-01-30T10:31:30Z</time>
      </trkpt>
      <trkpt lat="41.8758820" lon="-2.8127830">
        <ele>1162.9</ele>
        <time>2022-01-30T10:31:31Z</time>
      </trkpt>
      <trkpt lat="41.8758920" lon="-2.8127630">
        <ele>1163.1</ele>
        <time>2022-01-30T10:31:32Z</time>
      </trkpt>
      <trkpt lat="41.8759000" lon="-2.8127480">
        <ele>1163.2</ele>
        <time>2022-01-30T10:31:33Z</time>
      </trkpt>
      <trkpt lat="41.8759130" lon="-2.8127250">
        <ele>1163.4</ele>
        <time>2022-01-30T10:31:34Z</time>
      </trkpt>
      <trkpt lat="41.8759230" lon="-2.8127050">
        <ele>1163.6</ele>
        <time>2022-01-30T10:31:35Z</time>
      </trkpt>
      <trkpt lat="41.8759330" lon="-2.8126850">
        <ele>1163.8</ele>
        <time>2022-01-30T10:31:36Z</time>
      </trkpt>
      <trkpt lat="41.8759450" lon="-2.8126680">
        <ele>1164.0</ele>
        <time>2022-01-30T10:31:37Z</time>
      </trkpt>
      <trkpt lat="41.8759580" lon="-2.8126530">
        <ele>1164.1</ele>
        <time>2022-01-30T10:31:38Z</time>
      </trkpt>
      <trkpt lat="41.8759700" lon="-2.8126400">
        <ele>1164.3</ele>
        <time>2022-01-30T10:31:39Z</time>
      </trkpt>
      <trkpt lat="41.8759820" lon="-2.8126230">
        <ele>1164.5</ele>
        <time>2022-01-30T10:31:40Z</time>
      </trkpt>
      <trkpt lat="41.8759950" lon="-2.8126070">
        <ele>1164.6</ele>
        <time>2022-01-30T10:31:41Z</time>
      </trkpt>
      <trkpt lat="41.8760050" lon="-2.8125900">
        <ele>1164.8</ele>
        <time>2022-01-30T10:31:42Z</time>
      </trkpt>
      <trkpt lat="41.8760170" lon="-2.8125750">
        <ele>1165.0</ele>
        <time>2022-01-30T10:31:43Z</time>
      </trkpt>
      <trkpt lat="41.8760300" lon="-2.8125600">
        <ele>1165.1</ele>
        <time>2022-01-30T10:31:44Z</time>
      </trkpt>
      <trkpt lat="41.8760430" lon="-2.8125450">
        <ele>1165.3</ele>
        <time>2022-01-30T10:31:45Z</time>
      </trkpt>
      <trkpt lat="41.8760570" lon="-2.8125300">
        <ele>1165.5</ele>
        <time>2022-01-30T10:31:46Z</time>
      </trkpt>
      <trkpt lat="41.8760700" lon="-2.8125150">
        <ele>1165.7</ele>
        <time>2022-01-30T10:31:47Z</time>
      </trkpt>
      <trkpt lat="41.8760800" lon="-2.8124980">
        <ele>1165.8</ele>
        <time>2022-01-30T10:31:48Z</time>
      </trkpt>
      <trkpt lat="41.8760930" lon="-2.8124820">
        <ele>1166.0</ele>
        <time>2022-01-30T10:31:49Z</time>
      </trkpt>
      <trkpt lat="41.8761030" lon="-2.8124650">
        <ele>1166.2</ele>
        <time>2022-01-30T10:31:50Z</time>
      </trkpt>
      <trkpt lat="41.8761130" lon="-2.8124500">
        <ele>1166.3</ele>
        <time>2022-01-30T10:31:51Z</time>
      </trkpt>
      <trkpt lat="41.8761200" lon="-2.8124350">
        <ele>1166.5</ele>
        <time>2022-01-30T10:31:52Z</time>
      </trkpt>
      <trkpt lat="41.8761280" lon="-2.8124180">
        <ele>1166.6</ele>
        <time>2022-01-30T10:31:53Z</time>
      </trkpt>
      <trkpt lat="41.8761380" lon="-2.8124000">
        <ele>1166.8</ele>
        <time>2022-01-30T10:31:54Z</time>
      </trkpt>
      <trkpt lat="41.8761500" lon="-2.8123820">
        <ele>1167.0</ele>
        <time>2022-01-30T10:31:55Z</time>
      </trkpt>
      <trkpt lat="41.8761620" lon="-2.8123630">
        <ele>1167.2</ele>
        <time>2022-01-30T10:31:56Z</time>
      </trkpt>
      <trkpt lat="41.8761730" lon="-2.8123450">
        <ele>1167.4</ele>
        <time>2022-01-30T10:31:57Z</time>
      </trkpt>
      <trkpt lat="41.8761830" lon="-2.8123250">
        <ele>1167.6</ele>
        <time>2022-01-30T10:31:58Z</time>
      </trkpt>
      <trkpt lat="41.8761900" lon="-2.8123100">
        <ele>1167.7</ele>
        <time>2022-01-30T10:31:59Z</time>
      </trkpt>
      <trkpt lat="41.8761980" lon="-2.8123000">
        <ele>1167.8</ele>
        <time>2022-01-30T10:32:00Z</time>
      </trkpt>
      <trkpt lat="41.8762050" lon="-2.8122950">
        <ele>1167.9</ele>
        <time>2022-01-30T10:32:01Z</time>
      </trkpt>
      <trkpt lat="41.8762150" lon="-2.8122980">
        <ele>1168.0</ele>
        <time>2022-01-30T10:32:02Z</time>
      </trkpt>
      <trkpt lat="41.8762250" lon="-2.8123050">
        <ele>1168.1</ele>
        <time>2022-01-30T10:32:03Z</time>
      </trkpt>
      <trkpt lat="41.8762380" lon="-2.8123120">
        <ele>1168.2</ele>
        <time>2022-01-30T10:32:04Z</time>
      </trkpt>
      <trkpt lat="41.8762550" lon="-2.8123220">
        <ele>1168.4</ele>
        <time>2022-01-30T10:32:05Z</time>
      </trkpt>
      <trkpt lat="41.8762720" lon="-2.8123330">
        <ele>1168.6</ele>
        <time>2022-01-30T10:32:06Z</time>
      </trkpt>
      <trkpt lat="41.8762900" lon="-2.8123430">
        <ele>1168.7</ele>
        <time>2022-01-30T10:32:07Z</time>
      </trkpt>
      <trkpt lat="41.8763030" lon="-2.8123520">
        <ele>1168.9</ele>
        <time>2022-01-30T10:32:08Z</time>
      </trkpt>
      <trkpt lat="41.8763170" lon="-2.8123600">
        <ele>1169.0</ele>
        <time>2022-01-30T10:32:09Z</time>
      </trkpt>
      <trkpt lat="41.8763330" lon="-2.8123720">
        <ele>1169.1</ele>
        <time>2022-01-30T10:32:10Z</time>
      </trkpt>
      <trkpt lat="41.8763480" lon="-2.8123870">
        <ele>1169.3</ele>
        <time>2022-01-30T10:32:11Z</time>
      </trkpt>
      <trkpt lat="41.8763630" lon="-2.8124020">
        <ele>1169.4</ele>
        <time>2022-01-30T10:32:12Z</time>
      </trkpt>
      <trkpt lat="41.8763800" lon="-2.8124180">
        <ele>1169.5</ele>
        <time>2022-01-30T10:32:13Z</time>
      </trkpt>
      <trkpt lat="41.8763950" lon="-2.8124330">
        <ele>1169.7</ele>
        <time>2022-01-30T10:32:14Z</time>
      </trkpt>
      <trkpt lat="41.8764100" lon="-2.8124500">
        <ele>1169.7</ele>
        <time>2022-01-30T10:32:15Z</time>
      </trkpt>
      <trkpt lat="41.8764250" lon="-2.8124670">
        <ele>1169.8</ele>
        <time>2022-01-30T10:32:16Z</time>
      </trkpt>
      <trkpt lat="41.8764420" lon="-2.8124830">
        <ele>1169.9</ele>
        <time>2022-01-30T10:32:17Z</time>
      </trkpt>
      <trkpt lat="41.8764580" lon="-2.8125000">
        <ele>1170.0</ele>
        <time>2022-01-30T10:32:18Z</time>
      </trkpt>
      <trkpt lat="41.8764750" lon="-2.8125180">
        <ele>1170.0</ele>
        <time>2022-01-30T10:32:19Z</time>
      </trkpt>
      <trkpt lat="41.8764870" lon="-2.8125370">
        <ele>1170.1</ele>
        <time>2022-01-30T10:32:20Z</time>
      </trkpt>
      <trkpt lat="41.8765020" lon="-2.8125570">
        <ele>1170.2</ele>
        <time>2022-01-30T10:32:21Z</time>
      </trkpt>
      <trkpt lat="41.8765180" lon="-2.8125770">
        <ele>1170.3</ele>
        <time>2022-01-30T10:32:22Z</time>
      </trkpt>
      <trkpt lat="41.8765330" lon="-2.8125980">
        <ele>1170.4</ele>
        <time>2022-01-30T10:32:23Z</time>
      </trkpt>
      <trkpt lat="41.8765470" lon="-2.8126220">
        <ele>1170.5</ele>
        <time>2022-01-30T10:32:24Z</time>
      </trkpt>
      <trkpt lat="41.8765600" lon="-2.8126430">
        <ele>1170.6</ele>
        <time>2022-01-30T10:32:25Z</time>
      </trkpt>
      <trkpt lat="41.8765700" lon="-2.8126630">
        <ele>1170.7</ele>
        <time>2022-01-30T10:32:26Z</time>
      </trkpt>
      <trkpt lat="41.8765780" lon="-2.8126850">
        <ele>1170.8</ele>
        <time>2022-01-30T10:32:27Z</time>
      </trkpt>
      <trkpt lat="41.8765880" lon="-2.8127070">
        <ele>1171.0</ele>
        <time>2022-01-30T10:32:28Z</time>
      </trkpt>
      <trkpt lat="41.8765970" lon="-2.8127300">
        <ele>1171.1</ele>
        <time>2022-01-30T10:32:29Z</time>
      </trkpt>
      <trkpt lat="41.8766000" lon="-2.8127570">
        <ele>1171.2</ele>
        <time>2022-01-30T10:32:30Z</time>
      </trkpt>
      <trkpt lat="41.8766020" lon="-2.8127830">
        <ele>1171.4</ele>
        <time>2022-01-30T10:32:31Z</time>
      </trkpt>
      <trkpt lat="41.8766030" lon="-2.8128120">
        <ele>1171.5</ele>
        <time>2022-01-30T10:32:32Z</time>
      </trkpt>
      <trkpt lat="41.8766070" lon="-2.8128380">
        <ele>1171.6</ele>
        <time>2022-01-30T10:32:33Z</time>
      </trkpt>
      <trkpt lat="41.8766130" lon="-2.8128650">
        <ele>1171.8</ele>
        <time>2022-01-30T10:32:34Z</time>
      </trkpt>
      <trkpt lat="41.8766200" lon="-2.8128870">
        <ele>1171.9</ele>
        <time>2022-01-30T10:32:35Z</time>
      </trkpt>
      <trkpt lat="41.8766280" lon="-2.8129020">
        <ele>1172.0</ele>
        <time>2022-01-30T10:32:36Z</time>
      </trkpt>
      <trkpt lat="41.8766400" lon="-2.8129120">
        <ele>1172.1</ele>
        <time>2022-01-30T10:32:37Z</time>
      </trkpt>
      <trkpt lat="41.8766520" lon="-2.8129180">
        <ele>1172.2</ele>
        <time>2022-01-30T10:32:38Z</time>
      </trkpt>
      <trkpt lat="41.8766670" lon="-2.8129250">
        <ele>1172.3</ele>
        <time>2022-01-30T10:32:39Z</time>
      </trkpt>
      <trkpt lat="41.8766820" lon="-2.8129280">
        <ele>1172.4</ele>
        <time>2022-01-30T10:32:40Z</time>
      </trkpt>
      <trkpt lat="41.8766970" lon="-2.8129320">
        <ele>1172.5</ele>
        <time>2022-01-30T10:32:41Z</time>
      </trkpt>
      <trkpt lat="41.8767120" lon="-2.8129350">
        <ele>1172.6</ele>
        <time>2022-01-30T10:32:42Z</time>
      </trkpt>
      <trkpt lat="41.8767270" lon="-2.8129370">
        <ele>1172.7</ele>
        <time>2022-01-30T10:32:43Z</time>
      </trkpt>
      <trkpt lat="41.8767430" lon="-2.8129380">
        <ele>1172.7</ele>
        <time>2022-01-30T10:32:44Z</time>
      </trkpt>
      <trkpt lat="41.8767600" lon="-2.8129370">
        <ele>1172.8</ele>
        <time>2022-01-30T10:32:45Z</time>
      </trkpt>
      <trkpt lat="41.8767770" lon="-2.8129320">
        <ele>1173.0</ele>
        <time>2022-01-30T10:32:46Z</time>
      </trkpt>
      <trkpt lat="41.8767930" lon="-2.8129280">
        <ele>1173.0</ele>
        <time>2022-01-30T10:32:47Z</time>
      </trkpt>
      <trkpt lat="41.8768070" lon="-2.8129250">
        <ele>1173.1</ele>
        <time>2022-01-30T10:32:48Z</time>
      </trkpt>
      <trkpt lat="41.8768220" lon="-2.8129250">
        <ele>1173.2</ele>
        <time>2022-01-30T10:32:49Z</time>
      </trkpt>
      <trkpt lat="41.8768380" lon="-2.8129250">
        <ele>1173.2</ele>
        <time>2022-01-30T10:32:50Z</time>
      </trkpt>
      <trkpt lat="41.8768550" lon="-2.8129250">
        <ele>1173.3</ele>
        <time>2022-01-30T10:32:51Z</time>
      </trkpt>
      <trkpt lat="41.8768720" lon="-2.8129270">
        <ele>1173.3</ele>
        <time>2022-01-30T10:32:52Z</time>
      </trkpt>
      <trkpt lat="41.8768870" lon="-2.8129250">
        <ele>1173.4</ele>
        <time>2022-01-30T10:32:53Z</time>
      </trkpt>
      <trkpt lat="41.8769050" lon="-2.8129230">
        <ele>1173.4</ele>
        <time>2022-01-30T10:32:54Z</time>
      </trkpt>
      <trkpt lat="41.8769220" lon="-2.8129230">
        <ele>1173.4</ele>
        <time>2022-01-30T10:32:55Z</time>
      </trkpt>
      <trkpt lat="41.8769370" lon="-2.8129220">
        <ele>1173.5</ele>
        <time>2022-01-30T10:32:56Z</time>
      </trkpt>
      <trkpt lat="41.8769530" lon="-2.8129170">
        <ele>1173.5</ele>
        <time>2022-01-30T10:32:57Z</time>
      </trkpt>
      <trkpt lat="41.8769670" lon="-2.8129080">
        <ele>1173.5</ele>
        <time>2022-01-30T10:32:58Z</time>
      </trkpt>
      <trkpt lat="41.8769800" lon="-2.8128980">
        <ele>1173.5</ele>
        <time>2022-01-30T10:32:59Z</time>
      </trkpt>
      <trkpt lat="41.8769930" lon="-2.8128900">
        <ele>1173.6</ele>
        <time>2022-01-30T10:33:00Z</time>
      </trkpt>
      <trkpt lat="41.8770120" lon="-2.8128820">
        <ele>1173.6</ele>
        <time>2022-01-30T10:33:01Z</time>
      </trkpt>
      <trkpt lat="41.8770270" lon="-2.8128730">
        <ele>1173.6</ele>
        <time>2022-01-30T10:33:02Z</time>
      </trkpt>
      <trkpt lat="41.8770450" lon="-2.8128650">
        <ele>1173.6</ele>
        <time>2022-01-30T10:33:03Z</time>
      </trkpt>
      <trkpt lat="41.8770620" lon="-2.8128570">
        <ele>1173.7</ele>
        <time>2022-01-30T10:33:04Z</time>
      </trkpt>
      <trkpt lat="41.8770800" lon="-2.8128500">
        <ele>1173.7</ele>
        <time>2022-01-30T10:33:05Z</time>
      </trkpt>
      <trkpt lat="41.8770970" lon="-2.8128450">
        <ele>1173.7</ele>
        <time>2022-01-30T10:33:06Z</time>
      </trkpt>
      <trkpt lat="41.8771150" lon="-2.8128420">
        <ele>1173.8</ele>
        <time>2022-01-30T10:33:07Z</time>
      </trkpt>
      <trkpt lat="41.8771320" lon="-2.8128400">
        <ele>1173.8</ele>
        <time>2022-01-30T10:33:08Z</time>
      </trkpt>
      <trkpt lat="41.8771500" lon="-2.8128420">
        <ele>1173.9</ele>
        <time>2022-01-30T10:33:09Z</time>
      </trkpt>
      <trkpt lat="41.8771700" lon="-2.8128430">
        <ele>1174.0</ele>
        <time>2022-01-30T10:33:10Z</time>
      </trkpt>
      <trkpt lat="41.8771930" lon="-2.8128450">
        <ele>1174.1</ele>
        <time>2022-01-30T10:33:11Z</time>
      </trkpt>
      <trkpt lat="41.8772170" lon="-2.8128470">
        <ele>1174.2</ele>
        <time>2022-01-30T10:33:12Z</time>
      </trkpt>
      <trkpt lat="41.8772380" lon="-2.8128500">
        <ele>1174.4</ele>
        <time>2022-01-30T10:33:13Z</time>
      </trkpt>
      <trkpt lat="41.8772600" lon="-2.8128530">
        <ele>1174.5</ele>
        <time>2022-01-30T10:33:14Z</time>
      </trkpt>
      <trkpt lat="41.8772820" lon="-2.8128580">
        <ele>1174.7</ele>
        <time>2022-01-30T10:33:15Z</time>
      </trkpt>
      <trkpt lat="41.8772980" lon="-2.8128650">
        <ele>1174.8</ele>
        <time>2022-01-30T10:33:16Z</time>
      </trkpt>
      <trkpt lat="41.8773170" lon="-2.8128720">
        <ele>1174.9</ele>
        <time>2022-01-30T10:33:17Z</time>
      </trkpt>
      <trkpt lat="41.8773330" lon="-2.8128780">
        <ele>1175.0</ele>
        <time>2022-01-30T10:33:18Z</time>
      </trkpt>
      <trkpt lat="41.8773530" lon="-2.8128880">
        <ele>1175.2</ele>
        <time>2022-01-30T10:33:19Z</time>
      </trkpt>
      <trkpt lat="41.8773730" lon="-2.8129000">
        <ele>1175.3</ele>
        <time>2022-01-30T10:33:20Z</time>
      </trkpt>
      <trkpt lat="41.8773930" lon="-2.8129100">
        <ele>1175.5</ele>
        <time>2022-01-30T10:33:21Z</time>
      </trkpt>
      <trkpt lat="41.8774120" lon="-2.8129180">
        <ele>1175.6</ele>
        <time>2022-01-30T10:33:22Z</time>
      </trkpt>
      <trkpt lat="41.8774320" lon="-2.8129270">
        <ele>1175.7</ele>
        <time>2022-01-30T10:33:23Z</time>
      </trkpt>
      <trkpt lat="41.8774520" lon="-2.8129330">
        <ele>1175.9</ele>
        <time>2022-01-30T10:33:24Z</time>
      </trkpt>
      <trkpt lat="41.8774700" lon="-2.8129380">
        <ele>1176.0</ele>
        <time>2022-01-30T10:33:25Z</time>
      </trkpt>
      <trkpt lat="41.8774880" lon="-2.8129430">
        <ele>1176.1</ele>
        <time>2022-01-30T10:33:26Z</time>
      </trkpt>
      <trkpt lat="41.8775050" lon="-2.8129450">
        <ele>1176.2</ele>
        <time>2022-01-30T10:33:27Z</time>
      </trkpt>
      <trkpt lat="41.8775200" lon="-2.8129430">
        <ele>1176.3</ele>
        <time>2022-01-30T10:33:28Z</time>
      </trkpt>
      <trkpt lat="41.8775370" lon="-2.8129420">
        <ele>1176.5</ele>
        <time>2022-01-30T10:33:29Z</time>
      </trkpt>
      <trkpt lat="41.8775530" lon="-2.8129400">
        <ele>1176.6</ele>
        <time>2022-01-30T10:33:30Z</time>
      </trkpt>
      <trkpt lat="41.8775700" lon="-2.8129380">
        <ele>1176.8</ele>
        <time>2022-01-30T10:33:31Z</time>
      </trkpt>
      <trkpt lat="41.8775900" lon="-2.8129380">
        <ele>1176.9</ele>
        <time>2022-01-30T10:33:32Z</time>
      </trkpt>
      <trkpt lat="41.8776070" lon="-2.8129400">
        <ele>1177.1</ele>
        <time>2022-01-30T10:33:33Z</time>
      </trkpt>
      <trkpt lat="41.8776250" lon="-2.8129420">
        <ele>1177.3</ele>
        <time>2022-01-30T10:33:34Z</time>
      </trkpt>
      <trkpt lat="41.8776420" lon="-2.8129450">
        <ele>1177.5</ele>
        <time>2022-01-30T10:33:35Z</time>
      </trkpt>
      <trkpt lat="41.8776580" lon="-2.8129480">
        <ele>1177.6</ele>
        <time>2022-01-30T10:33:36Z</time>
      </trkpt>
      <trkpt lat="41.8776750" lon="-2.8129480">
        <ele>1177.8</ele>
        <time>2022-01-30T10:33:37Z</time>
      </trkpt>
      <trkpt lat="41.8776930" lon="-2.8129450">
        <ele>1178.0</ele>
        <time>2022-01-30T10:33:38Z</time>
      </trkpt>
      <trkpt lat="41.8777080" lon="-2.8129430">
        <ele>1178.2</ele>
        <time>2022-01-30T10:33:39Z</time>
      </trkpt>
      <trkpt lat="41.8777220" lon="-2.8129400">
        <ele>1178.3</ele>
        <time>2022-01-30T10:33:40Z</time>
      </trkpt>
      <trkpt lat="41.8777370" lon="-2.8129380">
        <ele>1178.5</ele>
        <time>2022-01-30T10:33:41Z</time>
      </trkpt>
      <trkpt lat="41.8777530" lon="-2.8129370">
        <ele>1178.6</ele>
        <time>2022-01-30T10:33:42Z</time>
      </trkpt>
      <trkpt lat="41.8777700" lon="-2.8129320">
        <ele>1178.8</ele>
        <time>2022-01-30T10:33:43Z</time>
      </trkpt>
      <trkpt lat="41.8777850" lon="-2.8129270">
        <ele>1179.0</ele>
        <time>2022-01-30T10:33:44Z</time>
      </trkpt>
      <trkpt lat="41.8778030" lon="-2.8129200">
        <ele>1179.2</ele>
        <time>2022-01-30T10:33:45Z</time>
      </trkpt>
      <trkpt lat="41.8778220" lon="-2.8129100">
        <ele>1179.4</ele>
        <time>2022-01-30T10:33:46Z</time>
      </trkpt>
      <trkpt lat="41.8778380" lon="-2.8128980">
        <ele>1179.5</ele>
        <time>2022-01-30T10:33:47Z</time>
      </trkpt>
      <trkpt lat="41.8778550" lon="-2.8128880">
        <ele>1179.7</ele>
        <time>2022-01-30T10:33:48Z</time>
      </trkpt>
      <trkpt lat="41.8778730" lon="-2.8128780">
        <ele>1179.9</ele>
        <time>2022-01-30T10:33:49Z</time>
      </trkpt>
      <trkpt lat="41.8778900" lon="-2.8128670">
        <ele>1180.0</ele>
        <time>2022-01-30T10:33:50Z</time>
      </trkpt>
      <trkpt lat="41.8779050" lon="-2.8128500">
        <ele>1180.2</ele>
        <time>2022-01-30T10:33:51Z</time>
      </trkpt>
      <trkpt lat="41.8779200" lon="-2.8128350">
        <ele>1180.3</ele>
        <time>2022-01-30T10:33:52Z</time>
      </trkpt>
      <trkpt lat="41.8779330" lon="-2.8128150">
        <ele>1180.4</ele>
        <time>2022-01-30T10:33:53Z</time>
      </trkpt>
      <trkpt lat="41.8779430" lon="-2.8127950">
        <ele>1180.5</ele>
        <time>2022-01-30T10:33:54Z</time>
      </trkpt>
      <trkpt lat="41.8779530" lon="-2.8127750">
        <ele>1180.6</ele>
        <time>2022-01-30T10:33:55Z</time>
      </trkpt>
      <trkpt lat="41.8779650" lon="-2.8127580">
        <ele>1180.7</ele>
        <time>2022-01-30T10:33:56Z</time>
      </trkpt>
      <trkpt lat="41.8779750" lon="-2.8127400">
        <ele>1180.8</ele>
        <time>2022-01-30T10:33:57Z</time>
      </trkpt>
      <trkpt lat="41.8779870" lon="-2.8127230">
        <ele>1180.8</ele>
        <time>2022-01-30T10:33:58Z</time>
      </trkpt>
      <trkpt lat="41.8780000" lon="-2.8127070">
        <ele>1180.9</ele>
        <time>2022-01-30T10:33:59Z</time>
      </trkpt>
      <trkpt lat="41.8780120" lon="-2.8126880">
        <ele>1181.0</ele>
        <time>2022-01-30T10:34:00Z</time>
      </trkpt>
      <trkpt lat="41.8780250" lon="-2.8126750">
        <ele>1181.1</ele>
        <time>2022-01-30T10:34:01Z</time>
      </trkpt>
      <trkpt lat="41.8780400" lon="-2.8126620">
        <ele>1181.1</ele>
        <time>2022-01-30T10:34:02Z</time>
      </trkpt>
      <trkpt lat="41.8780600" lon="-2.8126500">
        <ele>1181.3</ele>
        <time>2022-01-30T10:34:03Z</time>
      </trkpt>
      <trkpt lat="41.8780800" lon="-2.8126400">
        <ele>1181.4</ele>
        <time>2022-01-30T10:34:04Z</time>
      </trkpt>
      <trkpt lat="41.8781000" lon="-2.8126320">
        <ele>1181.5</ele>
        <time>2022-01-30T10:34:05Z</time>
      </trkpt>
      <trkpt lat="41.8781230" lon="-2.8126230">
        <ele>1181.6</ele>
        <time>2022-01-30T10:34:06Z</time>
      </trkpt>
      <trkpt lat="41.8781520" lon="-2.8126170">
        <ele>1181.7</ele>
        <time>2022-01-30T10:34:07Z</time>
      </trkpt>
      <trkpt lat="41.8781750" lon="-2.8126120">
        <ele>1181.9</ele>
        <time>2022-01-30T10:34:08Z</time>
      </trkpt>
      <trkpt lat="41.8781970" lon="-2.8126070">
        <ele>1182.0</ele>
        <time>2022-01-30T10:34:09Z</time>
      </trkpt>
      <trkpt lat="41.8782220" lon="-2.8126000">
        <ele>1182.1</ele>
        <time>2022-01-30T10:34:10Z</time>
      </trkpt>
      <trkpt lat="41.8782470" lon="-2.8125970">
        <ele>1182.3</ele>
        <time>2022-01-30T10:34:11Z</time>
      </trkpt>
      <trkpt lat="41.8782700" lon="-2.8125900">
        <ele>1182.5</ele>
        <time>2022-01-30T10:34:12Z</time>
      </trkpt>
      <trkpt lat="41.8782920" lon="-2.8125850">
        <ele>1182.6</ele>
        <time>2022-01-30T10:34:13Z</time>
      </trkpt>
      <trkpt lat="41.8783150" lon="-2.8125780">
        <ele>1182.8</ele>
        <time>2022-01-30T10:34:14Z</time>
      </trkpt>
      <trkpt lat="41.8783370" lon="-2.8125750">
        <ele>1183.0</ele>
        <time>2022-01-30T10:34:15Z</time>
      </trkpt>
      <trkpt lat="41.8783580" lon="-2.8125730">
        <ele>1183.2</ele>
        <time>2022-01-30T10:34:16Z</time>
      </trkpt>
      <trkpt lat="41.8783800" lon="-2.8125680">
        <ele>1183.4</ele>
        <time>2022-01-30T10:34:17Z</time>
      </trkpt>
      <trkpt lat="41.8784030" lon="-2.8125650">
        <ele>1183.6</ele>
        <time>2022-01-30T10:34:18Z</time>
      </trkpt>
      <trkpt lat="41.8784270" lon="-2.8125620">
        <ele>1183.9</ele>
        <time>2022-01-30T10:34:19Z</time>
      </trkpt>
      <trkpt lat="41.8784470" lon="-2.8125620">
        <ele>1184.1</ele>
        <time>2022-01-30T10:34:20Z</time>
      </trkpt>
      <trkpt lat="41.8784700" lon="-2.8125600">
        <ele>1184.3</ele>
        <time>2022-01-30T10:34:21Z</time>
      </trkpt>
      <trkpt lat="41.8784920" lon="-2.8125550">
        <ele>1184.6</ele>
        <time>2022-01-30T10:34:22Z</time>
      </trkpt>
      <trkpt lat="41.8785150" lon="-2.8125500">
        <ele>1184.8</ele>
        <time>2022-01-30T10:34:23Z</time>
      </trkpt>
      <trkpt lat="41.8785380" lon="-2.8125450">
        <ele>1185.0</ele>
        <time>2022-01-30T10:34:24Z</time>
      </trkpt>
      <trkpt lat="41.8785630" lon="-2.8125400">
        <ele>1185.2</ele>
        <time>2022-01-30T10:34:25Z</time>
      </trkpt>
      <trkpt lat="41.8785850" lon="-2.8125330">
        <ele>1185.4</ele>
        <time>2022-01-30T10:34:26Z</time>
      </trkpt>
      <trkpt lat="41.8786080" lon="-2.8125280">
        <ele>1185.6</ele>
        <time>2022-01-30T10:34:27Z</time>
      </trkpt>
      <trkpt lat="41.8786320" lon="-2.8125250">
        <ele>1185.7</ele>
        <time>2022-01-30T10:34:28Z</time>
      </trkpt>
      <trkpt lat="41.8786550" lon="-2.8125230">
        <ele>1185.8</ele>
        <time>2022-01-30T10:34:29Z</time>
      </trkpt>
      <trkpt lat="41.8786780" lon="-2.8125250">
        <ele>1186.0</ele>
        <time>2022-01-30T10:34:30Z</time>
      </trkpt>
      <trkpt lat="41.8787020" lon="-2.8125300">
        <ele>1186.1</ele>
        <time>2022-01-30T10:34:31Z</time>
      </trkpt>
      <trkpt lat="41.8787270" lon="-2.8125330">
        <ele>1186.2</ele>
        <time>2022-01-30T10:34:32Z</time>
      </trkpt>
      <trkpt lat="41.8787500" lon="-2.8125380">
        <ele>1186.3</ele>
        <time>2022-01-30T10:34:33Z</time>
      </trkpt>
      <trkpt lat="41.8787730" lon="-2.8125400">
        <ele>1186.5</ele>
        <time>2022-01-30T10:34:34Z</time>
      </trkpt>
      <trkpt lat="41.8787950" lon="-2.8125420">
        <ele>1186.6</ele>
        <time>2022-01-30T10:34:35Z</time>
      </trkpt>
      <trkpt lat="41.8788150" lon="-2.8125450">
        <ele>1186.7</ele>
        <time>2022-01-30T10:34:36Z</time>
      </trkpt>
      <trkpt lat="41.8788350" lon="-2.8125470">
        <ele>1186.8</ele>
        <time>2022-01-30T10:34:37Z</time>
      </trkpt>
      <trkpt lat="41.8788580" lon="-2.8125500">
        <ele>1187.0</ele>
        <time>2022-01-30T10:34:38Z</time>
      </trkpt>
      <trkpt lat="41.8788820" lon="-2.8125530">
        <ele>1187.1</ele>
        <time>2022-01-30T10:34:39Z</time>
      </trkpt>
      <trkpt lat="41.8789020" lon="-2.8125570">
        <ele>1187.2</ele>
        <time>2022-01-30T10:34:40Z</time>
      </trkpt>
      <trkpt lat="41.8789220" lon="-2.8125630">
        <ele>1187.3</ele>
        <time>2022-01-30T10:34:41Z</time>
      </trkpt>
      <trkpt lat="41.8789430" lon="-2.8125700">
        <ele>1187.4</ele>
        <time>2022-01-30T10:34:42Z</time>
      </trkpt>
      <trkpt lat="41.8789630" lon="-2.8125770">
        <ele>1187.5</ele>
        <time>2022-01-30T10:34:43Z</time>
      </trkpt>
      <trkpt lat="41.8789830" lon="-2.8125850">
        <ele>1187.6</ele>
        <time>2022-01-30T10:34:44Z</time>
      </trkpt>
      <trkpt lat="41.8790080" lon="-2.8125950">
        <ele>1187.6</ele>
        <time>2022-01-30T10:34:45Z</time>
      </trkpt>
      <trkpt lat="41.8790320" lon="-2.8126070">
        <ele>1187.7</ele>
        <time>2022-01-30T10:34:46Z</time>
      </trkpt>
      <trkpt lat="41.8790550" lon="-2.8126220">
        <ele>1187.8</ele>
        <time>2022-01-30T10:34:47Z</time>
      </trkpt>
      <trkpt lat="41.8790770" lon="-2.8126370">
        <ele>1187.9</ele>
        <time>2022-01-30T10:34:48Z</time>
      </trkpt>
      <trkpt lat="41.8791000" lon="-2.8126500">
        <ele>1188.0</ele>
        <time>2022-01-30T10:34:49Z</time>
      </trkpt>
      <trkpt lat="41.8791270" lon="-2.8126600">
        <ele>1188.0</ele>
        <time>2022-01-30T10:34:50Z</time>
      </trkpt>
      <trkpt lat="41.8791550" lon="-2.8126650">
        <ele>1188.1</ele>
        <time>2022-01-30T10:34:51Z</time>
      </trkpt>
      <trkpt lat="41.8791850" lon="-2.8126670">
        <ele>1188.1</ele>
        <time>2022-01-30T10:34:52Z</time>
      </trkpt>
      <trkpt lat="41.8792130" lon="-2.8126630">
        <ele>1188.2</ele>
        <time>2022-01-30T10:34:53Z</time>
      </trkpt>
      <trkpt lat="41.8792400" lon="-2.8126580">
        <ele>1188.2</ele>
        <time>2022-01-30T10:34:54Z</time>
      </trkpt>
      <trkpt lat="41.8792670" lon="-2.8126500">
        <ele>1188.2</ele>
        <time>2022-01-30T10:34:55Z</time>
      </trkpt>
      <trkpt lat="41.8792930" lon="-2.8126420">
        <ele>1188.2</ele>
        <time>2022-01-30T10:34:56Z</time>
      </trkpt>
      <trkpt lat="41.8793200" lon="-2.8126330">
        <ele>1188.2</ele>
        <time>2022-01-30T10:34:57Z</time>
      </trkpt>
      <trkpt lat="41.8793450" lon="-2.8126250">
        <ele>1188.2</ele>
        <time>2022-01-30T10:34:58Z</time>
      </trkpt>
      <trkpt lat="41.8793720" lon="-2.8126180">
        <ele>1188.2</ele>
        <time>2022-01-30T10:34:59Z</time>
      </trkpt>
      <trkpt lat="41.8794000" lon="-2.8126130">
        <ele>1188.2</ele>
        <time>2022-01-30T10:35:00Z</time>
      </trkpt>
      <trkpt lat="41.8794320" lon="-2.8126070">
        <ele>1188.2</ele>
        <time>2022-01-30T10:35:01Z</time>
      </trkpt>
      <trkpt lat="41.8794600" lon="-2.8126020">
        <ele>1188.2</ele>
        <time>2022-01-30T10:35:02Z</time>
      </trkpt>
      <trkpt lat="41.8794880" lon="-2.8125970">
        <ele>1188.2</ele>
        <time>2022-01-30T10:35:03Z</time>
      </trkpt>
      <trkpt lat="41.8795170" lon="-2.8125920">
        <ele>1188.2</ele>
        <time>2022-01-30T10:35:04Z</time>
      </trkpt>
      <trkpt lat="41.8795430" lon="-2.8125920">
        <ele>1188.1</ele>
        <time>2022-01-30T10:35:05Z</time>
      </trkpt>
      <trkpt lat="41.8795700" lon="-2.8125930">
        <ele>1188.1</ele>
        <time>2022-01-30T10:35:06Z</time>
      </trkpt>
      <trkpt lat="41.8795980" lon="-2.8125980">
        <ele>1188.1</ele>
        <time>2022-01-30T10:35:07Z</time>
      </trkpt>
      <trkpt lat="41.8796250" lon="-2.8126020">
        <ele>1188.1</ele>
        <time>2022-01-30T10:35:08Z</time>
      </trkpt>
      <trkpt lat="41.8796520" lon="-2.8126100">
        <ele>1188.1</ele>
        <time>2022-01-30T10:35:09Z</time>
      </trkpt>
      <trkpt lat="41.8796820" lon="-2.8126230">
        <ele>1188.1</ele>
        <time>2022-01-30T10:35:10Z</time>
      </trkpt>
      <trkpt lat="41.8797120" lon="-2.8126430">
        <ele>1188.1</ele>
        <time>2022-01-30T10:35:11Z</time>
      </trkpt>
      <trkpt lat="41.8797450" lon="-2.8126650">
        <ele>1188.2</ele>
        <time>2022-01-30T10:35:12Z</time>
      </trkpt>
      <trkpt lat="41.8797830" lon="-2.8126830">
        <ele>1188.2</ele>
        <time>2022-01-30T10:35:13Z</time>
      </trkpt>
      <trkpt lat="41.8798230" lon="-2.8126930">
        <ele>1188.3</ele>
        <time>2022-01-30T10:35:14Z</time>
      </trkpt>
      <trkpt lat="41.8798620" lon="-2.8126920">
        <ele>1188.3</ele>
        <time>2022-01-30T10:35:15Z</time>
      </trkpt>
      <trkpt lat="41.8798950" lon="-2.8126780">
        <ele>1188.4</ele>
        <time>2022-01-30T10:35:16Z</time>
      </trkpt>
      <trkpt lat="41.8799250" lon="-2.8126580">
        <ele>1188.4</ele>
        <time>2022-01-30T10:35:17Z</time>
      </trkpt>
      <trkpt lat="41.8799530" lon="-2.8126350">
        <ele>1188.4</ele>
        <time>2022-01-30T10:35:18Z</time>
      </trkpt>
      <trkpt lat="41.8799780" lon="-2.8126100">
        <ele>1188.5</ele>
        <time>2022-01-30T10:35:19Z</time>
      </trkpt>
      <trkpt lat="41.8800000" lon="-2.8125830">
        <ele>1188.5</ele>
        <time>2022-01-30T10:35:20Z</time>
      </trkpt>
      <trkpt lat="41.8800200" lon="-2.8125580">
        <ele>1188.5</ele>
        <time>2022-01-30T10:35:21Z</time>
      </trkpt>
      <trkpt lat="41.8800420" lon="-2.8125350">
        <ele>1188.5</ele>
        <time>2022-01-30T10:35:22Z</time>
      </trkpt>
      <trkpt lat="41.8800670" lon="-2.8125130">
        <ele>1188.5</ele>
        <time>2022-01-30T10:35:23Z</time>
      </trkpt>
      <trkpt lat="41.8800930" lon="-2.8124950">
        <ele>1188.6</ele>
        <time>2022-01-30T10:35:24Z</time>
      </trkpt>
      <trkpt lat="41.8801220" lon="-2.8124770">
        <ele>1188.6</ele>
        <time>2022-01-30T10:35:25Z</time>
      </trkpt>
      <trkpt lat="41.8801520" lon="-2.8124620">
        <ele>1188.7</ele>
        <time>2022-01-30T10:35:26Z</time>
      </trkpt>
      <trkpt lat="41.8801800" lon="-2.8124450">
        <ele>1188.8</ele>
        <time>2022-01-30T10:35:27Z</time>
      </trkpt>
      <trkpt lat="41.8802050" lon="-2.8124320">
        <ele>1188.9</ele>
        <time>2022-01-30T10:35:28Z</time>
      </trkpt>
      <trkpt lat="41.8802330" lon="-2.8124180">
        <ele>1188.9</ele>
        <time>2022-01-30T10:35:29Z</time>
      </trkpt>
      <trkpt lat="41.8802600" lon="-2.8124050">
        <ele>1189.0</ele>
        <time>2022-01-30T10:35:30Z</time>
      </trkpt>
      <trkpt lat="41.8802880" lon="-2.8123950">
        <ele>1189.1</ele>
        <time>2022-01-30T10:35:31Z</time>
      </trkpt>
      <trkpt lat="41.8803170" lon="-2.8123850">
        <ele>1189.1</ele>
        <time>2022-01-30T10:35:32Z</time>
      </trkpt>
      <trkpt lat="41.8803400" lon="-2.8123750">
        <ele>1189.1</ele>
        <time>2022-01-30T10:35:33Z</time>
      </trkpt>
      <trkpt lat="41.8803650" lon="-2.8123650">
        <ele>1189.1</ele>
        <time>2022-01-30T10:35:34Z</time>
      </trkpt>
      <trkpt lat="41.8803900" lon="-2.8123530">
        <ele>1189.2</ele>
        <time>2022-01-30T10:35:35Z</time>
      </trkpt>
      <trkpt lat="41.8804120" lon="-2.8123400">
        <ele>1189.2</ele>
        <time>2022-01-30T10:35:36Z</time>
      </trkpt>
      <trkpt lat="41.8804380" lon="-2.8123250">
        <ele>1189.2</ele>
        <time>2022-01-30T10:35:37Z</time>
      </trkpt>
      <trkpt lat="41.8804670" lon="-2.8123030">
        <ele>1189.3</ele>
        <time>2022-01-30T10:35:38Z</time>
      </trkpt>
      <trkpt lat="41.8804950" lon="-2.8122770">
        <ele>1189.4</ele>
        <time>2022-01-30T10:35:39Z</time>
      </trkpt>
      <trkpt lat="41.8805180" lon="-2.8122450">
        <ele>1189.4</ele>
        <time>2022-01-30T10:35:40Z</time>
      </trkpt>
      <trkpt lat="41.8805380" lon="-2.8122170">
        <ele>1189.5</ele>
        <time>2022-01-30T10:35:41Z</time>
      </trkpt>
      <trkpt lat="41.8805570" lon="-2.8121870">
        <ele>1189.7</ele>
        <time>2022-01-30T10:35:42Z</time>
      </trkpt>
      <trkpt lat="41.8805750" lon="-2.8121620">
        <ele>1189.8</ele>
        <time>2022-01-30T10:35:43Z</time>
      </trkpt>
      <trkpt lat="41.8805920" lon="-2.8121320">
        <ele>1189.9</ele>
        <time>2022-01-30T10:35:44Z</time>
      </trkpt>
      <trkpt lat="41.8806080" lon="-2.8120980">
        <ele>1190.0</ele>
        <time>2022-01-30T10:35:45Z</time>
      </trkpt>
      <trkpt lat="41.8806200" lon="-2.8120570">
        <ele>1190.2</ele>
        <time>2022-01-30T10:35:46Z</time>
      </trkpt>
      <trkpt lat="41.8806180" lon="-2.8120120">
        <ele>1190.1</ele>
        <time>2022-01-30T10:35:47Z</time>
      </trkpt>
      <trkpt lat="41.8806080" lon="-2.8119670">
        <ele>1190.0</ele>
        <time>2022-01-30T10:35:48Z</time>
      </trkpt>
      <trkpt lat="41.8805880" lon="-2.8119230">
        <ele>1190.0</ele>
        <time>2022-01-30T10:35:49Z</time>
      </trkpt>
      <trkpt lat="41.8805630" lon="-2.8118820">
        <ele>1189.8</ele>
        <time>2022-01-30T10:35:50Z</time>
      </trkpt>
      <trkpt lat="41.8805320" lon="-2.8118400">
        <ele>1189.7</ele>
        <time>2022-01-30T10:35:51Z</time>
      </trkpt>
      <trkpt lat="41.8805000" lon="-2.8118000">
        <ele>1189.5</ele>
        <time>2022-01-30T10:35:52Z</time>
      </trkpt>
      <trkpt lat="41.8804700" lon="-2.8117620">
        <ele>1189.4</ele>
        <time>2022-01-30T10:35:53Z</time>
      </trkpt>
      <trkpt lat="41.8804350" lon="-2.8117250">
        <ele>1189.2</ele>
        <time>2022-01-30T10:35:54Z</time>
      </trkpt>
      <trkpt lat="41.8804030" lon="-2.8116920">
        <ele>1189.0</ele>
        <time>2022-01-30T10:35:55Z</time>
      </trkpt>
      <trkpt lat="41.8803680" lon="-2.8116520">
        <ele>1188.8</ele>
        <time>2022-01-30T10:35:56Z</time>
      </trkpt>
      <trkpt lat="41.8803350" lon="-2.8116080">
        <ele>1188.6</ele>
        <time>2022-01-30T10:35:57Z</time>
      </trkpt>
      <trkpt lat="41.8803020" lon="-2.8115650">
        <ele>1188.4</ele>
        <time>2022-01-30T10:35:58Z</time>
      </trkpt>
      <trkpt lat="41.8802700" lon="-2.8115250">
        <ele>1188.2</ele>
        <time>2022-01-30T10:35:59Z</time>
      </trkpt>
      <trkpt lat="41.8802380" lon="-2.8114830">
        <ele>1188.0</ele>
        <time>2022-01-30T10:36:00Z</time>
      </trkpt>
      <trkpt lat="41.8802050" lon="-2.8114470">
        <ele>1187.9</ele>
        <time>2022-01-30T10:36:01Z</time>
      </trkpt>
      <trkpt lat="41.8801750" lon="-2.8114120">
        <ele>1187.8</ele>
        <time>2022-01-30T10:36:02Z</time>
      </trkpt>
      <trkpt lat="41.8801450" lon="-2.8113780">
        <ele>1187.7</ele>
        <time>2022-01-30T10:36:03Z</time>
      </trkpt>
      <trkpt lat="41.8801130" lon="-2.8113450">
        <ele>1187.6</ele>
        <time>2022-01-30T10:36:04Z</time>
      </trkpt>
      <trkpt lat="41.8800830" lon="-2.8113120">
        <ele>1187.5</ele>
        <time>2022-01-30T10:36:05Z</time>
      </trkpt>
      <trkpt lat="41.8800520" lon="-2.8112780">
        <ele>1187.4</ele>
        <time>2022-01-30T10:36:06Z</time>
      </trkpt>
      <trkpt lat="41.8800200" lon="-2.8112430">
        <ele>1187.2</ele>
        <time>2022-01-30T10:36:07Z</time>
      </trkpt>
      <trkpt lat="41.8799900" lon="-2.8112080">
        <ele>1187.1</ele>
        <time>2022-01-30T10:36:08Z</time>
      </trkpt>
      <trkpt lat="41.8799620" lon="-2.8111720">
        <ele>1187.0</ele>
        <time>2022-01-30T10:36:09Z</time>
      </trkpt>
      <trkpt lat="41.8799330" lon="-2.8111350">
        <ele>1186.8</ele>
        <time>2022-01-30T10:36:10Z</time>
      </trkpt>
      <trkpt lat="41.8799030" lon="-2.8110980">
        <ele>1186.6</ele>
        <time>2022-01-30T10:36:11Z</time>
      </trkpt>
      <trkpt lat="41.8798750" lon="-2.8110580">
        <ele>1186.4</ele>
        <time>2022-01-30T10:36:12Z</time>
      </trkpt>
      <trkpt lat="41.8798470" lon="-2.8110200">
        <ele>1186.1</ele>
        <time>2022-01-30T10:36:13Z</time>
      </trkpt>
      <trkpt lat="41.8798250" lon="-2.8109880">
        <ele>1185.9</ele>
        <time>2022-01-30T10:36:14Z</time>
      </trkpt>
      <trkpt lat="41.8798020" lon="-2.8109450">
        <ele>1185.7</ele>
        <time>2022-01-30T10:36:15Z</time>
      </trkpt>
      <trkpt lat="41.8797750" lon="-2.8108930">
        <ele>1185.3</ele>
        <time>2022-01-30T10:36:16Z</time>
      </trkpt>
      <trkpt lat="41.8797500" lon="-2.8108450">
        <ele>1185.0</ele>
        <time>2022-01-30T10:36:17Z</time>
      </trkpt>
      <trkpt lat="41.8797330" lon="-2.8108070">
        <ele>1184.7</ele>
        <time>2022-01-30T10:36:18Z</time>
      </trkpt>
      <trkpt lat="41.8797080" lon="-2.8107520">
        <ele>1184.3</ele>
        <time>2022-01-30T10:36:19Z</time>
      </trkpt>
      <trkpt lat="41.8796850" lon="-2.8106930">
        <ele>1183.9</ele>
        <time>2022-01-30T10:36:20Z</time>
      </trkpt>
      <trkpt lat="41.8796570" lon="-2.8106170">
        <ele>1183.4</ele>
        <time>2022-01-30T10:36:21Z</time>
      </trkpt>
      <trkpt lat="41.8796370" lon="-2.8105480">
        <ele>1183.1</ele>
        <time>2022-01-30T10:36:22Z</time>
      </trkpt>
      <trkpt lat="41.8796200" lon="-2.8104920">
        <ele>1182.9</ele>
        <time>2022-01-30T10:36:23Z</time>
      </trkpt>
      <trkpt lat="41.8795980" lon="-2.8104150">
        <ele>1182.5</ele>
        <time>2022-01-30T10:36:24Z</time>
      </trkpt>
      <trkpt lat="41.8795730" lon="-2.8103230">
        <ele>1181.9</ele>
        <time>2022-01-30T10:36:25Z</time>
      </trkpt>
      <trkpt lat="41.8795520" lon="-2.8102420">
        <ele>1181.2</ele>
        <time>2022-01-30T10:36:26Z</time>
      </trkpt>
      <trkpt lat="41.8795330" lon="-2.8101530">
        <ele>1180.5</ele>
        <time>2022-01-30T10:36:27Z</time>
      </trkpt>
      <trkpt lat="41.8795180" lon="-2.8100780">
        <ele>1179.9</ele>
        <time>2022-01-30T10:36:28Z</time>
      </trkpt>
      <trkpt lat="41.8795000" lon="-2.8099800">
        <ele>1179.2</ele>
        <time>2022-01-30T10:36:29Z</time>
      </trkpt>
      <trkpt lat="41.8794800" lon="-2.8098570">
        <ele>1178.5</ele>
        <time>2022-01-30T10:36:30Z</time>
      </trkpt>
      <trkpt lat="41.8794620" lon="-2.8097480">
        <ele>1178.0</ele>
        <time>2022-01-30T10:36:31Z</time>
      </trkpt>
      <trkpt lat="41.8794480" lon="-2.8096620">
        <ele>1177.6</ele>
        <time>2022-01-30T10:36:32Z</time>
      </trkpt>
      <trkpt lat="41.8794330" lon="-2.8095520">
        <ele>1177.1</ele>
        <time>2022-01-30T10:36:33Z</time>
      </trkpt>
      <trkpt lat="41.8794270" lon="-2.8094400">
        <ele>1176.5</ele>
        <time>2022-01-30T10:36:34Z</time>
      </trkpt>
      <trkpt lat="41.8794300" lon="-2.8093030">
        <ele>1175.8</ele>
        <time>2022-01-30T10:36:35Z</time>
      </trkpt>
      <trkpt lat="41.8794430" lon="-2.8091880">
        <ele>1175.1</ele>
        <time>2022-01-30T10:36:36Z</time>
      </trkpt>
      <trkpt lat="41.8794650" lon="-2.8090700">
        <ele>1174.4</ele>
        <time>2022-01-30T10:36:37Z</time>
      </trkpt>
      <trkpt lat="41.8794920" lon="-2.8089750">
        <ele>1173.8</ele>
        <time>2022-01-30T10:36:38Z</time>
      </trkpt>
      <trkpt lat="41.8795380" lon="-2.8088380">
        <ele>1172.9</ele>
        <time>2022-01-30T10:36:39Z</time>
      </trkpt>
      <trkpt lat="41.8795880" lon="-2.8087280">
        <ele>1172.1</ele>
        <time>2022-01-30T10:36:40Z</time>
      </trkpt>
      <trkpt lat="41.8796450" lon="-2.8086170">
        <ele>1171.6</ele>
        <time>2022-01-30T10:36:41Z</time>
      </trkpt>
      <trkpt lat="41.8797030" lon="-2.8085030">
        <ele>1171.2</ele>
        <time>2022-01-30T10:36:42Z</time>
      </trkpt>
      <trkpt lat="41.8797630" lon="-2.8083920">
        <ele>1170.9</ele>
        <time>2022-01-30T10:36:43Z</time>
      </trkpt>
      <trkpt lat="41.8798180" lon="-2.8082830">
        <ele>1170.9</ele>
        <time>2022-01-30T10:36:44Z</time>
      </trkpt>
      <trkpt lat="41.8798630" lon="-2.8081750">
        <ele>1171.0</ele>
        <time>2022-01-30T10:36:45Z</time>
      </trkpt>
      <trkpt lat="41.8799020" lon="-2.8080650">
        <ele>1171.1</ele>
        <time>2022-01-30T10:36:46Z</time>
      </trkpt>
      <trkpt lat="41.8799270" lon="-2.8079600">
        <ele>1171.3</ele>
        <time>2022-01-30T10:36:47Z</time>
      </trkpt>
      <trkpt lat="41.8799450" lon="-2.8078600">
        <ele>1171.5</ele>
        <time>2022-01-30T10:36:48Z</time>
      </trkpt>
      <trkpt lat="41.8799580" lon="-2.8077700">
        <ele>1171.6</ele>
        <time>2022-01-30T10:36:49Z</time>
      </trkpt>
      <trkpt lat="41.8799700" lon="-2.8076880">
        <ele>1171.7</ele>
        <time>2022-01-30T10:36:50Z</time>
      </trkpt>
      <trkpt lat="41.8799820" lon="-2.8076220">
        <ele>1171.8</ele>
        <time>2022-01-30T10:36:51Z</time>
      </trkpt>
      <trkpt lat="41.8799880" lon="-2.8075730">
        <ele>1171.7</ele>
        <time>2022-01-30T10:36:52Z</time>
      </trkpt>
      <trkpt lat="41.8799980" lon="-2.8075020">
        <ele>1171.7</ele>
        <time>2022-01-30T10:36:53Z</time>
      </trkpt>
      <trkpt lat="41.8800100" lon="-2.8074470">
        <ele>1171.6</ele>
        <time>2022-01-30T10:36:54Z</time>
      </trkpt>
      <trkpt lat="41.8800150" lon="-2.8073930">
        <ele>1171.6</ele>
        <time>2022-01-30T10:36:55Z</time>
      </trkpt>
      <trkpt lat="41.8800170" lon="-2.8073380">
        <ele>1171.5</ele>
        <time>2022-01-30T10:36:56Z</time>
      </trkpt>
      <trkpt lat="41.8800180" lon="-2.8072880">
        <ele>1171.5</ele>
        <time>2022-01-30T10:36:57Z</time>
      </trkpt>
      <trkpt lat="41.8800250" lon="-2.8072450">
        <ele>1171.5</ele>
        <time>2022-01-30T10:36:58Z</time>
      </trkpt>
      <trkpt lat="41.8800320" lon="-2.8072080">
        <ele>1171.5</ele>
        <time>2022-01-30T10:36:59Z</time>
      </trkpt>
      <trkpt lat="41.8800370" lon="-2.8071780">
        <ele>1171.9</ele>
        <time>2022-01-30T10:37:00Z</time>
      </trkpt>
      <trkpt lat="41.8800430" lon="-2.8071520">
        <ele>1173.0</ele>
        <time>2022-01-30T10:37:01Z</time>
      </trkpt>
      <trkpt lat="41.8800520" lon="-2.8071250">
        <ele>1173.0</ele>
        <time>2022-01-30T10:37:02Z</time>
      </trkpt>
      <trkpt lat="41.8800550" lon="-2.8070970">
        <ele>1173.0</ele>
        <time>2022-01-30T10:37:03Z</time>
      </trkpt>
      <trkpt lat="41.8800620" lon="-2.8070700">
        <ele>1173.0</ele>
        <time>2022-01-30T10:37:04Z</time>
      </trkpt>
      <trkpt lat="41.8800670" lon="-2.8070430">
        <ele>1173.0</ele>
        <time>2022-01-30T10:37:05Z</time>
      </trkpt>
      <trkpt lat="41.8800700" lon="-2.8070150">
        <ele>1173.0</ele>
        <time>2022-01-30T10:37:06Z</time>
      </trkpt>
      <trkpt lat="41.8800780" lon="-2.8069900">
        <ele>1173.7</ele>
        <time>2022-01-30T10:37:07Z</time>
      </trkpt>
      <trkpt lat="41.8800870" lon="-2.8069680">
        <ele>1173.7</ele>
        <time>2022-01-30T10:37:08Z</time>
      </trkpt>
      <trkpt lat="41.8800980" lon="-2.8069480">
        <ele>1173.7</ele>
        <time>2022-01-30T10:37:09Z</time>
      </trkpt>
      <trkpt lat="41.8801120" lon="-2.8069280">
        <ele>1173.7</ele>
        <time>2022-01-30T10:37:10Z</time>
      </trkpt>
      <trkpt lat="41.8801220" lon="-2.8069080">
        <ele>1173.7</ele>
        <time>2022-01-30T10:37:11Z</time>
      </trkpt>
      <trkpt lat="41.8801330" lon="-2.8068850">
        <ele>1173.7</ele>
        <time>2022-01-30T10:37:12Z</time>
      </trkpt>
      <trkpt lat="41.8801420" lon="-2.8068620">
        <ele>1173.7</ele>
        <time>2022-01-30T10:37:13Z</time>
      </trkpt>
      <trkpt lat="41.8801500" lon="-2.8068370">
        <ele>1173.7</ele>
        <time>2022-01-30T10:37:14Z</time>
      </trkpt>
      <trkpt lat="41.8801570" lon="-2.8068170">
        <ele>1174.4</ele>
        <time>2022-01-30T10:37:15Z</time>
      </trkpt>
      <trkpt lat="41.8801680" lon="-2.8067850">
        <ele>1174.4</ele>
        <time>2022-01-30T10:37:16Z</time>
      </trkpt>
      <trkpt lat="41.8801730" lon="-2.8067580">
        <ele>1175.5</ele>
        <time>2022-01-30T10:37:17Z</time>
      </trkpt>
      <trkpt lat="41.8801800" lon="-2.8067300">
        <ele>1175.5</ele>
        <time>2022-01-30T10:37:18Z</time>
      </trkpt>
      <trkpt lat="41.8801900" lon="-2.8067070">
        <ele>1175.6</ele>
        <time>2022-01-30T10:37:19Z</time>
      </trkpt>
      <trkpt lat="41.8802030" lon="-2.8066830">
        <ele>1175.6</ele>
        <time>2022-01-30T10:37:20Z</time>
      </trkpt>
      <trkpt lat="41.8802130" lon="-2.8066620">
        <ele>1176.5</ele>
        <time>2022-01-30T10:37:21Z</time>
      </trkpt>
      <trkpt lat="41.8802250" lon="-2.8066400">
        <ele>1176.5</ele>
        <time>2022-01-30T10:37:22Z</time>
      </trkpt>
      <trkpt lat="41.8802370" lon="-2.8066200">
        <ele>1176.5</ele>
        <time>2022-01-30T10:37:23Z</time>
      </trkpt>
      <trkpt lat="41.8802480" lon="-2.8065980">
        <ele>1176.5</ele>
        <time>2022-01-30T10:37:24Z</time>
      </trkpt>
      <trkpt lat="41.8802570" lon="-2.8065770">
        <ele>1176.5</ele>
        <time>2022-01-30T10:37:25Z</time>
      </trkpt>
      <trkpt lat="41.8802650" lon="-2.8065530">
        <ele>1176.5</ele>
        <time>2022-01-30T10:37:26Z</time>
      </trkpt>
      <trkpt lat="41.8802750" lon="-2.8065320">
        <ele>1176.5</ele>
        <time>2022-01-30T10:37:27Z</time>
      </trkpt>
      <trkpt lat="41.8802850" lon="-2.8065150">
        <ele>1176.5</ele>
        <time>2022-01-30T10:37:28Z</time>
      </trkpt>
      <trkpt lat="41.8802980" lon="-2.8064950">
        <ele>1178.1</ele>
        <time>2022-01-30T10:37:29Z</time>
      </trkpt>
      <trkpt lat="41.8803150" lon="-2.8064800">
        <ele>1179.2</ele>
        <time>2022-01-30T10:37:30Z</time>
      </trkpt>
      <trkpt lat="41.8803280" lon="-2.8064650">
        <ele>1179.2</ele>
        <time>2022-01-30T10:37:31Z</time>
      </trkpt>
      <trkpt lat="41.8803400" lon="-2.8064530">
        <ele>1179.2</ele>
        <time>2022-01-30T10:37:32Z</time>
      </trkpt>
      <trkpt lat="41.8803550" lon="-2.8064420">
        <ele>1179.2</ele>
        <time>2022-01-30T10:37:33Z</time>
      </trkpt>
      <trkpt lat="41.8803670" lon="-2.8064300">
        <ele>1179.3</ele>
        <time>2022-01-30T10:37:34Z</time>
      </trkpt>
      <trkpt lat="41.8803830" lon="-2.8064150">
        <ele>1179.3</ele>
        <time>2022-01-30T10:37:35Z</time>
      </trkpt>
      <trkpt lat="41.8803980" lon="-2.8064020">
        <ele>1179.3</ele>
        <time>2022-01-30T10:37:36Z</time>
      </trkpt>
      <trkpt lat="41.8804130" lon="-2.8063920">
        <ele>1179.3</ele>
        <time>2022-01-30T10:37:37Z</time>
      </trkpt>
      <trkpt lat="41.8804300" lon="-2.8063830">
        <ele>1180.9</ele>
        <time>2022-01-30T10:37:38Z</time>
      </trkpt>
      <trkpt lat="41.8804470" lon="-2.8063780">
        <ele>1180.9</ele>
        <time>2022-01-30T10:37:39Z</time>
      </trkpt>
      <trkpt lat="41.8804670" lon="-2.8063670">
        <ele>1180.9</ele>
        <time>2022-01-30T10:37:40Z</time>
      </trkpt>
      <trkpt lat="41.8804830" lon="-2.8063570">
        <ele>1180.9</ele>
        <time>2022-01-30T10:37:41Z</time>
      </trkpt>
      <trkpt lat="41.8804970" lon="-2.8063450">
        <ele>1180.9</ele>
        <time>2022-01-30T10:37:42Z</time>
      </trkpt>
      <trkpt lat="41.8805130" lon="-2.8063330">
        <ele>1180.9</ele>
        <time>2022-01-30T10:37:43Z</time>
      </trkpt>
      <trkpt lat="41.8805280" lon="-2.8063220">
        <ele>1180.9</ele>
        <time>2022-01-30T10:37:44Z</time>
      </trkpt>
      <trkpt lat="41.8805400" lon="-2.8063070">
        <ele>1182.1</ele>
        <time>2022-01-30T10:37:45Z</time>
      </trkpt>
      <trkpt lat="41.8805530" lon="-2.8062930">
        <ele>1182.1</ele>
        <time>2022-01-30T10:37:46Z</time>
      </trkpt>
      <trkpt lat="41.8805650" lon="-2.8062800">
        <ele>1184.1</ele>
        <time>2022-01-30T10:37:47Z</time>
      </trkpt>
      <trkpt lat="41.8805730" lon="-2.8062720">
        <ele>1184.1</ele>
        <time>2022-01-30T10:37:48Z</time>
      </trkpt>
      <trkpt lat="41.8805850" lon="-2.8062580">
        <ele>1184.1</ele>
        <time>2022-01-30T10:37:49Z</time>
      </trkpt>
      <trkpt lat="41.8805980" lon="-2.8062470">
        <ele>1184.1</ele>
        <time>2022-01-30T10:37:50Z</time>
      </trkpt>
      <trkpt lat="41.8806100" lon="-2.8062370">
        <ele>1184.1</ele>
        <time>2022-01-30T10:37:51Z</time>
      </trkpt>
      <trkpt lat="41.8806220" lon="-2.8062230">
        <ele>1184.1</ele>
        <time>2022-01-30T10:37:52Z</time>
      </trkpt>
      <trkpt lat="41.8806300" lon="-2.8062100">
        <ele>1184.1</ele>
        <time>2022-01-30T10:37:53Z</time>
      </trkpt>
      <trkpt lat="41.8806380" lon="-2.8061970">
        <ele>1184.1</ele>
        <time>2022-01-30T10:37:54Z</time>
      </trkpt>
      <trkpt lat="41.8806500" lon="-2.8061820">
        <ele>1184.1</ele>
        <time>2022-01-30T10:37:55Z</time>
      </trkpt>
      <trkpt lat="41.8806630" lon="-2.8061670">
        <ele>1184.1</ele>
        <time>2022-01-30T10:37:56Z</time>
      </trkpt>
      <trkpt lat="41.8806720" lon="-2.8061500">
        <ele>1184.1</ele>
        <time>2022-01-30T10:37:57Z</time>
      </trkpt>
      <trkpt lat="41.8806800" lon="-2.8061320">
        <ele>1185.5</ele>
        <time>2022-01-30T10:37:58Z</time>
      </trkpt>
      <trkpt lat="41.8806870" lon="-2.8061130">
        <ele>1187.2</ele>
        <time>2022-01-30T10:37:59Z</time>
      </trkpt>
      <trkpt lat="41.8806970" lon="-2.8060970">
        <ele>1187.2</ele>
        <time>2022-01-30T10:38:00Z</time>
      </trkpt>
      <trkpt lat="41.8807080" lon="-2.8060780">
        <ele>1187.2</ele>
        <time>2022-01-30T10:38:01Z</time>
      </trkpt>
      <trkpt lat="41.8807180" lon="-2.8060600">
        <ele>1187.2</ele>
        <time>2022-01-30T10:38:02Z</time>
      </trkpt>
      <trkpt lat="41.8807280" lon="-2.8060430">
        <ele>1187.2</ele>
        <time>2022-01-30T10:38:03Z</time>
      </trkpt>
      <trkpt lat="41.8807380" lon="-2.8060230">
        <ele>1187.2</ele>
        <time>2022-01-30T10:38:04Z</time>
      </trkpt>
      <trkpt lat="41.8807480" lon="-2.8060020">
        <ele>1187.2</ele>
        <time>2022-01-30T10:38:05Z</time>
      </trkpt>
      <trkpt lat="41.8807600" lon="-2.8059820">
        <ele>1187.2</ele>
        <time>2022-01-30T10:38:06Z</time>
      </trkpt>
      <trkpt lat="41.8807700" lon="-2.8059650">
        <ele>1188.4</ele>
        <time>2022-01-30T10:38:07Z</time>
      </trkpt>
      <trkpt lat="41.8807820" lon="-2.8059470">
        <ele>1188.4</ele>
        <time>2022-01-30T10:38:08Z</time>
      </trkpt>
      <trkpt lat="41.8807930" lon="-2.8059280">
        <ele>1188.4</ele>
        <time>2022-01-30T10:38:09Z</time>
      </trkpt>
      <trkpt lat="41.8808030" lon="-2.8059130">
        <ele>1188.4</ele>
        <time>2022-01-30T10:38:10Z</time>
      </trkpt>
      <trkpt lat="41.8808130" lon="-2.8059000">
        <ele>1190.3</ele>
        <time>2022-01-30T10:38:11Z</time>
      </trkpt>
      <trkpt lat="41.8808250" lon="-2.8058870">
        <ele>1190.3</ele>
        <time>2022-01-30T10:38:12Z</time>
      </trkpt>
      <trkpt lat="41.8808350" lon="-2.8058730">
        <ele>1190.3</ele>
        <time>2022-01-30T10:38:13Z</time>
      </trkpt>
      <trkpt lat="41.8808470" lon="-2.8058600">
        <ele>1190.3</ele>
        <time>2022-01-30T10:38:14Z</time>
      </trkpt>
      <trkpt lat="41.8808580" lon="-2.8058470">
        <ele>1190.3</ele>
        <time>2022-01-30T10:38:15Z</time>
      </trkpt>
      <trkpt lat="41.8808700" lon="-2.8058330">
        <ele>1190.3</ele>
        <time>2022-01-30T10:38:16Z</time>
      </trkpt>
      <trkpt lat="41.8808780" lon="-2.8058200">
        <ele>1190.3</ele>
        <time>2022-01-30T10:38:17Z</time>
      </trkpt>
      <trkpt lat="41.8808870" lon="-2.8058070">
        <ele>1190.3</ele>
        <time>2022-01-30T10:38:18Z</time>
      </trkpt>
      <trkpt lat="41.8808950" lon="-2.8057920">
        <ele>1191.9</ele>
        <time>2022-01-30T10:38:19Z</time>
      </trkpt>
      <trkpt lat="41.8809050" lon="-2.8057750">
        <ele>1191.9</ele>
        <time>2022-01-30T10:38:20Z</time>
      </trkpt>
      <trkpt lat="41.8809120" lon="-2.8057580">
        <ele>1191.9</ele>
        <time>2022-01-30T10:38:21Z</time>
      </trkpt>
      <trkpt lat="41.8809180" lon="-2.8057430">
        <ele>1191.9</ele>
        <time>2022-01-30T10:38:22Z</time>
      </trkpt>
      <trkpt lat="41.8809270" lon="-2.8057280">
        <ele>1191.9</ele>
        <time>2022-01-30T10:38:23Z</time>
      </trkpt>
      <trkpt lat="41.8809350" lon="-2.8057150">
        <ele>1191.9</ele>
        <time>2022-01-30T10:38:24Z</time>
      </trkpt>
      <trkpt lat="41.8809450" lon="-2.8057020">
        <ele>1193.9</ele>
        <time>2022-01-30T10:38:25Z</time>
      </trkpt>
      <trkpt lat="41.8809570" lon="-2.8056880">
        <ele>1193.9</ele>
        <time>2022-01-30T10:38:26Z</time>
      </trkpt>
      <trkpt lat="41.8809670" lon="-2.8056750">
        <ele>1193.9</ele>
        <time>2022-01-30T10:38:27Z</time>
      </trkpt>
      <trkpt lat="41.8809780" lon="-2.8056620">
        <ele>1193.9</ele>
        <time>2022-01-30T10:38:28Z</time>
      </trkpt>
      <trkpt lat="41.8809900" lon="-2.8056470">
        <ele>1193.9</ele>
        <time>2022-01-30T10:38:29Z</time>
      </trkpt>
      <trkpt lat="41.8810030" lon="-2.8056330">
        <ele>1195.5</ele>
        <time>2022-01-30T10:38:30Z</time>
      </trkpt>
      <trkpt lat="41.8810150" lon="-2.8056230">
        <ele>1195.5</ele>
        <time>2022-01-30T10:38:31Z</time>
      </trkpt>
      <trkpt lat="41.8810230" lon="-2.8056080">
        <ele>1195.5</ele>
        <time>2022-01-30T10:38:32Z</time>
      </trkpt>
      <trkpt lat="41.8810320" lon="-2.8055950">
        <ele>1195.5</ele>
        <time>2022-01-30T10:38:33Z</time>
      </trkpt>
      <trkpt lat="41.8810430" lon="-2.8055800">
        <ele>1195.5</ele>
        <time>2022-01-30T10:38:34Z</time>
      </trkpt>
      <trkpt lat="41.8810530" lon="-2.8055670">
        <ele>1195.5</ele>
        <time>2022-01-30T10:38:35Z</time>
      </trkpt>
      <trkpt lat="41.8810650" lon="-2.8055550">
        <ele>1197.6</ele>
        <time>2022-01-30T10:38:36Z</time>
      </trkpt>
      <trkpt lat="41.8810770" lon="-2.8055430">
        <ele>1197.6</ele>
        <time>2022-01-30T10:38:37Z</time>
      </trkpt>
      <trkpt lat="41.8810900" lon="-2.8055280">
        <ele>1197.6</ele>
        <time>2022-01-30T10:38:38Z</time>
      </trkpt>
      <trkpt lat="41.8810980" lon="-2.8055170">
        <ele>1197.6</ele>
        <time>2022-01-30T10:38:39Z</time>
      </trkpt>
      <trkpt lat="41.8811080" lon="-2.8055020">
        <ele>1197.6</ele>
        <time>2022-01-30T10:38:40Z</time>
      </trkpt>
      <trkpt lat="41.8811180" lon="-2.8054830">
        <ele>1197.6</ele>
        <time>2022-01-30T10:38:41Z</time>
      </trkpt>
      <trkpt lat="41.8811280" lon="-2.8054650">
        <ele>1197.6</ele>
        <time>2022-01-30T10:38:42Z</time>
      </trkpt>
      <trkpt lat="41.8811380" lon="-2.8054470">
        <ele>1198.9</ele>
        <time>2022-01-30T10:38:43Z</time>
      </trkpt>
      <trkpt lat="41.8811450" lon="-2.8054270">
        <ele>1198.9</ele>
        <time>2022-01-30T10:38:44Z</time>
      </trkpt>
      <trkpt lat="41.8811530" lon="-2.8054080">
        <ele>1198.9</ele>
        <time>2022-01-30T10:38:45Z</time>
      </trkpt>
      <trkpt lat="41.8811600" lon="-2.8053920">
        <ele>1198.9</ele>
        <time>2022-01-30T10:38:46Z</time>
      </trkpt>
      <trkpt lat="41.8811680" lon="-2.8053720">
        <ele>1198.9</ele>
        <time>2022-01-30T10:38:47Z</time>
      </trkpt>
      <trkpt lat="41.8811770" lon="-2.8053520">
        <ele>1198.9</ele>
        <time>2022-01-30T10:38:48Z</time>
      </trkpt>
      <trkpt lat="41.8811880" lon="-2.8053350">
        <ele>1198.9</ele>
        <time>2022-01-30T10:38:49Z</time>
      </trkpt>
      <trkpt lat="41.8811970" lon="-2.8053180">
        <ele>1200.6</ele>
        <time>2022-01-30T10:38:50Z</time>
      </trkpt>
      <trkpt lat="41.8812050" lon="-2.8053020">
        <ele>1200.6</ele>
        <time>2022-01-30T10:38:51Z</time>
      </trkpt>
      <trkpt lat="41.8812150" lon="-2.8052870">
        <ele>1201.9</ele>
        <time>2022-01-30T10:38:52Z</time>
      </trkpt>
      <trkpt lat="41.8812270" lon="-2.8052720">
        <ele>1201.9</ele>
        <time>2022-01-30T10:38:53Z</time>
      </trkpt>
      <trkpt lat="41.8812400" lon="-2.8052570">
        <ele>1201.9</ele>
        <time>2022-01-30T10:38:54Z</time>
      </trkpt>
      <trkpt lat="41.8812520" lon="-2.8052420">
        <ele>1201.9</ele>
        <time>2022-01-30T10:38:55Z</time>
      </trkpt>
      <trkpt lat="41.8812620" lon="-2.8052280">
        <ele>1201.9</ele>
        <time>2022-01-30T10:38:56Z</time>
      </trkpt>
      <trkpt lat="41.8812680" lon="-2.8052100">
        <ele>1201.9</ele>
        <time>2022-01-30T10:38:57Z</time>
      </trkpt>
      <trkpt lat="41.8812750" lon="-2.8051920">
        <ele>1201.9</ele>
        <time>2022-01-30T10:38:58Z</time>
      </trkpt>
      <trkpt lat="41.8812800" lon="-2.8051750">
        <ele>1201.9</ele>
        <time>2022-01-30T10:38:59Z</time>
      </trkpt>
      <trkpt lat="41.8812870" lon="-2.8051570">
        <ele>1201.9</ele>
        <time>2022-01-30T10:39:00Z</time>
      </trkpt>
      <trkpt lat="41.8812930" lon="-2.8051420">
        <ele>1201.9</ele>
        <time>2022-01-30T10:39:01Z</time>
      </trkpt>
      <trkpt lat="41.8813000" lon="-2.8051300">
        <ele>1201.9</ele>
        <time>2022-01-30T10:39:02Z</time>
      </trkpt>
      <trkpt lat="41.8813100" lon="-2.8051120">
        <ele>1203.1</ele>
        <time>2022-01-30T10:39:03Z</time>
      </trkpt>
      <trkpt lat="41.8813220" lon="-2.8050970">
        <ele>1204.5</ele>
        <time>2022-01-30T10:39:04Z</time>
      </trkpt>
      <trkpt lat="41.8813320" lon="-2.8050830">
        <ele>1204.5</ele>
        <time>2022-01-30T10:39:05Z</time>
      </trkpt>
      <trkpt lat="41.8813450" lon="-2.8050700">
        <ele>1204.5</ele>
        <time>2022-01-30T10:39:06Z</time>
      </trkpt>
      <trkpt lat="41.8813550" lon="-2.8050580">
        <ele>1204.5</ele>
        <time>2022-01-30T10:39:07Z</time>
      </trkpt>
      <trkpt lat="41.8813700" lon="-2.8050420">
        <ele>1204.6</ele>
        <time>2022-01-30T10:39:08Z</time>
      </trkpt>
      <trkpt lat="41.8813830" lon="-2.8050280">
        <ele>1204.6</ele>
        <time>2022-01-30T10:39:09Z</time>
      </trkpt>
      <trkpt lat="41.8813980" lon="-2.8050180">
        <ele>1204.6</ele>
        <time>2022-01-30T10:39:10Z</time>
      </trkpt>
      <trkpt lat="41.8814120" lon="-2.8050100">
        <ele>1204.6</ele>
        <time>2022-01-30T10:39:11Z</time>
      </trkpt>
      <trkpt lat="41.8814270" lon="-2.8050030">
        <ele>1204.6</ele>
        <time>2022-01-30T10:39:12Z</time>
      </trkpt>
      <trkpt lat="41.8814380" lon="-2.8050020">
        <ele>1204.6</ele>
        <time>2022-01-30T10:39:13Z</time>
      </trkpt>
      <trkpt lat="41.8814530" lon="-2.8049970">
        <ele>1205.9</ele>
        <time>2022-01-30T10:39:14Z</time>
      </trkpt>
      <trkpt lat="41.8814650" lon="-2.8049930">
        <ele>1205.9</ele>
        <time>2022-01-30T10:39:15Z</time>
      </trkpt>
      <trkpt lat="41.8814780" lon="-2.8049900">
        <ele>1205.9</ele>
        <time>2022-01-30T10:39:16Z</time>
      </trkpt>
      <trkpt lat="41.8814950" lon="-2.8049870">
        <ele>1205.9</ele>
        <time>2022-01-30T10:39:17Z</time>
      </trkpt>
      <trkpt lat="41.8815100" lon="-2.8049830">
        <ele>1205.9</ele>
        <time>2022-01-30T10:39:18Z</time>
      </trkpt>
      <trkpt lat="41.8815270" lon="-2.8049800">
        <ele>1205.9</ele>
        <time>2022-01-30T10:39:19Z</time>
      </trkpt>
      <trkpt lat="41.8815400" lon="-2.8049750">
        <ele>1205.9</ele>
        <time>2022-01-30T10:39:20Z</time>
      </trkpt>
      <trkpt lat="41.8815500" lon="-2.8049720">
        <ele>1205.9</ele>
        <time>2022-01-30T10:39:21Z</time>
      </trkpt>
      <trkpt lat="41.8815700" lon="-2.8049630">
        <ele>1205.9</ele>
        <time>2022-01-30T10:39:22Z</time>
      </trkpt>
      <trkpt lat="41.8815850" lon="-2.8049580">
        <ele>1207.3</ele>
        <time>2022-01-30T10:39:23Z</time>
      </trkpt>
      <trkpt lat="41.8816030" lon="-2.8049530">
        <ele>1207.3</ele>
        <time>2022-01-30T10:39:24Z</time>
      </trkpt>
      <trkpt lat="41.8816180" lon="-2.8049500">
        <ele>1207.3</ele>
        <time>2022-01-30T10:39:25Z</time>
      </trkpt>
      <trkpt lat="41.8816330" lon="-2.8049480">
        <ele>1207.3</ele>
        <time>2022-01-30T10:39:26Z</time>
      </trkpt>
      <trkpt lat="41.8816480" lon="-2.8049470">
        <ele>1207.3</ele>
        <time>2022-01-30T10:39:27Z</time>
      </trkpt>
      <trkpt lat="41.8816600" lon="-2.8049420">
        <ele>1208.4</ele>
        <time>2022-01-30T10:39:28Z</time>
      </trkpt>
      <trkpt lat="41.8816720" lon="-2.8049350">
        <ele>1208.4</ele>
        <time>2022-01-30T10:39:29Z</time>
      </trkpt>
      <trkpt lat="41.8816850" lon="-2.8049270">
        <ele>1208.4</ele>
        <time>2022-01-30T10:39:30Z</time>
      </trkpt>
      <trkpt lat="41.8816950" lon="-2.8049180">
        <ele>1208.4</ele>
        <time>2022-01-30T10:39:31Z</time>
      </trkpt>
      <trkpt lat="41.8817070" lon="-2.8049080">
        <ele>1209.9</ele>
        <time>2022-01-30T10:39:32Z</time>
      </trkpt>
      <trkpt lat="41.8817130" lon="-2.8049000">
        <ele>1209.9</ele>
        <time>2022-01-30T10:39:33Z</time>
      </trkpt>
      <trkpt lat="41.8817270" lon="-2.8048930">
        <ele>1209.9</ele>
        <time>2022-01-30T10:39:34Z</time>
      </trkpt>
      <trkpt lat="41.8817350" lon="-2.8048830">
        <ele>1209.9</ele>
        <time>2022-01-30T10:39:35Z</time>
      </trkpt>
      <trkpt lat="41.8817500" lon="-2.8048700">
        <ele>1209.9</ele>
        <time>2022-01-30T10:39:36Z</time>
      </trkpt>
      <trkpt lat="41.8817600" lon="-2.8048570">
        <ele>1209.9</ele>
        <time>2022-01-30T10:39:37Z</time>
      </trkpt>
      <trkpt lat="41.8817680" lon="-2.8048450">
        <ele>1209.9</ele>
        <time>2022-01-30T10:39:38Z</time>
      </trkpt>
      <trkpt lat="41.8817780" lon="-2.8048350">
        <ele>1209.9</ele>
        <time>2022-01-30T10:39:39Z</time>
      </trkpt>
      <trkpt lat="41.8817870" lon="-2.8048220">
        <ele>1209.9</ele>
        <time>2022-01-30T10:39:40Z</time>
      </trkpt>
      <trkpt lat="41.8817950" lon="-2.8048050">
        <ele>1209.9</ele>
        <time>2022-01-30T10:39:41Z</time>
      </trkpt>
      <trkpt lat="41.8818020" lon="-2.8047870">
        <ele>1209.9</ele>
        <time>2022-01-30T10:39:42Z</time>
      </trkpt>
      <trkpt lat="41.8818080" lon="-2.8047670">
        <ele>1210.9</ele>
        <time>2022-01-30T10:39:43Z</time>
      </trkpt>
      <trkpt lat="41.8818170" lon="-2.8047470">
        <ele>1210.9</ele>
        <time>2022-01-30T10:39:44Z</time>
      </trkpt>
      <trkpt lat="41.8818250" lon="-2.8047270">
        <ele>1211.0</ele>
        <time>2022-01-30T10:39:45Z</time>
      </trkpt>
      <trkpt lat="41.8818330" lon="-2.8047050">
        <ele>1211.0</ele>
        <time>2022-01-30T10:39:46Z</time>
      </trkpt>
      <trkpt lat="41.8818430" lon="-2.8046850">
        <ele>1211.1</ele>
        <time>2022-01-30T10:39:47Z</time>
      </trkpt>
      <trkpt lat="41.8818520" lon="-2.8046670">
        <ele>1211.1</ele>
        <time>2022-01-30T10:39:48Z</time>
      </trkpt>
      <trkpt lat="41.8818620" lon="-2.8046480">
        <ele>1211.2</ele>
        <time>2022-01-30T10:39:49Z</time>
      </trkpt>
      <trkpt lat="41.8818680" lon="-2.8046320">
        <ele>1211.2</ele>
        <time>2022-01-30T10:39:50Z</time>
      </trkpt>
      <trkpt lat="41.8818770" lon="-2.8046150">
        <ele>1211.2</ele>
        <time>2022-01-30T10:39:51Z</time>
      </trkpt>
      <trkpt lat="41.8818830" lon="-2.8045980">
        <ele>1211.3</ele>
        <time>2022-01-30T10:39:52Z</time>
      </trkpt>
      <trkpt lat="41.8818900" lon="-2.8045800">
        <ele>1211.3</ele>
        <time>2022-01-30T10:39:53Z</time>
      </trkpt>
      <trkpt lat="41.8818970" lon="-2.8045630">
        <ele>1211.3</ele>
        <time>2022-01-30T10:39:54Z</time>
      </trkpt>
      <trkpt lat="41.8819030" lon="-2.8045450">
        <ele>1211.4</ele>
        <time>2022-01-30T10:39:55Z</time>
      </trkpt>
      <trkpt lat="41.8819080" lon="-2.8045280">
        <ele>1211.4</ele>
        <time>2022-01-30T10:39:56Z</time>
      </trkpt>
      <trkpt lat="41.8819170" lon="-2.8045150">
        <ele>1211.5</ele>
        <time>2022-01-30T10:39:57Z</time>
      </trkpt>
      <trkpt lat="41.8819250" lon="-2.8045000">
        <ele>1211.5</ele>
        <time>2022-01-30T10:39:58Z</time>
      </trkpt>
      <trkpt lat="41.8819330" lon="-2.8044850">
        <ele>1211.5</ele>
        <time>2022-01-30T10:39:59Z</time>
      </trkpt>
      <trkpt lat="41.8819420" lon="-2.8044700">
        <ele>1211.6</ele>
        <time>2022-01-30T10:40:00Z</time>
      </trkpt>
      <trkpt lat="41.8819500" lon="-2.8044550">
        <ele>1211.6</ele>
        <time>2022-01-30T10:40:01Z</time>
      </trkpt>
      <trkpt lat="41.8819580" lon="-2.8044380">
        <ele>1211.7</ele>
        <time>2022-01-30T10:40:02Z</time>
      </trkpt>
      <trkpt lat="41.8819670" lon="-2.8044220">
        <ele>1211.7</ele>
        <time>2022-01-30T10:40:03Z</time>
      </trkpt>
      <trkpt lat="41.8819720" lon="-2.8044020">
        <ele>1211.7</ele>
        <time>2022-01-30T10:40:04Z</time>
      </trkpt>
      <trkpt lat="41.8819770" lon="-2.8043850">
        <ele>1211.8</ele>
        <time>2022-01-30T10:40:05Z</time>
      </trkpt>
      <trkpt lat="41.8819830" lon="-2.8043680">
        <ele>1211.8</ele>
        <time>2022-01-30T10:40:06Z</time>
      </trkpt>
      <trkpt lat="41.8819870" lon="-2.8043530">
        <ele>1211.8</ele>
        <time>2022-01-30T10:40:07Z</time>
      </trkpt>
      <trkpt lat="41.8819920" lon="-2.8043320">
        <ele>1211.9</ele>
        <time>2022-01-30T10:40:08Z</time>
      </trkpt>
      <trkpt lat="41.8819930" lon="-2.8043100">
        <ele>1211.9</ele>
        <time>2022-01-30T10:40:09Z</time>
      </trkpt>
      <trkpt lat="41.8819950" lon="-2.8042880">
        <ele>1211.9</ele>
        <time>2022-01-30T10:40:10Z</time>
      </trkpt>
      <trkpt lat="41.8819980" lon="-2.8042650">
        <ele>1212.0</ele>
        <time>2022-01-30T10:40:11Z</time>
      </trkpt>
      <trkpt lat="41.8820020" lon="-2.8042400">
        <ele>1212.0</ele>
        <time>2022-01-30T10:40:12Z</time>
      </trkpt>
      <trkpt lat="41.8820050" lon="-2.8042150">
        <ele>1212.1</ele>
        <time>2022-01-30T10:40:13Z</time>
      </trkpt>
      <trkpt lat="41.8820080" lon="-2.8041870">
        <ele>1212.1</ele>
        <time>2022-01-30T10:40:14Z</time>
      </trkpt>
      <trkpt lat="41.8820120" lon="-2.8041600">
        <ele>1212.1</ele>
        <time>2022-01-30T10:40:15Z</time>
      </trkpt>
      <trkpt lat="41.8820130" lon="-2.8041380">
        <ele>1212.2</ele>
        <time>2022-01-30T10:40:16Z</time>
      </trkpt>
      <trkpt lat="41.8820170" lon="-2.8041050">
        <ele>1212.2</ele>
        <time>2022-01-30T10:40:17Z</time>
      </trkpt>
      <trkpt lat="41.8820170" lon="-2.8040780">
        <ele>1212.3</ele>
        <time>2022-01-30T10:40:18Z</time>
      </trkpt>
      <trkpt lat="41.8820170" lon="-2.8040500">
        <ele>1212.3</ele>
        <time>2022-01-30T10:40:19Z</time>
      </trkpt>
      <trkpt lat="41.8820180" lon="-2.8040220">
        <ele>1212.3</ele>
        <time>2022-01-30T10:40:20Z</time>
      </trkpt>
      <trkpt lat="41.8820180" lon="-2.8039950">
        <ele>1212.4</ele>
        <time>2022-01-30T10:40:21Z</time>
      </trkpt>
      <trkpt lat="41.8820150" lon="-2.8039650">
        <ele>1212.4</ele>
        <time>2022-01-30T10:40:22Z</time>
      </trkpt>
      <trkpt lat="41.8820120" lon="-2.8039350">
        <ele>1212.5</ele>
        <time>2022-01-30T10:40:23Z</time>
      </trkpt>
      <trkpt lat="41.8820100" lon="-2.8039050">
        <ele>1212.5</ele>
        <time>2022-01-30T10:40:24Z</time>
      </trkpt>
      <trkpt lat="41.8820080" lon="-2.8038800">
        <ele>1212.6</ele>
        <time>2022-01-30T10:40:25Z</time>
      </trkpt>
      <trkpt lat="41.8820070" lon="-2.8038480">
        <ele>1212.6</ele>
        <time>2022-01-30T10:40:26Z</time>
      </trkpt>
      <trkpt lat="41.8820030" lon="-2.8038150">
        <ele>1212.6</ele>
        <time>2022-01-30T10:40:27Z</time>
      </trkpt>
      <trkpt lat="41.8820020" lon="-2.8037850">
        <ele>1212.7</ele>
        <time>2022-01-30T10:40:28Z</time>
      </trkpt>
      <trkpt lat="41.8820000" lon="-2.8037530">
        <ele>1212.7</ele>
        <time>2022-01-30T10:40:29Z</time>
      </trkpt>
      <trkpt lat="41.8820000" lon="-2.8037220">
        <ele>1212.8</ele>
        <time>2022-01-30T10:40:30Z</time>
      </trkpt>
      <trkpt lat="41.8819980" lon="-2.8036870">
        <ele>1212.8</ele>
        <time>2022-01-30T10:40:31Z</time>
      </trkpt>
      <trkpt lat="41.8819970" lon="-2.8036550">
        <ele>1212.9</ele>
        <time>2022-01-30T10:40:32Z</time>
      </trkpt>
      <trkpt lat="41.8819950" lon="-2.8036280">
        <ele>1212.9</ele>
        <time>2022-01-30T10:40:33Z</time>
      </trkpt>
      <trkpt lat="41.8819930" lon="-2.8036020">
        <ele>1212.9</ele>
        <time>2022-01-30T10:40:34Z</time>
      </trkpt>
      <trkpt lat="41.8819920" lon="-2.8035720">
        <ele>1213.0</ele>
        <time>2022-01-30T10:40:35Z</time>
      </trkpt>
      <trkpt lat="41.8819920" lon="-2.8035430">
        <ele>1213.1</ele>
        <time>2022-01-30T10:40:36Z</time>
      </trkpt>
      <trkpt lat="41.8819900" lon="-2.8035170">
        <ele>1213.1</ele>
        <time>2022-01-30T10:40:37Z</time>
      </trkpt>
      <trkpt lat="41.8819880" lon="-2.8034900">
        <ele>1213.2</ele>
        <time>2022-01-30T10:40:38Z</time>
      </trkpt>
      <trkpt lat="41.8819880" lon="-2.8034670">
        <ele>1213.2</ele>
        <time>2022-01-30T10:40:39Z</time>
      </trkpt>
      <trkpt lat="41.8819900" lon="-2.8034350">
        <ele>1213.3</ele>
        <time>2022-01-30T10:40:40Z</time>
      </trkpt>
      <trkpt lat="41.8819900" lon="-2.8034080">
        <ele>1213.4</ele>
        <time>2022-01-30T10:40:41Z</time>
      </trkpt>
      <trkpt lat="41.8819880" lon="-2.8033830">
        <ele>1213.5</ele>
        <time>2022-01-30T10:40:42Z</time>
      </trkpt>
      <trkpt lat="41.8819900" lon="-2.8033550">
        <ele>1213.6</ele>
        <time>2022-01-30T10:40:43Z</time>
      </trkpt>
      <trkpt lat="41.8819900" lon="-2.8033280">
        <ele>1213.6</ele>
        <time>2022-01-30T10:40:44Z</time>
      </trkpt>
      <trkpt lat="41.8819920" lon="-2.8033020">
        <ele>1213.7</ele>
        <time>2022-01-30T10:40:45Z</time>
      </trkpt>
      <trkpt lat="41.8819930" lon="-2.8032750">
        <ele>1213.8</ele>
        <time>2022-01-30T10:40:46Z</time>
      </trkpt>
      <trkpt lat="41.8819930" lon="-2.8032470">
        <ele>1213.9</ele>
        <time>2022-01-30T10:40:47Z</time>
      </trkpt>
      <trkpt lat="41.8819950" lon="-2.8032180">
        <ele>1214.0</ele>
        <time>2022-01-30T10:40:48Z</time>
      </trkpt>
      <trkpt lat="41.8819970" lon="-2.8031900">
        <ele>1214.1</ele>
        <time>2022-01-30T10:40:49Z</time>
      </trkpt>
      <trkpt lat="41.8819980" lon="-2.8031630">
        <ele>1214.2</ele>
        <time>2022-01-30T10:40:50Z</time>
      </trkpt>
      <trkpt lat="41.8820000" lon="-2.8031370">
        <ele>1214.3</ele>
        <time>2022-01-30T10:40:51Z</time>
      </trkpt>
      <trkpt lat="41.8820020" lon="-2.8031100">
        <ele>1214.4</ele>
        <time>2022-01-30T10:40:52Z</time>
      </trkpt>
      <trkpt lat="41.8820050" lon="-2.8030880">
        <ele>1214.5</ele>
        <time>2022-01-30T10:40:53Z</time>
      </trkpt>
      <trkpt lat="41.8820120" lon="-2.8030570">
        <ele>1214.6</ele>
        <time>2022-01-30T10:40:54Z</time>
      </trkpt>
      <trkpt lat="41.8820170" lon="-2.8030350">
        <ele>1214.7</ele>
        <time>2022-01-30T10:40:55Z</time>
      </trkpt>
      <trkpt lat="41.8820230" lon="-2.8030020">
        <ele>1214.8</ele>
        <time>2022-01-30T10:40:56Z</time>
      </trkpt>
      <trkpt lat="41.8820300" lon="-2.8029750">
        <ele>1214.9</ele>
        <time>2022-01-30T10:40:57Z</time>
      </trkpt>
      <trkpt lat="41.8820330" lon="-2.8029470">
        <ele>1215.0</ele>
        <time>2022-01-30T10:40:58Z</time>
      </trkpt>
      <trkpt lat="41.8820400" lon="-2.8029200">
        <ele>1215.2</ele>
        <time>2022-01-30T10:40:59Z</time>
      </trkpt>
      <trkpt lat="41.8820430" lon="-2.8028930">
        <ele>1215.3</ele>
        <time>2022-01-30T10:41:00Z</time>
      </trkpt>
      <trkpt lat="41.8820500" lon="-2.8028680">
        <ele>1215.4</ele>
        <time>2022-01-30T10:41:01Z</time>
      </trkpt>
      <trkpt lat="41.8820600" lon="-2.8028420">
        <ele>1215.5</ele>
        <time>2022-01-30T10:41:02Z</time>
      </trkpt>
      <trkpt lat="41.8820730" lon="-2.8028150">
        <ele>1215.6</ele>
        <time>2022-01-30T10:41:03Z</time>
      </trkpt>
      <trkpt lat="41.8820820" lon="-2.8027920">
        <ele>1215.7</ele>
        <time>2022-01-30T10:41:04Z</time>
      </trkpt>
      <trkpt lat="41.8820930" lon="-2.8027670">
        <ele>1215.8</ele>
        <time>2022-01-30T10:41:05Z</time>
      </trkpt>
      <trkpt lat="41.8821070" lon="-2.8027420">
        <ele>1215.9</ele>
        <time>2022-01-30T10:41:06Z</time>
      </trkpt>
      <trkpt lat="41.8821200" lon="-2.8027170">
        <ele>1216.0</ele>
        <time>2022-01-30T10:41:07Z</time>
      </trkpt>
      <trkpt lat="41.8821330" lon="-2.8026950">
        <ele>1216.1</ele>
        <time>2022-01-30T10:41:08Z</time>
      </trkpt>
      <trkpt lat="41.8821470" lon="-2.8026770">
        <ele>1216.2</ele>
        <time>2022-01-30T10:41:09Z</time>
      </trkpt>
      <trkpt lat="41.8821700" lon="-2.8026630">
        <ele>1216.2</ele>
        <time>2022-01-30T10:41:10Z</time>
      </trkpt>
      <trkpt lat="41.8821920" lon="-2.8026580">
        <ele>1216.3</ele>
        <time>2022-01-30T10:41:11Z</time>
      </trkpt>
      <trkpt lat="41.8822100" lon="-2.8026600">
        <ele>1216.4</ele>
        <time>2022-01-30T10:41:12Z</time>
      </trkpt>
      <trkpt lat="41.8822370" lon="-2.8026680">
        <ele>1217.3</ele>
        <time>2022-01-30T10:41:13Z</time>
      </trkpt>
      <trkpt lat="41.8822530" lon="-2.8026830">
        <ele>1217.4</ele>
        <time>2022-01-30T10:41:14Z</time>
      </trkpt>
      <trkpt lat="41.8822720" lon="-2.8027000">
        <ele>1217.5</ele>
        <time>2022-01-30T10:41:15Z</time>
      </trkpt>
      <trkpt lat="41.8822850" lon="-2.8027200">
        <ele>1217.4</ele>
        <time>2022-01-30T10:41:16Z</time>
      </trkpt>
      <trkpt lat="41.8823000" lon="-2.8027430">
        <ele>1217.4</ele>
        <time>2022-01-30T10:41:17Z</time>
      </trkpt>
      <trkpt lat="41.8823080" lon="-2.8027670">
        <ele>1217.5</ele>
        <time>2022-01-30T10:41:18Z</time>
      </trkpt>
      <trkpt lat="41.8823150" lon="-2.8027900">
        <ele>1217.6</ele>
        <time>2022-01-30T10:41:19Z</time>
      </trkpt>
      <trkpt lat="41.8823180" lon="-2.8028120">
        <ele>1217.7</ele>
        <time>2022-01-30T10:41:20Z</time>
      </trkpt>
      <trkpt lat="41.8823250" lon="-2.8028330">
        <ele>1217.7</ele>
        <time>2022-01-30T10:41:21Z</time>
      </trkpt>
      <trkpt lat="41.8823320" lon="-2.8028580">
        <ele>1217.8</ele>
        <time>2022-01-30T10:41:22Z</time>
      </trkpt>
      <trkpt lat="41.8823420" lon="-2.8028850">
        <ele>1217.9</ele>
        <time>2022-01-30T10:41:23Z</time>
      </trkpt>
      <trkpt lat="41.8823500" lon="-2.8029100">
        <ele>1218.7</ele>
        <time>2022-01-30T10:41:24Z</time>
      </trkpt>
      <trkpt lat="41.8823730" lon="-2.8029370">
        <ele>1218.8</ele>
        <time>2022-01-30T10:41:25Z</time>
      </trkpt>
      <trkpt lat="41.8823920" lon="-2.8029470">
        <ele>1218.8</ele>
        <time>2022-01-30T10:41:26Z</time>
      </trkpt>
      <trkpt lat="41.8824080" lon="-2.8029470">
        <ele>1218.9</ele>
        <time>2022-01-30T10:41:27Z</time>
      </trkpt>
      <trkpt lat="41.8824250" lon="-2.8029400">
        <ele>1219.0</ele>
        <time>2022-01-30T10:41:28Z</time>
      </trkpt>
      <trkpt lat="41.8824450" lon="-2.8029250">
        <ele>1219.1</ele>
        <time>2022-01-30T10:41:29Z</time>
      </trkpt>
      <trkpt lat="41.8824580" lon="-2.8029130">
        <ele>1219.1</ele>
        <time>2022-01-30T10:41:30Z</time>
      </trkpt>
      <trkpt lat="41.8824720" lon="-2.8029080">
        <ele>1220.5</ele>
        <time>2022-01-30T10:41:31Z</time>
      </trkpt>
      <trkpt lat="41.8824950" lon="-2.8029000">
        <ele>1220.6</ele>
        <time>2022-01-30T10:41:32Z</time>
      </trkpt>
      <trkpt lat="41.8825170" lon="-2.8028930">
        <ele>1220.7</ele>
        <time>2022-01-30T10:41:33Z</time>
      </trkpt>
      <trkpt lat="41.8825380" lon="-2.8028850">
        <ele>1220.9</ele>
        <time>2022-01-30T10:41:34Z</time>
      </trkpt>
      <trkpt lat="41.8825580" lon="-2.8028800">
        <ele>1221.0</ele>
        <time>2022-01-30T10:41:35Z</time>
      </trkpt>
      <trkpt lat="41.8825800" lon="-2.8028800">
        <ele>1221.0</ele>
        <time>2022-01-30T10:41:36Z</time>
      </trkpt>
      <trkpt lat="41.8826000" lon="-2.8028820">
        <ele>1222.4</ele>
        <time>2022-01-30T10:41:37Z</time>
      </trkpt>
      <trkpt lat="41.8826180" lon="-2.8028850">
        <ele>1222.5</ele>
        <time>2022-01-30T10:41:38Z</time>
      </trkpt>
      <trkpt lat="41.8826380" lon="-2.8028900">
        <ele>1222.6</ele>
        <time>2022-01-30T10:41:39Z</time>
      </trkpt>
      <trkpt lat="41.8826580" lon="-2.8029000">
        <ele>1222.7</ele>
        <time>2022-01-30T10:41:40Z</time>
      </trkpt>
      <trkpt lat="41.8826770" lon="-2.8029100">
        <ele>1222.8</ele>
        <time>2022-01-30T10:41:41Z</time>
      </trkpt>
      <trkpt lat="41.8826950" lon="-2.8029220">
        <ele>1222.8</ele>
        <time>2022-01-30T10:41:42Z</time>
      </trkpt>
      <trkpt lat="41.8827120" lon="-2.8029350">
        <ele>1222.9</ele>
        <time>2022-01-30T10:41:43Z</time>
      </trkpt>
      <trkpt lat="41.8827270" lon="-2.8029480">
        <ele>1224.8</ele>
        <time>2022-01-30T10:41:44Z</time>
      </trkpt>
      <trkpt lat="41.8827400" lon="-2.8029630">
        <ele>1224.9</ele>
        <time>2022-01-30T10:41:45Z</time>
      </trkpt>
      <trkpt lat="41.8827530" lon="-2.8029820">
        <ele>1225.0</ele>
        <time>2022-01-30T10:41:46Z</time>
      </trkpt>
      <trkpt lat="41.8827630" lon="-2.8030020">
        <ele>1225.0</ele>
        <time>2022-01-30T10:41:47Z</time>
      </trkpt>
      <trkpt lat="41.8827700" lon="-2.8030270">
        <ele>1225.1</ele>
        <time>2022-01-30T10:41:48Z</time>
      </trkpt>
      <trkpt lat="41.8827750" lon="-2.8030530">
        <ele>1225.2</ele>
        <time>2022-01-30T10:41:49Z</time>
      </trkpt>
      <trkpt lat="41.8827730" lon="-2.8030770">
        <ele>1225.4</ele>
        <time>2022-01-30T10:41:50Z</time>
      </trkpt>
      <trkpt lat="41.8827720" lon="-2.8031050">
        <ele>1225.5</ele>
        <time>2022-01-30T10:41:51Z</time>
      </trkpt>
      <trkpt lat="41.8827730" lon="-2.8031400">
        <ele>1225.6</ele>
        <time>2022-01-30T10:41:52Z</time>
      </trkpt>
      <trkpt lat="41.8827770" lon="-2.8031700">
        <ele>1225.6</ele>
        <time>2022-01-30T10:41:53Z</time>
      </trkpt>
      <trkpt lat="41.8827800" lon="-2.8031980">
        <ele>1225.7</ele>
        <time>2022-01-30T10:41:54Z</time>
      </trkpt>
      <trkpt lat="41.8827820" lon="-2.8032200">
        <ele>1225.8</ele>
        <time>2022-01-30T10:41:55Z</time>
      </trkpt>
      <trkpt lat="41.8827850" lon="-2.8032480">
        <ele>1226.0</ele>
        <time>2022-01-30T10:41:56Z</time>
      </trkpt>
      <trkpt lat="41.8827880" lon="-2.8032820">
        <ele>1226.0</ele>
        <time>2022-01-30T10:41:57Z</time>
      </trkpt>
      <trkpt lat="41.8827930" lon="-2.8033100">
        <ele>1226.1</ele>
        <time>2022-01-30T10:41:58Z</time>
      </trkpt>
      <trkpt lat="41.8828020" lon="-2.8033370">
        <ele>1226.2</ele>
        <time>2022-01-30T10:41:59Z</time>
      </trkpt>
      <trkpt lat="41.8828120" lon="-2.8033570">
        <ele>1226.3</ele>
        <time>2022-01-30T10:42:00Z</time>
      </trkpt>
      <trkpt lat="41.8828270" lon="-2.8033780">
        <ele>1226.3</ele>
        <time>2022-01-30T10:42:01Z</time>
      </trkpt>
      <trkpt lat="41.8828430" lon="-2.8034020">
        <ele>1226.4</ele>
        <time>2022-01-30T10:42:02Z</time>
      </trkpt>
      <trkpt lat="41.8828600" lon="-2.8034170">
        <ele>1228.5</ele>
        <time>2022-01-30T10:42:03Z</time>
      </trkpt>
      <trkpt lat="41.8828770" lon="-2.8034330">
        <ele>1228.5</ele>
        <time>2022-01-30T10:42:04Z</time>
      </trkpt>
      <trkpt lat="41.8828930" lon="-2.8034480">
        <ele>1228.6</ele>
        <time>2022-01-30T10:42:05Z</time>
      </trkpt>
      <trkpt lat="41.8829080" lon="-2.8034620">
        <ele>1228.7</ele>
        <time>2022-01-30T10:42:06Z</time>
      </trkpt>
      <trkpt lat="41.8829200" lon="-2.8034770">
        <ele>1228.8</ele>
        <time>2022-01-30T10:42:07Z</time>
      </trkpt>
      <trkpt lat="41.8829270" lon="-2.8034930">
        <ele>1228.8</ele>
        <time>2022-01-30T10:42:08Z</time>
      </trkpt>
      <trkpt lat="41.8829350" lon="-2.8035170">
        <ele>1228.9</ele>
        <time>2022-01-30T10:42:09Z</time>
      </trkpt>
      <trkpt lat="41.8829430" lon="-2.8035380">
        <ele>1229.0</ele>
        <time>2022-01-30T10:42:10Z</time>
      </trkpt>
      <trkpt lat="41.8829470" lon="-2.8035600">
        <ele>1229.1</ele>
        <time>2022-01-30T10:42:11Z</time>
      </trkpt>
      <trkpt lat="41.8829520" lon="-2.8035830">
        <ele>1228.9</ele>
        <time>2022-01-30T10:42:12Z</time>
      </trkpt>
      <trkpt lat="41.8829550" lon="-2.8036030">
        <ele>1229.0</ele>
        <time>2022-01-30T10:42:13Z</time>
      </trkpt>
      <trkpt lat="41.8829620" lon="-2.8036200">
        <ele>1229.1</ele>
        <time>2022-01-30T10:42:14Z</time>
      </trkpt>
      <trkpt lat="41.8829700" lon="-2.8036430">
        <ele>1229.1</ele>
        <time>2022-01-30T10:42:15Z</time>
      </trkpt>
      <trkpt lat="41.8829780" lon="-2.8036630">
        <ele>1229.2</ele>
        <time>2022-01-30T10:42:16Z</time>
      </trkpt>
      <trkpt lat="41.8829920" lon="-2.8036800">
        <ele>1231.3</ele>
        <time>2022-01-30T10:42:17Z</time>
      </trkpt>
      <trkpt lat="41.8830080" lon="-2.8036930">
        <ele>1231.4</ele>
        <time>2022-01-30T10:42:18Z</time>
      </trkpt>
      <trkpt lat="41.8830280" lon="-2.8037000">
        <ele>1231.5</ele>
        <time>2022-01-30T10:42:19Z</time>
      </trkpt>
      <trkpt lat="41.8830430" lon="-2.8037080">
        <ele>1231.6</ele>
        <time>2022-01-30T10:42:20Z</time>
      </trkpt>
      <trkpt lat="41.8830620" lon="-2.8037120">
        <ele>1231.6</ele>
        <time>2022-01-30T10:42:21Z</time>
      </trkpt>
      <trkpt lat="41.8830780" lon="-2.8037120">
        <ele>1231.7</ele>
        <time>2022-01-30T10:42:22Z</time>
      </trkpt>
      <trkpt lat="41.8830950" lon="-2.8037100">
        <ele>1231.8</ele>
        <time>2022-01-30T10:42:23Z</time>
      </trkpt>
      <trkpt lat="41.8831100" lon="-2.8037130">
        <ele>1234.0</ele>
        <time>2022-01-30T10:42:24Z</time>
      </trkpt>
      <trkpt lat="41.8831180" lon="-2.8037180">
        <ele>1234.1</ele>
        <time>2022-01-30T10:42:25Z</time>
      </trkpt>
      <trkpt lat="41.8831330" lon="-2.8037280">
        <ele>1234.1</ele>
        <time>2022-01-30T10:42:26Z</time>
      </trkpt>
      <trkpt lat="41.8831520" lon="-2.8037380">
        <ele>1234.2</ele>
        <time>2022-01-30T10:42:27Z</time>
      </trkpt>
      <trkpt lat="41.8831670" lon="-2.8037450">
        <ele>1234.5</ele>
        <time>2022-01-30T10:42:28Z</time>
      </trkpt>
      <trkpt lat="41.8831820" lon="-2.8037480">
        <ele>1234.7</ele>
        <time>2022-01-30T10:42:29Z</time>
      </trkpt>
      <trkpt lat="41.8831980" lon="-2.8037530">
        <ele>1235.0</ele>
        <time>2022-01-30T10:42:30Z</time>
      </trkpt>
      <trkpt lat="41.8832150" lon="-2.8037570">
        <ele>1235.2</ele>
        <time>2022-01-30T10:42:31Z</time>
      </trkpt>
      <trkpt lat="41.8832320" lon="-2.8037630">
        <ele>1235.5</ele>
        <time>2022-01-30T10:42:32Z</time>
      </trkpt>
      <trkpt lat="41.8832480" lon="-2.8037670">
        <ele>1235.7</ele>
        <time>2022-01-30T10:42:33Z</time>
      </trkpt>
      <trkpt lat="41.8832630" lon="-2.8037730">
        <ele>1235.9</ele>
        <time>2022-01-30T10:42:34Z</time>
      </trkpt>
      <trkpt lat="41.8832730" lon="-2.8037820">
        <ele>1236.1</ele>
        <time>2022-01-30T10:42:35Z</time>
      </trkpt>
      <trkpt lat="41.8832850" lon="-2.8037920">
        <ele>1236.3</ele>
        <time>2022-01-30T10:42:36Z</time>
      </trkpt>
      <trkpt lat="41.8832950" lon="-2.8038030">
        <ele>1236.5</ele>
        <time>2022-01-30T10:42:37Z</time>
      </trkpt>
      <trkpt lat="41.8833030" lon="-2.8038180">
        <ele>1236.7</ele>
        <time>2022-01-30T10:42:38Z</time>
      </trkpt>
      <trkpt lat="41.8833080" lon="-2.8038350">
        <ele>1236.9</ele>
        <time>2022-01-30T10:42:39Z</time>
      </trkpt>
      <trkpt lat="41.8833150" lon="-2.8038500">
        <ele>1237.1</ele>
        <time>2022-01-30T10:42:40Z</time>
      </trkpt>
      <trkpt lat="41.8833230" lon="-2.8038620">
        <ele>1237.2</ele>
        <time>2022-01-30T10:42:41Z</time>
      </trkpt>
      <trkpt lat="41.8833330" lon="-2.8038750">
        <ele>1237.4</ele>
        <time>2022-01-30T10:42:42Z</time>
      </trkpt>
      <trkpt lat="41.8833450" lon="-2.8038870">
        <ele>1237.7</ele>
        <time>2022-01-30T10:42:43Z</time>
      </trkpt>
      <trkpt lat="41.8833580" lon="-2.8038970">
        <ele>1237.9</ele>
        <time>2022-01-30T10:42:44Z</time>
      </trkpt>
      <trkpt lat="41.8833670" lon="-2.8039050">
        <ele>1238.1</ele>
        <time>2022-01-30T10:42:45Z</time>
      </trkpt>
      <trkpt lat="41.8833770" lon="-2.8039150">
        <ele>1238.3</ele>
        <time>2022-01-30T10:42:46Z</time>
      </trkpt>
      <trkpt lat="41.8833880" lon="-2.8039270">
        <ele>1238.5</ele>
        <time>2022-01-30T10:42:47Z</time>
      </trkpt>
      <trkpt lat="41.8834020" lon="-2.8039350">
        <ele>1238.8</ele>
        <time>2022-01-30T10:42:48Z</time>
      </trkpt>
      <trkpt lat="41.8834150" lon="-2.8039430">
        <ele>1239.1</ele>
        <time>2022-01-30T10:42:49Z</time>
      </trkpt>
      <trkpt lat="41.8834270" lon="-2.8039520">
        <ele>1239.3</ele>
        <time>2022-01-30T10:42:50Z</time>
      </trkpt>
      <trkpt lat="41.8834380" lon="-2.8039570">
        <ele>1239.5</ele>
        <time>2022-01-30T10:42:51Z</time>
      </trkpt>
      <trkpt lat="41.8834450" lon="-2.8039620">
        <ele>1239.7</ele>
        <time>2022-01-30T10:42:52Z</time>
      </trkpt>
      <trkpt lat="41.8834520" lon="-2.8039700">
        <ele>1239.8</ele>
        <time>2022-01-30T10:42:53Z</time>
      </trkpt>
      <trkpt lat="41.8834580" lon="-2.8039850">
        <ele>1240.1</ele>
        <time>2022-01-30T10:42:54Z</time>
      </trkpt>
      <trkpt lat="41.8834630" lon="-2.8040020">
        <ele>1240.3</ele>
        <time>2022-01-30T10:42:55Z</time>
      </trkpt>
      <trkpt lat="41.8834680" lon="-2.8040200">
        <ele>1240.6</ele>
        <time>2022-01-30T10:42:56Z</time>
      </trkpt>
      <trkpt lat="41.8834730" lon="-2.8040350">
        <ele>1240.8</ele>
        <time>2022-01-30T10:42:57Z</time>
      </trkpt>
      <trkpt lat="41.8834770" lon="-2.8040500">
        <ele>1241.0</ele>
        <time>2022-01-30T10:42:58Z</time>
      </trkpt>
      <trkpt lat="41.8834820" lon="-2.8040650">
        <ele>1241.3</ele>
        <time>2022-01-30T10:42:59Z</time>
      </trkpt>
      <trkpt lat="41.8834920" lon="-2.8040780">
        <ele>1241.5</ele>
        <time>2022-01-30T10:43:00Z</time>
      </trkpt>
      <trkpt lat="41.8835000" lon="-2.8040900">
        <ele>1241.7</ele>
        <time>2022-01-30T10:43:01Z</time>
      </trkpt>
      <trkpt lat="41.8835100" lon="-2.8041020">
        <ele>1241.9</ele>
        <time>2022-01-30T10:43:02Z</time>
      </trkpt>
      <trkpt lat="41.8835200" lon="-2.8041080">
        <ele>1242.1</ele>
        <time>2022-01-30T10:43:03Z</time>
      </trkpt>
      <trkpt lat="41.8835330" lon="-2.8041150">
        <ele>1242.3</ele>
        <time>2022-01-30T10:43:04Z</time>
      </trkpt>
      <trkpt lat="41.8835470" lon="-2.8041230">
        <ele>1242.5</ele>
        <time>2022-01-30T10:43:05Z</time>
      </trkpt>
      <trkpt lat="41.8835600" lon="-2.8041270">
        <ele>1242.7</ele>
        <time>2022-01-30T10:43:06Z</time>
      </trkpt>
      <trkpt lat="41.8835700" lon="-2.8041300">
        <ele>1242.8</ele>
        <time>2022-01-30T10:43:07Z</time>
      </trkpt>
      <trkpt lat="41.8835820" lon="-2.8041300">
        <ele>1243.0</ele>
        <time>2022-01-30T10:43:08Z</time>
      </trkpt>
      <trkpt lat="41.8835920" lon="-2.8041280">
        <ele>1243.1</ele>
        <time>2022-01-30T10:43:09Z</time>
      </trkpt>
      <trkpt lat="41.8836030" lon="-2.8041250">
        <ele>1243.2</ele>
        <time>2022-01-30T10:43:10Z</time>
      </trkpt>
      <trkpt lat="41.8836150" lon="-2.8041230">
        <ele>1243.4</ele>
        <time>2022-01-30T10:43:11Z</time>
      </trkpt>
      <trkpt lat="41.8836250" lon="-2.8041200">
        <ele>1243.5</ele>
        <time>2022-01-30T10:43:12Z</time>
      </trkpt>
      <trkpt lat="41.8836350" lon="-2.8041130">
        <ele>1243.6</ele>
        <time>2022-01-30T10:43:13Z</time>
      </trkpt>
      <trkpt lat="41.8836470" lon="-2.8041080">
        <ele>1243.8</ele>
        <time>2022-01-30T10:43:14Z</time>
      </trkpt>
      <trkpt lat="41.8836580" lon="-2.8041030">
        <ele>1243.9</ele>
        <time>2022-01-30T10:43:15Z</time>
      </trkpt>
      <trkpt lat="41.8836700" lon="-2.8041020">
        <ele>1244.0</ele>
        <time>2022-01-30T10:43:16Z</time>
      </trkpt>
      <trkpt lat="41.8836770" lon="-2.8041030">
        <ele>1244.1</ele>
        <time>2022-01-30T10:43:17Z</time>
      </trkpt>
      <trkpt lat="41.8836820" lon="-2.8041030">
        <ele>1244.2</ele>
        <time>2022-01-30T10:43:18Z</time>
      </trkpt>
      <trkpt lat="41.8836930" lon="-2.8041030">
        <ele>1244.3</ele>
        <time>2022-01-30T10:43:19Z</time>
      </trkpt>
      <trkpt lat="41.8837020" lon="-2.8041020">
        <ele>1244.4</ele>
        <time>2022-01-30T10:43:20Z</time>
      </trkpt>
      <trkpt lat="41.8837100" lon="-2.8041070">
        <ele>1244.5</ele>
        <time>2022-01-30T10:43:21Z</time>
      </trkpt>
      <trkpt lat="41.8837200" lon="-2.8041130">
        <ele>1244.6</ele>
        <time>2022-01-30T10:43:22Z</time>
      </trkpt>
      <trkpt lat="41.8837320" lon="-2.8041220">
        <ele>1244.8</ele>
        <time>2022-01-30T10:43:23Z</time>
      </trkpt>
      <trkpt lat="41.8837450" lon="-2.8041320">
        <ele>1244.9</ele>
        <time>2022-01-30T10:43:24Z</time>
      </trkpt>
      <trkpt lat="41.8837620" lon="-2.8041400">
        <ele>1245.1</ele>
        <time>2022-01-30T10:43:25Z</time>
      </trkpt>
      <trkpt lat="41.8837720" lon="-2.8041500">
        <ele>1245.3</ele>
        <time>2022-01-30T10:43:26Z</time>
      </trkpt>
      <trkpt lat="41.8837820" lon="-2.8041600">
        <ele>1245.4</ele>
        <time>2022-01-30T10:43:27Z</time>
      </trkpt>
      <trkpt lat="41.8837950" lon="-2.8041720">
        <ele>1245.6</ele>
        <time>2022-01-30T10:43:28Z</time>
      </trkpt>
      <trkpt lat="41.8838050" lon="-2.8041820">
        <ele>1245.7</ele>
        <time>2022-01-30T10:43:29Z</time>
      </trkpt>
      <trkpt lat="41.8838170" lon="-2.8041930">
        <ele>1245.9</ele>
        <time>2022-01-30T10:43:30Z</time>
      </trkpt>
      <trkpt lat="41.8838280" lon="-2.8042030">
        <ele>1246.0</ele>
        <time>2022-01-30T10:43:31Z</time>
      </trkpt>
      <trkpt lat="41.8838370" lon="-2.8042100">
        <ele>1246.1</ele>
        <time>2022-01-30T10:43:32Z</time>
      </trkpt>
      <trkpt lat="41.8838480" lon="-2.8042200">
        <ele>1246.3</ele>
        <time>2022-01-30T10:43:33Z</time>
      </trkpt>
      <trkpt lat="41.8838600" lon="-2.8042320">
        <ele>1246.5</ele>
        <time>2022-01-30T10:43:34Z</time>
      </trkpt>
      <trkpt lat="41.8838700" lon="-2.8042430">
        <ele>1246.6</ele>
        <time>2022-01-30T10:43:35Z</time>
      </trkpt>
      <trkpt lat="41.8838770" lon="-2.8042570">
        <ele>1246.7</ele>
        <time>2022-01-30T10:43:36Z</time>
      </trkpt>
      <trkpt lat="41.8838830" lon="-2.8042700">
        <ele>1246.9</ele>
        <time>2022-01-30T10:43:37Z</time>
      </trkpt>
      <trkpt lat="41.8838920" lon="-2.8042850">
        <ele>1247.0</ele>
        <time>2022-01-30T10:43:38Z</time>
      </trkpt>
      <trkpt lat="41.8838970" lon="-2.8042980">
        <ele>1247.2</ele>
        <time>2022-01-30T10:43:39Z</time>
      </trkpt>
      <trkpt lat="41.8839000" lon="-2.8043130">
        <ele>1247.3</ele>
        <time>2022-01-30T10:43:40Z</time>
      </trkpt>
      <trkpt lat="41.8839030" lon="-2.8043300">
        <ele>1247.4</ele>
        <time>2022-01-30T10:43:41Z</time>
      </trkpt>
      <trkpt lat="41.8839050" lon="-2.8043470">
        <ele>1247.6</ele>
        <time>2022-01-30T10:43:42Z</time>
      </trkpt>
      <trkpt lat="41.8839070" lon="-2.8043620">
        <ele>1247.7</ele>
        <time>2022-01-30T10:43:43Z</time>
      </trkpt>
      <trkpt lat="41.8839080" lon="-2.8043800">
        <ele>1247.8</ele>
        <time>2022-01-30T10:43:44Z</time>
      </trkpt>
      <trkpt lat="41.8839100" lon="-2.8043980">
        <ele>1247.9</ele>
        <time>2022-01-30T10:43:45Z</time>
      </trkpt>
      <trkpt lat="41.8839170" lon="-2.8044150">
        <ele>1248.1</ele>
        <time>2022-01-30T10:43:46Z</time>
      </trkpt>
      <trkpt lat="41.8839230" lon="-2.8044350">
        <ele>1248.2</ele>
        <time>2022-01-30T10:43:47Z</time>
      </trkpt>
      <trkpt lat="41.8839330" lon="-2.8044570">
        <ele>1248.4</ele>
        <time>2022-01-30T10:43:48Z</time>
      </trkpt>
      <trkpt lat="41.8839450" lon="-2.8044750">
        <ele>1248.6</ele>
        <time>2022-01-30T10:43:49Z</time>
      </trkpt>
      <trkpt lat="41.8839570" lon="-2.8044950">
        <ele>1248.7</ele>
        <time>2022-01-30T10:43:50Z</time>
      </trkpt>
      <trkpt lat="41.8839720" lon="-2.8045150">
        <ele>1248.9</ele>
        <time>2022-01-30T10:43:51Z</time>
      </trkpt>
      <trkpt lat="41.8839880" lon="-2.8045350">
        <ele>1249.1</ele>
        <time>2022-01-30T10:43:52Z</time>
      </trkpt>
      <trkpt lat="41.8840020" lon="-2.8045550">
        <ele>1249.2</ele>
        <time>2022-01-30T10:43:53Z</time>
      </trkpt>
      <trkpt lat="41.8840080" lon="-2.8045750">
        <ele>1249.3</ele>
        <time>2022-01-30T10:43:54Z</time>
      </trkpt>
      <trkpt lat="41.8840120" lon="-2.8046000">
        <ele>1249.5</ele>
        <time>2022-01-30T10:43:55Z</time>
      </trkpt>
      <trkpt lat="41.8840130" lon="-2.8046220">
        <ele>1249.6</ele>
        <time>2022-01-30T10:43:56Z</time>
      </trkpt>
      <trkpt lat="41.8840180" lon="-2.8046420">
        <ele>1249.7</ele>
        <time>2022-01-30T10:43:57Z</time>
      </trkpt>
      <trkpt lat="41.8840270" lon="-2.8046580">
        <ele>1249.8</ele>
        <time>2022-01-30T10:43:58Z</time>
      </trkpt>
      <trkpt lat="41.8840350" lon="-2.8046730">
        <ele>1249.8</ele>
        <time>2022-01-30T10:43:59Z</time>
      </trkpt>
      <trkpt lat="41.8840430" lon="-2.8046870">
        <ele>1249.9</ele>
        <time>2022-01-30T10:44:00Z</time>
      </trkpt>
      <trkpt lat="41.8840520" lon="-2.8046980">
        <ele>1250.0</ele>
        <time>2022-01-30T10:44:01Z</time>
      </trkpt>
      <trkpt lat="41.8840620" lon="-2.8047100">
        <ele>1250.0</ele>
        <time>2022-01-30T10:44:02Z</time>
      </trkpt>
      <trkpt lat="41.8840700" lon="-2.8047250">
        <ele>1250.1</ele>
        <time>2022-01-30T10:44:03Z</time>
      </trkpt>
      <trkpt lat="41.8840820" lon="-2.8047400">
        <ele>1250.2</ele>
        <time>2022-01-30T10:44:04Z</time>
      </trkpt>
      <trkpt lat="41.8840930" lon="-2.8047550">
        <ele>1250.3</ele>
        <time>2022-01-30T10:44:05Z</time>
      </trkpt>
      <trkpt lat="41.8841030" lon="-2.8047670">
        <ele>1250.3</ele>
        <time>2022-01-30T10:44:06Z</time>
      </trkpt>
      <trkpt lat="41.8841150" lon="-2.8047780">
        <ele>1250.4</ele>
        <time>2022-01-30T10:44:07Z</time>
      </trkpt>
      <trkpt lat="41.8841230" lon="-2.8047920">
        <ele>1250.5</ele>
        <time>2022-01-30T10:44:08Z</time>
      </trkpt>
      <trkpt lat="41.8841280" lon="-2.8048080">
        <ele>1250.6</ele>
        <time>2022-01-30T10:44:09Z</time>
      </trkpt>
      <trkpt lat="41.8841330" lon="-2.8048280">
        <ele>1250.6</ele>
        <time>2022-01-30T10:44:10Z</time>
      </trkpt>
      <trkpt lat="41.8841380" lon="-2.8048480">
        <ele>1250.7</ele>
        <time>2022-01-30T10:44:11Z</time>
      </trkpt>
      <trkpt lat="41.8841430" lon="-2.8048700">
        <ele>1250.8</ele>
        <time>2022-01-30T10:44:12Z</time>
      </trkpt>
      <trkpt lat="41.8841500" lon="-2.8048900">
        <ele>1250.9</ele>
        <time>2022-01-30T10:44:13Z</time>
      </trkpt>
      <trkpt lat="41.8841600" lon="-2.8049100">
        <ele>1251.0</ele>
        <time>2022-01-30T10:44:14Z</time>
      </trkpt>
      <trkpt lat="41.8841700" lon="-2.8049320">
        <ele>1251.1</ele>
        <time>2022-01-30T10:44:15Z</time>
      </trkpt>
      <trkpt lat="41.8841800" lon="-2.8049550">
        <ele>1251.3</ele>
        <time>2022-01-30T10:44:16Z</time>
      </trkpt>
      <trkpt lat="41.8841900" lon="-2.8049800">
        <ele>1251.4</ele>
        <time>2022-01-30T10:44:17Z</time>
      </trkpt>
      <trkpt lat="41.8842070" lon="-2.8050030">
        <ele>1251.6</ele>
        <time>2022-01-30T10:44:18Z</time>
      </trkpt>
      <trkpt lat="41.8842230" lon="-2.8050230">
        <ele>1251.7</ele>
        <time>2022-01-30T10:44:19Z</time>
      </trkpt>
      <trkpt lat="41.8842400" lon="-2.8050400">
        <ele>1251.9</ele>
        <time>2022-01-30T10:44:20Z</time>
      </trkpt>
      <trkpt lat="41.8842520" lon="-2.8050580">
        <ele>1252.0</ele>
        <time>2022-01-30T10:44:21Z</time>
      </trkpt>
      <trkpt lat="41.8842670" lon="-2.8050780">
        <ele>1252.1</ele>
        <time>2022-01-30T10:44:22Z</time>
      </trkpt>
      <trkpt lat="41.8842750" lon="-2.8050980">
        <ele>1252.3</ele>
        <time>2022-01-30T10:44:23Z</time>
      </trkpt>
      <trkpt lat="41.8842820" lon="-2.8051200">
        <ele>1252.4</ele>
        <time>2022-01-30T10:44:24Z</time>
      </trkpt>
      <trkpt lat="41.8842920" lon="-2.8051430">
        <ele>1252.6</ele>
        <time>2022-01-30T10:44:25Z</time>
      </trkpt>
      <trkpt lat="41.8843080" lon="-2.8051720">
        <ele>1252.8</ele>
        <time>2022-01-30T10:44:26Z</time>
      </trkpt>
      <trkpt lat="41.8843130" lon="-2.8051950">
        <ele>1252.9</ele>
        <time>2022-01-30T10:44:27Z</time>
      </trkpt>
      <trkpt lat="41.8843130" lon="-2.8052220">
        <ele>1253.1</ele>
        <time>2022-01-30T10:44:28Z</time>
      </trkpt>
      <trkpt lat="41.8843070" lon="-2.8052520">
        <ele>1253.3</ele>
        <time>2022-01-30T10:44:29Z</time>
      </trkpt>
      <trkpt lat="41.8843050" lon="-2.8052800">
        <ele>1253.5</ele>
        <time>2022-01-30T10:44:30Z</time>
      </trkpt>
      <trkpt lat="41.8843050" lon="-2.8053020">
        <ele>1253.7</ele>
        <time>2022-01-30T10:44:31Z</time>
      </trkpt>
      <trkpt lat="41.8843050" lon="-2.8053230">
        <ele>1253.8</ele>
        <time>2022-01-30T10:44:32Z</time>
      </trkpt>
      <trkpt lat="41.8843080" lon="-2.8053430">
        <ele>1254.0</ele>
        <time>2022-01-30T10:44:33Z</time>
      </trkpt>
      <trkpt lat="41.8843120" lon="-2.8053600">
        <ele>1254.2</ele>
        <time>2022-01-30T10:44:34Z</time>
      </trkpt>
      <trkpt lat="41.8843170" lon="-2.8053750">
        <ele>1254.3</ele>
        <time>2022-01-30T10:44:35Z</time>
      </trkpt>
      <trkpt lat="41.8843230" lon="-2.8053900">
        <ele>1254.5</ele>
        <time>2022-01-30T10:44:36Z</time>
      </trkpt>
      <trkpt lat="41.8843280" lon="-2.8054050">
        <ele>1254.6</ele>
        <time>2022-01-30T10:44:37Z</time>
      </trkpt>
      <trkpt lat="41.8843350" lon="-2.8054230">
        <ele>1254.8</ele>
        <time>2022-01-30T10:44:38Z</time>
      </trkpt>
      <trkpt lat="41.8843400" lon="-2.8054420">
        <ele>1255.0</ele>
        <time>2022-01-30T10:44:39Z</time>
      </trkpt>
      <trkpt lat="41.8843450" lon="-2.8054600">
        <ele>1255.2</ele>
        <time>2022-01-30T10:44:40Z</time>
      </trkpt>
      <trkpt lat="41.8843530" lon="-2.8054770">
        <ele>1255.4</ele>
        <time>2022-01-30T10:44:41Z</time>
      </trkpt>
      <trkpt lat="41.8843580" lon="-2.8054920">
        <ele>1255.6</ele>
        <time>2022-01-30T10:44:42Z</time>
      </trkpt>
      <trkpt lat="41.8843620" lon="-2.8055080">
        <ele>1255.8</ele>
        <time>2022-01-30T10:44:43Z</time>
      </trkpt>
      <trkpt lat="41.8843670" lon="-2.8055270">
        <ele>1256.0</ele>
        <time>2022-01-30T10:44:44Z</time>
      </trkpt>
      <trkpt lat="41.8843720" lon="-2.8055530">
        <ele>1256.3</ele>
        <time>2022-01-30T10:44:45Z</time>
      </trkpt>
      <trkpt lat="41.8843770" lon="-2.8055820">
        <ele>1256.6</ele>
        <time>2022-01-30T10:44:46Z</time>
      </trkpt>
      <trkpt lat="41.8843870" lon="-2.8056030">
        <ele>1256.8</ele>
        <time>2022-01-30T10:44:47Z</time>
      </trkpt>
      <trkpt lat="41.8843930" lon="-2.8056230">
        <ele>1257.0</ele>
        <time>2022-01-30T10:44:48Z</time>
      </trkpt>
      <trkpt lat="41.8843980" lon="-2.8056500">
        <ele>1257.3</ele>
        <time>2022-01-30T10:44:49Z</time>
      </trkpt>
      <trkpt lat="41.8844020" lon="-2.8056750">
        <ele>1257.6</ele>
        <time>2022-01-30T10:44:50Z</time>
      </trkpt>
      <trkpt lat="41.8844030" lon="-2.8057020">
        <ele>1257.8</ele>
        <time>2022-01-30T10:44:51Z</time>
      </trkpt>
      <trkpt lat="41.8844050" lon="-2.8057280">
        <ele>1258.0</ele>
        <time>2022-01-30T10:44:52Z</time>
      </trkpt>
      <trkpt lat="41.8844130" lon="-2.8057550">
        <ele>1258.3</ele>
        <time>2022-01-30T10:44:53Z</time>
      </trkpt>
      <trkpt lat="41.8844200" lon="-2.8057820">
        <ele>1258.5</ele>
        <time>2022-01-30T10:44:54Z</time>
      </trkpt>
      <trkpt lat="41.8844320" lon="-2.8058030">
        <ele>1258.7</ele>
        <time>2022-01-30T10:44:55Z</time>
      </trkpt>
      <trkpt lat="41.8844450" lon="-2.8058220">
        <ele>1259.0</ele>
        <time>2022-01-30T10:44:56Z</time>
      </trkpt>
      <trkpt lat="41.8844600" lon="-2.8058350">
        <ele>1259.2</ele>
        <time>2022-01-30T10:44:57Z</time>
      </trkpt>
      <trkpt lat="41.8844750" lon="-2.8058470">
        <ele>1259.3</ele>
        <time>2022-01-30T10:44:58Z</time>
      </trkpt>
      <trkpt lat="41.8844870" lon="-2.8058600">
        <ele>1259.5</ele>
        <time>2022-01-30T10:44:59Z</time>
      </trkpt>
      <trkpt lat="41.8844980" lon="-2.8058720">
        <ele>1259.7</ele>
        <time>2022-01-30T10:45:00Z</time>
      </trkpt>
      <trkpt lat="41.8845170" lon="-2.8058780">
        <ele>1259.9</ele>
        <time>2022-01-30T10:45:01Z</time>
      </trkpt>
      <trkpt lat="41.8845300" lon="-2.8058870">
        <ele>1260.1</ele>
        <time>2022-01-30T10:45:02Z</time>
      </trkpt>
      <trkpt lat="41.8845450" lon="-2.8058970">
        <ele>1260.3</ele>
        <time>2022-01-30T10:45:03Z</time>
      </trkpt>
      <trkpt lat="41.8845650" lon="-2.8059100">
        <ele>1260.5</ele>
        <time>2022-01-30T10:45:04Z</time>
      </trkpt>
      <trkpt lat="41.8845850" lon="-2.8059230">
        <ele>1260.8</ele>
        <time>2022-01-30T10:45:05Z</time>
      </trkpt>
      <trkpt lat="41.8845950" lon="-2.8059370">
        <ele>1261.0</ele>
        <time>2022-01-30T10:45:06Z</time>
      </trkpt>
      <trkpt lat="41.8846070" lon="-2.8059530">
        <ele>1261.2</ele>
        <time>2022-01-30T10:45:07Z</time>
      </trkpt>
      <trkpt lat="41.8846130" lon="-2.8059650">
        <ele>1261.4</ele>
        <time>2022-01-30T10:45:08Z</time>
      </trkpt>
      <trkpt lat="41.8846280" lon="-2.8059820">
        <ele>1261.7</ele>
        <time>2022-01-30T10:45:09Z</time>
      </trkpt>
      <trkpt lat="41.8846400" lon="-2.8059950">
        <ele>1261.9</ele>
        <time>2022-01-30T10:45:10Z</time>
      </trkpt>
      <trkpt lat="41.8846480" lon="-2.8060080">
        <ele>1262.1</ele>
        <time>2022-01-30T10:45:11Z</time>
      </trkpt>
      <trkpt lat="41.8846550" lon="-2.8060180">
        <ele>1262.2</ele>
        <time>2022-01-30T10:45:12Z</time>
      </trkpt>
      <trkpt lat="41.8846670" lon="-2.8060380">
        <ele>1262.5</ele>
        <time>2022-01-30T10:45:13Z</time>
      </trkpt>
      <trkpt lat="41.8846780" lon="-2.8060570">
        <ele>1262.7</ele>
        <time>2022-01-30T10:45:14Z</time>
      </trkpt>
      <trkpt lat="41.8846930" lon="-2.8060730">
        <ele>1263.0</ele>
        <time>2022-01-30T10:45:15Z</time>
      </trkpt>
      <trkpt lat="41.8847030" lon="-2.8060920">
        <ele>1263.3</ele>
        <time>2022-01-30T10:45:16Z</time>
      </trkpt>
      <trkpt lat="41.8847080" lon="-2.8061080">
        <ele>1263.5</ele>
        <time>2022-01-30T10:45:17Z</time>
      </trkpt>
      <trkpt lat="41.8847100" lon="-2.8061330">
        <ele>1263.8</ele>
        <time>2022-01-30T10:45:18Z</time>
      </trkpt>
      <trkpt lat="41.8847100" lon="-2.8061570">
        <ele>1264.1</ele>
        <time>2022-01-30T10:45:19Z</time>
      </trkpt>
      <trkpt lat="41.8847100" lon="-2.8061770">
        <ele>1264.3</ele>
        <time>2022-01-30T10:45:20Z</time>
      </trkpt>
      <trkpt lat="41.8847100" lon="-2.8062020">
        <ele>1264.6</ele>
        <time>2022-01-30T10:45:21Z</time>
      </trkpt>
      <trkpt lat="41.8847130" lon="-2.8062250">
        <ele>1264.9</ele>
        <time>2022-01-30T10:45:22Z</time>
      </trkpt>
      <trkpt lat="41.8847180" lon="-2.8062470">
        <ele>1265.2</ele>
        <time>2022-01-30T10:45:23Z</time>
      </trkpt>
      <trkpt lat="41.8847230" lon="-2.8062720">
        <ele>1265.6</ele>
        <time>2022-01-30T10:45:24Z</time>
      </trkpt>
      <trkpt lat="41.8847320" lon="-2.8062980">
        <ele>1265.9</ele>
        <time>2022-01-30T10:45:25Z</time>
      </trkpt>
      <trkpt lat="41.8847450" lon="-2.8063200">
        <ele>1266.3</ele>
        <time>2022-01-30T10:45:26Z</time>
      </trkpt>
      <trkpt lat="41.8847620" lon="-2.8063400">
        <ele>1266.7</ele>
        <time>2022-01-30T10:45:27Z</time>
      </trkpt>
      <trkpt lat="41.8847680" lon="-2.8063530">
        <ele>1266.9</ele>
        <time>2022-01-30T10:45:28Z</time>
      </trkpt>
      <trkpt lat="41.8847770" lon="-2.8063680">
        <ele>1267.1</ele>
        <time>2022-01-30T10:45:29Z</time>
      </trkpt>
      <trkpt lat="41.8847820" lon="-2.8063830">
        <ele>1267.3</ele>
        <time>2022-01-30T10:45:30Z</time>
      </trkpt>
      <trkpt lat="41.8847850" lon="-2.8064030">
        <ele>1267.6</ele>
        <time>2022-01-30T10:45:31Z</time>
      </trkpt>
      <trkpt lat="41.8847870" lon="-2.8064320">
        <ele>1268.0</ele>
        <time>2022-01-30T10:45:32Z</time>
      </trkpt>
      <trkpt lat="41.8847920" lon="-2.8064550">
        <ele>1268.3</ele>
        <time>2022-01-30T10:45:33Z</time>
      </trkpt>
      <trkpt lat="41.8847980" lon="-2.8064780">
        <ele>1268.6</ele>
        <time>2022-01-30T10:45:34Z</time>
      </trkpt>
      <trkpt lat="41.8848030" lon="-2.8065000">
        <ele>1269.0</ele>
        <time>2022-01-30T10:45:35Z</time>
      </trkpt>
      <trkpt lat="41.8848020" lon="-2.8065220">
        <ele>1269.3</ele>
        <time>2022-01-30T10:45:36Z</time>
      </trkpt>
      <trkpt lat="41.8848030" lon="-2.8065430">
        <ele>1269.6</ele>
        <time>2022-01-30T10:45:37Z</time>
      </trkpt>
      <trkpt lat="41.8848070" lon="-2.8065670">
        <ele>1269.9</ele>
        <time>2022-01-30T10:45:38Z</time>
      </trkpt>
      <trkpt lat="41.8848080" lon="-2.8065850">
        <ele>1270.2</ele>
        <time>2022-01-30T10:45:39Z</time>
      </trkpt>
      <trkpt lat="41.8848070" lon="-2.8066080">
        <ele>1270.5</ele>
        <time>2022-01-30T10:45:40Z</time>
      </trkpt>
      <trkpt lat="41.8848020" lon="-2.8066280">
        <ele>1270.7</ele>
        <time>2022-01-30T10:45:41Z</time>
      </trkpt>
      <trkpt lat="41.8848000" lon="-2.8066500">
        <ele>1271.0</ele>
        <time>2022-01-30T10:45:42Z</time>
      </trkpt>
      <trkpt lat="41.8848000" lon="-2.8066670">
        <ele>1271.2</ele>
        <time>2022-01-30T10:45:43Z</time>
      </trkpt>
      <trkpt lat="41.8848030" lon="-2.8066870">
        <ele>1271.5</ele>
        <time>2022-01-30T10:45:44Z</time>
      </trkpt>
      <trkpt lat="41.8848080" lon="-2.8067050">
        <ele>1271.7</ele>
        <time>2022-01-30T10:45:45Z</time>
      </trkpt>
      <trkpt lat="41.8848200" lon="-2.8067220">
        <ele>1272.0</ele>
        <time>2022-01-30T10:45:46Z</time>
      </trkpt>
      <trkpt lat="41.8848350" lon="-2.8067370">
        <ele>1272.4</ele>
        <time>2022-01-30T10:45:47Z</time>
      </trkpt>
      <trkpt lat="41.8848470" lon="-2.8067420">
        <ele>1272.6</ele>
        <time>2022-01-30T10:45:48Z</time>
      </trkpt>
      <trkpt lat="41.8848600" lon="-2.8067430">
        <ele>1272.8</ele>
        <time>2022-01-30T10:45:49Z</time>
      </trkpt>
      <trkpt lat="41.8848780" lon="-2.8067420">
        <ele>1273.1</ele>
        <time>2022-01-30T10:45:50Z</time>
      </trkpt>
      <trkpt lat="41.8848950" lon="-2.8067380">
        <ele>1273.3</ele>
        <time>2022-01-30T10:45:51Z</time>
      </trkpt>
      <trkpt lat="41.8849100" lon="-2.8067370">
        <ele>1273.6</ele>
        <time>2022-01-30T10:45:52Z</time>
      </trkpt>
      <trkpt lat="41.8849220" lon="-2.8067320">
        <ele>1273.9</ele>
        <time>2022-01-30T10:45:53Z</time>
      </trkpt>
      <trkpt lat="41.8849370" lon="-2.8067230">
        <ele>1274.1</ele>
        <time>2022-01-30T10:45:54Z</time>
      </trkpt>
      <trkpt lat="41.8849530" lon="-2.8067130">
        <ele>1274.4</ele>
        <time>2022-01-30T10:45:55Z</time>
      </trkpt>
      <trkpt lat="41.8849670" lon="-2.8067050">
        <ele>1274.6</ele>
        <time>2022-01-30T10:45:56Z</time>
      </trkpt>
      <trkpt lat="41.8849800" lon="-2.8066980">
        <ele>1274.8</ele>
        <time>2022-01-30T10:45:57Z</time>
      </trkpt>
      <trkpt lat="41.8849930" lon="-2.8066880">
        <ele>1275.1</ele>
        <time>2022-01-30T10:45:58Z</time>
      </trkpt>
      <trkpt lat="41.8850050" lon="-2.8066820">
        <ele>1275.3</ele>
        <time>2022-01-30T10:45:59Z</time>
      </trkpt>
      <trkpt lat="41.8850180" lon="-2.8066780">
        <ele>1275.5</ele>
        <time>2022-01-30T10:46:00Z</time>
      </trkpt>
      <trkpt lat="41.8850330" lon="-2.8066770">
        <ele>1275.7</ele>
        <time>2022-01-30T10:46:01Z</time>
      </trkpt>
      <trkpt lat="41.8850420" lon="-2.8066780">
        <ele>1275.8</ele>
        <time>2022-01-30T10:46:02Z</time>
      </trkpt>
      <trkpt lat="41.8850580" lon="-2.8066830">
        <ele>1276.1</ele>
        <time>2022-01-30T10:46:03Z</time>
      </trkpt>
      <trkpt lat="41.8850720" lon="-2.8066900">
        <ele>1276.3</ele>
        <time>2022-01-30T10:46:04Z</time>
      </trkpt>
      <trkpt lat="41.8850780" lon="-2.8066980">
        <ele>1276.5</ele>
        <time>2022-01-30T10:46:05Z</time>
      </trkpt>
      <trkpt lat="41.8850900" lon="-2.8067080">
        <ele>1276.7</ele>
        <time>2022-01-30T10:46:06Z</time>
      </trkpt>
      <trkpt lat="41.8851000" lon="-2.8067230">
        <ele>1276.9</ele>
        <time>2022-01-30T10:46:07Z</time>
      </trkpt>
      <trkpt lat="41.8851070" lon="-2.8067370">
        <ele>1277.1</ele>
        <time>2022-01-30T10:46:08Z</time>
      </trkpt>
      <trkpt lat="41.8851130" lon="-2.8067520">
        <ele>1277.3</ele>
        <time>2022-01-30T10:46:09Z</time>
      </trkpt>
      <trkpt lat="41.8851200" lon="-2.8067670">
        <ele>1277.6</ele>
        <time>2022-01-30T10:46:10Z</time>
      </trkpt>
      <trkpt lat="41.8851270" lon="-2.8067880">
        <ele>1278.0</ele>
        <time>2022-01-30T10:46:11Z</time>
      </trkpt>
      <trkpt lat="41.8851330" lon="-2.8068120">
        <ele>1278.3</ele>
        <time>2022-01-30T10:46:12Z</time>
      </trkpt>
      <trkpt lat="41.8851380" lon="-2.8068420">
        <ele>1278.8</ele>
        <time>2022-01-30T10:46:13Z</time>
      </trkpt>
      <trkpt lat="41.8851380" lon="-2.8068620">
        <ele>1279.1</ele>
        <time>2022-01-30T10:46:14Z</time>
      </trkpt>
      <trkpt lat="41.8851350" lon="-2.8068850">
        <ele>1279.5</ele>
        <time>2022-01-30T10:46:15Z</time>
      </trkpt>
      <trkpt lat="41.8851270" lon="-2.8069030">
        <ele>1279.8</ele>
        <time>2022-01-30T10:46:16Z</time>
      </trkpt>
      <trkpt lat="41.8851180" lon="-2.8069230">
        <ele>1280.2</ele>
        <time>2022-01-30T10:46:17Z</time>
      </trkpt>
      <trkpt lat="41.8851100" lon="-2.8069450">
        <ele>1280.7</ele>
        <time>2022-01-30T10:46:18Z</time>
      </trkpt>
      <trkpt lat="41.8851030" lon="-2.8069670">
        <ele>1281.1</ele>
        <time>2022-01-30T10:46:19Z</time>
      </trkpt>
      <trkpt lat="41.8850950" lon="-2.8069920">
        <ele>1281.6</ele>
        <time>2022-01-30T10:46:20Z</time>
      </trkpt>
      <trkpt lat="41.8850830" lon="-2.8070200">
        <ele>1282.2</ele>
        <time>2022-01-30T10:46:21Z</time>
      </trkpt>
      <trkpt lat="41.8850750" lon="-2.8070550">
        <ele>1282.8</ele>
        <time>2022-01-30T10:46:22Z</time>
      </trkpt>
      <trkpt lat="41.8850720" lon="-2.8070750">
        <ele>1283.1</ele>
        <time>2022-01-30T10:46:23Z</time>
      </trkpt>
      <trkpt lat="41.8850750" lon="-2.8071000">
        <ele>1283.6</ele>
        <time>2022-01-30T10:46:24Z</time>
      </trkpt>
      <trkpt lat="41.8850830" lon="-2.8071220">
        <ele>1284.0</ele>
        <time>2022-01-30T10:46:25Z</time>
      </trkpt>
      <trkpt lat="41.8850930" lon="-2.8071300">
        <ele>1284.2</ele>
        <time>2022-01-30T10:46:26Z</time>
      </trkpt>
      <trkpt lat="41.8851080" lon="-2.8071400">
        <ele>1284.6</ele>
        <time>2022-01-30T10:46:27Z</time>
      </trkpt>
      <trkpt lat="41.8851200" lon="-2.8071480">
        <ele>1284.9</ele>
        <time>2022-01-30T10:46:28Z</time>
      </trkpt>
      <trkpt lat="41.8851380" lon="-2.8071530">
        <ele>1285.2</ele>
        <time>2022-01-30T10:46:29Z</time>
      </trkpt>
      <trkpt lat="41.8851500" lon="-2.8071530">
        <ele>1285.5</ele>
        <time>2022-01-30T10:46:30Z</time>
      </trkpt>
      <trkpt lat="41.8851650" lon="-2.8071480">
        <ele>1285.8</ele>
        <time>2022-01-30T10:46:31Z</time>
      </trkpt>
      <trkpt lat="41.8851780" lon="-2.8071420">
        <ele>1286.1</ele>
        <time>2022-01-30T10:46:32Z</time>
      </trkpt>
      <trkpt lat="41.8851930" lon="-2.8071370">
        <ele>1286.4</ele>
        <time>2022-01-30T10:46:33Z</time>
      </trkpt>
      <trkpt lat="41.8852120" lon="-2.8071270">
        <ele>1286.7</ele>
        <time>2022-01-30T10:46:34Z</time>
      </trkpt>
      <trkpt lat="41.8852300" lon="-2.8071200">
        <ele>1287.1</ele>
        <time>2022-01-30T10:46:35Z</time>
      </trkpt>
      <trkpt lat="41.8852400" lon="-2.8071120">
        <ele>1287.3</ele>
        <time>2022-01-30T10:46:36Z</time>
      </trkpt>
      <trkpt lat="41.8852570" lon="-2.8071020">
        <ele>1287.6</ele>
        <time>2022-01-30T10:46:37Z</time>
      </trkpt>
      <trkpt lat="41.8852730" lon="-2.8070870">
        <ele>1287.9</ele>
        <time>2022-01-30T10:46:38Z</time>
      </trkpt>
      <trkpt lat="41.8852880" lon="-2.8070700">
        <ele>1288.2</ele>
        <time>2022-01-30T10:46:39Z</time>
      </trkpt>
      <trkpt lat="41.8853050" lon="-2.8070580">
        <ele>1288.5</ele>
        <time>2022-01-30T10:46:40Z</time>
      </trkpt>
      <trkpt lat="41.8853220" lon="-2.8070480">
        <ele>1288.8</ele>
        <time>2022-01-30T10:46:41Z</time>
      </trkpt>
      <trkpt lat="41.8853370" lon="-2.8070400">
        <ele>1289.0</ele>
        <time>2022-01-30T10:46:42Z</time>
      </trkpt>
      <trkpt lat="41.8853520" lon="-2.8070350">
        <ele>1289.2</ele>
        <time>2022-01-30T10:46:43Z</time>
      </trkpt>
      <trkpt lat="41.8853670" lon="-2.8070330">
        <ele>1289.5</ele>
        <time>2022-01-30T10:46:44Z</time>
      </trkpt>
      <trkpt lat="41.8853750" lon="-2.8070350">
        <ele>1289.6</ele>
        <time>2022-01-30T10:46:45Z</time>
      </trkpt>
      <trkpt lat="41.8853870" lon="-2.8070350">
        <ele>1289.7</ele>
        <time>2022-01-30T10:46:46Z</time>
      </trkpt>
      <trkpt lat="41.8853970" lon="-2.8070370">
        <ele>1289.9</ele>
        <time>2022-01-30T10:46:47Z</time>
      </trkpt>
      <trkpt lat="41.8854050" lon="-2.8070350">
        <ele>1290.0</ele>
        <time>2022-01-30T10:46:48Z</time>
      </trkpt>
      <trkpt lat="41.8854150" lon="-2.8070370">
        <ele>1290.1</ele>
        <time>2022-01-30T10:46:49Z</time>
      </trkpt>
      <trkpt lat="41.8854230" lon="-2.8070380">
        <ele>1290.3</ele>
        <time>2022-01-30T10:46:50Z</time>
      </trkpt>
      <trkpt lat="41.8854320" lon="-2.8070430">
        <ele>1290.4</ele>
        <time>2022-01-30T10:46:51Z</time>
      </trkpt>
      <trkpt lat="41.8854420" lon="-2.8070480">
        <ele>1290.6</ele>
        <time>2022-01-30T10:46:52Z</time>
      </trkpt>
      <trkpt lat="41.8854480" lon="-2.8070530">
        <ele>1290.7</ele>
        <time>2022-01-30T10:46:53Z</time>
      </trkpt>
      <trkpt lat="41.8854550" lon="-2.8070570">
        <ele>1290.8</ele>
        <time>2022-01-30T10:46:54Z</time>
      </trkpt>
      <trkpt lat="41.8854630" lon="-2.8070600">
        <ele>1290.9</ele>
        <time>2022-01-30T10:46:55Z</time>
      </trkpt>
      <trkpt lat="41.8854720" lon="-2.8070650">
        <ele>1291.0</ele>
        <time>2022-01-30T10:46:56Z</time>
      </trkpt>
      <trkpt lat="41.8854800" lon="-2.8070720">
        <ele>1291.2</ele>
        <time>2022-01-30T10:46:57Z</time>
      </trkpt>
      <trkpt lat="41.8854880" lon="-2.8070800">
        <ele>1291.3</ele>
        <time>2022-01-30T10:46:58Z</time>
      </trkpt>
      <trkpt lat="41.8854950" lon="-2.8070880">
        <ele>1291.4</ele>
        <time>2022-01-30T10:46:59Z</time>
      </trkpt>
      <trkpt lat="41.8855020" lon="-2.8071000">
        <ele>1291.6</ele>
        <time>2022-01-30T10:47:00Z</time>
      </trkpt>
      <trkpt lat="41.8855050" lon="-2.8071130">
        <ele>1291.7</ele>
        <time>2022-01-30T10:47:01Z</time>
      </trkpt>
      <trkpt lat="41.8855080" lon="-2.8071270">
        <ele>1291.9</ele>
        <time>2022-01-30T10:47:02Z</time>
      </trkpt>
      <trkpt lat="41.8855070" lon="-2.8071420">
        <ele>1292.0</ele>
        <time>2022-01-30T10:47:03Z</time>
      </trkpt>
      <trkpt lat="41.8854980" lon="-2.8071550">
        <ele>1292.2</ele>
        <time>2022-01-30T10:47:04Z</time>
      </trkpt>
      <trkpt lat="41.8854920" lon="-2.8071680">
        <ele>1292.4</ele>
        <time>2022-01-30T10:47:05Z</time>
      </trkpt>
      <trkpt lat="41.8854880" lon="-2.8071820">
        <ele>1292.5</ele>
        <time>2022-01-30T10:47:06Z</time>
      </trkpt>
      <trkpt lat="41.8854870" lon="-2.8071950">
        <ele>1292.7</ele>
        <time>2022-01-30T10:47:07Z</time>
      </trkpt>
      <trkpt lat="41.8854850" lon="-2.8072080">
        <ele>1292.8</ele>
        <time>2022-01-30T10:47:08Z</time>
      </trkpt>
      <trkpt lat="41.8854820" lon="-2.8072230">
        <ele>1293.0</ele>
        <time>2022-01-30T10:47:09Z</time>
      </trkpt>
      <trkpt lat="41.8854800" lon="-2.8072380">
        <ele>1293.2</ele>
        <time>2022-01-30T10:47:10Z</time>
      </trkpt>
      <trkpt lat="41.8854830" lon="-2.8072550">
        <ele>1293.4</ele>
        <time>2022-01-30T10:47:11Z</time>
      </trkpt>
      <trkpt lat="41.8854850" lon="-2.8072670">
        <ele>1293.5</ele>
        <time>2022-01-30T10:47:12Z</time>
      </trkpt>
      <trkpt lat="41.8854820" lon="-2.8072850">
        <ele>1293.7</ele>
        <time>2022-01-30T10:47:13Z</time>
      </trkpt>
      <trkpt lat="41.8854780" lon="-2.8073020">
        <ele>1293.9</ele>
        <time>2022-01-30T10:47:14Z</time>
      </trkpt>
      <trkpt lat="41.8854730" lon="-2.8073200">
        <ele>1294.1</ele>
        <time>2022-01-30T10:47:15Z</time>
      </trkpt>
      <trkpt lat="41.8854670" lon="-2.8073420">
        <ele>1294.4</ele>
        <time>2022-01-30T10:47:16Z</time>
      </trkpt>
      <trkpt lat="41.8854570" lon="-2.8073600">
        <ele>1294.6</ele>
        <time>2022-01-30T10:47:17Z</time>
      </trkpt>
      <trkpt lat="41.8854470" lon="-2.8073800">
        <ele>1294.9</ele>
        <time>2022-01-30T10:47:18Z</time>
      </trkpt>
      <trkpt lat="41.8854330" lon="-2.8074000">
        <ele>1295.2</ele>
        <time>2022-01-30T10:47:19Z</time>
      </trkpt>
      <trkpt lat="41.8854200" lon="-2.8074170">
        <ele>1295.5</ele>
        <time>2022-01-30T10:47:20Z</time>
      </trkpt>
      <trkpt lat="41.8854100" lon="-2.8074350">
        <ele>1295.7</ele>
        <time>2022-01-30T10:47:21Z</time>
      </trkpt>
      <trkpt lat="41.8854030" lon="-2.8074530">
        <ele>1295.9</ele>
        <time>2022-01-30T10:47:22Z</time>
      </trkpt>
      <trkpt lat="41.8853970" lon="-2.8074750">
        <ele>1296.1</ele>
        <time>2022-01-30T10:47:23Z</time>
      </trkpt>
      <trkpt lat="41.8853950" lon="-2.8074950">
        <ele>1296.3</ele>
        <time>2022-01-30T10:47:24Z</time>
      </trkpt>
      <trkpt lat="41.8853950" lon="-2.8075130">
        <ele>1296.5</ele>
        <time>2022-01-30T10:47:25Z</time>
      </trkpt>
      <trkpt lat="41.8853970" lon="-2.8075330">
        <ele>1296.7</ele>
        <time>2022-01-30T10:47:26Z</time>
      </trkpt>
      <trkpt lat="41.8854020" lon="-2.8075500">
        <ele>1296.9</ele>
        <time>2022-01-30T10:47:27Z</time>
      </trkpt>
      <trkpt lat="41.8854070" lon="-2.8075680">
        <ele>1297.0</ele>
        <time>2022-01-30T10:47:28Z</time>
      </trkpt>
      <trkpt lat="41.8854150" lon="-2.8075880">
        <ele>1297.2</ele>
        <time>2022-01-30T10:47:29Z</time>
      </trkpt>
      <trkpt lat="41.8854280" lon="-2.8076080">
        <ele>1297.4</ele>
        <time>2022-01-30T10:47:30Z</time>
      </trkpt>
      <trkpt lat="41.8854380" lon="-2.8076270">
        <ele>1297.6</ele>
        <time>2022-01-30T10:47:31Z</time>
      </trkpt>
      <trkpt lat="41.8854450" lon="-2.8076480">
        <ele>1297.8</ele>
        <time>2022-01-30T10:47:32Z</time>
      </trkpt>
      <trkpt lat="41.8854500" lon="-2.8076680">
        <ele>1297.9</ele>
        <time>2022-01-30T10:47:33Z</time>
      </trkpt>
      <trkpt lat="41.8854500" lon="-2.8076850">
        <ele>1298.0</ele>
        <time>2022-01-30T10:47:34Z</time>
      </trkpt>
      <trkpt lat="41.8854500" lon="-2.8077020">
        <ele>1298.1</ele>
        <time>2022-01-30T10:47:35Z</time>
      </trkpt>
      <trkpt lat="41.8854480" lon="-2.8077170">
        <ele>1298.2</ele>
        <time>2022-01-30T10:47:36Z</time>
      </trkpt>
      <trkpt lat="41.8854480" lon="-2.8077330">
        <ele>1298.3</ele>
        <time>2022-01-30T10:47:37Z</time>
      </trkpt>
      <trkpt lat="41.8854520" lon="-2.8077470">
        <ele>1298.4</ele>
        <time>2022-01-30T10:47:38Z</time>
      </trkpt>
      <trkpt lat="41.8854600" lon="-2.8077600">
        <ele>1298.5</ele>
        <time>2022-01-30T10:47:39Z</time>
      </trkpt>
      <trkpt lat="41.8854750" lon="-2.8077680">
        <ele>1298.5</ele>
        <time>2022-01-30T10:47:40Z</time>
      </trkpt>
      <trkpt lat="41.8854920" lon="-2.8077720">
        <ele>1298.6</ele>
        <time>2022-01-30T10:47:41Z</time>
      </trkpt>
      <trkpt lat="41.8855050" lon="-2.8077700">
        <ele>1298.7</ele>
        <time>2022-01-30T10:47:42Z</time>
      </trkpt>
      <trkpt lat="41.8855180" lon="-2.8077680">
        <ele>1298.8</ele>
        <time>2022-01-30T10:47:43Z</time>
      </trkpt>
      <trkpt lat="41.8855320" lon="-2.8077700">
        <ele>1298.8</ele>
        <time>2022-01-30T10:47:44Z</time>
      </trkpt>
      <trkpt lat="41.8855450" lon="-2.8077780">
        <ele>1298.9</ele>
        <time>2022-01-30T10:47:45Z</time>
      </trkpt>
      <trkpt lat="41.8855580" lon="-2.8077870">
        <ele>1298.9</ele>
        <time>2022-01-30T10:47:46Z</time>
      </trkpt>
      <trkpt lat="41.8855750" lon="-2.8077930">
        <ele>1299.0</ele>
        <time>2022-01-30T10:47:47Z</time>
      </trkpt>
      <trkpt lat="41.8855920" lon="-2.8078020">
        <ele>1299.1</ele>
        <time>2022-01-30T10:47:48Z</time>
      </trkpt>
      <trkpt lat="41.8856080" lon="-2.8078100">
        <ele>1299.2</ele>
        <time>2022-01-30T10:47:49Z</time>
      </trkpt>
      <trkpt lat="41.8856250" lon="-2.8078150">
        <ele>1299.2</ele>
        <time>2022-01-30T10:47:50Z</time>
      </trkpt>
      <trkpt lat="41.8856430" lon="-2.8078200">
        <ele>1299.3</ele>
        <time>2022-01-30T10:47:51Z</time>
      </trkpt>
      <trkpt lat="41.8856620" lon="-2.8078230">
        <ele>1299.4</ele>
        <time>2022-01-30T10:47:52Z</time>
      </trkpt>
      <trkpt lat="41.8856800" lon="-2.8078220">
        <ele>1299.5</ele>
        <time>2022-01-30T10:47:53Z</time>
      </trkpt>
      <trkpt lat="41.8857000" lon="-2.8078150">
        <ele>1299.6</ele>
        <time>2022-01-30T10:47:54Z</time>
      </trkpt>
      <trkpt lat="41.8857180" lon="-2.8078080">
        <ele>1299.6</ele>
        <time>2022-01-30T10:47:55Z</time>
      </trkpt>
      <trkpt lat="41.8857370" lon="-2.8078030">
        <ele>1299.7</ele>
        <time>2022-01-30T10:47:56Z</time>
      </trkpt>
      <trkpt lat="41.8857530" lon="-2.8078020">
        <ele>1299.8</ele>
        <time>2022-01-30T10:47:57Z</time>
      </trkpt>
      <trkpt lat="41.8857720" lon="-2.8078030">
        <ele>1299.9</ele>
        <time>2022-01-30T10:47:58Z</time>
      </trkpt>
      <trkpt lat="41.8857880" lon="-2.8078100">
        <ele>1300.0</ele>
        <time>2022-01-30T10:47:59Z</time>
      </trkpt>
      <trkpt lat="41.8858070" lon="-2.8078130">
        <ele>1300.1</ele>
        <time>2022-01-30T10:48:00Z</time>
      </trkpt>
      <trkpt lat="41.8858270" lon="-2.8078130">
        <ele>1300.2</ele>
        <time>2022-01-30T10:48:01Z</time>
      </trkpt>
      <trkpt lat="41.8858450" lon="-2.8078080">
        <ele>1300.3</ele>
        <time>2022-01-30T10:48:02Z</time>
      </trkpt>
      <trkpt lat="41.8858650" lon="-2.8078050">
        <ele>1300.3</ele>
        <time>2022-01-30T10:48:03Z</time>
      </trkpt>
      <trkpt lat="41.8858870" lon="-2.8078080">
        <ele>1300.4</ele>
        <time>2022-01-30T10:48:04Z</time>
      </trkpt>
      <trkpt lat="41.8859100" lon="-2.8078200">
        <ele>1300.6</ele>
        <time>2022-01-30T10:48:05Z</time>
      </trkpt>
      <trkpt lat="41.8859330" lon="-2.8078330">
        <ele>1300.7</ele>
        <time>2022-01-30T10:48:06Z</time>
      </trkpt>
      <trkpt lat="41.8859600" lon="-2.8078470">
        <ele>1300.8</ele>
        <time>2022-01-30T10:48:07Z</time>
      </trkpt>
      <trkpt lat="41.8859870" lon="-2.8078600">
        <ele>1300.9</ele>
        <time>2022-01-30T10:48:08Z</time>
      </trkpt>
      <trkpt lat="41.8860130" lon="-2.8078700">
        <ele>1301.0</ele>
        <time>2022-01-30T10:48:09Z</time>
      </trkpt>
      <trkpt lat="41.8860370" lon="-2.8078820">
        <ele>1301.1</ele>
        <time>2022-01-30T10:48:10Z</time>
      </trkpt>
      <trkpt lat="41.8860570" lon="-2.8078980">
        <ele>1301.2</ele>
        <time>2022-01-30T10:48:11Z</time>
      </trkpt>
      <trkpt lat="41.8860750" lon="-2.8079220">
        <ele>1301.3</ele>
        <time>2022-01-30T10:48:12Z</time>
      </trkpt>
      <trkpt lat="41.8860930" lon="-2.8079470">
        <ele>1301.4</ele>
        <time>2022-01-30T10:48:13Z</time>
      </trkpt>
      <trkpt lat="41.8861170" lon="-2.8079730">
        <ele>1301.5</ele>
        <time>2022-01-30T10:48:14Z</time>
      </trkpt>
      <trkpt lat="41.8861450" lon="-2.8079980">
        <ele>1301.7</ele>
        <time>2022-01-30T10:48:15Z</time>
      </trkpt>
      <trkpt lat="41.8861800" lon="-2.8080200">
        <ele>1301.8</ele>
        <time>2022-01-30T10:48:16Z</time>
      </trkpt>
      <trkpt lat="41.8862170" lon="-2.8080420">
        <ele>1302.1</ele>
        <time>2022-01-30T10:48:17Z</time>
      </trkpt>
      <trkpt lat="41.8862550" lon="-2.8080620">
        <ele>1302.3</ele>
        <time>2022-01-30T10:48:18Z</time>
      </trkpt>
      <trkpt lat="41.8862930" lon="-2.8080800">
        <ele>1302.5</ele>
        <time>2022-01-30T10:48:19Z</time>
      </trkpt>
      <trkpt lat="41.8863300" lon="-2.8080970">
        <ele>1302.8</ele>
        <time>2022-01-30T10:48:20Z</time>
      </trkpt>
      <trkpt lat="41.8863630" lon="-2.8081100">
        <ele>1303.0</ele>
        <time>2022-01-30T10:48:21Z</time>
      </trkpt>
      <trkpt lat="41.8863970" lon="-2.8081200">
        <ele>1303.3</ele>
        <time>2022-01-30T10:48:22Z</time>
      </trkpt>
      <trkpt lat="41.8864300" lon="-2.8081320">
        <ele>1303.6</ele>
        <time>2022-01-30T10:48:23Z</time>
      </trkpt>
      <trkpt lat="41.8864580" lon="-2.8081430">
        <ele>1303.8</ele>
        <time>2022-01-30T10:48:24Z</time>
      </trkpt>
      <trkpt lat="41.8864850" lon="-2.8081600">
        <ele>1304.1</ele>
        <time>2022-01-30T10:48:25Z</time>
      </trkpt>
      <trkpt lat="41.8865130" lon="-2.8081820">
        <ele>1304.4</ele>
        <time>2022-01-30T10:48:26Z</time>
      </trkpt>
      <trkpt lat="41.8865400" lon="-2.8082020">
        <ele>1304.7</ele>
        <time>2022-01-30T10:48:27Z</time>
      </trkpt>
      <trkpt lat="41.8865650" lon="-2.8082180">
        <ele>1305.0</ele>
        <time>2022-01-30T10:48:28Z</time>
      </trkpt>
      <trkpt lat="41.8865900" lon="-2.8082370">
        <ele>1305.3</ele>
        <time>2022-01-30T10:48:29Z</time>
      </trkpt>
      <trkpt lat="41.8866120" lon="-2.8082550">
        <ele>1305.6</ele>
        <time>2022-01-30T10:48:30Z</time>
      </trkpt>
      <trkpt lat="41.8866280" lon="-2.8082750">
        <ele>1305.9</ele>
        <time>2022-01-30T10:48:31Z</time>
      </trkpt>
      <trkpt lat="41.8866470" lon="-2.8082980">
        <ele>1306.2</ele>
        <time>2022-01-30T10:48:32Z</time>
      </trkpt>
      <trkpt lat="41.8866670" lon="-2.8083200">
        <ele>1306.5</ele>
        <time>2022-01-30T10:48:33Z</time>
      </trkpt>
      <trkpt lat="41.8866850" lon="-2.8083400">
        <ele>1306.8</ele>
        <time>2022-01-30T10:48:34Z</time>
      </trkpt>
      <trkpt lat="41.8866970" lon="-2.8083600">
        <ele>1307.0</ele>
        <time>2022-01-30T10:48:35Z</time>
      </trkpt>
      <trkpt lat="41.8867120" lon="-2.8083800">
        <ele>1307.2</ele>
        <time>2022-01-30T10:48:36Z</time>
      </trkpt>
      <trkpt lat="41.8867230" lon="-2.8084030">
        <ele>1307.5</ele>
        <time>2022-01-30T10:48:37Z</time>
      </trkpt>
      <trkpt lat="41.8867330" lon="-2.8084230">
        <ele>1307.7</ele>
        <time>2022-01-30T10:48:38Z</time>
      </trkpt>
      <trkpt lat="41.8867480" lon="-2.8084450">
        <ele>1308.0</ele>
        <time>2022-01-30T10:48:39Z</time>
      </trkpt>
      <trkpt lat="41.8867650" lon="-2.8084630">
        <ele>1308.2</ele>
        <time>2022-01-30T10:48:40Z</time>
      </trkpt>
      <trkpt lat="41.8867830" lon="-2.8084830">
        <ele>1308.5</ele>
        <time>2022-01-30T10:48:41Z</time>
      </trkpt>
      <trkpt lat="41.8867970" lon="-2.8084980">
        <ele>1308.8</ele>
        <time>2022-01-30T10:48:42Z</time>
      </trkpt>
      <trkpt lat="41.8868080" lon="-2.8085180">
        <ele>1309.0</ele>
        <time>2022-01-30T10:48:43Z</time>
      </trkpt>
      <trkpt lat="41.8868220" lon="-2.8085380">
        <ele>1309.3</ele>
        <time>2022-01-30T10:48:44Z</time>
      </trkpt>
      <trkpt lat="41.8868330" lon="-2.8085570">
        <ele>1309.5</ele>
        <time>2022-01-30T10:48:45Z</time>
      </trkpt>
      <trkpt lat="41.8868430" lon="-2.8085730">
        <ele>1309.7</ele>
        <time>2022-01-30T10:48:46Z</time>
      </trkpt>
      <trkpt lat="41.8868530" lon="-2.8085920">
        <ele>1309.9</ele>
        <time>2022-01-30T10:48:47Z</time>
      </trkpt>
      <trkpt lat="41.8868630" lon="-2.8086130">
        <ele>1310.1</ele>
        <time>2022-01-30T10:48:48Z</time>
      </trkpt>
      <trkpt lat="41.8868720" lon="-2.8086400">
        <ele>1310.4</ele>
        <time>2022-01-30T10:48:49Z</time>
      </trkpt>
      <trkpt lat="41.8868800" lon="-2.8086630">
        <ele>1310.6</ele>
        <time>2022-01-30T10:48:50Z</time>
      </trkpt>
      <trkpt lat="41.8868920" lon="-2.8086850">
        <ele>1310.9</ele>
        <time>2022-01-30T10:48:51Z</time>
      </trkpt>
      <trkpt lat="41.8869030" lon="-2.8087070">
        <ele>1311.1</ele>
        <time>2022-01-30T10:48:52Z</time>
      </trkpt>
      <trkpt lat="41.8869170" lon="-2.8087280">
        <ele>1311.4</ele>
        <time>2022-01-30T10:48:53Z</time>
      </trkpt>
      <trkpt lat="41.8869250" lon="-2.8087520">
        <ele>1311.6</ele>
        <time>2022-01-30T10:48:54Z</time>
      </trkpt>
      <trkpt lat="41.8869330" lon="-2.8087750">
        <ele>1311.8</ele>
        <time>2022-01-30T10:48:55Z</time>
      </trkpt>
      <trkpt lat="41.8869400" lon="-2.8088000">
        <ele>1312.0</ele>
        <time>2022-01-30T10:48:56Z</time>
      </trkpt>
      <trkpt lat="41.8869450" lon="-2.8088270">
        <ele>1312.2</ele>
        <time>2022-01-30T10:48:57Z</time>
      </trkpt>
      <trkpt lat="41.8869470" lon="-2.8088570">
        <ele>1312.4</ele>
        <time>2022-01-30T10:48:58Z</time>
      </trkpt>
      <trkpt lat="41.8869470" lon="-2.8088880">
        <ele>1312.6</ele>
        <time>2022-01-30T10:48:59Z</time>
      </trkpt>
      <trkpt lat="41.8869480" lon="-2.8089200">
        <ele>1312.8</ele>
        <time>2022-01-30T10:49:00Z</time>
      </trkpt>
      <trkpt lat="41.8869550" lon="-2.8089500">
        <ele>1313.0</ele>
        <time>2022-01-30T10:49:01Z</time>
      </trkpt>
      <trkpt lat="41.8869620" lon="-2.8089770">
        <ele>1313.1</ele>
        <time>2022-01-30T10:49:02Z</time>
      </trkpt>
      <trkpt lat="41.8869730" lon="-2.8089980">
        <ele>1313.3</ele>
        <time>2022-01-30T10:49:03Z</time>
      </trkpt>
      <trkpt lat="41.8869850" lon="-2.8090200">
        <ele>1313.4</ele>
        <time>2022-01-30T10:49:04Z</time>
      </trkpt>
      <trkpt lat="41.8869920" lon="-2.8090430">
        <ele>1313.5</ele>
        <time>2022-01-30T10:49:05Z</time>
      </trkpt>
      <trkpt lat="41.8869950" lon="-2.8090730">
        <ele>1313.6</ele>
        <time>2022-01-30T10:49:06Z</time>
      </trkpt>
      <trkpt lat="41.8869970" lon="-2.8091050">
        <ele>1313.7</ele>
        <time>2022-01-30T10:49:07Z</time>
      </trkpt>
      <trkpt lat="41.8870000" lon="-2.8091370">
        <ele>1313.7</ele>
        <time>2022-01-30T10:49:08Z</time>
      </trkpt>
      <trkpt lat="41.8870050" lon="-2.8091650">
        <ele>1313.8</ele>
        <time>2022-01-30T10:49:09Z</time>
      </trkpt>
      <trkpt lat="41.8870130" lon="-2.8091950">
        <ele>1313.8</ele>
        <time>2022-01-30T10:49:10Z</time>
      </trkpt>
      <trkpt lat="41.8870180" lon="-2.8092230">
        <ele>1313.8</ele>
        <time>2022-01-30T10:49:11Z</time>
      </trkpt>
      <trkpt lat="41.8870230" lon="-2.8092520">
        <ele>1313.8</ele>
        <time>2022-01-30T10:49:12Z</time>
      </trkpt>
      <trkpt lat="41.8870300" lon="-2.8092800">
        <ele>1313.8</ele>
        <time>2022-01-30T10:49:13Z</time>
      </trkpt>
      <trkpt lat="41.8870350" lon="-2.8093100">
        <ele>1313.8</ele>
        <time>2022-01-30T10:49:14Z</time>
      </trkpt>
      <trkpt lat="41.8870350" lon="-2.8093330">
        <ele>1313.7</ele>
        <time>2022-01-30T10:49:15Z</time>
      </trkpt>
      <trkpt lat="41.8870350" lon="-2.8093430">
        <ele>1313.7</ele>
        <time>2022-01-30T10:49:16Z</time>
      </trkpt>
      <trkpt lat="41.8870350" lon="-2.8093430">
        <ele>1313.7</ele>
        <time>2022-01-30T10:49:17Z</time>
      </trkpt>
      <trkpt lat="41.8870280" lon="-2.8093470">
        <ele>1313.7</ele>
        <time>2022-01-30T10:49:18Z</time>
      </trkpt>
      <trkpt lat="41.8870220" lon="-2.8093530">
        <ele>1313.7</ele>
        <time>2022-01-30T10:49:19Z</time>
      </trkpt>
      <trkpt lat="41.8870120" lon="-2.8093730">
        <ele>1313.7</ele>
        <time>2022-01-30T10:49:20Z</time>
      </trkpt>
      <trkpt lat="41.8869980" lon="-2.8093900">
        <ele>1313.6</ele>
        <time>2022-01-30T10:49:21Z</time>
      </trkpt>
      <trkpt lat="41.8869850" lon="-2.8094100">
        <ele>1313.6</ele>
        <time>2022-01-30T10:49:22Z</time>
      </trkpt>
      <trkpt lat="41.8869820" lon="-2.8094100">
        <ele>1313.5</ele>
        <time>2022-01-30T10:49:23Z</time>
      </trkpt>
      <trkpt lat="41.8869850" lon="-2.8094080">
        <ele>1313.5</ele>
        <time>2022-01-30T10:49:24Z</time>
      </trkpt>
      <trkpt lat="41.8869870" lon="-2.8094120">
        <ele>1313.5</ele>
        <time>2022-01-30T10:49:25Z</time>
      </trkpt>
      <trkpt lat="41.8869830" lon="-2.8094130">
        <ele>1313.5</ele>
        <time>2022-01-30T10:49:26Z</time>
      </trkpt>
      <trkpt lat="41.8869830" lon="-2.8094150">
        <ele>1313.5</ele>
        <time>2022-01-30T10:49:27Z</time>
      </trkpt>
      <trkpt lat="41.8869830" lon="-2.8094150">
        <ele>1313.5</ele>
        <time>2022-01-30T10:49:28Z</time>
      </trkpt>
      <trkpt lat="41.8869830" lon="-2.8094170">
        <ele>1313.5</ele>
        <time>2022-01-30T10:49:29Z</time>
      </trkpt>
      <trkpt lat="41.8869820" lon="-2.8094180">
        <ele>1313.5</ele>
        <time>2022-01-30T10:49:30Z</time>
      </trkpt>
      <trkpt lat="41.8869820" lon="-2.8094150">
        <ele>1313.4</ele>
        <time>2022-01-30T10:49:31Z</time>
      </trkpt>
      <trkpt lat="41.8869820" lon="-2.8094130">
        <ele>1313.4</ele>
        <time>2022-01-30T10:49:32Z</time>
      </trkpt>
      <trkpt lat="41.8869820" lon="-2.8094080">
        <ele>1313.4</ele>
        <time>2022-01-30T10:49:33Z</time>
      </trkpt>
      <trkpt lat="41.8869830" lon="-2.8094050">
        <ele>1313.4</ele>
        <time>2022-01-30T10:49:34Z</time>
      </trkpt>
      <trkpt lat="41.8869870" lon="-2.8094050">
        <ele>1313.4</ele>
        <time>2022-01-30T10:49:35Z</time>
      </trkpt>
      <trkpt lat="41.8869820" lon="-2.8094050">
        <ele>1313.3</ele>
        <time>2022-01-30T10:49:36Z</time>
      </trkpt>
      <trkpt lat="41.8869820" lon="-2.8094050">
        <ele>1313.3</ele>
        <time>2022-01-30T10:49:37Z</time>
      </trkpt>
      <trkpt lat="41.8869820" lon="-2.8094050">
        <ele>1313.3</ele>
        <time>2022-01-30T10:49:38Z</time>
      </trkpt>
      <trkpt lat="41.8869820" lon="-2.8094050">
        <ele>1313.3</ele>
        <time>2022-01-30T10:49:39Z</time>
      </trkpt>
      <trkpt lat="41.8869820" lon="-2.8094050">
        <ele>1313.3</ele>
        <time>2022-01-30T10:49:40Z</time>
      </trkpt>
      <trkpt lat="41.8869820" lon="-2.8094050">
        <ele>1313.3</ele>
        <time>2022-01-30T10:49:41Z</time>
      </trkpt>
      <trkpt lat="41.8869820" lon="-2.8094050">
        <ele>1313.3</ele>
        <time>2022-01-30T10:49:42Z</time>
      </trkpt>
      <trkpt lat="41.8869820" lon="-2.8094050">
        <ele>1313.3</ele>
        <time>2022-01-30T10:49:43Z</time>
      </trkpt>
      <trkpt lat="41.8869820" lon="-2.8094050">
        <ele>1313.3</ele>
        <time>2022-01-30T10:49:44Z</time>
      </trkpt>
      <trkpt lat="41.8869820" lon="-2.8094050">
        <ele>1313.3</ele>
        <time>2022-01-30T10:49:45Z</time>
      </trkpt>
      <trkpt lat="41.8869820" lon="-2.8094050">
        <ele>1313.3</ele>
        <time>2022-01-30T10:49:46Z</time>
      </trkpt>
      <trkpt lat="41.8869820" lon="-2.8094050">
        <ele>1313.3</ele>
        <time>2022-01-30T10:49:47Z</time>
      </trkpt>
      <trkpt lat="41.8869820" lon="-2.8094050">
        <ele>1313.3</ele>
        <time>2022-01-30T10:49:48Z</time>
      </trkpt>
      <trkpt lat="41.8869820" lon="-2.8094050">
        <ele>1313.3</ele>
        <time>2022-01-30T10:49:49Z</time>
      </trkpt>
      <trkpt lat="41.8869820" lon="-2.8094050">
        <ele>1313.3</ele>
        <time>2022-01-30T10:49:50Z</time>
      </trkpt>
      <trkpt lat="41.8869820" lon="-2.8094050">
        <ele>1313.3</ele>
        <time>2022-01-30T10:49:51Z</time>
      </trkpt>
      <trkpt lat="41.8869820" lon="-2.8094050">
        <ele>1313.3</ele>
        <time>2022-01-30T10:49:52Z</time>
      </trkpt>
      <trkpt lat="41.8869820" lon="-2.8094030">
        <ele>1313.3</ele>
        <time>2022-01-30T10:49:53Z</time>
      </trkpt>
      <trkpt lat="41.8869820" lon="-2.8094030">
        <ele>1313.3</ele>
        <time>2022-01-30T10:49:54Z</time>
      </trkpt>
      <trkpt lat="41.8869820" lon="-2.8094000">
        <ele>1313.3</ele>
        <time>2022-01-30T10:49:55Z</time>
      </trkpt>
      <trkpt lat="41.8869820" lon="-2.8093970">
        <ele>1313.3</ele>
        <time>2022-01-30T10:49:56Z</time>
      </trkpt>
      <trkpt lat="41.8869820" lon="-2.8093970">
        <ele>1313.3</ele>
        <time>2022-01-30T10:49:57Z</time>
      </trkpt>
      <trkpt lat="41.8869820" lon="-2.8093950">
        <ele>1313.3</ele>
        <time>2022-01-30T10:49:58Z</time>
      </trkpt>
      <trkpt lat="41.8869800" lon="-2.8093950">
        <ele>1313.3</ele>
        <time>2022-01-30T10:49:59Z</time>
      </trkpt>
      <trkpt lat="41.8869800" lon="-2.8093930">
        <ele>1313.3</ele>
        <time>2022-01-30T10:50:00Z</time>
      </trkpt>
      <trkpt lat="41.8869800" lon="-2.8093900">
        <ele>1313.3</ele>
        <time>2022-01-30T10:50:01Z</time>
      </trkpt>
      <trkpt lat="41.8869800" lon="-2.8093880">
        <ele>1313.3</ele>
        <time>2022-01-30T10:50:02Z</time>
      </trkpt>
      <trkpt lat="41.8869780" lon="-2.8093880">
        <ele>1313.3</ele>
        <time>2022-01-30T10:50:03Z</time>
      </trkpt>
      <trkpt lat="41.8869780" lon="-2.8093880">
        <ele>1313.3</ele>
        <time>2022-01-30T10:50:04Z</time>
      </trkpt>
      <trkpt lat="41.8869780" lon="-2.8093880">
        <ele>1313.3</ele>
        <time>2022-01-30T10:50:05Z</time>
      </trkpt>
      <trkpt lat="41.8869780" lon="-2.8093880">
        <ele>1313.3</ele>
        <time>2022-01-30T10:50:06Z</time>
      </trkpt>
      <trkpt lat="41.8869780" lon="-2.8093880">
        <ele>1313.3</ele>
        <time>2022-01-30T10:50:07Z</time>
      </trkpt>
      <trkpt lat="41.8869800" lon="-2.8093930">
        <ele>1313.2</ele>
        <time>2022-01-30T10:50:08Z</time>
      </trkpt>
      <trkpt lat="41.8869780" lon="-2.8094150">
        <ele>1313.1</ele>
        <time>2022-01-30T10:50:09Z</time>
      </trkpt>
      <trkpt lat="41.8869780" lon="-2.8094420">
        <ele>1313.0</ele>
        <time>2022-01-30T10:50:10Z</time>
      </trkpt>
      <trkpt lat="41.8869800" lon="-2.8094720">
        <ele>1312.9</ele>
        <time>2022-01-30T10:50:11Z</time>
      </trkpt>
      <trkpt lat="41.8869830" lon="-2.8095030">
        <ele>1312.8</ele>
        <time>2022-01-30T10:50:12Z</time>
      </trkpt>
      <trkpt lat="41.8869870" lon="-2.8095350">
        <ele>1312.6</ele>
        <time>2022-01-30T10:50:13Z</time>
      </trkpt>
      <trkpt lat="41.8869920" lon="-2.8095680">
        <ele>1312.5</ele>
        <time>2022-01-30T10:50:14Z</time>
      </trkpt>
      <trkpt lat="41.8869950" lon="-2.8096050">
        <ele>1312.3</ele>
        <time>2022-01-30T10:50:15Z</time>
      </trkpt>
      <trkpt lat="41.8869970" lon="-2.8096420">
        <ele>1312.2</ele>
        <time>2022-01-30T10:50:16Z</time>
      </trkpt>
      <trkpt lat="41.8870000" lon="-2.8096780">
        <ele>1312.0</ele>
        <time>2022-01-30T10:50:17Z</time>
      </trkpt>
      <trkpt lat="41.8870050" lon="-2.8097130">
        <ele>1311.9</ele>
        <time>2022-01-30T10:50:18Z</time>
      </trkpt>
      <trkpt lat="41.8870070" lon="-2.8097520">
        <ele>1311.7</ele>
        <time>2022-01-30T10:50:19Z</time>
      </trkpt>
      <trkpt lat="41.8870120" lon="-2.8097900">
        <ele>1311.5</ele>
        <time>2022-01-30T10:50:20Z</time>
      </trkpt>
      <trkpt lat="41.8870150" lon="-2.8098280">
        <ele>1311.4</ele>
        <time>2022-01-30T10:50:21Z</time>
      </trkpt>
      <trkpt lat="41.8870200" lon="-2.8098670">
        <ele>1311.2</ele>
        <time>2022-01-30T10:50:22Z</time>
      </trkpt>
      <trkpt lat="41.8870250" lon="-2.8099070">
        <ele>1311.0</ele>
        <time>2022-01-30T10:50:23Z</time>
      </trkpt>
      <trkpt lat="41.8870280" lon="-2.8099480">
        <ele>1310.7</ele>
        <time>2022-01-30T10:50:24Z</time>
      </trkpt>
      <trkpt lat="41.8870330" lon="-2.8099920">
        <ele>1310.5</ele>
        <time>2022-01-30T10:50:25Z</time>
      </trkpt>
      <trkpt lat="41.8870400" lon="-2.8100370">
        <ele>1310.2</ele>
        <time>2022-01-30T10:50:26Z</time>
      </trkpt>
      <trkpt lat="41.8870430" lon="-2.8100830">
        <ele>1309.9</ele>
        <time>2022-01-30T10:50:27Z</time>
      </trkpt>
      <trkpt lat="41.8870470" lon="-2.8101320">
        <ele>1309.5</ele>
        <time>2022-01-30T10:50:28Z</time>
      </trkpt>
      <trkpt lat="41.8870520" lon="-2.8101800">
        <ele>1309.2</ele>
        <time>2022-01-30T10:50:29Z</time>
      </trkpt>
      <trkpt lat="41.8870580" lon="-2.8102280">
        <ele>1308.8</ele>
        <time>2022-01-30T10:50:30Z</time>
      </trkpt>
      <trkpt lat="41.8870650" lon="-2.8102800">
        <ele>1308.4</ele>
        <time>2022-01-30T10:50:31Z</time>
      </trkpt>
      <trkpt lat="41.8870700" lon="-2.8103330">
        <ele>1308.0</ele>
        <time>2022-01-30T10:50:32Z</time>
      </trkpt>
      <trkpt lat="41.8870750" lon="-2.8103900">
        <ele>1307.6</ele>
        <time>2022-01-30T10:50:33Z</time>
      </trkpt>
      <trkpt lat="41.8870830" lon="-2.8104600">
        <ele>1307.0</ele>
        <time>2022-01-30T10:50:34Z</time>
      </trkpt>
      <trkpt lat="41.8870900" lon="-2.8105080">
        <ele>1306.6</ele>
        <time>2022-01-30T10:50:35Z</time>
      </trkpt>
      <trkpt lat="41.8870980" lon="-2.8105700">
        <ele>1306.1</ele>
        <time>2022-01-30T10:50:36Z</time>
      </trkpt>
      <trkpt lat="41.8871030" lon="-2.8106330">
        <ele>1305.6</ele>
        <time>2022-01-30T10:50:37Z</time>
      </trkpt>
      <trkpt lat="41.8871080" lon="-2.8107020">
        <ele>1305.1</ele>
        <time>2022-01-30T10:50:38Z</time>
      </trkpt>
      <trkpt lat="41.8871150" lon="-2.8107750">
        <ele>1304.5</ele>
        <time>2022-01-30T10:50:39Z</time>
      </trkpt>
      <trkpt lat="41.8871200" lon="-2.8108500">
        <ele>1304.0</ele>
        <time>2022-01-30T10:50:40Z</time>
      </trkpt>
      <trkpt lat="41.8871270" lon="-2.8109250">
        <ele>1303.4</ele>
        <time>2022-01-30T10:50:41Z</time>
      </trkpt>
      <trkpt lat="41.8871350" lon="-2.8110050">
        <ele>1302.9</ele>
        <time>2022-01-30T10:50:42Z</time>
      </trkpt>
      <trkpt lat="41.8871430" lon="-2.8110870">
        <ele>1302.5</ele>
        <time>2022-01-30T10:50:43Z</time>
      </trkpt>
      <trkpt lat="41.8871520" lon="-2.8111680">
        <ele>1302.0</ele>
        <time>2022-01-30T10:50:44Z</time>
      </trkpt>
      <trkpt lat="41.8871620" lon="-2.8112520">
        <ele>1301.6</ele>
        <time>2022-01-30T10:50:45Z</time>
      </trkpt>
      <trkpt lat="41.8871680" lon="-2.8113420">
        <ele>1301.1</ele>
        <time>2022-01-30T10:50:46Z</time>
      </trkpt>
      <trkpt lat="41.8871720" lon="-2.8114300">
        <ele>1300.7</ele>
        <time>2022-01-30T10:50:47Z</time>
      </trkpt>
      <trkpt lat="41.8871780" lon="-2.8115130">
        <ele>1300.3</ele>
        <time>2022-01-30T10:50:48Z</time>
      </trkpt>
      <trkpt lat="41.8871870" lon="-2.8115980">
        <ele>1299.9</ele>
        <time>2022-01-30T10:50:49Z</time>
      </trkpt>
      <trkpt lat="41.8871930" lon="-2.8116870">
        <ele>1299.4</ele>
        <time>2022-01-30T10:50:50Z</time>
      </trkpt>
      <trkpt lat="41.8872000" lon="-2.8117780">
        <ele>1298.9</ele>
        <time>2022-01-30T10:50:51Z</time>
      </trkpt>
      <trkpt lat="41.8872070" lon="-2.8118670">
        <ele>1298.5</ele>
        <time>2022-01-30T10:50:52Z</time>
      </trkpt>
      <trkpt lat="41.8872150" lon="-2.8119550">
        <ele>1298.0</ele>
        <time>2022-01-30T10:50:53Z</time>
      </trkpt>
      <trkpt lat="41.8872200" lon="-2.8120450">
        <ele>1297.5</ele>
        <time>2022-01-30T10:50:54Z</time>
      </trkpt>
      <trkpt lat="41.8872280" lon="-2.8121350">
        <ele>1297.1</ele>
        <time>2022-01-30T10:50:55Z</time>
      </trkpt>
      <trkpt lat="41.8872370" lon="-2.8122230">
        <ele>1296.6</ele>
        <time>2022-01-30T10:50:56Z</time>
      </trkpt>
      <trkpt lat="41.8872400" lon="-2.8123180">
        <ele>1296.1</ele>
        <time>2022-01-30T10:50:57Z</time>
      </trkpt>
      <trkpt lat="41.8872480" lon="-2.8124150">
        <ele>1295.6</ele>
        <time>2022-01-30T10:50:58Z</time>
      </trkpt>
      <trkpt lat="41.8872570" lon="-2.8125150">
        <ele>1295.1</ele>
        <time>2022-01-30T10:50:59Z</time>
      </trkpt>
      <trkpt lat="41.8872670" lon="-2.8126170">
        <ele>1294.7</ele>
        <time>2022-01-30T10:51:00Z</time>
      </trkpt>
      <trkpt lat="41.8872770" lon="-2.8127220">
        <ele>1294.2</ele>
        <time>2022-01-30T10:51:01Z</time>
      </trkpt>
      <trkpt lat="41.8872900" lon="-2.8128280">
        <ele>1293.8</ele>
        <time>2022-01-30T10:51:02Z</time>
      </trkpt>
      <trkpt lat="41.8872980" lon="-2.8129370">
        <ele>1293.4</ele>
        <time>2022-01-30T10:51:03Z</time>
      </trkpt>
      <trkpt lat="41.8873050" lon="-2.8130470">
        <ele>1293.0</ele>
        <time>2022-01-30T10:51:04Z</time>
      </trkpt>
      <trkpt lat="41.8873100" lon="-2.8131630">
        <ele>1292.6</ele>
        <time>2022-01-30T10:51:05Z</time>
      </trkpt>
      <trkpt lat="41.8873150" lon="-2.8132750">
        <ele>1292.3</ele>
        <time>2022-01-30T10:51:06Z</time>
      </trkpt>
      <trkpt lat="41.8873230" lon="-2.8133850">
        <ele>1292.0</ele>
        <time>2022-01-30T10:51:07Z</time>
      </trkpt>
      <trkpt lat="41.8873300" lon="-2.8134970">
        <ele>1291.7</ele>
        <time>2022-01-30T10:51:08Z</time>
      </trkpt>
      <trkpt lat="41.8873420" lon="-2.8136030">
        <ele>1291.5</ele>
        <time>2022-01-30T10:51:09Z</time>
      </trkpt>
      <trkpt lat="41.8873530" lon="-2.8137120">
        <ele>1291.3</ele>
        <time>2022-01-30T10:51:10Z</time>
      </trkpt>
      <trkpt lat="41.8873530" lon="-2.8138300">
        <ele>1291.0</ele>
        <time>2022-01-30T10:51:11Z</time>
      </trkpt>
      <trkpt lat="41.8873530" lon="-2.8139480">
        <ele>1290.8</ele>
        <time>2022-01-30T10:51:12Z</time>
      </trkpt>
      <trkpt lat="41.8873550" lon="-2.8140570">
        <ele>1290.7</ele>
        <time>2022-01-30T10:51:13Z</time>
      </trkpt>
      <trkpt lat="41.8873600" lon="-2.8141600">
        <ele>1290.5</ele>
        <time>2022-01-30T10:51:14Z</time>
      </trkpt>
      <trkpt lat="41.8873700" lon="-2.8142620">
        <ele>1290.4</ele>
        <time>2022-01-30T10:51:15Z</time>
      </trkpt>
      <trkpt lat="41.8873800" lon="-2.8143600">
        <ele>1290.3</ele>
        <time>2022-01-30T10:51:16Z</time>
      </trkpt>
      <trkpt lat="41.8873880" lon="-2.8144580">
        <ele>1290.2</ele>
        <time>2022-01-30T10:51:17Z</time>
      </trkpt>
      <trkpt lat="41.8873980" lon="-2.8145550">
        <ele>1290.1</ele>
        <time>2022-01-30T10:51:18Z</time>
      </trkpt>
      <trkpt lat="41.8874050" lon="-2.8146500">
        <ele>1290.0</ele>
        <time>2022-01-30T10:51:19Z</time>
      </trkpt>
      <trkpt lat="41.8874080" lon="-2.8147450">
        <ele>1289.9</ele>
        <time>2022-01-30T10:51:20Z</time>
      </trkpt>
      <trkpt lat="41.8874130" lon="-2.8148330">
        <ele>1289.8</ele>
        <time>2022-01-30T10:51:21Z</time>
      </trkpt>
      <trkpt lat="41.8874200" lon="-2.8149200">
        <ele>1289.7</ele>
        <time>2022-01-30T10:51:22Z</time>
      </trkpt>
      <trkpt lat="41.8874250" lon="-2.8150080">
        <ele>1289.6</ele>
        <time>2022-01-30T10:51:23Z</time>
      </trkpt>
      <trkpt lat="41.8874320" lon="-2.8150930">
        <ele>1289.5</ele>
        <time>2022-01-30T10:51:24Z</time>
      </trkpt>
      <trkpt lat="41.8874400" lon="-2.8151820">
        <ele>1289.4</ele>
        <time>2022-01-30T10:51:25Z</time>
      </trkpt>
      <trkpt lat="41.8874470" lon="-2.8152680">
        <ele>1289.3</ele>
        <time>2022-01-30T10:51:26Z</time>
      </trkpt>
      <trkpt lat="41.8874570" lon="-2.8153570">
        <ele>1289.1</ele>
        <time>2022-01-30T10:51:27Z</time>
      </trkpt>
      <trkpt lat="41.8874650" lon="-2.8154400">
        <ele>1289.0</ele>
        <time>2022-01-30T10:51:28Z</time>
      </trkpt>
      <trkpt lat="41.8874700" lon="-2.8155220">
        <ele>1288.9</ele>
        <time>2022-01-30T10:51:29Z</time>
      </trkpt>
      <trkpt lat="41.8874750" lon="-2.8156030">
        <ele>1288.7</ele>
        <time>2022-01-30T10:51:30Z</time>
      </trkpt>
      <trkpt lat="41.8874820" lon="-2.8156850">
        <ele>1288.6</ele>
        <time>2022-01-30T10:51:31Z</time>
      </trkpt>
      <trkpt lat="41.8874880" lon="-2.8157630">
        <ele>1288.4</ele>
        <time>2022-01-30T10:51:32Z</time>
      </trkpt>
      <trkpt lat="41.8874930" lon="-2.8158430">
        <ele>1288.3</ele>
        <time>2022-01-30T10:51:33Z</time>
      </trkpt>
      <trkpt lat="41.8874980" lon="-2.8159200">
        <ele>1288.1</ele>
        <time>2022-01-30T10:51:34Z</time>
      </trkpt>
      <trkpt lat="41.8875070" lon="-2.8159950">
        <ele>1288.0</ele>
        <time>2022-01-30T10:51:35Z</time>
      </trkpt>
      <trkpt lat="41.8875130" lon="-2.8160680">
        <ele>1287.9</ele>
        <time>2022-01-30T10:51:36Z</time>
      </trkpt>
      <trkpt lat="41.8875180" lon="-2.8161380">
        <ele>1287.8</ele>
        <time>2022-01-30T10:51:37Z</time>
      </trkpt>
      <trkpt lat="41.8875180" lon="-2.8162080">
        <ele>1287.7</ele>
        <time>2022-01-30T10:51:38Z</time>
      </trkpt>
      <trkpt lat="41.8875230" lon="-2.8162720">
        <ele>1287.6</ele>
        <time>2022-01-30T10:51:39Z</time>
      </trkpt>
      <trkpt lat="41.8875380" lon="-2.8163270">
        <ele>1287.5</ele>
        <time>2022-01-30T10:51:40Z</time>
      </trkpt>
      <trkpt lat="41.8875620" lon="-2.8163700">
        <ele>1287.3</ele>
        <time>2022-01-30T10:51:41Z</time>
      </trkpt>
      <trkpt lat="41.8875920" lon="-2.8163970">
        <ele>1287.2</ele>
        <time>2022-01-30T10:51:42Z</time>
      </trkpt>
      <trkpt lat="41.8876230" lon="-2.8164080">
        <ele>1287.2</ele>
        <time>2022-01-30T10:51:43Z</time>
      </trkpt>
      <trkpt lat="41.8876530" lon="-2.8164020">
        <ele>1287.1</ele>
        <time>2022-01-30T10:51:44Z</time>
      </trkpt>
      <trkpt lat="41.8876800" lon="-2.8163830">
        <ele>1287.1</ele>
        <time>2022-01-30T10:51:45Z</time>
      </trkpt>
      <trkpt lat="41.8877020" lon="-2.8163570">
        <ele>1287.0</ele>
        <time>2022-01-30T10:51:46Z</time>
      </trkpt>
      <trkpt lat="41.8877250" lon="-2.8163320">
        <ele>1286.9</ele>
        <time>2022-01-30T10:51:47Z</time>
      </trkpt>
      <trkpt lat="41.8877480" lon="-2.8163070">
        <ele>1286.8</ele>
        <time>2022-01-30T10:51:48Z</time>
      </trkpt>
      <trkpt lat="41.8877780" lon="-2.8162880">
        <ele>1286.6</ele>
        <time>2022-01-30T10:51:49Z</time>
      </trkpt>
      <trkpt lat="41.8878050" lon="-2.8162720">
        <ele>1286.4</ele>
        <time>2022-01-30T10:51:50Z</time>
      </trkpt>
      <trkpt lat="41.8878420" lon="-2.8162400">
        <ele>1286.1</ele>
        <time>2022-01-30T10:51:51Z</time>
      </trkpt>
      <trkpt lat="41.8878770" lon="-2.8162150">
        <ele>1285.8</ele>
        <time>2022-01-30T10:51:52Z</time>
      </trkpt>
      <trkpt lat="41.8879230" lon="-2.8161800">
        <ele>1285.4</ele>
        <time>2022-01-30T10:51:53Z</time>
      </trkpt>
      <trkpt lat="41.8879720" lon="-2.8161430">
        <ele>1285.0</ele>
        <time>2022-01-30T10:51:54Z</time>
      </trkpt>
      <trkpt lat="41.8880280" lon="-2.8161020">
        <ele>1284.6</ele>
        <time>2022-01-30T10:51:55Z</time>
      </trkpt>
      <trkpt lat="41.8880750" lon="-2.8160570">
        <ele>1284.3</ele>
        <time>2022-01-30T10:51:56Z</time>
      </trkpt>
      <trkpt lat="41.8881230" lon="-2.8160020">
        <ele>1283.8</ele>
        <time>2022-01-30T10:51:57Z</time>
      </trkpt>
      <trkpt lat="41.8881800" lon="-2.8159320">
        <ele>1283.2</ele>
        <time>2022-01-30T10:51:58Z</time>
      </trkpt>
      <trkpt lat="41.8882370" lon="-2.8158520">
        <ele>1282.4</ele>
        <time>2022-01-30T10:51:59Z</time>
      </trkpt>
      <trkpt lat="41.8882870" lon="-2.8157820">
        <ele>1281.6</ele>
        <time>2022-01-30T10:52:00Z</time>
      </trkpt>
      <trkpt lat="41.8883280" lon="-2.8157280">
        <ele>1280.9</ele>
        <time>2022-01-30T10:52:01Z</time>
      </trkpt>
      <trkpt lat="41.8883650" lon="-2.8156920">
        <ele>1280.3</ele>
        <time>2022-01-30T10:52:02Z</time>
      </trkpt>
      <trkpt lat="41.8884080" lon="-2.8156720">
        <ele>1279.8</ele>
        <time>2022-01-30T10:52:03Z</time>
      </trkpt>
      <trkpt lat="41.8884600" lon="-2.8156730">
        <ele>1279.2</ele>
        <time>2022-01-30T10:52:04Z</time>
      </trkpt>
      <trkpt lat="41.8885180" lon="-2.8156700">
        <ele>1278.6</ele>
        <time>2022-01-30T10:52:05Z</time>
      </trkpt>
      <trkpt lat="41.8885670" lon="-2.8156620">
        <ele>1278.2</ele>
        <time>2022-01-30T10:52:06Z</time>
      </trkpt>
      <trkpt lat="41.8886030" lon="-2.8156400">
        <ele>1277.8</ele>
        <time>2022-01-30T10:52:07Z</time>
      </trkpt>
      <trkpt lat="41.8886330" lon="-2.8156100">
        <ele>1277.4</ele>
        <time>2022-01-30T10:52:08Z</time>
      </trkpt>
      <trkpt lat="41.8886680" lon="-2.8155730">
        <ele>1277.0</ele>
        <time>2022-01-30T10:52:09Z</time>
      </trkpt>
      <trkpt lat="41.8887020" lon="-2.8155280">
        <ele>1276.5</ele>
        <time>2022-01-30T10:52:10Z</time>
      </trkpt>
      <trkpt lat="41.8887380" lon="-2.8154720">
        <ele>1275.7</ele>
        <time>2022-01-30T10:52:11Z</time>
      </trkpt>
      <trkpt lat="41.8887780" lon="-2.8154170">
        <ele>1274.9</ele>
        <time>2022-01-30T10:52:12Z</time>
      </trkpt>
      <trkpt lat="41.8888200" lon="-2.8153650">
        <ele>1274.0</ele>
        <time>2022-01-30T10:52:13Z</time>
      </trkpt>
      <trkpt lat="41.8888620" lon="-2.8153150">
        <ele>1273.1</ele>
        <time>2022-01-30T10:52:14Z</time>
      </trkpt>
      <trkpt lat="41.8889030" lon="-2.8152700">
        <ele>1272.4</ele>
        <time>2022-01-30T10:52:15Z</time>
      </trkpt>
      <trkpt lat="41.8889480" lon="-2.8152320">
        <ele>1271.6</ele>
        <time>2022-01-30T10:52:16Z</time>
      </trkpt>
      <trkpt lat="41.8889920" lon="-2.8152050">
        <ele>1270.9</ele>
        <time>2022-01-30T10:52:17Z</time>
      </trkpt>
      <trkpt lat="41.8890430" lon="-2.8151850">
        <ele>1270.0</ele>
        <time>2022-01-30T10:52:18Z</time>
      </trkpt>
      <trkpt lat="41.8890980" lon="-2.8151750">
        <ele>1268.9</ele>
        <time>2022-01-30T10:52:19Z</time>
      </trkpt>
      <trkpt lat="41.8891570" lon="-2.8151750">
        <ele>1267.6</ele>
        <time>2022-01-30T10:52:20Z</time>
      </trkpt>
      <trkpt lat="41.8892070" lon="-2.8151650">
        <ele>1266.5</ele>
        <time>2022-01-30T10:52:21Z</time>
      </trkpt>
      <trkpt lat="41.8892580" lon="-2.8151380">
        <ele>1265.3</ele>
        <time>2022-01-30T10:52:22Z</time>
      </trkpt>
      <trkpt lat="41.8893070" lon="-2.8151020">
        <ele>1264.3</ele>
        <time>2022-01-30T10:52:23Z</time>
      </trkpt>
      <trkpt lat="41.8893500" lon="-2.8150520">
        <ele>1263.4</ele>
        <time>2022-01-30T10:52:24Z</time>
      </trkpt>
      <trkpt lat="41.8893880" lon="-2.8150080">
        <ele>1262.6</ele>
        <time>2022-01-30T10:52:25Z</time>
      </trkpt>
      <trkpt lat="41.8894250" lon="-2.8149580">
        <ele>1261.9</ele>
        <time>2022-01-30T10:52:26Z</time>
      </trkpt>
      <trkpt lat="41.8894700" lon="-2.8148980">
        <ele>1260.9</ele>
        <time>2022-01-30T10:52:27Z</time>
      </trkpt>
      <trkpt lat="41.8895100" lon="-2.8148330">
        <ele>1260.0</ele>
        <time>2022-01-30T10:52:28Z</time>
      </trkpt>
      <trkpt lat="41.8895480" lon="-2.8147680">
        <ele>1259.0</ele>
        <time>2022-01-30T10:52:29Z</time>
      </trkpt>
      <trkpt lat="41.8895820" lon="-2.8147050">
        <ele>1258.1</ele>
        <time>2022-01-30T10:52:30Z</time>
      </trkpt>
      <trkpt lat="41.8896180" lon="-2.8146350">
        <ele>1257.1</ele>
        <time>2022-01-30T10:52:31Z</time>
      </trkpt>
      <trkpt lat="41.8896520" lon="-2.8145770">
        <ele>1256.2</ele>
        <time>2022-01-30T10:52:32Z</time>
      </trkpt>
      <trkpt lat="41.8896820" lon="-2.8145170">
        <ele>1255.4</ele>
        <time>2022-01-30T10:52:33Z</time>
      </trkpt>
      <trkpt lat="41.8897100" lon="-2.8144550">
        <ele>1254.6</ele>
        <time>2022-01-30T10:52:34Z</time>
      </trkpt>
      <trkpt lat="41.8897450" lon="-2.8144030">
        <ele>1253.9</ele>
        <time>2022-01-30T10:52:35Z</time>
      </trkpt>
      <trkpt lat="41.8897900" lon="-2.8143530">
        <ele>1252.9</ele>
        <time>2022-01-30T10:52:36Z</time>
      </trkpt>
      <trkpt lat="41.8898350" lon="-2.8143180">
        <ele>1251.9</ele>
        <time>2022-01-30T10:52:37Z</time>
      </trkpt>
      <trkpt lat="41.8898730" lon="-2.8142830">
        <ele>1251.0</ele>
        <time>2022-01-30T10:52:38Z</time>
      </trkpt>
      <trkpt lat="41.8899050" lon="-2.8142500">
        <ele>1250.2</ele>
        <time>2022-01-30T10:52:39Z</time>
      </trkpt>
      <trkpt lat="41.8899370" lon="-2.8142220">
        <ele>1249.4</ele>
        <time>2022-01-30T10:52:40Z</time>
      </trkpt>
      <trkpt lat="41.8899650" lon="-2.8141830">
        <ele>1248.5</ele>
        <time>2022-01-30T10:52:41Z</time>
      </trkpt>
      <trkpt lat="41.8899970" lon="-2.8141400">
        <ele>1247.4</ele>
        <time>2022-01-30T10:52:42Z</time>
      </trkpt>
      <trkpt lat="41.8900270" lon="-2.8140830">
        <ele>1246.0</ele>
        <time>2022-01-30T10:52:43Z</time>
      </trkpt>
      <trkpt lat="41.8900580" lon="-2.8140270">
        <ele>1244.6</ele>
        <time>2022-01-30T10:52:44Z</time>
      </trkpt>
      <trkpt lat="41.8900850" lon="-2.8139670">
        <ele>1243.2</ele>
        <time>2022-01-30T10:52:45Z</time>
      </trkpt>
      <trkpt lat="41.8901150" lon="-2.8139150">
        <ele>1241.9</ele>
        <time>2022-01-30T10:52:46Z</time>
      </trkpt>
      <trkpt lat="41.8901430" lon="-2.8138700">
        <ele>1240.7</ele>
        <time>2022-01-30T10:52:47Z</time>
      </trkpt>
      <trkpt lat="41.8901820" lon="-2.8138330">
        <ele>1239.4</ele>
        <time>2022-01-30T10:52:48Z</time>
      </trkpt>
      <trkpt lat="41.8902200" lon="-2.8137980">
        <ele>1238.2</ele>
        <time>2022-01-30T10:52:49Z</time>
      </trkpt>
      <trkpt lat="41.8902550" lon="-2.8137650">
        <ele>1237.1</ele>
        <time>2022-01-30T10:52:50Z</time>
      </trkpt>
      <trkpt lat="41.8902850" lon="-2.8137230">
        <ele>1236.1</ele>
        <time>2022-01-30T10:52:51Z</time>
      </trkpt>
      <trkpt lat="41.8903130" lon="-2.8136720">
        <ele>1235.1</ele>
        <time>2022-01-30T10:52:52Z</time>
      </trkpt>
      <trkpt lat="41.8903320" lon="-2.8135780">
        <ele>1233.7</ele>
        <time>2022-01-30T10:52:53Z</time>
      </trkpt>
      <trkpt lat="41.8903680" lon="-2.8135130">
        <ele>1232.6</ele>
        <time>2022-01-30T10:52:54Z</time>
      </trkpt>
      <trkpt lat="41.8904100" lon="-2.8134630">
        <ele>1231.8</ele>
        <time>2022-01-30T10:52:55Z</time>
      </trkpt>
      <trkpt lat="41.8904520" lon="-2.8134180">
        <ele>1231.0</ele>
        <time>2022-01-30T10:52:56Z</time>
      </trkpt>
      <trkpt lat="41.8904920" lon="-2.8133750">
        <ele>1230.3</ele>
        <time>2022-01-30T10:52:57Z</time>
      </trkpt>
      <trkpt lat="41.8905230" lon="-2.8133300">
        <ele>1229.7</ele>
        <time>2022-01-30T10:52:58Z</time>
      </trkpt>
      <trkpt lat="41.8905650" lon="-2.8132730">
        <ele>1228.9</ele>
        <time>2022-01-30T10:52:59Z</time>
      </trkpt>
      <trkpt lat="41.8906030" lon="-2.8132120">
        <ele>1228.1</ele>
        <time>2022-01-30T10:53:00Z</time>
      </trkpt>
      <trkpt lat="41.8906350" lon="-2.8131380">
        <ele>1227.1</ele>
        <time>2022-01-30T10:53:01Z</time>
      </trkpt>
      <trkpt lat="41.8906780" lon="-2.8130720">
        <ele>1226.0</ele>
        <time>2022-01-30T10:53:02Z</time>
      </trkpt>
      <trkpt lat="41.8907120" lon="-2.8130050">
        <ele>1225.1</ele>
        <time>2022-01-30T10:53:03Z</time>
      </trkpt>
      <trkpt lat="41.8907350" lon="-2.8129500">
        <ele>1224.3</ele>
        <time>2022-01-30T10:53:04Z</time>
      </trkpt>
      <trkpt lat="41.8907700" lon="-2.8129180">
        <ele>1223.7</ele>
        <time>2022-01-30T10:53:05Z</time>
      </trkpt>
      <trkpt lat="41.8907880" lon="-2.8128680">
        <ele>1223.1</ele>
        <time>2022-01-30T10:53:06Z</time>
      </trkpt>
      <trkpt lat="41.8908050" lon="-2.8128070">
        <ele>1222.4</ele>
        <time>2022-01-30T10:53:07Z</time>
      </trkpt>
      <trkpt lat="41.8908170" lon="-2.8127600">
        <ele>1221.9</ele>
        <time>2022-01-30T10:53:08Z</time>
      </trkpt>
      <trkpt lat="41.8908280" lon="-2.8127070">
        <ele>1221.3</ele>
        <time>2022-01-30T10:53:09Z</time>
      </trkpt>
      <trkpt lat="41.8908380" lon="-2.8126700">
        <ele>1221.0</ele>
        <time>2022-01-30T10:53:10Z</time>
      </trkpt>
      <trkpt lat="41.8908500" lon="-2.8126300">
        <ele>1220.6</ele>
        <time>2022-01-30T10:53:11Z</time>
      </trkpt>
      <trkpt lat="41.8908670" lon="-2.8125820">
        <ele>1220.1</ele>
        <time>2022-01-30T10:53:12Z</time>
      </trkpt>
      <trkpt lat="41.8908870" lon="-2.8125220">
        <ele>1219.6</ele>
        <time>2022-01-30T10:53:13Z</time>
      </trkpt>
      <trkpt lat="41.8908980" lon="-2.8124830">
        <ele>1219.2</ele>
        <time>2022-01-30T10:53:14Z</time>
      </trkpt>
      <trkpt lat="41.8909120" lon="-2.8124380">
        <ele>1218.8</ele>
        <time>2022-01-30T10:53:15Z</time>
      </trkpt>
      <trkpt lat="41.8909250" lon="-2.8123880">
        <ele>1218.4</ele>
        <time>2022-01-30T10:53:16Z</time>
      </trkpt>
      <trkpt lat="41.8909470" lon="-2.8123450">
        <ele>1217.9</ele>
        <time>2022-01-30T10:53:17Z</time>
      </trkpt>
      <trkpt lat="41.8909750" lon="-2.8122920">
        <ele>1217.4</ele>
        <time>2022-01-30T10:53:18Z</time>
      </trkpt>
      <trkpt lat="41.8910080" lon="-2.8122430">
        <ele>1217.0</ele>
        <time>2022-01-30T10:53:19Z</time>
      </trkpt>
      <trkpt lat="41.8910350" lon="-2.8121950">
        <ele>1216.7</ele>
        <time>2022-01-30T10:53:20Z</time>
      </trkpt>
      <trkpt lat="41.8910520" lon="-2.8121370">
        <ele>1216.4</ele>
        <time>2022-01-30T10:53:21Z</time>
      </trkpt>
      <trkpt lat="41.8910570" lon="-2.8120730">
        <ele>1216.2</ele>
        <time>2022-01-30T10:53:22Z</time>
      </trkpt>
      <trkpt lat="41.8910600" lon="-2.8120020">
        <ele>1215.9</ele>
        <time>2022-01-30T10:53:23Z</time>
      </trkpt>
      <trkpt lat="41.8910650" lon="-2.8119280">
        <ele>1215.7</ele>
        <time>2022-01-30T10:53:24Z</time>
      </trkpt>
      <trkpt lat="41.8910730" lon="-2.8118500">
        <ele>1215.4</ele>
        <time>2022-01-30T10:53:25Z</time>
      </trkpt>
      <trkpt lat="41.8910730" lon="-2.8117570">
        <ele>1215.1</ele>
        <time>2022-01-30T10:53:26Z</time>
      </trkpt>
      <trkpt lat="41.8910700" lon="-2.8116770">
        <ele>1214.7</ele>
        <time>2022-01-30T10:53:27Z</time>
      </trkpt>
      <trkpt lat="41.8910600" lon="-2.8116070">
        <ele>1214.2</ele>
        <time>2022-01-30T10:53:28Z</time>
      </trkpt>
      <trkpt lat="41.8910550" lon="-2.8115400">
        <ele>1213.7</ele>
        <time>2022-01-30T10:53:29Z</time>
      </trkpt>
      <trkpt lat="41.8910630" lon="-2.8114820">
        <ele>1213.2</ele>
        <time>2022-01-30T10:53:30Z</time>
      </trkpt>
      <trkpt lat="41.8910680" lon="-2.8114180">
        <ele>1212.7</ele>
        <time>2022-01-30T10:53:31Z</time>
      </trkpt>
      <trkpt lat="41.8910770" lon="-2.8113520">
        <ele>1212.2</ele>
        <time>2022-01-30T10:53:32Z</time>
      </trkpt>
      <trkpt lat="41.8910730" lon="-2.8112800">
        <ele>1211.6</ele>
        <time>2022-01-30T10:53:33Z</time>
      </trkpt>
      <trkpt lat="41.8910580" lon="-2.8112000">
        <ele>1211.0</ele>
        <time>2022-01-30T10:53:34Z</time>
      </trkpt>
      <trkpt lat="41.8910500" lon="-2.8111270">
        <ele>1210.3</ele>
        <time>2022-01-30T10:53:35Z</time>
      </trkpt>
      <trkpt lat="41.8910450" lon="-2.8110570">
        <ele>1209.6</ele>
        <time>2022-01-30T10:53:36Z</time>
      </trkpt>
      <trkpt lat="41.8910380" lon="-2.8109820">
        <ele>1208.6</ele>
        <time>2022-01-30T10:53:37Z</time>
      </trkpt>
      <trkpt lat="41.8910320" lon="-2.8109170">
        <ele>1207.5</ele>
        <time>2022-01-30T10:53:38Z</time>
      </trkpt>
      <trkpt lat="41.8910150" lon="-2.8108700">
        <ele>1206.6</ele>
        <time>2022-01-30T10:53:39Z</time>
      </trkpt>
      <trkpt lat="41.8909970" lon="-2.8108280">
        <ele>1205.8</ele>
        <time>2022-01-30T10:53:40Z</time>
      </trkpt>
      <trkpt lat="41.8909820" lon="-2.8107870">
        <ele>1205.1</ele>
        <time>2022-01-30T10:53:41Z</time>
      </trkpt>
      <trkpt lat="41.8909700" lon="-2.8107330">
        <ele>1204.3</ele>
        <time>2022-01-30T10:53:42Z</time>
      </trkpt>
      <trkpt lat="41.8909570" lon="-2.8106880">
        <ele>1203.6</ele>
        <time>2022-01-30T10:53:43Z</time>
      </trkpt>
      <trkpt lat="41.8909450" lon="-2.8106580">
        <ele>1203.1</ele>
        <time>2022-01-30T10:53:44Z</time>
      </trkpt>
      <trkpt lat="41.8909250" lon="-2.8106320">
        <ele>1202.5</ele>
        <time>2022-01-30T10:53:45Z</time>
      </trkpt>
      <trkpt lat="41.8909120" lon="-2.8106000">
        <ele>1201.8</ele>
        <time>2022-01-30T10:53:46Z</time>
      </trkpt>
      <trkpt lat="41.8909000" lon="-2.8105670">
        <ele>1201.1</ele>
        <time>2022-01-30T10:53:47Z</time>
      </trkpt>
      <trkpt lat="41.8908870" lon="-2.8105330">
        <ele>1200.2</ele>
        <time>2022-01-30T10:53:48Z</time>
      </trkpt>
      <trkpt lat="41.8908630" lon="-2.8104780">
        <ele>1198.8</ele>
        <time>2022-01-30T10:53:49Z</time>
      </trkpt>
      <trkpt lat="41.8908450" lon="-2.8104300">
        <ele>1197.6</ele>
        <time>2022-01-30T10:53:50Z</time>
      </trkpt>
      <trkpt lat="41.8908330" lon="-2.8103720">
        <ele>1198.4</ele>
        <time>2022-01-30T10:53:51Z</time>
      </trkpt>
      <trkpt lat="41.8908170" lon="-2.8103300">
        <ele>1198.4</ele>
        <time>2022-01-30T10:53:52Z</time>
      </trkpt>
      <trkpt lat="41.8907950" lon="-2.8102750">
        <ele>1199.3</ele>
        <time>2022-01-30T10:53:53Z</time>
      </trkpt>
      <trkpt lat="41.8907700" lon="-2.8102370">
        <ele>1200.2</ele>
        <time>2022-01-30T10:53:54Z</time>
      </trkpt>
      <trkpt lat="41.8907420" lon="-2.8101920">
        <ele>1201.1</ele>
        <time>2022-01-30T10:53:55Z</time>
      </trkpt>
      <trkpt lat="41.8907050" lon="-2.8101600">
        <ele>1202.0</ele>
        <time>2022-01-30T10:53:56Z</time>
      </trkpt>
      <trkpt lat="41.8906650" lon="-2.8101330">
        <ele>1202.9</ele>
        <time>2022-01-30T10:53:57Z</time>
      </trkpt>
      <trkpt lat="41.8906330" lon="-2.8101000">
        <ele>1203.9</ele>
        <time>2022-01-30T10:53:58Z</time>
      </trkpt>
      <trkpt lat="41.8906130" lon="-2.8100630">
        <ele>1204.9</ele>
        <time>2022-01-30T10:53:59Z</time>
      </trkpt>
      <trkpt lat="41.8905920" lon="-2.8100420">
        <ele>1204.8</ele>
        <time>2022-01-30T10:54:00Z</time>
      </trkpt>
      <trkpt lat="41.8905720" lon="-2.8100200">
        <ele>1205.9</ele>
        <time>2022-01-30T10:54:01Z</time>
      </trkpt>
      <trkpt lat="41.8905500" lon="-2.8099980">
        <ele>1206.9</ele>
        <time>2022-01-30T10:54:02Z</time>
      </trkpt>
      <trkpt lat="41.8905250" lon="-2.8099780">
        <ele>1207.0</ele>
        <time>2022-01-30T10:54:03Z</time>
      </trkpt>
      <trkpt lat="41.8905070" lon="-2.8099470">
        <ele>1208.0</ele>
        <time>2022-01-30T10:54:04Z</time>
      </trkpt>
      <trkpt lat="41.8904800" lon="-2.8099180">
        <ele>1208.8</ele>
        <time>2022-01-30T10:54:05Z</time>
      </trkpt>
      <trkpt lat="41.8904650" lon="-2.8098800">
        <ele>1208.4</ele>
        <time>2022-01-30T10:54:06Z</time>
      </trkpt>
      <trkpt lat="41.8904570" lon="-2.8098370">
        <ele>1209.0</ele>
        <time>2022-01-30T10:54:07Z</time>
      </trkpt>
      <trkpt lat="41.8904530" lon="-2.8097680">
        <ele>1208.5</ele>
        <time>2022-01-30T10:54:08Z</time>
      </trkpt>
      <trkpt lat="41.8904670" lon="-2.8097250">
        <ele>1206.9</ele>
        <time>2022-01-30T10:54:09Z</time>
      </trkpt>
      <trkpt lat="41.8904770" lon="-2.8096730">
        <ele>1206.4</ele>
        <time>2022-01-30T10:54:10Z</time>
      </trkpt>
      <trkpt lat="41.8904920" lon="-2.8096150">
        <ele>1204.1</ele>
        <time>2022-01-30T10:54:11Z</time>
      </trkpt>
      <trkpt lat="41.8905070" lon="-2.8095470">
        <ele>1203.5</ele>
        <time>2022-01-30T10:54:12Z</time>
      </trkpt>
      <trkpt lat="41.8905150" lon="-2.8094900">
        <ele>1202.3</ele>
        <time>2022-01-30T10:54:13Z</time>
      </trkpt>
      <trkpt lat="41.8905150" lon="-2.8094330">
        <ele>1201.7</ele>
        <time>2022-01-30T10:54:14Z</time>
      </trkpt>
      <trkpt lat="41.8905030" lon="-2.8093830">
        <ele>1201.1</ele>
        <time>2022-01-30T10:54:15Z</time>
      </trkpt>
      <trkpt lat="41.8904850" lon="-2.8093300">
        <ele>1201.6</ele>
        <time>2022-01-30T10:54:16Z</time>
      </trkpt>
      <trkpt lat="41.8904720" lon="-2.8092830">
        <ele>1200.9</ele>
        <time>2022-01-30T10:54:17Z</time>
      </trkpt>
      <trkpt lat="41.8904620" lon="-2.8092330">
        <ele>1199.7</ele>
        <time>2022-01-30T10:54:18Z</time>
      </trkpt>
      <trkpt lat="41.8904530" lon="-2.8091770">
        <ele>1200.0</ele>
        <time>2022-01-30T10:54:19Z</time>
      </trkpt>
      <trkpt lat="41.8904470" lon="-2.8091100">
        <ele>1199.4</ele>
        <time>2022-01-30T10:54:20Z</time>
      </trkpt>
      <trkpt lat="41.8904250" lon="-2.8090570">
        <ele>1199.1</ele>
        <time>2022-01-30T10:54:21Z</time>
      </trkpt>
      <trkpt lat="41.8904130" lon="-2.8089930">
        <ele>1198.5</ele>
        <time>2022-01-30T10:54:22Z</time>
      </trkpt>
      <trkpt lat="41.8904020" lon="-2.8089080">
        <ele>1197.3</ele>
        <time>2022-01-30T10:54:23Z</time>
      </trkpt>
      <trkpt lat="41.8903970" lon="-2.8088430">
        <ele>1196.2</ele>
        <time>2022-01-30T10:54:24Z</time>
      </trkpt>
      <trkpt lat="41.8903830" lon="-2.8087700">
        <ele>1196.5</ele>
        <time>2022-01-30T10:54:25Z</time>
      </trkpt>
      <trkpt lat="41.8903820" lon="-2.8087050">
        <ele>1195.5</ele>
        <time>2022-01-30T10:54:26Z</time>
      </trkpt>
      <trkpt lat="41.8903700" lon="-2.8086450">
        <ele>1195.1</ele>
        <time>2022-01-30T10:54:27Z</time>
      </trkpt>
      <trkpt lat="41.8903780" lon="-2.8086000">
        <ele>1194.7</ele>
        <time>2022-01-30T10:54:28Z</time>
      </trkpt>
      <trkpt lat="41.8903870" lon="-2.8085530">
        <ele>1194.3</ele>
        <time>2022-01-30T10:54:29Z</time>
      </trkpt>
      <trkpt lat="41.8903880" lon="-2.8085150">
        <ele>1193.9</ele>
        <time>2022-01-30T10:54:30Z</time>
      </trkpt>
      <trkpt lat="41.8903930" lon="-2.8084800">
        <ele>1193.5</ele>
        <time>2022-01-30T10:54:31Z</time>
      </trkpt>
      <trkpt lat="41.8904070" lon="-2.8084420">
        <ele>1192.2</ele>
        <time>2022-01-30T10:54:32Z</time>
      </trkpt>
      <trkpt lat="41.8904120" lon="-2.8083970">
        <ele>1191.8</ele>
        <time>2022-01-30T10:54:33Z</time>
      </trkpt>
      <trkpt lat="41.8904180" lon="-2.8083530">
        <ele>1191.5</ele>
        <time>2022-01-30T10:54:34Z</time>
      </trkpt>
      <trkpt lat="41.8904300" lon="-2.8083320">
        <ele>1190.3</ele>
        <time>2022-01-30T10:54:35Z</time>
      </trkpt>
      <trkpt lat="41.8904370" lon="-2.8082850">
        <ele>1190.0</ele>
        <time>2022-01-30T10:54:36Z</time>
      </trkpt>
      <trkpt lat="41.8904420" lon="-2.8082400">
        <ele>1189.8</ele>
        <time>2022-01-30T10:54:37Z</time>
      </trkpt>
      <trkpt lat="41.8904380" lon="-2.8081980">
        <ele>1189.6</ele>
        <time>2022-01-30T10:54:38Z</time>
      </trkpt>
      <trkpt lat="41.8904370" lon="-2.8081550">
        <ele>1189.5</ele>
        <time>2022-01-30T10:54:39Z</time>
      </trkpt>
      <trkpt lat="41.8904370" lon="-2.8081030">
        <ele>1189.3</ele>
        <time>2022-01-30T10:54:40Z</time>
      </trkpt>
      <trkpt lat="41.8904330" lon="-2.8080580">
        <ele>1189.2</ele>
        <time>2022-01-30T10:54:41Z</time>
      </trkpt>
      <trkpt lat="41.8904200" lon="-2.8080100">
        <ele>1190.0</ele>
        <time>2022-01-30T10:54:42Z</time>
      </trkpt>
      <trkpt lat="41.8904020" lon="-2.8079570">
        <ele>1189.9</ele>
        <time>2022-01-30T10:54:43Z</time>
      </trkpt>
      <trkpt lat="41.8903800" lon="-2.8079030">
        <ele>1190.5</ele>
        <time>2022-01-30T10:54:44Z</time>
      </trkpt>
      <trkpt lat="41.8903620" lon="-2.8078450">
        <ele>1190.5</ele>
        <time>2022-01-30T10:54:45Z</time>
      </trkpt>
      <trkpt lat="41.8903500" lon="-2.8077830">
        <ele>1191.3</ele>
        <time>2022-01-30T10:54:46Z</time>
      </trkpt>
      <trkpt lat="41.8903450" lon="-2.8077220">
        <ele>1191.2</ele>
        <time>2022-01-30T10:54:47Z</time>
      </trkpt>
      <trkpt lat="41.8903420" lon="-2.8076630">
        <ele>1191.1</ele>
        <time>2022-01-30T10:54:48Z</time>
      </trkpt>
      <trkpt lat="41.8903450" lon="-2.8076050">
        <ele>1190.9</ele>
        <time>2022-01-30T10:54:49Z</time>
      </trkpt>
      <trkpt lat="41.8903450" lon="-2.8075480">
        <ele>1190.8</ele>
        <time>2022-01-30T10:54:50Z</time>
      </trkpt>
      <trkpt lat="41.8903450" lon="-2.8074980">
        <ele>1190.7</ele>
        <time>2022-01-30T10:54:51Z</time>
      </trkpt>
      <trkpt lat="41.8903520" lon="-2.8074500">
        <ele>1190.6</ele>
        <time>2022-01-30T10:54:52Z</time>
      </trkpt>
      <trkpt lat="41.8903580" lon="-2.8073900">
        <ele>1190.3</ele>
        <time>2022-01-30T10:54:53Z</time>
      </trkpt>
      <trkpt lat="41.8903670" lon="-2.8073330">
        <ele>1189.4</ele>
        <time>2022-01-30T10:54:54Z</time>
      </trkpt>
      <trkpt lat="41.8903780" lon="-2.8072650">
        <ele>1189.3</ele>
        <time>2022-01-30T10:54:55Z</time>
      </trkpt>
      <trkpt lat="41.8903850" lon="-2.8071880">
        <ele>1188.8</ele>
        <time>2022-01-30T10:54:56Z</time>
      </trkpt>
      <trkpt lat="41.8903920" lon="-2.8071150">
        <ele>1188.2</ele>
        <time>2022-01-30T10:54:57Z</time>
      </trkpt>
      <trkpt lat="41.8903900" lon="-2.8070420">
        <ele>1187.4</ele>
        <time>2022-01-30T10:54:58Z</time>
      </trkpt>
      <trkpt lat="41.8903830" lon="-2.8069630">
        <ele>1186.4</ele>
        <time>2022-01-30T10:54:59Z</time>
      </trkpt>
      <trkpt lat="41.8903700" lon="-2.8068820">
        <ele>1185.9</ele>
        <time>2022-01-30T10:55:00Z</time>
      </trkpt>
      <trkpt lat="41.8903480" lon="-2.8067920">
        <ele>1184.8</ele>
        <time>2022-01-30T10:55:01Z</time>
      </trkpt>
      <trkpt lat="41.8903320" lon="-2.8067080">
        <ele>1184.1</ele>
        <time>2022-01-30T10:55:02Z</time>
      </trkpt>
      <trkpt lat="41.8903130" lon="-2.8066330">
        <ele>1183.3</ele>
        <time>2022-01-30T10:55:03Z</time>
      </trkpt>
      <trkpt lat="41.8903000" lon="-2.8065580">
        <ele>1181.6</ele>
        <time>2022-01-30T10:55:04Z</time>
      </trkpt>
      <trkpt lat="41.8902880" lon="-2.8064930">
        <ele>1181.8</ele>
        <time>2022-01-30T10:55:05Z</time>
      </trkpt>
      <trkpt lat="41.8902720" lon="-2.8064370">
        <ele>1180.3</ele>
        <time>2022-01-30T10:55:06Z</time>
      </trkpt>
      <trkpt lat="41.8902800" lon="-2.8063820">
        <ele>1179.5</ele>
        <time>2022-01-30T10:55:07Z</time>
      </trkpt>
      <trkpt lat="41.8903000" lon="-2.8063270">
        <ele>1177.7</ele>
        <time>2022-01-30T10:55:08Z</time>
      </trkpt>
      <trkpt lat="41.8903050" lon="-2.8062730">
        <ele>1176.0</ele>
        <time>2022-01-30T10:55:09Z</time>
      </trkpt>
      <trkpt lat="41.8903120" lon="-2.8062420">
        <ele>1176.0</ele>
        <time>2022-01-30T10:55:10Z</time>
      </trkpt>
      <trkpt lat="41.8903170" lon="-2.8061980">
        <ele>1175.2</ele>
        <time>2022-01-30T10:55:11Z</time>
      </trkpt>
      <trkpt lat="41.8903250" lon="-2.8061480">
        <ele>1173.3</ele>
        <time>2022-01-30T10:55:12Z</time>
      </trkpt>
      <trkpt lat="41.8903220" lon="-2.8060930">
        <ele>1172.4</ele>
        <time>2022-01-30T10:55:13Z</time>
      </trkpt>
      <trkpt lat="41.8903170" lon="-2.8060350">
        <ele>1171.5</ele>
        <time>2022-01-30T10:55:14Z</time>
      </trkpt>
      <trkpt lat="41.8903050" lon="-2.8059870">
        <ele>1170.7</ele>
        <time>2022-01-30T10:55:15Z</time>
      </trkpt>
      <trkpt lat="41.8902970" lon="-2.8059180">
        <ele>1170.3</ele>
        <time>2022-01-30T10:55:16Z</time>
      </trkpt>
      <trkpt lat="41.8902900" lon="-2.8058470">
        <ele>1168.4</ele>
        <time>2022-01-30T10:55:17Z</time>
      </trkpt>
      <trkpt lat="41.8902970" lon="-2.8057600">
        <ele>1166.4</ele>
        <time>2022-01-30T10:55:18Z</time>
      </trkpt>
      <trkpt lat="41.8902980" lon="-2.8056920">
        <ele>1164.1</ele>
        <time>2022-01-30T10:55:19Z</time>
      </trkpt>
      <trkpt lat="41.8902800" lon="-2.8055920">
        <ele>1163.7</ele>
        <time>2022-01-30T10:55:20Z</time>
      </trkpt>
      <trkpt lat="41.8902670" lon="-2.8055170">
        <ele>1162.1</ele>
        <time>2022-01-30T10:55:21Z</time>
      </trkpt>
      <trkpt lat="41.8902600" lon="-2.8054580">
        <ele>1162.0</ele>
        <time>2022-01-30T10:55:22Z</time>
      </trkpt>
      <trkpt lat="41.8902620" lon="-2.8054100">
        <ele>1161.3</ele>
        <time>2022-01-30T10:55:23Z</time>
      </trkpt>
      <trkpt lat="41.8902630" lon="-2.8053420">
        <ele>1160.6</ele>
        <time>2022-01-30T10:55:24Z</time>
      </trkpt>
      <trkpt lat="41.8902620" lon="-2.8052880">
        <ele>1158.9</ele>
        <time>2022-01-30T10:55:25Z</time>
      </trkpt>
      <trkpt lat="41.8902720" lon="-2.8052380">
        <ele>1156.5</ele>
        <time>2022-01-30T10:55:26Z</time>
      </trkpt>
      <trkpt lat="41.8902950" lon="-2.8052000">
        <ele>1155.8</ele>
        <time>2022-01-30T10:55:27Z</time>
      </trkpt>
      <trkpt lat="41.8903120" lon="-2.8051480">
        <ele>1153.4</ele>
        <time>2022-01-30T10:55:28Z</time>
      </trkpt>
      <trkpt lat="41.8903150" lon="-2.8051180">
        <ele>1152.7</ele>
        <time>2022-01-30T10:55:29Z</time>
      </trkpt>
      <trkpt lat="41.8903130" lon="-2.8050820">
        <ele>1152.8</ele>
        <time>2022-01-30T10:55:30Z</time>
      </trkpt>
      <trkpt lat="41.8903070" lon="-2.8050420">
        <ele>1152.1</ele>
        <time>2022-01-30T10:55:31Z</time>
      </trkpt>
      <trkpt lat="41.8903020" lon="-2.8049970">
        <ele>1151.3</ele>
        <time>2022-01-30T10:55:32Z</time>
      </trkpt>
      <trkpt lat="41.8902930" lon="-2.8049530">
        <ele>1152.1</ele>
        <time>2022-01-30T10:55:33Z</time>
      </trkpt>
      <trkpt lat="41.8902880" lon="-2.8049130">
        <ele>1151.2</ele>
        <time>2022-01-30T10:55:34Z</time>
      </trkpt>
      <trkpt lat="41.8902850" lon="-2.8048670">
        <ele>1150.2</ele>
        <time>2022-01-30T10:55:35Z</time>
      </trkpt>
      <trkpt lat="41.8902880" lon="-2.8048100">
        <ele>1148.1</ele>
        <time>2022-01-30T10:55:36Z</time>
      </trkpt>
      <trkpt lat="41.8902920" lon="-2.8047570">
        <ele>1147.0</ele>
        <time>2022-01-30T10:55:37Z</time>
      </trkpt>
      <trkpt lat="41.8903000" lon="-2.8047030">
        <ele>1144.4</ele>
        <time>2022-01-30T10:55:38Z</time>
      </trkpt>
      <trkpt lat="41.8903100" lon="-2.8046380">
        <ele>1142.3</ele>
        <time>2022-01-30T10:55:39Z</time>
      </trkpt>
      <trkpt lat="41.8903250" lon="-2.8045500">
        <ele>1140.3</ele>
        <time>2022-01-30T10:55:40Z</time>
      </trkpt>
      <trkpt lat="41.8903420" lon="-2.8044550">
        <ele>1136.7</ele>
        <time>2022-01-30T10:55:41Z</time>
      </trkpt>
      <trkpt lat="41.8903530" lon="-2.8043500">
        <ele>1136.8</ele>
        <time>2022-01-30T10:55:42Z</time>
      </trkpt>
      <trkpt lat="41.8903620" lon="-2.8042470">
        <ele>1136.8</ele>
        <time>2022-01-30T10:55:43Z</time>
      </trkpt>
      <trkpt lat="41.8903720" lon="-2.8041520">
        <ele>1136.8</ele>
        <time>2022-01-30T10:55:44Z</time>
      </trkpt>
      <trkpt lat="41.8903770" lon="-2.8040680">
        <ele>1136.6</ele>
        <time>2022-01-30T10:55:45Z</time>
      </trkpt>
      <trkpt lat="41.8903830" lon="-2.8039820">
        <ele>1136.3</ele>
        <time>2022-01-30T10:55:46Z</time>
      </trkpt>
      <trkpt lat="41.8903720" lon="-2.8039050">
        <ele>1136.0</ele>
        <time>2022-01-30T10:55:47Z</time>
      </trkpt>
      <trkpt lat="41.8903530" lon="-2.8038470">
        <ele>1135.8</ele>
        <time>2022-01-30T10:55:48Z</time>
      </trkpt>
      <trkpt lat="41.8903280" lon="-2.8037950">
        <ele>1135.6</ele>
        <time>2022-01-30T10:55:49Z</time>
      </trkpt>
      <trkpt lat="41.8903020" lon="-2.8037600">
        <ele>1135.5</ele>
        <time>2022-01-30T10:55:50Z</time>
      </trkpt>
      <trkpt lat="41.8902720" lon="-2.8037180">
        <ele>1135.3</ele>
        <time>2022-01-30T10:55:51Z</time>
      </trkpt>
      <trkpt lat="41.8902400" lon="-2.8036730">
        <ele>1135.0</ele>
        <time>2022-01-30T10:55:52Z</time>
      </trkpt>
      <trkpt lat="41.8901980" lon="-2.8036180">
        <ele>1134.8</ele>
        <time>2022-01-30T10:55:53Z</time>
      </trkpt>
      <trkpt lat="41.8901530" lon="-2.8035580">
        <ele>1134.4</ele>
        <time>2022-01-30T10:55:54Z</time>
      </trkpt>
      <trkpt lat="41.8901100" lon="-2.8035180">
        <ele>1134.2</ele>
        <time>2022-01-30T10:55:55Z</time>
      </trkpt>
      <trkpt lat="41.8900700" lon="-2.8034880">
        <ele>1133.9</ele>
        <time>2022-01-30T10:55:56Z</time>
      </trkpt>
      <trkpt lat="41.8900430" lon="-2.8034580">
        <ele>1133.6</ele>
        <time>2022-01-30T10:55:57Z</time>
      </trkpt>
      <trkpt lat="41.8900230" lon="-2.8034370">
        <ele>1133.4</ele>
        <time>2022-01-30T10:55:58Z</time>
      </trkpt>
      <trkpt lat="41.8900130" lon="-2.8034180">
        <ele>1133.2</ele>
        <time>2022-01-30T10:55:59Z</time>
      </trkpt>
      <trkpt lat="41.8900120" lon="-2.8034080">
        <ele>1133.1</ele>
        <time>2022-01-30T10:56:00Z</time>
      </trkpt>
      <trkpt lat="41.8900070" lon="-2.8034120">
        <ele>1133.0</ele>
        <time>2022-01-30T10:56:01Z</time>
      </trkpt>
      <trkpt lat="41.8900030" lon="-2.8034120">
        <ele>1133.0</ele>
        <time>2022-01-30T10:56:02Z</time>
      </trkpt>
      <trkpt lat="41.8900050" lon="-2.8034130">
        <ele>1133.0</ele>
        <time>2022-01-30T10:56:03Z</time>
      </trkpt>
      <trkpt lat="41.8900100" lon="-2.8034170">
        <ele>1132.9</ele>
        <time>2022-01-30T10:56:04Z</time>
      </trkpt>
      <trkpt lat="41.8900100" lon="-2.8034200">
        <ele>1132.9</ele>
        <time>2022-01-30T10:56:05Z</time>
      </trkpt>
      <trkpt lat="41.8900130" lon="-2.8034270">
        <ele>1132.8</ele>
        <time>2022-01-30T10:56:06Z</time>
      </trkpt>
      <trkpt lat="41.8900130" lon="-2.8034300">
        <ele>1132.8</ele>
        <time>2022-01-30T10:56:07Z</time>
      </trkpt>
      <trkpt lat="41.8900170" lon="-2.8034330">
        <ele>1132.7</ele>
        <time>2022-01-30T10:56:08Z</time>
      </trkpt>
      <trkpt lat="41.8900230" lon="-2.8034400">
        <ele>1132.6</ele>
        <time>2022-01-30T10:56:09Z</time>
      </trkpt>
      <trkpt lat="41.8900270" lon="-2.8034450">
        <ele>1132.5</ele>
        <time>2022-01-30T10:56:10Z</time>
      </trkpt>
      <trkpt lat="41.8900320" lon="-2.8034470">
        <ele>1132.5</ele>
        <time>2022-01-30T10:56:11Z</time>
      </trkpt>
      <trkpt lat="41.8900300" lon="-2.8034480">
        <ele>1132.4</ele>
        <time>2022-01-30T10:56:12Z</time>
      </trkpt>
      <trkpt lat="41.8900250" lon="-2.8034480">
        <ele>1132.4</ele>
        <time>2022-01-30T10:56:13Z</time>
      </trkpt>
      <trkpt lat="41.8900250" lon="-2.8034480">
        <ele>1132.4</ele>
        <time>2022-01-30T10:56:14Z</time>
      </trkpt>
      <trkpt lat="41.8900250" lon="-2.8034480">
        <ele>1132.4</ele>
        <time>2022-01-30T10:56:15Z</time>
      </trkpt>
      <trkpt lat="41.8900250" lon="-2.8034480">
        <ele>1132.4</ele>
        <time>2022-01-30T10:56:16Z</time>
      </trkpt>
      <trkpt lat="41.8900250" lon="-2.8034480">
        <ele>1132.4</ele>
        <time>2022-01-30T10:56:17Z</time>
      </trkpt>
      <trkpt lat="41.8900250" lon="-2.8034480">
        <ele>1132.4</ele>
        <time>2022-01-30T10:56:18Z</time>
      </trkpt>
      <trkpt lat="41.8900250" lon="-2.8034480">
        <ele>1132.4</ele>
        <time>2022-01-30T10:56:19Z</time>
      </trkpt>
      <trkpt lat="41.8900250" lon="-2.8034480">
        <ele>1132.4</ele>
        <time>2022-01-30T10:56:20Z</time>
      </trkpt>
      <trkpt lat="41.8900250" lon="-2.8034480">
        <ele>1132.4</ele>
        <time>2022-01-30T10:56:21Z</time>
      </trkpt>
      <trkpt lat="41.8900250" lon="-2.8034480">
        <ele>1132.4</ele>
        <time>2022-01-30T10:56:22Z</time>
      </trkpt>
      <trkpt lat="41.8900250" lon="-2.8034480">
        <ele>1132.4</ele>
        <time>2022-01-30T10:56:23Z</time>
      </trkpt>
      <trkpt lat="41.8900250" lon="-2.8034480">
        <ele>1132.4</ele>
        <time>2022-01-30T10:56:24Z</time>
      </trkpt>
      <trkpt lat="41.8900250" lon="-2.8034480">
        <ele>1132.4</ele>
        <time>2022-01-30T10:56:25Z</time>
      </trkpt>
      <trkpt lat="41.8900250" lon="-2.8034480">
        <ele>1132.4</ele>
        <time>2022-01-30T10:56:26Z</time>
      </trkpt>
      <trkpt lat="41.8900250" lon="-2.8034480">
        <ele>1132.4</ele>
        <time>2022-01-30T10:56:27Z</time>
      </trkpt>
      <trkpt lat="41.8900250" lon="-2.8034480">
        <ele>1132.4</ele>
        <time>2022-01-30T10:56:28Z</time>
      </trkpt>
      <trkpt lat="41.8900250" lon="-2.8034480">
        <ele>1132.4</ele>
        <time>2022-01-30T10:56:29Z</time>
      </trkpt>
      <trkpt lat="41.8900250" lon="-2.8034480">
        <ele>1132.4</ele>
        <time>2022-01-30T10:56:30Z</time>
      </trkpt>
      <trkpt lat="41.8900250" lon="-2.8034480">
        <ele>1132.4</ele>
        <time>2022-01-30T10:56:31Z</time>
      </trkpt>
      <trkpt lat="41.8900250" lon="-2.8034480">
        <ele>1132.4</ele>
        <time>2022-01-30T10:56:32Z</time>
      </trkpt>
      <trkpt lat="41.8900250" lon="-2.8034480">
        <ele>1132.4</ele>
        <time>2022-01-30T10:56:33Z</time>
      </trkpt>
      <trkpt lat="41.8900250" lon="-2.8034500">
        <ele>1132.4</ele>
        <time>2022-01-30T10:56:34Z</time>
      </trkpt>
      <trkpt lat="41.8900250" lon="-2.8034500">
        <ele>1132.4</ele>
        <time>2022-01-30T10:56:35Z</time>
      </trkpt>
      <trkpt lat="41.8900250" lon="-2.8034500">
        <ele>1132.4</ele>
        <time>2022-01-30T10:56:36Z</time>
      </trkpt>
      <trkpt lat="41.8900270" lon="-2.8034520">
        <ele>1132.3</ele>
        <time>2022-01-30T10:56:37Z</time>
      </trkpt>
      <trkpt lat="41.8900280" lon="-2.8034520">
        <ele>1132.3</ele>
        <time>2022-01-30T10:56:38Z</time>
      </trkpt>
      <trkpt lat="41.8900300" lon="-2.8034520">
        <ele>1132.3</ele>
        <time>2022-01-30T10:56:39Z</time>
      </trkpt>
      <trkpt lat="41.8900320" lon="-2.8034520">
        <ele>1132.3</ele>
        <time>2022-01-30T10:56:40Z</time>
      </trkpt>
      <trkpt lat="41.8900320" lon="-2.8034530">
        <ele>1132.3</ele>
        <time>2022-01-30T10:56:41Z</time>
      </trkpt>
      <trkpt lat="41.8900350" lon="-2.8034530">
        <ele>1132.2</ele>
        <time>2022-01-30T10:56:42Z</time>
      </trkpt>
      <trkpt lat="41.8900400" lon="-2.8034530">
        <ele>1132.2</ele>
        <time>2022-01-30T10:56:43Z</time>
      </trkpt>
      <trkpt lat="41.8900420" lon="-2.8034530">
        <ele>1132.1</ele>
        <time>2022-01-30T10:56:44Z</time>
      </trkpt>
      <trkpt lat="41.8900420" lon="-2.8034550">
        <ele>1132.1</ele>
        <time>2022-01-30T10:56:45Z</time>
      </trkpt>
      <trkpt lat="41.8900430" lon="-2.8034550">
        <ele>1132.1</ele>
        <time>2022-01-30T10:56:46Z</time>
      </trkpt>
      <trkpt lat="41.8900450" lon="-2.8034550">
        <ele>1132.1</ele>
        <time>2022-01-30T10:56:47Z</time>
      </trkpt>
      <trkpt lat="41.8900500" lon="-2.8034550">
        <ele>1132.0</ele>
        <time>2022-01-30T10:56:48Z</time>
      </trkpt>
      <trkpt lat="41.8900530" lon="-2.8034570">
        <ele>1132.0</ele>
        <time>2022-01-30T10:56:49Z</time>
      </trkpt>
      <trkpt lat="41.8900570" lon="-2.8034570">
        <ele>1131.9</ele>
        <time>2022-01-30T10:56:50Z</time>
      </trkpt>
      <trkpt lat="41.8900600" lon="-2.8034570">
        <ele>1131.9</ele>
        <time>2022-01-30T10:56:51Z</time>
      </trkpt>
      <trkpt lat="41.8900620" lon="-2.8034620">
        <ele>1131.8</ele>
        <time>2022-01-30T10:56:52Z</time>
      </trkpt>
      <trkpt lat="41.8900630" lon="-2.8034650">
        <ele>1131.8</ele>
        <time>2022-01-30T10:56:53Z</time>
      </trkpt>
      <trkpt lat="41.8900630" lon="-2.8034670">
        <ele>1131.8</ele>
        <time>2022-01-30T10:56:54Z</time>
      </trkpt>
      <trkpt lat="41.8900630" lon="-2.8034670">
        <ele>1131.8</ele>
        <time>2022-01-30T10:56:55Z</time>
      </trkpt>
      <trkpt lat="41.8900650" lon="-2.8034680">
        <ele>1131.7</ele>
        <time>2022-01-30T10:56:56Z</time>
      </trkpt>
      <trkpt lat="41.8900650" lon="-2.8034700">
        <ele>1131.7</ele>
        <time>2022-01-30T10:56:57Z</time>
      </trkpt>
      <trkpt lat="41.8900650" lon="-2.8034700">
        <ele>1131.7</ele>
        <time>2022-01-30T10:56:58Z</time>
      </trkpt>
      <trkpt lat="41.8900670" lon="-2.8034730">
        <ele>1131.7</ele>
        <time>2022-01-30T10:56:59Z</time>
      </trkpt>
      <trkpt lat="41.8900670" lon="-2.8034780">
        <ele>1131.6</ele>
        <time>2022-01-30T10:57:00Z</time>
      </trkpt>
      <trkpt lat="41.8900670" lon="-2.8034800">
        <ele>1131.6</ele>
        <time>2022-01-30T10:57:01Z</time>
      </trkpt>
      <trkpt lat="41.8900670" lon="-2.8034830">
        <ele>1131.6</ele>
        <time>2022-01-30T10:57:02Z</time>
      </trkpt>
      <trkpt lat="41.8900670" lon="-2.8034870">
        <ele>1131.5</ele>
        <time>2022-01-30T10:57:03Z</time>
      </trkpt>
      <trkpt lat="41.8900670" lon="-2.8034900">
        <ele>1131.5</ele>
        <time>2022-01-30T10:57:04Z</time>
      </trkpt>
      <trkpt lat="41.8900670" lon="-2.8034920">
        <ele>1131.5</ele>
        <time>2022-01-30T10:57:05Z</time>
      </trkpt>
      <trkpt lat="41.8900670" lon="-2.8034920">
        <ele>1131.5</ele>
        <time>2022-01-30T10:57:06Z</time>
      </trkpt>
      <trkpt lat="41.8900670" lon="-2.8034920">
        <ele>1131.5</ele>
        <time>2022-01-30T10:57:07Z</time>
      </trkpt>
      <trkpt lat="41.8900650" lon="-2.8034920">
        <ele>1131.5</ele>
        <time>2022-01-30T10:57:08Z</time>
      </trkpt>
      <trkpt lat="41.8900650" lon="-2.8034920">
        <ele>1131.5</ele>
        <time>2022-01-30T10:57:09Z</time>
      </trkpt>
      <trkpt lat="41.8900650" lon="-2.8034920">
        <ele>1131.5</ele>
        <time>2022-01-30T10:57:10Z</time>
      </trkpt>
      <trkpt lat="41.8900650" lon="-2.8034920">
        <ele>1131.5</ele>
        <time>2022-01-30T10:57:11Z</time>
      </trkpt>
      <trkpt lat="41.8900650" lon="-2.8034920">
        <ele>1131.5</ele>
        <time>2022-01-30T10:57:12Z</time>
      </trkpt>
      <trkpt lat="41.8900650" lon="-2.8034920">
        <ele>1131.5</ele>
        <time>2022-01-30T10:57:13Z</time>
      </trkpt>
      <trkpt lat="41.8900650" lon="-2.8034920">
        <ele>1131.5</ele>
        <time>2022-01-30T10:57:14Z</time>
      </trkpt>
      <trkpt lat="41.8900650" lon="-2.8034920">
        <ele>1131.5</ele>
        <time>2022-01-30T10:57:15Z</time>
      </trkpt>
      <trkpt lat="41.8900650" lon="-2.8034920">
        <ele>1131.5</ele>
        <time>2022-01-30T10:57:16Z</time>
      </trkpt>
      <trkpt lat="41.8900650" lon="-2.8034920">
        <ele>1131.5</ele>
        <time>2022-01-30T10:57:17Z</time>
      </trkpt>
      <trkpt lat="41.8900650" lon="-2.8034920">
        <ele>1131.5</ele>
        <time>2022-01-30T10:57:18Z</time>
      </trkpt>
      <trkpt lat="41.8900650" lon="-2.8034920">
        <ele>1131.5</ele>
        <time>2022-01-30T10:57:19Z</time>
      </trkpt>
      <trkpt lat="41.8900650" lon="-2.8034900">
        <ele>1131.4</ele>
        <time>2022-01-30T10:57:20Z</time>
      </trkpt>
      <trkpt lat="41.8900650" lon="-2.8034880">
        <ele>1131.4</ele>
        <time>2022-01-30T10:57:21Z</time>
      </trkpt>
      <trkpt lat="41.8900630" lon="-2.8034880">
        <ele>1131.4</ele>
        <time>2022-01-30T10:57:22Z</time>
      </trkpt>
      <trkpt lat="41.8900630" lon="-2.8034870">
        <ele>1131.4</ele>
        <time>2022-01-30T10:57:23Z</time>
      </trkpt>
      <trkpt lat="41.8900630" lon="-2.8034870">
        <ele>1131.4</ele>
        <time>2022-01-30T10:57:24Z</time>
      </trkpt>
      <trkpt lat="41.8900630" lon="-2.8034870">
        <ele>1131.4</ele>
        <time>2022-01-30T10:57:25Z</time>
      </trkpt>
      <trkpt lat="41.8900630" lon="-2.8034870">
        <ele>1131.4</ele>
        <time>2022-01-30T10:57:26Z</time>
      </trkpt>
      <trkpt lat="41.8900630" lon="-2.8034850">
        <ele>1131.4</ele>
        <time>2022-01-30T10:57:27Z</time>
      </trkpt>
      <trkpt lat="41.8900630" lon="-2.8034850">
        <ele>1131.4</ele>
        <time>2022-01-30T10:57:28Z</time>
      </trkpt>
      <trkpt lat="41.8900630" lon="-2.8034850">
        <ele>1131.4</ele>
        <time>2022-01-30T10:57:29Z</time>
      </trkpt>
      <trkpt lat="41.8900630" lon="-2.8034850">
        <ele>1131.4</ele>
        <time>2022-01-30T10:57:30Z</time>
      </trkpt>
      <trkpt lat="41.8900630" lon="-2.8034830">
        <ele>1131.4</ele>
        <time>2022-01-30T10:57:31Z</time>
      </trkpt>
      <trkpt lat="41.8900630" lon="-2.8034820">
        <ele>1131.3</ele>
        <time>2022-01-30T10:57:32Z</time>
      </trkpt>
      <trkpt lat="41.8900620" lon="-2.8034720">
        <ele>1131.3</ele>
        <time>2022-01-30T10:57:33Z</time>
      </trkpt>
      <trkpt lat="41.8900600" lon="-2.8034500">
        <ele>1131.1</ele>
        <time>2022-01-30T10:57:34Z</time>
      </trkpt>
      <trkpt lat="41.8900570" lon="-2.8034330">
        <ele>1130.9</ele>
        <time>2022-01-30T10:57:35Z</time>
      </trkpt>
      <trkpt lat="41.8900530" lon="-2.8034230">
        <ele>1130.8</ele>
        <time>2022-01-30T10:57:36Z</time>
      </trkpt>
      <trkpt lat="41.8900520" lon="-2.8034170">
        <ele>1130.8</ele>
        <time>2022-01-30T10:57:37Z</time>
      </trkpt>
      <trkpt lat="41.8900470" lon="-2.8034180">
        <ele>1130.7</ele>
        <time>2022-01-30T10:57:38Z</time>
      </trkpt>
      <trkpt lat="41.8900470" lon="-2.8034150">
        <ele>1130.7</ele>
        <time>2022-01-30T10:57:39Z</time>
      </trkpt>
      <trkpt lat="41.8900480" lon="-2.8034080">
        <ele>1130.7</ele>
        <time>2022-01-30T10:57:40Z</time>
      </trkpt>
      <trkpt lat="41.8900550" lon="-2.8033980">
        <ele>1130.6</ele>
        <time>2022-01-30T10:57:41Z</time>
      </trkpt>
      <trkpt lat="41.8900620" lon="-2.8033870">
        <ele>1130.5</ele>
        <time>2022-01-30T10:57:42Z</time>
      </trkpt>
      <trkpt lat="41.8900620" lon="-2.8033920">
        <ele>1130.5</ele>
        <time>2022-01-30T10:57:43Z</time>
      </trkpt>
      <trkpt lat="41.8900620" lon="-2.8033900">
        <ele>1130.5</ele>
        <time>2022-01-30T10:57:44Z</time>
      </trkpt>
      <trkpt lat="41.8900620" lon="-2.8033900">
        <ele>1130.5</ele>
        <time>2022-01-30T10:57:45Z</time>
      </trkpt>
      <trkpt lat="41.8900620" lon="-2.8033900">
        <ele>1130.5</ele>
        <time>2022-01-30T10:57:46Z</time>
      </trkpt>
      <trkpt lat="41.8900620" lon="-2.8033900">
        <ele>1130.5</ele>
        <time>2022-01-30T10:57:47Z</time>
      </trkpt>
      <trkpt lat="41.8900620" lon="-2.8033900">
        <ele>1130.5</ele>
        <time>2022-01-30T10:57:48Z</time>
      </trkpt>
      <trkpt lat="41.8900620" lon="-2.8033900">
        <ele>1130.5</ele>
        <time>2022-01-30T10:57:49Z</time>
      </trkpt>
      <trkpt lat="41.8900620" lon="-2.8033900">
        <ele>1130.5</ele>
        <time>2022-01-30T10:57:50Z</time>
      </trkpt>
      <trkpt lat="41.8900620" lon="-2.8033900">
        <ele>1130.5</ele>
        <time>2022-01-30T10:57:51Z</time>
      </trkpt>
      <trkpt lat="41.8900620" lon="-2.8033900">
        <ele>1130.5</ele>
        <time>2022-01-30T10:57:52Z</time>
      </trkpt>
      <trkpt lat="41.8900620" lon="-2.8033900">
        <ele>1130.5</ele>
        <time>2022-01-30T10:57:53Z</time>
      </trkpt>
      <trkpt lat="41.8900620" lon="-2.8033900">
        <ele>1130.5</ele>
        <time>2022-01-30T10:57:54Z</time>
      </trkpt>
      <trkpt lat="41.8900620" lon="-2.8033900">
        <ele>1130.5</ele>
        <time>2022-01-30T10:57:55Z</time>
      </trkpt>
      <trkpt lat="41.8900620" lon="-2.8033880">
        <ele>1130.4</ele>
        <time>2022-01-30T10:57:56Z</time>
      </trkpt>
      <trkpt lat="41.8900620" lon="-2.8033880">
        <ele>1130.4</ele>
        <time>2022-01-30T10:57:57Z</time>
      </trkpt>
      <trkpt lat="41.8900620" lon="-2.8033880">
        <ele>1130.4</ele>
        <time>2022-01-30T10:57:58Z</time>
      </trkpt>
      <trkpt lat="41.8900620" lon="-2.8033870">
        <ele>1130.4</ele>
        <time>2022-01-30T10:57:59Z</time>
      </trkpt>
      <trkpt lat="41.8900620" lon="-2.8033870">
        <ele>1130.4</ele>
        <time>2022-01-30T10:58:00Z</time>
      </trkpt>
      <trkpt lat="41.8900620" lon="-2.8033870">
        <ele>1130.4</ele>
        <time>2022-01-30T10:58:01Z</time>
      </trkpt>
      <trkpt lat="41.8900600" lon="-2.8033850">
        <ele>1130.4</ele>
        <time>2022-01-30T10:58:02Z</time>
      </trkpt>
      <trkpt lat="41.8900600" lon="-2.8033850">
        <ele>1130.4</ele>
        <time>2022-01-30T10:58:03Z</time>
      </trkpt>
      <trkpt lat="41.8900600" lon="-2.8033850">
        <ele>1130.4</ele>
        <time>2022-01-30T10:58:04Z</time>
      </trkpt>
      <trkpt lat="41.8900580" lon="-2.8033850">
        <ele>1130.4</ele>
        <time>2022-01-30T10:58:05Z</time>
      </trkpt>
      <trkpt lat="41.8900580" lon="-2.8033850">
        <ele>1130.4</ele>
        <time>2022-01-30T10:58:06Z</time>
      </trkpt>
      <trkpt lat="41.8900580" lon="-2.8033850">
        <ele>1130.4</ele>
        <time>2022-01-30T10:58:07Z</time>
      </trkpt>
      <trkpt lat="41.8900580" lon="-2.8033850">
        <ele>1130.4</ele>
        <time>2022-01-30T10:58:08Z</time>
      </trkpt>
      <trkpt lat="41.8900580" lon="-2.8033850">
        <ele>1130.4</ele>
        <time>2022-01-30T10:58:09Z</time>
      </trkpt>
      <trkpt lat="41.8900580" lon="-2.8033850">
        <ele>1130.4</ele>
        <time>2022-01-30T10:58:10Z</time>
      </trkpt>
      <trkpt lat="41.8900580" lon="-2.8033850">
        <ele>1130.4</ele>
        <time>2022-01-30T10:58:11Z</time>
      </trkpt>
      <trkpt lat="41.8900580" lon="-2.8033850">
        <ele>1130.4</ele>
        <time>2022-01-30T10:58:12Z</time>
      </trkpt>
      <trkpt lat="41.8900570" lon="-2.8033850">
        <ele>1130.4</ele>
        <time>2022-01-30T10:58:13Z</time>
      </trkpt>
      <trkpt lat="41.8900530" lon="-2.8033850">
        <ele>1130.3</ele>
        <time>2022-01-30T10:58:14Z</time>
      </trkpt>
      <trkpt lat="41.8900520" lon="-2.8033850">
        <ele>1130.3</ele>
        <time>2022-01-30T10:58:15Z</time>
      </trkpt>
      <trkpt lat="41.8900520" lon="-2.8033850">
        <ele>1130.3</ele>
        <time>2022-01-30T10:58:16Z</time>
      </trkpt>
      <trkpt lat="41.8900520" lon="-2.8033850">
        <ele>1130.3</ele>
        <time>2022-01-30T10:58:17Z</time>
      </trkpt>
      <trkpt lat="41.8900500" lon="-2.8033850">
        <ele>1130.3</ele>
        <time>2022-01-30T10:58:18Z</time>
      </trkpt>
      <trkpt lat="41.8900500" lon="-2.8033870">
        <ele>1130.3</ele>
        <time>2022-01-30T10:58:19Z</time>
      </trkpt>
      <trkpt lat="41.8900500" lon="-2.8033870">
        <ele>1130.3</ele>
        <time>2022-01-30T10:58:20Z</time>
      </trkpt>
      <trkpt lat="41.8900500" lon="-2.8033870">
        <ele>1130.3</ele>
        <time>2022-01-30T10:58:21Z</time>
      </trkpt>
      <trkpt lat="41.8900500" lon="-2.8033870">
        <ele>1130.3</ele>
        <time>2022-01-30T10:58:22Z</time>
      </trkpt>
      <trkpt lat="41.8900480" lon="-2.8033870">
        <ele>1130.3</ele>
        <time>2022-01-30T10:58:23Z</time>
      </trkpt>
      <trkpt lat="41.8900480" lon="-2.8033900">
        <ele>1130.3</ele>
        <time>2022-01-30T10:58:24Z</time>
      </trkpt>
      <trkpt lat="41.8900480" lon="-2.8033950">
        <ele>1130.3</ele>
        <time>2022-01-30T10:58:25Z</time>
      </trkpt>
      <trkpt lat="41.8900480" lon="-2.8034020">
        <ele>1130.2</ele>
        <time>2022-01-30T10:58:26Z</time>
      </trkpt>
      <trkpt lat="41.8900480" lon="-2.8034070">
        <ele>1130.2</ele>
        <time>2022-01-30T10:58:27Z</time>
      </trkpt>
      <trkpt lat="41.8900470" lon="-2.8034070">
        <ele>1130.2</ele>
        <time>2022-01-30T10:58:28Z</time>
      </trkpt>
      <trkpt lat="41.8900450" lon="-2.8034080">
        <ele>1130.2</ele>
        <time>2022-01-30T10:58:29Z</time>
      </trkpt>
      <trkpt lat="41.8900430" lon="-2.8034080">
        <ele>1130.2</ele>
        <time>2022-01-30T10:58:30Z</time>
      </trkpt>
      <trkpt lat="41.8900430" lon="-2.8034080">
        <ele>1130.2</ele>
        <time>2022-01-30T10:58:31Z</time>
      </trkpt>
      <trkpt lat="41.8900420" lon="-2.8034080">
        <ele>1130.2</ele>
        <time>2022-01-30T10:58:32Z</time>
      </trkpt>
      <trkpt lat="41.8900420" lon="-2.8034080">
        <ele>1130.2</ele>
        <time>2022-01-30T10:58:33Z</time>
      </trkpt>
      <trkpt lat="41.8900420" lon="-2.8034080">
        <ele>1130.2</ele>
        <time>2022-01-30T10:58:34Z</time>
      </trkpt>
      <trkpt lat="41.8900420" lon="-2.8034080">
        <ele>1130.2</ele>
        <time>2022-01-30T10:58:35Z</time>
      </trkpt>
      <trkpt lat="41.8900420" lon="-2.8034080">
        <ele>1130.2</ele>
        <time>2022-01-30T10:58:36Z</time>
      </trkpt>
      <trkpt lat="41.8900420" lon="-2.8034080">
        <ele>1130.2</ele>
        <time>2022-01-30T10:58:37Z</time>
      </trkpt>
      <trkpt lat="41.8900420" lon="-2.8034080">
        <ele>1130.2</ele>
        <time>2022-01-30T10:58:38Z</time>
      </trkpt>
      <trkpt lat="41.8900420" lon="-2.8034080">
        <ele>1130.2</ele>
        <time>2022-01-30T10:58:39Z</time>
      </trkpt>
      <trkpt lat="41.8900400" lon="-2.8034080">
        <ele>1130.2</ele>
        <time>2022-01-30T10:58:40Z</time>
      </trkpt>
      <trkpt lat="41.8900400" lon="-2.8034080">
        <ele>1130.2</ele>
        <time>2022-01-30T10:58:41Z</time>
      </trkpt>
      <trkpt lat="41.8900400" lon="-2.8034080">
        <ele>1130.2</ele>
        <time>2022-01-30T10:58:42Z</time>
      </trkpt>
      <trkpt lat="41.8900380" lon="-2.8034080">
        <ele>1130.2</ele>
        <time>2022-01-30T10:58:43Z</time>
      </trkpt>
      <trkpt lat="41.8900380" lon="-2.8034080">
        <ele>1130.2</ele>
        <time>2022-01-30T10:58:44Z</time>
      </trkpt>
      <trkpt lat="41.8900370" lon="-2.8034080">
        <ele>1130.1</ele>
        <time>2022-01-30T10:58:45Z</time>
      </trkpt>
      <trkpt lat="41.8900330" lon="-2.8034080">
        <ele>1130.1</ele>
        <time>2022-01-30T10:58:46Z</time>
      </trkpt>
      <trkpt lat="41.8900320" lon="-2.8034080">
        <ele>1130.1</ele>
        <time>2022-01-30T10:58:47Z</time>
      </trkpt>
      <trkpt lat="41.8900300" lon="-2.8034080">
        <ele>1130.1</ele>
        <time>2022-01-30T10:58:48Z</time>
      </trkpt>
      <trkpt lat="41.8900300" lon="-2.8034080">
        <ele>1130.1</ele>
        <time>2022-01-30T10:58:49Z</time>
      </trkpt>
      <trkpt lat="41.8900280" lon="-2.8034080">
        <ele>1130.1</ele>
        <time>2022-01-30T10:58:50Z</time>
      </trkpt>
      <trkpt lat="41.8900270" lon="-2.8034080">
        <ele>1130.1</ele>
        <time>2022-01-30T10:58:51Z</time>
      </trkpt>
      <trkpt lat="41.8900230" lon="-2.8034080">
        <ele>1130.1</ele>
        <time>2022-01-30T10:58:52Z</time>
      </trkpt>
      <trkpt lat="41.8900200" lon="-2.8034080">
        <ele>1130.0</ele>
        <time>2022-01-30T10:58:53Z</time>
      </trkpt>
      <trkpt lat="41.8900180" lon="-2.8034080">
        <ele>1130.0</ele>
        <time>2022-01-30T10:58:54Z</time>
      </trkpt>
      <trkpt lat="41.8900170" lon="-2.8034070">
        <ele>1130.0</ele>
        <time>2022-01-30T10:58:55Z</time>
      </trkpt>
      <trkpt lat="41.8900170" lon="-2.8034070">
        <ele>1130.0</ele>
        <time>2022-01-30T10:58:56Z</time>
      </trkpt>
      <trkpt lat="41.8900150" lon="-2.8034070">
        <ele>1130.0</ele>
        <time>2022-01-30T10:58:57Z</time>
      </trkpt>
      <trkpt lat="41.8900150" lon="-2.8034070">
        <ele>1130.0</ele>
        <time>2022-01-30T10:58:58Z</time>
      </trkpt>
      <trkpt lat="41.8900150" lon="-2.8034050">
        <ele>1130.0</ele>
        <time>2022-01-30T10:58:59Z</time>
      </trkpt>
      <trkpt lat="41.8900150" lon="-2.8034050">
        <ele>1130.0</ele>
        <time>2022-01-30T10:59:00Z</time>
      </trkpt>
      <trkpt lat="41.8900150" lon="-2.8034050">
        <ele>1130.0</ele>
        <time>2022-01-30T10:59:01Z</time>
      </trkpt>
      <trkpt lat="41.8900150" lon="-2.8034050">
        <ele>1130.0</ele>
        <time>2022-01-30T10:59:02Z</time>
      </trkpt>
      <trkpt lat="41.8900150" lon="-2.8034050">
        <ele>1130.0</ele>
        <time>2022-01-30T10:59:03Z</time>
      </trkpt>
      <trkpt lat="41.8900150" lon="-2.8034030">
        <ele>1130.0</ele>
        <time>2022-01-30T10:59:04Z</time>
      </trkpt>
      <trkpt lat="41.8900150" lon="-2.8034030">
        <ele>1130.0</ele>
        <time>2022-01-30T10:59:05Z</time>
      </trkpt>
      <trkpt lat="41.8900150" lon="-2.8034030">
        <ele>1130.0</ele>
        <time>2022-01-30T10:59:06Z</time>
      </trkpt>
      <trkpt lat="41.8900150" lon="-2.8034030">
        <ele>1130.0</ele>
        <time>2022-01-30T10:59:07Z</time>
      </trkpt>
      <trkpt lat="41.8900150" lon="-2.8034030">
        <ele>1130.0</ele>
        <time>2022-01-30T10:59:08Z</time>
      </trkpt>
      <trkpt lat="41.8900150" lon="-2.8034030">
        <ele>1130.0</ele>
        <time>2022-01-30T10:59:09Z</time>
      </trkpt>
      <trkpt lat="41.8900150" lon="-2.8034030">
        <ele>1130.0</ele>
        <time>2022-01-30T10:59:10Z</time>
      </trkpt>
      <trkpt lat="41.8900150" lon="-2.8034030">
        <ele>1130.0</ele>
        <time>2022-01-30T10:59:11Z</time>
      </trkpt>
      <trkpt lat="41.8900150" lon="-2.8034030">
        <ele>1130.0</ele>
        <time>2022-01-30T10:59:12Z</time>
      </trkpt>
      <trkpt lat="41.8900150" lon="-2.8034030">
        <ele>1130.0</ele>
        <time>2022-01-30T10:59:13Z</time>
      </trkpt>
      <trkpt lat="41.8900170" lon="-2.8034020">
        <ele>1130.0</ele>
        <time>2022-01-30T10:59:14Z</time>
      </trkpt>
      <trkpt lat="41.8900180" lon="-2.8034000">
        <ele>1130.0</ele>
        <time>2022-01-30T10:59:15Z</time>
      </trkpt>
      <trkpt lat="41.8900180" lon="-2.8033980">
        <ele>1130.0</ele>
        <time>2022-01-30T10:59:16Z</time>
      </trkpt>
      <trkpt lat="41.8900180" lon="-2.8033970">
        <ele>1130.0</ele>
        <time>2022-01-30T10:59:17Z</time>
      </trkpt>
      <trkpt lat="41.8900180" lon="-2.8033970">
        <ele>1130.0</ele>
        <time>2022-01-30T10:59:18Z</time>
      </trkpt>
      <trkpt lat="41.8900180" lon="-2.8033950">
        <ele>1130.0</ele>
        <time>2022-01-30T10:59:19Z</time>
      </trkpt>
      <trkpt lat="41.8900180" lon="-2.8033950">
        <ele>1130.0</ele>
        <time>2022-01-30T10:59:20Z</time>
      </trkpt>
      <trkpt lat="41.8900180" lon="-2.8033950">
        <ele>1130.0</ele>
        <time>2022-01-30T10:59:21Z</time>
      </trkpt>
      <trkpt lat="41.8900180" lon="-2.8033930">
        <ele>1129.9</ele>
        <time>2022-01-30T10:59:22Z</time>
      </trkpt>
      <trkpt lat="41.8900180" lon="-2.8033930">
        <ele>1129.9</ele>
        <time>2022-01-30T10:59:23Z</time>
      </trkpt>
      <trkpt lat="41.8900180" lon="-2.8033930">
        <ele>1129.9</ele>
        <time>2022-01-30T10:59:24Z</time>
      </trkpt>
      <trkpt lat="41.8900180" lon="-2.8033930">
        <ele>1129.9</ele>
        <time>2022-01-30T10:59:25Z</time>
      </trkpt>
      <trkpt lat="41.8900180" lon="-2.8033930">
        <ele>1129.9</ele>
        <time>2022-01-30T10:59:26Z</time>
      </trkpt>
      <trkpt lat="41.8900180" lon="-2.8033930">
        <ele>1129.9</ele>
        <time>2022-01-30T10:59:27Z</time>
      </trkpt>
      <trkpt lat="41.8900180" lon="-2.8033920">
        <ele>1129.9</ele>
        <time>2022-01-30T10:59:28Z</time>
      </trkpt>
      <trkpt lat="41.8900180" lon="-2.8033920">
        <ele>1129.9</ele>
        <time>2022-01-30T10:59:29Z</time>
      </trkpt>
      <trkpt lat="41.8900180" lon="-2.8033920">
        <ele>1129.9</ele>
        <time>2022-01-30T10:59:30Z</time>
      </trkpt>
      <trkpt lat="41.8900180" lon="-2.8033920">
        <ele>1129.9</ele>
        <time>2022-01-30T10:59:31Z</time>
      </trkpt>
      <trkpt lat="41.8900180" lon="-2.8033900">
        <ele>1129.9</ele>
        <time>2022-01-30T10:59:32Z</time>
      </trkpt>
      <trkpt lat="41.8900180" lon="-2.8033900">
        <ele>1129.9</ele>
        <time>2022-01-30T10:59:33Z</time>
      </trkpt>
      <trkpt lat="41.8900170" lon="-2.8033900">
        <ele>1129.9</ele>
        <time>2022-01-30T10:59:34Z</time>
      </trkpt>
      <trkpt lat="41.8900170" lon="-2.8033900">
        <ele>1129.9</ele>
        <time>2022-01-30T10:59:35Z</time>
      </trkpt>
      <trkpt lat="41.8900170" lon="-2.8033900">
        <ele>1129.9</ele>
        <time>2022-01-30T10:59:36Z</time>
      </trkpt>
      <trkpt lat="41.8900170" lon="-2.8033900">
        <ele>1129.9</ele>
        <time>2022-01-30T10:59:37Z</time>
      </trkpt>
      <trkpt lat="41.8900170" lon="-2.8033880">
        <ele>1129.9</ele>
        <time>2022-01-30T10:59:38Z</time>
      </trkpt>
      <trkpt lat="41.8900170" lon="-2.8033880">
        <ele>1129.9</ele>
        <time>2022-01-30T10:59:39Z</time>
      </trkpt>
      <trkpt lat="41.8900170" lon="-2.8033880">
        <ele>1129.9</ele>
        <time>2022-01-30T10:59:40Z</time>
      </trkpt>
      <trkpt lat="41.8900150" lon="-2.8033880">
        <ele>1129.9</ele>
        <time>2022-01-30T10:59:41Z</time>
      </trkpt>
      <trkpt lat="41.8900150" lon="-2.8033900">
        <ele>1129.9</ele>
        <time>2022-01-30T10:59:42Z</time>
      </trkpt>
      <trkpt lat="41.8900150" lon="-2.8033900">
        <ele>1129.9</ele>
        <time>2022-01-30T10:59:43Z</time>
      </trkpt>
      <trkpt lat="41.8900150" lon="-2.8033900">
        <ele>1129.9</ele>
        <time>2022-01-30T10:59:44Z</time>
      </trkpt>
      <trkpt lat="41.8900150" lon="-2.8033900">
        <ele>1129.9</ele>
        <time>2022-01-30T10:59:45Z</time>
      </trkpt>
      <trkpt lat="41.8900150" lon="-2.8033920">
        <ele>1129.9</ele>
        <time>2022-01-30T10:59:46Z</time>
      </trkpt>
      <trkpt lat="41.8900130" lon="-2.8033920">
        <ele>1129.9</ele>
        <time>2022-01-30T10:59:47Z</time>
      </trkpt>
      <trkpt lat="41.8900130" lon="-2.8033920">
        <ele>1129.9</ele>
        <time>2022-01-30T10:59:48Z</time>
      </trkpt>
      <trkpt lat="41.8900130" lon="-2.8033930">
        <ele>1129.9</ele>
        <time>2022-01-30T10:59:49Z</time>
      </trkpt>
      <trkpt lat="41.8900130" lon="-2.8033930">
        <ele>1129.9</ele>
        <time>2022-01-30T10:59:50Z</time>
      </trkpt>
      <trkpt lat="41.8900130" lon="-2.8033930">
        <ele>1129.9</ele>
        <time>2022-01-30T10:59:51Z</time>
      </trkpt>
      <trkpt lat="41.8900130" lon="-2.8033970">
        <ele>1129.9</ele>
        <time>2022-01-30T10:59:52Z</time>
      </trkpt>
      <trkpt lat="41.8900130" lon="-2.8034000">
        <ele>1129.9</ele>
        <time>2022-01-30T10:59:53Z</time>
      </trkpt>
      <trkpt lat="41.8900120" lon="-2.8034050">
        <ele>1129.8</ele>
        <time>2022-01-30T10:59:54Z</time>
      </trkpt>
      <trkpt lat="41.8900120" lon="-2.8034080">
        <ele>1129.8</ele>
        <time>2022-01-30T10:59:55Z</time>
      </trkpt>
      <trkpt lat="41.8900120" lon="-2.8034100">
        <ele>1129.8</ele>
        <time>2022-01-30T10:59:56Z</time>
      </trkpt>
      <trkpt lat="41.8900100" lon="-2.8034130">
        <ele>1129.8</ele>
        <time>2022-01-30T10:59:57Z</time>
      </trkpt>
      <trkpt lat="41.8900080" lon="-2.8034170">
        <ele>1129.8</ele>
        <time>2022-01-30T10:59:58Z</time>
      </trkpt>
      <trkpt lat="41.8900080" lon="-2.8034180">
        <ele>1129.8</ele>
        <time>2022-01-30T10:59:59Z</time>
      </trkpt>
      <trkpt lat="41.8900080" lon="-2.8034220">
        <ele>1129.8</ele>
        <time>2022-01-30T11:00:00Z</time>
      </trkpt>
      <trkpt lat="41.8900070" lon="-2.8034220">
        <ele>1129.8</ele>
        <time>2022-01-30T11:00:01Z</time>
      </trkpt>
      <trkpt lat="41.8900070" lon="-2.8034230">
        <ele>1129.7</ele>
        <time>2022-01-30T11:00:02Z</time>
      </trkpt>
      <trkpt lat="41.8900070" lon="-2.8034250">
        <ele>1129.7</ele>
        <time>2022-01-30T11:00:03Z</time>
      </trkpt>
      <trkpt lat="41.8900050" lon="-2.8034250">
        <ele>1129.7</ele>
        <time>2022-01-30T11:00:04Z</time>
      </trkpt>
      <trkpt lat="41.8900050" lon="-2.8034250">
        <ele>1129.7</ele>
        <time>2022-01-30T11:00:05Z</time>
      </trkpt>
      <trkpt lat="41.8900050" lon="-2.8034270">
        <ele>1129.7</ele>
        <time>2022-01-30T11:00:06Z</time>
      </trkpt>
      <trkpt lat="41.8900030" lon="-2.8034270">
        <ele>1129.7</ele>
        <time>2022-01-30T11:00:07Z</time>
      </trkpt>
      <trkpt lat="41.8900030" lon="-2.8034270">
        <ele>1129.7</ele>
        <time>2022-01-30T11:00:08Z</time>
      </trkpt>
      <trkpt lat="41.8900020" lon="-2.8034270">
        <ele>1129.7</ele>
        <time>2022-01-30T11:00:09Z</time>
      </trkpt>
      <trkpt lat="41.8900020" lon="-2.8034280">
        <ele>1129.7</ele>
        <time>2022-01-30T11:00:10Z</time>
      </trkpt>
      <trkpt lat="41.8900020" lon="-2.8034300">
        <ele>1129.7</ele>
        <time>2022-01-30T11:00:11Z</time>
      </trkpt>
      <trkpt lat="41.8900000" lon="-2.8034320">
        <ele>1129.7</ele>
        <time>2022-01-30T11:00:12Z</time>
      </trkpt>
      <trkpt lat="41.8900000" lon="-2.8034330">
        <ele>1129.7</ele>
        <time>2022-01-30T11:00:13Z</time>
      </trkpt>
      <trkpt lat="41.8899980" lon="-2.8034330">
        <ele>1129.7</ele>
        <time>2022-01-30T11:00:14Z</time>
      </trkpt>
      <trkpt lat="41.8899980" lon="-2.8034350">
        <ele>1129.7</ele>
        <time>2022-01-30T11:00:15Z</time>
      </trkpt>
      <trkpt lat="41.8899970" lon="-2.8034350">
        <ele>1129.6</ele>
        <time>2022-01-30T11:00:16Z</time>
      </trkpt>
      <trkpt lat="41.8899970" lon="-2.8034370">
        <ele>1129.6</ele>
        <time>2022-01-30T11:00:17Z</time>
      </trkpt>
      <trkpt lat="41.8899950" lon="-2.8034370">
        <ele>1129.6</ele>
        <time>2022-01-30T11:00:18Z</time>
      </trkpt>
      <trkpt lat="41.8899950" lon="-2.8034370">
        <ele>1129.6</ele>
        <time>2022-01-30T11:00:19Z</time>
      </trkpt>
      <trkpt lat="41.8899930" lon="-2.8034380">
        <ele>1129.6</ele>
        <time>2022-01-30T11:00:20Z</time>
      </trkpt>
      <trkpt lat="41.8899930" lon="-2.8034400">
        <ele>1129.6</ele>
        <time>2022-01-30T11:00:21Z</time>
      </trkpt>
      <trkpt lat="41.8899900" lon="-2.8034420">
        <ele>1129.6</ele>
        <time>2022-01-30T11:00:22Z</time>
      </trkpt>
      <trkpt lat="41.8899870" lon="-2.8034420">
        <ele>1129.6</ele>
        <time>2022-01-30T11:00:23Z</time>
      </trkpt>
      <trkpt lat="41.8899820" lon="-2.8034420">
        <ele>1129.5</ele>
        <time>2022-01-30T11:00:24Z</time>
      </trkpt>
      <trkpt lat="41.8899780" lon="-2.8034430">
        <ele>1129.5</ele>
        <time>2022-01-30T11:00:25Z</time>
      </trkpt>
      <trkpt lat="41.8899770" lon="-2.8034430">
        <ele>1129.5</ele>
        <time>2022-01-30T11:00:26Z</time>
      </trkpt>
      <trkpt lat="41.8899730" lon="-2.8034430">
        <ele>1129.5</ele>
        <time>2022-01-30T11:00:27Z</time>
      </trkpt>
      <trkpt lat="41.8899720" lon="-2.8034430">
        <ele>1129.5</ele>
        <time>2022-01-30T11:00:28Z</time>
      </trkpt>
      <trkpt lat="41.8899720" lon="-2.8034430">
        <ele>1129.5</ele>
        <time>2022-01-30T11:00:29Z</time>
      </trkpt>
      <trkpt lat="41.8899700" lon="-2.8034430">
        <ele>1129.5</ele>
        <time>2022-01-30T11:00:30Z</time>
      </trkpt>
      <trkpt lat="41.8899700" lon="-2.8034450">
        <ele>1129.4</ele>
        <time>2022-01-30T11:00:31Z</time>
      </trkpt>
      <trkpt lat="41.8899680" lon="-2.8034450">
        <ele>1129.4</ele>
        <time>2022-01-30T11:00:32Z</time>
      </trkpt>
      <trkpt lat="41.8899680" lon="-2.8034450">
        <ele>1129.4</ele>
        <time>2022-01-30T11:00:33Z</time>
      </trkpt>
      <trkpt lat="41.8899680" lon="-2.8034450">
        <ele>1129.4</ele>
        <time>2022-01-30T11:00:34Z</time>
      </trkpt>
      <trkpt lat="41.8899670" lon="-2.8034450">
        <ele>1129.4</ele>
        <time>2022-01-30T11:00:35Z</time>
      </trkpt>
      <trkpt lat="41.8899670" lon="-2.8034450">
        <ele>1129.4</ele>
        <time>2022-01-30T11:00:36Z</time>
      </trkpt>
      <trkpt lat="41.8899670" lon="-2.8034430">
        <ele>1129.4</ele>
        <time>2022-01-30T11:00:37Z</time>
      </trkpt>
      <trkpt lat="41.8899670" lon="-2.8034430">
        <ele>1129.4</ele>
        <time>2022-01-30T11:00:38Z</time>
      </trkpt>
      <trkpt lat="41.8899670" lon="-2.8034430">
        <ele>1129.4</ele>
        <time>2022-01-30T11:00:39Z</time>
      </trkpt>
      <trkpt lat="41.8899670" lon="-2.8034420">
        <ele>1129.4</ele>
        <time>2022-01-30T11:00:40Z</time>
      </trkpt>
      <trkpt lat="41.8899670" lon="-2.8034420">
        <ele>1129.4</ele>
        <time>2022-01-30T11:00:41Z</time>
      </trkpt>
      <trkpt lat="41.8899670" lon="-2.8034420">
        <ele>1129.4</ele>
        <time>2022-01-30T11:00:42Z</time>
      </trkpt>
      <trkpt lat="41.8899650" lon="-2.8034420">
        <ele>1129.4</ele>
        <time>2022-01-30T11:00:43Z</time>
      </trkpt>
      <trkpt lat="41.8899650" lon="-2.8034400">
        <ele>1129.4</ele>
        <time>2022-01-30T11:00:44Z</time>
      </trkpt>
      <trkpt lat="41.8899650" lon="-2.8034400">
        <ele>1129.4</ele>
        <time>2022-01-30T11:00:45Z</time>
      </trkpt>
      <trkpt lat="41.8899650" lon="-2.8034400">
        <ele>1129.4</ele>
        <time>2022-01-30T11:00:46Z</time>
      </trkpt>
      <trkpt lat="41.8899650" lon="-2.8034380">
        <ele>1129.4</ele>
        <time>2022-01-30T11:00:47Z</time>
      </trkpt>
      <trkpt lat="41.8899650" lon="-2.8034380">
        <ele>1129.4</ele>
        <time>2022-01-30T11:00:48Z</time>
      </trkpt>
      <trkpt lat="41.8899650" lon="-2.8034380">
        <ele>1129.4</ele>
        <time>2022-01-30T11:00:49Z</time>
      </trkpt>
      <trkpt lat="41.8899650" lon="-2.8034380">
        <ele>1129.4</ele>
        <time>2022-01-30T11:00:50Z</time>
      </trkpt>
      <trkpt lat="41.8899650" lon="-2.8034370">
        <ele>1129.4</ele>
        <time>2022-01-30T11:00:51Z</time>
      </trkpt>
      <trkpt lat="41.8899650" lon="-2.8034370">
        <ele>1129.4</ele>
        <time>2022-01-30T11:00:52Z</time>
      </trkpt>
      <trkpt lat="41.8899650" lon="-2.8034370">
        <ele>1129.4</ele>
        <time>2022-01-30T11:00:53Z</time>
      </trkpt>
      <trkpt lat="41.8899650" lon="-2.8034350">
        <ele>1129.4</ele>
        <time>2022-01-30T11:00:54Z</time>
      </trkpt>
      <trkpt lat="41.8899650" lon="-2.8034350">
        <ele>1129.4</ele>
        <time>2022-01-30T11:00:55Z</time>
      </trkpt>
      <trkpt lat="41.8899650" lon="-2.8034350">
        <ele>1129.4</ele>
        <time>2022-01-30T11:00:56Z</time>
      </trkpt>
      <trkpt lat="41.8899650" lon="-2.8034330">
        <ele>1129.4</ele>
        <time>2022-01-30T11:00:57Z</time>
      </trkpt>
      <trkpt lat="41.8899650" lon="-2.8034330">
        <ele>1129.4</ele>
        <time>2022-01-30T11:00:58Z</time>
      </trkpt>
      <trkpt lat="41.8899630" lon="-2.8034320">
        <ele>1129.3</ele>
        <time>2022-01-30T11:00:59Z</time>
      </trkpt>
      <trkpt lat="41.8899630" lon="-2.8034320">
        <ele>1129.3</ele>
        <time>2022-01-30T11:01:00Z</time>
      </trkpt>
      <trkpt lat="41.8899630" lon="-2.8034300">
        <ele>1129.3</ele>
        <time>2022-01-30T11:01:01Z</time>
      </trkpt>
      <trkpt lat="41.8899630" lon="-2.8034300">
        <ele>1129.3</ele>
        <time>2022-01-30T11:01:02Z</time>
      </trkpt>
      <trkpt lat="41.8899630" lon="-2.8034300">
        <ele>1129.3</ele>
        <time>2022-01-30T11:01:03Z</time>
      </trkpt>
      <trkpt lat="41.8899630" lon="-2.8034280">
        <ele>1129.3</ele>
        <time>2022-01-30T11:01:04Z</time>
      </trkpt>
      <trkpt lat="41.8899630" lon="-2.8034280">
        <ele>1129.3</ele>
        <time>2022-01-30T11:01:05Z</time>
      </trkpt>
      <trkpt lat="41.8899630" lon="-2.8034280">
        <ele>1129.3</ele>
        <time>2022-01-30T11:01:06Z</time>
      </trkpt>
      <trkpt lat="41.8899630" lon="-2.8034280">
        <ele>1129.3</ele>
        <time>2022-01-30T11:01:07Z</time>
      </trkpt>
      <trkpt lat="41.8899630" lon="-2.8034280">
        <ele>1129.3</ele>
        <time>2022-01-30T11:01:08Z</time>
      </trkpt>
      <trkpt lat="41.8899630" lon="-2.8034280">
        <ele>1129.3</ele>
        <time>2022-01-30T11:01:09Z</time>
      </trkpt>
      <trkpt lat="41.8899630" lon="-2.8034280">
        <ele>1129.3</ele>
        <time>2022-01-30T11:01:10Z</time>
      </trkpt>
      <trkpt lat="41.8899630" lon="-2.8034280">
        <ele>1129.3</ele>
        <time>2022-01-30T11:01:11Z</time>
      </trkpt>
      <trkpt lat="41.8899630" lon="-2.8034280">
        <ele>1129.3</ele>
        <time>2022-01-30T11:01:12Z</time>
      </trkpt>
      <trkpt lat="41.8899630" lon="-2.8034280">
        <ele>1129.3</ele>
        <time>2022-01-30T11:01:13Z</time>
      </trkpt>
      <trkpt lat="41.8899630" lon="-2.8034280">
        <ele>1129.3</ele>
        <time>2022-01-30T11:01:14Z</time>
      </trkpt>
      <trkpt lat="41.8899630" lon="-2.8034280">
        <ele>1129.3</ele>
        <time>2022-01-30T11:01:15Z</time>
      </trkpt>
      <trkpt lat="41.8899630" lon="-2.8034280">
        <ele>1129.3</ele>
        <time>2022-01-30T11:01:16Z</time>
      </trkpt>
      <trkpt lat="41.8899630" lon="-2.8034280">
        <ele>1129.3</ele>
        <time>2022-01-30T11:01:17Z</time>
      </trkpt>
      <trkpt lat="41.8899630" lon="-2.8034280">
        <ele>1129.3</ele>
        <time>2022-01-30T11:01:18Z</time>
      </trkpt>
      <trkpt lat="41.8899630" lon="-2.8034280">
        <ele>1129.3</ele>
        <time>2022-01-30T11:01:19Z</time>
      </trkpt>
      <trkpt lat="41.8899630" lon="-2.8034280">
        <ele>1129.3</ele>
        <time>2022-01-30T11:01:20Z</time>
      </trkpt>
      <trkpt lat="41.8899630" lon="-2.8034280">
        <ele>1129.3</ele>
        <time>2022-01-30T11:01:21Z</time>
      </trkpt>
      <trkpt lat="41.8899600" lon="-2.8034220">
        <ele>1129.3</ele>
        <time>2022-01-30T11:01:22Z</time>
      </trkpt>
      <trkpt lat="41.8899620" lon="-2.8034130">
        <ele>1129.2</ele>
        <time>2022-01-30T11:01:23Z</time>
      </trkpt>
      <trkpt lat="41.8899600" lon="-2.8034050">
        <ele>1129.2</ele>
        <time>2022-01-30T11:01:24Z</time>
      </trkpt>
      <trkpt lat="41.8899600" lon="-2.8033950">
        <ele>1129.1</ele>
        <time>2022-01-30T11:01:25Z</time>
      </trkpt>
      <trkpt lat="41.8899630" lon="-2.8033830">
        <ele>1129.1</ele>
        <time>2022-01-30T11:01:26Z</time>
      </trkpt>
      <trkpt lat="41.8899630" lon="-2.8033830">
        <ele>1129.1</ele>
        <time>2022-01-30T11:01:27Z</time>
      </trkpt>
      <trkpt lat="41.8899630" lon="-2.8033830">
        <ele>1129.1</ele>
        <time>2022-01-30T11:01:28Z</time>
      </trkpt>
      <trkpt lat="41.8899630" lon="-2.8033830">
        <ele>1129.1</ele>
        <time>2022-01-30T11:01:29Z</time>
      </trkpt>
      <trkpt lat="41.8899630" lon="-2.8033830">
        <ele>1129.1</ele>
        <time>2022-01-30T11:01:30Z</time>
      </trkpt>
      <trkpt lat="41.8899630" lon="-2.8033830">
        <ele>1129.1</ele>
        <time>2022-01-30T11:01:31Z</time>
      </trkpt>
      <trkpt lat="41.8899630" lon="-2.8033830">
        <ele>1129.1</ele>
        <time>2022-01-30T11:01:32Z</time>
      </trkpt>
      <trkpt lat="41.8899580" lon="-2.8033700">
        <ele>1129.0</ele>
        <time>2022-01-30T11:01:33Z</time>
      </trkpt>
      <trkpt lat="41.8899580" lon="-2.8033680">
        <ele>1129.0</ele>
        <time>2022-01-30T11:01:34Z</time>
      </trkpt>
      <trkpt lat="41.8899580" lon="-2.8033680">
        <ele>1129.0</ele>
        <time>2022-01-30T11:01:35Z</time>
      </trkpt>
      <trkpt lat="41.8899580" lon="-2.8033670">
        <ele>1129.0</ele>
        <time>2022-01-30T11:01:36Z</time>
      </trkpt>
      <trkpt lat="41.8899580" lon="-2.8033670">
        <ele>1129.0</ele>
        <time>2022-01-30T11:01:37Z</time>
      </trkpt>
      <trkpt lat="41.8899580" lon="-2.8033650">
        <ele>1128.9</ele>
        <time>2022-01-30T11:01:38Z</time>
      </trkpt>
      <trkpt lat="41.8899580" lon="-2.8033630">
        <ele>1128.9</ele>
        <time>2022-01-30T11:01:39Z</time>
      </trkpt>
      <trkpt lat="41.8899580" lon="-2.8033600">
        <ele>1128.9</ele>
        <time>2022-01-30T11:01:40Z</time>
      </trkpt>
      <trkpt lat="41.8899580" lon="-2.8033580">
        <ele>1128.9</ele>
        <time>2022-01-30T11:01:41Z</time>
      </trkpt>
      <trkpt lat="41.8899570" lon="-2.8033580">
        <ele>1128.9</ele>
        <time>2022-01-30T11:01:42Z</time>
      </trkpt>
      <trkpt lat="41.8899570" lon="-2.8033580">
        <ele>1128.9</ele>
        <time>2022-01-30T11:01:43Z</time>
      </trkpt>
      <trkpt lat="41.8899570" lon="-2.8033580">
        <ele>1128.9</ele>
        <time>2022-01-30T11:01:44Z</time>
      </trkpt>
      <trkpt lat="41.8899570" lon="-2.8033570">
        <ele>1128.9</ele>
        <time>2022-01-30T11:01:45Z</time>
      </trkpt>
      <trkpt lat="41.8899550" lon="-2.8033570">
        <ele>1128.9</ele>
        <time>2022-01-30T11:01:46Z</time>
      </trkpt>
      <trkpt lat="41.8899530" lon="-2.8033570">
        <ele>1128.9</ele>
        <time>2022-01-30T11:01:47Z</time>
      </trkpt>
      <trkpt lat="41.8899530" lon="-2.8033550">
        <ele>1128.8</ele>
        <time>2022-01-30T11:01:48Z</time>
      </trkpt>
      <trkpt lat="41.8899530" lon="-2.8033550">
        <ele>1128.8</ele>
        <time>2022-01-30T11:01:49Z</time>
      </trkpt>
      <trkpt lat="41.8899530" lon="-2.8033550">
        <ele>1128.8</ele>
        <time>2022-01-30T11:01:50Z</time>
      </trkpt>
      <trkpt lat="41.8899530" lon="-2.8033550">
        <ele>1128.8</ele>
        <time>2022-01-30T11:01:51Z</time>
      </trkpt>
      <trkpt lat="41.8899530" lon="-2.8033530">
        <ele>1128.8</ele>
        <time>2022-01-30T11:01:52Z</time>
      </trkpt>
      <trkpt lat="41.8899530" lon="-2.8033530">
        <ele>1128.8</ele>
        <time>2022-01-30T11:01:53Z</time>
      </trkpt>
      <trkpt lat="41.8899530" lon="-2.8033530">
        <ele>1128.8</ele>
        <time>2022-01-30T11:01:54Z</time>
      </trkpt>
      <trkpt lat="41.8899530" lon="-2.8033530">
        <ele>1128.8</ele>
        <time>2022-01-30T11:01:55Z</time>
      </trkpt>
      <trkpt lat="41.8899530" lon="-2.8033530">
        <ele>1128.8</ele>
        <time>2022-01-30T11:01:56Z</time>
      </trkpt>
      <trkpt lat="41.8899480" lon="-2.8033530">
        <ele>1128.8</ele>
        <time>2022-01-30T11:01:57Z</time>
      </trkpt>
      <trkpt lat="41.8899450" lon="-2.8033530">
        <ele>1128.8</ele>
        <time>2022-01-30T11:01:58Z</time>
      </trkpt>
      <trkpt lat="41.8899450" lon="-2.8033530">
        <ele>1128.8</ele>
        <time>2022-01-30T11:01:59Z</time>
      </trkpt>
      <trkpt lat="41.8899450" lon="-2.8033550">
        <ele>1128.7</ele>
        <time>2022-01-30T11:02:00Z</time>
      </trkpt>
      <trkpt lat="41.8899450" lon="-2.8033550">
        <ele>1128.7</ele>
        <time>2022-01-30T11:02:01Z</time>
      </trkpt>
      <trkpt lat="41.8899450" lon="-2.8033550">
        <ele>1128.7</ele>
        <time>2022-01-30T11:02:02Z</time>
      </trkpt>
      <trkpt lat="41.8899450" lon="-2.8033550">
        <ele>1128.7</ele>
        <time>2022-01-30T11:02:03Z</time>
      </trkpt>
      <trkpt lat="41.8899450" lon="-2.8033550">
        <ele>1128.7</ele>
        <time>2022-01-30T11:02:04Z</time>
      </trkpt>
      <trkpt lat="41.8899450" lon="-2.8033570">
        <ele>1128.7</ele>
        <time>2022-01-30T11:02:05Z</time>
      </trkpt>
      <trkpt lat="41.8899450" lon="-2.8033570">
        <ele>1128.7</ele>
        <time>2022-01-30T11:02:06Z</time>
      </trkpt>
      <trkpt lat="41.8899450" lon="-2.8033570">
        <ele>1128.7</ele>
        <time>2022-01-30T11:02:07Z</time>
      </trkpt>
      <trkpt lat="41.8899450" lon="-2.8033570">
        <ele>1128.7</ele>
        <time>2022-01-30T11:02:08Z</time>
      </trkpt>
      <trkpt lat="41.8899450" lon="-2.8033570">
        <ele>1128.7</ele>
        <time>2022-01-30T11:02:09Z</time>
      </trkpt>
      <trkpt lat="41.8899450" lon="-2.8033570">
        <ele>1128.7</ele>
        <time>2022-01-30T11:02:10Z</time>
      </trkpt>
      <trkpt lat="41.8899450" lon="-2.8033570">
        <ele>1128.7</ele>
        <time>2022-01-30T11:02:11Z</time>
      </trkpt>
      <trkpt lat="41.8899450" lon="-2.8033570">
        <ele>1128.7</ele>
        <time>2022-01-30T11:02:12Z</time>
      </trkpt>
      <trkpt lat="41.8899450" lon="-2.8033570">
        <ele>1128.7</ele>
        <time>2022-01-30T11:02:13Z</time>
      </trkpt>
      <trkpt lat="41.8899470" lon="-2.8033570">
        <ele>1128.7</ele>
        <time>2022-01-30T11:02:14Z</time>
      </trkpt>
      <trkpt lat="41.8899500" lon="-2.8033580">
        <ele>1128.7</ele>
        <time>2022-01-30T11:02:15Z</time>
      </trkpt>
      <trkpt lat="41.8899520" lon="-2.8033580">
        <ele>1128.7</ele>
        <time>2022-01-30T11:02:16Z</time>
      </trkpt>
      <trkpt lat="41.8899550" lon="-2.8033580">
        <ele>1128.6</ele>
        <time>2022-01-30T11:02:17Z</time>
      </trkpt>
      <trkpt lat="41.8899630" lon="-2.8033580">
        <ele>1128.6</ele>
        <time>2022-01-30T11:02:18Z</time>
      </trkpt>
      <trkpt lat="41.8899680" lon="-2.8033620">
        <ele>1128.5</ele>
        <time>2022-01-30T11:02:19Z</time>
      </trkpt>
      <trkpt lat="41.8899700" lon="-2.8033620">
        <ele>1128.5</ele>
        <time>2022-01-30T11:02:20Z</time>
      </trkpt>
      <trkpt lat="41.8899730" lon="-2.8033620">
        <ele>1128.5</ele>
        <time>2022-01-30T11:02:21Z</time>
      </trkpt>
      <trkpt lat="41.8899750" lon="-2.8033620">
        <ele>1128.5</ele>
        <time>2022-01-30T11:02:22Z</time>
      </trkpt>
      <trkpt lat="41.8899780" lon="-2.8033620">
        <ele>1128.4</ele>
        <time>2022-01-30T11:02:23Z</time>
      </trkpt>
      <trkpt lat="41.8899800" lon="-2.8033620">
        <ele>1128.4</ele>
        <time>2022-01-30T11:02:24Z</time>
      </trkpt>
      <trkpt lat="41.8899800" lon="-2.8033620">
        <ele>1128.4</ele>
        <time>2022-01-30T11:02:25Z</time>
      </trkpt>
      <trkpt lat="41.8899800" lon="-2.8033620">
        <ele>1128.4</ele>
        <time>2022-01-30T11:02:26Z</time>
      </trkpt>
      <trkpt lat="41.8899800" lon="-2.8033620">
        <ele>1128.4</ele>
        <time>2022-01-30T11:02:27Z</time>
      </trkpt>
      <trkpt lat="41.8899820" lon="-2.8033620">
        <ele>1128.4</ele>
        <time>2022-01-30T11:02:28Z</time>
      </trkpt>
      <trkpt lat="41.8899830" lon="-2.8033630">
        <ele>1128.4</ele>
        <time>2022-01-30T11:02:29Z</time>
      </trkpt>
      <trkpt lat="41.8899850" lon="-2.8033630">
        <ele>1128.4</ele>
        <time>2022-01-30T11:02:30Z</time>
      </trkpt>
      <trkpt lat="41.8899870" lon="-2.8033630">
        <ele>1128.4</ele>
        <time>2022-01-30T11:02:31Z</time>
      </trkpt>
      <trkpt lat="41.8899870" lon="-2.8033630">
        <ele>1128.4</ele>
        <time>2022-01-30T11:02:32Z</time>
      </trkpt>
      <trkpt lat="41.8899870" lon="-2.8033630">
        <ele>1128.4</ele>
        <time>2022-01-30T11:02:33Z</time>
      </trkpt>
      <trkpt lat="41.8899880" lon="-2.8033630">
        <ele>1128.4</ele>
        <time>2022-01-30T11:02:34Z</time>
      </trkpt>
      <trkpt lat="41.8899880" lon="-2.8033630">
        <ele>1128.4</ele>
        <time>2022-01-30T11:02:35Z</time>
      </trkpt>
      <trkpt lat="41.8899880" lon="-2.8033630">
        <ele>1128.4</ele>
        <time>2022-01-30T11:02:36Z</time>
      </trkpt>
      <trkpt lat="41.8899900" lon="-2.8033630">
        <ele>1128.3</ele>
        <time>2022-01-30T11:02:37Z</time>
      </trkpt>
      <trkpt lat="41.8899900" lon="-2.8033630">
        <ele>1128.3</ele>
        <time>2022-01-30T11:02:38Z</time>
      </trkpt>
      <trkpt lat="41.8899900" lon="-2.8033630">
        <ele>1128.3</ele>
        <time>2022-01-30T11:02:39Z</time>
      </trkpt>
      <trkpt lat="41.8899900" lon="-2.8033630">
        <ele>1128.3</ele>
        <time>2022-01-30T11:02:40Z</time>
      </trkpt>
      <trkpt lat="41.8899900" lon="-2.8033630">
        <ele>1128.3</ele>
        <time>2022-01-30T11:02:41Z</time>
      </trkpt>
      <trkpt lat="41.8899900" lon="-2.8033630">
        <ele>1128.3</ele>
        <time>2022-01-30T11:02:42Z</time>
      </trkpt>
      <trkpt lat="41.8899900" lon="-2.8033630">
        <ele>1128.3</ele>
        <time>2022-01-30T11:02:43Z</time>
      </trkpt>
      <trkpt lat="41.8899900" lon="-2.8033630">
        <ele>1128.3</ele>
        <time>2022-01-30T11:02:44Z</time>
      </trkpt>
      <trkpt lat="41.8899920" lon="-2.8033630">
        <ele>1128.3</ele>
        <time>2022-01-30T11:02:45Z</time>
      </trkpt>
      <trkpt lat="41.8899920" lon="-2.8033630">
        <ele>1128.3</ele>
        <time>2022-01-30T11:02:46Z</time>
      </trkpt>
      <trkpt lat="41.8899920" lon="-2.8033630">
        <ele>1128.3</ele>
        <time>2022-01-30T11:02:47Z</time>
      </trkpt>
      <trkpt lat="41.8899920" lon="-2.8033630">
        <ele>1128.3</ele>
        <time>2022-01-30T11:02:48Z</time>
      </trkpt>
      <trkpt lat="41.8899930" lon="-2.8033630">
        <ele>1128.3</ele>
        <time>2022-01-30T11:02:49Z</time>
      </trkpt>
      <trkpt lat="41.8899930" lon="-2.8033630">
        <ele>1128.3</ele>
        <time>2022-01-30T11:02:50Z</time>
      </trkpt>
      <trkpt lat="41.8899930" lon="-2.8033630">
        <ele>1128.3</ele>
        <time>2022-01-30T11:02:51Z</time>
      </trkpt>
      <trkpt lat="41.8899930" lon="-2.8033630">
        <ele>1128.3</ele>
        <time>2022-01-30T11:02:52Z</time>
      </trkpt>
      <trkpt lat="41.8899930" lon="-2.8033630">
        <ele>1128.3</ele>
        <time>2022-01-30T11:02:53Z</time>
      </trkpt>
      <trkpt lat="41.8899930" lon="-2.8033630">
        <ele>1128.3</ele>
        <time>2022-01-30T11:02:54Z</time>
      </trkpt>
      <trkpt lat="41.8899930" lon="-2.8033630">
        <ele>1128.3</ele>
        <time>2022-01-30T11:02:55Z</time>
      </trkpt>
      <trkpt lat="41.8899950" lon="-2.8033630">
        <ele>1128.3</ele>
        <time>2022-01-30T11:02:56Z</time>
      </trkpt>
      <trkpt lat="41.8899950" lon="-2.8033630">
        <ele>1128.3</ele>
        <time>2022-01-30T11:02:57Z</time>
      </trkpt>
      <trkpt lat="41.8899950" lon="-2.8033630">
        <ele>1128.3</ele>
        <time>2022-01-30T11:02:58Z</time>
      </trkpt>
      <trkpt lat="41.8899970" lon="-2.8033630">
        <ele>1128.3</ele>
        <time>2022-01-30T11:02:59Z</time>
      </trkpt>
      <trkpt lat="41.8900000" lon="-2.8033630">
        <ele>1128.2</ele>
        <time>2022-01-30T11:03:00Z</time>
      </trkpt>
      <trkpt lat="41.8900070" lon="-2.8033630">
        <ele>1128.2</ele>
        <time>2022-01-30T11:03:01Z</time>
      </trkpt>
      <trkpt lat="41.8900100" lon="-2.8033630">
        <ele>1128.2</ele>
        <time>2022-01-30T11:03:02Z</time>
      </trkpt>
      <trkpt lat="41.8900120" lon="-2.8033630">
        <ele>1128.1</ele>
        <time>2022-01-30T11:03:03Z</time>
      </trkpt>
      <trkpt lat="41.8900130" lon="-2.8033630">
        <ele>1128.1</ele>
        <time>2022-01-30T11:03:04Z</time>
      </trkpt>
      <trkpt lat="41.8900150" lon="-2.8033630">
        <ele>1128.1</ele>
        <time>2022-01-30T11:03:05Z</time>
      </trkpt>
      <trkpt lat="41.8900150" lon="-2.8033650">
        <ele>1128.1</ele>
        <time>2022-01-30T11:03:06Z</time>
      </trkpt>
      <trkpt lat="41.8900150" lon="-2.8033650">
        <ele>1128.1</ele>
        <time>2022-01-30T11:03:07Z</time>
      </trkpt>
      <trkpt lat="41.8900150" lon="-2.8033650">
        <ele>1128.1</ele>
        <time>2022-01-30T11:03:08Z</time>
      </trkpt>
      <trkpt lat="41.8900170" lon="-2.8033650">
        <ele>1128.1</ele>
        <time>2022-01-30T11:03:09Z</time>
      </trkpt>
      <trkpt lat="41.8900170" lon="-2.8033650">
        <ele>1128.1</ele>
        <time>2022-01-30T11:03:10Z</time>
      </trkpt>
      <trkpt lat="41.8900170" lon="-2.8033650">
        <ele>1128.1</ele>
        <time>2022-01-30T11:03:11Z</time>
      </trkpt>
      <trkpt lat="41.8900170" lon="-2.8033650">
        <ele>1128.1</ele>
        <time>2022-01-30T11:03:12Z</time>
      </trkpt>
      <trkpt lat="41.8900170" lon="-2.8033650">
        <ele>1128.1</ele>
        <time>2022-01-30T11:03:13Z</time>
      </trkpt>
      <trkpt lat="41.8900180" lon="-2.8033650">
        <ele>1128.1</ele>
        <time>2022-01-30T11:03:14Z</time>
      </trkpt>
      <trkpt lat="41.8900180" lon="-2.8033670">
        <ele>1128.1</ele>
        <time>2022-01-30T11:03:15Z</time>
      </trkpt>
      <trkpt lat="41.8900180" lon="-2.8033680">
        <ele>1128.1</ele>
        <time>2022-01-30T11:03:16Z</time>
      </trkpt>
      <trkpt lat="41.8900180" lon="-2.8033700">
        <ele>1128.0</ele>
        <time>2022-01-30T11:03:17Z</time>
      </trkpt>
      <trkpt lat="41.8900180" lon="-2.8033700">
        <ele>1128.0</ele>
        <time>2022-01-30T11:03:18Z</time>
      </trkpt>
      <trkpt lat="41.8900180" lon="-2.8033700">
        <ele>1128.0</ele>
        <time>2022-01-30T11:03:19Z</time>
      </trkpt>
      <trkpt lat="41.8900170" lon="-2.8033700">
        <ele>1128.0</ele>
        <time>2022-01-30T11:03:20Z</time>
      </trkpt>
      <trkpt lat="41.8900170" lon="-2.8033700">
        <ele>1128.0</ele>
        <time>2022-01-30T11:03:21Z</time>
      </trkpt>
      <trkpt lat="41.8900170" lon="-2.8033700">
        <ele>1128.0</ele>
        <time>2022-01-30T11:03:22Z</time>
      </trkpt>
      <trkpt lat="41.8900170" lon="-2.8033700">
        <ele>1128.0</ele>
        <time>2022-01-30T11:03:23Z</time>
      </trkpt>
      <trkpt lat="41.8900170" lon="-2.8033700">
        <ele>1128.0</ele>
        <time>2022-01-30T11:03:24Z</time>
      </trkpt>
      <trkpt lat="41.8900170" lon="-2.8033700">
        <ele>1128.0</ele>
        <time>2022-01-30T11:03:25Z</time>
      </trkpt>
      <trkpt lat="41.8900170" lon="-2.8033700">
        <ele>1128.0</ele>
        <time>2022-01-30T11:03:26Z</time>
      </trkpt>
      <trkpt lat="41.8900150" lon="-2.8033700">
        <ele>1128.0</ele>
        <time>2022-01-30T11:03:27Z</time>
      </trkpt>
      <trkpt lat="41.8900150" lon="-2.8033700">
        <ele>1128.0</ele>
        <time>2022-01-30T11:03:28Z</time>
      </trkpt>
      <trkpt lat="41.8900150" lon="-2.8033700">
        <ele>1128.0</ele>
        <time>2022-01-30T11:03:29Z</time>
      </trkpt>
      <trkpt lat="41.8900120" lon="-2.8033650">
        <ele>1128.0</ele>
        <time>2022-01-30T11:03:30Z</time>
      </trkpt>
      <trkpt lat="41.8900050" lon="-2.8033420">
        <ele>1127.8</ele>
        <time>2022-01-30T11:03:31Z</time>
      </trkpt>
      <trkpt lat="41.8899930" lon="-2.8033170">
        <ele>1127.6</ele>
        <time>2022-01-30T11:03:32Z</time>
      </trkpt>
      <trkpt lat="41.8899820" lon="-2.8032950">
        <ele>1127.5</ele>
        <time>2022-01-30T11:03:33Z</time>
      </trkpt>
      <trkpt lat="41.8899670" lon="-2.8032630">
        <ele>1127.3</ele>
        <time>2022-01-30T11:03:34Z</time>
      </trkpt>
      <trkpt lat="41.8899500" lon="-2.8032350">
        <ele>1127.1</ele>
        <time>2022-01-30T11:03:35Z</time>
      </trkpt>
      <trkpt lat="41.8899280" lon="-2.8032070">
        <ele>1126.9</ele>
        <time>2022-01-30T11:03:36Z</time>
      </trkpt>
      <trkpt lat="41.8899070" lon="-2.8031820">
        <ele>1126.7</ele>
        <time>2022-01-30T11:03:37Z</time>
      </trkpt>
      <trkpt lat="41.8898900" lon="-2.8031650">
        <ele>1126.5</ele>
        <time>2022-01-30T11:03:38Z</time>
      </trkpt>
      <trkpt lat="41.8898630" lon="-2.8031400">
        <ele>1126.3</ele>
        <time>2022-01-30T11:03:39Z</time>
      </trkpt>
      <trkpt lat="41.8898480" lon="-2.8031120">
        <ele>1126.2</ele>
        <time>2022-01-30T11:03:40Z</time>
      </trkpt>
      <trkpt lat="41.8898320" lon="-2.8030870">
        <ele>1126.1</ele>
        <time>2022-01-30T11:03:41Z</time>
      </trkpt>
      <trkpt lat="41.8898130" lon="-2.8030630">
        <ele>1125.9</ele>
        <time>2022-01-30T11:03:42Z</time>
      </trkpt>
      <trkpt lat="41.8898050" lon="-2.8030400">
        <ele>1125.8</ele>
        <time>2022-01-30T11:03:43Z</time>
      </trkpt>
      <trkpt lat="41.8897900" lon="-2.8030270">
        <ele>1125.7</ele>
        <time>2022-01-30T11:03:44Z</time>
      </trkpt>
      <trkpt lat="41.8897780" lon="-2.8030250">
        <ele>1125.6</ele>
        <time>2022-01-30T11:03:45Z</time>
      </trkpt>
      <trkpt lat="41.8897700" lon="-2.8030270">
        <ele>1125.6</ele>
        <time>2022-01-30T11:03:46Z</time>
      </trkpt>
      <trkpt lat="41.8897680" lon="-2.8030280">
        <ele>1125.6</ele>
        <time>2022-01-30T11:03:47Z</time>
      </trkpt>
      <trkpt lat="41.8897650" lon="-2.8030430">
        <ele>1125.5</ele>
        <time>2022-01-30T11:03:48Z</time>
      </trkpt>
      <trkpt lat="41.8897620" lon="-2.8030550">
        <ele>1125.5</ele>
        <time>2022-01-30T11:03:49Z</time>
      </trkpt>
      <trkpt lat="41.8897600" lon="-2.8030650">
        <ele>1125.4</ele>
        <time>2022-01-30T11:03:50Z</time>
      </trkpt>
      <trkpt lat="41.8897580" lon="-2.8030750">
        <ele>1125.4</ele>
        <time>2022-01-30T11:03:51Z</time>
      </trkpt>
      <trkpt lat="41.8897570" lon="-2.8030850">
        <ele>1125.3</ele>
        <time>2022-01-30T11:03:52Z</time>
      </trkpt>
      <trkpt lat="41.8897500" lon="-2.8030970">
        <ele>1125.2</ele>
        <time>2022-01-30T11:03:53Z</time>
      </trkpt>
      <trkpt lat="41.8897450" lon="-2.8031050">
        <ele>1125.2</ele>
        <time>2022-01-30T11:03:54Z</time>
      </trkpt>
      <trkpt lat="41.8897430" lon="-2.8031100">
        <ele>1125.2</ele>
        <time>2022-01-30T11:03:55Z</time>
      </trkpt>
      <trkpt lat="41.8897420" lon="-2.8031130">
        <ele>1125.1</ele>
        <time>2022-01-30T11:03:56Z</time>
      </trkpt>
      <trkpt lat="41.8897350" lon="-2.8031150">
        <ele>1125.1</ele>
        <time>2022-01-30T11:03:57Z</time>
      </trkpt>
      <trkpt lat="41.8897320" lon="-2.8031130">
        <ele>1125.1</ele>
        <time>2022-01-30T11:03:58Z</time>
      </trkpt>
      <trkpt lat="41.8897250" lon="-2.8031130">
        <ele>1125.0</ele>
        <time>2022-01-30T11:03:59Z</time>
      </trkpt>
      <trkpt lat="41.8897150" lon="-2.8031120">
        <ele>1125.0</ele>
        <time>2022-01-30T11:04:00Z</time>
      </trkpt>
      <trkpt lat="41.8897100" lon="-2.8031130">
        <ele>1124.9</ele>
        <time>2022-01-30T11:04:01Z</time>
      </trkpt>
      <trkpt lat="41.8897050" lon="-2.8031170">
        <ele>1124.9</ele>
        <time>2022-01-30T11:04:02Z</time>
      </trkpt>
      <trkpt lat="41.8897070" lon="-2.8031280">
        <ele>1124.8</ele>
        <time>2022-01-30T11:04:03Z</time>
      </trkpt>
      <trkpt lat="41.8897080" lon="-2.8031370">
        <ele>1124.8</ele>
        <time>2022-01-30T11:04:04Z</time>
      </trkpt>
      <trkpt lat="41.8897080" lon="-2.8031380">
        <ele>1124.8</ele>
        <time>2022-01-30T11:04:05Z</time>
      </trkpt>
      <trkpt lat="41.8897050" lon="-2.8031380">
        <ele>1124.8</ele>
        <time>2022-01-30T11:04:06Z</time>
      </trkpt>
      <trkpt lat="41.8897030" lon="-2.8031380">
        <ele>1124.8</ele>
        <time>2022-01-30T11:04:07Z</time>
      </trkpt>
      <trkpt lat="41.8897050" lon="-2.8031380">
        <ele>1124.7</ele>
        <time>2022-01-30T11:04:08Z</time>
      </trkpt>
      <trkpt lat="41.8897070" lon="-2.8031330">
        <ele>1124.7</ele>
        <time>2022-01-30T11:04:09Z</time>
      </trkpt>
      <trkpt lat="41.8897070" lon="-2.8031300">
        <ele>1124.7</ele>
        <time>2022-01-30T11:04:10Z</time>
      </trkpt>
      <trkpt lat="41.8897080" lon="-2.8031300">
        <ele>1124.7</ele>
        <time>2022-01-30T11:04:11Z</time>
      </trkpt>
      <trkpt lat="41.8897100" lon="-2.8031300">
        <ele>1124.7</ele>
        <time>2022-01-30T11:04:12Z</time>
      </trkpt>
      <trkpt lat="41.8897130" lon="-2.8031320">
        <ele>1124.7</ele>
        <time>2022-01-30T11:04:13Z</time>
      </trkpt>
      <trkpt lat="41.8897220" lon="-2.8031250">
        <ele>1124.6</ele>
        <time>2022-01-30T11:04:14Z</time>
      </trkpt>
      <trkpt lat="41.8897270" lon="-2.8031180">
        <ele>1124.5</ele>
        <time>2022-01-30T11:04:15Z</time>
      </trkpt>
      <trkpt lat="41.8897320" lon="-2.8031180">
        <ele>1124.5</ele>
        <time>2022-01-30T11:04:16Z</time>
      </trkpt>
      <trkpt lat="41.8897400" lon="-2.8031230">
        <ele>1124.4</ele>
        <time>2022-01-30T11:04:17Z</time>
      </trkpt>
      <trkpt lat="41.8897530" lon="-2.8031350">
        <ele>1124.3</ele>
        <time>2022-01-30T11:04:18Z</time>
      </trkpt>
      <trkpt lat="41.8897680" lon="-2.8031350">
        <ele>1124.2</ele>
        <time>2022-01-30T11:04:19Z</time>
      </trkpt>
      <trkpt lat="41.8897970" lon="-2.8031370">
        <ele>1124.0</ele>
        <time>2022-01-30T11:04:20Z</time>
      </trkpt>
      <trkpt lat="41.8898150" lon="-2.8031280">
        <ele>1123.9</ele>
        <time>2022-01-30T11:04:21Z</time>
      </trkpt>
      <trkpt lat="41.8898200" lon="-2.8031120">
        <ele>1123.8</ele>
        <time>2022-01-30T11:04:22Z</time>
      </trkpt>
      <trkpt lat="41.8898070" lon="-2.8030900">
        <ele>1123.6</ele>
        <time>2022-01-30T11:04:23Z</time>
      </trkpt>
      <trkpt lat="41.8897930" lon="-2.8030830">
        <ele>1123.5</ele>
        <time>2022-01-30T11:04:24Z</time>
      </trkpt>
      <trkpt lat="41.8897870" lon="-2.8030820">
        <ele>1123.5</ele>
        <time>2022-01-30T11:04:25Z</time>
      </trkpt>
      <trkpt lat="41.8897850" lon="-2.8030830">
        <ele>1123.5</ele>
        <time>2022-01-30T11:04:26Z</time>
      </trkpt>
      <trkpt lat="41.8897870" lon="-2.8030820">
        <ele>1123.4</ele>
        <time>2022-01-30T11:04:27Z</time>
      </trkpt>
      <trkpt lat="41.8897870" lon="-2.8030820">
        <ele>1123.4</ele>
        <time>2022-01-30T11:04:28Z</time>
      </trkpt>
      <trkpt lat="41.8897850" lon="-2.8030830">
        <ele>1123.4</ele>
        <time>2022-01-30T11:04:29Z</time>
      </trkpt>
      <trkpt lat="41.8897830" lon="-2.8030820">
        <ele>1123.4</ele>
        <time>2022-01-30T11:04:30Z</time>
      </trkpt>
      <trkpt lat="41.8897830" lon="-2.8030770">
        <ele>1123.4</ele>
        <time>2022-01-30T11:04:31Z</time>
      </trkpt>
      <trkpt lat="41.8897820" lon="-2.8030770">
        <ele>1123.4</ele>
        <time>2022-01-30T11:04:32Z</time>
      </trkpt>
      <trkpt lat="41.8897800" lon="-2.8030770">
        <ele>1123.4</ele>
        <time>2022-01-30T11:04:33Z</time>
      </trkpt>
      <trkpt lat="41.8897800" lon="-2.8030770">
        <ele>1123.4</ele>
        <time>2022-01-30T11:04:34Z</time>
      </trkpt>
      <trkpt lat="41.8897800" lon="-2.8030770">
        <ele>1123.4</ele>
        <time>2022-01-30T11:04:35Z</time>
      </trkpt>
      <trkpt lat="41.8897800" lon="-2.8030770">
        <ele>1123.4</ele>
        <time>2022-01-30T11:04:36Z</time>
      </trkpt>
      <trkpt lat="41.8897800" lon="-2.8030770">
        <ele>1123.4</ele>
        <time>2022-01-30T11:04:37Z</time>
      </trkpt>
      <trkpt lat="41.8897800" lon="-2.8030770">
        <ele>1123.4</ele>
        <time>2022-01-30T11:04:38Z</time>
      </trkpt>
      <trkpt lat="41.8897800" lon="-2.8030770">
        <ele>1123.4</ele>
        <time>2022-01-30T11:04:39Z</time>
      </trkpt>
      <trkpt lat="41.8897800" lon="-2.8030770">
        <ele>1123.4</ele>
        <time>2022-01-30T11:04:40Z</time>
      </trkpt>
      <trkpt lat="41.8897800" lon="-2.8030770">
        <ele>1123.4</ele>
        <time>2022-01-30T11:04:41Z</time>
      </trkpt>
      <trkpt lat="41.8897800" lon="-2.8030770">
        <ele>1123.4</ele>
        <time>2022-01-30T11:04:42Z</time>
      </trkpt>
      <trkpt lat="41.8897800" lon="-2.8030770">
        <ele>1123.4</ele>
        <time>2022-01-30T11:04:43Z</time>
      </trkpt>
      <trkpt lat="41.8897800" lon="-2.8030770">
        <ele>1123.4</ele>
        <time>2022-01-30T11:04:44Z</time>
      </trkpt>
      <trkpt lat="41.8897780" lon="-2.8030700">
        <ele>1123.3</ele>
        <time>2022-01-30T11:04:45Z</time>
      </trkpt>
      <trkpt lat="41.8897680" lon="-2.8030420">
        <ele>1123.2</ele>
        <time>2022-01-30T11:04:46Z</time>
      </trkpt>
      <trkpt lat="41.8897600" lon="-2.8030070">
        <ele>1122.9</ele>
        <time>2022-01-30T11:04:47Z</time>
      </trkpt>
      <trkpt lat="41.8897520" lon="-2.8029670">
        <ele>1122.7</ele>
        <time>2022-01-30T11:04:48Z</time>
      </trkpt>
      <trkpt lat="41.8897430" lon="-2.8029200">
        <ele>1122.5</ele>
        <time>2022-01-30T11:04:49Z</time>
      </trkpt>
      <trkpt lat="41.8897380" lon="-2.8028700">
        <ele>1122.2</ele>
        <time>2022-01-30T11:04:50Z</time>
      </trkpt>
      <trkpt lat="41.8897330" lon="-2.8028100">
        <ele>1121.9</ele>
        <time>2022-01-30T11:04:51Z</time>
      </trkpt>
      <trkpt lat="41.8897280" lon="-2.8027450">
        <ele>1121.5</ele>
        <time>2022-01-30T11:04:52Z</time>
      </trkpt>
      <trkpt lat="41.8897150" lon="-2.8026770">
        <ele>1121.1</ele>
        <time>2022-01-30T11:04:53Z</time>
      </trkpt>
      <trkpt lat="41.8896970" lon="-2.8026000">
        <ele>1120.6</ele>
        <time>2022-01-30T11:04:54Z</time>
      </trkpt>
      <trkpt lat="41.8896800" lon="-2.8025250">
        <ele>1120.2</ele>
        <time>2022-01-30T11:04:55Z</time>
      </trkpt>
      <trkpt lat="41.8896650" lon="-2.8024500">
        <ele>1119.7</ele>
        <time>2022-01-30T11:04:56Z</time>
      </trkpt>
      <trkpt lat="41.8896530" lon="-2.8023770">
        <ele>1119.2</ele>
        <time>2022-01-30T11:04:57Z</time>
      </trkpt>
      <trkpt lat="41.8896480" lon="-2.8022980">
        <ele>1118.5</ele>
        <time>2022-01-30T11:04:58Z</time>
      </trkpt>
      <trkpt lat="41.8896430" lon="-2.8022220">
        <ele>1117.9</ele>
        <time>2022-01-30T11:04:59Z</time>
      </trkpt>
      <trkpt lat="41.8896370" lon="-2.8021420">
        <ele>1117.4</ele>
        <time>2022-01-30T11:05:00Z</time>
      </trkpt>
      <trkpt lat="41.8896250" lon="-2.8020670">
        <ele>1116.8</ele>
        <time>2022-01-30T11:05:01Z</time>
      </trkpt>
      <trkpt lat="41.8896100" lon="-2.8019900">
        <ele>1116.1</ele>
        <time>2022-01-30T11:05:02Z</time>
      </trkpt>
      <trkpt lat="41.8895930" lon="-2.8019080">
        <ele>1115.4</ele>
        <time>2022-01-30T11:05:03Z</time>
      </trkpt>
      <trkpt lat="41.8895720" lon="-2.8018250">
        <ele>1114.8</ele>
        <time>2022-01-30T11:05:04Z</time>
      </trkpt>
      <trkpt lat="41.8895470" lon="-2.8017400">
        <ele>1114.2</ele>
        <time>2022-01-30T11:05:05Z</time>
      </trkpt>
      <trkpt lat="41.8895150" lon="-2.8016470">
        <ele>1113.6</ele>
        <time>2022-01-30T11:05:06Z</time>
      </trkpt>
      <trkpt lat="41.8894830" lon="-2.8015420">
        <ele>1113.0</ele>
        <time>2022-01-30T11:05:07Z</time>
      </trkpt>
      <trkpt lat="41.8894480" lon="-2.8014380">
        <ele>1112.4</ele>
        <time>2022-01-30T11:05:08Z</time>
      </trkpt>
      <trkpt lat="41.8894130" lon="-2.8013370">
        <ele>1111.8</ele>
        <time>2022-01-30T11:05:09Z</time>
      </trkpt>
      <trkpt lat="41.8893770" lon="-2.8012350">
        <ele>1111.2</ele>
        <time>2022-01-30T11:05:10Z</time>
      </trkpt>
      <trkpt lat="41.8893380" lon="-2.8011350">
        <ele>1110.6</ele>
        <time>2022-01-30T11:05:11Z</time>
      </trkpt>
      <trkpt lat="41.8893000" lon="-2.8010400">
        <ele>1110.0</ele>
        <time>2022-01-30T11:05:12Z</time>
      </trkpt>
      <trkpt lat="41.8892720" lon="-2.8009380">
        <ele>1109.5</ele>
        <time>2022-01-30T11:05:13Z</time>
      </trkpt>
      <trkpt lat="41.8892380" lon="-2.8008430">
        <ele>1108.9</ele>
        <time>2022-01-30T11:05:14Z</time>
      </trkpt>
      <trkpt lat="41.8892030" lon="-2.8007520">
        <ele>1108.3</ele>
        <time>2022-01-30T11:05:15Z</time>
      </trkpt>
      <trkpt lat="41.8891730" lon="-2.8006650">
        <ele>1107.8</ele>
        <time>2022-01-30T11:05:16Z</time>
      </trkpt>
      <trkpt lat="41.8891530" lon="-2.8005830">
        <ele>1107.2</ele>
        <time>2022-01-30T11:05:17Z</time>
      </trkpt>
      <trkpt lat="41.8891550" lon="-2.8004900">
        <ele>1106.6</ele>
        <time>2022-01-30T11:05:18Z</time>
      </trkpt>
      <trkpt lat="41.8891530" lon="-2.8004080">
        <ele>1105.9</ele>
        <time>2022-01-30T11:05:19Z</time>
      </trkpt>
      <trkpt lat="41.8891380" lon="-2.8003270">
        <ele>1105.1</ele>
        <time>2022-01-30T11:05:20Z</time>
      </trkpt>
      <trkpt lat="41.8890830" lon="-2.8002550">
        <ele>1104.3</ele>
        <time>2022-01-30T11:05:21Z</time>
      </trkpt>
      <trkpt lat="41.8890470" lon="-2.8001830">
        <ele>1103.6</ele>
        <time>2022-01-30T11:05:22Z</time>
      </trkpt>
      <trkpt lat="41.8890030" lon="-2.8001170">
        <ele>1103.1</ele>
        <time>2022-01-30T11:05:23Z</time>
      </trkpt>
      <trkpt lat="41.8889420" lon="-2.8000650">
        <ele>1102.4</ele>
        <time>2022-01-30T11:05:24Z</time>
      </trkpt>
      <trkpt lat="41.8888770" lon="-2.8000200">
        <ele>1101.7</ele>
        <time>2022-01-30T11:05:25Z</time>
      </trkpt>
      <trkpt lat="41.8888370" lon="-2.7999600">
        <ele>1101.0</ele>
        <time>2022-01-30T11:05:26Z</time>
      </trkpt>
      <trkpt lat="41.8888130" lon="-2.7998980">
        <ele>1100.4</ele>
        <time>2022-01-30T11:05:27Z</time>
      </trkpt>
      <trkpt lat="41.8888070" lon="-2.7998350">
        <ele>1099.9</ele>
        <time>2022-01-30T11:05:28Z</time>
      </trkpt>
      <trkpt lat="41.8888080" lon="-2.7997700">
        <ele>1099.5</ele>
        <time>2022-01-30T11:05:29Z</time>
      </trkpt>
      <trkpt lat="41.8888000" lon="-2.7997020">
        <ele>1099.0</ele>
        <time>2022-01-30T11:05:30Z</time>
      </trkpt>
      <trkpt lat="41.8887920" lon="-2.7996230">
        <ele>1098.5</ele>
        <time>2022-01-30T11:05:31Z</time>
      </trkpt>
      <trkpt lat="41.8887830" lon="-2.7995370">
        <ele>1098.0</ele>
        <time>2022-01-30T11:05:32Z</time>
      </trkpt>
      <trkpt lat="41.8887750" lon="-2.7994470">
        <ele>1097.5</ele>
        <time>2022-01-30T11:05:33Z</time>
      </trkpt>
      <trkpt lat="41.8887600" lon="-2.7993470">
        <ele>1096.9</ele>
        <time>2022-01-30T11:05:34Z</time>
      </trkpt>
      <trkpt lat="41.8887370" lon="-2.7992550">
        <ele>1096.3</ele>
        <time>2022-01-30T11:05:35Z</time>
      </trkpt>
      <trkpt lat="41.8887020" lon="-2.7991620">
        <ele>1096.0</ele>
        <time>2022-01-30T11:05:36Z</time>
      </trkpt>
      <trkpt lat="41.8886650" lon="-2.7990720">
        <ele>1096.0</ele>
        <time>2022-01-30T11:05:37Z</time>
      </trkpt>
      <trkpt lat="41.8886270" lon="-2.7989830">
        <ele>1096.1</ele>
        <time>2022-01-30T11:05:38Z</time>
      </trkpt>
      <trkpt lat="41.8885850" lon="-2.7988980">
        <ele>1096.1</ele>
        <time>2022-01-30T11:05:39Z</time>
      </trkpt>
      <trkpt lat="41.8885400" lon="-2.7988250">
        <ele>1096.2</ele>
        <time>2022-01-30T11:05:40Z</time>
      </trkpt>
      <trkpt lat="41.8884900" lon="-2.7987550">
        <ele>1096.3</ele>
        <time>2022-01-30T11:05:41Z</time>
      </trkpt>
      <trkpt lat="41.8884420" lon="-2.7986920">
        <ele>1096.5</ele>
        <time>2022-01-30T11:05:42Z</time>
      </trkpt>
      <trkpt lat="41.8884000" lon="-2.7986220">
        <ele>1096.8</ele>
        <time>2022-01-30T11:05:43Z</time>
      </trkpt>
      <trkpt lat="41.8883620" lon="-2.7985500">
        <ele>1097.0</ele>
        <time>2022-01-30T11:05:44Z</time>
      </trkpt>
      <trkpt lat="41.8883230" lon="-2.7984830">
        <ele>1097.2</ele>
        <time>2022-01-30T11:05:45Z</time>
      </trkpt>
      <trkpt lat="41.8882870" lon="-2.7984180">
        <ele>1097.5</ele>
        <time>2022-01-30T11:05:46Z</time>
      </trkpt>
      <trkpt lat="41.8882530" lon="-2.7983570">
        <ele>1097.7</ele>
        <time>2022-01-30T11:05:47Z</time>
      </trkpt>
      <trkpt lat="41.8882230" lon="-2.7982970">
        <ele>1097.9</ele>
        <time>2022-01-30T11:05:48Z</time>
      </trkpt>
      <trkpt lat="41.8881980" lon="-2.7982400">
        <ele>1098.1</ele>
        <time>2022-01-30T11:05:49Z</time>
      </trkpt>
      <trkpt lat="41.8881730" lon="-2.7981850">
        <ele>1098.3</ele>
        <time>2022-01-30T11:05:50Z</time>
      </trkpt>
      <trkpt lat="41.8881470" lon="-2.7981350">
        <ele>1098.5</ele>
        <time>2022-01-30T11:05:51Z</time>
      </trkpt>
      <trkpt lat="41.8881220" lon="-2.7980850">
        <ele>1098.7</ele>
        <time>2022-01-30T11:05:52Z</time>
      </trkpt>
      <trkpt lat="41.8880930" lon="-2.7980350">
        <ele>1098.8</ele>
        <time>2022-01-30T11:05:53Z</time>
      </trkpt>
      <trkpt lat="41.8880650" lon="-2.7979870">
        <ele>1098.8</ele>
        <time>2022-01-30T11:05:54Z</time>
      </trkpt>
      <trkpt lat="41.8880370" lon="-2.7979400">
        <ele>1098.9</ele>
        <time>2022-01-30T11:05:55Z</time>
      </trkpt>
      <trkpt lat="41.8880100" lon="-2.7978920">
        <ele>1098.9</ele>
        <time>2022-01-30T11:05:56Z</time>
      </trkpt>
      <trkpt lat="41.8879800" lon="-2.7978500">
        <ele>1098.9</ele>
        <time>2022-01-30T11:05:57Z</time>
      </trkpt>
      <trkpt lat="41.8879450" lon="-2.7978120">
        <ele>1099.3</ele>
        <time>2022-01-30T11:05:58Z</time>
      </trkpt>
      <trkpt lat="41.8879150" lon="-2.7977750">
        <ele>1099.6</ele>
        <time>2022-01-30T11:05:59Z</time>
      </trkpt>
      <trkpt lat="41.8878850" lon="-2.7977380">
        <ele>1099.9</ele>
        <time>2022-01-30T11:06:00Z</time>
      </trkpt>
      <trkpt lat="41.8878600" lon="-2.7976970">
        <ele>1100.1</ele>
        <time>2022-01-30T11:06:01Z</time>
      </trkpt>
      <trkpt lat="41.8878380" lon="-2.7976500">
        <ele>1100.0</ele>
        <time>2022-01-30T11:06:02Z</time>
      </trkpt>
      <trkpt lat="41.8878200" lon="-2.7976000">
        <ele>1099.9</ele>
        <time>2022-01-30T11:06:03Z</time>
      </trkpt>
      <trkpt lat="41.8878020" lon="-2.7975480">
        <ele>1099.9</ele>
        <time>2022-01-30T11:06:04Z</time>
      </trkpt>
      <trkpt lat="41.8877820" lon="-2.7974930">
        <ele>1099.8</ele>
        <time>2022-01-30T11:06:05Z</time>
      </trkpt>
      <trkpt lat="41.8877630" lon="-2.7974380">
        <ele>1099.8</ele>
        <time>2022-01-30T11:06:06Z</time>
      </trkpt>
      <trkpt lat="41.8877450" lon="-2.7973830">
        <ele>1099.7</ele>
        <time>2022-01-30T11:06:07Z</time>
      </trkpt>
      <trkpt lat="41.8877250" lon="-2.7973270">
        <ele>1099.7</ele>
        <time>2022-01-30T11:06:08Z</time>
      </trkpt>
      <trkpt lat="41.8877030" lon="-2.7972730">
        <ele>1099.7</ele>
        <time>2022-01-30T11:06:09Z</time>
      </trkpt>
      <trkpt lat="41.8876800" lon="-2.7972200">
        <ele>1099.6</ele>
        <time>2022-01-30T11:06:10Z</time>
      </trkpt>
      <trkpt lat="41.8876550" lon="-2.7971630">
        <ele>1099.6</ele>
        <time>2022-01-30T11:06:11Z</time>
      </trkpt>
      <trkpt lat="41.8876320" lon="-2.7971050">
        <ele>1099.6</ele>
        <time>2022-01-30T11:06:12Z</time>
      </trkpt>
      <trkpt lat="41.8876050" lon="-2.7970480">
        <ele>1099.5</ele>
        <time>2022-01-30T11:06:13Z</time>
      </trkpt>
      <trkpt lat="41.8875820" lon="-2.7969930">
        <ele>1099.5</ele>
        <time>2022-01-30T11:06:14Z</time>
      </trkpt>
      <trkpt lat="41.8875530" lon="-2.7969400">
        <ele>1099.4</ele>
        <time>2022-01-30T11:06:15Z</time>
      </trkpt>
      <trkpt lat="41.8875250" lon="-2.7968830">
        <ele>1099.4</ele>
        <time>2022-01-30T11:06:16Z</time>
      </trkpt>
      <trkpt lat="41.8874970" lon="-2.7968250">
        <ele>1099.3</ele>
        <time>2022-01-30T11:06:17Z</time>
      </trkpt>
      <trkpt lat="41.8874680" lon="-2.7967680">
        <ele>1099.2</ele>
        <time>2022-01-30T11:06:18Z</time>
      </trkpt>
      <trkpt lat="41.8874400" lon="-2.7967080">
        <ele>1099.2</ele>
        <time>2022-01-30T11:06:19Z</time>
      </trkpt>
      <trkpt lat="41.8874100" lon="-2.7966480">
        <ele>1099.1</ele>
        <time>2022-01-30T11:06:20Z</time>
      </trkpt>
      <trkpt lat="41.8873800" lon="-2.7965900">
        <ele>1099.0</ele>
        <time>2022-01-30T11:06:21Z</time>
      </trkpt>
      <trkpt lat="41.8873480" lon="-2.7965300">
        <ele>1098.9</ele>
        <time>2022-01-30T11:06:22Z</time>
      </trkpt>
      <trkpt lat="41.8873150" lon="-2.7964680">
        <ele>1098.9</ele>
        <time>2022-01-30T11:06:23Z</time>
      </trkpt>
      <trkpt lat="41.8872820" lon="-2.7964100">
        <ele>1098.8</ele>
        <time>2022-01-30T11:06:24Z</time>
      </trkpt>
      <trkpt lat="41.8872480" lon="-2.7963520">
        <ele>1098.8</ele>
        <time>2022-01-30T11:06:25Z</time>
      </trkpt>
      <trkpt lat="41.8872180" lon="-2.7962930">
        <ele>1098.7</ele>
        <time>2022-01-30T11:06:26Z</time>
      </trkpt>
      <trkpt lat="41.8871830" lon="-2.7962370">
        <ele>1098.7</ele>
        <time>2022-01-30T11:06:27Z</time>
      </trkpt>
      <trkpt lat="41.8871470" lon="-2.7961850">
        <ele>1098.7</ele>
        <time>2022-01-30T11:06:28Z</time>
      </trkpt>
      <trkpt lat="41.8871080" lon="-2.7961350">
        <ele>1098.7</ele>
        <time>2022-01-30T11:06:29Z</time>
      </trkpt>
      <trkpt lat="41.8870670" lon="-2.7960850">
        <ele>1098.6</ele>
        <time>2022-01-30T11:06:30Z</time>
      </trkpt>
      <trkpt lat="41.8870250" lon="-2.7960370">
        <ele>1098.6</ele>
        <time>2022-01-30T11:06:31Z</time>
      </trkpt>
      <trkpt lat="41.8869850" lon="-2.7959880">
        <ele>1098.7</ele>
        <time>2022-01-30T11:06:32Z</time>
      </trkpt>
      <trkpt lat="41.8869450" lon="-2.7959380">
        <ele>1098.7</ele>
        <time>2022-01-30T11:06:33Z</time>
      </trkpt>
      <trkpt lat="41.8869080" lon="-2.7958850">
        <ele>1098.7</ele>
        <time>2022-01-30T11:06:34Z</time>
      </trkpt>
      <trkpt lat="41.8868730" lon="-2.7958330">
        <ele>1098.7</ele>
        <time>2022-01-30T11:06:35Z</time>
      </trkpt>
      <trkpt lat="41.8868400" lon="-2.7957800">
        <ele>1098.7</ele>
        <time>2022-01-30T11:06:36Z</time>
      </trkpt>
      <trkpt lat="41.8868080" lon="-2.7957200">
        <ele>1098.7</ele>
        <time>2022-01-30T11:06:37Z</time>
      </trkpt>
      <trkpt lat="41.8867750" lon="-2.7956480">
        <ele>1098.8</ele>
        <time>2022-01-30T11:06:38Z</time>
      </trkpt>
      <trkpt lat="41.8867570" lon="-2.7955950">
        <ele>1098.8</ele>
        <time>2022-01-30T11:06:39Z</time>
      </trkpt>
      <trkpt lat="41.8867380" lon="-2.7955280">
        <ele>1098.9</ele>
        <time>2022-01-30T11:06:40Z</time>
      </trkpt>
      <trkpt lat="41.8867230" lon="-2.7954600">
        <ele>1098.9</ele>
        <time>2022-01-30T11:06:41Z</time>
      </trkpt>
      <trkpt lat="41.8867100" lon="-2.7953900">
        <ele>1099.0</ele>
        <time>2022-01-30T11:06:42Z</time>
      </trkpt>
      <trkpt lat="41.8867000" lon="-2.7953080">
        <ele>1099.0</ele>
        <time>2022-01-30T11:06:43Z</time>
      </trkpt>
      <trkpt lat="41.8866970" lon="-2.7952530">
        <ele>1099.1</ele>
        <time>2022-01-30T11:06:44Z</time>
      </trkpt>
      <trkpt lat="41.8866930" lon="-2.7951830">
        <ele>1099.1</ele>
        <time>2022-01-30T11:06:45Z</time>
      </trkpt>
      <trkpt lat="41.8866920" lon="-2.7950980">
        <ele>1099.1</ele>
        <time>2022-01-30T11:06:46Z</time>
      </trkpt>
      <trkpt lat="41.8866880" lon="-2.7950420">
        <ele>1099.2</ele>
        <time>2022-01-30T11:06:47Z</time>
      </trkpt>
      <trkpt lat="41.8866870" lon="-2.7949700">
        <ele>1099.2</ele>
        <time>2022-01-30T11:06:48Z</time>
      </trkpt>
      <trkpt lat="41.8866830" lon="-2.7948970">
        <ele>1099.1</ele>
        <time>2022-01-30T11:06:49Z</time>
      </trkpt>
      <trkpt lat="41.8866780" lon="-2.7948230">
        <ele>1099.1</ele>
        <time>2022-01-30T11:06:50Z</time>
      </trkpt>
      <trkpt lat="41.8866680" lon="-2.7947370">
        <ele>1099.1</ele>
        <time>2022-01-30T11:06:51Z</time>
      </trkpt>
      <trkpt lat="41.8866570" lon="-2.7946670">
        <ele>1099.1</ele>
        <time>2022-01-30T11:06:52Z</time>
      </trkpt>
      <trkpt lat="41.8866450" lon="-2.7946080">
        <ele>1099.1</ele>
        <time>2022-01-30T11:06:53Z</time>
      </trkpt>
      <trkpt lat="41.8866270" lon="-2.7945220">
        <ele>1099.1</ele>
        <time>2022-01-30T11:06:54Z</time>
      </trkpt>
      <trkpt lat="41.8866120" lon="-2.7944500">
        <ele>1099.1</ele>
        <time>2022-01-30T11:06:55Z</time>
      </trkpt>
      <trkpt lat="41.8865930" lon="-2.7943820">
        <ele>1099.1</ele>
        <time>2022-01-30T11:06:56Z</time>
      </trkpt>
      <trkpt lat="41.8865800" lon="-2.7943230">
        <ele>1099.1</ele>
        <time>2022-01-30T11:06:57Z</time>
      </trkpt>
      <trkpt lat="41.8865600" lon="-2.7942550">
        <ele>1099.1</ele>
        <time>2022-01-30T11:06:58Z</time>
      </trkpt>
      <trkpt lat="41.8865420" lon="-2.7941870">
        <ele>1099.1</ele>
        <time>2022-01-30T11:06:59Z</time>
      </trkpt>
      <trkpt lat="41.8865150" lon="-2.7941070">
        <ele>1099.1</ele>
        <time>2022-01-30T11:07:00Z</time>
      </trkpt>
      <trkpt lat="41.8864900" lon="-2.7940370">
        <ele>1099.1</ele>
        <time>2022-01-30T11:07:01Z</time>
      </trkpt>
      <trkpt lat="41.8864700" lon="-2.7939870">
        <ele>1099.1</ele>
        <time>2022-01-30T11:07:02Z</time>
      </trkpt>
      <trkpt lat="41.8864470" lon="-2.7939200">
        <ele>1099.2</ele>
        <time>2022-01-30T11:07:03Z</time>
      </trkpt>
      <trkpt lat="41.8864200" lon="-2.7938420">
        <ele>1099.2</ele>
        <time>2022-01-30T11:07:04Z</time>
      </trkpt>
      <trkpt lat="41.8864070" lon="-2.7937900">
        <ele>1099.2</ele>
        <time>2022-01-30T11:07:05Z</time>
      </trkpt>
      <trkpt lat="41.8863930" lon="-2.7937250">
        <ele>1099.2</ele>
        <time>2022-01-30T11:07:06Z</time>
      </trkpt>
      <trkpt lat="41.8863850" lon="-2.7936570">
        <ele>1099.2</ele>
        <time>2022-01-30T11:07:07Z</time>
      </trkpt>
      <trkpt lat="41.8863830" lon="-2.7935850">
        <ele>1099.2</ele>
        <time>2022-01-30T11:07:08Z</time>
      </trkpt>
      <trkpt lat="41.8863770" lon="-2.7935000">
        <ele>1099.2</ele>
        <time>2022-01-30T11:07:09Z</time>
      </trkpt>
      <trkpt lat="41.8863720" lon="-2.7934300">
        <ele>1099.2</ele>
        <time>2022-01-30T11:07:10Z</time>
      </trkpt>
      <trkpt lat="41.8863700" lon="-2.7933730">
        <ele>1099.1</ele>
        <time>2022-01-30T11:07:11Z</time>
      </trkpt>
      <trkpt lat="41.8863650" lon="-2.7932870">
        <ele>1099.1</ele>
        <time>2022-01-30T11:07:12Z</time>
      </trkpt>
      <trkpt lat="41.8863630" lon="-2.7932280">
        <ele>1099.1</ele>
        <time>2022-01-30T11:07:13Z</time>
      </trkpt>
      <trkpt lat="41.8863570" lon="-2.7931430">
        <ele>1099.1</ele>
        <time>2022-01-30T11:07:14Z</time>
      </trkpt>
      <trkpt lat="41.8863530" lon="-2.7930850">
        <ele>1099.1</ele>
        <time>2022-01-30T11:07:15Z</time>
      </trkpt>
      <trkpt lat="41.8863450" lon="-2.7930120">
        <ele>1099.1</ele>
        <time>2022-01-30T11:07:16Z</time>
      </trkpt>
      <trkpt lat="41.8863300" lon="-2.7929280">
        <ele>1099.1</ele>
        <time>2022-01-30T11:07:17Z</time>
      </trkpt>
      <trkpt lat="41.8863170" lon="-2.7928730">
        <ele>1099.2</ele>
        <time>2022-01-30T11:07:18Z</time>
      </trkpt>
      <trkpt lat="41.8862980" lon="-2.7928030">
        <ele>1099.3</ele>
        <time>2022-01-30T11:07:19Z</time>
      </trkpt>
      <trkpt lat="41.8862750" lon="-2.7927380">
        <ele>1099.4</ele>
        <time>2022-01-30T11:07:20Z</time>
      </trkpt>
      <trkpt lat="41.8862470" lon="-2.7926780">
        <ele>1099.5</ele>
        <time>2022-01-30T11:07:21Z</time>
      </trkpt>
      <trkpt lat="41.8862150" lon="-2.7926220">
        <ele>1099.6</ele>
        <time>2022-01-30T11:07:22Z</time>
      </trkpt>
      <trkpt lat="41.8861850" lon="-2.7925680">
        <ele>1099.8</ele>
        <time>2022-01-30T11:07:23Z</time>
      </trkpt>
      <trkpt lat="41.8861530" lon="-2.7925180">
        <ele>1100.0</ele>
        <time>2022-01-30T11:07:24Z</time>
      </trkpt>
      <trkpt lat="41.8861220" lon="-2.7924680">
        <ele>1100.1</ele>
        <time>2022-01-30T11:07:25Z</time>
      </trkpt>
      <trkpt lat="41.8860900" lon="-2.7924220">
        <ele>1100.3</ele>
        <time>2022-01-30T11:07:26Z</time>
      </trkpt>
      <trkpt lat="41.8860550" lon="-2.7923750">
        <ele>1100.4</ele>
        <time>2022-01-30T11:07:27Z</time>
      </trkpt>
      <trkpt lat="41.8860220" lon="-2.7923280">
        <ele>1100.5</ele>
        <time>2022-01-30T11:07:28Z</time>
      </trkpt>
      <trkpt lat="41.8859870" lon="-2.7922830">
        <ele>1100.6</ele>
        <time>2022-01-30T11:07:29Z</time>
      </trkpt>
      <trkpt lat="41.8859530" lon="-2.7922380">
        <ele>1100.6</ele>
        <time>2022-01-30T11:07:30Z</time>
      </trkpt>
      <trkpt lat="41.8859200" lon="-2.7921920">
        <ele>1100.7</ele>
        <time>2022-01-30T11:07:31Z</time>
      </trkpt>
      <trkpt lat="41.8858900" lon="-2.7921470">
        <ele>1100.7</ele>
        <time>2022-01-30T11:07:32Z</time>
      </trkpt>
      <trkpt lat="41.8858620" lon="-2.7920980">
        <ele>1100.7</ele>
        <time>2022-01-30T11:07:33Z</time>
      </trkpt>
      <trkpt lat="41.8858330" lon="-2.7920470">
        <ele>1100.8</ele>
        <time>2022-01-30T11:07:34Z</time>
      </trkpt>
      <trkpt lat="41.8858070" lon="-2.7919920">
        <ele>1100.8</ele>
        <time>2022-01-30T11:07:35Z</time>
      </trkpt>
      <trkpt lat="41.8857820" lon="-2.7919330">
        <ele>1100.8</ele>
        <time>2022-01-30T11:07:36Z</time>
      </trkpt>
      <trkpt lat="41.8857620" lon="-2.7918730">
        <ele>1100.8</ele>
        <time>2022-01-30T11:07:37Z</time>
      </trkpt>
      <trkpt lat="41.8857420" lon="-2.7918120">
        <ele>1100.9</ele>
        <time>2022-01-30T11:07:38Z</time>
      </trkpt>
      <trkpt lat="41.8857250" lon="-2.7917500">
        <ele>1101.0</ele>
        <time>2022-01-30T11:07:39Z</time>
      </trkpt>
      <trkpt lat="41.8857080" lon="-2.7916870">
        <ele>1101.0</ele>
        <time>2022-01-30T11:07:40Z</time>
      </trkpt>
      <trkpt lat="41.8856930" lon="-2.7916200">
        <ele>1101.1</ele>
        <time>2022-01-30T11:07:41Z</time>
      </trkpt>
      <trkpt lat="41.8856800" lon="-2.7915550">
        <ele>1101.2</ele>
        <time>2022-01-30T11:07:42Z</time>
      </trkpt>
      <trkpt lat="41.8856630" lon="-2.7914900">
        <ele>1101.2</ele>
        <time>2022-01-30T11:07:43Z</time>
      </trkpt>
      <trkpt lat="41.8856480" lon="-2.7914250">
        <ele>1101.2</ele>
        <time>2022-01-30T11:07:44Z</time>
      </trkpt>
      <trkpt lat="41.8856350" lon="-2.7913580">
        <ele>1101.3</ele>
        <time>2022-01-30T11:07:45Z</time>
      </trkpt>
      <trkpt lat="41.8856230" lon="-2.7912920">
        <ele>1101.3</ele>
        <time>2022-01-30T11:07:46Z</time>
      </trkpt>
      <trkpt lat="41.8856100" lon="-2.7912270">
        <ele>1101.3</ele>
        <time>2022-01-30T11:07:47Z</time>
      </trkpt>
      <trkpt lat="41.8855950" lon="-2.7911630">
        <ele>1101.4</ele>
        <time>2022-01-30T11:07:48Z</time>
      </trkpt>
      <trkpt lat="41.8855830" lon="-2.7910980">
        <ele>1101.5</ele>
        <time>2022-01-30T11:07:49Z</time>
      </trkpt>
      <trkpt lat="41.8855680" lon="-2.7910350">
        <ele>1101.6</ele>
        <time>2022-01-30T11:07:50Z</time>
      </trkpt>
      <trkpt lat="41.8855550" lon="-2.7909700">
        <ele>1101.7</ele>
        <time>2022-01-30T11:07:51Z</time>
      </trkpt>
      <trkpt lat="41.8855430" lon="-2.7909070">
        <ele>1101.8</ele>
        <time>2022-01-30T11:07:52Z</time>
      </trkpt>
      <trkpt lat="41.8855320" lon="-2.7908430">
        <ele>1102.0</ele>
        <time>2022-01-30T11:07:53Z</time>
      </trkpt>
      <trkpt lat="41.8855200" lon="-2.7907800">
        <ele>1102.1</ele>
        <time>2022-01-30T11:07:54Z</time>
      </trkpt>
      <trkpt lat="41.8855080" lon="-2.7907180">
        <ele>1102.2</ele>
        <time>2022-01-30T11:07:55Z</time>
      </trkpt>
      <trkpt lat="41.8854970" lon="-2.7906580">
        <ele>1102.4</ele>
        <time>2022-01-30T11:07:56Z</time>
      </trkpt>
      <trkpt lat="41.8854870" lon="-2.7905980">
        <ele>1102.4</ele>
        <time>2022-01-30T11:07:57Z</time>
      </trkpt>
      <trkpt lat="41.8854770" lon="-2.7905400">
        <ele>1102.5</ele>
        <time>2022-01-30T11:07:58Z</time>
      </trkpt>
      <trkpt lat="41.8854670" lon="-2.7904830">
        <ele>1102.6</ele>
        <time>2022-01-30T11:07:59Z</time>
      </trkpt>
      <trkpt lat="41.8854580" lon="-2.7904270">
        <ele>1102.6</ele>
        <time>2022-01-30T11:08:00Z</time>
      </trkpt>
      <trkpt lat="41.8854520" lon="-2.7903670">
        <ele>1102.6</ele>
        <time>2022-01-30T11:08:01Z</time>
      </trkpt>
      <trkpt lat="41.8854450" lon="-2.7903080">
        <ele>1102.6</ele>
        <time>2022-01-30T11:08:02Z</time>
      </trkpt>
      <trkpt lat="41.8854420" lon="-2.7902520">
        <ele>1102.6</ele>
        <time>2022-01-30T11:08:03Z</time>
      </trkpt>
      <trkpt lat="41.8854380" lon="-2.7901950">
        <ele>1102.5</ele>
        <time>2022-01-30T11:08:04Z</time>
      </trkpt>
      <trkpt lat="41.8854400" lon="-2.7901370">
        <ele>1102.5</ele>
        <time>2022-01-30T11:08:05Z</time>
      </trkpt>
      <trkpt lat="41.8854430" lon="-2.7900780">
        <ele>1102.5</ele>
        <time>2022-01-30T11:08:06Z</time>
      </trkpt>
      <trkpt lat="41.8854480" lon="-2.7900180">
        <ele>1102.5</ele>
        <time>2022-01-30T11:08:07Z</time>
      </trkpt>
      <trkpt lat="41.8854550" lon="-2.7899570">
        <ele>1102.4</ele>
        <time>2022-01-30T11:08:08Z</time>
      </trkpt>
      <trkpt lat="41.8854650" lon="-2.7898920">
        <ele>1102.4</ele>
        <time>2022-01-30T11:08:09Z</time>
      </trkpt>
      <trkpt lat="41.8854750" lon="-2.7898220">
        <ele>1102.4</ele>
        <time>2022-01-30T11:08:10Z</time>
      </trkpt>
      <trkpt lat="41.8854850" lon="-2.7897520">
        <ele>1102.3</ele>
        <time>2022-01-30T11:08:11Z</time>
      </trkpt>
      <trkpt lat="41.8854970" lon="-2.7896820">
        <ele>1102.3</ele>
        <time>2022-01-30T11:08:12Z</time>
      </trkpt>
      <trkpt lat="41.8855080" lon="-2.7896130">
        <ele>1102.3</ele>
        <time>2022-01-30T11:08:13Z</time>
      </trkpt>
      <trkpt lat="41.8855200" lon="-2.7895450">
        <ele>1102.2</ele>
        <time>2022-01-30T11:08:14Z</time>
      </trkpt>
      <trkpt lat="41.8855320" lon="-2.7894780">
        <ele>1102.2</ele>
        <time>2022-01-30T11:08:15Z</time>
      </trkpt>
      <trkpt lat="41.8855420" lon="-2.7894070">
        <ele>1102.2</ele>
        <time>2022-01-30T11:08:16Z</time>
      </trkpt>
      <trkpt lat="41.8855500" lon="-2.7893330">
        <ele>1102.1</ele>
        <time>2022-01-30T11:08:17Z</time>
      </trkpt>
      <trkpt lat="41.8855530" lon="-2.7892620">
        <ele>1102.1</ele>
        <time>2022-01-30T11:08:18Z</time>
      </trkpt>
      <trkpt lat="41.8855500" lon="-2.7891930">
        <ele>1102.0</ele>
        <time>2022-01-30T11:08:19Z</time>
      </trkpt>
      <trkpt lat="41.8855450" lon="-2.7891250">
        <ele>1102.0</ele>
        <time>2022-01-30T11:08:20Z</time>
      </trkpt>
      <trkpt lat="41.8855370" lon="-2.7890550">
        <ele>1101.9</ele>
        <time>2022-01-30T11:08:21Z</time>
      </trkpt>
      <trkpt lat="41.8855280" lon="-2.7889870">
        <ele>1101.9</ele>
        <time>2022-01-30T11:08:22Z</time>
      </trkpt>
      <trkpt lat="41.8855180" lon="-2.7889180">
        <ele>1101.8</ele>
        <time>2022-01-30T11:08:23Z</time>
      </trkpt>
      <trkpt lat="41.8855120" lon="-2.7888480">
        <ele>1101.8</ele>
        <time>2022-01-30T11:08:24Z</time>
      </trkpt>
      <trkpt lat="41.8855030" lon="-2.7887800">
        <ele>1101.8</ele>
        <time>2022-01-30T11:08:25Z</time>
      </trkpt>
      <trkpt lat="41.8854970" lon="-2.7887130">
        <ele>1101.8</ele>
        <time>2022-01-30T11:08:26Z</time>
      </trkpt>
      <trkpt lat="41.8854900" lon="-2.7886470">
        <ele>1101.8</ele>
        <time>2022-01-30T11:08:27Z</time>
      </trkpt>
      <trkpt lat="41.8854770" lon="-2.7885830">
        <ele>1101.8</ele>
        <time>2022-01-30T11:08:28Z</time>
      </trkpt>
      <trkpt lat="41.8854620" lon="-2.7885200">
        <ele>1101.8</ele>
        <time>2022-01-30T11:08:29Z</time>
      </trkpt>
      <trkpt lat="41.8854450" lon="-2.7884600">
        <ele>1101.8</ele>
        <time>2022-01-30T11:08:30Z</time>
      </trkpt>
      <trkpt lat="41.8854270" lon="-2.7883980">
        <ele>1101.8</ele>
        <time>2022-01-30T11:08:31Z</time>
      </trkpt>
      <trkpt lat="41.8854080" lon="-2.7883370">
        <ele>1101.8</ele>
        <time>2022-01-30T11:08:32Z</time>
      </trkpt>
      <trkpt lat="41.8853920" lon="-2.7882750">
        <ele>1101.8</ele>
        <time>2022-01-30T11:08:33Z</time>
      </trkpt>
      <trkpt lat="41.8853780" lon="-2.7882120">
        <ele>1101.7</ele>
        <time>2022-01-30T11:08:34Z</time>
      </trkpt>
      <trkpt lat="41.8853700" lon="-2.7881470">
        <ele>1101.6</ele>
        <time>2022-01-30T11:08:35Z</time>
      </trkpt>
      <trkpt lat="41.8853630" lon="-2.7880780">
        <ele>1101.5</ele>
        <time>2022-01-30T11:08:36Z</time>
      </trkpt>
      <trkpt lat="41.8853600" lon="-2.7880080">
        <ele>1101.4</ele>
        <time>2022-01-30T11:08:37Z</time>
      </trkpt>
      <trkpt lat="41.8853550" lon="-2.7879370">
        <ele>1101.3</ele>
        <time>2022-01-30T11:08:38Z</time>
      </trkpt>
      <trkpt lat="41.8853500" lon="-2.7878680">
        <ele>1101.3</ele>
        <time>2022-01-30T11:08:39Z</time>
      </trkpt>
      <trkpt lat="41.8853420" lon="-2.7878000">
        <ele>1101.3</ele>
        <time>2022-01-30T11:08:40Z</time>
      </trkpt>
      <trkpt lat="41.8853270" lon="-2.7877330">
        <ele>1101.3</ele>
        <time>2022-01-30T11:08:41Z</time>
      </trkpt>
      <trkpt lat="41.8853100" lon="-2.7876700">
        <ele>1101.4</ele>
        <time>2022-01-30T11:08:42Z</time>
      </trkpt>
      <trkpt lat="41.8852880" lon="-2.7876120">
        <ele>1101.4</ele>
        <time>2022-01-30T11:08:43Z</time>
      </trkpt>
      <trkpt lat="41.8852680" lon="-2.7875520">
        <ele>1101.5</ele>
        <time>2022-01-30T11:08:44Z</time>
      </trkpt>
      <trkpt lat="41.8852400" lon="-2.7874930">
        <ele>1101.5</ele>
        <time>2022-01-30T11:08:45Z</time>
      </trkpt>
      <trkpt lat="41.8852170" lon="-2.7874350">
        <ele>1101.6</ele>
        <time>2022-01-30T11:08:46Z</time>
      </trkpt>
      <trkpt lat="41.8852020" lon="-2.7873720">
        <ele>1101.6</ele>
        <time>2022-01-30T11:08:47Z</time>
      </trkpt>
      <trkpt lat="41.8851830" lon="-2.7873080">
        <ele>1101.7</ele>
        <time>2022-01-30T11:08:48Z</time>
      </trkpt>
      <trkpt lat="41.8851630" lon="-2.7872300">
        <ele>1101.7</ele>
        <time>2022-01-30T11:08:49Z</time>
      </trkpt>
      <trkpt lat="41.8851500" lon="-2.7871730">
        <ele>1101.8</ele>
        <time>2022-01-30T11:08:50Z</time>
      </trkpt>
      <trkpt lat="41.8851250" lon="-2.7871080">
        <ele>1102.0</ele>
        <time>2022-01-30T11:08:51Z</time>
      </trkpt>
      <trkpt lat="41.8850970" lon="-2.7870500">
        <ele>1102.2</ele>
        <time>2022-01-30T11:08:52Z</time>
      </trkpt>
      <trkpt lat="41.8850680" lon="-2.7870000">
        <ele>1102.4</ele>
        <time>2022-01-30T11:08:53Z</time>
      </trkpt>
      <trkpt lat="41.8850380" lon="-2.7869550">
        <ele>1102.5</ele>
        <time>2022-01-30T11:08:54Z</time>
      </trkpt>
      <trkpt lat="41.8850080" lon="-2.7869100">
        <ele>1102.5</ele>
        <time>2022-01-30T11:08:55Z</time>
      </trkpt>
      <trkpt lat="41.8849780" lon="-2.7868620">
        <ele>1102.6</ele>
        <time>2022-01-30T11:08:56Z</time>
      </trkpt>
      <trkpt lat="41.8849450" lon="-2.7868200">
        <ele>1102.7</ele>
        <time>2022-01-30T11:08:57Z</time>
      </trkpt>
      <trkpt lat="41.8849120" lon="-2.7867750">
        <ele>1102.7</ele>
        <time>2022-01-30T11:08:58Z</time>
      </trkpt>
      <trkpt lat="41.8848820" lon="-2.7867300">
        <ele>1102.8</ele>
        <time>2022-01-30T11:08:59Z</time>
      </trkpt>
      <trkpt lat="41.8848480" lon="-2.7866920">
        <ele>1102.9</ele>
        <time>2022-01-30T11:09:00Z</time>
      </trkpt>
      <trkpt lat="41.8848180" lon="-2.7866530">
        <ele>1103.0</ele>
        <time>2022-01-30T11:09:01Z</time>
      </trkpt>
      <trkpt lat="41.8847830" lon="-2.7866170">
        <ele>1103.0</ele>
        <time>2022-01-30T11:09:02Z</time>
      </trkpt>
      <trkpt lat="41.8847480" lon="-2.7865770">
        <ele>1103.1</ele>
        <time>2022-01-30T11:09:03Z</time>
      </trkpt>
      <trkpt lat="41.8847150" lon="-2.7865370">
        <ele>1103.1</ele>
        <time>2022-01-30T11:09:04Z</time>
      </trkpt>
      <trkpt lat="41.8846820" lon="-2.7864970">
        <ele>1103.2</ele>
        <time>2022-01-30T11:09:05Z</time>
      </trkpt>
      <trkpt lat="41.8846470" lon="-2.7864580">
        <ele>1103.3</ele>
        <time>2022-01-30T11:09:06Z</time>
      </trkpt>
      <trkpt lat="41.8846150" lon="-2.7864180">
        <ele>1103.4</ele>
        <time>2022-01-30T11:09:07Z</time>
      </trkpt>
      <trkpt lat="41.8845830" lon="-2.7863780">
        <ele>1103.6</ele>
        <time>2022-01-30T11:09:08Z</time>
      </trkpt>
      <trkpt lat="41.8845520" lon="-2.7863330">
        <ele>1103.8</ele>
        <time>2022-01-30T11:09:09Z</time>
      </trkpt>
      <trkpt lat="41.8845230" lon="-2.7862920">
        <ele>1104.0</ele>
        <time>2022-01-30T11:09:10Z</time>
      </trkpt>
      <trkpt lat="41.8844920" lon="-2.7862520">
        <ele>1104.1</ele>
        <time>2022-01-30T11:09:11Z</time>
      </trkpt>
      <trkpt lat="41.8844630" lon="-2.7862120">
        <ele>1104.3</ele>
        <time>2022-01-30T11:09:12Z</time>
      </trkpt>
      <trkpt lat="41.8844370" lon="-2.7861680">
        <ele>1104.5</ele>
        <time>2022-01-30T11:09:13Z</time>
      </trkpt>
      <trkpt lat="41.8844080" lon="-2.7861250">
        <ele>1104.7</ele>
        <time>2022-01-30T11:09:14Z</time>
      </trkpt>
      <trkpt lat="41.8843800" lon="-2.7860800">
        <ele>1104.9</ele>
        <time>2022-01-30T11:09:15Z</time>
      </trkpt>
      <trkpt lat="41.8843520" lon="-2.7860370">
        <ele>1105.1</ele>
        <time>2022-01-30T11:09:16Z</time>
      </trkpt>
      <trkpt lat="41.8843230" lon="-2.7859930">
        <ele>1105.3</ele>
        <time>2022-01-30T11:09:17Z</time>
      </trkpt>
      <trkpt lat="41.8842980" lon="-2.7859480">
        <ele>1105.5</ele>
        <time>2022-01-30T11:09:18Z</time>
      </trkpt>
      <trkpt lat="41.8842700" lon="-2.7859050">
        <ele>1105.7</ele>
        <time>2022-01-30T11:09:19Z</time>
      </trkpt>
      <trkpt lat="41.8842480" lon="-2.7858580">
        <ele>1105.8</ele>
        <time>2022-01-30T11:09:20Z</time>
      </trkpt>
      <trkpt lat="41.8842230" lon="-2.7858150">
        <ele>1106.0</ele>
        <time>2022-01-30T11:09:21Z</time>
      </trkpt>
      <trkpt lat="41.8842000" lon="-2.7857720">
        <ele>1106.2</ele>
        <time>2022-01-30T11:09:22Z</time>
      </trkpt>
      <trkpt lat="41.8841730" lon="-2.7857320">
        <ele>1106.4</ele>
        <time>2022-01-30T11:09:23Z</time>
      </trkpt>
      <trkpt lat="41.8841450" lon="-2.7856900">
        <ele>1106.6</ele>
        <time>2022-01-30T11:09:24Z</time>
      </trkpt>
      <trkpt lat="41.8841170" lon="-2.7856470">
        <ele>1106.9</ele>
        <time>2022-01-30T11:09:25Z</time>
      </trkpt>
      <trkpt lat="41.8840900" lon="-2.7856050">
        <ele>1107.1</ele>
        <time>2022-01-30T11:09:26Z</time>
      </trkpt>
      <trkpt lat="41.8840630" lon="-2.7855680">
        <ele>1107.3</ele>
        <time>2022-01-30T11:09:27Z</time>
      </trkpt>
      <trkpt lat="41.8840380" lon="-2.7855320">
        <ele>1107.5</ele>
        <time>2022-01-30T11:09:28Z</time>
      </trkpt>
      <trkpt lat="41.8840130" lon="-2.7854950">
        <ele>1107.6</ele>
        <time>2022-01-30T11:09:29Z</time>
      </trkpt>
      <trkpt lat="41.8839880" lon="-2.7854570">
        <ele>1107.8</ele>
        <time>2022-01-30T11:09:30Z</time>
      </trkpt>
      <trkpt lat="41.8839620" lon="-2.7854180">
        <ele>1108.1</ele>
        <time>2022-01-30T11:09:31Z</time>
      </trkpt>
      <trkpt lat="41.8839370" lon="-2.7853820">
        <ele>1108.2</ele>
        <time>2022-01-30T11:09:32Z</time>
      </trkpt>
      <trkpt lat="41.8839120" lon="-2.7853420">
        <ele>1108.5</ele>
        <time>2022-01-30T11:09:33Z</time>
      </trkpt>
      <trkpt lat="41.8838880" lon="-2.7853050">
        <ele>1108.6</ele>
        <time>2022-01-30T11:09:34Z</time>
      </trkpt>
      <trkpt lat="41.8838670" lon="-2.7852650">
        <ele>1108.8</ele>
        <time>2022-01-30T11:09:35Z</time>
      </trkpt>
      <trkpt lat="41.8838450" lon="-2.7852270">
        <ele>1109.0</ele>
        <time>2022-01-30T11:09:36Z</time>
      </trkpt>
      <trkpt lat="41.8838220" lon="-2.7851880">
        <ele>1109.3</ele>
        <time>2022-01-30T11:09:37Z</time>
      </trkpt>
      <trkpt lat="41.8838000" lon="-2.7851500">
        <ele>1109.5</ele>
        <time>2022-01-30T11:09:38Z</time>
      </trkpt>
      <trkpt lat="41.8837770" lon="-2.7851130">
        <ele>1109.7</ele>
        <time>2022-01-30T11:09:39Z</time>
      </trkpt>
      <trkpt lat="41.8837550" lon="-2.7850770">
        <ele>1109.9</ele>
        <time>2022-01-30T11:09:40Z</time>
      </trkpt>
      <trkpt lat="41.8837320" lon="-2.7850380">
        <ele>1110.1</ele>
        <time>2022-01-30T11:09:41Z</time>
      </trkpt>
      <trkpt lat="41.8837100" lon="-2.7850030">
        <ele>1110.3</ele>
        <time>2022-01-30T11:09:42Z</time>
      </trkpt>
      <trkpt lat="41.8836900" lon="-2.7849670">
        <ele>1110.5</ele>
        <time>2022-01-30T11:09:43Z</time>
      </trkpt>
      <trkpt lat="41.8836680" lon="-2.7849300">
        <ele>1110.7</ele>
        <time>2022-01-30T11:09:44Z</time>
      </trkpt>
      <trkpt lat="41.8836470" lon="-2.7848920">
        <ele>1110.9</ele>
        <time>2022-01-30T11:09:45Z</time>
      </trkpt>
      <trkpt lat="41.8836270" lon="-2.7848550">
        <ele>1111.1</ele>
        <time>2022-01-30T11:09:46Z</time>
      </trkpt>
      <trkpt lat="41.8836070" lon="-2.7848220">
        <ele>1111.2</ele>
        <time>2022-01-30T11:09:47Z</time>
      </trkpt>
      <trkpt lat="41.8835870" lon="-2.7847880">
        <ele>1111.4</ele>
        <time>2022-01-30T11:09:48Z</time>
      </trkpt>
      <trkpt lat="41.8835630" lon="-2.7847550">
        <ele>1111.6</ele>
        <time>2022-01-30T11:09:49Z</time>
      </trkpt>
      <trkpt lat="41.8835430" lon="-2.7847220">
        <ele>1111.8</ele>
        <time>2022-01-30T11:09:50Z</time>
      </trkpt>
      <trkpt lat="41.8835230" lon="-2.7846880">
        <ele>1112.0</ele>
        <time>2022-01-30T11:09:51Z</time>
      </trkpt>
      <trkpt lat="41.8835030" lon="-2.7846550">
        <ele>1112.2</ele>
        <time>2022-01-30T11:09:52Z</time>
      </trkpt>
      <trkpt lat="41.8834800" lon="-2.7846200">
        <ele>1112.4</ele>
        <time>2022-01-30T11:09:53Z</time>
      </trkpt>
      <trkpt lat="41.8834570" lon="-2.7845870">
        <ele>1112.5</ele>
        <time>2022-01-30T11:09:54Z</time>
      </trkpt>
      <trkpt lat="41.8834350" lon="-2.7845520">
        <ele>1112.7</ele>
        <time>2022-01-30T11:09:55Z</time>
      </trkpt>
      <trkpt lat="41.8834130" lon="-2.7845170">
        <ele>1112.9</ele>
        <time>2022-01-30T11:09:56Z</time>
      </trkpt>
      <trkpt lat="41.8833920" lon="-2.7844820">
        <ele>1113.1</ele>
        <time>2022-01-30T11:09:57Z</time>
      </trkpt>
      <trkpt lat="41.8833720" lon="-2.7844470">
        <ele>1113.3</ele>
        <time>2022-01-30T11:09:58Z</time>
      </trkpt>
      <trkpt lat="41.8833530" lon="-2.7844120">
        <ele>1113.4</ele>
        <time>2022-01-30T11:09:59Z</time>
      </trkpt>
      <trkpt lat="41.8833330" lon="-2.7843770">
        <ele>1113.6</ele>
        <time>2022-01-30T11:10:00Z</time>
      </trkpt>
      <trkpt lat="41.8833130" lon="-2.7843400">
        <ele>1113.7</ele>
        <time>2022-01-30T11:10:01Z</time>
      </trkpt>
      <trkpt lat="41.8832920" lon="-2.7843020">
        <ele>1113.9</ele>
        <time>2022-01-30T11:10:02Z</time>
      </trkpt>
      <trkpt lat="41.8832720" lon="-2.7842620">
        <ele>1114.0</ele>
        <time>2022-01-30T11:10:03Z</time>
      </trkpt>
      <trkpt lat="41.8832520" lon="-2.7842200">
        <ele>1114.2</ele>
        <time>2022-01-30T11:10:04Z</time>
      </trkpt>
      <trkpt lat="41.8832320" lon="-2.7841800">
        <ele>1114.4</ele>
        <time>2022-01-30T11:10:05Z</time>
      </trkpt>
      <trkpt lat="41.8832120" lon="-2.7841420">
        <ele>1114.5</ele>
        <time>2022-01-30T11:10:06Z</time>
      </trkpt>
      <trkpt lat="41.8831920" lon="-2.7841000">
        <ele>1114.7</ele>
        <time>2022-01-30T11:10:07Z</time>
      </trkpt>
      <trkpt lat="41.8831700" lon="-2.7840580">
        <ele>1114.8</ele>
        <time>2022-01-30T11:10:08Z</time>
      </trkpt>
      <trkpt lat="41.8831480" lon="-2.7840150">
        <ele>1115.0</ele>
        <time>2022-01-30T11:10:09Z</time>
      </trkpt>
      <trkpt lat="41.8831280" lon="-2.7839730">
        <ele>1115.2</ele>
        <time>2022-01-30T11:10:10Z</time>
      </trkpt>
      <trkpt lat="41.8831080" lon="-2.7839300">
        <ele>1115.3</ele>
        <time>2022-01-30T11:10:11Z</time>
      </trkpt>
      <trkpt lat="41.8830870" lon="-2.7838870">
        <ele>1115.4</ele>
        <time>2022-01-30T11:10:12Z</time>
      </trkpt>
      <trkpt lat="41.8830670" lon="-2.7838470">
        <ele>1115.6</ele>
        <time>2022-01-30T11:10:13Z</time>
      </trkpt>
      <trkpt lat="41.8830470" lon="-2.7838050">
        <ele>1115.7</ele>
        <time>2022-01-30T11:10:14Z</time>
      </trkpt>
      <trkpt lat="41.8830270" lon="-2.7837630">
        <ele>1115.9</ele>
        <time>2022-01-30T11:10:15Z</time>
      </trkpt>
      <trkpt lat="41.8830050" lon="-2.7837220">
        <ele>1116.0</ele>
        <time>2022-01-30T11:10:16Z</time>
      </trkpt>
      <trkpt lat="41.8829830" lon="-2.7836780">
        <ele>1116.1</ele>
        <time>2022-01-30T11:10:17Z</time>
      </trkpt>
      <trkpt lat="41.8829630" lon="-2.7836350">
        <ele>1116.3</ele>
        <time>2022-01-30T11:10:18Z</time>
      </trkpt>
      <trkpt lat="41.8829420" lon="-2.7835920">
        <ele>1116.4</ele>
        <time>2022-01-30T11:10:19Z</time>
      </trkpt>
      <trkpt lat="41.8829200" lon="-2.7835480">
        <ele>1116.5</ele>
        <time>2022-01-30T11:10:20Z</time>
      </trkpt>
      <trkpt lat="41.8828980" lon="-2.7835070">
        <ele>1116.7</ele>
        <time>2022-01-30T11:10:21Z</time>
      </trkpt>
      <trkpt lat="41.8828770" lon="-2.7834620">
        <ele>1116.8</ele>
        <time>2022-01-30T11:10:22Z</time>
      </trkpt>
      <trkpt lat="41.8828550" lon="-2.7834200">
        <ele>1117.0</ele>
        <time>2022-01-30T11:10:23Z</time>
      </trkpt>
      <trkpt lat="41.8828330" lon="-2.7833780">
        <ele>1117.1</ele>
        <time>2022-01-30T11:10:24Z</time>
      </trkpt>
      <trkpt lat="41.8828120" lon="-2.7833380">
        <ele>1117.2</ele>
        <time>2022-01-30T11:10:25Z</time>
      </trkpt>
      <trkpt lat="41.8827900" lon="-2.7832970">
        <ele>1117.4</ele>
        <time>2022-01-30T11:10:26Z</time>
      </trkpt>
      <trkpt lat="41.8827680" lon="-2.7832530">
        <ele>1117.5</ele>
        <time>2022-01-30T11:10:27Z</time>
      </trkpt>
      <trkpt lat="41.8827470" lon="-2.7832120">
        <ele>1117.6</ele>
        <time>2022-01-30T11:10:28Z</time>
      </trkpt>
      <trkpt lat="41.8827250" lon="-2.7831680">
        <ele>1117.7</ele>
        <time>2022-01-30T11:10:29Z</time>
      </trkpt>
      <trkpt lat="41.8827030" lon="-2.7831250">
        <ele>1117.9</ele>
        <time>2022-01-30T11:10:30Z</time>
      </trkpt>
      <trkpt lat="41.8826830" lon="-2.7830800">
        <ele>1118.0</ele>
        <time>2022-01-30T11:10:31Z</time>
      </trkpt>
      <trkpt lat="41.8826620" lon="-2.7830380">
        <ele>1118.1</ele>
        <time>2022-01-30T11:10:32Z</time>
      </trkpt>
      <trkpt lat="41.8826380" lon="-2.7829970">
        <ele>1118.2</ele>
        <time>2022-01-30T11:10:33Z</time>
      </trkpt>
      <trkpt lat="41.8826130" lon="-2.7829530">
        <ele>1118.3</ele>
        <time>2022-01-30T11:10:34Z</time>
      </trkpt>
      <trkpt lat="41.8825900" lon="-2.7829080">
        <ele>1118.4</ele>
        <time>2022-01-30T11:10:35Z</time>
      </trkpt>
      <trkpt lat="41.8825680" lon="-2.7828650">
        <ele>1118.5</ele>
        <time>2022-01-30T11:10:36Z</time>
      </trkpt>
      <trkpt lat="41.8825470" lon="-2.7828200">
        <ele>1118.7</ele>
        <time>2022-01-30T11:10:37Z</time>
      </trkpt>
      <trkpt lat="41.8825220" lon="-2.7827770">
        <ele>1118.8</ele>
        <time>2022-01-30T11:10:38Z</time>
      </trkpt>
      <trkpt lat="41.8824970" lon="-2.7827330">
        <ele>1118.9</ele>
        <time>2022-01-30T11:10:39Z</time>
      </trkpt>
      <trkpt lat="41.8824750" lon="-2.7826900">
        <ele>1119.0</ele>
        <time>2022-01-30T11:10:40Z</time>
      </trkpt>
      <trkpt lat="41.8824520" lon="-2.7826450">
        <ele>1119.1</ele>
        <time>2022-01-30T11:10:41Z</time>
      </trkpt>
      <trkpt lat="41.8824280" lon="-2.7826000">
        <ele>1119.2</ele>
        <time>2022-01-30T11:10:42Z</time>
      </trkpt>
      <trkpt lat="41.8824050" lon="-2.7825550">
        <ele>1119.3</ele>
        <time>2022-01-30T11:10:43Z</time>
      </trkpt>
      <trkpt lat="41.8823820" lon="-2.7825080">
        <ele>1119.4</ele>
        <time>2022-01-30T11:10:44Z</time>
      </trkpt>
      <trkpt lat="41.8823580" lon="-2.7824600">
        <ele>1119.5</ele>
        <time>2022-01-30T11:10:45Z</time>
      </trkpt>
      <trkpt lat="41.8823370" lon="-2.7824130">
        <ele>1119.6</ele>
        <time>2022-01-30T11:10:46Z</time>
      </trkpt>
      <trkpt lat="41.8823130" lon="-2.7823680">
        <ele>1119.7</ele>
        <time>2022-01-30T11:10:47Z</time>
      </trkpt>
      <trkpt lat="41.8822900" lon="-2.7823230">
        <ele>1119.8</ele>
        <time>2022-01-30T11:10:48Z</time>
      </trkpt>
      <trkpt lat="41.8822630" lon="-2.7822770">
        <ele>1119.9</ele>
        <time>2022-01-30T11:10:49Z</time>
      </trkpt>
      <trkpt lat="41.8822380" lon="-2.7822300">
        <ele>1120.0</ele>
        <time>2022-01-30T11:10:50Z</time>
      </trkpt>
      <trkpt lat="41.8822130" lon="-2.7821870">
        <ele>1120.1</ele>
        <time>2022-01-30T11:10:51Z</time>
      </trkpt>
      <trkpt lat="41.8821920" lon="-2.7821420">
        <ele>1120.2</ele>
        <time>2022-01-30T11:10:52Z</time>
      </trkpt>
      <trkpt lat="41.8821680" lon="-2.7820970">
        <ele>1120.3</ele>
        <time>2022-01-30T11:10:53Z</time>
      </trkpt>
      <trkpt lat="41.8821450" lon="-2.7820530">
        <ele>1120.4</ele>
        <time>2022-01-30T11:10:54Z</time>
      </trkpt>
      <trkpt lat="41.8821230" lon="-2.7820080">
        <ele>1120.4</ele>
        <time>2022-01-30T11:10:55Z</time>
      </trkpt>
      <trkpt lat="41.8821020" lon="-2.7819620">
        <ele>1120.5</ele>
        <time>2022-01-30T11:10:56Z</time>
      </trkpt>
      <trkpt lat="41.8820780" lon="-2.7819150">
        <ele>1120.6</ele>
        <time>2022-01-30T11:10:57Z</time>
      </trkpt>
      <trkpt lat="41.8820570" lon="-2.7818720">
        <ele>1120.6</ele>
        <time>2022-01-30T11:10:58Z</time>
      </trkpt>
      <trkpt lat="41.8820350" lon="-2.7818280">
        <ele>1120.7</ele>
        <time>2022-01-30T11:10:59Z</time>
      </trkpt>
      <trkpt lat="41.8820100" lon="-2.7817870">
        <ele>1120.7</ele>
        <time>2022-01-30T11:11:00Z</time>
      </trkpt>
      <trkpt lat="41.8819870" lon="-2.7817450">
        <ele>1120.8</ele>
        <time>2022-01-30T11:11:01Z</time>
      </trkpt>
      <trkpt lat="41.8819630" lon="-2.7817030">
        <ele>1120.8</ele>
        <time>2022-01-30T11:11:02Z</time>
      </trkpt>
      <trkpt lat="41.8819400" lon="-2.7816600">
        <ele>1120.8</ele>
        <time>2022-01-30T11:11:03Z</time>
      </trkpt>
      <trkpt lat="41.8819180" lon="-2.7816150">
        <ele>1120.8</ele>
        <time>2022-01-30T11:11:04Z</time>
      </trkpt>
      <trkpt lat="41.8818950" lon="-2.7815720">
        <ele>1120.7</ele>
        <time>2022-01-30T11:11:05Z</time>
      </trkpt>
      <trkpt lat="41.8818720" lon="-2.7815300">
        <ele>1120.7</ele>
        <time>2022-01-30T11:11:06Z</time>
      </trkpt>
      <trkpt lat="41.8818480" lon="-2.7814880">
        <ele>1120.7</ele>
        <time>2022-01-30T11:11:07Z</time>
      </trkpt>
      <trkpt lat="41.8818270" lon="-2.7814470">
        <ele>1120.6</ele>
        <time>2022-01-30T11:11:08Z</time>
      </trkpt>
      <trkpt lat="41.8818020" lon="-2.7814050">
        <ele>1120.6</ele>
        <time>2022-01-30T11:11:09Z</time>
      </trkpt>
      <trkpt lat="41.8817750" lon="-2.7813620">
        <ele>1120.5</ele>
        <time>2022-01-30T11:11:10Z</time>
      </trkpt>
      <trkpt lat="41.8817500" lon="-2.7813180">
        <ele>1120.4</ele>
        <time>2022-01-30T11:11:11Z</time>
      </trkpt>
      <trkpt lat="41.8817220" lon="-2.7812770">
        <ele>1120.3</ele>
        <time>2022-01-30T11:11:12Z</time>
      </trkpt>
      <trkpt lat="41.8816930" lon="-2.7812370">
        <ele>1120.3</ele>
        <time>2022-01-30T11:11:13Z</time>
      </trkpt>
      <trkpt lat="41.8816600" lon="-2.7811970">
        <ele>1120.3</ele>
        <time>2022-01-30T11:11:14Z</time>
      </trkpt>
      <trkpt lat="41.8816220" lon="-2.7811550">
        <ele>1120.3</ele>
        <time>2022-01-30T11:11:15Z</time>
      </trkpt>
      <trkpt lat="41.8815800" lon="-2.7811200">
        <ele>1120.3</ele>
        <time>2022-01-30T11:11:16Z</time>
      </trkpt>
      <trkpt lat="41.8815400" lon="-2.7810880">
        <ele>1120.3</ele>
        <time>2022-01-30T11:11:17Z</time>
      </trkpt>
      <trkpt lat="41.8814980" lon="-2.7810550">
        <ele>1120.3</ele>
        <time>2022-01-30T11:11:18Z</time>
      </trkpt>
      <trkpt lat="41.8814570" lon="-2.7810280">
        <ele>1120.3</ele>
        <time>2022-01-30T11:11:19Z</time>
      </trkpt>
      <trkpt lat="41.8814150" lon="-2.7810020">
        <ele>1120.2</ele>
        <time>2022-01-30T11:11:20Z</time>
      </trkpt>
      <trkpt lat="41.8813730" lon="-2.7809730">
        <ele>1120.2</ele>
        <time>2022-01-30T11:11:21Z</time>
      </trkpt>
      <trkpt lat="41.8813320" lon="-2.7809430">
        <ele>1120.3</ele>
        <time>2022-01-30T11:11:22Z</time>
      </trkpt>
      <trkpt lat="41.8812950" lon="-2.7809150">
        <ele>1120.3</ele>
        <time>2022-01-30T11:11:23Z</time>
      </trkpt>
      <trkpt lat="41.8812550" lon="-2.7808830">
        <ele>1120.3</ele>
        <time>2022-01-30T11:11:24Z</time>
      </trkpt>
      <trkpt lat="41.8812170" lon="-2.7808520">
        <ele>1120.4</ele>
        <time>2022-01-30T11:11:25Z</time>
      </trkpt>
      <trkpt lat="41.8811800" lon="-2.7808220">
        <ele>1120.4</ele>
        <time>2022-01-30T11:11:26Z</time>
      </trkpt>
      <trkpt lat="41.8811450" lon="-2.7807920">
        <ele>1120.5</ele>
        <time>2022-01-30T11:11:27Z</time>
      </trkpt>
      <trkpt lat="41.8811080" lon="-2.7807620">
        <ele>1120.6</ele>
        <time>2022-01-30T11:11:28Z</time>
      </trkpt>
      <trkpt lat="41.8810720" lon="-2.7807320">
        <ele>1120.7</ele>
        <time>2022-01-30T11:11:29Z</time>
      </trkpt>
      <trkpt lat="41.8810350" lon="-2.7807030">
        <ele>1120.8</ele>
        <time>2022-01-30T11:11:30Z</time>
      </trkpt>
      <trkpt lat="41.8809980" lon="-2.7806750">
        <ele>1120.9</ele>
        <time>2022-01-30T11:11:31Z</time>
      </trkpt>
      <trkpt lat="41.8809620" lon="-2.7806470">
        <ele>1121.0</ele>
        <time>2022-01-30T11:11:32Z</time>
      </trkpt>
      <trkpt lat="41.8809280" lon="-2.7806180">
        <ele>1121.1</ele>
        <time>2022-01-30T11:11:33Z</time>
      </trkpt>
      <trkpt lat="41.8808920" lon="-2.7805900">
        <ele>1121.2</ele>
        <time>2022-01-30T11:11:34Z</time>
      </trkpt>
      <trkpt lat="41.8808550" lon="-2.7805630">
        <ele>1121.3</ele>
        <time>2022-01-30T11:11:35Z</time>
      </trkpt>
      <trkpt lat="41.8808170" lon="-2.7805370">
        <ele>1121.4</ele>
        <time>2022-01-30T11:11:36Z</time>
      </trkpt>
      <trkpt lat="41.8807800" lon="-2.7805080">
        <ele>1121.4</ele>
        <time>2022-01-30T11:11:37Z</time>
      </trkpt>
      <trkpt lat="41.8807430" lon="-2.7804850">
        <ele>1121.5</ele>
        <time>2022-01-30T11:11:38Z</time>
      </trkpt>
      <trkpt lat="41.8807080" lon="-2.7804630">
        <ele>1121.6</ele>
        <time>2022-01-30T11:11:39Z</time>
      </trkpt>
      <trkpt lat="41.8806730" lon="-2.7804370">
        <ele>1121.6</ele>
        <time>2022-01-30T11:11:40Z</time>
      </trkpt>
      <trkpt lat="41.8806380" lon="-2.7804120">
        <ele>1121.7</ele>
        <time>2022-01-30T11:11:41Z</time>
      </trkpt>
      <trkpt lat="41.8806050" lon="-2.7803850">
        <ele>1121.7</ele>
        <time>2022-01-30T11:11:42Z</time>
      </trkpt>
      <trkpt lat="41.8805750" lon="-2.7803570">
        <ele>1121.8</ele>
        <time>2022-01-30T11:11:43Z</time>
      </trkpt>
      <trkpt lat="41.8805430" lon="-2.7803320">
        <ele>1121.8</ele>
        <time>2022-01-30T11:11:44Z</time>
      </trkpt>
      <trkpt lat="41.8805100" lon="-2.7803030">
        <ele>1121.9</ele>
        <time>2022-01-30T11:11:45Z</time>
      </trkpt>
      <trkpt lat="41.8804750" lon="-2.7802770">
        <ele>1122.0</ele>
        <time>2022-01-30T11:11:46Z</time>
      </trkpt>
      <trkpt lat="41.8804380" lon="-2.7802500">
        <ele>1122.1</ele>
        <time>2022-01-30T11:11:47Z</time>
      </trkpt>
      <trkpt lat="41.8803970" lon="-2.7802270">
        <ele>1122.2</ele>
        <time>2022-01-30T11:11:48Z</time>
      </trkpt>
      <trkpt lat="41.8803580" lon="-2.7802070">
        <ele>1122.3</ele>
        <time>2022-01-30T11:11:49Z</time>
      </trkpt>
      <trkpt lat="41.8803200" lon="-2.7801900">
        <ele>1122.4</ele>
        <time>2022-01-30T11:11:50Z</time>
      </trkpt>
      <trkpt lat="41.8802830" lon="-2.7801750">
        <ele>1122.6</ele>
        <time>2022-01-30T11:11:51Z</time>
      </trkpt>
      <trkpt lat="41.8802500" lon="-2.7801630">
        <ele>1122.7</ele>
        <time>2022-01-30T11:11:52Z</time>
      </trkpt>
      <trkpt lat="41.8802180" lon="-2.7801550">
        <ele>1122.8</ele>
        <time>2022-01-30T11:11:53Z</time>
      </trkpt>
      <trkpt lat="41.8801900" lon="-2.7801450">
        <ele>1122.9</ele>
        <time>2022-01-30T11:11:54Z</time>
      </trkpt>
      <trkpt lat="41.8801630" lon="-2.7801370">
        <ele>1122.9</ele>
        <time>2022-01-30T11:11:55Z</time>
      </trkpt>
      <trkpt lat="41.8801380" lon="-2.7801250">
        <ele>1123.0</ele>
        <time>2022-01-30T11:11:56Z</time>
      </trkpt>
      <trkpt lat="41.8801220" lon="-2.7801050">
        <ele>1123.0</ele>
        <time>2022-01-30T11:11:57Z</time>
      </trkpt>
      <trkpt lat="41.8801100" lon="-2.7800820">
        <ele>1123.0</ele>
        <time>2022-01-30T11:11:58Z</time>
      </trkpt>
      <trkpt lat="41.8801080" lon="-2.7800550">
        <ele>1123.0</ele>
        <time>2022-01-30T11:11:59Z</time>
      </trkpt>
      <trkpt lat="41.8801120" lon="-2.7800270">
        <ele>1123.0</ele>
        <time>2022-01-30T11:12:00Z</time>
      </trkpt>
      <trkpt lat="41.8801150" lon="-2.7799950">
        <ele>1123.1</ele>
        <time>2022-01-30T11:12:01Z</time>
      </trkpt>
      <trkpt lat="41.8801220" lon="-2.7799630">
        <ele>1123.1</ele>
        <time>2022-01-30T11:12:02Z</time>
      </trkpt>
      <trkpt lat="41.8801430" lon="-2.7799230">
        <ele>1123.1</ele>
        <time>2022-01-30T11:12:03Z</time>
      </trkpt>
      <trkpt lat="41.8801550" lon="-2.7798800">
        <ele>1123.1</ele>
        <time>2022-01-30T11:12:04Z</time>
      </trkpt>
      <trkpt lat="41.8801700" lon="-2.7798480">
        <ele>1123.1</ele>
        <time>2022-01-30T11:12:05Z</time>
      </trkpt>
      <trkpt lat="41.8801800" lon="-2.7798180">
        <ele>1123.2</ele>
        <time>2022-01-30T11:12:06Z</time>
      </trkpt>
      <trkpt lat="41.8801850" lon="-2.7797920">
        <ele>1123.2</ele>
        <time>2022-01-30T11:12:07Z</time>
      </trkpt>
      <trkpt lat="41.8801930" lon="-2.7797650">
        <ele>1123.2</ele>
        <time>2022-01-30T11:12:08Z</time>
      </trkpt>
      <trkpt lat="41.8802020" lon="-2.7797330">
        <ele>1123.2</ele>
        <time>2022-01-30T11:12:09Z</time>
      </trkpt>
      <trkpt lat="41.8802070" lon="-2.7797050">
        <ele>1123.2</ele>
        <time>2022-01-30T11:12:10Z</time>
      </trkpt>
      <trkpt lat="41.8802120" lon="-2.7796770">
        <ele>1123.2</ele>
        <time>2022-01-30T11:12:11Z</time>
      </trkpt>
      <trkpt lat="41.8802170" lon="-2.7796500">
        <ele>1123.3</ele>
        <time>2022-01-30T11:12:12Z</time>
      </trkpt>
      <trkpt lat="41.8802230" lon="-2.7796220">
        <ele>1123.3</ele>
        <time>2022-01-30T11:12:13Z</time>
      </trkpt>
      <trkpt lat="41.8802280" lon="-2.7795920">
        <ele>1123.3</ele>
        <time>2022-01-30T11:12:14Z</time>
      </trkpt>
      <trkpt lat="41.8802350" lon="-2.7795620">
        <ele>1123.3</ele>
        <time>2022-01-30T11:12:15Z</time>
      </trkpt>
      <trkpt lat="41.8802420" lon="-2.7795300">
        <ele>1123.3</ele>
        <time>2022-01-30T11:12:16Z</time>
      </trkpt>
      <trkpt lat="41.8802470" lon="-2.7795000">
        <ele>1123.3</ele>
        <time>2022-01-30T11:12:17Z</time>
      </trkpt>
      <trkpt lat="41.8802520" lon="-2.7794720">
        <ele>1123.3</ele>
        <time>2022-01-30T11:12:18Z</time>
      </trkpt>
      <trkpt lat="41.8802570" lon="-2.7794500">
        <ele>1123.3</ele>
        <time>2022-01-30T11:12:19Z</time>
      </trkpt>
      <trkpt lat="41.8802550" lon="-2.7794350">
        <ele>1123.3</ele>
        <time>2022-01-30T11:12:20Z</time>
      </trkpt>
      <trkpt lat="41.8802520" lon="-2.7794250">
        <ele>1123.3</ele>
        <time>2022-01-30T11:12:21Z</time>
      </trkpt>
      <trkpt lat="41.8802480" lon="-2.7794220">
        <ele>1123.3</ele>
        <time>2022-01-30T11:12:22Z</time>
      </trkpt>
      <trkpt lat="41.8802470" lon="-2.7794200">
        <ele>1123.3</ele>
        <time>2022-01-30T11:12:23Z</time>
      </trkpt>
      <trkpt lat="41.8802450" lon="-2.7794200">
        <ele>1123.3</ele>
        <time>2022-01-30T11:12:24Z</time>
      </trkpt>
      <trkpt lat="41.8802450" lon="-2.7794200">
        <ele>1123.3</ele>
        <time>2022-01-30T11:12:25Z</time>
      </trkpt>
      <trkpt lat="41.8802470" lon="-2.7794180">
        <ele>1123.3</ele>
        <time>2022-01-30T11:12:26Z</time>
      </trkpt>
      <trkpt lat="41.8802450" lon="-2.7794150">
        <ele>1123.3</ele>
        <time>2022-01-30T11:12:27Z</time>
      </trkpt>
      <trkpt lat="41.8802420" lon="-2.7794130">
        <ele>1123.3</ele>
        <time>2022-01-30T11:12:28Z</time>
      </trkpt>
      <trkpt lat="41.8802370" lon="-2.7794120">
        <ele>1123.3</ele>
        <time>2022-01-30T11:12:29Z</time>
      </trkpt>
      <trkpt lat="41.8802320" lon="-2.7794100">
        <ele>1123.3</ele>
        <time>2022-01-30T11:12:30Z</time>
      </trkpt>
      <trkpt lat="41.8802270" lon="-2.7794080">
        <ele>1123.3</ele>
        <time>2022-01-30T11:12:31Z</time>
      </trkpt>
      <trkpt lat="41.8802220" lon="-2.7794100">
        <ele>1123.3</ele>
        <time>2022-01-30T11:12:32Z</time>
      </trkpt>
      <trkpt lat="41.8802170" lon="-2.7794100">
        <ele>1123.3</ele>
        <time>2022-01-30T11:12:33Z</time>
      </trkpt>
      <trkpt lat="41.8802130" lon="-2.7794030">
        <ele>1123.3</ele>
        <time>2022-01-30T11:12:34Z</time>
      </trkpt>
      <trkpt lat="41.8802120" lon="-2.7793930">
        <ele>1123.3</ele>
        <time>2022-01-30T11:12:35Z</time>
      </trkpt>
      <trkpt lat="41.8802000" lon="-2.7793800">
        <ele>1123.3</ele>
        <time>2022-01-30T11:12:36Z</time>
      </trkpt>
      <trkpt lat="41.8801800" lon="-2.7793650">
        <ele>1123.6</ele>
        <time>2022-01-30T11:12:37Z</time>
      </trkpt>
      <trkpt lat="41.8801550" lon="-2.7793500">
        <ele>1123.8</ele>
        <time>2022-01-30T11:12:38Z</time>
      </trkpt>
      <trkpt lat="41.8801270" lon="-2.7793380">
        <ele>1123.8</ele>
        <time>2022-01-30T11:12:39Z</time>
      </trkpt>
      <trkpt lat="41.8801000" lon="-2.7793250">
        <ele>1123.8</ele>
        <time>2022-01-30T11:12:40Z</time>
      </trkpt>
      <trkpt lat="41.8800770" lon="-2.7793130">
        <ele>1123.8</ele>
        <time>2022-01-30T11:12:41Z</time>
      </trkpt>
      <trkpt lat="41.8800570" lon="-2.7793050">
        <ele>1123.8</ele>
        <time>2022-01-30T11:12:42Z</time>
      </trkpt>
      <trkpt lat="41.8800420" lon="-2.7793000">
        <ele>1124.1</ele>
        <time>2022-01-30T11:12:43Z</time>
      </trkpt>
      <trkpt lat="41.8800300" lon="-2.7792950">
        <ele>1124.1</ele>
        <time>2022-01-30T11:12:44Z</time>
      </trkpt>
      <trkpt lat="41.8800150" lon="-2.7792900">
        <ele>1124.1</ele>
        <time>2022-01-30T11:12:45Z</time>
      </trkpt>
      <trkpt lat="41.8800000" lon="-2.7792850">
        <ele>1124.1</ele>
        <time>2022-01-30T11:12:46Z</time>
      </trkpt>
      <trkpt lat="41.8799850" lon="-2.7792820">
        <ele>1124.1</ele>
        <time>2022-01-30T11:12:47Z</time>
      </trkpt>
      <trkpt lat="41.8799720" lon="-2.7792850">
        <ele>1124.1</ele>
        <time>2022-01-30T11:12:48Z</time>
      </trkpt>
      <trkpt lat="41.8799550" lon="-2.7792920">
        <ele>1124.1</ele>
        <time>2022-01-30T11:12:49Z</time>
      </trkpt>
      <trkpt lat="41.8799400" lon="-2.7793030">
        <ele>1124.1</ele>
        <time>2022-01-30T11:12:50Z</time>
      </trkpt>
      <trkpt lat="41.8799270" lon="-2.7793170">
        <ele>1124.1</ele>
        <time>2022-01-30T11:12:51Z</time>
      </trkpt>
      <trkpt lat="41.8799150" lon="-2.7793250">
        <ele>1124.1</ele>
        <time>2022-01-30T11:12:52Z</time>
      </trkpt>
      <trkpt lat="41.8799030" lon="-2.7793330">
        <ele>1124.3</ele>
        <time>2022-01-30T11:12:53Z</time>
      </trkpt>
      <trkpt lat="41.8798930" lon="-2.7793400">
        <ele>1124.3</ele>
        <time>2022-01-30T11:12:54Z</time>
      </trkpt>
      <trkpt lat="41.8798830" lon="-2.7793430">
        <ele>1124.3</ele>
        <time>2022-01-30T11:12:55Z</time>
      </trkpt>
      <trkpt lat="41.8798750" lon="-2.7793480">
        <ele>1124.3</ele>
        <time>2022-01-30T11:12:56Z</time>
      </trkpt>
      <trkpt lat="41.8798670" lon="-2.7793500">
        <ele>1124.3</ele>
        <time>2022-01-30T11:12:57Z</time>
      </trkpt>
      <trkpt lat="41.8798530" lon="-2.7793500">
        <ele>1124.3</ele>
        <time>2022-01-30T11:12:58Z</time>
      </trkpt>
      <trkpt lat="41.8798400" lon="-2.7793530">
        <ele>1124.3</ele>
        <time>2022-01-30T11:12:59Z</time>
      </trkpt>
      <trkpt lat="41.8798230" lon="-2.7793530">
        <ele>1124.3</ele>
        <time>2022-01-30T11:13:00Z</time>
      </trkpt>
      <trkpt lat="41.8798100" lon="-2.7793550">
        <ele>1124.3</ele>
        <time>2022-01-30T11:13:01Z</time>
      </trkpt>
      <trkpt lat="41.8797930" lon="-2.7793550">
        <ele>1124.3</ele>
        <time>2022-01-30T11:13:02Z</time>
      </trkpt>
      <trkpt lat="41.8797750" lon="-2.7793570">
        <ele>1124.5</ele>
        <time>2022-01-30T11:13:03Z</time>
      </trkpt>
      <trkpt lat="41.8797480" lon="-2.7793680">
        <ele>1124.5</ele>
        <time>2022-01-30T11:13:04Z</time>
      </trkpt>
      <trkpt lat="41.8797220" lon="-2.7793650">
        <ele>1124.5</ele>
        <time>2022-01-30T11:13:05Z</time>
      </trkpt>
      <trkpt lat="41.8796980" lon="-2.7793580">
        <ele>1124.5</ele>
        <time>2022-01-30T11:13:06Z</time>
      </trkpt>
      <trkpt lat="41.8796730" lon="-2.7793500">
        <ele>1124.5</ele>
        <time>2022-01-30T11:13:07Z</time>
      </trkpt>
      <trkpt lat="41.8796500" lon="-2.7793380">
        <ele>1124.6</ele>
        <time>2022-01-30T11:13:08Z</time>
      </trkpt>
      <trkpt lat="41.8796220" lon="-2.7793270">
        <ele>1124.6</ele>
        <time>2022-01-30T11:13:09Z</time>
      </trkpt>
      <trkpt lat="41.8795930" lon="-2.7793150">
        <ele>1124.6</ele>
        <time>2022-01-30T11:13:10Z</time>
      </trkpt>
      <trkpt lat="41.8795620" lon="-2.7793070">
        <ele>1124.6</ele>
        <time>2022-01-30T11:13:11Z</time>
      </trkpt>
      <trkpt lat="41.8795320" lon="-2.7793000">
        <ele>1124.6</ele>
        <time>2022-01-30T11:13:12Z</time>
      </trkpt>
      <trkpt lat="41.8795020" lon="-2.7792920">
        <ele>1124.7</ele>
        <time>2022-01-30T11:13:13Z</time>
      </trkpt>
      <trkpt lat="41.8794720" lon="-2.7792830">
        <ele>1124.7</ele>
        <time>2022-01-30T11:13:14Z</time>
      </trkpt>
      <trkpt lat="41.8794380" lon="-2.7792730">
        <ele>1124.7</ele>
        <time>2022-01-30T11:13:15Z</time>
      </trkpt>
      <trkpt lat="41.8794070" lon="-2.7792620">
        <ele>1124.7</ele>
        <time>2022-01-30T11:13:16Z</time>
      </trkpt>
      <trkpt lat="41.8793730" lon="-2.7792520">
        <ele>1124.7</ele>
        <time>2022-01-30T11:13:17Z</time>
      </trkpt>
      <trkpt lat="41.8793350" lon="-2.7792380">
        <ele>1124.7</ele>
        <time>2022-01-30T11:13:18Z</time>
      </trkpt>
      <trkpt lat="41.8792980" lon="-2.7792230">
        <ele>1124.7</ele>
        <time>2022-01-30T11:13:19Z</time>
      </trkpt>
      <trkpt lat="41.8792630" lon="-2.7792030">
        <ele>1124.4</ele>
        <time>2022-01-30T11:13:20Z</time>
      </trkpt>
      <trkpt lat="41.8792320" lon="-2.7791800">
        <ele>1124.3</ele>
        <time>2022-01-30T11:13:21Z</time>
      </trkpt>
      <trkpt lat="41.8791930" lon="-2.7791570">
        <ele>1124.3</ele>
        <time>2022-01-30T11:13:22Z</time>
      </trkpt>
      <trkpt lat="41.8791600" lon="-2.7791430">
        <ele>1124.3</ele>
        <time>2022-01-30T11:13:23Z</time>
      </trkpt>
      <trkpt lat="41.8791230" lon="-2.7791350">
        <ele>1123.2</ele>
        <time>2022-01-30T11:13:24Z</time>
      </trkpt>
      <trkpt lat="41.8790850" lon="-2.7791280">
        <ele>1123.2</ele>
        <time>2022-01-30T11:13:25Z</time>
      </trkpt>
      <trkpt lat="41.8790580" lon="-2.7791150">
        <ele>1123.2</ele>
        <time>2022-01-30T11:13:26Z</time>
      </trkpt>
      <trkpt lat="41.8790270" lon="-2.7790970">
        <ele>1123.2</ele>
        <time>2022-01-30T11:13:27Z</time>
      </trkpt>
      <trkpt lat="41.8789930" lon="-2.7790720">
        <ele>1121.8</ele>
        <time>2022-01-30T11:13:28Z</time>
      </trkpt>
      <trkpt lat="41.8789580" lon="-2.7790450">
        <ele>1121.8</ele>
        <time>2022-01-30T11:13:29Z</time>
      </trkpt>
      <trkpt lat="41.8789180" lon="-2.7790200">
        <ele>1121.4</ele>
        <time>2022-01-30T11:13:30Z</time>
      </trkpt>
      <trkpt lat="41.8788880" lon="-2.7790080">
        <ele>1119.8</ele>
        <time>2022-01-30T11:13:31Z</time>
      </trkpt>
      <trkpt lat="41.8788370" lon="-2.7789880">
        <ele>1119.8</ele>
        <time>2022-01-30T11:13:32Z</time>
      </trkpt>
      <trkpt lat="41.8788050" lon="-2.7789770">
        <ele>1119.8</ele>
        <time>2022-01-30T11:13:33Z</time>
      </trkpt>
      <trkpt lat="41.8787780" lon="-2.7789530">
        <ele>1119.8</ele>
        <time>2022-01-30T11:13:34Z</time>
      </trkpt>
      <trkpt lat="41.8787550" lon="-2.7789300">
        <ele>1118.5</ele>
        <time>2022-01-30T11:13:35Z</time>
      </trkpt>
      <trkpt lat="41.8787230" lon="-2.7789030">
        <ele>1118.5</ele>
        <time>2022-01-30T11:13:36Z</time>
      </trkpt>
      <trkpt lat="41.8786920" lon="-2.7788750">
        <ele>1118.5</ele>
        <time>2022-01-30T11:13:37Z</time>
      </trkpt>
      <trkpt lat="41.8786620" lon="-2.7788530">
        <ele>1118.5</ele>
        <time>2022-01-30T11:13:38Z</time>
      </trkpt>
      <trkpt lat="41.8786450" lon="-2.7788470">
        <ele>1118.5</ele>
        <time>2022-01-30T11:13:39Z</time>
      </trkpt>
      <trkpt lat="41.8786280" lon="-2.7788420">
        <ele>1117.4</ele>
        <time>2022-01-30T11:13:40Z</time>
      </trkpt>
      <trkpt lat="41.8786150" lon="-2.7788300">
        <ele>1117.4</ele>
        <time>2022-01-30T11:13:41Z</time>
      </trkpt>
      <trkpt lat="41.8785980" lon="-2.7788130">
        <ele>1117.4</ele>
        <time>2022-01-30T11:13:42Z</time>
      </trkpt>
      <trkpt lat="41.8785770" lon="-2.7788000">
        <ele>1117.4</ele>
        <time>2022-01-30T11:13:43Z</time>
      </trkpt>
      <trkpt lat="41.8785580" lon="-2.7788000">
        <ele>1117.4</ele>
        <time>2022-01-30T11:13:44Z</time>
      </trkpt>
      <trkpt lat="41.8785450" lon="-2.7788080">
        <ele>1117.4</ele>
        <time>2022-01-30T11:13:45Z</time>
      </trkpt>
      <trkpt lat="41.8785330" lon="-2.7788170">
        <ele>1117.4</ele>
        <time>2022-01-30T11:13:46Z</time>
      </trkpt>
      <trkpt lat="41.8785220" lon="-2.7788320">
        <ele>1117.4</ele>
        <time>2022-01-30T11:13:47Z</time>
      </trkpt>
      <trkpt lat="41.8785120" lon="-2.7788470">
        <ele>1117.4</ele>
        <time>2022-01-30T11:13:48Z</time>
      </trkpt>
      <trkpt lat="41.8785030" lon="-2.7788650">
        <ele>1116.6</ele>
        <time>2022-01-30T11:13:49Z</time>
      </trkpt>
      <trkpt lat="41.8784880" lon="-2.7788800">
        <ele>1116.6</ele>
        <time>2022-01-30T11:13:50Z</time>
      </trkpt>
      <trkpt lat="41.8784700" lon="-2.7788920">
        <ele>1116.6</ele>
        <time>2022-01-30T11:13:51Z</time>
      </trkpt>
      <trkpt lat="41.8784470" lon="-2.7789000">
        <ele>1116.6</ele>
        <time>2022-01-30T11:13:52Z</time>
      </trkpt>
      <trkpt lat="41.8784200" lon="-2.7789050">
        <ele>1116.6</ele>
        <time>2022-01-30T11:13:53Z</time>
      </trkpt>
      <trkpt lat="41.8783920" lon="-2.7789050">
        <ele>1116.6</ele>
        <time>2022-01-30T11:13:54Z</time>
      </trkpt>
      <trkpt lat="41.8783620" lon="-2.7788950">
        <ele>1116.0</ele>
        <time>2022-01-30T11:13:55Z</time>
      </trkpt>
      <trkpt lat="41.8783330" lon="-2.7788820">
        <ele>1116.0</ele>
        <time>2022-01-30T11:13:56Z</time>
      </trkpt>
      <trkpt lat="41.8783000" lon="-2.7788620">
        <ele>1116.0</ele>
        <time>2022-01-30T11:13:57Z</time>
      </trkpt>
      <trkpt lat="41.8782630" lon="-2.7788420">
        <ele>1115.9</ele>
        <time>2022-01-30T11:13:58Z</time>
      </trkpt>
      <trkpt lat="41.8782150" lon="-2.7788130">
        <ele>1115.2</ele>
        <time>2022-01-30T11:13:59Z</time>
      </trkpt>
      <trkpt lat="41.8781620" lon="-2.7787900">
        <ele>1115.2</ele>
        <time>2022-01-30T11:14:00Z</time>
      </trkpt>
      <trkpt lat="41.8781050" lon="-2.7787670">
        <ele>1114.7</ele>
        <time>2022-01-30T11:14:01Z</time>
      </trkpt>
      <trkpt lat="41.8780470" lon="-2.7787470">
        <ele>1114.7</ele>
        <time>2022-01-30T11:14:02Z</time>
      </trkpt>
      <trkpt lat="41.8779830" lon="-2.7787250">
        <ele>1114.0</ele>
        <time>2022-01-30T11:14:03Z</time>
      </trkpt>
      <trkpt lat="41.8779130" lon="-2.7787070">
        <ele>1114.0</ele>
        <time>2022-01-30T11:14:04Z</time>
      </trkpt>
      <trkpt lat="41.8778430" lon="-2.7786880">
        <ele>1113.2</ele>
        <time>2022-01-30T11:14:05Z</time>
      </trkpt>
      <trkpt lat="41.8777770" lon="-2.7786600">
        <ele>1112.7</ele>
        <time>2022-01-30T11:14:06Z</time>
      </trkpt>
      <trkpt lat="41.8777080" lon="-2.7786220">
        <ele>1111.8</ele>
        <time>2022-01-30T11:14:07Z</time>
      </trkpt>
      <trkpt lat="41.8776370" lon="-2.7785700">
        <ele>1111.8</ele>
        <time>2022-01-30T11:14:08Z</time>
      </trkpt>
      <trkpt lat="41.8775720" lon="-2.7785070">
        <ele>1110.7</ele>
        <time>2022-01-30T11:14:09Z</time>
      </trkpt>
      <trkpt lat="41.8775120" lon="-2.7784320">
        <ele>1110.7</ele>
        <time>2022-01-30T11:14:10Z</time>
      </trkpt>
      <trkpt lat="41.8774530" lon="-2.7783570">
        <ele>1109.9</ele>
        <time>2022-01-30T11:14:11Z</time>
      </trkpt>
      <trkpt lat="41.8773980" lon="-2.7782780">
        <ele>1109.6</ele>
        <time>2022-01-30T11:14:12Z</time>
      </trkpt>
      <trkpt lat="41.8773400" lon="-2.7781930">
        <ele>1108.9</ele>
        <time>2022-01-30T11:14:13Z</time>
      </trkpt>
      <trkpt lat="41.8772750" lon="-2.7781200">
        <ele>1109.0</ele>
        <time>2022-01-30T11:14:14Z</time>
      </trkpt>
      <trkpt lat="41.8772130" lon="-2.7780400">
        <ele>1108.5</ele>
        <time>2022-01-30T11:14:15Z</time>
      </trkpt>
      <trkpt lat="41.8771580" lon="-2.7779530">
        <ele>1109.0</ele>
        <time>2022-01-30T11:14:16Z</time>
      </trkpt>
      <trkpt lat="41.8771020" lon="-2.7778720">
        <ele>1108.3</ele>
        <time>2022-01-30T11:14:17Z</time>
      </trkpt>
      <trkpt lat="41.8770680" lon="-2.7777900">
        <ele>1109.0</ele>
        <time>2022-01-30T11:14:18Z</time>
      </trkpt>
      <trkpt lat="41.8770350" lon="-2.7777050">
        <ele>1109.0</ele>
        <time>2022-01-30T11:14:19Z</time>
      </trkpt>
      <trkpt lat="41.8770120" lon="-2.7776300">
        <ele>1109.8</ele>
        <time>2022-01-30T11:14:20Z</time>
      </trkpt>
      <trkpt lat="41.8769780" lon="-2.7775580">
        <ele>1109.8</ele>
        <time>2022-01-30T11:14:21Z</time>
      </trkpt>
      <trkpt lat="41.8769420" lon="-2.7774950">
        <ele>1108.7</ele>
        <time>2022-01-30T11:14:22Z</time>
      </trkpt>
      <trkpt lat="41.8769070" lon="-2.7774430">
        <ele>1109.4</ele>
        <time>2022-01-30T11:14:23Z</time>
      </trkpt>
      <trkpt lat="41.8768630" lon="-2.7774080">
        <ele>1109.3</ele>
        <time>2022-01-30T11:14:24Z</time>
      </trkpt>
      <trkpt lat="41.8768170" lon="-2.7773670">
        <ele>1108.6</ele>
        <time>2022-01-30T11:14:25Z</time>
      </trkpt>
      <trkpt lat="41.8767670" lon="-2.7773230">
        <ele>1108.6</ele>
        <time>2022-01-30T11:14:26Z</time>
      </trkpt>
      <trkpt lat="41.8767120" lon="-2.7772800">
        <ele>1107.7</ele>
        <time>2022-01-30T11:14:27Z</time>
      </trkpt>
      <trkpt lat="41.8766580" lon="-2.7772420">
        <ele>1107.7</ele>
        <time>2022-01-30T11:14:28Z</time>
      </trkpt>
      <trkpt lat="41.8766100" lon="-2.7772100">
        <ele>1107.7</ele>
        <time>2022-01-30T11:14:29Z</time>
      </trkpt>
      <trkpt lat="41.8765580" lon="-2.7771770">
        <ele>1106.5</ele>
        <time>2022-01-30T11:14:30Z</time>
      </trkpt>
      <trkpt lat="41.8765230" lon="-2.7771370">
        <ele>1105.9</ele>
        <time>2022-01-30T11:14:31Z</time>
      </trkpt>
      <trkpt lat="41.8764820" lon="-2.7771170">
        <ele>1105.9</ele>
        <time>2022-01-30T11:14:32Z</time>
      </trkpt>
      <trkpt lat="41.8764330" lon="-2.7771020">
        <ele>1104.4</ele>
        <time>2022-01-30T11:14:33Z</time>
      </trkpt>
      <trkpt lat="41.8764030" lon="-2.7770920">
        <ele>1104.4</ele>
        <time>2022-01-30T11:14:34Z</time>
      </trkpt>
      <trkpt lat="41.8763620" lon="-2.7770850">
        <ele>1104.4</ele>
        <time>2022-01-30T11:14:35Z</time>
      </trkpt>
      <trkpt lat="41.8763180" lon="-2.7770830">
        <ele>1102.9</ele>
        <time>2022-01-30T11:14:36Z</time>
      </trkpt>
      <trkpt lat="41.8762670" lon="-2.7771070">
        <ele>1102.9</ele>
        <time>2022-01-30T11:14:37Z</time>
      </trkpt>
      <trkpt lat="41.8762270" lon="-2.7771180">
        <ele>1102.9</ele>
        <time>2022-01-30T11:14:38Z</time>
      </trkpt>
      <trkpt lat="41.8761830" lon="-2.7771220">
        <ele>1101.5</ele>
        <time>2022-01-30T11:14:39Z</time>
      </trkpt>
      <trkpt lat="41.8761350" lon="-2.7771250">
        <ele>1101.5</ele>
        <time>2022-01-30T11:14:40Z</time>
      </trkpt>
      <trkpt lat="41.8760870" lon="-2.7771280">
        <ele>1101.5</ele>
        <time>2022-01-30T11:14:41Z</time>
      </trkpt>
      <trkpt lat="41.8760330" lon="-2.7771350">
        <ele>1100.1</ele>
        <time>2022-01-30T11:14:42Z</time>
      </trkpt>
      <trkpt lat="41.8759780" lon="-2.7771420">
        <ele>1100.4</ele>
        <time>2022-01-30T11:14:43Z</time>
      </trkpt>
      <trkpt lat="41.8759200" lon="-2.7771520">
        <ele>1099.1</ele>
        <time>2022-01-30T11:14:44Z</time>
      </trkpt>
      <trkpt lat="41.8758770" lon="-2.7771520">
        <ele>1099.1</ele>
        <time>2022-01-30T11:14:45Z</time>
      </trkpt>
      <trkpt lat="41.8758470" lon="-2.7771570">
        <ele>1099.1</ele>
        <time>2022-01-30T11:14:46Z</time>
      </trkpt>
      <trkpt lat="41.8758230" lon="-2.7771570">
        <ele>1097.8</ele>
        <time>2022-01-30T11:14:47Z</time>
      </trkpt>
      <trkpt lat="41.8758070" lon="-2.7771480">
        <ele>1097.8</ele>
        <time>2022-01-30T11:14:48Z</time>
      </trkpt>
      <trkpt lat="41.8757980" lon="-2.7771300">
        <ele>1098.0</ele>
        <time>2022-01-30T11:14:49Z</time>
      </trkpt>
      <trkpt lat="41.8757780" lon="-2.7771150">
        <ele>1098.0</ele>
        <time>2022-01-30T11:14:50Z</time>
      </trkpt>
      <trkpt lat="41.8757480" lon="-2.7770980">
        <ele>1098.0</ele>
        <time>2022-01-30T11:14:51Z</time>
      </trkpt>
      <trkpt lat="41.8757270" lon="-2.7770920">
        <ele>1098.0</ele>
        <time>2022-01-30T11:14:52Z</time>
      </trkpt>
      <trkpt lat="41.8757050" lon="-2.7770800">
        <ele>1098.0</ele>
        <time>2022-01-30T11:14:53Z</time>
      </trkpt>
      <trkpt lat="41.8756770" lon="-2.7770580">
        <ele>1097.3</ele>
        <time>2022-01-30T11:14:54Z</time>
      </trkpt>
      <trkpt lat="41.8756420" lon="-2.7770420">
        <ele>1097.3</ele>
        <time>2022-01-30T11:14:55Z</time>
      </trkpt>
      <trkpt lat="41.8756130" lon="-2.7770270">
        <ele>1097.3</ele>
        <time>2022-01-30T11:14:56Z</time>
      </trkpt>
      <trkpt lat="41.8755820" lon="-2.7770150">
        <ele>1097.3</ele>
        <time>2022-01-30T11:14:57Z</time>
      </trkpt>
      <trkpt lat="41.8755550" lon="-2.7770030">
        <ele>1096.6</ele>
        <time>2022-01-30T11:14:58Z</time>
      </trkpt>
      <trkpt lat="41.8755280" lon="-2.7769950">
        <ele>1096.6</ele>
        <time>2022-01-30T11:14:59Z</time>
      </trkpt>
      <trkpt lat="41.8754980" lon="-2.7769950">
        <ele>1096.6</ele>
        <time>2022-01-30T11:15:00Z</time>
      </trkpt>
      <trkpt lat="41.8754650" lon="-2.7769980">
        <ele>1096.6</ele>
        <time>2022-01-30T11:15:01Z</time>
      </trkpt>
      <trkpt lat="41.8754330" lon="-2.7770050">
        <ele>1096.1</ele>
        <time>2022-01-30T11:15:02Z</time>
      </trkpt>
      <trkpt lat="41.8753950" lon="-2.7770050">
        <ele>1096.1</ele>
        <time>2022-01-30T11:15:03Z</time>
      </trkpt>
      <trkpt lat="41.8753580" lon="-2.7770100">
        <ele>1096.1</ele>
        <time>2022-01-30T11:15:04Z</time>
      </trkpt>
      <trkpt lat="41.8753180" lon="-2.7770170">
        <ele>1096.1</ele>
        <time>2022-01-30T11:15:05Z</time>
      </trkpt>
      <trkpt lat="41.8752700" lon="-2.7770200">
        <ele>1095.7</ele>
        <time>2022-01-30T11:15:06Z</time>
      </trkpt>
      <trkpt lat="41.8752220" lon="-2.7770220">
        <ele>1095.7</ele>
        <time>2022-01-30T11:15:07Z</time>
      </trkpt>
      <trkpt lat="41.8751730" lon="-2.7770270">
        <ele>1095.4</ele>
        <time>2022-01-30T11:15:08Z</time>
      </trkpt>
      <trkpt lat="41.8751250" lon="-2.7770350">
        <ele>1095.4</ele>
        <time>2022-01-30T11:15:09Z</time>
      </trkpt>
      <trkpt lat="41.8750820" lon="-2.7770430">
        <ele>1095.4</ele>
        <time>2022-01-30T11:15:10Z</time>
      </trkpt>
      <trkpt lat="41.8750350" lon="-2.7770530">
        <ele>1095.3</ele>
        <time>2022-01-30T11:15:11Z</time>
      </trkpt>
      <trkpt lat="41.8749900" lon="-2.7770630">
        <ele>1095.3</ele>
        <time>2022-01-30T11:15:12Z</time>
      </trkpt>
      <trkpt lat="41.8749400" lon="-2.7770780">
        <ele>1095.3</ele>
        <time>2022-01-30T11:15:13Z</time>
      </trkpt>
      <trkpt lat="41.8748920" lon="-2.7770950">
        <ele>1095.2</ele>
        <time>2022-01-30T11:15:14Z</time>
      </trkpt>
      <trkpt lat="41.8748450" lon="-2.7771150">
        <ele>1095.2</ele>
        <time>2022-01-30T11:15:15Z</time>
      </trkpt>
      <trkpt lat="41.8747950" lon="-2.7771320">
        <ele>1095.1</ele>
        <time>2022-01-30T11:15:16Z</time>
      </trkpt>
      <trkpt lat="41.8747480" lon="-2.7771530">
        <ele>1094.6</ele>
        <time>2022-01-30T11:15:17Z</time>
      </trkpt>
      <trkpt lat="41.8747030" lon="-2.7771770">
        <ele>1094.6</ele>
        <time>2022-01-30T11:15:18Z</time>
      </trkpt>
      <trkpt lat="41.8746570" lon="-2.7772050">
        <ele>1094.5</ele>
        <time>2022-01-30T11:15:19Z</time>
      </trkpt>
      <trkpt lat="41.8746100" lon="-2.7772320">
        <ele>1094.5</ele>
        <time>2022-01-30T11:15:20Z</time>
      </trkpt>
      <trkpt lat="41.8745650" lon="-2.7772580">
        <ele>1094.5</ele>
        <time>2022-01-30T11:15:21Z</time>
      </trkpt>
      <trkpt lat="41.8745220" lon="-2.7772820">
        <ele>1094.3</ele>
        <time>2022-01-30T11:15:22Z</time>
      </trkpt>
      <trkpt lat="41.8744780" lon="-2.7773050">
        <ele>1094.3</ele>
        <time>2022-01-30T11:15:23Z</time>
      </trkpt>
      <trkpt lat="41.8744400" lon="-2.7773220">
        <ele>1093.7</ele>
        <time>2022-01-30T11:15:24Z</time>
      </trkpt>
      <trkpt lat="41.8744030" lon="-2.7773450">
        <ele>1093.6</ele>
        <time>2022-01-30T11:15:25Z</time>
      </trkpt>
      <trkpt lat="41.8743720" lon="-2.7773600">
        <ele>1093.6</ele>
        <time>2022-01-30T11:15:26Z</time>
      </trkpt>
      <trkpt lat="41.8743400" lon="-2.7773770">
        <ele>1093.6</ele>
        <time>2022-01-30T11:15:27Z</time>
      </trkpt>
      <trkpt lat="41.8743080" lon="-2.7773980">
        <ele>1093.5</ele>
        <time>2022-01-30T11:15:28Z</time>
      </trkpt>
      <trkpt lat="41.8742720" lon="-2.7774220">
        <ele>1093.5</ele>
        <time>2022-01-30T11:15:29Z</time>
      </trkpt>
      <trkpt lat="41.8742330" lon="-2.7774420">
        <ele>1093.5</ele>
        <time>2022-01-30T11:15:30Z</time>
      </trkpt>
      <trkpt lat="41.8741930" lon="-2.7774630">
        <ele>1093.5</ele>
        <time>2022-01-30T11:15:31Z</time>
      </trkpt>
      <trkpt lat="41.8741570" lon="-2.7774800">
        <ele>1093.9</ele>
        <time>2022-01-30T11:15:32Z</time>
      </trkpt>
      <trkpt lat="41.8741300" lon="-2.7774980">
        <ele>1093.0</ele>
        <time>2022-01-30T11:15:33Z</time>
      </trkpt>
      <trkpt lat="41.8741070" lon="-2.7775150">
        <ele>1093.0</ele>
        <time>2022-01-30T11:15:34Z</time>
      </trkpt>
      <trkpt lat="41.8740870" lon="-2.7775230">
        <ele>1093.0</ele>
        <time>2022-01-30T11:15:35Z</time>
      </trkpt>
      <trkpt lat="41.8740680" lon="-2.7775300">
        <ele>1093.0</ele>
        <time>2022-01-30T11:15:36Z</time>
      </trkpt>
      <trkpt lat="41.8740520" lon="-2.7775320">
        <ele>1093.0</ele>
        <time>2022-01-30T11:15:37Z</time>
      </trkpt>
      <trkpt lat="41.8740380" lon="-2.7775250">
        <ele>1093.0</ele>
        <time>2022-01-30T11:15:38Z</time>
      </trkpt>
      <trkpt lat="41.8740180" lon="-2.7775250">
        <ele>1093.6</ele>
        <time>2022-01-30T11:15:39Z</time>
      </trkpt>
      <trkpt lat="41.8740020" lon="-2.7775170">
        <ele>1093.6</ele>
        <time>2022-01-30T11:15:40Z</time>
      </trkpt>
      <trkpt lat="41.8739930" lon="-2.7775020">
        <ele>1093.6</ele>
        <time>2022-01-30T11:15:41Z</time>
      </trkpt>
      <trkpt lat="41.8739780" lon="-2.7774880">
        <ele>1093.6</ele>
        <time>2022-01-30T11:15:42Z</time>
      </trkpt>
      <trkpt lat="41.8739500" lon="-2.7774720">
        <ele>1094.5</ele>
        <time>2022-01-30T11:15:43Z</time>
      </trkpt>
      <trkpt lat="41.8739180" lon="-2.7774600">
        <ele>1094.5</ele>
        <time>2022-01-30T11:15:44Z</time>
      </trkpt>
      <trkpt lat="41.8738900" lon="-2.7774520">
        <ele>1095.6</ele>
        <time>2022-01-30T11:15:45Z</time>
      </trkpt>
      <trkpt lat="41.8738650" lon="-2.7774570">
        <ele>1095.6</ele>
        <time>2022-01-30T11:15:46Z</time>
      </trkpt>
      <trkpt lat="41.8738370" lon="-2.7774670">
        <ele>1095.6</ele>
        <time>2022-01-30T11:15:47Z</time>
      </trkpt>
      <trkpt lat="41.8738100" lon="-2.7774730">
        <ele>1095.6</ele>
        <time>2022-01-30T11:15:48Z</time>
      </trkpt>
      <trkpt lat="41.8737820" lon="-2.7774850">
        <ele>1094.5</ele>
        <time>2022-01-30T11:15:49Z</time>
      </trkpt>
      <trkpt lat="41.8737570" lon="-2.7774950">
        <ele>1095.5</ele>
        <time>2022-01-30T11:15:50Z</time>
      </trkpt>
      <trkpt lat="41.8737370" lon="-2.7775050">
        <ele>1095.5</ele>
        <time>2022-01-30T11:15:51Z</time>
      </trkpt>
      <trkpt lat="41.8737170" lon="-2.7775170">
        <ele>1095.5</ele>
        <time>2022-01-30T11:15:52Z</time>
      </trkpt>
      <trkpt lat="41.8736970" lon="-2.7775230">
        <ele>1095.5</ele>
        <time>2022-01-30T11:15:53Z</time>
      </trkpt>
      <trkpt lat="41.8736770" lon="-2.7775330">
        <ele>1095.5</ele>
        <time>2022-01-30T11:15:54Z</time>
      </trkpt>
      <trkpt lat="41.8736580" lon="-2.7775480">
        <ele>1095.5</ele>
        <time>2022-01-30T11:15:55Z</time>
      </trkpt>
      <trkpt lat="41.8736470" lon="-2.7775600">
        <ele>1096.5</ele>
        <time>2022-01-30T11:15:56Z</time>
      </trkpt>
      <trkpt lat="41.8736330" lon="-2.7775700">
        <ele>1096.5</ele>
        <time>2022-01-30T11:15:57Z</time>
      </trkpt>
      <trkpt lat="41.8736200" lon="-2.7775780">
        <ele>1096.5</ele>
        <time>2022-01-30T11:15:58Z</time>
      </trkpt>
      <trkpt lat="41.8736080" lon="-2.7775880">
        <ele>1096.5</ele>
        <time>2022-01-30T11:15:59Z</time>
      </trkpt>
      <trkpt lat="41.8735930" lon="-2.7776070">
        <ele>1096.4</ele>
        <time>2022-01-30T11:16:00Z</time>
      </trkpt>
      <trkpt lat="41.8735820" lon="-2.7776230">
        <ele>1096.4</ele>
        <time>2022-01-30T11:16:01Z</time>
      </trkpt>
      <trkpt lat="41.8735680" lon="-2.7776430">
        <ele>1096.4</ele>
        <time>2022-01-30T11:16:02Z</time>
      </trkpt>
      <trkpt lat="41.8735480" lon="-2.7776680">
        <ele>1095.2</ele>
        <time>2022-01-30T11:16:03Z</time>
      </trkpt>
      <trkpt lat="41.8735250" lon="-2.7776980">
        <ele>1095.2</ele>
        <time>2022-01-30T11:16:04Z</time>
      </trkpt>
      <trkpt lat="41.8735000" lon="-2.7777300">
        <ele>1095.6</ele>
        <time>2022-01-30T11:16:05Z</time>
      </trkpt>
      <trkpt lat="41.8734670" lon="-2.7777580">
        <ele>1095.6</ele>
        <time>2022-01-30T11:16:06Z</time>
      </trkpt>
      <trkpt lat="41.8734320" lon="-2.7777870">
        <ele>1095.6</ele>
        <time>2022-01-30T11:16:07Z</time>
      </trkpt>
      <trkpt lat="41.8733930" lon="-2.7778120">
        <ele>1095.9</ele>
        <time>2022-01-30T11:16:08Z</time>
      </trkpt>
      <trkpt lat="41.8733550" lon="-2.7778320">
        <ele>1094.2</ele>
        <time>2022-01-30T11:16:09Z</time>
      </trkpt>
      <trkpt lat="41.8733150" lon="-2.7778450">
        <ele>1094.2</ele>
        <time>2022-01-30T11:16:10Z</time>
      </trkpt>
      <trkpt lat="41.8732770" lon="-2.7778570">
        <ele>1094.2</ele>
        <time>2022-01-30T11:16:11Z</time>
      </trkpt>
      <trkpt lat="41.8732370" lon="-2.7778680">
        <ele>1094.5</ele>
        <time>2022-01-30T11:16:12Z</time>
      </trkpt>
      <trkpt lat="41.8731970" lon="-2.7778780">
        <ele>1094.5</ele>
        <time>2022-01-30T11:16:13Z</time>
      </trkpt>
      <trkpt lat="41.8731600" lon="-2.7778870">
        <ele>1094.5</ele>
        <time>2022-01-30T11:16:14Z</time>
      </trkpt>
      <trkpt lat="41.8731220" lon="-2.7778980">
        <ele>1094.8</ele>
        <time>2022-01-30T11:16:15Z</time>
      </trkpt>
      <trkpt lat="41.8730850" lon="-2.7779220">
        <ele>1094.8</ele>
        <time>2022-01-30T11:16:16Z</time>
      </trkpt>
      <trkpt lat="41.8730480" lon="-2.7779550">
        <ele>1094.8</ele>
        <time>2022-01-30T11:16:17Z</time>
      </trkpt>
      <trkpt lat="41.8730050" lon="-2.7780100">
        <ele>1093.4</ele>
        <time>2022-01-30T11:16:18Z</time>
      </trkpt>
      <trkpt lat="41.8729630" lon="-2.7780580">
        <ele>1093.4</ele>
        <time>2022-01-30T11:16:19Z</time>
      </trkpt>
      <trkpt lat="41.8729170" lon="-2.7781100">
        <ele>1093.4</ele>
        <time>2022-01-30T11:16:20Z</time>
      </trkpt>
      <trkpt lat="41.8728780" lon="-2.7781350">
        <ele>1093.8</ele>
        <time>2022-01-30T11:16:21Z</time>
      </trkpt>
      <trkpt lat="41.8728280" lon="-2.7781700">
        <ele>1092.1</ele>
        <time>2022-01-30T11:16:22Z</time>
      </trkpt>
      <trkpt lat="41.8727750" lon="-2.7782070">
        <ele>1092.1</ele>
        <time>2022-01-30T11:16:23Z</time>
      </trkpt>
      <trkpt lat="41.8727220" lon="-2.7782370">
        <ele>1092.5</ele>
        <time>2022-01-30T11:16:24Z</time>
      </trkpt>
      <trkpt lat="41.8726700" lon="-2.7782700">
        <ele>1092.5</ele>
        <time>2022-01-30T11:16:25Z</time>
      </trkpt>
      <trkpt lat="41.8726220" lon="-2.7783070">
        <ele>1092.9</ele>
        <time>2022-01-30T11:16:26Z</time>
      </trkpt>
      <trkpt lat="41.8725780" lon="-2.7783420">
        <ele>1090.8</ele>
        <time>2022-01-30T11:16:27Z</time>
      </trkpt>
      <trkpt lat="41.8725400" lon="-2.7783730">
        <ele>1090.8</ele>
        <time>2022-01-30T11:16:28Z</time>
      </trkpt>
      <trkpt lat="41.8724980" lon="-2.7784050">
        <ele>1091.2</ele>
        <time>2022-01-30T11:16:29Z</time>
      </trkpt>
      <trkpt lat="41.8724580" lon="-2.7784330">
        <ele>1091.2</ele>
        <time>2022-01-30T11:16:30Z</time>
      </trkpt>
      <trkpt lat="41.8724180" lon="-2.7784600">
        <ele>1091.2</ele>
        <time>2022-01-30T11:16:31Z</time>
      </trkpt>
      <trkpt lat="41.8723750" lon="-2.7784880">
        <ele>1091.2</ele>
        <time>2022-01-30T11:16:32Z</time>
      </trkpt>
      <trkpt lat="41.8723320" lon="-2.7785150">
        <ele>1089.6</ele>
        <time>2022-01-30T11:16:33Z</time>
      </trkpt>
      <trkpt lat="41.8722870" lon="-2.7785350">
        <ele>1089.6</ele>
        <time>2022-01-30T11:16:34Z</time>
      </trkpt>
      <trkpt lat="41.8722450" lon="-2.7785530">
        <ele>1089.8</ele>
        <time>2022-01-30T11:16:35Z</time>
      </trkpt>
      <trkpt lat="41.8722050" lon="-2.7785680">
        <ele>1089.8</ele>
        <time>2022-01-30T11:16:36Z</time>
      </trkpt>
      <trkpt lat="41.8721670" lon="-2.7785820">
        <ele>1089.8</ele>
        <time>2022-01-30T11:16:37Z</time>
      </trkpt>
      <trkpt lat="41.8721270" lon="-2.7785930">
        <ele>1089.8</ele>
        <time>2022-01-30T11:16:38Z</time>
      </trkpt>
      <trkpt lat="41.8720900" lon="-2.7786000">
        <ele>1090.4</ele>
        <time>2022-01-30T11:16:39Z</time>
      </trkpt>
      <trkpt lat="41.8720550" lon="-2.7786050">
        <ele>1090.4</ele>
        <time>2022-01-30T11:16:40Z</time>
      </trkpt>
      <trkpt lat="41.8720180" lon="-2.7786080">
        <ele>1090.4</ele>
        <time>2022-01-30T11:16:41Z</time>
      </trkpt>
      <trkpt lat="41.8719800" lon="-2.7786120">
        <ele>1091.4</ele>
        <time>2022-01-30T11:16:42Z</time>
      </trkpt>
      <trkpt lat="41.8719380" lon="-2.7786170">
        <ele>1091.4</ele>
        <time>2022-01-30T11:16:43Z</time>
      </trkpt>
      <trkpt lat="41.8719000" lon="-2.7786170">
        <ele>1091.4</ele>
        <time>2022-01-30T11:16:44Z</time>
      </trkpt>
      <trkpt lat="41.8718630" lon="-2.7786170">
        <ele>1091.4</ele>
        <time>2022-01-30T11:16:45Z</time>
      </trkpt>
      <trkpt lat="41.8718250" lon="-2.7786170">
        <ele>1092.6</ele>
        <time>2022-01-30T11:16:46Z</time>
      </trkpt>
      <trkpt lat="41.8717850" lon="-2.7786220">
        <ele>1092.6</ele>
        <time>2022-01-30T11:16:47Z</time>
      </trkpt>
      <trkpt lat="41.8717450" lon="-2.7786280">
        <ele>1092.6</ele>
        <time>2022-01-30T11:16:48Z</time>
      </trkpt>
      <trkpt lat="41.8717070" lon="-2.7786300">
        <ele>1093.7</ele>
        <time>2022-01-30T11:16:49Z</time>
      </trkpt>
      <trkpt lat="41.8716670" lon="-2.7786270">
        <ele>1093.7</ele>
        <time>2022-01-30T11:16:50Z</time>
      </trkpt>
      <trkpt lat="41.8716270" lon="-2.7786250">
        <ele>1093.7</ele>
        <time>2022-01-30T11:16:51Z</time>
      </trkpt>
      <trkpt lat="41.8715880" lon="-2.7786200">
        <ele>1094.6</ele>
        <time>2022-01-30T11:16:52Z</time>
      </trkpt>
      <trkpt lat="41.8715480" lon="-2.7786120">
        <ele>1094.6</ele>
        <time>2022-01-30T11:16:53Z</time>
      </trkpt>
      <trkpt lat="41.8715120" lon="-2.7785980">
        <ele>1094.6</ele>
        <time>2022-01-30T11:16:54Z</time>
      </trkpt>
      <trkpt lat="41.8714750" lon="-2.7785850">
        <ele>1095.1</ele>
        <time>2022-01-30T11:16:55Z</time>
      </trkpt>
      <trkpt lat="41.8714380" lon="-2.7785670">
        <ele>1095.1</ele>
        <time>2022-01-30T11:16:56Z</time>
      </trkpt>
      <trkpt lat="41.8714070" lon="-2.7785480">
        <ele>1095.1</ele>
        <time>2022-01-30T11:16:57Z</time>
      </trkpt>
      <trkpt lat="41.8713730" lon="-2.7785380">
        <ele>1095.1</ele>
        <time>2022-01-30T11:16:58Z</time>
      </trkpt>
      <trkpt lat="41.8713400" lon="-2.7785320">
        <ele>1095.4</ele>
        <time>2022-01-30T11:16:59Z</time>
      </trkpt>
      <trkpt lat="41.8713080" lon="-2.7785320">
        <ele>1095.4</ele>
        <time>2022-01-30T11:17:00Z</time>
      </trkpt>
      <trkpt lat="41.8712780" lon="-2.7785320">
        <ele>1095.4</ele>
        <time>2022-01-30T11:17:01Z</time>
      </trkpt>
      <trkpt lat="41.8712480" lon="-2.7785320">
        <ele>1095.4</ele>
        <time>2022-01-30T11:17:02Z</time>
      </trkpt>
      <trkpt lat="41.8712180" lon="-2.7785280">
        <ele>1095.5</ele>
        <time>2022-01-30T11:17:03Z</time>
      </trkpt>
      <trkpt lat="41.8711880" lon="-2.7785270">
        <ele>1095.5</ele>
        <time>2022-01-30T11:17:04Z</time>
      </trkpt>
      <trkpt lat="41.8711550" lon="-2.7785230">
        <ele>1095.5</ele>
        <time>2022-01-30T11:17:05Z</time>
      </trkpt>
      <trkpt lat="41.8711220" lon="-2.7785250">
        <ele>1095.5</ele>
        <time>2022-01-30T11:17:06Z</time>
      </trkpt>
      <trkpt lat="41.8710870" lon="-2.7785320">
        <ele>1095.6</ele>
        <time>2022-01-30T11:17:07Z</time>
      </trkpt>
      <trkpt lat="41.8710530" lon="-2.7785400">
        <ele>1095.6</ele>
        <time>2022-01-30T11:17:08Z</time>
      </trkpt>
      <trkpt lat="41.8710200" lon="-2.7785500">
        <ele>1095.6</ele>
        <time>2022-01-30T11:17:09Z</time>
      </trkpt>
      <trkpt lat="41.8709880" lon="-2.7785580">
        <ele>1095.6</ele>
        <time>2022-01-30T11:17:10Z</time>
      </trkpt>
      <trkpt lat="41.8709500" lon="-2.7785580">
        <ele>1095.5</ele>
        <time>2022-01-30T11:17:11Z</time>
      </trkpt>
      <trkpt lat="41.8709250" lon="-2.7785570">
        <ele>1095.5</ele>
        <time>2022-01-30T11:17:12Z</time>
      </trkpt>
      <trkpt lat="41.8708930" lon="-2.7785570">
        <ele>1095.5</ele>
        <time>2022-01-30T11:17:13Z</time>
      </trkpt>
      <trkpt lat="41.8708620" lon="-2.7785530">
        <ele>1095.5</ele>
        <time>2022-01-30T11:17:14Z</time>
      </trkpt>
      <trkpt lat="41.8708220" lon="-2.7785500">
        <ele>1095.2</ele>
        <time>2022-01-30T11:17:15Z</time>
      </trkpt>
      <trkpt lat="41.8707780" lon="-2.7785520">
        <ele>1095.2</ele>
        <time>2022-01-30T11:17:16Z</time>
      </trkpt>
      <trkpt lat="41.8707500" lon="-2.7785520">
        <ele>1095.2</ele>
        <time>2022-01-30T11:17:17Z</time>
      </trkpt>
      <trkpt lat="41.8707150" lon="-2.7785520">
        <ele>1095.2</ele>
        <time>2022-01-30T11:17:18Z</time>
      </trkpt>
      <trkpt lat="41.8706820" lon="-2.7785520">
        <ele>1094.9</ele>
        <time>2022-01-30T11:17:19Z</time>
      </trkpt>
      <trkpt lat="41.8706450" lon="-2.7785370">
        <ele>1094.9</ele>
        <time>2022-01-30T11:17:20Z</time>
      </trkpt>
      <trkpt lat="41.8706120" lon="-2.7785180">
        <ele>1094.9</ele>
        <time>2022-01-30T11:17:21Z</time>
      </trkpt>
      <trkpt lat="41.8705800" lon="-2.7785100">
        <ele>1096.6</ele>
        <time>2022-01-30T11:17:22Z</time>
      </trkpt>
      <trkpt lat="41.8705450" lon="-2.7784980">
        <ele>1096.6</ele>
        <time>2022-01-30T11:17:23Z</time>
      </trkpt>
      <trkpt lat="41.8705130" lon="-2.7784950">
        <ele>1096.6</ele>
        <time>2022-01-30T11:17:24Z</time>
      </trkpt>
      <trkpt lat="41.8704830" lon="-2.7784870">
        <ele>1096.6</ele>
        <time>2022-01-30T11:17:25Z</time>
      </trkpt>
      <trkpt lat="41.8704530" lon="-2.7784770">
        <ele>1096.4</ele>
        <time>2022-01-30T11:17:26Z</time>
      </trkpt>
      <trkpt lat="41.8704250" lon="-2.7784600">
        <ele>1096.4</ele>
        <time>2022-01-30T11:17:27Z</time>
      </trkpt>
      <trkpt lat="41.8703970" lon="-2.7784480">
        <ele>1096.4</ele>
        <time>2022-01-30T11:17:28Z</time>
      </trkpt>
      <trkpt lat="41.8703700" lon="-2.7784400">
        <ele>1096.4</ele>
        <time>2022-01-30T11:17:29Z</time>
      </trkpt>
      <trkpt lat="41.8703400" lon="-2.7784300">
        <ele>1096.4</ele>
        <time>2022-01-30T11:17:30Z</time>
      </trkpt>
      <trkpt lat="41.8703120" lon="-2.7784230">
        <ele>1096.1</ele>
        <time>2022-01-30T11:17:31Z</time>
      </trkpt>
      <trkpt lat="41.8702900" lon="-2.7784150">
        <ele>1096.1</ele>
        <time>2022-01-30T11:17:32Z</time>
      </trkpt>
      <trkpt lat="41.8702700" lon="-2.7784150">
        <ele>1096.1</ele>
        <time>2022-01-30T11:17:33Z</time>
      </trkpt>
      <trkpt lat="41.8702500" lon="-2.7784170">
        <ele>1096.1</ele>
        <time>2022-01-30T11:17:34Z</time>
      </trkpt>
      <trkpt lat="41.8702250" lon="-2.7784130">
        <ele>1096.1</ele>
        <time>2022-01-30T11:17:35Z</time>
      </trkpt>
      <trkpt lat="41.8701980" lon="-2.7784080">
        <ele>1095.7</ele>
        <time>2022-01-30T11:17:36Z</time>
      </trkpt>
      <trkpt lat="41.8701680" lon="-2.7784030">
        <ele>1095.7</ele>
        <time>2022-01-30T11:17:37Z</time>
      </trkpt>
      <trkpt lat="41.8701380" lon="-2.7783970">
        <ele>1095.7</ele>
        <time>2022-01-30T11:17:38Z</time>
      </trkpt>
      <trkpt lat="41.8701100" lon="-2.7783920">
        <ele>1095.7</ele>
        <time>2022-01-30T11:17:39Z</time>
      </trkpt>
      <trkpt lat="41.8700720" lon="-2.7783930">
        <ele>1095.2</ele>
        <time>2022-01-30T11:17:40Z</time>
      </trkpt>
      <trkpt lat="41.8700380" lon="-2.7783870">
        <ele>1095.2</ele>
        <time>2022-01-30T11:17:41Z</time>
      </trkpt>
      <trkpt lat="41.8700020" lon="-2.7783670">
        <ele>1095.2</ele>
        <time>2022-01-30T11:17:42Z</time>
      </trkpt>
      <trkpt lat="41.8699670" lon="-2.7783500">
        <ele>1095.2</ele>
        <time>2022-01-30T11:17:43Z</time>
      </trkpt>
      <trkpt lat="41.8699280" lon="-2.7783330">
        <ele>1096.2</ele>
        <time>2022-01-30T11:17:44Z</time>
      </trkpt>
      <trkpt lat="41.8699080" lon="-2.7783170">
        <ele>1096.2</ele>
        <time>2022-01-30T11:17:45Z</time>
      </trkpt>
      <trkpt lat="41.8698850" lon="-2.7782980">
        <ele>1096.2</ele>
        <time>2022-01-30T11:17:46Z</time>
      </trkpt>
      <trkpt lat="41.8698650" lon="-2.7782730">
        <ele>1096.2</ele>
        <time>2022-01-30T11:17:47Z</time>
      </trkpt>
      <trkpt lat="41.8698400" lon="-2.7782450">
        <ele>1096.2</ele>
        <time>2022-01-30T11:17:48Z</time>
      </trkpt>
      <trkpt lat="41.8698150" lon="-2.7782150">
        <ele>1096.4</ele>
        <time>2022-01-30T11:17:49Z</time>
      </trkpt>
      <trkpt lat="41.8697920" lon="-2.7781820">
        <ele>1096.4</ele>
        <time>2022-01-30T11:17:50Z</time>
      </trkpt>
      <trkpt lat="41.8697820" lon="-2.7781520">
        <ele>1097.8</ele>
        <time>2022-01-30T11:17:51Z</time>
      </trkpt>
      <trkpt lat="41.8697720" lon="-2.7781230">
        <ele>1097.8</ele>
        <time>2022-01-30T11:17:52Z</time>
      </trkpt>
      <trkpt lat="41.8697600" lon="-2.7780920">
        <ele>1097.8</ele>
        <time>2022-01-30T11:17:53Z</time>
      </trkpt>
      <trkpt lat="41.8697520" lon="-2.7780700">
        <ele>1097.8</ele>
        <time>2022-01-30T11:17:54Z</time>
      </trkpt>
      <trkpt lat="41.8697400" lon="-2.7780480">
        <ele>1097.8</ele>
        <time>2022-01-30T11:17:55Z</time>
      </trkpt>
      <trkpt lat="41.8697330" lon="-2.7780130">
        <ele>1097.8</ele>
        <time>2022-01-30T11:17:56Z</time>
      </trkpt>
      <trkpt lat="41.8697300" lon="-2.7779770">
        <ele>1099.5</ele>
        <time>2022-01-30T11:17:57Z</time>
      </trkpt>
      <trkpt lat="41.8697180" lon="-2.7779330">
        <ele>1099.5</ele>
        <time>2022-01-30T11:17:58Z</time>
      </trkpt>
      <trkpt lat="41.8697100" lon="-2.7779030">
        <ele>1099.5</ele>
        <time>2022-01-30T11:17:59Z</time>
      </trkpt>
      <trkpt lat="41.8697000" lon="-2.7778820">
        <ele>1099.5</ele>
        <time>2022-01-30T11:18:00Z</time>
      </trkpt>
      <trkpt lat="41.8696900" lon="-2.7778580">
        <ele>1099.5</ele>
        <time>2022-01-30T11:18:01Z</time>
      </trkpt>
      <trkpt lat="41.8696800" lon="-2.7778350">
        <ele>1099.9</ele>
        <time>2022-01-30T11:18:02Z</time>
      </trkpt>
      <trkpt lat="41.8696700" lon="-2.7778130">
        <ele>1101.5</ele>
        <time>2022-01-30T11:18:03Z</time>
      </trkpt>
      <trkpt lat="41.8696580" lon="-2.7777870">
        <ele>1101.5</ele>
        <time>2022-01-30T11:18:04Z</time>
      </trkpt>
      <trkpt lat="41.8696450" lon="-2.7777630">
        <ele>1101.5</ele>
        <time>2022-01-30T11:18:05Z</time>
      </trkpt>
      <trkpt lat="41.8696300" lon="-2.7777420">
        <ele>1101.5</ele>
        <time>2022-01-30T11:18:06Z</time>
      </trkpt>
      <trkpt lat="41.8696150" lon="-2.7777250">
        <ele>1101.5</ele>
        <time>2022-01-30T11:18:07Z</time>
      </trkpt>
      <trkpt lat="41.8695980" lon="-2.7777120">
        <ele>1101.5</ele>
        <time>2022-01-30T11:18:08Z</time>
      </trkpt>
      <trkpt lat="41.8695780" lon="-2.7776930">
        <ele>1101.5</ele>
        <time>2022-01-30T11:18:09Z</time>
      </trkpt>
      <trkpt lat="41.8695570" lon="-2.7776720">
        <ele>1102.7</ele>
        <time>2022-01-30T11:18:10Z</time>
      </trkpt>
      <trkpt lat="41.8695370" lon="-2.7776500">
        <ele>1104.5</ele>
        <time>2022-01-30T11:18:11Z</time>
      </trkpt>
      <trkpt lat="41.8695150" lon="-2.7776150">
        <ele>1104.5</ele>
        <time>2022-01-30T11:18:12Z</time>
      </trkpt>
      <trkpt lat="41.8694920" lon="-2.7775880">
        <ele>1104.5</ele>
        <time>2022-01-30T11:18:13Z</time>
      </trkpt>
      <trkpt lat="41.8694670" lon="-2.7775670">
        <ele>1104.5</ele>
        <time>2022-01-30T11:18:14Z</time>
      </trkpt>
      <trkpt lat="41.8694430" lon="-2.7775350">
        <ele>1104.5</ele>
        <time>2022-01-30T11:18:15Z</time>
      </trkpt>
      <trkpt lat="41.8694270" lon="-2.7775120">
        <ele>1106.3</ele>
        <time>2022-01-30T11:18:16Z</time>
      </trkpt>
      <trkpt lat="41.8694070" lon="-2.7774750">
        <ele>1107.9</ele>
        <time>2022-01-30T11:18:17Z</time>
      </trkpt>
      <trkpt lat="41.8693950" lon="-2.7774550">
        <ele>1107.9</ele>
        <time>2022-01-30T11:18:18Z</time>
      </trkpt>
      <trkpt lat="41.8693830" lon="-2.7774230">
        <ele>1107.9</ele>
        <time>2022-01-30T11:18:19Z</time>
      </trkpt>
      <trkpt lat="41.8693700" lon="-2.7773870">
        <ele>1107.9</ele>
        <time>2022-01-30T11:18:20Z</time>
      </trkpt>
      <trkpt lat="41.8693530" lon="-2.7773520">
        <ele>1107.9</ele>
        <time>2022-01-30T11:18:21Z</time>
      </trkpt>
      <trkpt lat="41.8693420" lon="-2.7773280">
        <ele>1107.9</ele>
        <time>2022-01-30T11:18:22Z</time>
      </trkpt>
      <trkpt lat="41.8693270" lon="-2.7773000">
        <ele>1109.5</ele>
        <time>2022-01-30T11:18:23Z</time>
      </trkpt>
      <trkpt lat="41.8693150" lon="-2.7772720">
        <ele>1109.5</ele>
        <time>2022-01-30T11:18:24Z</time>
      </trkpt>
      <trkpt lat="41.8693070" lon="-2.7772430">
        <ele>1109.5</ele>
        <time>2022-01-30T11:18:25Z</time>
      </trkpt>
      <trkpt lat="41.8692980" lon="-2.7772130">
        <ele>1110.1</ele>
        <time>2022-01-30T11:18:26Z</time>
      </trkpt>
      <trkpt lat="41.8692920" lon="-2.7771850">
        <ele>1110.1</ele>
        <time>2022-01-30T11:18:27Z</time>
      </trkpt>
      <trkpt lat="41.8692850" lon="-2.7771550">
        <ele>1110.1</ele>
        <time>2022-01-30T11:18:28Z</time>
      </trkpt>
      <trkpt lat="41.8692770" lon="-2.7771270">
        <ele>1111.3</ele>
        <time>2022-01-30T11:18:29Z</time>
      </trkpt>
      <trkpt lat="41.8692730" lon="-2.7771020">
        <ele>1111.3</ele>
        <time>2022-01-30T11:18:30Z</time>
      </trkpt>
      <trkpt lat="41.8692720" lon="-2.7770750">
        <ele>1111.3</ele>
        <time>2022-01-30T11:18:31Z</time>
      </trkpt>
      <trkpt lat="41.8692680" lon="-2.7770470">
        <ele>1111.3</ele>
        <time>2022-01-30T11:18:32Z</time>
      </trkpt>
      <trkpt lat="41.8692630" lon="-2.7770200">
        <ele>1111.3</ele>
        <time>2022-01-30T11:18:33Z</time>
      </trkpt>
      <trkpt lat="41.8692580" lon="-2.7769920">
        <ele>1111.3</ele>
        <time>2022-01-30T11:18:34Z</time>
      </trkpt>
      <trkpt lat="41.8692500" lon="-2.7769670">
        <ele>1111.4</ele>
        <time>2022-01-30T11:18:35Z</time>
      </trkpt>
      <trkpt lat="41.8692380" lon="-2.7769430">
        <ele>1111.6</ele>
        <time>2022-01-30T11:18:36Z</time>
      </trkpt>
      <trkpt lat="41.8692220" lon="-2.7769250">
        <ele>1111.8</ele>
        <time>2022-01-30T11:18:37Z</time>
      </trkpt>
      <trkpt lat="41.8692000" lon="-2.7769080">
        <ele>1111.9</ele>
        <time>2022-01-30T11:18:38Z</time>
      </trkpt>
      <trkpt lat="41.8691780" lon="-2.7769000">
        <ele>1112.1</ele>
        <time>2022-01-30T11:18:39Z</time>
      </trkpt>
      <trkpt lat="41.8691550" lon="-2.7768980">
        <ele>1112.2</ele>
        <time>2022-01-30T11:18:40Z</time>
      </trkpt>
      <trkpt lat="41.8691320" lon="-2.7768980">
        <ele>1112.4</ele>
        <time>2022-01-30T11:18:41Z</time>
      </trkpt>
      <trkpt lat="41.8691070" lon="-2.7769050">
        <ele>1112.5</ele>
        <time>2022-01-30T11:18:42Z</time>
      </trkpt>
      <trkpt lat="41.8690800" lon="-2.7769250">
        <ele>1112.7</ele>
        <time>2022-01-30T11:18:43Z</time>
      </trkpt>
      <trkpt lat="41.8690480" lon="-2.7769430">
        <ele>1112.8</ele>
        <time>2022-01-30T11:18:44Z</time>
      </trkpt>
      <trkpt lat="41.8690150" lon="-2.7769630">
        <ele>1113.0</ele>
        <time>2022-01-30T11:18:45Z</time>
      </trkpt>
      <trkpt lat="41.8689830" lon="-2.7769830">
        <ele>1113.1</ele>
        <time>2022-01-30T11:18:46Z</time>
      </trkpt>
      <trkpt lat="41.8689480" lon="-2.7770030">
        <ele>1113.3</ele>
        <time>2022-01-30T11:18:47Z</time>
      </trkpt>
      <trkpt lat="41.8689100" lon="-2.7770300">
        <ele>1113.7</ele>
        <time>2022-01-30T11:18:48Z</time>
      </trkpt>
      <trkpt lat="41.8688800" lon="-2.7770470">
        <ele>1114.0</ele>
        <time>2022-01-30T11:18:49Z</time>
      </trkpt>
      <trkpt lat="41.8688500" lon="-2.7770550">
        <ele>1114.4</ele>
        <time>2022-01-30T11:18:50Z</time>
      </trkpt>
      <trkpt lat="41.8688200" lon="-2.7770580">
        <ele>1114.7</ele>
        <time>2022-01-30T11:18:51Z</time>
      </trkpt>
      <trkpt lat="41.8687920" lon="-2.7770550">
        <ele>1115.0</ele>
        <time>2022-01-30T11:18:52Z</time>
      </trkpt>
      <trkpt lat="41.8687650" lon="-2.7770480">
        <ele>1115.3</ele>
        <time>2022-01-30T11:18:53Z</time>
      </trkpt>
      <trkpt lat="41.8687280" lon="-2.7770370">
        <ele>1115.8</ele>
        <time>2022-01-30T11:18:54Z</time>
      </trkpt>
      <trkpt lat="41.8687030" lon="-2.7770250">
        <ele>1116.1</ele>
        <time>2022-01-30T11:18:55Z</time>
      </trkpt>
      <trkpt lat="41.8686750" lon="-2.7770100">
        <ele>1116.5</ele>
        <time>2022-01-30T11:18:56Z</time>
      </trkpt>
      <trkpt lat="41.8686400" lon="-2.7769950">
        <ele>1116.9</ele>
        <time>2022-01-30T11:18:57Z</time>
      </trkpt>
      <trkpt lat="41.8686170" lon="-2.7769850">
        <ele>1117.2</ele>
        <time>2022-01-30T11:18:58Z</time>
      </trkpt>
      <trkpt lat="41.8685850" lon="-2.7769750">
        <ele>1117.7</ele>
        <time>2022-01-30T11:18:59Z</time>
      </trkpt>
      <trkpt lat="41.8685550" lon="-2.7769620">
        <ele>1118.0</ele>
        <time>2022-01-30T11:19:00Z</time>
      </trkpt>
      <trkpt lat="41.8685280" lon="-2.7769470">
        <ele>1118.4</ele>
        <time>2022-01-30T11:19:01Z</time>
      </trkpt>
      <trkpt lat="41.8685030" lon="-2.7769300">
        <ele>1118.7</ele>
        <time>2022-01-30T11:19:02Z</time>
      </trkpt>
      <trkpt lat="41.8684800" lon="-2.7769150">
        <ele>1119.0</ele>
        <time>2022-01-30T11:19:03Z</time>
      </trkpt>
      <trkpt lat="41.8684600" lon="-2.7768930">
        <ele>1119.2</ele>
        <time>2022-01-30T11:19:04Z</time>
      </trkpt>
      <trkpt lat="41.8684380" lon="-2.7768730">
        <ele>1119.5</ele>
        <time>2022-01-30T11:19:05Z</time>
      </trkpt>
      <trkpt lat="41.8684150" lon="-2.7768530">
        <ele>1119.7</ele>
        <time>2022-01-30T11:19:06Z</time>
      </trkpt>
      <trkpt lat="41.8683920" lon="-2.7768320">
        <ele>1119.9</ele>
        <time>2022-01-30T11:19:07Z</time>
      </trkpt>
      <trkpt lat="41.8683670" lon="-2.7768050">
        <ele>1120.1</ele>
        <time>2022-01-30T11:19:08Z</time>
      </trkpt>
      <trkpt lat="41.8683470" lon="-2.7767750">
        <ele>1120.3</ele>
        <time>2022-01-30T11:19:09Z</time>
      </trkpt>
      <trkpt lat="41.8683230" lon="-2.7767420">
        <ele>1120.6</ele>
        <time>2022-01-30T11:19:10Z</time>
      </trkpt>
      <trkpt lat="41.8683050" lon="-2.7767120">
        <ele>1120.7</ele>
        <time>2022-01-30T11:19:11Z</time>
      </trkpt>
      <trkpt lat="41.8682870" lon="-2.7766820">
        <ele>1120.9</ele>
        <time>2022-01-30T11:19:12Z</time>
      </trkpt>
      <trkpt lat="41.8682680" lon="-2.7766530">
        <ele>1121.1</ele>
        <time>2022-01-30T11:19:13Z</time>
      </trkpt>
      <trkpt lat="41.8682450" lon="-2.7766280">
        <ele>1121.2</ele>
        <time>2022-01-30T11:19:14Z</time>
      </trkpt>
      <trkpt lat="41.8682270" lon="-2.7766020">
        <ele>1121.3</ele>
        <time>2022-01-30T11:19:15Z</time>
      </trkpt>
      <trkpt lat="41.8682120" lon="-2.7765770">
        <ele>1121.4</ele>
        <time>2022-01-30T11:19:16Z</time>
      </trkpt>
      <trkpt lat="41.8681970" lon="-2.7765530">
        <ele>1121.5</ele>
        <time>2022-01-30T11:19:17Z</time>
      </trkpt>
      <trkpt lat="41.8681820" lon="-2.7765250">
        <ele>1121.6</ele>
        <time>2022-01-30T11:19:18Z</time>
      </trkpt>
      <trkpt lat="41.8681630" lon="-2.7765020">
        <ele>1121.7</ele>
        <time>2022-01-30T11:19:19Z</time>
      </trkpt>
      <trkpt lat="41.8681450" lon="-2.7764800">
        <ele>1121.8</ele>
        <time>2022-01-30T11:19:20Z</time>
      </trkpt>
      <trkpt lat="41.8681230" lon="-2.7764600">
        <ele>1121.8</ele>
        <time>2022-01-30T11:19:21Z</time>
      </trkpt>
      <trkpt lat="41.8681030" lon="-2.7764420">
        <ele>1121.9</ele>
        <time>2022-01-30T11:19:22Z</time>
      </trkpt>
      <trkpt lat="41.8680820" lon="-2.7764250">
        <ele>1121.9</ele>
        <time>2022-01-30T11:19:23Z</time>
      </trkpt>
      <trkpt lat="41.8680600" lon="-2.7764080">
        <ele>1121.9</ele>
        <time>2022-01-30T11:19:24Z</time>
      </trkpt>
      <trkpt lat="41.8680370" lon="-2.7763880">
        <ele>1121.9</ele>
        <time>2022-01-30T11:19:25Z</time>
      </trkpt>
      <trkpt lat="41.8680180" lon="-2.7763630">
        <ele>1121.9</ele>
        <time>2022-01-30T11:19:26Z</time>
      </trkpt>
      <trkpt lat="41.8679970" lon="-2.7763380">
        <ele>1121.8</ele>
        <time>2022-01-30T11:19:27Z</time>
      </trkpt>
      <trkpt lat="41.8679720" lon="-2.7763130">
        <ele>1121.6</ele>
        <time>2022-01-30T11:19:28Z</time>
      </trkpt>
      <trkpt lat="41.8679530" lon="-2.7762850">
        <ele>1121.3</ele>
        <time>2022-01-30T11:19:29Z</time>
      </trkpt>
      <trkpt lat="41.8679330" lon="-2.7762580">
        <ele>1120.9</ele>
        <time>2022-01-30T11:19:30Z</time>
      </trkpt>
      <trkpt lat="41.8679170" lon="-2.7762320">
        <ele>1120.6</ele>
        <time>2022-01-30T11:19:31Z</time>
      </trkpt>
      <trkpt lat="41.8678980" lon="-2.7762070">
        <ele>1120.2</ele>
        <time>2022-01-30T11:19:32Z</time>
      </trkpt>
      <trkpt lat="41.8678800" lon="-2.7761850">
        <ele>1120.0</ele>
        <time>2022-01-30T11:19:33Z</time>
      </trkpt>
      <trkpt lat="41.8678650" lon="-2.7761650">
        <ele>1119.8</ele>
        <time>2022-01-30T11:19:34Z</time>
      </trkpt>
      <trkpt lat="41.8678480" lon="-2.7761480">
        <ele>1119.7</ele>
        <time>2022-01-30T11:19:35Z</time>
      </trkpt>
      <trkpt lat="41.8678320" lon="-2.7761320">
        <ele>1119.6</ele>
        <time>2022-01-30T11:19:36Z</time>
      </trkpt>
      <trkpt lat="41.8678150" lon="-2.7761100">
        <ele>1119.5</ele>
        <time>2022-01-30T11:19:37Z</time>
      </trkpt>
      <trkpt lat="41.8677950" lon="-2.7760900">
        <ele>1119.5</ele>
        <time>2022-01-30T11:19:38Z</time>
      </trkpt>
      <trkpt lat="41.8677770" lon="-2.7760670">
        <ele>1119.4</ele>
        <time>2022-01-30T11:19:39Z</time>
      </trkpt>
      <trkpt lat="41.8677550" lon="-2.7760470">
        <ele>1119.5</ele>
        <time>2022-01-30T11:19:40Z</time>
      </trkpt>
      <trkpt lat="41.8677320" lon="-2.7760280">
        <ele>1119.5</ele>
        <time>2022-01-30T11:19:41Z</time>
      </trkpt>
      <trkpt lat="41.8677080" lon="-2.7760070">
        <ele>1119.5</ele>
        <time>2022-01-30T11:19:42Z</time>
      </trkpt>
      <trkpt lat="41.8676850" lon="-2.7759820">
        <ele>1119.6</ele>
        <time>2022-01-30T11:19:43Z</time>
      </trkpt>
      <trkpt lat="41.8676600" lon="-2.7759580">
        <ele>1119.7</ele>
        <time>2022-01-30T11:19:44Z</time>
      </trkpt>
      <trkpt lat="41.8676350" lon="-2.7759330">
        <ele>1119.8</ele>
        <time>2022-01-30T11:19:45Z</time>
      </trkpt>
      <trkpt lat="41.8676130" lon="-2.7759070">
        <ele>1119.9</ele>
        <time>2022-01-30T11:19:46Z</time>
      </trkpt>
      <trkpt lat="41.8675930" lon="-2.7758800">
        <ele>1120.0</ele>
        <time>2022-01-30T11:19:47Z</time>
      </trkpt>
      <trkpt lat="41.8675680" lon="-2.7758520">
        <ele>1120.2</ele>
        <time>2022-01-30T11:19:48Z</time>
      </trkpt>
      <trkpt lat="41.8675450" lon="-2.7758250">
        <ele>1120.4</ele>
        <time>2022-01-30T11:19:49Z</time>
      </trkpt>
      <trkpt lat="41.8675220" lon="-2.7757980">
        <ele>1120.6</ele>
        <time>2022-01-30T11:19:50Z</time>
      </trkpt>
      <trkpt lat="41.8675000" lon="-2.7757680">
        <ele>1120.8</ele>
        <time>2022-01-30T11:19:51Z</time>
      </trkpt>
      <trkpt lat="41.8674730" lon="-2.7757400">
        <ele>1121.0</ele>
        <time>2022-01-30T11:19:52Z</time>
      </trkpt>
      <trkpt lat="41.8674450" lon="-2.7757130">
        <ele>1121.2</ele>
        <time>2022-01-30T11:19:53Z</time>
      </trkpt>
      <trkpt lat="41.8674180" lon="-2.7756870">
        <ele>1121.4</ele>
        <time>2022-01-30T11:19:54Z</time>
      </trkpt>
      <trkpt lat="41.8673880" lon="-2.7756620">
        <ele>1121.5</ele>
        <time>2022-01-30T11:19:55Z</time>
      </trkpt>
      <trkpt lat="41.8673600" lon="-2.7756370">
        <ele>1121.7</ele>
        <time>2022-01-30T11:19:56Z</time>
      </trkpt>
      <trkpt lat="41.8673330" lon="-2.7756100">
        <ele>1121.8</ele>
        <time>2022-01-30T11:19:57Z</time>
      </trkpt>
      <trkpt lat="41.8673070" lon="-2.7755830">
        <ele>1122.0</ele>
        <time>2022-01-30T11:19:58Z</time>
      </trkpt>
      <trkpt lat="41.8672830" lon="-2.7755570">
        <ele>1122.1</ele>
        <time>2022-01-30T11:19:59Z</time>
      </trkpt>
      <trkpt lat="41.8672630" lon="-2.7755280">
        <ele>1122.1</ele>
        <time>2022-01-30T11:20:00Z</time>
      </trkpt>
      <trkpt lat="41.8672450" lon="-2.7754980">
        <ele>1122.2</ele>
        <time>2022-01-30T11:20:01Z</time>
      </trkpt>
      <trkpt lat="41.8672200" lon="-2.7754680">
        <ele>1122.2</ele>
        <time>2022-01-30T11:20:02Z</time>
      </trkpt>
      <trkpt lat="41.8671970" lon="-2.7754380">
        <ele>1122.2</ele>
        <time>2022-01-30T11:20:03Z</time>
      </trkpt>
      <trkpt lat="41.8671670" lon="-2.7754100">
        <ele>1122.2</ele>
        <time>2022-01-30T11:20:04Z</time>
      </trkpt>
      <trkpt lat="41.8671330" lon="-2.7753780">
        <ele>1122.1</ele>
        <time>2022-01-30T11:20:05Z</time>
      </trkpt>
      <trkpt lat="41.8670970" lon="-2.7753430">
        <ele>1122.2</ele>
        <time>2022-01-30T11:20:06Z</time>
      </trkpt>
      <trkpt lat="41.8670480" lon="-2.7753030">
        <ele>1122.3</ele>
        <time>2022-01-30T11:20:07Z</time>
      </trkpt>
      <trkpt lat="41.8670150" lon="-2.7752780">
        <ele>1122.3</ele>
        <time>2022-01-30T11:20:08Z</time>
      </trkpt>
      <trkpt lat="41.8669730" lon="-2.7752430">
        <ele>1122.5</ele>
        <time>2022-01-30T11:20:09Z</time>
      </trkpt>
      <trkpt lat="41.8669350" lon="-2.7752100">
        <ele>1122.6</ele>
        <time>2022-01-30T11:20:10Z</time>
      </trkpt>
      <trkpt lat="41.8668950" lon="-2.7751730">
        <ele>1122.7</ele>
        <time>2022-01-30T11:20:11Z</time>
      </trkpt>
      <trkpt lat="41.8668620" lon="-2.7751350">
        <ele>1122.7</ele>
        <time>2022-01-30T11:20:12Z</time>
      </trkpt>
      <trkpt lat="41.8668230" lon="-2.7750970">
        <ele>1122.6</ele>
        <time>2022-01-30T11:20:13Z</time>
      </trkpt>
      <trkpt lat="41.8667830" lon="-2.7750580">
        <ele>1122.4</ele>
        <time>2022-01-30T11:20:14Z</time>
      </trkpt>
      <trkpt lat="41.8667420" lon="-2.7750170">
        <ele>1122.1</ele>
        <time>2022-01-30T11:20:15Z</time>
      </trkpt>
      <trkpt lat="41.8667030" lon="-2.7749680">
        <ele>1121.9</ele>
        <time>2022-01-30T11:20:16Z</time>
      </trkpt>
      <trkpt lat="41.8666700" lon="-2.7749220">
        <ele>1121.5</ele>
        <time>2022-01-30T11:20:17Z</time>
      </trkpt>
      <trkpt lat="41.8666370" lon="-2.7748700">
        <ele>1121.1</ele>
        <time>2022-01-30T11:20:18Z</time>
      </trkpt>
      <trkpt lat="41.8666020" lon="-2.7748230">
        <ele>1120.5</ele>
        <time>2022-01-30T11:20:19Z</time>
      </trkpt>
      <trkpt lat="41.8665600" lon="-2.7747850">
        <ele>1120.0</ele>
        <time>2022-01-30T11:20:20Z</time>
      </trkpt>
      <trkpt lat="41.8665170" lon="-2.7747570">
        <ele>1119.4</ele>
        <time>2022-01-30T11:20:21Z</time>
      </trkpt>
      <trkpt lat="41.8664800" lon="-2.7747380">
        <ele>1119.1</ele>
        <time>2022-01-30T11:20:22Z</time>
      </trkpt>
      <trkpt lat="41.8664480" lon="-2.7747230">
        <ele>1118.8</ele>
        <time>2022-01-30T11:20:23Z</time>
      </trkpt>
      <trkpt lat="41.8664230" lon="-2.7747070">
        <ele>1118.6</ele>
        <time>2022-01-30T11:20:24Z</time>
      </trkpt>
      <trkpt lat="41.8663970" lon="-2.7746980">
        <ele>1118.4</ele>
        <time>2022-01-30T11:20:25Z</time>
      </trkpt>
      <trkpt lat="41.8663870" lon="-2.7746930">
        <ele>1118.3</ele>
        <time>2022-01-30T11:20:26Z</time>
      </trkpt>
      <trkpt lat="41.8663800" lon="-2.7746880">
        <ele>1118.3</ele>
        <time>2022-01-30T11:20:27Z</time>
      </trkpt>
      <trkpt lat="41.8663720" lon="-2.7746820">
        <ele>1118.2</ele>
        <time>2022-01-30T11:20:28Z</time>
      </trkpt>
      <trkpt lat="41.8663620" lon="-2.7746780">
        <ele>1118.2</ele>
        <time>2022-01-30T11:20:29Z</time>
      </trkpt>
      <trkpt lat="41.8663580" lon="-2.7746750">
        <ele>1118.1</ele>
        <time>2022-01-30T11:20:30Z</time>
      </trkpt>
      <trkpt lat="41.8663570" lon="-2.7746650">
        <ele>1118.1</ele>
        <time>2022-01-30T11:20:31Z</time>
      </trkpt>
      <trkpt lat="41.8663520" lon="-2.7746530">
        <ele>1118.0</ele>
        <time>2022-01-30T11:20:32Z</time>
      </trkpt>
      <trkpt lat="41.8663470" lon="-2.7746550">
        <ele>1118.0</ele>
        <time>2022-01-30T11:20:33Z</time>
      </trkpt>
      <trkpt lat="41.8663450" lon="-2.7746500">
        <ele>1118.0</ele>
        <time>2022-01-30T11:20:34Z</time>
      </trkpt>
      <trkpt lat="41.8663470" lon="-2.7746380">
        <ele>1117.9</ele>
        <time>2022-01-30T11:20:35Z</time>
      </trkpt>
      <trkpt lat="41.8663470" lon="-2.7746280">
        <ele>1117.9</ele>
        <time>2022-01-30T11:20:36Z</time>
      </trkpt>
      <trkpt lat="41.8663450" lon="-2.7746200">
        <ele>1117.8</ele>
        <time>2022-01-30T11:20:37Z</time>
      </trkpt>
      <trkpt lat="41.8663320" lon="-2.7746080">
        <ele>1117.7</ele>
        <time>2022-01-30T11:20:38Z</time>
      </trkpt>
      <trkpt lat="41.8663280" lon="-2.7745980">
        <ele>1117.7</ele>
        <time>2022-01-30T11:20:39Z</time>
      </trkpt>
      <trkpt lat="41.8663230" lon="-2.7745880">
        <ele>1117.6</ele>
        <time>2022-01-30T11:20:40Z</time>
      </trkpt>
      <trkpt lat="41.8663250" lon="-2.7745770">
        <ele>1117.5</ele>
        <time>2022-01-30T11:20:41Z</time>
      </trkpt>
      <trkpt lat="41.8663220" lon="-2.7745670">
        <ele>1117.5</ele>
        <time>2022-01-30T11:20:42Z</time>
      </trkpt>
      <trkpt lat="41.8663150" lon="-2.7745600">
        <ele>1117.4</ele>
        <time>2022-01-30T11:20:43Z</time>
      </trkpt>
      <trkpt lat="41.8663170" lon="-2.7745580">
        <ele>1117.4</ele>
        <time>2022-01-30T11:20:44Z</time>
      </trkpt>
      <trkpt lat="41.8663200" lon="-2.7745570">
        <ele>1117.4</ele>
        <time>2022-01-30T11:20:45Z</time>
      </trkpt>
      <trkpt lat="41.8663200" lon="-2.7745630">
        <ele>1117.4</ele>
        <time>2022-01-30T11:20:46Z</time>
      </trkpt>
      <trkpt lat="41.8663180" lon="-2.7745720">
        <ele>1117.3</ele>
        <time>2022-01-30T11:20:47Z</time>
      </trkpt>
      <trkpt lat="41.8663150" lon="-2.7745680">
        <ele>1117.3</ele>
        <time>2022-01-30T11:20:48Z</time>
      </trkpt>
      <trkpt lat="41.8663150" lon="-2.7745680">
        <ele>1117.3</ele>
        <time>2022-01-30T11:20:49Z</time>
      </trkpt>
      <trkpt lat="41.8663130" lon="-2.7745700">
        <ele>1117.3</ele>
        <time>2022-01-30T11:20:50Z</time>
      </trkpt>
      <trkpt lat="41.8663170" lon="-2.7745680">
        <ele>1117.2</ele>
        <time>2022-01-30T11:20:51Z</time>
      </trkpt>
      <trkpt lat="41.8663200" lon="-2.7745630">
        <ele>1117.2</ele>
        <time>2022-01-30T11:20:52Z</time>
      </trkpt>
      <trkpt lat="41.8663200" lon="-2.7745600">
        <ele>1117.2</ele>
        <time>2022-01-30T11:20:53Z</time>
      </trkpt>
      <trkpt lat="41.8663270" lon="-2.7745570">
        <ele>1117.1</ele>
        <time>2022-01-30T11:20:54Z</time>
      </trkpt>
      <trkpt lat="41.8663350" lon="-2.7745570">
        <ele>1117.1</ele>
        <time>2022-01-30T11:20:55Z</time>
      </trkpt>
      <trkpt lat="41.8663350" lon="-2.7745570">
        <ele>1117.1</ele>
        <time>2022-01-30T11:20:56Z</time>
      </trkpt>
      <trkpt lat="41.8663350" lon="-2.7745570">
        <ele>1117.1</ele>
        <time>2022-01-30T11:20:57Z</time>
      </trkpt>
      <trkpt lat="41.8663350" lon="-2.7745570">
        <ele>1117.1</ele>
        <time>2022-01-30T11:20:58Z</time>
      </trkpt>
      <trkpt lat="41.8663350" lon="-2.7745570">
        <ele>1117.1</ele>
        <time>2022-01-30T11:20:59Z</time>
      </trkpt>
      <trkpt lat="41.8663350" lon="-2.7745570">
        <ele>1117.1</ele>
        <time>2022-01-30T11:21:00Z</time>
      </trkpt>
      <trkpt lat="41.8663350" lon="-2.7745570">
        <ele>1117.1</ele>
        <time>2022-01-30T11:21:01Z</time>
      </trkpt>
      <trkpt lat="41.8663350" lon="-2.7745570">
        <ele>1117.1</ele>
        <time>2022-01-30T11:21:02Z</time>
      </trkpt>
      <trkpt lat="41.8663350" lon="-2.7745570">
        <ele>1117.1</ele>
        <time>2022-01-30T11:21:03Z</time>
      </trkpt>
      <trkpt lat="41.8663350" lon="-2.7745570">
        <ele>1117.1</ele>
        <time>2022-01-30T11:21:04Z</time>
      </trkpt>
      <trkpt lat="41.8663350" lon="-2.7745570">
        <ele>1117.1</ele>
        <time>2022-01-30T11:21:05Z</time>
      </trkpt>
      <trkpt lat="41.8663350" lon="-2.7745570">
        <ele>1117.1</ele>
        <time>2022-01-30T11:21:06Z</time>
      </trkpt>
      <trkpt lat="41.8663350" lon="-2.7745570">
        <ele>1117.1</ele>
        <time>2022-01-30T11:21:07Z</time>
      </trkpt>
      <trkpt lat="41.8663350" lon="-2.7745570">
        <ele>1117.1</ele>
        <time>2022-01-30T11:21:08Z</time>
      </trkpt>
      <trkpt lat="41.8663350" lon="-2.7745570">
        <ele>1117.1</ele>
        <time>2022-01-30T11:21:09Z</time>
      </trkpt>
      <trkpt lat="41.8663350" lon="-2.7745570">
        <ele>1117.1</ele>
        <time>2022-01-30T11:21:10Z</time>
      </trkpt>
      <trkpt lat="41.8663380" lon="-2.7745450">
        <ele>1117.0</ele>
        <time>2022-01-30T11:21:11Z</time>
      </trkpt>
      <trkpt lat="41.8663400" lon="-2.7745430">
        <ele>1117.0</ele>
        <time>2022-01-30T11:21:12Z</time>
      </trkpt>
      <trkpt lat="41.8663420" lon="-2.7745430">
        <ele>1117.0</ele>
        <time>2022-01-30T11:21:13Z</time>
      </trkpt>
      <trkpt lat="41.8663430" lon="-2.7745420">
        <ele>1117.0</ele>
        <time>2022-01-30T11:21:14Z</time>
      </trkpt>
      <trkpt lat="41.8663450" lon="-2.7745400">
        <ele>1117.0</ele>
        <time>2022-01-30T11:21:15Z</time>
      </trkpt>
      <trkpt lat="41.8663450" lon="-2.7745370">
        <ele>1116.9</ele>
        <time>2022-01-30T11:21:16Z</time>
      </trkpt>
      <trkpt lat="41.8663470" lon="-2.7745370">
        <ele>1116.9</ele>
        <time>2022-01-30T11:21:17Z</time>
      </trkpt>
      <trkpt lat="41.8663470" lon="-2.7745370">
        <ele>1116.9</ele>
        <time>2022-01-30T11:21:18Z</time>
      </trkpt>
      <trkpt lat="41.8663480" lon="-2.7745370">
        <ele>1116.9</ele>
        <time>2022-01-30T11:21:19Z</time>
      </trkpt>
      <trkpt lat="41.8663480" lon="-2.7745350">
        <ele>1116.9</ele>
        <time>2022-01-30T11:21:20Z</time>
      </trkpt>
      <trkpt lat="41.8663480" lon="-2.7745350">
        <ele>1116.9</ele>
        <time>2022-01-30T11:21:21Z</time>
      </trkpt>
      <trkpt lat="41.8663500" lon="-2.7745350">
        <ele>1116.9</ele>
        <time>2022-01-30T11:21:22Z</time>
      </trkpt>
      <trkpt lat="41.8663500" lon="-2.7745350">
        <ele>1116.9</ele>
        <time>2022-01-30T11:21:23Z</time>
      </trkpt>
      <trkpt lat="41.8663500" lon="-2.7745350">
        <ele>1116.9</ele>
        <time>2022-01-30T11:21:24Z</time>
      </trkpt>
      <trkpt lat="41.8663500" lon="-2.7745330">
        <ele>1116.9</ele>
        <time>2022-01-30T11:21:25Z</time>
      </trkpt>
      <trkpt lat="41.8663520" lon="-2.7745330">
        <ele>1116.8</ele>
        <time>2022-01-30T11:21:26Z</time>
      </trkpt>
      <trkpt lat="41.8663530" lon="-2.7745330">
        <ele>1116.8</ele>
        <time>2022-01-30T11:21:27Z</time>
      </trkpt>
      <trkpt lat="41.8663550" lon="-2.7745330">
        <ele>1116.8</ele>
        <time>2022-01-30T11:21:28Z</time>
      </trkpt>
      <trkpt lat="41.8663550" lon="-2.7745330">
        <ele>1116.8</ele>
        <time>2022-01-30T11:21:29Z</time>
      </trkpt>
      <trkpt lat="41.8663550" lon="-2.7745320">
        <ele>1116.8</ele>
        <time>2022-01-30T11:21:30Z</time>
      </trkpt>
      <trkpt lat="41.8663550" lon="-2.7745300">
        <ele>1116.8</ele>
        <time>2022-01-30T11:21:31Z</time>
      </trkpt>
      <trkpt lat="41.8663550" lon="-2.7745270">
        <ele>1116.8</ele>
        <time>2022-01-30T11:21:32Z</time>
      </trkpt>
      <trkpt lat="41.8663550" lon="-2.7745270">
        <ele>1116.8</ele>
        <time>2022-01-30T11:21:33Z</time>
      </trkpt>
      <trkpt lat="41.8663550" lon="-2.7745270">
        <ele>1116.8</ele>
        <time>2022-01-30T11:21:34Z</time>
      </trkpt>
      <trkpt lat="41.8663550" lon="-2.7745270">
        <ele>1116.8</ele>
        <time>2022-01-30T11:21:35Z</time>
      </trkpt>
      <trkpt lat="41.8663570" lon="-2.7745270">
        <ele>1116.8</ele>
        <time>2022-01-30T11:21:36Z</time>
      </trkpt>
      <trkpt lat="41.8663570" lon="-2.7745270">
        <ele>1116.8</ele>
        <time>2022-01-30T11:21:37Z</time>
      </trkpt>
      <trkpt lat="41.8663580" lon="-2.7745270">
        <ele>1116.8</ele>
        <time>2022-01-30T11:21:38Z</time>
      </trkpt>
      <trkpt lat="41.8663580" lon="-2.7745270">
        <ele>1116.8</ele>
        <time>2022-01-30T11:21:39Z</time>
      </trkpt>
      <trkpt lat="41.8663600" lon="-2.7745270">
        <ele>1116.7</ele>
        <time>2022-01-30T11:21:40Z</time>
      </trkpt>
      <trkpt lat="41.8663600" lon="-2.7745270">
        <ele>1116.7</ele>
        <time>2022-01-30T11:21:41Z</time>
      </trkpt>
      <trkpt lat="41.8663600" lon="-2.7745270">
        <ele>1116.7</ele>
        <time>2022-01-30T11:21:42Z</time>
      </trkpt>
      <trkpt lat="41.8663620" lon="-2.7745270">
        <ele>1116.7</ele>
        <time>2022-01-30T11:21:43Z</time>
      </trkpt>
      <trkpt lat="41.8663630" lon="-2.7745270">
        <ele>1116.7</ele>
        <time>2022-01-30T11:21:44Z</time>
      </trkpt>
      <trkpt lat="41.8663630" lon="-2.7745270">
        <ele>1116.7</ele>
        <time>2022-01-30T11:21:45Z</time>
      </trkpt>
      <trkpt lat="41.8663630" lon="-2.7745270">
        <ele>1116.7</ele>
        <time>2022-01-30T11:21:46Z</time>
      </trkpt>
      <trkpt lat="41.8663630" lon="-2.7745270">
        <ele>1116.7</ele>
        <time>2022-01-30T11:21:47Z</time>
      </trkpt>
      <trkpt lat="41.8663630" lon="-2.7745280">
        <ele>1116.7</ele>
        <time>2022-01-30T11:21:48Z</time>
      </trkpt>
      <trkpt lat="41.8663630" lon="-2.7745280">
        <ele>1116.7</ele>
        <time>2022-01-30T11:21:49Z</time>
      </trkpt>
      <trkpt lat="41.8663630" lon="-2.7745280">
        <ele>1116.7</ele>
        <time>2022-01-30T11:21:50Z</time>
      </trkpt>
      <trkpt lat="41.8663620" lon="-2.7745280">
        <ele>1116.7</ele>
        <time>2022-01-30T11:21:51Z</time>
      </trkpt>
      <trkpt lat="41.8663620" lon="-2.7745280">
        <ele>1116.7</ele>
        <time>2022-01-30T11:21:52Z</time>
      </trkpt>
      <trkpt lat="41.8663620" lon="-2.7745300">
        <ele>1116.7</ele>
        <time>2022-01-30T11:21:53Z</time>
      </trkpt>
      <trkpt lat="41.8663620" lon="-2.7745300">
        <ele>1116.7</ele>
        <time>2022-01-30T11:21:54Z</time>
      </trkpt>
      <trkpt lat="41.8663620" lon="-2.7745300">
        <ele>1116.7</ele>
        <time>2022-01-30T11:21:55Z</time>
      </trkpt>
      <trkpt lat="41.8663620" lon="-2.7745300">
        <ele>1116.7</ele>
        <time>2022-01-30T11:21:56Z</time>
      </trkpt>
      <trkpt lat="41.8663620" lon="-2.7745300">
        <ele>1116.7</ele>
        <time>2022-01-30T11:21:57Z</time>
      </trkpt>
      <trkpt lat="41.8663620" lon="-2.7745300">
        <ele>1116.7</ele>
        <time>2022-01-30T11:21:58Z</time>
      </trkpt>
      <trkpt lat="41.8663620" lon="-2.7745300">
        <ele>1116.7</ele>
        <time>2022-01-30T11:21:59Z</time>
      </trkpt>
      <trkpt lat="41.8663620" lon="-2.7745300">
        <ele>1116.7</ele>
        <time>2022-01-30T11:22:00Z</time>
      </trkpt>
      <trkpt lat="41.8663620" lon="-2.7745300">
        <ele>1116.7</ele>
        <time>2022-01-30T11:22:01Z</time>
      </trkpt>
      <trkpt lat="41.8663620" lon="-2.7745300">
        <ele>1116.7</ele>
        <time>2022-01-30T11:22:02Z</time>
      </trkpt>
      <trkpt lat="41.8663620" lon="-2.7745280">
        <ele>1116.7</ele>
        <time>2022-01-30T11:22:03Z</time>
      </trkpt>
      <trkpt lat="41.8663600" lon="-2.7745280">
        <ele>1116.7</ele>
        <time>2022-01-30T11:22:04Z</time>
      </trkpt>
      <trkpt lat="41.8663600" lon="-2.7745280">
        <ele>1116.7</ele>
        <time>2022-01-30T11:22:05Z</time>
      </trkpt>
      <trkpt lat="41.8663580" lon="-2.7745280">
        <ele>1116.6</ele>
        <time>2022-01-30T11:22:06Z</time>
      </trkpt>
      <trkpt lat="41.8663580" lon="-2.7745280">
        <ele>1116.6</ele>
        <time>2022-01-30T11:22:07Z</time>
      </trkpt>
      <trkpt lat="41.8663580" lon="-2.7745280">
        <ele>1116.6</ele>
        <time>2022-01-30T11:22:08Z</time>
      </trkpt>
      <trkpt lat="41.8663580" lon="-2.7745270">
        <ele>1116.6</ele>
        <time>2022-01-30T11:22:09Z</time>
      </trkpt>
      <trkpt lat="41.8663570" lon="-2.7745270">
        <ele>1116.6</ele>
        <time>2022-01-30T11:22:10Z</time>
      </trkpt>
      <trkpt lat="41.8663570" lon="-2.7745250">
        <ele>1116.6</ele>
        <time>2022-01-30T11:22:11Z</time>
      </trkpt>
      <trkpt lat="41.8663570" lon="-2.7745230">
        <ele>1116.6</ele>
        <time>2022-01-30T11:22:12Z</time>
      </trkpt>
      <trkpt lat="41.8663570" lon="-2.7745230">
        <ele>1116.6</ele>
        <time>2022-01-30T11:22:13Z</time>
      </trkpt>
      <trkpt lat="41.8663570" lon="-2.7745220">
        <ele>1116.6</ele>
        <time>2022-01-30T11:22:14Z</time>
      </trkpt>
      <trkpt lat="41.8663570" lon="-2.7745220">
        <ele>1116.6</ele>
        <time>2022-01-30T11:22:15Z</time>
      </trkpt>
      <trkpt lat="41.8663570" lon="-2.7745220">
        <ele>1116.6</ele>
        <time>2022-01-30T11:22:16Z</time>
      </trkpt>
      <trkpt lat="41.8663550" lon="-2.7745220">
        <ele>1116.6</ele>
        <time>2022-01-30T11:22:17Z</time>
      </trkpt>
      <trkpt lat="41.8663550" lon="-2.7745220">
        <ele>1116.6</ele>
        <time>2022-01-30T11:22:18Z</time>
      </trkpt>
      <trkpt lat="41.8663550" lon="-2.7745220">
        <ele>1116.6</ele>
        <time>2022-01-30T11:22:19Z</time>
      </trkpt>
      <trkpt lat="41.8663550" lon="-2.7745220">
        <ele>1116.6</ele>
        <time>2022-01-30T11:22:20Z</time>
      </trkpt>
      <trkpt lat="41.8663530" lon="-2.7745220">
        <ele>1116.5</ele>
        <time>2022-01-30T11:22:21Z</time>
      </trkpt>
      <trkpt lat="41.8663520" lon="-2.7745220">
        <ele>1116.5</ele>
        <time>2022-01-30T11:22:22Z</time>
      </trkpt>
      <trkpt lat="41.8663520" lon="-2.7745220">
        <ele>1116.5</ele>
        <time>2022-01-30T11:22:23Z</time>
      </trkpt>
      <trkpt lat="41.8663500" lon="-2.7745200">
        <ele>1116.5</ele>
        <time>2022-01-30T11:22:24Z</time>
      </trkpt>
      <trkpt lat="41.8663480" lon="-2.7745200">
        <ele>1116.5</ele>
        <time>2022-01-30T11:22:25Z</time>
      </trkpt>
      <trkpt lat="41.8663480" lon="-2.7745200">
        <ele>1116.5</ele>
        <time>2022-01-30T11:22:26Z</time>
      </trkpt>
      <trkpt lat="41.8663470" lon="-2.7745200">
        <ele>1116.5</ele>
        <time>2022-01-30T11:22:27Z</time>
      </trkpt>
      <trkpt lat="41.8663450" lon="-2.7745200">
        <ele>1116.5</ele>
        <time>2022-01-30T11:22:28Z</time>
      </trkpt>
      <trkpt lat="41.8663450" lon="-2.7745200">
        <ele>1116.5</ele>
        <time>2022-01-30T11:22:29Z</time>
      </trkpt>
      <trkpt lat="41.8663450" lon="-2.7745200">
        <ele>1116.5</ele>
        <time>2022-01-30T11:22:30Z</time>
      </trkpt>
      <trkpt lat="41.8663430" lon="-2.7745200">
        <ele>1116.4</ele>
        <time>2022-01-30T11:22:31Z</time>
      </trkpt>
      <trkpt lat="41.8663430" lon="-2.7745200">
        <ele>1116.4</ele>
        <time>2022-01-30T11:22:32Z</time>
      </trkpt>
      <trkpt lat="41.8663420" lon="-2.7745200">
        <ele>1116.4</ele>
        <time>2022-01-30T11:22:33Z</time>
      </trkpt>
      <trkpt lat="41.8663400" lon="-2.7745200">
        <ele>1116.4</ele>
        <time>2022-01-30T11:22:34Z</time>
      </trkpt>
      <trkpt lat="41.8663400" lon="-2.7745180">
        <ele>1116.4</ele>
        <time>2022-01-30T11:22:35Z</time>
      </trkpt>
      <trkpt lat="41.8663380" lon="-2.7745180">
        <ele>1116.4</ele>
        <time>2022-01-30T11:22:36Z</time>
      </trkpt>
      <trkpt lat="41.8663380" lon="-2.7745180">
        <ele>1116.4</ele>
        <time>2022-01-30T11:22:37Z</time>
      </trkpt>
      <trkpt lat="41.8663380" lon="-2.7745180">
        <ele>1116.4</ele>
        <time>2022-01-30T11:22:38Z</time>
      </trkpt>
      <trkpt lat="41.8663370" lon="-2.7745170">
        <ele>1116.3</ele>
        <time>2022-01-30T11:22:39Z</time>
      </trkpt>
      <trkpt lat="41.8663370" lon="-2.7745170">
        <ele>1116.3</ele>
        <time>2022-01-30T11:22:40Z</time>
      </trkpt>
      <trkpt lat="41.8663370" lon="-2.7745170">
        <ele>1116.3</ele>
        <time>2022-01-30T11:22:41Z</time>
      </trkpt>
      <trkpt lat="41.8663370" lon="-2.7745170">
        <ele>1116.3</ele>
        <time>2022-01-30T11:22:42Z</time>
      </trkpt>
      <trkpt lat="41.8663370" lon="-2.7745170">
        <ele>1116.3</ele>
        <time>2022-01-30T11:22:43Z</time>
      </trkpt>
      <trkpt lat="41.8663350" lon="-2.7745170">
        <ele>1116.3</ele>
        <time>2022-01-30T11:22:44Z</time>
      </trkpt>
      <trkpt lat="41.8663350" lon="-2.7745170">
        <ele>1116.3</ele>
        <time>2022-01-30T11:22:45Z</time>
      </trkpt>
      <trkpt lat="41.8663350" lon="-2.7745170">
        <ele>1116.3</ele>
        <time>2022-01-30T11:22:46Z</time>
      </trkpt>
      <trkpt lat="41.8663350" lon="-2.7745170">
        <ele>1116.3</ele>
        <time>2022-01-30T11:22:47Z</time>
      </trkpt>
      <trkpt lat="41.8663330" lon="-2.7745170">
        <ele>1116.3</ele>
        <time>2022-01-30T11:22:48Z</time>
      </trkpt>
      <trkpt lat="41.8663330" lon="-2.7745170">
        <ele>1116.3</ele>
        <time>2022-01-30T11:22:49Z</time>
      </trkpt>
      <trkpt lat="41.8663330" lon="-2.7745170">
        <ele>1116.3</ele>
        <time>2022-01-30T11:22:50Z</time>
      </trkpt>
      <trkpt lat="41.8663330" lon="-2.7745170">
        <ele>1116.3</ele>
        <time>2022-01-30T11:22:51Z</time>
      </trkpt>
      <trkpt lat="41.8663320" lon="-2.7745170">
        <ele>1116.3</ele>
        <time>2022-01-30T11:22:52Z</time>
      </trkpt>
      <trkpt lat="41.8663320" lon="-2.7745170">
        <ele>1116.3</ele>
        <time>2022-01-30T11:22:53Z</time>
      </trkpt>
      <trkpt lat="41.8663320" lon="-2.7745180">
        <ele>1116.3</ele>
        <time>2022-01-30T11:22:54Z</time>
      </trkpt>
      <trkpt lat="41.8663320" lon="-2.7745200">
        <ele>1116.3</ele>
        <time>2022-01-30T11:22:55Z</time>
      </trkpt>
      <trkpt lat="41.8663300" lon="-2.7745200">
        <ele>1116.2</ele>
        <time>2022-01-30T11:22:56Z</time>
      </trkpt>
      <trkpt lat="41.8663280" lon="-2.7745220">
        <ele>1116.2</ele>
        <time>2022-01-30T11:22:57Z</time>
      </trkpt>
      <trkpt lat="41.8663270" lon="-2.7745230">
        <ele>1116.2</ele>
        <time>2022-01-30T11:22:58Z</time>
      </trkpt>
      <trkpt lat="41.8663250" lon="-2.7745250">
        <ele>1116.2</ele>
        <time>2022-01-30T11:22:59Z</time>
      </trkpt>
      <trkpt lat="41.8663250" lon="-2.7745270">
        <ele>1116.1</ele>
        <time>2022-01-30T11:23:00Z</time>
      </trkpt>
      <trkpt lat="41.8663230" lon="-2.7745280">
        <ele>1116.1</ele>
        <time>2022-01-30T11:23:01Z</time>
      </trkpt>
      <trkpt lat="41.8663230" lon="-2.7745280">
        <ele>1116.1</ele>
        <time>2022-01-30T11:23:02Z</time>
      </trkpt>
      <trkpt lat="41.8663220" lon="-2.7745300">
        <ele>1116.1</ele>
        <time>2022-01-30T11:23:03Z</time>
      </trkpt>
      <trkpt lat="41.8663200" lon="-2.7745300">
        <ele>1116.1</ele>
        <time>2022-01-30T11:23:04Z</time>
      </trkpt>
      <trkpt lat="41.8663200" lon="-2.7745320">
        <ele>1116.1</ele>
        <time>2022-01-30T11:23:05Z</time>
      </trkpt>
      <trkpt lat="41.8663180" lon="-2.7745330">
        <ele>1116.0</ele>
        <time>2022-01-30T11:23:06Z</time>
      </trkpt>
      <trkpt lat="41.8663180" lon="-2.7745350">
        <ele>1116.0</ele>
        <time>2022-01-30T11:23:07Z</time>
      </trkpt>
      <trkpt lat="41.8663170" lon="-2.7745350">
        <ele>1116.0</ele>
        <time>2022-01-30T11:23:08Z</time>
      </trkpt>
      <trkpt lat="41.8663150" lon="-2.7745350">
        <ele>1116.0</ele>
        <time>2022-01-30T11:23:09Z</time>
      </trkpt>
      <trkpt lat="41.8663150" lon="-2.7745370">
        <ele>1116.0</ele>
        <time>2022-01-30T11:23:10Z</time>
      </trkpt>
      <trkpt lat="41.8663130" lon="-2.7745370">
        <ele>1115.9</ele>
        <time>2022-01-30T11:23:11Z</time>
      </trkpt>
      <trkpt lat="41.8663130" lon="-2.7745380">
        <ele>1115.9</ele>
        <time>2022-01-30T11:23:12Z</time>
      </trkpt>
      <trkpt lat="41.8663120" lon="-2.7745380">
        <ele>1115.9</ele>
        <time>2022-01-30T11:23:13Z</time>
      </trkpt>
      <trkpt lat="41.8663100" lon="-2.7745400">
        <ele>1115.9</ele>
        <time>2022-01-30T11:23:14Z</time>
      </trkpt>
      <trkpt lat="41.8663100" lon="-2.7745400">
        <ele>1115.9</ele>
        <time>2022-01-30T11:23:15Z</time>
      </trkpt>
      <trkpt lat="41.8663080" lon="-2.7745400">
        <ele>1115.9</ele>
        <time>2022-01-30T11:23:16Z</time>
      </trkpt>
      <trkpt lat="41.8663070" lon="-2.7745400">
        <ele>1115.9</ele>
        <time>2022-01-30T11:23:17Z</time>
      </trkpt>
      <trkpt lat="41.8663050" lon="-2.7745400">
        <ele>1115.8</ele>
        <time>2022-01-30T11:23:18Z</time>
      </trkpt>
      <trkpt lat="41.8663030" lon="-2.7745400">
        <ele>1115.8</ele>
        <time>2022-01-30T11:23:19Z</time>
      </trkpt>
      <trkpt lat="41.8663020" lon="-2.7745400">
        <ele>1115.8</ele>
        <time>2022-01-30T11:23:20Z</time>
      </trkpt>
      <trkpt lat="41.8663000" lon="-2.7745400">
        <ele>1115.8</ele>
        <time>2022-01-30T11:23:21Z</time>
      </trkpt>
      <trkpt lat="41.8663000" lon="-2.7745400">
        <ele>1115.8</ele>
        <time>2022-01-30T11:23:22Z</time>
      </trkpt>
      <trkpt lat="41.8662980" lon="-2.7745400">
        <ele>1115.7</ele>
        <time>2022-01-30T11:23:23Z</time>
      </trkpt>
      <trkpt lat="41.8662980" lon="-2.7745400">
        <ele>1115.7</ele>
        <time>2022-01-30T11:23:24Z</time>
      </trkpt>
      <trkpt lat="41.8662980" lon="-2.7745400">
        <ele>1115.7</ele>
        <time>2022-01-30T11:23:25Z</time>
      </trkpt>
      <trkpt lat="41.8662980" lon="-2.7745400">
        <ele>1115.7</ele>
        <time>2022-01-30T11:23:26Z</time>
      </trkpt>
      <trkpt lat="41.8662980" lon="-2.7745400">
        <ele>1115.7</ele>
        <time>2022-01-30T11:23:27Z</time>
      </trkpt>
      <trkpt lat="41.8662980" lon="-2.7745400">
        <ele>1115.7</ele>
        <time>2022-01-30T11:23:28Z</time>
      </trkpt>
      <trkpt lat="41.8662970" lon="-2.7745400">
        <ele>1115.7</ele>
        <time>2022-01-30T11:23:29Z</time>
      </trkpt>
      <trkpt lat="41.8662970" lon="-2.7745400">
        <ele>1115.7</ele>
        <time>2022-01-30T11:23:30Z</time>
      </trkpt>
      <trkpt lat="41.8662970" lon="-2.7745400">
        <ele>1115.7</ele>
        <time>2022-01-30T11:23:31Z</time>
      </trkpt>
      <trkpt lat="41.8662970" lon="-2.7745400">
        <ele>1115.7</ele>
        <time>2022-01-30T11:23:32Z</time>
      </trkpt>
      <trkpt lat="41.8662970" lon="-2.7745380">
        <ele>1115.7</ele>
        <time>2022-01-30T11:23:33Z</time>
      </trkpt>
      <trkpt lat="41.8662970" lon="-2.7745380">
        <ele>1115.7</ele>
        <time>2022-01-30T11:23:34Z</time>
      </trkpt>
      <trkpt lat="41.8662970" lon="-2.7745380">
        <ele>1115.7</ele>
        <time>2022-01-30T11:23:35Z</time>
      </trkpt>
      <trkpt lat="41.8662970" lon="-2.7745380">
        <ele>1115.7</ele>
        <time>2022-01-30T11:23:36Z</time>
      </trkpt>
      <trkpt lat="41.8662970" lon="-2.7745380">
        <ele>1115.7</ele>
        <time>2022-01-30T11:23:37Z</time>
      </trkpt>
      <trkpt lat="41.8662980" lon="-2.7745380">
        <ele>1115.7</ele>
        <time>2022-01-30T11:23:38Z</time>
      </trkpt>
      <trkpt lat="41.8662980" lon="-2.7745380">
        <ele>1115.7</ele>
        <time>2022-01-30T11:23:39Z</time>
      </trkpt>
      <trkpt lat="41.8662980" lon="-2.7745370">
        <ele>1115.7</ele>
        <time>2022-01-30T11:23:40Z</time>
      </trkpt>
      <trkpt lat="41.8662980" lon="-2.7745370">
        <ele>1115.7</ele>
        <time>2022-01-30T11:23:41Z</time>
      </trkpt>
      <trkpt lat="41.8662980" lon="-2.7745350">
        <ele>1115.7</ele>
        <time>2022-01-30T11:23:42Z</time>
      </trkpt>
      <trkpt lat="41.8662980" lon="-2.7745350">
        <ele>1115.7</ele>
        <time>2022-01-30T11:23:43Z</time>
      </trkpt>
      <trkpt lat="41.8663000" lon="-2.7745330">
        <ele>1115.6</ele>
        <time>2022-01-30T11:23:44Z</time>
      </trkpt>
      <trkpt lat="41.8663000" lon="-2.7745320">
        <ele>1115.6</ele>
        <time>2022-01-30T11:23:45Z</time>
      </trkpt>
      <trkpt lat="41.8663000" lon="-2.7745320">
        <ele>1115.6</ele>
        <time>2022-01-30T11:23:46Z</time>
      </trkpt>
      <trkpt lat="41.8663020" lon="-2.7745320">
        <ele>1115.6</ele>
        <time>2022-01-30T11:23:47Z</time>
      </trkpt>
      <trkpt lat="41.8663020" lon="-2.7745300">
        <ele>1115.6</ele>
        <time>2022-01-30T11:23:48Z</time>
      </trkpt>
      <trkpt lat="41.8663020" lon="-2.7745300">
        <ele>1115.6</ele>
        <time>2022-01-30T11:23:49Z</time>
      </trkpt>
      <trkpt lat="41.8663030" lon="-2.7745300">
        <ele>1115.6</ele>
        <time>2022-01-30T11:23:50Z</time>
      </trkpt>
      <trkpt lat="41.8663030" lon="-2.7745300">
        <ele>1115.6</ele>
        <time>2022-01-30T11:23:51Z</time>
      </trkpt>
      <trkpt lat="41.8663050" lon="-2.7745280">
        <ele>1115.6</ele>
        <time>2022-01-30T11:23:52Z</time>
      </trkpt>
      <trkpt lat="41.8663050" lon="-2.7745280">
        <ele>1115.6</ele>
        <time>2022-01-30T11:23:53Z</time>
      </trkpt>
      <trkpt lat="41.8663070" lon="-2.7745280">
        <ele>1115.5</ele>
        <time>2022-01-30T11:23:54Z</time>
      </trkpt>
      <trkpt lat="41.8663070" lon="-2.7745280">
        <ele>1115.5</ele>
        <time>2022-01-30T11:23:55Z</time>
      </trkpt>
      <trkpt lat="41.8663070" lon="-2.7745280">
        <ele>1115.5</ele>
        <time>2022-01-30T11:23:56Z</time>
      </trkpt>
      <trkpt lat="41.8663080" lon="-2.7745280">
        <ele>1115.5</ele>
        <time>2022-01-30T11:23:57Z</time>
      </trkpt>
      <trkpt lat="41.8663080" lon="-2.7745280">
        <ele>1115.5</ele>
        <time>2022-01-30T11:23:58Z</time>
      </trkpt>
      <trkpt lat="41.8663080" lon="-2.7745280">
        <ele>1115.5</ele>
        <time>2022-01-30T11:23:59Z</time>
      </trkpt>
      <trkpt lat="41.8663100" lon="-2.7745280">
        <ele>1115.5</ele>
        <time>2022-01-30T11:24:00Z</time>
      </trkpt>
      <trkpt lat="41.8663100" lon="-2.7745280">
        <ele>1115.5</ele>
        <time>2022-01-30T11:24:01Z</time>
      </trkpt>
      <trkpt lat="41.8663120" lon="-2.7745280">
        <ele>1115.5</ele>
        <time>2022-01-30T11:24:02Z</time>
      </trkpt>
      <trkpt lat="41.8663120" lon="-2.7745280">
        <ele>1115.5</ele>
        <time>2022-01-30T11:24:03Z</time>
      </trkpt>
      <trkpt lat="41.8663120" lon="-2.7745280">
        <ele>1115.5</ele>
        <time>2022-01-30T11:24:04Z</time>
      </trkpt>
      <trkpt lat="41.8663070" lon="-2.7745270">
        <ele>1115.4</ele>
        <time>2022-01-30T11:24:05Z</time>
      </trkpt>
      <trkpt lat="41.8662780" lon="-2.7745050">
        <ele>1115.1</ele>
        <time>2022-01-30T11:24:06Z</time>
      </trkpt>
      <trkpt lat="41.8662480" lon="-2.7744800">
        <ele>1114.8</ele>
        <time>2022-01-30T11:24:07Z</time>
      </trkpt>
      <trkpt lat="41.8662200" lon="-2.7744470">
        <ele>1114.5</ele>
        <time>2022-01-30T11:24:08Z</time>
      </trkpt>
      <trkpt lat="41.8661920" lon="-2.7744150">
        <ele>1114.4</ele>
        <time>2022-01-30T11:24:09Z</time>
      </trkpt>
      <trkpt lat="41.8661580" lon="-2.7743850">
        <ele>1114.3</ele>
        <time>2022-01-30T11:24:10Z</time>
      </trkpt>
      <trkpt lat="41.8661250" lon="-2.7743500">
        <ele>1114.1</ele>
        <time>2022-01-30T11:24:11Z</time>
      </trkpt>
      <trkpt lat="41.8660880" lon="-2.7743150">
        <ele>1114.0</ele>
        <time>2022-01-30T11:24:12Z</time>
      </trkpt>
      <trkpt lat="41.8660420" lon="-2.7742720">
        <ele>1113.9</ele>
        <time>2022-01-30T11:24:13Z</time>
      </trkpt>
      <trkpt lat="41.8660070" lon="-2.7742430">
        <ele>1113.7</ele>
        <time>2022-01-30T11:24:14Z</time>
      </trkpt>
      <trkpt lat="41.8659700" lon="-2.7742130">
        <ele>1113.4</ele>
        <time>2022-01-30T11:24:15Z</time>
      </trkpt>
      <trkpt lat="41.8659250" lon="-2.7741750">
        <ele>1113.2</ele>
        <time>2022-01-30T11:24:16Z</time>
      </trkpt>
      <trkpt lat="41.8658980" lon="-2.7741500">
        <ele>1113.0</ele>
        <time>2022-01-30T11:24:17Z</time>
      </trkpt>
      <trkpt lat="41.8658670" lon="-2.7741220">
        <ele>1112.9</ele>
        <time>2022-01-30T11:24:18Z</time>
      </trkpt>
      <trkpt lat="41.8658350" lon="-2.7740970">
        <ele>1112.9</ele>
        <time>2022-01-30T11:24:19Z</time>
      </trkpt>
      <trkpt lat="41.8658070" lon="-2.7740650">
        <ele>1112.9</ele>
        <time>2022-01-30T11:24:20Z</time>
      </trkpt>
      <trkpt lat="41.8657850" lon="-2.7740420">
        <ele>1112.9</ele>
        <time>2022-01-30T11:24:21Z</time>
      </trkpt>
      <trkpt lat="41.8657600" lon="-2.7740030">
        <ele>1113.0</ele>
        <time>2022-01-30T11:24:22Z</time>
      </trkpt>
      <trkpt lat="41.8657420" lon="-2.7739730">
        <ele>1113.0</ele>
        <time>2022-01-30T11:24:23Z</time>
      </trkpt>
      <trkpt lat="41.8657200" lon="-2.7739400">
        <ele>1113.0</ele>
        <time>2022-01-30T11:24:24Z</time>
      </trkpt>
      <trkpt lat="41.8656950" lon="-2.7739020">
        <ele>1113.0</ele>
        <time>2022-01-30T11:24:25Z</time>
      </trkpt>
      <trkpt lat="41.8656580" lon="-2.7738580">
        <ele>1113.0</ele>
        <time>2022-01-30T11:24:26Z</time>
      </trkpt>
      <trkpt lat="41.8656280" lon="-2.7738200">
        <ele>1113.0</ele>
        <time>2022-01-30T11:24:27Z</time>
      </trkpt>
      <trkpt lat="41.8655900" lon="-2.7737770">
        <ele>1112.9</ele>
        <time>2022-01-30T11:24:28Z</time>
      </trkpt>
      <trkpt lat="41.8655530" lon="-2.7737350">
        <ele>1112.9</ele>
        <time>2022-01-30T11:24:29Z</time>
      </trkpt>
      <trkpt lat="41.8655180" lon="-2.7736950">
        <ele>1112.9</ele>
        <time>2022-01-30T11:24:30Z</time>
      </trkpt>
      <trkpt lat="41.8654770" lon="-2.7736470">
        <ele>1112.8</ele>
        <time>2022-01-30T11:24:31Z</time>
      </trkpt>
      <trkpt lat="41.8654500" lon="-2.7736170">
        <ele>1112.7</ele>
        <time>2022-01-30T11:24:32Z</time>
      </trkpt>
      <trkpt lat="41.8654150" lon="-2.7735770">
        <ele>1112.6</ele>
        <time>2022-01-30T11:24:33Z</time>
      </trkpt>
      <trkpt lat="41.8653820" lon="-2.7735420">
        <ele>1112.5</ele>
        <time>2022-01-30T11:24:34Z</time>
      </trkpt>
      <trkpt lat="41.8653480" lon="-2.7735070">
        <ele>1112.4</ele>
        <time>2022-01-30T11:24:35Z</time>
      </trkpt>
      <trkpt lat="41.8653150" lon="-2.7734780">
        <ele>1112.3</ele>
        <time>2022-01-30T11:24:36Z</time>
      </trkpt>
      <trkpt lat="41.8652870" lon="-2.7734500">
        <ele>1112.2</ele>
        <time>2022-01-30T11:24:37Z</time>
      </trkpt>
      <trkpt lat="41.8652580" lon="-2.7734220">
        <ele>1112.1</ele>
        <time>2022-01-30T11:24:38Z</time>
      </trkpt>
      <trkpt lat="41.8652280" lon="-2.7733950">
        <ele>1112.0</ele>
        <time>2022-01-30T11:24:39Z</time>
      </trkpt>
      <trkpt lat="41.8652050" lon="-2.7733700">
        <ele>1111.7</ele>
        <time>2022-01-30T11:24:40Z</time>
      </trkpt>
      <trkpt lat="41.8651830" lon="-2.7733470">
        <ele>1111.6</ele>
        <time>2022-01-30T11:24:41Z</time>
      </trkpt>
      <trkpt lat="41.8651620" lon="-2.7733170">
        <ele>1111.4</ele>
        <time>2022-01-30T11:24:42Z</time>
      </trkpt>
      <trkpt lat="41.8651400" lon="-2.7732870">
        <ele>1111.3</ele>
        <time>2022-01-30T11:24:43Z</time>
      </trkpt>
      <trkpt lat="41.8651150" lon="-2.7732580">
        <ele>1111.2</ele>
        <time>2022-01-30T11:24:44Z</time>
      </trkpt>
      <trkpt lat="41.8650870" lon="-2.7732300">
        <ele>1111.1</ele>
        <time>2022-01-30T11:24:45Z</time>
      </trkpt>
      <trkpt lat="41.8650630" lon="-2.7732020">
        <ele>1111.1</ele>
        <time>2022-01-30T11:24:46Z</time>
      </trkpt>
      <trkpt lat="41.8650370" lon="-2.7731800">
        <ele>1111.2</ele>
        <time>2022-01-30T11:24:47Z</time>
      </trkpt>
      <trkpt lat="41.8650080" lon="-2.7731580">
        <ele>1111.3</ele>
        <time>2022-01-30T11:24:48Z</time>
      </trkpt>
      <trkpt lat="41.8649780" lon="-2.7731370">
        <ele>1111.4</ele>
        <time>2022-01-30T11:24:49Z</time>
      </trkpt>
      <trkpt lat="41.8649480" lon="-2.7731150">
        <ele>1111.5</ele>
        <time>2022-01-30T11:24:50Z</time>
      </trkpt>
      <trkpt lat="41.8649170" lon="-2.7730950">
        <ele>1111.6</ele>
        <time>2022-01-30T11:24:51Z</time>
      </trkpt>
      <trkpt lat="41.8648870" lon="-2.7730750">
        <ele>1111.6</ele>
        <time>2022-01-30T11:24:52Z</time>
      </trkpt>
      <trkpt lat="41.8648580" lon="-2.7730550">
        <ele>1111.6</ele>
        <time>2022-01-30T11:24:53Z</time>
      </trkpt>
      <trkpt lat="41.8648430" lon="-2.7730420">
        <ele>1111.6</ele>
        <time>2022-01-30T11:24:54Z</time>
      </trkpt>
      <trkpt lat="41.8648180" lon="-2.7730270">
        <ele>1111.6</ele>
        <time>2022-01-30T11:24:55Z</time>
      </trkpt>
      <trkpt lat="41.8647950" lon="-2.7730070">
        <ele>1111.5</ele>
        <time>2022-01-30T11:24:56Z</time>
      </trkpt>
      <trkpt lat="41.8647670" lon="-2.7729820">
        <ele>1111.5</ele>
        <time>2022-01-30T11:24:57Z</time>
      </trkpt>
      <trkpt lat="41.8647350" lon="-2.7729530">
        <ele>1111.5</ele>
        <time>2022-01-30T11:24:58Z</time>
      </trkpt>
      <trkpt lat="41.8647050" lon="-2.7729230">
        <ele>1111.5</ele>
        <time>2022-01-30T11:24:59Z</time>
      </trkpt>
      <trkpt lat="41.8646720" lon="-2.7728900">
        <ele>1111.6</ele>
        <time>2022-01-30T11:25:00Z</time>
      </trkpt>
      <trkpt lat="41.8646430" lon="-2.7728620">
        <ele>1111.6</ele>
        <time>2022-01-30T11:25:01Z</time>
      </trkpt>
      <trkpt lat="41.8646130" lon="-2.7728320">
        <ele>1111.6</ele>
        <time>2022-01-30T11:25:02Z</time>
      </trkpt>
      <trkpt lat="41.8645830" lon="-2.7728020">
        <ele>1111.5</ele>
        <time>2022-01-30T11:25:03Z</time>
      </trkpt>
      <trkpt lat="41.8645500" lon="-2.7727720">
        <ele>1111.5</ele>
        <time>2022-01-30T11:25:04Z</time>
      </trkpt>
      <trkpt lat="41.8645150" lon="-2.7727420">
        <ele>1111.3</ele>
        <time>2022-01-30T11:25:05Z</time>
      </trkpt>
      <trkpt lat="41.8644780" lon="-2.7727120">
        <ele>1111.1</ele>
        <time>2022-01-30T11:25:06Z</time>
      </trkpt>
      <trkpt lat="41.8644420" lon="-2.7726800">
        <ele>1110.9</ele>
        <time>2022-01-30T11:25:07Z</time>
      </trkpt>
      <trkpt lat="41.8643950" lon="-2.7726450">
        <ele>1110.7</ele>
        <time>2022-01-30T11:25:08Z</time>
      </trkpt>
      <trkpt lat="41.8643630" lon="-2.7726230">
        <ele>1110.6</ele>
        <time>2022-01-30T11:25:09Z</time>
      </trkpt>
      <trkpt lat="41.8643280" lon="-2.7726000">
        <ele>1110.5</ele>
        <time>2022-01-30T11:25:10Z</time>
      </trkpt>
      <trkpt lat="41.8642900" lon="-2.7725700">
        <ele>1110.5</ele>
        <time>2022-01-30T11:25:11Z</time>
      </trkpt>
      <trkpt lat="41.8642520" lon="-2.7725420">
        <ele>1110.4</ele>
        <time>2022-01-30T11:25:12Z</time>
      </trkpt>
      <trkpt lat="41.8642120" lon="-2.7725080">
        <ele>1110.1</ele>
        <time>2022-01-30T11:25:13Z</time>
      </trkpt>
      <trkpt lat="41.8641750" lon="-2.7724770">
        <ele>1109.9</ele>
        <time>2022-01-30T11:25:14Z</time>
      </trkpt>
      <trkpt lat="41.8641400" lon="-2.7724450">
        <ele>1109.6</ele>
        <time>2022-01-30T11:25:15Z</time>
      </trkpt>
      <trkpt lat="41.8641030" lon="-2.7724170">
        <ele>1109.4</ele>
        <time>2022-01-30T11:25:16Z</time>
      </trkpt>
      <trkpt lat="41.8640670" lon="-2.7723900">
        <ele>1109.0</ele>
        <time>2022-01-30T11:25:17Z</time>
      </trkpt>
      <trkpt lat="41.8640320" lon="-2.7723630">
        <ele>1108.6</ele>
        <time>2022-01-30T11:25:18Z</time>
      </trkpt>
      <trkpt lat="41.8640000" lon="-2.7723280">
        <ele>1108.0</ele>
        <time>2022-01-30T11:25:19Z</time>
      </trkpt>
      <trkpt lat="41.8639700" lon="-2.7722900">
        <ele>1107.2</ele>
        <time>2022-01-30T11:25:20Z</time>
      </trkpt>
      <trkpt lat="41.8639420" lon="-2.7722480">
        <ele>1106.4</ele>
        <time>2022-01-30T11:25:21Z</time>
      </trkpt>
      <trkpt lat="41.8639130" lon="-2.7722100">
        <ele>1105.7</ele>
        <time>2022-01-30T11:25:22Z</time>
      </trkpt>
      <trkpt lat="41.8638820" lon="-2.7721700">
        <ele>1105.3</ele>
        <time>2022-01-30T11:25:23Z</time>
      </trkpt>
      <trkpt lat="41.8638520" lon="-2.7721320">
        <ele>1105.0</ele>
        <time>2022-01-30T11:25:24Z</time>
      </trkpt>
      <trkpt lat="41.8638220" lon="-2.7720950">
        <ele>1104.9</ele>
        <time>2022-01-30T11:25:25Z</time>
      </trkpt>
      <trkpt lat="41.8637970" lon="-2.7720550">
        <ele>1104.9</ele>
        <time>2022-01-30T11:25:26Z</time>
      </trkpt>
      <trkpt lat="41.8637700" lon="-2.7720130">
        <ele>1104.8</ele>
        <time>2022-01-30T11:25:27Z</time>
      </trkpt>
      <trkpt lat="41.8637480" lon="-2.7719680">
        <ele>1104.8</ele>
        <time>2022-01-30T11:25:28Z</time>
      </trkpt>
      <trkpt lat="41.8637330" lon="-2.7719230">
        <ele>1104.8</ele>
        <time>2022-01-30T11:25:29Z</time>
      </trkpt>
      <trkpt lat="41.8637220" lon="-2.7718770">
        <ele>1104.7</ele>
        <time>2022-01-30T11:25:30Z</time>
      </trkpt>
      <trkpt lat="41.8637050" lon="-2.7718280">
        <ele>1104.7</ele>
        <time>2022-01-30T11:25:31Z</time>
      </trkpt>
      <trkpt lat="41.8636820" lon="-2.7717830">
        <ele>1104.7</ele>
        <time>2022-01-30T11:25:32Z</time>
      </trkpt>
      <trkpt lat="41.8636550" lon="-2.7717400">
        <ele>1104.7</ele>
        <time>2022-01-30T11:25:33Z</time>
      </trkpt>
      <trkpt lat="41.8636230" lon="-2.7717000">
        <ele>1104.7</ele>
        <time>2022-01-30T11:25:34Z</time>
      </trkpt>
      <trkpt lat="41.8635900" lon="-2.7716530">
        <ele>1104.6</ele>
        <time>2022-01-30T11:25:35Z</time>
      </trkpt>
      <trkpt lat="41.8635650" lon="-2.7716220">
        <ele>1104.6</ele>
        <time>2022-01-30T11:25:36Z</time>
      </trkpt>
      <trkpt lat="41.8635370" lon="-2.7715820">
        <ele>1104.5</ele>
        <time>2022-01-30T11:25:37Z</time>
      </trkpt>
      <trkpt lat="41.8635080" lon="-2.7715420">
        <ele>1104.4</ele>
        <time>2022-01-30T11:25:38Z</time>
      </trkpt>
      <trkpt lat="41.8634800" lon="-2.7714980">
        <ele>1104.4</ele>
        <time>2022-01-30T11:25:39Z</time>
      </trkpt>
      <trkpt lat="41.8634470" lon="-2.7714470">
        <ele>1104.4</ele>
        <time>2022-01-30T11:25:40Z</time>
      </trkpt>
      <trkpt lat="41.8634200" lon="-2.7714170">
        <ele>1104.5</ele>
        <time>2022-01-30T11:25:41Z</time>
      </trkpt>
      <trkpt lat="41.8633870" lon="-2.7713800">
        <ele>1104.6</ele>
        <time>2022-01-30T11:25:42Z</time>
      </trkpt>
      <trkpt lat="41.8633520" lon="-2.7713500">
        <ele>1104.8</ele>
        <time>2022-01-30T11:25:43Z</time>
      </trkpt>
      <trkpt lat="41.8633120" lon="-2.7713180">
        <ele>1104.9</ele>
        <time>2022-01-30T11:25:44Z</time>
      </trkpt>
      <trkpt lat="41.8632850" lon="-2.7713020">
        <ele>1105.0</ele>
        <time>2022-01-30T11:25:45Z</time>
      </trkpt>
      <trkpt lat="41.8632520" lon="-2.7712800">
        <ele>1105.1</ele>
        <time>2022-01-30T11:25:46Z</time>
      </trkpt>
      <trkpt lat="41.8632170" lon="-2.7712530">
        <ele>1105.1</ele>
        <time>2022-01-30T11:25:47Z</time>
      </trkpt>
      <trkpt lat="41.8631830" lon="-2.7712220">
        <ele>1105.2</ele>
        <time>2022-01-30T11:25:48Z</time>
      </trkpt>
      <trkpt lat="41.8631570" lon="-2.7711830">
        <ele>1105.2</ele>
        <time>2022-01-30T11:25:49Z</time>
      </trkpt>
      <trkpt lat="41.8631330" lon="-2.7711400">
        <ele>1105.2</ele>
        <time>2022-01-30T11:25:50Z</time>
      </trkpt>
      <trkpt lat="41.8631120" lon="-2.7710830">
        <ele>1105.3</ele>
        <time>2022-01-30T11:25:51Z</time>
      </trkpt>
      <trkpt lat="41.8631020" lon="-2.7710430">
        <ele>1105.3</ele>
        <time>2022-01-30T11:25:52Z</time>
      </trkpt>
      <trkpt lat="41.8630880" lon="-2.7709780">
        <ele>1105.3</ele>
        <time>2022-01-30T11:25:53Z</time>
      </trkpt>
      <trkpt lat="41.8630800" lon="-2.7709350">
        <ele>1105.3</ele>
        <time>2022-01-30T11:25:54Z</time>
      </trkpt>
      <trkpt lat="41.8630730" lon="-2.7708780">
        <ele>1105.3</ele>
        <time>2022-01-30T11:25:55Z</time>
      </trkpt>
      <trkpt lat="41.8630680" lon="-2.7708220">
        <ele>1105.3</ele>
        <time>2022-01-30T11:25:56Z</time>
      </trkpt>
      <trkpt lat="41.8630630" lon="-2.7707700">
        <ele>1105.3</ele>
        <time>2022-01-30T11:25:57Z</time>
      </trkpt>
      <trkpt lat="41.8630550" lon="-2.7707170">
        <ele>1105.4</ele>
        <time>2022-01-30T11:25:58Z</time>
      </trkpt>
      <trkpt lat="41.8630370" lon="-2.7706680">
        <ele>1105.4</ele>
        <time>2022-01-30T11:25:59Z</time>
      </trkpt>
      <trkpt lat="41.8630150" lon="-2.7706220">
        <ele>1105.6</ele>
        <time>2022-01-30T11:26:00Z</time>
      </trkpt>
      <trkpt lat="41.8629850" lon="-2.7705800">
        <ele>1105.8</ele>
        <time>2022-01-30T11:26:01Z</time>
      </trkpt>
      <trkpt lat="41.8629530" lon="-2.7705450">
        <ele>1106.0</ele>
        <time>2022-01-30T11:26:02Z</time>
      </trkpt>
      <trkpt lat="41.8629250" lon="-2.7705050">
        <ele>1106.2</ele>
        <time>2022-01-30T11:26:03Z</time>
      </trkpt>
      <trkpt lat="41.8629070" lon="-2.7704670">
        <ele>1106.3</ele>
        <time>2022-01-30T11:26:04Z</time>
      </trkpt>
      <trkpt lat="41.8628900" lon="-2.7704150">
        <ele>1106.6</ele>
        <time>2022-01-30T11:26:05Z</time>
      </trkpt>
      <trkpt lat="41.8628750" lon="-2.7703580">
        <ele>1106.8</ele>
        <time>2022-01-30T11:26:06Z</time>
      </trkpt>
      <trkpt lat="41.8628670" lon="-2.7702870">
        <ele>1107.3</ele>
        <time>2022-01-30T11:26:07Z</time>
      </trkpt>
      <trkpt lat="41.8628630" lon="-2.7702420">
        <ele>1107.6</ele>
        <time>2022-01-30T11:26:08Z</time>
      </trkpt>
      <trkpt lat="41.8628520" lon="-2.7701850">
        <ele>1108.2</ele>
        <time>2022-01-30T11:26:09Z</time>
      </trkpt>
      <trkpt lat="41.8628370" lon="-2.7701250">
        <ele>1109.0</ele>
        <time>2022-01-30T11:26:10Z</time>
      </trkpt>
      <trkpt lat="41.8628250" lon="-2.7700730">
        <ele>1109.6</ele>
        <time>2022-01-30T11:26:11Z</time>
      </trkpt>
      <trkpt lat="41.8628070" lon="-2.7700150">
        <ele>1110.3</ele>
        <time>2022-01-30T11:26:12Z</time>
      </trkpt>
      <trkpt lat="41.8627880" lon="-2.7699630">
        <ele>1110.6</ele>
        <time>2022-01-30T11:26:13Z</time>
      </trkpt>
      <trkpt lat="41.8627700" lon="-2.7699170">
        <ele>1110.8</ele>
        <time>2022-01-30T11:26:14Z</time>
      </trkpt>
      <trkpt lat="41.8627520" lon="-2.7698700">
        <ele>1110.9</ele>
        <time>2022-01-30T11:26:15Z</time>
      </trkpt>
      <trkpt lat="41.8627350" lon="-2.7698270">
        <ele>1111.0</ele>
        <time>2022-01-30T11:26:16Z</time>
      </trkpt>
      <trkpt lat="41.8627200" lon="-2.7697870">
        <ele>1111.1</ele>
        <time>2022-01-30T11:26:17Z</time>
      </trkpt>
      <trkpt lat="41.8627080" lon="-2.7697520">
        <ele>1111.1</ele>
        <time>2022-01-30T11:26:18Z</time>
      </trkpt>
      <trkpt lat="41.8627020" lon="-2.7697270">
        <ele>1111.2</ele>
        <time>2022-01-30T11:26:19Z</time>
      </trkpt>
      <trkpt lat="41.8626950" lon="-2.7697100">
        <ele>1111.2</ele>
        <time>2022-01-30T11:26:20Z</time>
      </trkpt>
      <trkpt lat="41.8626930" lon="-2.7697030">
        <ele>1111.2</ele>
        <time>2022-01-30T11:26:21Z</time>
      </trkpt>
      <trkpt lat="41.8626900" lon="-2.7696980">
        <ele>1111.2</ele>
        <time>2022-01-30T11:26:22Z</time>
      </trkpt>
      <trkpt lat="41.8626830" lon="-2.7696930">
        <ele>1111.2</ele>
        <time>2022-01-30T11:26:23Z</time>
      </trkpt>
      <trkpt lat="41.8626830" lon="-2.7696880">
        <ele>1111.2</ele>
        <time>2022-01-30T11:26:24Z</time>
      </trkpt>
      <trkpt lat="41.8626870" lon="-2.7696850">
        <ele>1111.2</ele>
        <time>2022-01-30T11:26:25Z</time>
      </trkpt>
      <trkpt lat="41.8626880" lon="-2.7696820">
        <ele>1111.2</ele>
        <time>2022-01-30T11:26:26Z</time>
      </trkpt>
      <trkpt lat="41.8626900" lon="-2.7696800">
        <ele>1111.2</ele>
        <time>2022-01-30T11:26:27Z</time>
      </trkpt>
      <trkpt lat="41.8626920" lon="-2.7696770">
        <ele>1111.2</ele>
        <time>2022-01-30T11:26:28Z</time>
      </trkpt>
      <trkpt lat="41.8626970" lon="-2.7696720">
        <ele>1111.3</ele>
        <time>2022-01-30T11:26:29Z</time>
      </trkpt>
      <trkpt lat="41.8626970" lon="-2.7696730">
        <ele>1111.3</ele>
        <time>2022-01-30T11:26:30Z</time>
      </trkpt>
      <trkpt lat="41.8626970" lon="-2.7696770">
        <ele>1111.3</ele>
        <time>2022-01-30T11:26:31Z</time>
      </trkpt>
      <trkpt lat="41.8626930" lon="-2.7696820">
        <ele>1111.3</ele>
        <time>2022-01-30T11:26:32Z</time>
      </trkpt>
      <trkpt lat="41.8626920" lon="-2.7696850">
        <ele>1111.3</ele>
        <time>2022-01-30T11:26:33Z</time>
      </trkpt>
      <trkpt lat="41.8626850" lon="-2.7696830">
        <ele>1111.3</ele>
        <time>2022-01-30T11:26:34Z</time>
      </trkpt>
      <trkpt lat="41.8626780" lon="-2.7696850">
        <ele>1111.3</ele>
        <time>2022-01-30T11:26:35Z</time>
      </trkpt>
      <trkpt lat="41.8626780" lon="-2.7696880">
        <ele>1111.3</ele>
        <time>2022-01-30T11:26:36Z</time>
      </trkpt>
      <trkpt lat="41.8626780" lon="-2.7696970">
        <ele>1111.4</ele>
        <time>2022-01-30T11:26:37Z</time>
      </trkpt>
      <trkpt lat="41.8626720" lon="-2.7697020">
        <ele>1111.4</ele>
        <time>2022-01-30T11:26:38Z</time>
      </trkpt>
      <trkpt lat="41.8626670" lon="-2.7697080">
        <ele>1111.4</ele>
        <time>2022-01-30T11:26:39Z</time>
      </trkpt>
      <trkpt lat="41.8626670" lon="-2.7697080">
        <ele>1111.4</ele>
        <time>2022-01-30T11:26:40Z</time>
      </trkpt>
      <trkpt lat="41.8626670" lon="-2.7697080">
        <ele>1111.4</ele>
        <time>2022-01-30T11:26:41Z</time>
      </trkpt>
      <trkpt lat="41.8626670" lon="-2.7697080">
        <ele>1111.4</ele>
        <time>2022-01-30T11:26:42Z</time>
      </trkpt>
      <trkpt lat="41.8626670" lon="-2.7697080">
        <ele>1111.4</ele>
        <time>2022-01-30T11:26:43Z</time>
      </trkpt>
      <trkpt lat="41.8626670" lon="-2.7697080">
        <ele>1111.4</ele>
        <time>2022-01-30T11:26:44Z</time>
      </trkpt>
      <trkpt lat="41.8626670" lon="-2.7697080">
        <ele>1111.4</ele>
        <time>2022-01-30T11:26:45Z</time>
      </trkpt>
      <trkpt lat="41.8626670" lon="-2.7697080">
        <ele>1111.4</ele>
        <time>2022-01-30T11:26:46Z</time>
      </trkpt>
      <trkpt lat="41.8626670" lon="-2.7697080">
        <ele>1111.4</ele>
        <time>2022-01-30T11:26:47Z</time>
      </trkpt>
      <trkpt lat="41.8626670" lon="-2.7697050">
        <ele>1111.4</ele>
        <time>2022-01-30T11:26:48Z</time>
      </trkpt>
      <trkpt lat="41.8626670" lon="-2.7697030">
        <ele>1111.4</ele>
        <time>2022-01-30T11:26:49Z</time>
      </trkpt>
      <trkpt lat="41.8626700" lon="-2.7697030">
        <ele>1111.4</ele>
        <time>2022-01-30T11:26:50Z</time>
      </trkpt>
      <trkpt lat="41.8626700" lon="-2.7697020">
        <ele>1111.4</ele>
        <time>2022-01-30T11:26:51Z</time>
      </trkpt>
      <trkpt lat="41.8626720" lon="-2.7697020">
        <ele>1111.4</ele>
        <time>2022-01-30T11:26:52Z</time>
      </trkpt>
      <trkpt lat="41.8626720" lon="-2.7696970">
        <ele>1111.4</ele>
        <time>2022-01-30T11:26:53Z</time>
      </trkpt>
      <trkpt lat="41.8626750" lon="-2.7696970">
        <ele>1111.5</ele>
        <time>2022-01-30T11:26:54Z</time>
      </trkpt>
      <trkpt lat="41.8626780" lon="-2.7696970">
        <ele>1111.5</ele>
        <time>2022-01-30T11:26:55Z</time>
      </trkpt>
      <trkpt lat="41.8626780" lon="-2.7696970">
        <ele>1111.5</ele>
        <time>2022-01-30T11:26:56Z</time>
      </trkpt>
      <trkpt lat="41.8626780" lon="-2.7696970">
        <ele>1111.5</ele>
        <time>2022-01-30T11:26:57Z</time>
      </trkpt>
      <trkpt lat="41.8626800" lon="-2.7696970">
        <ele>1111.5</ele>
        <time>2022-01-30T11:26:58Z</time>
      </trkpt>
      <trkpt lat="41.8626820" lon="-2.7696950">
        <ele>1111.5</ele>
        <time>2022-01-30T11:26:59Z</time>
      </trkpt>
      <trkpt lat="41.8626820" lon="-2.7696950">
        <ele>1111.5</ele>
        <time>2022-01-30T11:27:00Z</time>
      </trkpt>
      <trkpt lat="41.8626820" lon="-2.7696950">
        <ele>1111.5</ele>
        <time>2022-01-30T11:27:01Z</time>
      </trkpt>
      <trkpt lat="41.8626820" lon="-2.7696950">
        <ele>1111.5</ele>
        <time>2022-01-30T11:27:02Z</time>
      </trkpt>
      <trkpt lat="41.8626800" lon="-2.7696950">
        <ele>1111.5</ele>
        <time>2022-01-30T11:27:03Z</time>
      </trkpt>
      <trkpt lat="41.8626800" lon="-2.7696950">
        <ele>1111.5</ele>
        <time>2022-01-30T11:27:04Z</time>
      </trkpt>
      <trkpt lat="41.8626800" lon="-2.7696950">
        <ele>1111.5</ele>
        <time>2022-01-30T11:27:05Z</time>
      </trkpt>
      <trkpt lat="41.8626780" lon="-2.7696950">
        <ele>1111.5</ele>
        <time>2022-01-30T11:27:06Z</time>
      </trkpt>
      <trkpt lat="41.8626780" lon="-2.7696920">
        <ele>1111.5</ele>
        <time>2022-01-30T11:27:07Z</time>
      </trkpt>
      <trkpt lat="41.8626780" lon="-2.7696920">
        <ele>1111.5</ele>
        <time>2022-01-30T11:27:08Z</time>
      </trkpt>
      <trkpt lat="41.8626780" lon="-2.7696880">
        <ele>1111.5</ele>
        <time>2022-01-30T11:27:09Z</time>
      </trkpt>
      <trkpt lat="41.8626780" lon="-2.7696870">
        <ele>1111.5</ele>
        <time>2022-01-30T11:27:10Z</time>
      </trkpt>
      <trkpt lat="41.8626780" lon="-2.7696850">
        <ele>1111.5</ele>
        <time>2022-01-30T11:27:11Z</time>
      </trkpt>
      <trkpt lat="41.8626800" lon="-2.7696800">
        <ele>1111.5</ele>
        <time>2022-01-30T11:27:12Z</time>
      </trkpt>
      <trkpt lat="41.8626800" lon="-2.7696800">
        <ele>1111.5</ele>
        <time>2022-01-30T11:27:13Z</time>
      </trkpt>
      <trkpt lat="41.8626800" lon="-2.7696800">
        <ele>1111.5</ele>
        <time>2022-01-30T11:27:14Z</time>
      </trkpt>
      <trkpt lat="41.8626780" lon="-2.7696730">
        <ele>1111.5</ele>
        <time>2022-01-30T11:27:15Z</time>
      </trkpt>
      <trkpt lat="41.8626650" lon="-2.7696500">
        <ele>1111.6</ele>
        <time>2022-01-30T11:27:16Z</time>
      </trkpt>
      <trkpt lat="41.8626470" lon="-2.7696270">
        <ele>1111.7</ele>
        <time>2022-01-30T11:27:17Z</time>
      </trkpt>
      <trkpt lat="41.8626280" lon="-2.7696020">
        <ele>1111.7</ele>
        <time>2022-01-30T11:27:18Z</time>
      </trkpt>
      <trkpt lat="41.8626080" lon="-2.7695730">
        <ele>1111.8</ele>
        <time>2022-01-30T11:27:19Z</time>
      </trkpt>
      <trkpt lat="41.8625900" lon="-2.7695420">
        <ele>1111.8</ele>
        <time>2022-01-30T11:27:20Z</time>
      </trkpt>
      <trkpt lat="41.8625730" lon="-2.7695070">
        <ele>1111.8</ele>
        <time>2022-01-30T11:27:21Z</time>
      </trkpt>
      <trkpt lat="41.8625570" lon="-2.7694720">
        <ele>1111.9</ele>
        <time>2022-01-30T11:27:22Z</time>
      </trkpt>
      <trkpt lat="41.8625380" lon="-2.7694330">
        <ele>1111.9</ele>
        <time>2022-01-30T11:27:23Z</time>
      </trkpt>
      <trkpt lat="41.8625170" lon="-2.7693920">
        <ele>1111.9</ele>
        <time>2022-01-30T11:27:24Z</time>
      </trkpt>
      <trkpt lat="41.8625000" lon="-2.7693570">
        <ele>1112.0</ele>
        <time>2022-01-30T11:27:25Z</time>
      </trkpt>
      <trkpt lat="41.8624820" lon="-2.7693180">
        <ele>1112.0</ele>
        <time>2022-01-30T11:27:26Z</time>
      </trkpt>
      <trkpt lat="41.8624650" lon="-2.7692770">
        <ele>1112.1</ele>
        <time>2022-01-30T11:27:27Z</time>
      </trkpt>
      <trkpt lat="41.8624530" lon="-2.7692330">
        <ele>1112.2</ele>
        <time>2022-01-30T11:27:28Z</time>
      </trkpt>
      <trkpt lat="41.8624400" lon="-2.7691870">
        <ele>1112.2</ele>
        <time>2022-01-30T11:27:29Z</time>
      </trkpt>
      <trkpt lat="41.8624280" lon="-2.7691430">
        <ele>1112.3</ele>
        <time>2022-01-30T11:27:30Z</time>
      </trkpt>
      <trkpt lat="41.8624120" lon="-2.7691020">
        <ele>1112.4</ele>
        <time>2022-01-30T11:27:31Z</time>
      </trkpt>
      <trkpt lat="41.8623930" lon="-2.7690580">
        <ele>1112.5</ele>
        <time>2022-01-30T11:27:32Z</time>
      </trkpt>
      <trkpt lat="41.8623730" lon="-2.7690170">
        <ele>1112.5</ele>
        <time>2022-01-30T11:27:33Z</time>
      </trkpt>
      <trkpt lat="41.8623530" lon="-2.7689750">
        <ele>1112.6</ele>
        <time>2022-01-30T11:27:34Z</time>
      </trkpt>
      <trkpt lat="41.8623330" lon="-2.7689330">
        <ele>1112.7</ele>
        <time>2022-01-30T11:27:35Z</time>
      </trkpt>
      <trkpt lat="41.8623130" lon="-2.7688970">
        <ele>1112.8</ele>
        <time>2022-01-30T11:27:36Z</time>
      </trkpt>
      <trkpt lat="41.8622930" lon="-2.7688570">
        <ele>1112.9</ele>
        <time>2022-01-30T11:27:37Z</time>
      </trkpt>
      <trkpt lat="41.8622730" lon="-2.7688150">
        <ele>1113.0</ele>
        <time>2022-01-30T11:27:38Z</time>
      </trkpt>
      <trkpt lat="41.8622570" lon="-2.7687720">
        <ele>1113.1</ele>
        <time>2022-01-30T11:27:39Z</time>
      </trkpt>
      <trkpt lat="41.8622380" lon="-2.7687320">
        <ele>1113.2</ele>
        <time>2022-01-30T11:27:40Z</time>
      </trkpt>
      <trkpt lat="41.8622220" lon="-2.7686880">
        <ele>1113.3</ele>
        <time>2022-01-30T11:27:41Z</time>
      </trkpt>
      <trkpt lat="41.8622070" lon="-2.7686450">
        <ele>1113.4</ele>
        <time>2022-01-30T11:27:42Z</time>
      </trkpt>
      <trkpt lat="41.8621950" lon="-2.7686000">
        <ele>1113.5</ele>
        <time>2022-01-30T11:27:43Z</time>
      </trkpt>
      <trkpt lat="41.8621850" lon="-2.7685550">
        <ele>1113.6</ele>
        <time>2022-01-30T11:27:44Z</time>
      </trkpt>
      <trkpt lat="41.8621800" lon="-2.7685100">
        <ele>1113.7</ele>
        <time>2022-01-30T11:27:45Z</time>
      </trkpt>
      <trkpt lat="41.8621770" lon="-2.7684630">
        <ele>1113.9</ele>
        <time>2022-01-30T11:27:46Z</time>
      </trkpt>
      <trkpt lat="41.8621730" lon="-2.7684170">
        <ele>1114.0</ele>
        <time>2022-01-30T11:27:47Z</time>
      </trkpt>
      <trkpt lat="41.8621730" lon="-2.7683720">
        <ele>1114.1</ele>
        <time>2022-01-30T11:27:48Z</time>
      </trkpt>
      <trkpt lat="41.8621800" lon="-2.7683300">
        <ele>1114.3</ele>
        <time>2022-01-30T11:27:49Z</time>
      </trkpt>
      <trkpt lat="41.8621920" lon="-2.7682920">
        <ele>1114.4</ele>
        <time>2022-01-30T11:27:50Z</time>
      </trkpt>
      <trkpt lat="41.8622070" lon="-2.7682570">
        <ele>1114.5</ele>
        <time>2022-01-30T11:27:51Z</time>
      </trkpt>
      <trkpt lat="41.8622230" lon="-2.7682200">
        <ele>1114.6</ele>
        <time>2022-01-30T11:27:52Z</time>
      </trkpt>
      <trkpt lat="41.8622450" lon="-2.7681930">
        <ele>1114.8</ele>
        <time>2022-01-30T11:27:53Z</time>
      </trkpt>
      <trkpt lat="41.8622680" lon="-2.7681650">
        <ele>1114.9</ele>
        <time>2022-01-30T11:27:54Z</time>
      </trkpt>
      <trkpt lat="41.8622950" lon="-2.7681350">
        <ele>1115.1</ele>
        <time>2022-01-30T11:27:55Z</time>
      </trkpt>
      <trkpt lat="41.8623230" lon="-2.7681030">
        <ele>1115.3</ele>
        <time>2022-01-30T11:27:56Z</time>
      </trkpt>
      <trkpt lat="41.8623500" lon="-2.7680770">
        <ele>1115.4</ele>
        <time>2022-01-30T11:27:57Z</time>
      </trkpt>
      <trkpt lat="41.8623770" lon="-2.7680530">
        <ele>1115.6</ele>
        <time>2022-01-30T11:27:58Z</time>
      </trkpt>
      <trkpt lat="41.8624070" lon="-2.7680350">
        <ele>1115.8</ele>
        <time>2022-01-30T11:27:59Z</time>
      </trkpt>
      <trkpt lat="41.8624380" lon="-2.7680120">
        <ele>1115.9</ele>
        <time>2022-01-30T11:28:00Z</time>
      </trkpt>
      <trkpt lat="41.8624670" lon="-2.7679920">
        <ele>1116.1</ele>
        <time>2022-01-30T11:28:01Z</time>
      </trkpt>
      <trkpt lat="41.8624970" lon="-2.7679770">
        <ele>1116.2</ele>
        <time>2022-01-30T11:28:02Z</time>
      </trkpt>
      <trkpt lat="41.8625270" lon="-2.7679600">
        <ele>1116.4</ele>
        <time>2022-01-30T11:28:03Z</time>
      </trkpt>
      <trkpt lat="41.8625530" lon="-2.7679430">
        <ele>1116.5</ele>
        <time>2022-01-30T11:28:04Z</time>
      </trkpt>
      <trkpt lat="41.8625820" lon="-2.7679280">
        <ele>1116.7</ele>
        <time>2022-01-30T11:28:05Z</time>
      </trkpt>
      <trkpt lat="41.8626100" lon="-2.7679120">
        <ele>1116.9</ele>
        <time>2022-01-30T11:28:06Z</time>
      </trkpt>
      <trkpt lat="41.8626370" lon="-2.7678930">
        <ele>1117.1</ele>
        <time>2022-01-30T11:28:07Z</time>
      </trkpt>
      <trkpt lat="41.8626670" lon="-2.7678750">
        <ele>1117.3</ele>
        <time>2022-01-30T11:28:08Z</time>
      </trkpt>
      <trkpt lat="41.8626950" lon="-2.7678570">
        <ele>1117.4</ele>
        <time>2022-01-30T11:28:09Z</time>
      </trkpt>
      <trkpt lat="41.8627230" lon="-2.7678400">
        <ele>1117.6</ele>
        <time>2022-01-30T11:28:10Z</time>
      </trkpt>
      <trkpt lat="41.8627500" lon="-2.7678230">
        <ele>1117.8</ele>
        <time>2022-01-30T11:28:11Z</time>
      </trkpt>
      <trkpt lat="41.8627750" lon="-2.7678080">
        <ele>1118.0</ele>
        <time>2022-01-30T11:28:12Z</time>
      </trkpt>
      <trkpt lat="41.8628050" lon="-2.7677950">
        <ele>1118.2</ele>
        <time>2022-01-30T11:28:13Z</time>
      </trkpt>
      <trkpt lat="41.8628330" lon="-2.7677820">
        <ele>1118.3</ele>
        <time>2022-01-30T11:28:14Z</time>
      </trkpt>
      <trkpt lat="41.8628620" lon="-2.7677700">
        <ele>1118.5</ele>
        <time>2022-01-30T11:28:15Z</time>
      </trkpt>
      <trkpt lat="41.8628920" lon="-2.7677530">
        <ele>1118.7</ele>
        <time>2022-01-30T11:28:16Z</time>
      </trkpt>
      <trkpt lat="41.8629200" lon="-2.7677380">
        <ele>1118.8</ele>
        <time>2022-01-30T11:28:17Z</time>
      </trkpt>
      <trkpt lat="41.8629500" lon="-2.7677200">
        <ele>1119.0</ele>
        <time>2022-01-30T11:28:18Z</time>
      </trkpt>
      <trkpt lat="41.8629800" lon="-2.7677030">
        <ele>1119.1</ele>
        <time>2022-01-30T11:28:19Z</time>
      </trkpt>
      <trkpt lat="41.8630080" lon="-2.7676880">
        <ele>1119.3</ele>
        <time>2022-01-30T11:28:20Z</time>
      </trkpt>
      <trkpt lat="41.8630370" lon="-2.7676700">
        <ele>1119.4</ele>
        <time>2022-01-30T11:28:21Z</time>
      </trkpt>
      <trkpt lat="41.8630620" lon="-2.7676520">
        <ele>1119.6</ele>
        <time>2022-01-30T11:28:22Z</time>
      </trkpt>
      <trkpt lat="41.8630900" lon="-2.7676300">
        <ele>1119.7</ele>
        <time>2022-01-30T11:28:23Z</time>
      </trkpt>
      <trkpt lat="41.8631150" lon="-2.7676030">
        <ele>1119.8</ele>
        <time>2022-01-30T11:28:24Z</time>
      </trkpt>
      <trkpt lat="41.8631370" lon="-2.7675700">
        <ele>1120.0</ele>
        <time>2022-01-30T11:28:25Z</time>
      </trkpt>
      <trkpt lat="41.8631550" lon="-2.7675370">
        <ele>1120.1</ele>
        <time>2022-01-30T11:28:26Z</time>
      </trkpt>
      <trkpt lat="41.8631720" lon="-2.7674980">
        <ele>1120.2</ele>
        <time>2022-01-30T11:28:27Z</time>
      </trkpt>
      <trkpt lat="41.8631850" lon="-2.7674570">
        <ele>1120.4</ele>
        <time>2022-01-30T11:28:28Z</time>
      </trkpt>
      <trkpt lat="41.8631950" lon="-2.7674180">
        <ele>1120.5</ele>
        <time>2022-01-30T11:28:29Z</time>
      </trkpt>
      <trkpt lat="41.8632100" lon="-2.7673820">
        <ele>1120.7</ele>
        <time>2022-01-30T11:28:30Z</time>
      </trkpt>
      <trkpt lat="41.8632280" lon="-2.7673480">
        <ele>1120.9</ele>
        <time>2022-01-30T11:28:31Z</time>
      </trkpt>
      <trkpt lat="41.8632470" lon="-2.7673170">
        <ele>1121.0</ele>
        <time>2022-01-30T11:28:32Z</time>
      </trkpt>
      <trkpt lat="41.8632680" lon="-2.7672850">
        <ele>1121.2</ele>
        <time>2022-01-30T11:28:33Z</time>
      </trkpt>
      <trkpt lat="41.8632920" lon="-2.7672600">
        <ele>1121.4</ele>
        <time>2022-01-30T11:28:34Z</time>
      </trkpt>
      <trkpt lat="41.8633170" lon="-2.7672320">
        <ele>1121.5</ele>
        <time>2022-01-30T11:28:35Z</time>
      </trkpt>
      <trkpt lat="41.8633400" lon="-2.7672030">
        <ele>1121.7</ele>
        <time>2022-01-30T11:28:36Z</time>
      </trkpt>
      <trkpt lat="41.8633630" lon="-2.7671720">
        <ele>1121.8</ele>
        <time>2022-01-30T11:28:37Z</time>
      </trkpt>
      <trkpt lat="41.8633830" lon="-2.7671400">
        <ele>1121.8</ele>
        <time>2022-01-30T11:28:38Z</time>
      </trkpt>
      <trkpt lat="41.8634000" lon="-2.7671070">
        <ele>1121.9</ele>
        <time>2022-01-30T11:28:39Z</time>
      </trkpt>
      <trkpt lat="41.8634100" lon="-2.7670700">
        <ele>1121.9</ele>
        <time>2022-01-30T11:28:40Z</time>
      </trkpt>
      <trkpt lat="41.8634220" lon="-2.7670320">
        <ele>1122.0</ele>
        <time>2022-01-30T11:28:41Z</time>
      </trkpt>
      <trkpt lat="41.8634280" lon="-2.7669930">
        <ele>1122.0</ele>
        <time>2022-01-30T11:28:42Z</time>
      </trkpt>
      <trkpt lat="41.8634350" lon="-2.7669500">
        <ele>1122.0</ele>
        <time>2022-01-30T11:28:43Z</time>
      </trkpt>
      <trkpt lat="41.8634370" lon="-2.7669080">
        <ele>1121.9</ele>
        <time>2022-01-30T11:28:44Z</time>
      </trkpt>
      <trkpt lat="41.8634350" lon="-2.7668650">
        <ele>1121.8</ele>
        <time>2022-01-30T11:28:45Z</time>
      </trkpt>
      <trkpt lat="41.8634300" lon="-2.7668230">
        <ele>1121.8</ele>
        <time>2022-01-30T11:28:46Z</time>
      </trkpt>
      <trkpt lat="41.8634200" lon="-2.7667780">
        <ele>1121.6</ele>
        <time>2022-01-30T11:28:47Z</time>
      </trkpt>
      <trkpt lat="41.8634080" lon="-2.7667330">
        <ele>1121.5</ele>
        <time>2022-01-30T11:28:48Z</time>
      </trkpt>
      <trkpt lat="41.8633900" lon="-2.7666850">
        <ele>1121.3</ele>
        <time>2022-01-30T11:28:49Z</time>
      </trkpt>
      <trkpt lat="41.8633720" lon="-2.7666350">
        <ele>1121.2</ele>
        <time>2022-01-30T11:28:50Z</time>
      </trkpt>
      <trkpt lat="41.8633520" lon="-2.7665830">
        <ele>1120.9</ele>
        <time>2022-01-30T11:28:51Z</time>
      </trkpt>
      <trkpt lat="41.8633300" lon="-2.7665320">
        <ele>1120.7</ele>
        <time>2022-01-30T11:28:52Z</time>
      </trkpt>
      <trkpt lat="41.8633030" lon="-2.7664780">
        <ele>1120.4</ele>
        <time>2022-01-30T11:28:53Z</time>
      </trkpt>
      <trkpt lat="41.8632680" lon="-2.7664320">
        <ele>1120.0</ele>
        <time>2022-01-30T11:28:54Z</time>
      </trkpt>
      <trkpt lat="41.8632270" lon="-2.7663980">
        <ele>1119.6</ele>
        <time>2022-01-30T11:28:55Z</time>
      </trkpt>
      <trkpt lat="41.8631800" lon="-2.7663680">
        <ele>1119.1</ele>
        <time>2022-01-30T11:28:56Z</time>
      </trkpt>
      <trkpt lat="41.8631320" lon="-2.7663300">
        <ele>1118.6</ele>
        <time>2022-01-30T11:28:57Z</time>
      </trkpt>
      <trkpt lat="41.8630920" lon="-2.7662780">
        <ele>1118.1</ele>
        <time>2022-01-30T11:28:58Z</time>
      </trkpt>
      <trkpt lat="41.8630530" lon="-2.7662200">
        <ele>1117.6</ele>
        <time>2022-01-30T11:28:59Z</time>
      </trkpt>
      <trkpt lat="41.8630080" lon="-2.7661570">
        <ele>1117.0</ele>
        <time>2022-01-30T11:29:00Z</time>
      </trkpt>
      <trkpt lat="41.8629620" lon="-2.7660850">
        <ele>1116.2</ele>
        <time>2022-01-30T11:29:01Z</time>
      </trkpt>
      <trkpt lat="41.8629080" lon="-2.7660050">
        <ele>1115.4</ele>
        <time>2022-01-30T11:29:02Z</time>
      </trkpt>
      <trkpt lat="41.8628570" lon="-2.7659220">
        <ele>1114.6</ele>
        <time>2022-01-30T11:29:03Z</time>
      </trkpt>
      <trkpt lat="41.8628070" lon="-2.7658400">
        <ele>1113.8</ele>
        <time>2022-01-30T11:29:04Z</time>
      </trkpt>
      <trkpt lat="41.8627630" lon="-2.7657580">
        <ele>1113.2</ele>
        <time>2022-01-30T11:29:05Z</time>
      </trkpt>
      <trkpt lat="41.8627200" lon="-2.7656620">
        <ele>1112.6</ele>
        <time>2022-01-30T11:29:06Z</time>
      </trkpt>
      <trkpt lat="41.8626950" lon="-2.7655930">
        <ele>1112.2</ele>
        <time>2022-01-30T11:29:07Z</time>
      </trkpt>
      <trkpt lat="41.8626580" lon="-2.7655100">
        <ele>1111.6</ele>
        <time>2022-01-30T11:29:08Z</time>
      </trkpt>
      <trkpt lat="41.8626170" lon="-2.7654280">
        <ele>1111.0</ele>
        <time>2022-01-30T11:29:09Z</time>
      </trkpt>
      <trkpt lat="41.8625770" lon="-2.7653480">
        <ele>1110.4</ele>
        <time>2022-01-30T11:29:10Z</time>
      </trkpt>
      <trkpt lat="41.8625430" lon="-2.7652770">
        <ele>1109.7</ele>
        <time>2022-01-30T11:29:11Z</time>
      </trkpt>
      <trkpt lat="41.8625300" lon="-2.7652120">
        <ele>1109.2</ele>
        <time>2022-01-30T11:29:12Z</time>
      </trkpt>
      <trkpt lat="41.8625330" lon="-2.7651570">
        <ele>1108.7</ele>
        <time>2022-01-30T11:29:13Z</time>
      </trkpt>
      <trkpt lat="41.8625580" lon="-2.7651130">
        <ele>1108.3</ele>
        <time>2022-01-30T11:29:14Z</time>
      </trkpt>
      <trkpt lat="41.8625920" lon="-2.7650670">
        <ele>1107.7</ele>
        <time>2022-01-30T11:29:15Z</time>
      </trkpt>
      <trkpt lat="41.8626370" lon="-2.7650050">
        <ele>1107.1</ele>
        <time>2022-01-30T11:29:16Z</time>
      </trkpt>
      <trkpt lat="41.8626750" lon="-2.7649480">
        <ele>1106.7</ele>
        <time>2022-01-30T11:29:17Z</time>
      </trkpt>
      <trkpt lat="41.8627250" lon="-2.7648850">
        <ele>1106.1</ele>
        <time>2022-01-30T11:29:18Z</time>
      </trkpt>
      <trkpt lat="41.8627730" lon="-2.7648220">
        <ele>1105.7</ele>
        <time>2022-01-30T11:29:19Z</time>
      </trkpt>
      <trkpt lat="41.8628270" lon="-2.7647530">
        <ele>1105.1</ele>
        <time>2022-01-30T11:29:20Z</time>
      </trkpt>
      <trkpt lat="41.8628780" lon="-2.7646800">
        <ele>1104.7</ele>
        <time>2022-01-30T11:29:21Z</time>
      </trkpt>
      <trkpt lat="41.8629270" lon="-2.7646050">
        <ele>1104.2</ele>
        <time>2022-01-30T11:29:22Z</time>
      </trkpt>
      <trkpt lat="41.8629750" lon="-2.7645300">
        <ele>1103.8</ele>
        <time>2022-01-30T11:29:23Z</time>
      </trkpt>
      <trkpt lat="41.8630200" lon="-2.7644520">
        <ele>1103.4</ele>
        <time>2022-01-30T11:29:24Z</time>
      </trkpt>
      <trkpt lat="41.8630620" lon="-2.7643720">
        <ele>1103.1</ele>
        <time>2022-01-30T11:29:25Z</time>
      </trkpt>
      <trkpt lat="41.8631020" lon="-2.7642920">
        <ele>1103.0</ele>
        <time>2022-01-30T11:29:26Z</time>
      </trkpt>
      <trkpt lat="41.8631400" lon="-2.7642120">
        <ele>1102.9</ele>
        <time>2022-01-30T11:29:27Z</time>
      </trkpt>
      <trkpt lat="41.8631770" lon="-2.7641380">
        <ele>1103.0</ele>
        <time>2022-01-30T11:29:28Z</time>
      </trkpt>
      <trkpt lat="41.8632180" lon="-2.7640700">
        <ele>1103.2</ele>
        <time>2022-01-30T11:29:29Z</time>
      </trkpt>
      <trkpt lat="41.8632580" lon="-2.7640070">
        <ele>1103.3</ele>
        <time>2022-01-30T11:29:30Z</time>
      </trkpt>
      <trkpt lat="41.8632970" lon="-2.7639480">
        <ele>1103.5</ele>
        <time>2022-01-30T11:29:31Z</time>
      </trkpt>
      <trkpt lat="41.8633330" lon="-2.7638970">
        <ele>1103.5</ele>
        <time>2022-01-30T11:29:32Z</time>
      </trkpt>
      <trkpt lat="41.8633700" lon="-2.7638480">
        <ele>1103.4</ele>
        <time>2022-01-30T11:29:33Z</time>
      </trkpt>
      <trkpt lat="41.8634100" lon="-2.7638020">
        <ele>1103.3</ele>
        <time>2022-01-30T11:29:34Z</time>
      </trkpt>
      <trkpt lat="41.8634530" lon="-2.7637530">
        <ele>1103.1</ele>
        <time>2022-01-30T11:29:35Z</time>
      </trkpt>
      <trkpt lat="41.8634930" lon="-2.7637030">
        <ele>1102.9</ele>
        <time>2022-01-30T11:29:36Z</time>
      </trkpt>
      <trkpt lat="41.8635330" lon="-2.7636450">
        <ele>1102.7</ele>
        <time>2022-01-30T11:29:37Z</time>
      </trkpt>
      <trkpt lat="41.8635720" lon="-2.7635830">
        <ele>1102.6</ele>
        <time>2022-01-30T11:29:38Z</time>
      </trkpt>
      <trkpt lat="41.8636030" lon="-2.7635200">
        <ele>1102.6</ele>
        <time>2022-01-30T11:29:39Z</time>
      </trkpt>
      <trkpt lat="41.8636270" lon="-2.7634550">
        <ele>1102.6</ele>
        <time>2022-01-30T11:29:40Z</time>
      </trkpt>
      <trkpt lat="41.8636450" lon="-2.7633920">
        <ele>1102.5</ele>
        <time>2022-01-30T11:29:41Z</time>
      </trkpt>
      <trkpt lat="41.8636600" lon="-2.7633300">
        <ele>1102.5</ele>
        <time>2022-01-30T11:29:42Z</time>
      </trkpt>
      <trkpt lat="41.8636770" lon="-2.7632670">
        <ele>1102.5</ele>
        <time>2022-01-30T11:29:43Z</time>
      </trkpt>
      <trkpt lat="41.8636900" lon="-2.7632020">
        <ele>1102.5</ele>
        <time>2022-01-30T11:29:44Z</time>
      </trkpt>
      <trkpt lat="41.8637050" lon="-2.7631350">
        <ele>1102.5</ele>
        <time>2022-01-30T11:29:45Z</time>
      </trkpt>
      <trkpt lat="41.8637200" lon="-2.7630720">
        <ele>1102.5</ele>
        <time>2022-01-30T11:29:46Z</time>
      </trkpt>
      <trkpt lat="41.8637350" lon="-2.7630080">
        <ele>1102.5</ele>
        <time>2022-01-30T11:29:47Z</time>
      </trkpt>
      <trkpt lat="41.8637480" lon="-2.7629480">
        <ele>1102.5</ele>
        <time>2022-01-30T11:29:48Z</time>
      </trkpt>
      <trkpt lat="41.8637580" lon="-2.7628880">
        <ele>1102.6</ele>
        <time>2022-01-30T11:29:49Z</time>
      </trkpt>
      <trkpt lat="41.8637650" lon="-2.7628280">
        <ele>1102.6</ele>
        <time>2022-01-30T11:29:50Z</time>
      </trkpt>
      <trkpt lat="41.8637720" lon="-2.7627700">
        <ele>1102.6</ele>
        <time>2022-01-30T11:29:51Z</time>
      </trkpt>
      <trkpt lat="41.8637800" lon="-2.7627130">
        <ele>1102.7</ele>
        <time>2022-01-30T11:29:52Z</time>
      </trkpt>
      <trkpt lat="41.8637900" lon="-2.7626630">
        <ele>1102.7</ele>
        <time>2022-01-30T11:29:53Z</time>
      </trkpt>
      <trkpt lat="41.8638050" lon="-2.7626220">
        <ele>1102.8</ele>
        <time>2022-01-30T11:29:54Z</time>
      </trkpt>
      <trkpt lat="41.8638250" lon="-2.7625800">
        <ele>1102.8</ele>
        <time>2022-01-30T11:29:55Z</time>
      </trkpt>
      <trkpt lat="41.8638500" lon="-2.7625420">
        <ele>1102.9</ele>
        <time>2022-01-30T11:29:56Z</time>
      </trkpt>
      <trkpt lat="41.8638750" lon="-2.7625030">
        <ele>1103.0</ele>
        <time>2022-01-30T11:29:57Z</time>
      </trkpt>
      <trkpt lat="41.8639020" lon="-2.7624630">
        <ele>1103.1</ele>
        <time>2022-01-30T11:29:58Z</time>
      </trkpt>
      <trkpt lat="41.8639250" lon="-2.7624250">
        <ele>1103.3</ele>
        <time>2022-01-30T11:29:59Z</time>
      </trkpt>
      <trkpt lat="41.8639470" lon="-2.7623880">
        <ele>1103.5</ele>
        <time>2022-01-30T11:30:00Z</time>
      </trkpt>
      <trkpt lat="41.8639670" lon="-2.7623570">
        <ele>1103.6</ele>
        <time>2022-01-30T11:30:01Z</time>
      </trkpt>
      <trkpt lat="41.8639850" lon="-2.7623180">
        <ele>1103.9</ele>
        <time>2022-01-30T11:30:02Z</time>
      </trkpt>
      <trkpt lat="41.8639970" lon="-2.7622930">
        <ele>1104.0</ele>
        <time>2022-01-30T11:30:03Z</time>
      </trkpt>
      <trkpt lat="41.8640130" lon="-2.7622630">
        <ele>1104.2</ele>
        <time>2022-01-30T11:30:04Z</time>
      </trkpt>
      <trkpt lat="41.8640320" lon="-2.7622320">
        <ele>1104.4</ele>
        <time>2022-01-30T11:30:05Z</time>
      </trkpt>
      <trkpt lat="41.8640500" lon="-2.7622000">
        <ele>1104.5</ele>
        <time>2022-01-30T11:30:06Z</time>
      </trkpt>
      <trkpt lat="41.8640700" lon="-2.7621670">
        <ele>1104.7</ele>
        <time>2022-01-30T11:30:07Z</time>
      </trkpt>
      <trkpt lat="41.8640920" lon="-2.7621320">
        <ele>1104.9</ele>
        <time>2022-01-30T11:30:08Z</time>
      </trkpt>
      <trkpt lat="41.8641120" lon="-2.7620950">
        <ele>1105.1</ele>
        <time>2022-01-30T11:30:09Z</time>
      </trkpt>
      <trkpt lat="41.8641330" lon="-2.7620600">
        <ele>1105.3</ele>
        <time>2022-01-30T11:30:10Z</time>
      </trkpt>
      <trkpt lat="41.8641520" lon="-2.7620250">
        <ele>1105.4</ele>
        <time>2022-01-30T11:30:11Z</time>
      </trkpt>
      <trkpt lat="41.8641720" lon="-2.7619920">
        <ele>1105.5</ele>
        <time>2022-01-30T11:30:12Z</time>
      </trkpt>
      <trkpt lat="41.8641920" lon="-2.7619580">
        <ele>1105.5</ele>
        <time>2022-01-30T11:30:13Z</time>
      </trkpt>
      <trkpt lat="41.8642130" lon="-2.7619220">
        <ele>1105.6</ele>
        <time>2022-01-30T11:30:14Z</time>
      </trkpt>
      <trkpt lat="41.8642330" lon="-2.7618830">
        <ele>1105.7</ele>
        <time>2022-01-30T11:30:15Z</time>
      </trkpt>
      <trkpt lat="41.8642550" lon="-2.7618430">
        <ele>1105.7</ele>
        <time>2022-01-30T11:30:16Z</time>
      </trkpt>
      <trkpt lat="41.8642770" lon="-2.7618070">
        <ele>1105.8</ele>
        <time>2022-01-30T11:30:17Z</time>
      </trkpt>
      <trkpt lat="41.8642970" lon="-2.7617670">
        <ele>1105.9</ele>
        <time>2022-01-30T11:30:18Z</time>
      </trkpt>
      <trkpt lat="41.8643170" lon="-2.7617280">
        <ele>1106.0</ele>
        <time>2022-01-30T11:30:19Z</time>
      </trkpt>
      <trkpt lat="41.8643380" lon="-2.7616920">
        <ele>1106.1</ele>
        <time>2022-01-30T11:30:20Z</time>
      </trkpt>
      <trkpt lat="41.8643600" lon="-2.7616550">
        <ele>1106.2</ele>
        <time>2022-01-30T11:30:21Z</time>
      </trkpt>
      <trkpt lat="41.8643780" lon="-2.7616130">
        <ele>1106.3</ele>
        <time>2022-01-30T11:30:22Z</time>
      </trkpt>
      <trkpt lat="41.8643950" lon="-2.7615750">
        <ele>1106.3</ele>
        <time>2022-01-30T11:30:23Z</time>
      </trkpt>
      <trkpt lat="41.8644130" lon="-2.7615330">
        <ele>1106.4</ele>
        <time>2022-01-30T11:30:24Z</time>
      </trkpt>
      <trkpt lat="41.8644300" lon="-2.7614920">
        <ele>1106.4</ele>
        <time>2022-01-30T11:30:25Z</time>
      </trkpt>
      <trkpt lat="41.8644430" lon="-2.7614520">
        <ele>1106.5</ele>
        <time>2022-01-30T11:30:26Z</time>
      </trkpt>
      <trkpt lat="41.8644530" lon="-2.7614050">
        <ele>1106.5</ele>
        <time>2022-01-30T11:30:27Z</time>
      </trkpt>
      <trkpt lat="41.8644620" lon="-2.7613580">
        <ele>1106.6</ele>
        <time>2022-01-30T11:30:28Z</time>
      </trkpt>
      <trkpt lat="41.8644680" lon="-2.7613100">
        <ele>1106.7</ele>
        <time>2022-01-30T11:30:29Z</time>
      </trkpt>
      <trkpt lat="41.8644670" lon="-2.7612630">
        <ele>1106.7</ele>
        <time>2022-01-30T11:30:30Z</time>
      </trkpt>
      <trkpt lat="41.8644630" lon="-2.7612150">
        <ele>1106.8</ele>
        <time>2022-01-30T11:30:31Z</time>
      </trkpt>
      <trkpt lat="41.8644570" lon="-2.7611700">
        <ele>1106.9</ele>
        <time>2022-01-30T11:30:32Z</time>
      </trkpt>
      <trkpt lat="41.8644500" lon="-2.7611250">
        <ele>1106.9</ele>
        <time>2022-01-30T11:30:33Z</time>
      </trkpt>
      <trkpt lat="41.8644450" lon="-2.7610780">
        <ele>1107.0</ele>
        <time>2022-01-30T11:30:34Z</time>
      </trkpt>
      <trkpt lat="41.8644380" lon="-2.7610330">
        <ele>1107.1</ele>
        <time>2022-01-30T11:30:35Z</time>
      </trkpt>
      <trkpt lat="41.8644320" lon="-2.7609850">
        <ele>1107.1</ele>
        <time>2022-01-30T11:30:36Z</time>
      </trkpt>
      <trkpt lat="41.8644280" lon="-2.7609370">
        <ele>1107.2</ele>
        <time>2022-01-30T11:30:37Z</time>
      </trkpt>
      <trkpt lat="41.8644250" lon="-2.7608880">
        <ele>1107.2</ele>
        <time>2022-01-30T11:30:38Z</time>
      </trkpt>
      <trkpt lat="41.8644230" lon="-2.7608400">
        <ele>1107.2</ele>
        <time>2022-01-30T11:30:39Z</time>
      </trkpt>
      <trkpt lat="41.8644200" lon="-2.7607900">
        <ele>1107.3</ele>
        <time>2022-01-30T11:30:40Z</time>
      </trkpt>
      <trkpt lat="41.8644150" lon="-2.7607400">
        <ele>1107.3</ele>
        <time>2022-01-30T11:30:41Z</time>
      </trkpt>
      <trkpt lat="41.8644080" lon="-2.7606880">
        <ele>1107.3</ele>
        <time>2022-01-30T11:30:42Z</time>
      </trkpt>
      <trkpt lat="41.8644000" lon="-2.7606350">
        <ele>1107.4</ele>
        <time>2022-01-30T11:30:43Z</time>
      </trkpt>
      <trkpt lat="41.8643920" lon="-2.7605770">
        <ele>1107.4</ele>
        <time>2022-01-30T11:30:44Z</time>
      </trkpt>
      <trkpt lat="41.8643800" lon="-2.7605180">
        <ele>1107.5</ele>
        <time>2022-01-30T11:30:45Z</time>
      </trkpt>
      <trkpt lat="41.8643650" lon="-2.7604620">
        <ele>1107.6</ele>
        <time>2022-01-30T11:30:46Z</time>
      </trkpt>
      <trkpt lat="41.8643500" lon="-2.7604070">
        <ele>1107.7</ele>
        <time>2022-01-30T11:30:47Z</time>
      </trkpt>
      <trkpt lat="41.8643320" lon="-2.7603550">
        <ele>1107.8</ele>
        <time>2022-01-30T11:30:48Z</time>
      </trkpt>
      <trkpt lat="41.8643130" lon="-2.7603020">
        <ele>1107.9</ele>
        <time>2022-01-30T11:30:49Z</time>
      </trkpt>
      <trkpt lat="41.8642980" lon="-2.7602500">
        <ele>1107.9</ele>
        <time>2022-01-30T11:30:50Z</time>
      </trkpt>
      <trkpt lat="41.8642880" lon="-2.7601970">
        <ele>1108.0</ele>
        <time>2022-01-30T11:30:51Z</time>
      </trkpt>
      <trkpt lat="41.8642820" lon="-2.7601450">
        <ele>1108.1</ele>
        <time>2022-01-30T11:30:52Z</time>
      </trkpt>
      <trkpt lat="41.8642750" lon="-2.7600920">
        <ele>1108.2</ele>
        <time>2022-01-30T11:30:53Z</time>
      </trkpt>
      <trkpt lat="41.8642730" lon="-2.7600370">
        <ele>1108.3</ele>
        <time>2022-01-30T11:30:54Z</time>
      </trkpt>
      <trkpt lat="41.8642770" lon="-2.7599830">
        <ele>1108.4</ele>
        <time>2022-01-30T11:30:55Z</time>
      </trkpt>
      <trkpt lat="41.8642820" lon="-2.7599280">
        <ele>1108.6</ele>
        <time>2022-01-30T11:30:56Z</time>
      </trkpt>
      <trkpt lat="41.8642880" lon="-2.7598730">
        <ele>1108.8</ele>
        <time>2022-01-30T11:30:57Z</time>
      </trkpt>
      <trkpt lat="41.8642930" lon="-2.7598230">
        <ele>1109.0</ele>
        <time>2022-01-30T11:30:58Z</time>
      </trkpt>
      <trkpt lat="41.8643020" lon="-2.7597700">
        <ele>1109.2</ele>
        <time>2022-01-30T11:30:59Z</time>
      </trkpt>
      <trkpt lat="41.8643150" lon="-2.7597220">
        <ele>1109.4</ele>
        <time>2022-01-30T11:31:00Z</time>
      </trkpt>
      <trkpt lat="41.8643330" lon="-2.7596670">
        <ele>1109.6</ele>
        <time>2022-01-30T11:31:01Z</time>
      </trkpt>
      <trkpt lat="41.8643530" lon="-2.7596230">
        <ele>1109.8</ele>
        <time>2022-01-30T11:31:02Z</time>
      </trkpt>
      <trkpt lat="41.8643770" lon="-2.7595820">
        <ele>1109.9</ele>
        <time>2022-01-30T11:31:03Z</time>
      </trkpt>
      <trkpt lat="41.8644030" lon="-2.7595450">
        <ele>1110.0</ele>
        <time>2022-01-30T11:31:04Z</time>
      </trkpt>
      <trkpt lat="41.8644330" lon="-2.7595070">
        <ele>1110.2</ele>
        <time>2022-01-30T11:31:05Z</time>
      </trkpt>
      <trkpt lat="41.8644600" lon="-2.7594650">
        <ele>1110.3</ele>
        <time>2022-01-30T11:31:06Z</time>
      </trkpt>
      <trkpt lat="41.8644850" lon="-2.7594230">
        <ele>1110.4</ele>
        <time>2022-01-30T11:31:07Z</time>
      </trkpt>
      <trkpt lat="41.8645100" lon="-2.7593780">
        <ele>1110.5</ele>
        <time>2022-01-30T11:31:08Z</time>
      </trkpt>
      <trkpt lat="41.8645370" lon="-2.7593350">
        <ele>1110.6</ele>
        <time>2022-01-30T11:31:09Z</time>
      </trkpt>
      <trkpt lat="41.8645620" lon="-2.7592930">
        <ele>1110.7</ele>
        <time>2022-01-30T11:31:10Z</time>
      </trkpt>
      <trkpt lat="41.8645900" lon="-2.7592570">
        <ele>1110.8</ele>
        <time>2022-01-30T11:31:11Z</time>
      </trkpt>
      <trkpt lat="41.8646180" lon="-2.7592200">
        <ele>1110.9</ele>
        <time>2022-01-30T11:31:12Z</time>
      </trkpt>
      <trkpt lat="41.8646470" lon="-2.7591870">
        <ele>1111.1</ele>
        <time>2022-01-30T11:31:13Z</time>
      </trkpt>
      <trkpt lat="41.8646730" lon="-2.7591530">
        <ele>1111.3</ele>
        <time>2022-01-30T11:31:14Z</time>
      </trkpt>
      <trkpt lat="41.8646980" lon="-2.7591150">
        <ele>1111.5</ele>
        <time>2022-01-30T11:31:15Z</time>
      </trkpt>
      <trkpt lat="41.8647230" lon="-2.7590770">
        <ele>1111.7</ele>
        <time>2022-01-30T11:31:16Z</time>
      </trkpt>
      <trkpt lat="41.8647470" lon="-2.7590370">
        <ele>1111.9</ele>
        <time>2022-01-30T11:31:17Z</time>
      </trkpt>
      <trkpt lat="41.8647720" lon="-2.7589980">
        <ele>1112.1</ele>
        <time>2022-01-30T11:31:18Z</time>
      </trkpt>
      <trkpt lat="41.8647950" lon="-2.7589650">
        <ele>1112.3</ele>
        <time>2022-01-30T11:31:19Z</time>
      </trkpt>
      <trkpt lat="41.8648180" lon="-2.7589320">
        <ele>1112.5</ele>
        <time>2022-01-30T11:31:20Z</time>
      </trkpt>
      <trkpt lat="41.8648430" lon="-2.7589000">
        <ele>1112.6</ele>
        <time>2022-01-30T11:31:21Z</time>
      </trkpt>
      <trkpt lat="41.8648630" lon="-2.7588680">
        <ele>1112.8</ele>
        <time>2022-01-30T11:31:22Z</time>
      </trkpt>
      <trkpt lat="41.8648870" lon="-2.7588330">
        <ele>1113.0</ele>
        <time>2022-01-30T11:31:23Z</time>
      </trkpt>
      <trkpt lat="41.8649080" lon="-2.7588020">
        <ele>1113.2</ele>
        <time>2022-01-30T11:31:24Z</time>
      </trkpt>
      <trkpt lat="41.8649270" lon="-2.7587680">
        <ele>1113.3</ele>
        <time>2022-01-30T11:31:25Z</time>
      </trkpt>
      <trkpt lat="41.8649420" lon="-2.7587330">
        <ele>1113.5</ele>
        <time>2022-01-30T11:31:26Z</time>
      </trkpt>
      <trkpt lat="41.8649550" lon="-2.7586980">
        <ele>1113.7</ele>
        <time>2022-01-30T11:31:27Z</time>
      </trkpt>
      <trkpt lat="41.8649670" lon="-2.7586600">
        <ele>1113.9</ele>
        <time>2022-01-30T11:31:28Z</time>
      </trkpt>
      <trkpt lat="41.8649750" lon="-2.7586220">
        <ele>1114.1</ele>
        <time>2022-01-30T11:31:29Z</time>
      </trkpt>
      <trkpt lat="41.8649830" lon="-2.7585850">
        <ele>1114.3</ele>
        <time>2022-01-30T11:31:30Z</time>
      </trkpt>
      <trkpt lat="41.8649870" lon="-2.7585430">
        <ele>1114.5</ele>
        <time>2022-01-30T11:31:31Z</time>
      </trkpt>
      <trkpt lat="41.8649900" lon="-2.7585020">
        <ele>1114.7</ele>
        <time>2022-01-30T11:31:32Z</time>
      </trkpt>
      <trkpt lat="41.8649970" lon="-2.7584620">
        <ele>1114.9</ele>
        <time>2022-01-30T11:31:33Z</time>
      </trkpt>
      <trkpt lat="41.8650030" lon="-2.7584230">
        <ele>1115.1</ele>
        <time>2022-01-30T11:31:34Z</time>
      </trkpt>
      <trkpt lat="41.8650130" lon="-2.7583850">
        <ele>1115.3</ele>
        <time>2022-01-30T11:31:35Z</time>
      </trkpt>
      <trkpt lat="41.8650280" lon="-2.7583450">
        <ele>1115.6</ele>
        <time>2022-01-30T11:31:36Z</time>
      </trkpt>
      <trkpt lat="41.8650450" lon="-2.7583050">
        <ele>1115.8</ele>
        <time>2022-01-30T11:31:37Z</time>
      </trkpt>
      <trkpt lat="41.8650600" lon="-2.7582670">
        <ele>1116.1</ele>
        <time>2022-01-30T11:31:38Z</time>
      </trkpt>
      <trkpt lat="41.8650750" lon="-2.7582280">
        <ele>1116.3</ele>
        <time>2022-01-30T11:31:39Z</time>
      </trkpt>
      <trkpt lat="41.8650900" lon="-2.7581880">
        <ele>1116.5</ele>
        <time>2022-01-30T11:31:40Z</time>
      </trkpt>
      <trkpt lat="41.8651050" lon="-2.7581470">
        <ele>1116.7</ele>
        <time>2022-01-30T11:31:41Z</time>
      </trkpt>
      <trkpt lat="41.8651180" lon="-2.7581050">
        <ele>1117.0</ele>
        <time>2022-01-30T11:31:42Z</time>
      </trkpt>
      <trkpt lat="41.8651320" lon="-2.7580600">
        <ele>1117.2</ele>
        <time>2022-01-30T11:31:43Z</time>
      </trkpt>
      <trkpt lat="41.8651470" lon="-2.7580180">
        <ele>1117.4</ele>
        <time>2022-01-30T11:31:44Z</time>
      </trkpt>
      <trkpt lat="41.8651630" lon="-2.7579780">
        <ele>1117.5</ele>
        <time>2022-01-30T11:31:45Z</time>
      </trkpt>
      <trkpt lat="41.8651780" lon="-2.7579400">
        <ele>1117.7</ele>
        <time>2022-01-30T11:31:46Z</time>
      </trkpt>
      <trkpt lat="41.8651930" lon="-2.7579000">
        <ele>1117.8</ele>
        <time>2022-01-30T11:31:47Z</time>
      </trkpt>
      <trkpt lat="41.8652100" lon="-2.7578600">
        <ele>1117.9</ele>
        <time>2022-01-30T11:31:48Z</time>
      </trkpt>
      <trkpt lat="41.8652250" lon="-2.7578170">
        <ele>1118.1</ele>
        <time>2022-01-30T11:31:49Z</time>
      </trkpt>
      <trkpt lat="41.8652350" lon="-2.7577720">
        <ele>1118.2</ele>
        <time>2022-01-30T11:31:50Z</time>
      </trkpt>
      <trkpt lat="41.8652450" lon="-2.7577250">
        <ele>1118.3</ele>
        <time>2022-01-30T11:31:51Z</time>
      </trkpt>
      <trkpt lat="41.8652520" lon="-2.7576820">
        <ele>1118.4</ele>
        <time>2022-01-30T11:31:52Z</time>
      </trkpt>
      <trkpt lat="41.8652630" lon="-2.7576370">
        <ele>1118.5</ele>
        <time>2022-01-30T11:31:53Z</time>
      </trkpt>
      <trkpt lat="41.8652730" lon="-2.7575900">
        <ele>1118.5</ele>
        <time>2022-01-30T11:31:54Z</time>
      </trkpt>
      <trkpt lat="41.8652870" lon="-2.7575430">
        <ele>1118.6</ele>
        <time>2022-01-30T11:31:55Z</time>
      </trkpt>
      <trkpt lat="41.8653030" lon="-2.7574980">
        <ele>1118.7</ele>
        <time>2022-01-30T11:31:56Z</time>
      </trkpt>
      <trkpt lat="41.8653220" lon="-2.7574580">
        <ele>1118.8</ele>
        <time>2022-01-30T11:31:57Z</time>
      </trkpt>
      <trkpt lat="41.8653430" lon="-2.7574150">
        <ele>1118.9</ele>
        <time>2022-01-30T11:31:58Z</time>
      </trkpt>
      <trkpt lat="41.8653680" lon="-2.7573700">
        <ele>1119.0</ele>
        <time>2022-01-30T11:31:59Z</time>
      </trkpt>
      <trkpt lat="41.8653930" lon="-2.7573280">
        <ele>1119.0</ele>
        <time>2022-01-30T11:32:00Z</time>
      </trkpt>
      <trkpt lat="41.8654200" lon="-2.7572950">
        <ele>1119.1</ele>
        <time>2022-01-30T11:32:01Z</time>
      </trkpt>
      <trkpt lat="41.8654470" lon="-2.7572580">
        <ele>1119.1</ele>
        <time>2022-01-30T11:32:02Z</time>
      </trkpt>
      <trkpt lat="41.8654730" lon="-2.7572220">
        <ele>1119.1</ele>
        <time>2022-01-30T11:32:03Z</time>
      </trkpt>
      <trkpt lat="41.8655000" lon="-2.7571850">
        <ele>1119.2</ele>
        <time>2022-01-30T11:32:04Z</time>
      </trkpt>
      <trkpt lat="41.8655270" lon="-2.7571480">
        <ele>1119.1</ele>
        <time>2022-01-30T11:32:05Z</time>
      </trkpt>
      <trkpt lat="41.8655530" lon="-2.7571050">
        <ele>1119.1</ele>
        <time>2022-01-30T11:32:06Z</time>
      </trkpt>
      <trkpt lat="41.8655750" lon="-2.7570570">
        <ele>1119.0</ele>
        <time>2022-01-30T11:32:07Z</time>
      </trkpt>
      <trkpt lat="41.8655970" lon="-2.7570070">
        <ele>1118.9</ele>
        <time>2022-01-30T11:32:08Z</time>
      </trkpt>
      <trkpt lat="41.8656180" lon="-2.7569520">
        <ele>1118.8</ele>
        <time>2022-01-30T11:32:09Z</time>
      </trkpt>
      <trkpt lat="41.8656420" lon="-2.7568970">
        <ele>1118.7</ele>
        <time>2022-01-30T11:32:10Z</time>
      </trkpt>
      <trkpt lat="41.8656680" lon="-2.7568420">
        <ele>1118.7</ele>
        <time>2022-01-30T11:32:11Z</time>
      </trkpt>
      <trkpt lat="41.8656950" lon="-2.7567870">
        <ele>1118.6</ele>
        <time>2022-01-30T11:32:12Z</time>
      </trkpt>
      <trkpt lat="41.8657250" lon="-2.7567320">
        <ele>1118.6</ele>
        <time>2022-01-30T11:32:13Z</time>
      </trkpt>
      <trkpt lat="41.8657580" lon="-2.7566780">
        <ele>1118.5</ele>
        <time>2022-01-30T11:32:14Z</time>
      </trkpt>
      <trkpt lat="41.8657920" lon="-2.7566300">
        <ele>1118.4</ele>
        <time>2022-01-30T11:32:15Z</time>
      </trkpt>
      <trkpt lat="41.8658280" lon="-2.7565830">
        <ele>1118.3</ele>
        <time>2022-01-30T11:32:16Z</time>
      </trkpt>
      <trkpt lat="41.8658620" lon="-2.7565350">
        <ele>1118.2</ele>
        <time>2022-01-30T11:32:17Z</time>
      </trkpt>
      <trkpt lat="41.8658950" lon="-2.7564830">
        <ele>1118.1</ele>
        <time>2022-01-30T11:32:18Z</time>
      </trkpt>
      <trkpt lat="41.8659280" lon="-2.7564330">
        <ele>1118.1</ele>
        <time>2022-01-30T11:32:19Z</time>
      </trkpt>
      <trkpt lat="41.8659620" lon="-2.7563820">
        <ele>1118.1</ele>
        <time>2022-01-30T11:32:20Z</time>
      </trkpt>
      <trkpt lat="41.8659980" lon="-2.7563300">
        <ele>1118.1</ele>
        <time>2022-01-30T11:32:21Z</time>
      </trkpt>
      <trkpt lat="41.8660370" lon="-2.7562770">
        <ele>1118.0</ele>
        <time>2022-01-30T11:32:22Z</time>
      </trkpt>
      <trkpt lat="41.8660780" lon="-2.7562270">
        <ele>1117.9</ele>
        <time>2022-01-30T11:32:23Z</time>
      </trkpt>
      <trkpt lat="41.8661230" lon="-2.7561750">
        <ele>1117.7</ele>
        <time>2022-01-30T11:32:24Z</time>
      </trkpt>
      <trkpt lat="41.8661680" lon="-2.7561270">
        <ele>1117.5</ele>
        <time>2022-01-30T11:32:25Z</time>
      </trkpt>
      <trkpt lat="41.8662120" lon="-2.7560780">
        <ele>1117.3</ele>
        <time>2022-01-30T11:32:26Z</time>
      </trkpt>
      <trkpt lat="41.8662570" lon="-2.7560300">
        <ele>1117.1</ele>
        <time>2022-01-30T11:32:27Z</time>
      </trkpt>
      <trkpt lat="41.8663020" lon="-2.7559850">
        <ele>1117.0</ele>
        <time>2022-01-30T11:32:28Z</time>
      </trkpt>
      <trkpt lat="41.8663450" lon="-2.7559400">
        <ele>1116.9</ele>
        <time>2022-01-30T11:32:29Z</time>
      </trkpt>
      <trkpt lat="41.8663900" lon="-2.7558920">
        <ele>1116.8</ele>
        <time>2022-01-30T11:32:30Z</time>
      </trkpt>
      <trkpt lat="41.8664320" lon="-2.7558380">
        <ele>1116.6</ele>
        <time>2022-01-30T11:32:31Z</time>
      </trkpt>
      <trkpt lat="41.8664750" lon="-2.7557850">
        <ele>1116.5</ele>
        <time>2022-01-30T11:32:32Z</time>
      </trkpt>
      <trkpt lat="41.8665180" lon="-2.7557330">
        <ele>1116.4</ele>
        <time>2022-01-30T11:32:33Z</time>
      </trkpt>
      <trkpt lat="41.8665580" lon="-2.7556750">
        <ele>1116.2</ele>
        <time>2022-01-30T11:32:34Z</time>
      </trkpt>
      <trkpt lat="41.8665980" lon="-2.7556170">
        <ele>1116.1</ele>
        <time>2022-01-30T11:32:35Z</time>
      </trkpt>
      <trkpt lat="41.8666350" lon="-2.7555600">
        <ele>1115.9</ele>
        <time>2022-01-30T11:32:36Z</time>
      </trkpt>
      <trkpt lat="41.8666730" lon="-2.7555070">
        <ele>1115.8</ele>
        <time>2022-01-30T11:32:37Z</time>
      </trkpt>
      <trkpt lat="41.8667150" lon="-2.7554570">
        <ele>1115.6</ele>
        <time>2022-01-30T11:32:38Z</time>
      </trkpt>
      <trkpt lat="41.8667580" lon="-2.7554100">
        <ele>1115.4</ele>
        <time>2022-01-30T11:32:39Z</time>
      </trkpt>
      <trkpt lat="41.8668020" lon="-2.7553620">
        <ele>1115.3</ele>
        <time>2022-01-30T11:32:40Z</time>
      </trkpt>
      <trkpt lat="41.8668450" lon="-2.7553130">
        <ele>1115.1</ele>
        <time>2022-01-30T11:32:41Z</time>
      </trkpt>
      <trkpt lat="41.8668920" lon="-2.7552680">
        <ele>1115.0</ele>
        <time>2022-01-30T11:32:42Z</time>
      </trkpt>
      <trkpt lat="41.8669420" lon="-2.7552270">
        <ele>1114.9</ele>
        <time>2022-01-30T11:32:43Z</time>
      </trkpt>
      <trkpt lat="41.8669930" lon="-2.7551930">
        <ele>1114.7</ele>
        <time>2022-01-30T11:32:44Z</time>
      </trkpt>
      <trkpt lat="41.8670500" lon="-2.7551650">
        <ele>1114.6</ele>
        <time>2022-01-30T11:32:45Z</time>
      </trkpt>
      <trkpt lat="41.8671080" lon="-2.7551380">
        <ele>1114.5</ele>
        <time>2022-01-30T11:32:46Z</time>
      </trkpt>
      <trkpt lat="41.8671680" lon="-2.7551120">
        <ele>1114.5</ele>
        <time>2022-01-30T11:32:47Z</time>
      </trkpt>
      <trkpt lat="41.8672280" lon="-2.7550800">
        <ele>1114.4</ele>
        <time>2022-01-30T11:32:48Z</time>
      </trkpt>
      <trkpt lat="41.8672850" lon="-2.7550420">
        <ele>1114.3</ele>
        <time>2022-01-30T11:32:49Z</time>
      </trkpt>
      <trkpt lat="41.8673400" lon="-2.7549980">
        <ele>1114.3</ele>
        <time>2022-01-30T11:32:50Z</time>
      </trkpt>
      <trkpt lat="41.8673950" lon="-2.7549500">
        <ele>1114.3</ele>
        <time>2022-01-30T11:32:51Z</time>
      </trkpt>
      <trkpt lat="41.8674480" lon="-2.7548970">
        <ele>1114.3</ele>
        <time>2022-01-30T11:32:52Z</time>
      </trkpt>
      <trkpt lat="41.8675000" lon="-2.7548430">
        <ele>1114.4</ele>
        <time>2022-01-30T11:32:53Z</time>
      </trkpt>
      <trkpt lat="41.8675520" lon="-2.7547900">
        <ele>1114.4</ele>
        <time>2022-01-30T11:32:54Z</time>
      </trkpt>
      <trkpt lat="41.8676100" lon="-2.7547270">
        <ele>1114.3</ele>
        <time>2022-01-30T11:32:55Z</time>
      </trkpt>
      <trkpt lat="41.8676570" lon="-2.7546720">
        <ele>1114.2</ele>
        <time>2022-01-30T11:32:56Z</time>
      </trkpt>
      <trkpt lat="41.8677050" lon="-2.7546170">
        <ele>1114.2</ele>
        <time>2022-01-30T11:32:57Z</time>
      </trkpt>
      <trkpt lat="41.8677520" lon="-2.7545680">
        <ele>1114.1</ele>
        <time>2022-01-30T11:32:58Z</time>
      </trkpt>
      <trkpt lat="41.8677880" lon="-2.7545300">
        <ele>1114.1</ele>
        <time>2022-01-30T11:32:59Z</time>
      </trkpt>
      <trkpt lat="41.8678420" lon="-2.7544770">
        <ele>1114.0</ele>
        <time>2022-01-30T11:33:00Z</time>
      </trkpt>
      <trkpt lat="41.8678850" lon="-2.7544330">
        <ele>1113.9</ele>
        <time>2022-01-30T11:33:01Z</time>
      </trkpt>
      <trkpt lat="41.8679250" lon="-2.7543880">
        <ele>1113.9</ele>
        <time>2022-01-30T11:33:02Z</time>
      </trkpt>
      <trkpt lat="41.8679570" lon="-2.7543530">
        <ele>1113.8</ele>
        <time>2022-01-30T11:33:03Z</time>
      </trkpt>
      <trkpt lat="41.8679950" lon="-2.7543100">
        <ele>1113.8</ele>
        <time>2022-01-30T11:33:04Z</time>
      </trkpt>
      <trkpt lat="41.8680380" lon="-2.7542620">
        <ele>1113.8</ele>
        <time>2022-01-30T11:33:05Z</time>
      </trkpt>
      <trkpt lat="41.8680700" lon="-2.7542220">
        <ele>1113.7</ele>
        <time>2022-01-30T11:33:06Z</time>
      </trkpt>
      <trkpt lat="41.8680980" lon="-2.7541820">
        <ele>1113.7</ele>
        <time>2022-01-30T11:33:07Z</time>
      </trkpt>
      <trkpt lat="41.8681180" lon="-2.7541470">
        <ele>1113.7</ele>
        <time>2022-01-30T11:33:08Z</time>
      </trkpt>
      <trkpt lat="41.8681470" lon="-2.7540900">
        <ele>1113.6</ele>
        <time>2022-01-30T11:33:09Z</time>
      </trkpt>
      <trkpt lat="41.8681680" lon="-2.7540350">
        <ele>1113.5</ele>
        <time>2022-01-30T11:33:10Z</time>
      </trkpt>
      <trkpt lat="41.8681920" lon="-2.7539820">
        <ele>1113.4</ele>
        <time>2022-01-30T11:33:11Z</time>
      </trkpt>
      <trkpt lat="41.8682130" lon="-2.7539370">
        <ele>1113.4</ele>
        <time>2022-01-30T11:33:12Z</time>
      </trkpt>
      <trkpt lat="41.8682380" lon="-2.7538820">
        <ele>1113.3</ele>
        <time>2022-01-30T11:33:13Z</time>
      </trkpt>
      <trkpt lat="41.8682670" lon="-2.7538120">
        <ele>1113.2</ele>
        <time>2022-01-30T11:33:14Z</time>
      </trkpt>
      <trkpt lat="41.8682870" lon="-2.7537520">
        <ele>1113.1</ele>
        <time>2022-01-30T11:33:15Z</time>
      </trkpt>
      <trkpt lat="41.8683050" lon="-2.7536900">
        <ele>1113.0</ele>
        <time>2022-01-30T11:33:16Z</time>
      </trkpt>
      <trkpt lat="41.8683170" lon="-2.7536420">
        <ele>1112.9</ele>
        <time>2022-01-30T11:33:17Z</time>
      </trkpt>
      <trkpt lat="41.8683330" lon="-2.7535720">
        <ele>1112.8</ele>
        <time>2022-01-30T11:33:18Z</time>
      </trkpt>
      <trkpt lat="41.8683430" lon="-2.7535200">
        <ele>1112.8</ele>
        <time>2022-01-30T11:33:19Z</time>
      </trkpt>
      <trkpt lat="41.8683530" lon="-2.7534720">
        <ele>1112.7</ele>
        <time>2022-01-30T11:33:20Z</time>
      </trkpt>
      <trkpt lat="41.8683620" lon="-2.7534300">
        <ele>1112.7</ele>
        <time>2022-01-30T11:33:21Z</time>
      </trkpt>
      <trkpt lat="41.8683700" lon="-2.7534000">
        <ele>1112.7</ele>
        <time>2022-01-30T11:33:22Z</time>
      </trkpt>
      <trkpt lat="41.8683800" lon="-2.7533770">
        <ele>1112.7</ele>
        <time>2022-01-30T11:33:23Z</time>
      </trkpt>
      <trkpt lat="41.8683930" lon="-2.7533580">
        <ele>1112.7</ele>
        <time>2022-01-30T11:33:24Z</time>
      </trkpt>
      <trkpt lat="41.8684080" lon="-2.7533430">
        <ele>1112.7</ele>
        <time>2022-01-30T11:33:25Z</time>
      </trkpt>
      <trkpt lat="41.8684200" lon="-2.7533430">
        <ele>1112.7</ele>
        <time>2022-01-30T11:33:26Z</time>
      </trkpt>
      <trkpt lat="41.8684320" lon="-2.7533600">
        <ele>1112.7</ele>
        <time>2022-01-30T11:33:27Z</time>
      </trkpt>
      <trkpt lat="41.8684400" lon="-2.7533830">
        <ele>1112.7</ele>
        <time>2022-01-30T11:33:28Z</time>
      </trkpt>
      <trkpt lat="41.8684420" lon="-2.7534270">
        <ele>1112.7</ele>
        <time>2022-01-30T11:33:29Z</time>
      </trkpt>
      <trkpt lat="41.8684480" lon="-2.7534550">
        <ele>1113.2</ele>
        <time>2022-01-30T11:33:30Z</time>
      </trkpt>
      <trkpt lat="41.8684530" lon="-2.7534870">
        <ele>1113.2</ele>
        <time>2022-01-30T11:33:31Z</time>
      </trkpt>
      <trkpt lat="41.8684630" lon="-2.7535270">
        <ele>1113.2</ele>
        <time>2022-01-30T11:33:32Z</time>
      </trkpt>
      <trkpt lat="41.8684720" lon="-2.7535600">
        <ele>1113.2</ele>
        <time>2022-01-30T11:33:33Z</time>
      </trkpt>
      <trkpt lat="41.8684820" lon="-2.7535850">
        <ele>1113.2</ele>
        <time>2022-01-30T11:33:34Z</time>
      </trkpt>
      <trkpt lat="41.8684880" lon="-2.7536180">
        <ele>1113.2</ele>
        <time>2022-01-30T11:33:35Z</time>
      </trkpt>
      <trkpt lat="41.8685000" lon="-2.7536570">
        <ele>1113.8</ele>
        <time>2022-01-30T11:33:36Z</time>
      </trkpt>
      <trkpt lat="41.8685070" lon="-2.7536820">
        <ele>1113.8</ele>
        <time>2022-01-30T11:33:37Z</time>
      </trkpt>
      <trkpt lat="41.8685170" lon="-2.7537120">
        <ele>1113.8</ele>
        <time>2022-01-30T11:33:38Z</time>
      </trkpt>
      <trkpt lat="41.8685300" lon="-2.7537480">
        <ele>1113.8</ele>
        <time>2022-01-30T11:33:39Z</time>
      </trkpt>
      <trkpt lat="41.8685420" lon="-2.7537870">
        <ele>1113.9</ele>
        <time>2022-01-30T11:33:40Z</time>
      </trkpt>
      <trkpt lat="41.8685580" lon="-2.7538330">
        <ele>1114.6</ele>
        <time>2022-01-30T11:33:41Z</time>
      </trkpt>
      <trkpt lat="41.8685680" lon="-2.7538650">
        <ele>1114.6</ele>
        <time>2022-01-30T11:33:42Z</time>
      </trkpt>
      <trkpt lat="41.8685800" lon="-2.7538920">
        <ele>1114.6</ele>
        <time>2022-01-30T11:33:43Z</time>
      </trkpt>
      <trkpt lat="41.8685950" lon="-2.7539220">
        <ele>1114.6</ele>
        <time>2022-01-30T11:33:44Z</time>
      </trkpt>
      <trkpt lat="41.8686120" lon="-2.7539530">
        <ele>1114.6</ele>
        <time>2022-01-30T11:33:45Z</time>
      </trkpt>
      <trkpt lat="41.8686280" lon="-2.7539950">
        <ele>1115.3</ele>
        <time>2022-01-30T11:33:46Z</time>
      </trkpt>
      <trkpt lat="41.8686400" lon="-2.7540300">
        <ele>1115.3</ele>
        <time>2022-01-30T11:33:47Z</time>
      </trkpt>
      <trkpt lat="41.8686520" lon="-2.7540580">
        <ele>1115.3</ele>
        <time>2022-01-30T11:33:48Z</time>
      </trkpt>
      <trkpt lat="41.8686670" lon="-2.7540950">
        <ele>1115.5</ele>
        <time>2022-01-30T11:33:49Z</time>
      </trkpt>
      <trkpt lat="41.8686800" lon="-2.7541270">
        <ele>1115.5</ele>
        <time>2022-01-30T11:33:50Z</time>
      </trkpt>
      <trkpt lat="41.8686950" lon="-2.7541600">
        <ele>1116.2</ele>
        <time>2022-01-30T11:33:51Z</time>
      </trkpt>
      <trkpt lat="41.8687080" lon="-2.7541900">
        <ele>1116.2</ele>
        <time>2022-01-30T11:33:52Z</time>
      </trkpt>
      <trkpt lat="41.8687270" lon="-2.7542270">
        <ele>1116.2</ele>
        <time>2022-01-30T11:33:53Z</time>
      </trkpt>
      <trkpt lat="41.8687450" lon="-2.7542620">
        <ele>1116.2</ele>
        <time>2022-01-30T11:33:54Z</time>
      </trkpt>
      <trkpt lat="41.8687600" lon="-2.7542930">
        <ele>1116.2</ele>
        <time>2022-01-30T11:33:55Z</time>
      </trkpt>
      <trkpt lat="41.8687800" lon="-2.7543270">
        <ele>1116.9</ele>
        <time>2022-01-30T11:33:56Z</time>
      </trkpt>
      <trkpt lat="41.8687980" lon="-2.7543600">
        <ele>1117.2</ele>
        <time>2022-01-30T11:33:57Z</time>
      </trkpt>
      <trkpt lat="41.8688200" lon="-2.7544000">
        <ele>1117.2</ele>
        <time>2022-01-30T11:33:58Z</time>
      </trkpt>
      <trkpt lat="41.8688420" lon="-2.7544320">
        <ele>1117.2</ele>
        <time>2022-01-30T11:33:59Z</time>
      </trkpt>
      <trkpt lat="41.8688620" lon="-2.7544670">
        <ele>1117.2</ele>
        <time>2022-01-30T11:34:00Z</time>
      </trkpt>
      <trkpt lat="41.8688800" lon="-2.7544920">
        <ele>1118.2</ele>
        <time>2022-01-30T11:34:01Z</time>
      </trkpt>
      <trkpt lat="41.8689080" lon="-2.7545320">
        <ele>1118.2</ele>
        <time>2022-01-30T11:34:02Z</time>
      </trkpt>
      <trkpt lat="41.8689300" lon="-2.7545630">
        <ele>1118.3</ele>
        <time>2022-01-30T11:34:03Z</time>
      </trkpt>
      <trkpt lat="41.8689480" lon="-2.7546000">
        <ele>1118.3</ele>
        <time>2022-01-30T11:34:04Z</time>
      </trkpt>
      <trkpt lat="41.8689630" lon="-2.7546320">
        <ele>1118.3</ele>
        <time>2022-01-30T11:34:05Z</time>
      </trkpt>
      <trkpt lat="41.8689850" lon="-2.7546770">
        <ele>1119.4</ele>
        <time>2022-01-30T11:34:06Z</time>
      </trkpt>
      <trkpt lat="41.8690030" lon="-2.7547030">
        <ele>1119.4</ele>
        <time>2022-01-30T11:34:07Z</time>
      </trkpt>
      <trkpt lat="41.8690270" lon="-2.7547320">
        <ele>1119.4</ele>
        <time>2022-01-30T11:34:08Z</time>
      </trkpt>
      <trkpt lat="41.8690570" lon="-2.7547580">
        <ele>1119.4</ele>
        <time>2022-01-30T11:34:09Z</time>
      </trkpt>
      <trkpt lat="41.8690780" lon="-2.7547730">
        <ele>1119.4</ele>
        <time>2022-01-30T11:34:10Z</time>
      </trkpt>
      <trkpt lat="41.8691080" lon="-2.7547920">
        <ele>1119.4</ele>
        <time>2022-01-30T11:34:11Z</time>
      </trkpt>
      <trkpt lat="41.8691300" lon="-2.7548080">
        <ele>1119.4</ele>
        <time>2022-01-30T11:34:12Z</time>
      </trkpt>
      <trkpt lat="41.8691520" lon="-2.7548230">
        <ele>1120.5</ele>
        <time>2022-01-30T11:34:13Z</time>
      </trkpt>
      <trkpt lat="41.8691680" lon="-2.7548370">
        <ele>1120.5</ele>
        <time>2022-01-30T11:34:14Z</time>
      </trkpt>
      <trkpt lat="41.8691920" lon="-2.7548480">
        <ele>1120.5</ele>
        <time>2022-01-30T11:34:15Z</time>
      </trkpt>
      <trkpt lat="41.8692200" lon="-2.7548630">
        <ele>1120.5</ele>
        <time>2022-01-30T11:34:16Z</time>
      </trkpt>
      <trkpt lat="41.8692450" lon="-2.7548770">
        <ele>1120.5</ele>
        <time>2022-01-30T11:34:17Z</time>
      </trkpt>
      <trkpt lat="41.8692720" lon="-2.7548920">
        <ele>1120.5</ele>
        <time>2022-01-30T11:34:18Z</time>
      </trkpt>
      <trkpt lat="41.8692920" lon="-2.7549070">
        <ele>1120.5</ele>
        <time>2022-01-30T11:34:19Z</time>
      </trkpt>
      <trkpt lat="41.8693180" lon="-2.7549270">
        <ele>1120.4</ele>
        <time>2022-01-30T11:34:20Z</time>
      </trkpt>
      <trkpt lat="41.8693400" lon="-2.7549480">
        <ele>1120.4</ele>
        <time>2022-01-30T11:34:21Z</time>
      </trkpt>
      <trkpt lat="41.8693600" lon="-2.7549750">
        <ele>1120.4</ele>
        <time>2022-01-30T11:34:22Z</time>
      </trkpt>
      <trkpt lat="41.8693770" lon="-2.7550070">
        <ele>1121.5</ele>
        <time>2022-01-30T11:34:23Z</time>
      </trkpt>
      <trkpt lat="41.8693930" lon="-2.7550330">
        <ele>1121.5</ele>
        <time>2022-01-30T11:34:24Z</time>
      </trkpt>
      <trkpt lat="41.8694080" lon="-2.7550600">
        <ele>1121.5</ele>
        <time>2022-01-30T11:34:25Z</time>
      </trkpt>
      <trkpt lat="41.8694230" lon="-2.7550830">
        <ele>1121.5</ele>
        <time>2022-01-30T11:34:26Z</time>
      </trkpt>
      <trkpt lat="41.8694350" lon="-2.7551030">
        <ele>1121.8</ele>
        <time>2022-01-30T11:34:27Z</time>
      </trkpt>
      <trkpt lat="41.8694450" lon="-2.7551330">
        <ele>1121.8</ele>
        <time>2022-01-30T11:34:28Z</time>
      </trkpt>
      <trkpt lat="41.8694570" lon="-2.7551650">
        <ele>1121.8</ele>
        <time>2022-01-30T11:34:29Z</time>
      </trkpt>
      <trkpt lat="41.8694670" lon="-2.7551880">
        <ele>1123.3</ele>
        <time>2022-01-30T11:34:30Z</time>
      </trkpt>
      <trkpt lat="41.8694780" lon="-2.7552100">
        <ele>1123.3</ele>
        <time>2022-01-30T11:34:31Z</time>
      </trkpt>
      <trkpt lat="41.8694900" lon="-2.7552300">
        <ele>1123.3</ele>
        <time>2022-01-30T11:34:32Z</time>
      </trkpt>
      <trkpt lat="41.8695070" lon="-2.7552500">
        <ele>1123.3</ele>
        <time>2022-01-30T11:34:33Z</time>
      </trkpt>
      <trkpt lat="41.8695230" lon="-2.7552750">
        <ele>1123.3</ele>
        <time>2022-01-30T11:34:34Z</time>
      </trkpt>
      <trkpt lat="41.8695370" lon="-2.7553000">
        <ele>1123.3</ele>
        <time>2022-01-30T11:34:35Z</time>
      </trkpt>
      <trkpt lat="41.8695470" lon="-2.7553180">
        <ele>1123.3</ele>
        <time>2022-01-30T11:34:36Z</time>
      </trkpt>
      <trkpt lat="41.8695600" lon="-2.7553420">
        <ele>1124.7</ele>
        <time>2022-01-30T11:34:37Z</time>
      </trkpt>
      <trkpt lat="41.8695680" lon="-2.7553720">
        <ele>1125.3</ele>
        <time>2022-01-30T11:34:38Z</time>
      </trkpt>
      <trkpt lat="41.8695770" lon="-2.7553930">
        <ele>1125.3</ele>
        <time>2022-01-30T11:34:39Z</time>
      </trkpt>
      <trkpt lat="41.8695870" lon="-2.7554150">
        <ele>1125.3</ele>
        <time>2022-01-30T11:34:40Z</time>
      </trkpt>
      <trkpt lat="41.8695920" lon="-2.7554370">
        <ele>1125.3</ele>
        <time>2022-01-30T11:34:41Z</time>
      </trkpt>
      <trkpt lat="41.8696030" lon="-2.7554550">
        <ele>1125.3</ele>
        <time>2022-01-30T11:34:42Z</time>
      </trkpt>
      <trkpt lat="41.8696170" lon="-2.7554750">
        <ele>1125.3</ele>
        <time>2022-01-30T11:34:43Z</time>
      </trkpt>
      <trkpt lat="41.8696330" lon="-2.7554980">
        <ele>1125.3</ele>
        <time>2022-01-30T11:34:44Z</time>
      </trkpt>
      <trkpt lat="41.8696520" lon="-2.7555180">
        <ele>1126.3</ele>
        <time>2022-01-30T11:34:45Z</time>
      </trkpt>
      <trkpt lat="41.8696720" lon="-2.7555330">
        <ele>1126.3</ele>
        <time>2022-01-30T11:34:46Z</time>
      </trkpt>
      <trkpt lat="41.8696970" lon="-2.7555570">
        <ele>1126.8</ele>
        <time>2022-01-30T11:34:47Z</time>
      </trkpt>
      <trkpt lat="41.8697130" lon="-2.7555750">
        <ele>1126.8</ele>
        <time>2022-01-30T11:34:48Z</time>
      </trkpt>
      <trkpt lat="41.8697300" lon="-2.7555930">
        <ele>1126.8</ele>
        <time>2022-01-30T11:34:49Z</time>
      </trkpt>
      <trkpt lat="41.8697420" lon="-2.7556050">
        <ele>1126.8</ele>
        <time>2022-01-30T11:34:50Z</time>
      </trkpt>
      <trkpt lat="41.8697600" lon="-2.7556200">
        <ele>1126.8</ele>
        <time>2022-01-30T11:34:51Z</time>
      </trkpt>
      <trkpt lat="41.8697780" lon="-2.7556330">
        <ele>1126.8</ele>
        <time>2022-01-30T11:34:52Z</time>
      </trkpt>
      <trkpt lat="41.8697980" lon="-2.7556480">
        <ele>1126.8</ele>
        <time>2022-01-30T11:34:53Z</time>
      </trkpt>
      <trkpt lat="41.8698130" lon="-2.7556620">
        <ele>1126.8</ele>
        <time>2022-01-30T11:34:54Z</time>
      </trkpt>
      <trkpt lat="41.8698330" lon="-2.7556830">
        <ele>1128.6</ele>
        <time>2022-01-30T11:34:55Z</time>
      </trkpt>
      <trkpt lat="41.8698530" lon="-2.7557020">
        <ele>1128.6</ele>
        <time>2022-01-30T11:34:56Z</time>
      </trkpt>
      <trkpt lat="41.8698720" lon="-2.7557220">
        <ele>1128.6</ele>
        <time>2022-01-30T11:34:57Z</time>
      </trkpt>
      <trkpt lat="41.8698870" lon="-2.7557420">
        <ele>1128.6</ele>
        <time>2022-01-30T11:34:58Z</time>
      </trkpt>
      <trkpt lat="41.8698970" lon="-2.7557580">
        <ele>1128.6</ele>
        <time>2022-01-30T11:34:59Z</time>
      </trkpt>
      <trkpt lat="41.8699120" lon="-2.7557800">
        <ele>1128.6</ele>
        <time>2022-01-30T11:35:00Z</time>
      </trkpt>
      <trkpt lat="41.8699250" lon="-2.7558030">
        <ele>1128.6</ele>
        <time>2022-01-30T11:35:01Z</time>
      </trkpt>
      <trkpt lat="41.8699380" lon="-2.7558270">
        <ele>1128.6</ele>
        <time>2022-01-30T11:35:02Z</time>
      </trkpt>
      <trkpt lat="41.8699520" lon="-2.7558430">
        <ele>1129.4</ele>
        <time>2022-01-30T11:35:03Z</time>
      </trkpt>
      <trkpt lat="41.8699680" lon="-2.7558630">
        <ele>1130.5</ele>
        <time>2022-01-30T11:35:04Z</time>
      </trkpt>
      <trkpt lat="41.8699920" lon="-2.7558900">
        <ele>1130.5</ele>
        <time>2022-01-30T11:35:05Z</time>
      </trkpt>
      <trkpt lat="41.8700080" lon="-2.7558970">
        <ele>1130.5</ele>
        <time>2022-01-30T11:35:06Z</time>
      </trkpt>
      <trkpt lat="41.8700280" lon="-2.7559020">
        <ele>1130.5</ele>
        <time>2022-01-30T11:35:07Z</time>
      </trkpt>
      <trkpt lat="41.8700420" lon="-2.7559080">
        <ele>1130.5</ele>
        <time>2022-01-30T11:35:08Z</time>
      </trkpt>
      <trkpt lat="41.8700570" lon="-2.7559130">
        <ele>1130.5</ele>
        <time>2022-01-30T11:35:09Z</time>
      </trkpt>
      <trkpt lat="41.8700720" lon="-2.7559220">
        <ele>1130.5</ele>
        <time>2022-01-30T11:35:10Z</time>
      </trkpt>
      <trkpt lat="41.8700880" lon="-2.7559300">
        <ele>1131.0</ele>
        <time>2022-01-30T11:35:11Z</time>
      </trkpt>
      <trkpt lat="41.8701050" lon="-2.7559400">
        <ele>1131.0</ele>
        <time>2022-01-30T11:35:12Z</time>
      </trkpt>
      <trkpt lat="41.8701220" lon="-2.7559500">
        <ele>1131.0</ele>
        <time>2022-01-30T11:35:13Z</time>
      </trkpt>
      <trkpt lat="41.8701400" lon="-2.7559630">
        <ele>1131.0</ele>
        <time>2022-01-30T11:35:14Z</time>
      </trkpt>
      <trkpt lat="41.8701550" lon="-2.7559800">
        <ele>1131.0</ele>
        <time>2022-01-30T11:35:15Z</time>
      </trkpt>
      <trkpt lat="41.8701720" lon="-2.7559950">
        <ele>1131.0</ele>
        <time>2022-01-30T11:35:16Z</time>
      </trkpt>
      <trkpt lat="41.8701870" lon="-2.7560120">
        <ele>1131.0</ele>
        <time>2022-01-30T11:35:17Z</time>
      </trkpt>
      <trkpt lat="41.8702000" lon="-2.7560350">
        <ele>1132.5</ele>
        <time>2022-01-30T11:35:18Z</time>
      </trkpt>
      <trkpt lat="41.8702150" lon="-2.7560600">
        <ele>1132.5</ele>
        <time>2022-01-30T11:35:19Z</time>
      </trkpt>
      <trkpt lat="41.8702330" lon="-2.7560850">
        <ele>1132.5</ele>
        <time>2022-01-30T11:35:20Z</time>
      </trkpt>
      <trkpt lat="41.8702470" lon="-2.7561080">
        <ele>1132.5</ele>
        <time>2022-01-30T11:35:21Z</time>
      </trkpt>
      <trkpt lat="41.8702600" lon="-2.7561320">
        <ele>1132.5</ele>
        <time>2022-01-30T11:35:22Z</time>
      </trkpt>
      <trkpt lat="41.8702770" lon="-2.7561570">
        <ele>1132.5</ele>
        <time>2022-01-30T11:35:23Z</time>
      </trkpt>
      <trkpt lat="41.8702920" lon="-2.7561780">
        <ele>1132.5</ele>
        <time>2022-01-30T11:35:24Z</time>
      </trkpt>
      <trkpt lat="41.8703070" lon="-2.7561930">
        <ele>1132.5</ele>
        <time>2022-01-30T11:35:25Z</time>
      </trkpt>
      <trkpt lat="41.8703200" lon="-2.7562050">
        <ele>1133.7</ele>
        <time>2022-01-30T11:35:26Z</time>
      </trkpt>
      <trkpt lat="41.8703380" lon="-2.7562200">
        <ele>1134.7</ele>
        <time>2022-01-30T11:35:27Z</time>
      </trkpt>
      <trkpt lat="41.8703480" lon="-2.7562300">
        <ele>1134.7</ele>
        <time>2022-01-30T11:35:28Z</time>
      </trkpt>
      <trkpt lat="41.8703620" lon="-2.7562400">
        <ele>1134.7</ele>
        <time>2022-01-30T11:35:29Z</time>
      </trkpt>
      <trkpt lat="41.8703770" lon="-2.7562530">
        <ele>1134.7</ele>
        <time>2022-01-30T11:35:30Z</time>
      </trkpt>
      <trkpt lat="41.8703950" lon="-2.7562650">
        <ele>1134.7</ele>
        <time>2022-01-30T11:35:31Z</time>
      </trkpt>
      <trkpt lat="41.8704150" lon="-2.7562820">
        <ele>1134.7</ele>
        <time>2022-01-30T11:35:32Z</time>
      </trkpt>
      <trkpt lat="41.8704350" lon="-2.7563070">
        <ele>1134.7</ele>
        <time>2022-01-30T11:35:33Z</time>
      </trkpt>
      <trkpt lat="41.8704550" lon="-2.7563320">
        <ele>1134.7</ele>
        <time>2022-01-30T11:35:34Z</time>
      </trkpt>
      <trkpt lat="41.8704700" lon="-2.7563570">
        <ele>1135.5</ele>
        <time>2022-01-30T11:35:35Z</time>
      </trkpt>
      <trkpt lat="41.8704830" lon="-2.7563780">
        <ele>1137.1</ele>
        <time>2022-01-30T11:35:36Z</time>
      </trkpt>
      <trkpt lat="41.8704920" lon="-2.7564020">
        <ele>1137.1</ele>
        <time>2022-01-30T11:35:37Z</time>
      </trkpt>
      <trkpt lat="41.8705020" lon="-2.7564300">
        <ele>1137.1</ele>
        <time>2022-01-30T11:35:38Z</time>
      </trkpt>
      <trkpt lat="41.8705150" lon="-2.7564480">
        <ele>1137.1</ele>
        <time>2022-01-30T11:35:39Z</time>
      </trkpt>
      <trkpt lat="41.8705300" lon="-2.7564630">
        <ele>1137.1</ele>
        <time>2022-01-30T11:35:40Z</time>
      </trkpt>
      <trkpt lat="41.8705470" lon="-2.7564850">
        <ele>1137.1</ele>
        <time>2022-01-30T11:35:41Z</time>
      </trkpt>
      <trkpt lat="41.8705650" lon="-2.7565120">
        <ele>1137.1</ele>
        <time>2022-01-30T11:35:42Z</time>
      </trkpt>
      <trkpt lat="41.8705820" lon="-2.7565430">
        <ele>1138.4</ele>
        <time>2022-01-30T11:35:43Z</time>
      </trkpt>
      <trkpt lat="41.8705920" lon="-2.7565750">
        <ele>1139.1</ele>
        <time>2022-01-30T11:35:44Z</time>
      </trkpt>
      <trkpt lat="41.8706030" lon="-2.7565980">
        <ele>1139.1</ele>
        <time>2022-01-30T11:35:45Z</time>
      </trkpt>
      <trkpt lat="41.8706200" lon="-2.7566300">
        <ele>1139.1</ele>
        <time>2022-01-30T11:35:46Z</time>
      </trkpt>
      <trkpt lat="41.8706400" lon="-2.7566470">
        <ele>1139.1</ele>
        <time>2022-01-30T11:35:47Z</time>
      </trkpt>
      <trkpt lat="41.8706570" lon="-2.7566620">
        <ele>1139.1</ele>
        <time>2022-01-30T11:35:48Z</time>
      </trkpt>
      <trkpt lat="41.8706730" lon="-2.7566820">
        <ele>1139.1</ele>
        <time>2022-01-30T11:35:49Z</time>
      </trkpt>
      <trkpt lat="41.8706920" lon="-2.7566970">
        <ele>1139.1</ele>
        <time>2022-01-30T11:35:50Z</time>
      </trkpt>
      <trkpt lat="41.8707120" lon="-2.7567270">
        <ele>1140.5</ele>
        <time>2022-01-30T11:35:51Z</time>
      </trkpt>
      <trkpt lat="41.8707320" lon="-2.7567530">
        <ele>1140.5</ele>
        <time>2022-01-30T11:35:52Z</time>
      </trkpt>
      <trkpt lat="41.8707480" lon="-2.7567900">
        <ele>1140.5</ele>
        <time>2022-01-30T11:35:53Z</time>
      </trkpt>
      <trkpt lat="41.8707600" lon="-2.7568120">
        <ele>1140.5</ele>
        <time>2022-01-30T11:35:54Z</time>
      </trkpt>
      <trkpt lat="41.8707770" lon="-2.7568420">
        <ele>1140.5</ele>
        <time>2022-01-30T11:35:55Z</time>
      </trkpt>
      <trkpt lat="41.8707870" lon="-2.7568680">
        <ele>1140.5</ele>
        <time>2022-01-30T11:35:56Z</time>
      </trkpt>
      <trkpt lat="41.8707980" lon="-2.7568950">
        <ele>1140.9</ele>
        <time>2022-01-30T11:35:57Z</time>
      </trkpt>
      <trkpt lat="41.8708100" lon="-2.7569230">
        <ele>1140.9</ele>
        <time>2022-01-30T11:35:58Z</time>
      </trkpt>
      <trkpt lat="41.8708220" lon="-2.7569470">
        <ele>1140.9</ele>
        <time>2022-01-30T11:35:59Z</time>
      </trkpt>
      <trkpt lat="41.8708380" lon="-2.7569780">
        <ele>1140.9</ele>
        <time>2022-01-30T11:36:00Z</time>
      </trkpt>
      <trkpt lat="41.8708500" lon="-2.7570000">
        <ele>1141.2</ele>
        <time>2022-01-30T11:36:01Z</time>
      </trkpt>
      <trkpt lat="41.8708650" lon="-2.7570250">
        <ele>1141.2</ele>
        <time>2022-01-30T11:36:02Z</time>
      </trkpt>
      <trkpt lat="41.8708780" lon="-2.7570470">
        <ele>1141.2</ele>
        <time>2022-01-30T11:36:03Z</time>
      </trkpt>
      <trkpt lat="41.8708900" lon="-2.7570680">
        <ele>1141.2</ele>
        <time>2022-01-30T11:36:04Z</time>
      </trkpt>
      <trkpt lat="41.8709070" lon="-2.7570930">
        <ele>1141.2</ele>
        <time>2022-01-30T11:36:05Z</time>
      </trkpt>
      <trkpt lat="41.8709200" lon="-2.7571180">
        <ele>1141.2</ele>
        <time>2022-01-30T11:36:06Z</time>
      </trkpt>
      <trkpt lat="41.8709300" lon="-2.7571520">
        <ele>1141.2</ele>
        <time>2022-01-30T11:36:07Z</time>
      </trkpt>
      <trkpt lat="41.8709370" lon="-2.7571900">
        <ele>1141.2</ele>
        <time>2022-01-30T11:36:08Z</time>
      </trkpt>
      <trkpt lat="41.8709400" lon="-2.7572330">
        <ele>1141.1</ele>
        <time>2022-01-30T11:36:09Z</time>
      </trkpt>
      <trkpt lat="41.8709400" lon="-2.7572880">
        <ele>1141.1</ele>
        <time>2022-01-30T11:36:10Z</time>
      </trkpt>
      <trkpt lat="41.8709430" lon="-2.7573500">
        <ele>1141.1</ele>
        <time>2022-01-30T11:36:11Z</time>
      </trkpt>
      <trkpt lat="41.8709430" lon="-2.7574070">
        <ele>1140.8</ele>
        <time>2022-01-30T11:36:12Z</time>
      </trkpt>
      <trkpt lat="41.8709430" lon="-2.7574780">
        <ele>1140.8</ele>
        <time>2022-01-30T11:36:13Z</time>
      </trkpt>
      <trkpt lat="41.8709400" lon="-2.7575620">
        <ele>1140.8</ele>
        <time>2022-01-30T11:36:14Z</time>
      </trkpt>
      <trkpt lat="41.8709400" lon="-2.7576280">
        <ele>1140.6</ele>
        <time>2022-01-30T11:36:15Z</time>
      </trkpt>
      <trkpt lat="41.8709400" lon="-2.7576870">
        <ele>1140.6</ele>
        <time>2022-01-30T11:36:16Z</time>
      </trkpt>
      <trkpt lat="41.8709370" lon="-2.7577780">
        <ele>1140.5</ele>
        <time>2022-01-30T11:36:17Z</time>
      </trkpt>
      <trkpt lat="41.8709330" lon="-2.7578580">
        <ele>1140.5</ele>
        <time>2022-01-30T11:36:18Z</time>
      </trkpt>
      <trkpt lat="41.8709320" lon="-2.7579370">
        <ele>1140.5</ele>
        <time>2022-01-30T11:36:19Z</time>
      </trkpt>
      <trkpt lat="41.8709300" lon="-2.7580200">
        <ele>1140.5</ele>
        <time>2022-01-30T11:36:20Z</time>
      </trkpt>
      <trkpt lat="41.8709270" lon="-2.7581000">
        <ele>1140.5</ele>
        <time>2022-01-30T11:36:21Z</time>
      </trkpt>
      <trkpt lat="41.8709270" lon="-2.7581620">
        <ele>1140.5</ele>
        <time>2022-01-30T11:36:22Z</time>
      </trkpt>
      <trkpt lat="41.8709300" lon="-2.7582420">
        <ele>1140.5</ele>
        <time>2022-01-30T11:36:23Z</time>
      </trkpt>
      <trkpt lat="41.8709400" lon="-2.7582950">
        <ele>1140.5</ele>
        <time>2022-01-30T11:36:24Z</time>
      </trkpt>
      <trkpt lat="41.8709520" lon="-2.7583430">
        <ele>1140.5</ele>
        <time>2022-01-30T11:36:25Z</time>
      </trkpt>
      <trkpt lat="41.8709550" lon="-2.7583930">
        <ele>1140.5</ele>
        <time>2022-01-30T11:36:26Z</time>
      </trkpt>
      <trkpt lat="41.8709520" lon="-2.7584380">
        <ele>1140.4</ele>
        <time>2022-01-30T11:36:27Z</time>
      </trkpt>
      <trkpt lat="41.8709470" lon="-2.7584850">
        <ele>1140.4</ele>
        <time>2022-01-30T11:36:28Z</time>
      </trkpt>
      <trkpt lat="41.8709380" lon="-2.7585330">
        <ele>1140.4</ele>
        <time>2022-01-30T11:36:29Z</time>
      </trkpt>
      <trkpt lat="41.8709330" lon="-2.7585800">
        <ele>1140.4</ele>
        <time>2022-01-30T11:36:30Z</time>
      </trkpt>
      <trkpt lat="41.8709220" lon="-2.7586470">
        <ele>1140.1</ele>
        <time>2022-01-30T11:36:31Z</time>
      </trkpt>
      <trkpt lat="41.8709120" lon="-2.7587250">
        <ele>1140.1</ele>
        <time>2022-01-30T11:36:32Z</time>
      </trkpt>
      <trkpt lat="41.8709080" lon="-2.7587870">
        <ele>1139.8</ele>
        <time>2022-01-30T11:36:33Z</time>
      </trkpt>
      <trkpt lat="41.8709100" lon="-2.7588380">
        <ele>1139.8</ele>
        <time>2022-01-30T11:36:34Z</time>
      </trkpt>
      <trkpt lat="41.8709130" lon="-2.7588730">
        <ele>1139.8</ele>
        <time>2022-01-30T11:36:35Z</time>
      </trkpt>
      <trkpt lat="41.8709180" lon="-2.7589130">
        <ele>1139.8</ele>
        <time>2022-01-30T11:36:36Z</time>
      </trkpt>
      <trkpt lat="41.8709270" lon="-2.7589530">
        <ele>1139.8</ele>
        <time>2022-01-30T11:36:37Z</time>
      </trkpt>
      <trkpt lat="41.8709400" lon="-2.7589880">
        <ele>1139.8</ele>
        <time>2022-01-30T11:36:38Z</time>
      </trkpt>
      <trkpt lat="41.8709620" lon="-2.7590180">
        <ele>1139.8</ele>
        <time>2022-01-30T11:36:39Z</time>
      </trkpt>
      <trkpt lat="41.8709850" lon="-2.7590380">
        <ele>1138.8</ele>
        <time>2022-01-30T11:36:40Z</time>
      </trkpt>
      <trkpt lat="41.8710130" lon="-2.7590600">
        <ele>1138.8</ele>
        <time>2022-01-30T11:36:41Z</time>
      </trkpt>
      <trkpt lat="41.8710400" lon="-2.7590750">
        <ele>1138.8</ele>
        <time>2022-01-30T11:36:42Z</time>
      </trkpt>
      <trkpt lat="41.8710580" lon="-2.7590900">
        <ele>1138.8</ele>
        <time>2022-01-30T11:36:43Z</time>
      </trkpt>
      <trkpt lat="41.8710750" lon="-2.7591100">
        <ele>1138.8</ele>
        <time>2022-01-30T11:36:44Z</time>
      </trkpt>
      <trkpt lat="41.8711120" lon="-2.7591080">
        <ele>1137.9</ele>
        <time>2022-01-30T11:36:45Z</time>
      </trkpt>
      <trkpt lat="41.8711450" lon="-2.7591000">
        <ele>1137.9</ele>
        <time>2022-01-30T11:36:46Z</time>
      </trkpt>
      <trkpt lat="41.8711630" lon="-2.7591150">
        <ele>1138.1</ele>
        <time>2022-01-30T11:36:47Z</time>
      </trkpt>
      <trkpt lat="41.8711920" lon="-2.7591280">
        <ele>1138.1</ele>
        <time>2022-01-30T11:36:48Z</time>
      </trkpt>
      <trkpt lat="41.8712120" lon="-2.7591480">
        <ele>1138.1</ele>
        <time>2022-01-30T11:36:49Z</time>
      </trkpt>
      <trkpt lat="41.8712500" lon="-2.7591500">
        <ele>1137.5</ele>
        <time>2022-01-30T11:36:50Z</time>
      </trkpt>
      <trkpt lat="41.8712920" lon="-2.7591570">
        <ele>1137.5</ele>
        <time>2022-01-30T11:36:51Z</time>
      </trkpt>
      <trkpt lat="41.8713150" lon="-2.7591870">
        <ele>1137.5</ele>
        <time>2022-01-30T11:36:52Z</time>
      </trkpt>
      <trkpt lat="41.8713420" lon="-2.7592120">
        <ele>1137.5</ele>
        <time>2022-01-30T11:36:53Z</time>
      </trkpt>
      <trkpt lat="41.8713630" lon="-2.7592330">
        <ele>1137.0</ele>
        <time>2022-01-30T11:36:54Z</time>
      </trkpt>
      <trkpt lat="41.8713950" lon="-2.7592480">
        <ele>1137.0</ele>
        <time>2022-01-30T11:36:55Z</time>
      </trkpt>
      <trkpt lat="41.8714280" lon="-2.7592650">
        <ele>1137.0</ele>
        <time>2022-01-30T11:36:56Z</time>
      </trkpt>
      <trkpt lat="41.8714700" lon="-2.7592830">
        <ele>1137.0</ele>
        <time>2022-01-30T11:36:57Z</time>
      </trkpt>
      <trkpt lat="41.8715000" lon="-2.7592950">
        <ele>1136.8</ele>
        <time>2022-01-30T11:36:58Z</time>
      </trkpt>
      <trkpt lat="41.8715300" lon="-2.7593120">
        <ele>1136.8</ele>
        <time>2022-01-30T11:36:59Z</time>
      </trkpt>
      <trkpt lat="41.8715680" lon="-2.7593150">
        <ele>1136.8</ele>
        <time>2022-01-30T11:37:00Z</time>
      </trkpt>
      <trkpt lat="41.8716170" lon="-2.7593280">
        <ele>1136.1</ele>
        <time>2022-01-30T11:37:01Z</time>
      </trkpt>
      <trkpt lat="41.8716450" lon="-2.7593380">
        <ele>1136.1</ele>
        <time>2022-01-30T11:37:02Z</time>
      </trkpt>
      <trkpt lat="41.8716800" lon="-2.7593500">
        <ele>1136.1</ele>
        <time>2022-01-30T11:37:03Z</time>
      </trkpt>
      <trkpt lat="41.8717120" lon="-2.7593600">
        <ele>1136.1</ele>
        <time>2022-01-30T11:37:04Z</time>
      </trkpt>
      <trkpt lat="41.8717430" lon="-2.7593700">
        <ele>1135.4</ele>
        <time>2022-01-30T11:37:05Z</time>
      </trkpt>
      <trkpt lat="41.8717850" lon="-2.7593820">
        <ele>1135.4</ele>
        <time>2022-01-30T11:37:06Z</time>
      </trkpt>
      <trkpt lat="41.8718170" lon="-2.7593970">
        <ele>1135.4</ele>
        <time>2022-01-30T11:37:07Z</time>
      </trkpt>
      <trkpt lat="41.8718450" lon="-2.7594050">
        <ele>1135.4</ele>
        <time>2022-01-30T11:37:08Z</time>
      </trkpt>
      <trkpt lat="41.8718880" lon="-2.7594120">
        <ele>1134.8</ele>
        <time>2022-01-30T11:37:09Z</time>
      </trkpt>
      <trkpt lat="41.8719300" lon="-2.7594170">
        <ele>1134.8</ele>
        <time>2022-01-30T11:37:10Z</time>
      </trkpt>
      <trkpt lat="41.8719680" lon="-2.7594200">
        <ele>1134.8</ele>
        <time>2022-01-30T11:37:11Z</time>
      </trkpt>
      <trkpt lat="41.8720000" lon="-2.7594280">
        <ele>1134.1</ele>
        <time>2022-01-30T11:37:12Z</time>
      </trkpt>
      <trkpt lat="41.8720370" lon="-2.7594380">
        <ele>1134.1</ele>
        <time>2022-01-30T11:37:13Z</time>
      </trkpt>
      <trkpt lat="41.8720830" lon="-2.7594500">
        <ele>1134.1</ele>
        <time>2022-01-30T11:37:14Z</time>
      </trkpt>
      <trkpt lat="41.8721250" lon="-2.7594570">
        <ele>1133.7</ele>
        <time>2022-01-30T11:37:15Z</time>
      </trkpt>
      <trkpt lat="41.8721650" lon="-2.7594670">
        <ele>1133.7</ele>
        <time>2022-01-30T11:37:16Z</time>
      </trkpt>
      <trkpt lat="41.8721980" lon="-2.7594730">
        <ele>1133.7</ele>
        <time>2022-01-30T11:37:17Z</time>
      </trkpt>
      <trkpt lat="41.8722430" lon="-2.7594800">
        <ele>1133.7</ele>
        <time>2022-01-30T11:37:18Z</time>
      </trkpt>
      <trkpt lat="41.8722820" lon="-2.7594830">
        <ele>1133.0</ele>
        <time>2022-01-30T11:37:19Z</time>
      </trkpt>
      <trkpt lat="41.8723180" lon="-2.7594830">
        <ele>1133.0</ele>
        <time>2022-01-30T11:37:20Z</time>
      </trkpt>
      <trkpt lat="41.8723550" lon="-2.7594820">
        <ele>1133.0</ele>
        <time>2022-01-30T11:37:21Z</time>
      </trkpt>
      <trkpt lat="41.8723950" lon="-2.7594780">
        <ele>1132.7</ele>
        <time>2022-01-30T11:37:22Z</time>
      </trkpt>
      <trkpt lat="41.8724330" lon="-2.7594750">
        <ele>1132.7</ele>
        <time>2022-01-30T11:37:23Z</time>
      </trkpt>
      <trkpt lat="41.8724700" lon="-2.7594720">
        <ele>1132.7</ele>
        <time>2022-01-30T11:37:24Z</time>
      </trkpt>
      <trkpt lat="41.8724900" lon="-2.7594670">
        <ele>1132.7</ele>
        <time>2022-01-30T11:37:25Z</time>
      </trkpt>
      <trkpt lat="41.8725250" lon="-2.7594730">
        <ele>1132.4</ele>
        <time>2022-01-30T11:37:26Z</time>
      </trkpt>
      <trkpt lat="41.8725630" lon="-2.7594880">
        <ele>1132.4</ele>
        <time>2022-01-30T11:37:27Z</time>
      </trkpt>
      <trkpt lat="41.8726050" lon="-2.7595130">
        <ele>1132.4</ele>
        <time>2022-01-30T11:37:28Z</time>
      </trkpt>
      <trkpt lat="41.8726380" lon="-2.7595380">
        <ele>1132.2</ele>
        <time>2022-01-30T11:37:29Z</time>
      </trkpt>
      <trkpt lat="41.8726630" lon="-2.7595650">
        <ele>1132.2</ele>
        <time>2022-01-30T11:37:30Z</time>
      </trkpt>
      <trkpt lat="41.8726950" lon="-2.7595980">
        <ele>1132.2</ele>
        <time>2022-01-30T11:37:31Z</time>
      </trkpt>
      <trkpt lat="41.8727250" lon="-2.7596450">
        <ele>1132.7</ele>
        <time>2022-01-30T11:37:32Z</time>
      </trkpt>
      <trkpt lat="41.8727580" lon="-2.7597000">
        <ele>1132.4</ele>
        <time>2022-01-30T11:37:33Z</time>
      </trkpt>
      <trkpt lat="41.8727830" lon="-2.7597400">
        <ele>1132.4</ele>
        <time>2022-01-30T11:37:34Z</time>
      </trkpt>
      <trkpt lat="41.8728130" lon="-2.7597880">
        <ele>1132.4</ele>
        <time>2022-01-30T11:37:35Z</time>
      </trkpt>
      <trkpt lat="41.8728350" lon="-2.7598370">
        <ele>1132.6</ele>
        <time>2022-01-30T11:37:36Z</time>
      </trkpt>
      <trkpt lat="41.8728670" lon="-2.7598770">
        <ele>1132.6</ele>
        <time>2022-01-30T11:37:37Z</time>
      </trkpt>
      <trkpt lat="41.8728950" lon="-2.7599120">
        <ele>1131.9</ele>
        <time>2022-01-30T11:37:38Z</time>
      </trkpt>
      <trkpt lat="41.8729170" lon="-2.7599420">
        <ele>1131.9</ele>
        <time>2022-01-30T11:37:39Z</time>
      </trkpt>
      <trkpt lat="41.8729450" lon="-2.7599850">
        <ele>1132.0</ele>
        <time>2022-01-30T11:37:40Z</time>
      </trkpt>
      <trkpt lat="41.8729630" lon="-2.7600130">
        <ele>1132.0</ele>
        <time>2022-01-30T11:37:41Z</time>
      </trkpt>
      <trkpt lat="41.8729900" lon="-2.7600570">
        <ele>1132.0</ele>
        <time>2022-01-30T11:37:42Z</time>
      </trkpt>
      <trkpt lat="41.8730100" lon="-2.7600950">
        <ele>1132.0</ele>
        <time>2022-01-30T11:37:43Z</time>
      </trkpt>
      <trkpt lat="41.8730270" lon="-2.7601250">
        <ele>1131.1</ele>
        <time>2022-01-30T11:37:44Z</time>
      </trkpt>
      <trkpt lat="41.8730520" lon="-2.7601730">
        <ele>1131.5</ele>
        <time>2022-01-30T11:37:45Z</time>
      </trkpt>
      <trkpt lat="41.8730770" lon="-2.7602080">
        <ele>1131.5</ele>
        <time>2022-01-30T11:37:46Z</time>
      </trkpt>
      <trkpt lat="41.8731020" lon="-2.7602380">
        <ele>1131.5</ele>
        <time>2022-01-30T11:37:47Z</time>
      </trkpt>
      <trkpt lat="41.8731270" lon="-2.7602670">
        <ele>1131.5</ele>
        <time>2022-01-30T11:37:48Z</time>
      </trkpt>
      <trkpt lat="41.8731470" lon="-2.7602930">
        <ele>1130.6</ele>
        <time>2022-01-30T11:37:49Z</time>
      </trkpt>
      <trkpt lat="41.8731730" lon="-2.7603320">
        <ele>1131.2</ele>
        <time>2022-01-30T11:37:50Z</time>
      </trkpt>
      <trkpt lat="41.8731970" lon="-2.7603670">
        <ele>1131.2</ele>
        <time>2022-01-30T11:37:51Z</time>
      </trkpt>
      <trkpt lat="41.8732130" lon="-2.7604000">
        <ele>1131.2</ele>
        <time>2022-01-30T11:37:52Z</time>
      </trkpt>
      <trkpt lat="41.8732320" lon="-2.7604350">
        <ele>1131.2</ele>
        <time>2022-01-30T11:37:53Z</time>
      </trkpt>
      <trkpt lat="41.8732430" lon="-2.7604680">
        <ele>1131.2</ele>
        <time>2022-01-30T11:37:54Z</time>
      </trkpt>
      <trkpt lat="41.8732630" lon="-2.7605120">
        <ele>1132.2</ele>
        <time>2022-01-30T11:37:55Z</time>
      </trkpt>
      <trkpt lat="41.8732820" lon="-2.7605530">
        <ele>1131.1</ele>
        <time>2022-01-30T11:37:56Z</time>
      </trkpt>
      <trkpt lat="41.8732980" lon="-2.7606020">
        <ele>1131.1</ele>
        <time>2022-01-30T11:37:57Z</time>
      </trkpt>
      <trkpt lat="41.8733100" lon="-2.7606430">
        <ele>1131.1</ele>
        <time>2022-01-30T11:37:58Z</time>
      </trkpt>
      <trkpt lat="41.8733250" lon="-2.7606870">
        <ele>1132.0</ele>
        <time>2022-01-30T11:37:59Z</time>
      </trkpt>
      <trkpt lat="41.8733470" lon="-2.7607370">
        <ele>1132.0</ele>
        <time>2022-01-30T11:38:00Z</time>
      </trkpt>
      <trkpt lat="41.8733580" lon="-2.7607820">
        <ele>1132.0</ele>
        <time>2022-01-30T11:38:01Z</time>
      </trkpt>
      <trkpt lat="41.8733670" lon="-2.7608150">
        <ele>1132.0</ele>
        <time>2022-01-30T11:38:02Z</time>
      </trkpt>
      <trkpt lat="41.8733770" lon="-2.7608580">
        <ele>1133.0</ele>
        <time>2022-01-30T11:38:03Z</time>
      </trkpt>
      <trkpt lat="41.8733900" lon="-2.7609050">
        <ele>1133.0</ele>
        <time>2022-01-30T11:38:04Z</time>
      </trkpt>
      <trkpt lat="41.8734030" lon="-2.7609520">
        <ele>1131.7</ele>
        <time>2022-01-30T11:38:05Z</time>
      </trkpt>
      <trkpt lat="41.8734170" lon="-2.7610020">
        <ele>1133.1</ele>
        <time>2022-01-30T11:38:06Z</time>
      </trkpt>
      <trkpt lat="41.8734300" lon="-2.7610370">
        <ele>1133.1</ele>
        <time>2022-01-30T11:38:07Z</time>
      </trkpt>
      <trkpt lat="41.8734450" lon="-2.7610720">
        <ele>1133.1</ele>
        <time>2022-01-30T11:38:08Z</time>
      </trkpt>
      <trkpt lat="41.8734630" lon="-2.7611200">
        <ele>1133.1</ele>
        <time>2022-01-30T11:38:09Z</time>
      </trkpt>
      <trkpt lat="41.8734830" lon="-2.7611580">
        <ele>1133.1</ele>
        <time>2022-01-30T11:38:10Z</time>
      </trkpt>
      <trkpt lat="41.8735030" lon="-2.7611950">
        <ele>1134.9</ele>
        <time>2022-01-30T11:38:11Z</time>
      </trkpt>
      <trkpt lat="41.8735200" lon="-2.7612220">
        <ele>1134.9</ele>
        <time>2022-01-30T11:38:12Z</time>
      </trkpt>
      <trkpt lat="41.8735450" lon="-2.7612700">
        <ele>1133.8</ele>
        <time>2022-01-30T11:38:13Z</time>
      </trkpt>
      <trkpt lat="41.8735670" lon="-2.7613170">
        <ele>1133.8</ele>
        <time>2022-01-30T11:38:14Z</time>
      </trkpt>
      <trkpt lat="41.8735870" lon="-2.7613650">
        <ele>1135.2</ele>
        <time>2022-01-30T11:38:15Z</time>
      </trkpt>
      <trkpt lat="41.8736100" lon="-2.7614380">
        <ele>1135.2</ele>
        <time>2022-01-30T11:38:16Z</time>
      </trkpt>
      <trkpt lat="41.8736400" lon="-2.7614820">
        <ele>1135.2</ele>
        <time>2022-01-30T11:38:17Z</time>
      </trkpt>
      <trkpt lat="41.8736620" lon="-2.7615220">
        <ele>1134.8</ele>
        <time>2022-01-30T11:38:18Z</time>
      </trkpt>
      <trkpt lat="41.8736780" lon="-2.7615970">
        <ele>1134.8</ele>
        <time>2022-01-30T11:38:19Z</time>
      </trkpt>
      <trkpt lat="41.8736930" lon="-2.7616670">
        <ele>1134.8</ele>
        <time>2022-01-30T11:38:20Z</time>
      </trkpt>
      <trkpt lat="41.8736980" lon="-2.7617150">
        <ele>1135.0</ele>
        <time>2022-01-30T11:38:21Z</time>
      </trkpt>
      <trkpt lat="41.8737120" lon="-2.7617730">
        <ele>1135.0</ele>
        <time>2022-01-30T11:38:22Z</time>
      </trkpt>
      <trkpt lat="41.8737250" lon="-2.7618270">
        <ele>1135.0</ele>
        <time>2022-01-30T11:38:23Z</time>
      </trkpt>
      <trkpt lat="41.8737420" lon="-2.7618700">
        <ele>1134.4</ele>
        <time>2022-01-30T11:38:24Z</time>
      </trkpt>
      <trkpt lat="41.8737480" lon="-2.7619080">
        <ele>1134.4</ele>
        <time>2022-01-30T11:38:25Z</time>
      </trkpt>
      <trkpt lat="41.8737550" lon="-2.7619630">
        <ele>1134.4</ele>
        <time>2022-01-30T11:38:26Z</time>
      </trkpt>
      <trkpt lat="41.8737580" lon="-2.7620100">
        <ele>1134.4</ele>
        <time>2022-01-30T11:38:27Z</time>
      </trkpt>
      <trkpt lat="41.8737600" lon="-2.7620630">
        <ele>1133.3</ele>
        <time>2022-01-30T11:38:28Z</time>
      </trkpt>
      <trkpt lat="41.8737620" lon="-2.7621100">
        <ele>1133.3</ele>
        <time>2022-01-30T11:38:29Z</time>
      </trkpt>
      <trkpt lat="41.8737600" lon="-2.7621450">
        <ele>1133.3</ele>
        <time>2022-01-30T11:38:30Z</time>
      </trkpt>
      <trkpt lat="41.8737580" lon="-2.7621950">
        <ele>1133.3</ele>
        <time>2022-01-30T11:38:31Z</time>
      </trkpt>
      <trkpt lat="41.8737520" lon="-2.7622470">
        <ele>1132.2</ele>
        <time>2022-01-30T11:38:32Z</time>
      </trkpt>
      <trkpt lat="41.8737420" lon="-2.7623000">
        <ele>1132.2</ele>
        <time>2022-01-30T11:38:33Z</time>
      </trkpt>
      <trkpt lat="41.8737350" lon="-2.7623450">
        <ele>1132.2</ele>
        <time>2022-01-30T11:38:34Z</time>
      </trkpt>
      <trkpt lat="41.8737280" lon="-2.7624020">
        <ele>1131.6</ele>
        <time>2022-01-30T11:38:35Z</time>
      </trkpt>
      <trkpt lat="41.8737180" lon="-2.7624550">
        <ele>1131.6</ele>
        <time>2022-01-30T11:38:36Z</time>
      </trkpt>
      <trkpt lat="41.8737100" lon="-2.7625030">
        <ele>1131.6</ele>
        <time>2022-01-30T11:38:37Z</time>
      </trkpt>
      <trkpt lat="41.8737020" lon="-2.7625400">
        <ele>1131.6</ele>
        <time>2022-01-30T11:38:38Z</time>
      </trkpt>
      <trkpt lat="41.8736930" lon="-2.7625750">
        <ele>1131.4</ele>
        <time>2022-01-30T11:38:39Z</time>
      </trkpt>
      <trkpt lat="41.8736900" lon="-2.7626020">
        <ele>1131.4</ele>
        <time>2022-01-30T11:38:40Z</time>
      </trkpt>
      <trkpt lat="41.8736870" lon="-2.7626280">
        <ele>1131.4</ele>
        <time>2022-01-30T11:38:41Z</time>
      </trkpt>
      <trkpt lat="41.8736730" lon="-2.7626650">
        <ele>1131.4</ele>
        <time>2022-01-30T11:38:42Z</time>
      </trkpt>
      <trkpt lat="41.8736600" lon="-2.7627050">
        <ele>1131.4</ele>
        <time>2022-01-30T11:38:43Z</time>
      </trkpt>
      <trkpt lat="41.8736470" lon="-2.7627430">
        <ele>1132.0</ele>
        <time>2022-01-30T11:38:44Z</time>
      </trkpt>
      <trkpt lat="41.8736330" lon="-2.7627950">
        <ele>1132.0</ele>
        <time>2022-01-30T11:38:45Z</time>
      </trkpt>
      <trkpt lat="41.8736280" lon="-2.7628300">
        <ele>1132.0</ele>
        <time>2022-01-30T11:38:46Z</time>
      </trkpt>
      <trkpt lat="41.8736150" lon="-2.7628680">
        <ele>1132.0</ele>
        <time>2022-01-30T11:38:47Z</time>
      </trkpt>
      <trkpt lat="41.8736120" lon="-2.7629030">
        <ele>1131.9</ele>
        <time>2022-01-30T11:38:48Z</time>
      </trkpt>
      <trkpt lat="41.8736100" lon="-2.7629420">
        <ele>1131.9</ele>
        <time>2022-01-30T11:38:49Z</time>
      </trkpt>
      <trkpt lat="41.8736070" lon="-2.7629870">
        <ele>1131.9</ele>
        <time>2022-01-30T11:38:50Z</time>
      </trkpt>
      <trkpt lat="41.8736050" lon="-2.7630270">
        <ele>1131.9</ele>
        <time>2022-01-30T11:38:51Z</time>
      </trkpt>
      <trkpt lat="41.8736020" lon="-2.7631080">
        <ele>1131.8</ele>
        <time>2022-01-30T11:38:52Z</time>
      </trkpt>
      <trkpt lat="41.8736050" lon="-2.7631670">
        <ele>1131.8</ele>
        <time>2022-01-30T11:38:53Z</time>
      </trkpt>
      <trkpt lat="41.8736170" lon="-2.7632080">
        <ele>1131.8</ele>
        <time>2022-01-30T11:38:54Z</time>
      </trkpt>
      <trkpt lat="41.8736130" lon="-2.7632470">
        <ele>1131.8</ele>
        <time>2022-01-30T11:38:55Z</time>
      </trkpt>
      <trkpt lat="41.8736120" lon="-2.7632880">
        <ele>1131.8</ele>
        <time>2022-01-30T11:38:56Z</time>
      </trkpt>
      <trkpt lat="41.8736030" lon="-2.7633120">
        <ele>1131.8</ele>
        <time>2022-01-30T11:38:57Z</time>
      </trkpt>
      <trkpt lat="41.8736020" lon="-2.7633330">
        <ele>1131.8</ele>
        <time>2022-01-30T11:38:58Z</time>
      </trkpt>
      <trkpt lat="41.8735930" lon="-2.7633670">
        <ele>1131.8</ele>
        <time>2022-01-30T11:38:59Z</time>
      </trkpt>
      <trkpt lat="41.8735880" lon="-2.7633850">
        <ele>1131.8</ele>
        <time>2022-01-30T11:39:00Z</time>
      </trkpt>
      <trkpt lat="41.8735970" lon="-2.7633930">
        <ele>1131.8</ele>
        <time>2022-01-30T11:39:01Z</time>
      </trkpt>
      <trkpt lat="41.8736100" lon="-2.7634100">
        <ele>1131.9</ele>
        <time>2022-01-30T11:39:02Z</time>
      </trkpt>
      <trkpt lat="41.8736220" lon="-2.7634300">
        <ele>1131.9</ele>
        <time>2022-01-30T11:39:03Z</time>
      </trkpt>
      <trkpt lat="41.8736250" lon="-2.7634670">
        <ele>1131.9</ele>
        <time>2022-01-30T11:39:04Z</time>
      </trkpt>
      <trkpt lat="41.8736280" lon="-2.7634850">
        <ele>1131.9</ele>
        <time>2022-01-30T11:39:05Z</time>
      </trkpt>
      <trkpt lat="41.8736330" lon="-2.7634950">
        <ele>1131.9</ele>
        <time>2022-01-30T11:39:06Z</time>
      </trkpt>
      <trkpt lat="41.8736380" lon="-2.7635100">
        <ele>1131.9</ele>
        <time>2022-01-30T11:39:07Z</time>
      </trkpt>
      <trkpt lat="41.8736400" lon="-2.7635330">
        <ele>1131.9</ele>
        <time>2022-01-30T11:39:08Z</time>
      </trkpt>
      <trkpt lat="41.8736450" lon="-2.7635600">
        <ele>1131.9</ele>
        <time>2022-01-30T11:39:09Z</time>
      </trkpt>
      <trkpt lat="41.8736480" lon="-2.7636050">
        <ele>1131.9</ele>
        <time>2022-01-30T11:39:10Z</time>
      </trkpt>
      <trkpt lat="41.8736530" lon="-2.7636380">
        <ele>1131.3</ele>
        <time>2022-01-30T11:39:11Z</time>
      </trkpt>
      <trkpt lat="41.8736570" lon="-2.7636580">
        <ele>1131.3</ele>
        <time>2022-01-30T11:39:12Z</time>
      </trkpt>
      <trkpt lat="41.8736630" lon="-2.7636770">
        <ele>1131.3</ele>
        <time>2022-01-30T11:39:13Z</time>
      </trkpt>
      <trkpt lat="41.8736650" lon="-2.7636950">
        <ele>1131.3</ele>
        <time>2022-01-30T11:39:14Z</time>
      </trkpt>
      <trkpt lat="41.8736650" lon="-2.7637170">
        <ele>1131.3</ele>
        <time>2022-01-30T11:39:15Z</time>
      </trkpt>
      <trkpt lat="41.8736650" lon="-2.7637300">
        <ele>1131.3</ele>
        <time>2022-01-30T11:39:16Z</time>
      </trkpt>
      <trkpt lat="41.8736600" lon="-2.7637450">
        <ele>1131.3</ele>
        <time>2022-01-30T11:39:17Z</time>
      </trkpt>
      <trkpt lat="41.8736620" lon="-2.7637620">
        <ele>1131.4</ele>
        <time>2022-01-30T11:39:18Z</time>
      </trkpt>
      <trkpt lat="41.8736630" lon="-2.7637730">
        <ele>1131.4</ele>
        <time>2022-01-30T11:39:19Z</time>
      </trkpt>
      <trkpt lat="41.8736680" lon="-2.7637880">
        <ele>1131.4</ele>
        <time>2022-01-30T11:39:20Z</time>
      </trkpt>
      <trkpt lat="41.8736680" lon="-2.7637930">
        <ele>1131.4</ele>
        <time>2022-01-30T11:39:21Z</time>
      </trkpt>
      <trkpt lat="41.8736670" lon="-2.7637930">
        <ele>1131.4</ele>
        <time>2022-01-30T11:39:22Z</time>
      </trkpt>
      <trkpt lat="41.8736600" lon="-2.7637670">
        <ele>1131.4</ele>
        <time>2022-01-30T11:39:23Z</time>
      </trkpt>
      <trkpt lat="41.8736530" lon="-2.7637550">
        <ele>1131.4</ele>
        <time>2022-01-30T11:39:24Z</time>
      </trkpt>
      <trkpt lat="41.8736500" lon="-2.7637470">
        <ele>1131.9</ele>
        <time>2022-01-30T11:39:25Z</time>
      </trkpt>
      <trkpt lat="41.8736450" lon="-2.7637430">
        <ele>1131.9</ele>
        <time>2022-01-30T11:39:26Z</time>
      </trkpt>
      <trkpt lat="41.8736400" lon="-2.7637370">
        <ele>1131.9</ele>
        <time>2022-01-30T11:39:27Z</time>
      </trkpt>
      <trkpt lat="41.8736400" lon="-2.7637370">
        <ele>1131.9</ele>
        <time>2022-01-30T11:39:28Z</time>
      </trkpt>
      <trkpt lat="41.8736450" lon="-2.7637480">
        <ele>1131.9</ele>
        <time>2022-01-30T11:39:29Z</time>
      </trkpt>
      <trkpt lat="41.8736500" lon="-2.7637630">
        <ele>1131.9</ele>
        <time>2022-01-30T11:39:30Z</time>
      </trkpt>
      <trkpt lat="41.8736550" lon="-2.7637850">
        <ele>1131.4</ele>
        <time>2022-01-30T11:39:31Z</time>
      </trkpt>
      <trkpt lat="41.8736620" lon="-2.7638100">
        <ele>1131.4</ele>
        <time>2022-01-30T11:39:32Z</time>
      </trkpt>
      <trkpt lat="41.8736700" lon="-2.7638330">
        <ele>1131.4</ele>
        <time>2022-01-30T11:39:33Z</time>
      </trkpt>
      <trkpt lat="41.8736780" lon="-2.7638520">
        <ele>1131.4</ele>
        <time>2022-01-30T11:39:34Z</time>
      </trkpt>
      <trkpt lat="41.8736850" lon="-2.7638650">
        <ele>1131.4</ele>
        <time>2022-01-30T11:39:35Z</time>
      </trkpt>
      <trkpt lat="41.8736900" lon="-2.7638830">
        <ele>1131.4</ele>
        <time>2022-01-30T11:39:36Z</time>
      </trkpt>
      <trkpt lat="41.8736950" lon="-2.7638970">
        <ele>1131.4</ele>
        <time>2022-01-30T11:39:37Z</time>
      </trkpt>
      <trkpt lat="41.8736980" lon="-2.7639120">
        <ele>1131.4</ele>
        <time>2022-01-30T11:39:38Z</time>
      </trkpt>
      <trkpt lat="41.8736980" lon="-2.7639220">
        <ele>1131.5</ele>
        <time>2022-01-30T11:39:39Z</time>
      </trkpt>
      <trkpt lat="41.8736980" lon="-2.7639350">
        <ele>1131.5</ele>
        <time>2022-01-30T11:39:40Z</time>
      </trkpt>
      <trkpt lat="41.8736970" lon="-2.7639520">
        <ele>1131.5</ele>
        <time>2022-01-30T11:39:41Z</time>
      </trkpt>
      <trkpt lat="41.8736980" lon="-2.7639720">
        <ele>1131.5</ele>
        <time>2022-01-30T11:39:42Z</time>
      </trkpt>
      <trkpt lat="41.8737070" lon="-2.7639970">
        <ele>1131.5</ele>
        <time>2022-01-30T11:39:43Z</time>
      </trkpt>
      <trkpt lat="41.8737200" lon="-2.7640250">
        <ele>1131.5</ele>
        <time>2022-01-30T11:39:44Z</time>
      </trkpt>
      <trkpt lat="41.8737280" lon="-2.7640550">
        <ele>1131.5</ele>
        <time>2022-01-30T11:39:45Z</time>
      </trkpt>
      <trkpt lat="41.8737400" lon="-2.7640830">
        <ele>1131.5</ele>
        <time>2022-01-30T11:39:46Z</time>
      </trkpt>
      <trkpt lat="41.8737570" lon="-2.7641070">
        <ele>1131.7</ele>
        <time>2022-01-30T11:39:47Z</time>
      </trkpt>
      <trkpt lat="41.8737920" lon="-2.7641350">
        <ele>1131.4</ele>
        <time>2022-01-30T11:39:48Z</time>
      </trkpt>
      <trkpt lat="41.8738150" lon="-2.7641630">
        <ele>1131.4</ele>
        <time>2022-01-30T11:39:49Z</time>
      </trkpt>
      <trkpt lat="41.8738320" lon="-2.7641920">
        <ele>1131.4</ele>
        <time>2022-01-30T11:39:50Z</time>
      </trkpt>
      <trkpt lat="41.8738450" lon="-2.7642120">
        <ele>1131.4</ele>
        <time>2022-01-30T11:39:51Z</time>
      </trkpt>
      <trkpt lat="41.8738520" lon="-2.7642420">
        <ele>1131.4</ele>
        <time>2022-01-30T11:39:52Z</time>
      </trkpt>
      <trkpt lat="41.8738570" lon="-2.7642650">
        <ele>1131.6</ele>
        <time>2022-01-30T11:39:53Z</time>
      </trkpt>
      <trkpt lat="41.8738670" lon="-2.7642770">
        <ele>1131.6</ele>
        <time>2022-01-30T11:39:54Z</time>
      </trkpt>
      <trkpt lat="41.8738750" lon="-2.7642870">
        <ele>1131.6</ele>
        <time>2022-01-30T11:39:55Z</time>
      </trkpt>
      <trkpt lat="41.8738780" lon="-2.7643020">
        <ele>1131.6</ele>
        <time>2022-01-30T11:39:56Z</time>
      </trkpt>
      <trkpt lat="41.8738820" lon="-2.7643220">
        <ele>1131.6</ele>
        <time>2022-01-30T11:39:57Z</time>
      </trkpt>
      <trkpt lat="41.8738880" lon="-2.7643380">
        <ele>1131.6</ele>
        <time>2022-01-30T11:39:58Z</time>
      </trkpt>
      <trkpt lat="41.8738750" lon="-2.7643500">
        <ele>1131.6</ele>
        <time>2022-01-30T11:39:59Z</time>
      </trkpt>
      <trkpt lat="41.8738750" lon="-2.7643680">
        <ele>1131.6</ele>
        <time>2022-01-30T11:40:00Z</time>
      </trkpt>
      <trkpt lat="41.8738820" lon="-2.7643930">
        <ele>1131.6</ele>
        <time>2022-01-30T11:40:01Z</time>
      </trkpt>
      <trkpt lat="41.8738830" lon="-2.7644000">
        <ele>1131.6</ele>
        <time>2022-01-30T11:40:02Z</time>
      </trkpt>
      <trkpt lat="41.8738900" lon="-2.7644000">
        <ele>1131.6</ele>
        <time>2022-01-30T11:40:03Z</time>
      </trkpt>
      <trkpt lat="41.8738930" lon="-2.7644000">
        <ele>1131.6</ele>
        <time>2022-01-30T11:40:04Z</time>
      </trkpt>
      <trkpt lat="41.8738950" lon="-2.7643980">
        <ele>1131.6</ele>
        <time>2022-01-30T11:40:05Z</time>
      </trkpt>
      <trkpt lat="41.8738950" lon="-2.7644070">
        <ele>1131.6</ele>
        <time>2022-01-30T11:40:06Z</time>
      </trkpt>
      <trkpt lat="41.8738970" lon="-2.7644200">
        <ele>1131.6</ele>
        <time>2022-01-30T11:40:07Z</time>
      </trkpt>
      <trkpt lat="41.8739000" lon="-2.7644370">
        <ele>1131.8</ele>
        <time>2022-01-30T11:40:08Z</time>
      </trkpt>
      <trkpt lat="41.8739080" lon="-2.7644480">
        <ele>1131.2</ele>
        <time>2022-01-30T11:40:09Z</time>
      </trkpt>
      <trkpt lat="41.8739170" lon="-2.7644650">
        <ele>1131.2</ele>
        <time>2022-01-30T11:40:10Z</time>
      </trkpt>
      <trkpt lat="41.8739280" lon="-2.7644780">
        <ele>1131.2</ele>
        <time>2022-01-30T11:40:11Z</time>
      </trkpt>
      <trkpt lat="41.8739350" lon="-2.7644880">
        <ele>1131.2</ele>
        <time>2022-01-30T11:40:12Z</time>
      </trkpt>
      <trkpt lat="41.8739430" lon="-2.7645100">
        <ele>1131.2</ele>
        <time>2022-01-30T11:40:13Z</time>
      </trkpt>
      <trkpt lat="41.8739520" lon="-2.7645350">
        <ele>1131.2</ele>
        <time>2022-01-30T11:40:14Z</time>
      </trkpt>
      <trkpt lat="41.8739620" lon="-2.7645650">
        <ele>1131.2</ele>
        <time>2022-01-30T11:40:15Z</time>
      </trkpt>
      <trkpt lat="41.8739730" lon="-2.7645870">
        <ele>1131.2</ele>
        <time>2022-01-30T11:40:16Z</time>
      </trkpt>
      <trkpt lat="41.8739870" lon="-2.7646130">
        <ele>1131.4</ele>
        <time>2022-01-30T11:40:17Z</time>
      </trkpt>
      <trkpt lat="41.8740030" lon="-2.7646380">
        <ele>1131.4</ele>
        <time>2022-01-30T11:40:18Z</time>
      </trkpt>
      <trkpt lat="41.8740180" lon="-2.7646600">
        <ele>1131.4</ele>
        <time>2022-01-30T11:40:19Z</time>
      </trkpt>
      <trkpt lat="41.8740350" lon="-2.7646820">
        <ele>1130.6</ele>
        <time>2022-01-30T11:40:20Z</time>
      </trkpt>
      <trkpt lat="41.8740530" lon="-2.7646970">
        <ele>1130.6</ele>
        <time>2022-01-30T11:40:21Z</time>
      </trkpt>
      <trkpt lat="41.8740780" lon="-2.7647180">
        <ele>1130.6</ele>
        <time>2022-01-30T11:40:22Z</time>
      </trkpt>
      <trkpt lat="41.8741050" lon="-2.7647420">
        <ele>1130.6</ele>
        <time>2022-01-30T11:40:23Z</time>
      </trkpt>
      <trkpt lat="41.8741270" lon="-2.7647650">
        <ele>1130.6</ele>
        <time>2022-01-30T11:40:24Z</time>
      </trkpt>
      <trkpt lat="41.8741430" lon="-2.7647870">
        <ele>1130.7</ele>
        <time>2022-01-30T11:40:25Z</time>
      </trkpt>
      <trkpt lat="41.8741630" lon="-2.7647930">
        <ele>1129.4</ele>
        <time>2022-01-30T11:40:26Z</time>
      </trkpt>
      <trkpt lat="41.8741850" lon="-2.7648150">
        <ele>1129.4</ele>
        <time>2022-01-30T11:40:27Z</time>
      </trkpt>
      <trkpt lat="41.8742020" lon="-2.7648450">
        <ele>1129.4</ele>
        <time>2022-01-30T11:40:28Z</time>
      </trkpt>
      <trkpt lat="41.8742180" lon="-2.7648750">
        <ele>1129.4</ele>
        <time>2022-01-30T11:40:29Z</time>
      </trkpt>
      <trkpt lat="41.8742320" lon="-2.7649030">
        <ele>1129.4</ele>
        <time>2022-01-30T11:40:30Z</time>
      </trkpt>
      <trkpt lat="41.8742500" lon="-2.7649350">
        <ele>1129.4</ele>
        <time>2022-01-30T11:40:31Z</time>
      </trkpt>
      <trkpt lat="41.8742670" lon="-2.7649500">
        <ele>1129.7</ele>
        <time>2022-01-30T11:40:32Z</time>
      </trkpt>
      <trkpt lat="41.8742900" lon="-2.7649630">
        <ele>1129.7</ele>
        <time>2022-01-30T11:40:33Z</time>
      </trkpt>
      <trkpt lat="41.8743100" lon="-2.7649780">
        <ele>1128.9</ele>
        <time>2022-01-30T11:40:34Z</time>
      </trkpt>
      <trkpt lat="41.8743280" lon="-2.7649900">
        <ele>1128.9</ele>
        <time>2022-01-30T11:40:35Z</time>
      </trkpt>
      <trkpt lat="41.8743470" lon="-2.7650030">
        <ele>1128.9</ele>
        <time>2022-01-30T11:40:36Z</time>
      </trkpt>
      <trkpt lat="41.8743680" lon="-2.7650170">
        <ele>1128.9</ele>
        <time>2022-01-30T11:40:37Z</time>
      </trkpt>
      <trkpt lat="41.8743930" lon="-2.7650230">
        <ele>1128.9</ele>
        <time>2022-01-30T11:40:38Z</time>
      </trkpt>
      <trkpt lat="41.8744220" lon="-2.7650350">
        <ele>1127.9</ele>
        <time>2022-01-30T11:40:39Z</time>
      </trkpt>
      <trkpt lat="41.8744450" lon="-2.7650450">
        <ele>1127.9</ele>
        <time>2022-01-30T11:40:40Z</time>
      </trkpt>
      <trkpt lat="41.8744750" lon="-2.7650570">
        <ele>1127.9</ele>
        <time>2022-01-30T11:40:41Z</time>
      </trkpt>
      <trkpt lat="41.8744950" lon="-2.7650670">
        <ele>1127.9</ele>
        <time>2022-01-30T11:40:42Z</time>
      </trkpt>
      <trkpt lat="41.8745170" lon="-2.7650900">
        <ele>1127.9</ele>
        <time>2022-01-30T11:40:43Z</time>
      </trkpt>
      <trkpt lat="41.8745400" lon="-2.7651120">
        <ele>1127.9</ele>
        <time>2022-01-30T11:40:44Z</time>
      </trkpt>
      <trkpt lat="41.8745680" lon="-2.7651280">
        <ele>1127.5</ele>
        <time>2022-01-30T11:40:45Z</time>
      </trkpt>
      <trkpt lat="41.8745970" lon="-2.7651470">
        <ele>1127.5</ele>
        <time>2022-01-30T11:40:46Z</time>
      </trkpt>
      <trkpt lat="41.8746250" lon="-2.7651680">
        <ele>1127.5</ele>
        <time>2022-01-30T11:40:47Z</time>
      </trkpt>
      <trkpt lat="41.8746580" lon="-2.7651970">
        <ele>1127.5</ele>
        <time>2022-01-30T11:40:48Z</time>
      </trkpt>
      <trkpt lat="41.8746900" lon="-2.7652100">
        <ele>1126.3</ele>
        <time>2022-01-30T11:40:49Z</time>
      </trkpt>
      <trkpt lat="41.8747250" lon="-2.7652250">
        <ele>1126.3</ele>
        <time>2022-01-30T11:40:50Z</time>
      </trkpt>
      <trkpt lat="41.8747620" lon="-2.7652380">
        <ele>1126.3</ele>
        <time>2022-01-30T11:40:51Z</time>
      </trkpt>
      <trkpt lat="41.8747930" lon="-2.7652500">
        <ele>1126.3</ele>
        <time>2022-01-30T11:40:52Z</time>
      </trkpt>
      <trkpt lat="41.8748200" lon="-2.7652580">
        <ele>1125.2</ele>
        <time>2022-01-30T11:40:53Z</time>
      </trkpt>
      <trkpt lat="41.8748580" lon="-2.7652680">
        <ele>1125.2</ele>
        <time>2022-01-30T11:40:54Z</time>
      </trkpt>
      <trkpt lat="41.8749050" lon="-2.7652880">
        <ele>1125.2</ele>
        <time>2022-01-30T11:40:55Z</time>
      </trkpt>
      <trkpt lat="41.8749450" lon="-2.7653120">
        <ele>1125.1</ele>
        <time>2022-01-30T11:40:56Z</time>
      </trkpt>
      <trkpt lat="41.8749870" lon="-2.7653330">
        <ele>1125.1</ele>
        <time>2022-01-30T11:40:57Z</time>
      </trkpt>
      <trkpt lat="41.8750180" lon="-2.7653620">
        <ele>1125.1</ele>
        <time>2022-01-30T11:40:58Z</time>
      </trkpt>
      <trkpt lat="41.8750670" lon="-2.7653970">
        <ele>1124.3</ele>
        <time>2022-01-30T11:40:59Z</time>
      </trkpt>
      <trkpt lat="41.8751000" lon="-2.7654250">
        <ele>1124.3</ele>
        <time>2022-01-30T11:41:00Z</time>
      </trkpt>
      <trkpt lat="41.8751370" lon="-2.7654450">
        <ele>1124.3</ele>
        <time>2022-01-30T11:41:01Z</time>
      </trkpt>
      <trkpt lat="41.8751670" lon="-2.7654620">
        <ele>1124.3</ele>
        <time>2022-01-30T11:41:02Z</time>
      </trkpt>
      <trkpt lat="41.8752050" lon="-2.7654870">
        <ele>1124.7</ele>
        <time>2022-01-30T11:41:03Z</time>
      </trkpt>
      <trkpt lat="41.8752420" lon="-2.7655300">
        <ele>1124.7</ele>
        <time>2022-01-30T11:41:04Z</time>
      </trkpt>
      <trkpt lat="41.8752650" lon="-2.7655700">
        <ele>1124.7</ele>
        <time>2022-01-30T11:41:05Z</time>
      </trkpt>
      <trkpt lat="41.8752880" lon="-2.7656120">
        <ele>1124.7</ele>
        <time>2022-01-30T11:41:06Z</time>
      </trkpt>
      <trkpt lat="41.8753030" lon="-2.7656380">
        <ele>1125.9</ele>
        <time>2022-01-30T11:41:07Z</time>
      </trkpt>
      <trkpt lat="41.8753150" lon="-2.7656830">
        <ele>1125.4</ele>
        <time>2022-01-30T11:41:08Z</time>
      </trkpt>
      <trkpt lat="41.8753330" lon="-2.7657220">
        <ele>1125.4</ele>
        <time>2022-01-30T11:41:09Z</time>
      </trkpt>
      <trkpt lat="41.8753570" lon="-2.7657600">
        <ele>1125.4</ele>
        <time>2022-01-30T11:41:10Z</time>
      </trkpt>
      <trkpt lat="41.8753770" lon="-2.7658080">
        <ele>1125.4</ele>
        <time>2022-01-30T11:41:11Z</time>
      </trkpt>
      <trkpt lat="41.8754000" lon="-2.7658570">
        <ele>1126.7</ele>
        <time>2022-01-30T11:41:12Z</time>
      </trkpt>
      <trkpt lat="41.8754350" lon="-2.7658900">
        <ele>1126.7</ele>
        <time>2022-01-30T11:41:13Z</time>
      </trkpt>
      <trkpt lat="41.8754670" lon="-2.7659080">
        <ele>1125.8</ele>
        <time>2022-01-30T11:41:14Z</time>
      </trkpt>
      <trkpt lat="41.8755180" lon="-2.7659400">
        <ele>1125.8</ele>
        <time>2022-01-30T11:41:15Z</time>
      </trkpt>
      <trkpt lat="41.8755520" lon="-2.7659680">
        <ele>1125.8</ele>
        <time>2022-01-30T11:41:16Z</time>
      </trkpt>
      <trkpt lat="41.8755870" lon="-2.7660000">
        <ele>1124.9</ele>
        <time>2022-01-30T11:41:17Z</time>
      </trkpt>
      <trkpt lat="41.8756230" lon="-2.7660380">
        <ele>1124.9</ele>
        <time>2022-01-30T11:41:18Z</time>
      </trkpt>
      <trkpt lat="41.8756650" lon="-2.7660670">
        <ele>1124.9</ele>
        <time>2022-01-30T11:41:19Z</time>
      </trkpt>
      <trkpt lat="41.8757050" lon="-2.7660870">
        <ele>1123.7</ele>
        <time>2022-01-30T11:41:20Z</time>
      </trkpt>
      <trkpt lat="41.8757350" lon="-2.7660980">
        <ele>1123.7</ele>
        <time>2022-01-30T11:41:21Z</time>
      </trkpt>
      <trkpt lat="41.8757700" lon="-2.7661200">
        <ele>1123.7</ele>
        <time>2022-01-30T11:41:22Z</time>
      </trkpt>
      <trkpt lat="41.8758070" lon="-2.7661480">
        <ele>1123.7</ele>
        <time>2022-01-30T11:41:23Z</time>
      </trkpt>
      <trkpt lat="41.8758350" lon="-2.7661720">
        <ele>1123.4</ele>
        <time>2022-01-30T11:41:24Z</time>
      </trkpt>
      <trkpt lat="41.8758600" lon="-2.7661930">
        <ele>1123.4</ele>
        <time>2022-01-30T11:41:25Z</time>
      </trkpt>
      <trkpt lat="41.8758820" lon="-2.7662320">
        <ele>1123.4</ele>
        <time>2022-01-30T11:41:26Z</time>
      </trkpt>
      <trkpt lat="41.8759000" lon="-2.7662680">
        <ele>1123.4</ele>
        <time>2022-01-30T11:41:27Z</time>
      </trkpt>
      <trkpt lat="41.8759250" lon="-2.7663080">
        <ele>1123.4</ele>
        <time>2022-01-30T11:41:28Z</time>
      </trkpt>
      <trkpt lat="41.8759480" lon="-2.7663380">
        <ele>1123.9</ele>
        <time>2022-01-30T11:41:29Z</time>
      </trkpt>
      <trkpt lat="41.8759730" lon="-2.7663620">
        <ele>1123.4</ele>
        <time>2022-01-30T11:41:30Z</time>
      </trkpt>
      <trkpt lat="41.8760120" lon="-2.7663900">
        <ele>1123.4</ele>
        <time>2022-01-30T11:41:31Z</time>
      </trkpt>
      <trkpt lat="41.8760420" lon="-2.7664200">
        <ele>1123.4</ele>
        <time>2022-01-30T11:41:32Z</time>
      </trkpt>
      <trkpt lat="41.8760700" lon="-2.7664550">
        <ele>1123.4</ele>
        <time>2022-01-30T11:41:33Z</time>
      </trkpt>
      <trkpt lat="41.8761000" lon="-2.7664920">
        <ele>1122.7</ele>
        <time>2022-01-30T11:41:34Z</time>
      </trkpt>
      <trkpt lat="41.8761300" lon="-2.7665270">
        <ele>1123.1</ele>
        <time>2022-01-30T11:41:35Z</time>
      </trkpt>
      <trkpt lat="41.8761670" lon="-2.7665770">
        <ele>1123.1</ele>
        <time>2022-01-30T11:41:36Z</time>
      </trkpt>
      <trkpt lat="41.8761970" lon="-2.7666250">
        <ele>1123.1</ele>
        <time>2022-01-30T11:41:37Z</time>
      </trkpt>
      <trkpt lat="41.8762250" lon="-2.7666720">
        <ele>1123.0</ele>
        <time>2022-01-30T11:41:38Z</time>
      </trkpt>
      <trkpt lat="41.8762500" lon="-2.7667120">
        <ele>1123.0</ele>
        <time>2022-01-30T11:41:39Z</time>
      </trkpt>
      <trkpt lat="41.8762700" lon="-2.7667680">
        <ele>1123.0</ele>
        <time>2022-01-30T11:41:40Z</time>
      </trkpt>
      <trkpt lat="41.8762870" lon="-2.7668180">
        <ele>1123.0</ele>
        <time>2022-01-30T11:41:41Z</time>
      </trkpt>
      <trkpt lat="41.8762980" lon="-2.7668750">
        <ele>1123.4</ele>
        <time>2022-01-30T11:41:42Z</time>
      </trkpt>
      <trkpt lat="41.8763070" lon="-2.7669330">
        <ele>1123.4</ele>
        <time>2022-01-30T11:41:43Z</time>
      </trkpt>
      <trkpt lat="41.8762980" lon="-2.7669920">
        <ele>1123.4</ele>
        <time>2022-01-30T11:41:44Z</time>
      </trkpt>
      <trkpt lat="41.8763030" lon="-2.7670580">
        <ele>1123.7</ele>
        <time>2022-01-30T11:41:45Z</time>
      </trkpt>
      <trkpt lat="41.8763150" lon="-2.7670820">
        <ele>1123.7</ele>
        <time>2022-01-30T11:41:46Z</time>
      </trkpt>
      <trkpt lat="41.8763330" lon="-2.7671070">
        <ele>1123.7</ele>
        <time>2022-01-30T11:41:47Z</time>
      </trkpt>
      <trkpt lat="41.8763480" lon="-2.7671350">
        <ele>1123.1</ele>
        <time>2022-01-30T11:41:48Z</time>
      </trkpt>
      <trkpt lat="41.8763530" lon="-2.7671600">
        <ele>1123.1</ele>
        <time>2022-01-30T11:41:49Z</time>
      </trkpt>
      <trkpt lat="41.8763770" lon="-2.7671820">
        <ele>1123.1</ele>
        <time>2022-01-30T11:41:50Z</time>
      </trkpt>
      <trkpt lat="41.8763930" lon="-2.7672020">
        <ele>1123.1</ele>
        <time>2022-01-30T11:41:51Z</time>
      </trkpt>
      <trkpt lat="41.8764130" lon="-2.7672250">
        <ele>1123.1</ele>
        <time>2022-01-30T11:41:52Z</time>
      </trkpt>
      <trkpt lat="41.8764350" lon="-2.7672470">
        <ele>1123.1</ele>
        <time>2022-01-30T11:41:53Z</time>
      </trkpt>
      <trkpt lat="41.8764620" lon="-2.7672680">
        <ele>1123.1</ele>
        <time>2022-01-30T11:41:54Z</time>
      </trkpt>
      <trkpt lat="41.8764930" lon="-2.7672920">
        <ele>1122.4</ele>
        <time>2022-01-30T11:41:55Z</time>
      </trkpt>
      <trkpt lat="41.8765180" lon="-2.7673030">
        <ele>1122.4</ele>
        <time>2022-01-30T11:41:56Z</time>
      </trkpt>
      <trkpt lat="41.8765370" lon="-2.7673080">
        <ele>1122.4</ele>
        <time>2022-01-30T11:41:57Z</time>
      </trkpt>
      <trkpt lat="41.8765530" lon="-2.7673070">
        <ele>1122.4</ele>
        <time>2022-01-30T11:41:58Z</time>
      </trkpt>
      <trkpt lat="41.8765700" lon="-2.7673100">
        <ele>1122.4</ele>
        <time>2022-01-30T11:41:59Z</time>
      </trkpt>
      <trkpt lat="41.8765850" lon="-2.7673130">
        <ele>1122.4</ele>
        <time>2022-01-30T11:42:00Z</time>
      </trkpt>
      <trkpt lat="41.8766000" lon="-2.7673000">
        <ele>1121.6</ele>
        <time>2022-01-30T11:42:01Z</time>
      </trkpt>
      <trkpt lat="41.8766100" lon="-2.7672920">
        <ele>1121.6</ele>
        <time>2022-01-30T11:42:02Z</time>
      </trkpt>
      <trkpt lat="41.8766270" lon="-2.7672830">
        <ele>1121.6</ele>
        <time>2022-01-30T11:42:03Z</time>
      </trkpt>
      <trkpt lat="41.8766470" lon="-2.7672770">
        <ele>1121.6</ele>
        <time>2022-01-30T11:42:04Z</time>
      </trkpt>
      <trkpt lat="41.8766680" lon="-2.7672750">
        <ele>1121.6</ele>
        <time>2022-01-30T11:42:05Z</time>
      </trkpt>
      <trkpt lat="41.8766920" lon="-2.7672800">
        <ele>1121.6</ele>
        <time>2022-01-30T11:42:06Z</time>
      </trkpt>
      <trkpt lat="41.8767080" lon="-2.7672980">
        <ele>1121.6</ele>
        <time>2022-01-30T11:42:07Z</time>
      </trkpt>
      <trkpt lat="41.8767250" lon="-2.7673300">
        <ele>1120.8</ele>
        <time>2022-01-30T11:42:08Z</time>
      </trkpt>
      <trkpt lat="41.8767420" lon="-2.7673600">
        <ele>1120.5</ele>
        <time>2022-01-30T11:42:09Z</time>
      </trkpt>
      <trkpt lat="41.8767630" lon="-2.7673920">
        <ele>1120.5</ele>
        <time>2022-01-30T11:42:10Z</time>
      </trkpt>
      <trkpt lat="41.8767830" lon="-2.7674230">
        <ele>1120.5</ele>
        <time>2022-01-30T11:42:11Z</time>
      </trkpt>
      <trkpt lat="41.8768020" lon="-2.7674570">
        <ele>1120.5</ele>
        <time>2022-01-30T11:42:12Z</time>
      </trkpt>
      <trkpt lat="41.8768170" lon="-2.7674850">
        <ele>1120.5</ele>
        <time>2022-01-30T11:42:13Z</time>
      </trkpt>
      <trkpt lat="41.8768250" lon="-2.7675120">
        <ele>1120.5</ele>
        <time>2022-01-30T11:42:14Z</time>
      </trkpt>
      <trkpt lat="41.8768350" lon="-2.7675320">
        <ele>1120.0</ele>
        <time>2022-01-30T11:42:15Z</time>
      </trkpt>
      <trkpt lat="41.8768450" lon="-2.7675520">
        <ele>1120.0</ele>
        <time>2022-01-30T11:42:16Z</time>
      </trkpt>
      <trkpt lat="41.8768600" lon="-2.7675700">
        <ele>1119.5</ele>
        <time>2022-01-30T11:42:17Z</time>
      </trkpt>
      <trkpt lat="41.8768730" lon="-2.7675850">
        <ele>1119.5</ele>
        <time>2022-01-30T11:42:18Z</time>
      </trkpt>
      <trkpt lat="41.8768870" lon="-2.7676030">
        <ele>1119.5</ele>
        <time>2022-01-30T11:42:19Z</time>
      </trkpt>
      <trkpt lat="41.8769070" lon="-2.7676220">
        <ele>1119.5</ele>
        <time>2022-01-30T11:42:20Z</time>
      </trkpt>
      <trkpt lat="41.8769280" lon="-2.7676430">
        <ele>1119.5</ele>
        <time>2022-01-30T11:42:21Z</time>
      </trkpt>
      <trkpt lat="41.8769580" lon="-2.7676820">
        <ele>1119.5</ele>
        <time>2022-01-30T11:42:22Z</time>
      </trkpt>
      <trkpt lat="41.8769870" lon="-2.7677130">
        <ele>1118.6</ele>
        <time>2022-01-30T11:42:23Z</time>
      </trkpt>
      <trkpt lat="41.8770150" lon="-2.7677380">
        <ele>1118.6</ele>
        <time>2022-01-30T11:42:24Z</time>
      </trkpt>
      <trkpt lat="41.8770330" lon="-2.7677570">
        <ele>1118.6</ele>
        <time>2022-01-30T11:42:25Z</time>
      </trkpt>
      <trkpt lat="41.8770550" lon="-2.7677750">
        <ele>1118.6</ele>
        <time>2022-01-30T11:42:26Z</time>
      </trkpt>
      <trkpt lat="41.8770730" lon="-2.7678000">
        <ele>1118.6</ele>
        <time>2022-01-30T11:42:27Z</time>
      </trkpt>
      <trkpt lat="41.8770900" lon="-2.7678280">
        <ele>1118.6</ele>
        <time>2022-01-30T11:42:28Z</time>
      </trkpt>
      <trkpt lat="41.8771070" lon="-2.7678870">
        <ele>1118.1</ele>
        <time>2022-01-30T11:42:29Z</time>
      </trkpt>
      <trkpt lat="41.8771300" lon="-2.7679300">
        <ele>1118.1</ele>
        <time>2022-01-30T11:42:30Z</time>
      </trkpt>
      <trkpt lat="41.8771670" lon="-2.7679750">
        <ele>1118.1</ele>
        <time>2022-01-30T11:42:31Z</time>
      </trkpt>
      <trkpt lat="41.8771900" lon="-2.7679980">
        <ele>1118.1</ele>
        <time>2022-01-30T11:42:32Z</time>
      </trkpt>
      <trkpt lat="41.8772080" lon="-2.7680130">
        <ele>1118.1</ele>
        <time>2022-01-30T11:42:33Z</time>
      </trkpt>
      <trkpt lat="41.8772280" lon="-2.7680420">
        <ele>1117.7</ele>
        <time>2022-01-30T11:42:34Z</time>
      </trkpt>
      <trkpt lat="41.8772450" lon="-2.7680730">
        <ele>1117.7</ele>
        <time>2022-01-30T11:42:35Z</time>
      </trkpt>
      <trkpt lat="41.8772630" lon="-2.7681030">
        <ele>1117.7</ele>
        <time>2022-01-30T11:42:36Z</time>
      </trkpt>
      <trkpt lat="41.8772870" lon="-2.7681370">
        <ele>1117.7</ele>
        <time>2022-01-30T11:42:37Z</time>
      </trkpt>
      <trkpt lat="41.8773100" lon="-2.7681580">
        <ele>1117.7</ele>
        <time>2022-01-30T11:42:38Z</time>
      </trkpt>
      <trkpt lat="41.8773320" lon="-2.7681730">
        <ele>1117.7</ele>
        <time>2022-01-30T11:42:39Z</time>
      </trkpt>
      <trkpt lat="41.8773580" lon="-2.7681950">
        <ele>1117.7</ele>
        <time>2022-01-30T11:42:40Z</time>
      </trkpt>
      <trkpt lat="41.8773850" lon="-2.7682170">
        <ele>1117.3</ele>
        <time>2022-01-30T11:42:41Z</time>
      </trkpt>
      <trkpt lat="41.8774130" lon="-2.7682470">
        <ele>1117.3</ele>
        <time>2022-01-30T11:42:42Z</time>
      </trkpt>
      <trkpt lat="41.8774480" lon="-2.7682820">
        <ele>1117.3</ele>
        <time>2022-01-30T11:42:43Z</time>
      </trkpt>
      <trkpt lat="41.8774720" lon="-2.7683080">
        <ele>1117.3</ele>
        <time>2022-01-30T11:42:44Z</time>
      </trkpt>
      <trkpt lat="41.8775080" lon="-2.7683350">
        <ele>1117.5</ele>
        <time>2022-01-30T11:42:45Z</time>
      </trkpt>
      <trkpt lat="41.8775370" lon="-2.7683530">
        <ele>1117.5</ele>
        <time>2022-01-30T11:42:46Z</time>
      </trkpt>
      <trkpt lat="41.8775620" lon="-2.7683630">
        <ele>1117.5</ele>
        <time>2022-01-30T11:42:47Z</time>
      </trkpt>
      <trkpt lat="41.8775930" lon="-2.7683750">
        <ele>1117.5</ele>
        <time>2022-01-30T11:42:48Z</time>
      </trkpt>
      <trkpt lat="41.8776270" lon="-2.7683850">
        <ele>1117.5</ele>
        <time>2022-01-30T11:42:49Z</time>
      </trkpt>
      <trkpt lat="41.8776630" lon="-2.7683950">
        <ele>1117.5</ele>
        <time>2022-01-30T11:42:50Z</time>
      </trkpt>
      <trkpt lat="41.8776920" lon="-2.7684020">
        <ele>1117.5</ele>
        <time>2022-01-30T11:42:51Z</time>
      </trkpt>
      <trkpt lat="41.8777200" lon="-2.7684080">
        <ele>1117.5</ele>
        <time>2022-01-30T11:42:52Z</time>
      </trkpt>
      <trkpt lat="41.8777420" lon="-2.7684120">
        <ele>1118.0</ele>
        <time>2022-01-30T11:42:53Z</time>
      </trkpt>
      <trkpt lat="41.8777730" lon="-2.7684170">
        <ele>1118.0</ele>
        <time>2022-01-30T11:42:54Z</time>
      </trkpt>
      <trkpt lat="41.8778050" lon="-2.7684220">
        <ele>1118.0</ele>
        <time>2022-01-30T11:42:55Z</time>
      </trkpt>
      <trkpt lat="41.8778370" lon="-2.7684230">
        <ele>1118.0</ele>
        <time>2022-01-30T11:42:56Z</time>
      </trkpt>
      <trkpt lat="41.8778620" lon="-2.7684200">
        <ele>1118.0</ele>
        <time>2022-01-30T11:42:57Z</time>
      </trkpt>
      <trkpt lat="41.8778850" lon="-2.7684180">
        <ele>1118.5</ele>
        <time>2022-01-30T11:42:58Z</time>
      </trkpt>
      <trkpt lat="41.8779120" lon="-2.7684150">
        <ele>1118.5</ele>
        <time>2022-01-30T11:42:59Z</time>
      </trkpt>
      <trkpt lat="41.8779280" lon="-2.7684130">
        <ele>1118.5</ele>
        <time>2022-01-30T11:43:00Z</time>
      </trkpt>
      <trkpt lat="41.8779480" lon="-2.7684080">
        <ele>1118.5</ele>
        <time>2022-01-30T11:43:01Z</time>
      </trkpt>
      <trkpt lat="41.8779700" lon="-2.7684000">
        <ele>1118.5</ele>
        <time>2022-01-30T11:43:02Z</time>
      </trkpt>
      <trkpt lat="41.8779920" lon="-2.7683900">
        <ele>1118.5</ele>
        <time>2022-01-30T11:43:03Z</time>
      </trkpt>
      <trkpt lat="41.8780150" lon="-2.7683730">
        <ele>1118.5</ele>
        <time>2022-01-30T11:43:04Z</time>
      </trkpt>
      <trkpt lat="41.8780380" lon="-2.7683550">
        <ele>1118.5</ele>
        <time>2022-01-30T11:43:05Z</time>
      </trkpt>
      <trkpt lat="41.8780620" lon="-2.7683330">
        <ele>1118.5</ele>
        <time>2022-01-30T11:43:06Z</time>
      </trkpt>
      <trkpt lat="41.8780850" lon="-2.7683100">
        <ele>1118.5</ele>
        <time>2022-01-30T11:43:07Z</time>
      </trkpt>
      <trkpt lat="41.8781070" lon="-2.7682870">
        <ele>1118.5</ele>
        <time>2022-01-30T11:43:08Z</time>
      </trkpt>
      <trkpt lat="41.8781270" lon="-2.7682630">
        <ele>1119.0</ele>
        <time>2022-01-30T11:43:09Z</time>
      </trkpt>
      <trkpt lat="41.8781530" lon="-2.7682480">
        <ele>1119.0</ele>
        <time>2022-01-30T11:43:10Z</time>
      </trkpt>
      <trkpt lat="41.8781730" lon="-2.7682400">
        <ele>1119.0</ele>
        <time>2022-01-30T11:43:11Z</time>
      </trkpt>
      <trkpt lat="41.8781930" lon="-2.7682320">
        <ele>1119.0</ele>
        <time>2022-01-30T11:43:12Z</time>
      </trkpt>
      <trkpt lat="41.8782070" lon="-2.7682320">
        <ele>1119.0</ele>
        <time>2022-01-30T11:43:13Z</time>
      </trkpt>
      <trkpt lat="41.8782200" lon="-2.7682270">
        <ele>1119.0</ele>
        <time>2022-01-30T11:43:14Z</time>
      </trkpt>
      <trkpt lat="41.8782380" lon="-2.7682300">
        <ele>1119.0</ele>
        <time>2022-01-30T11:43:15Z</time>
      </trkpt>
      <trkpt lat="41.8782430" lon="-2.7682300">
        <ele>1119.0</ele>
        <time>2022-01-30T11:43:16Z</time>
      </trkpt>
      <trkpt lat="41.8782470" lon="-2.7682330">
        <ele>1119.0</ele>
        <time>2022-01-30T11:43:17Z</time>
      </trkpt>
      <trkpt lat="41.8782480" lon="-2.7682330">
        <ele>1119.0</ele>
        <time>2022-01-30T11:43:18Z</time>
      </trkpt>
      <trkpt lat="41.8782520" lon="-2.7682330">
        <ele>1119.0</ele>
        <time>2022-01-30T11:43:19Z</time>
      </trkpt>
      <trkpt lat="41.8782530" lon="-2.7682350">
        <ele>1119.7</ele>
        <time>2022-01-30T11:43:20Z</time>
      </trkpt>
      <trkpt lat="41.8782530" lon="-2.7682370">
        <ele>1119.7</ele>
        <time>2022-01-30T11:43:21Z</time>
      </trkpt>
      <trkpt lat="41.8782550" lon="-2.7682380">
        <ele>1119.7</ele>
        <time>2022-01-30T11:43:22Z</time>
      </trkpt>
      <trkpt lat="41.8782570" lon="-2.7682420">
        <ele>1119.7</ele>
        <time>2022-01-30T11:43:23Z</time>
      </trkpt>
      <trkpt lat="41.8782580" lon="-2.7682450">
        <ele>1119.7</ele>
        <time>2022-01-30T11:43:24Z</time>
      </trkpt>
      <trkpt lat="41.8782600" lon="-2.7682470">
        <ele>1119.7</ele>
        <time>2022-01-30T11:43:25Z</time>
      </trkpt>
      <trkpt lat="41.8782620" lon="-2.7682450">
        <ele>1119.7</ele>
        <time>2022-01-30T11:43:26Z</time>
      </trkpt>
      <trkpt lat="41.8782630" lon="-2.7682450">
        <ele>1119.7</ele>
        <time>2022-01-30T11:43:27Z</time>
      </trkpt>
      <trkpt lat="41.8782650" lon="-2.7682420">
        <ele>1119.7</ele>
        <time>2022-01-30T11:43:28Z</time>
      </trkpt>
      <trkpt lat="41.8782680" lon="-2.7682400">
        <ele>1119.7</ele>
        <time>2022-01-30T11:43:29Z</time>
      </trkpt>
      <trkpt lat="41.8782680" lon="-2.7682400">
        <ele>1119.7</ele>
        <time>2022-01-30T11:43:30Z</time>
      </trkpt>
      <trkpt lat="41.8782680" lon="-2.7682400">
        <ele>1119.7</ele>
        <time>2022-01-30T11:43:31Z</time>
      </trkpt>
      <trkpt lat="41.8782680" lon="-2.7682400">
        <ele>1119.7</ele>
        <time>2022-01-30T11:43:32Z</time>
      </trkpt>
      <trkpt lat="41.8782680" lon="-2.7682400">
        <ele>1119.7</ele>
        <time>2022-01-30T11:43:33Z</time>
      </trkpt>
      <trkpt lat="41.8782680" lon="-2.7682400">
        <ele>1119.7</ele>
        <time>2022-01-30T11:43:34Z</time>
      </trkpt>
      <trkpt lat="41.8782680" lon="-2.7682400">
        <ele>1119.7</ele>
        <time>2022-01-30T11:43:35Z</time>
      </trkpt>
      <trkpt lat="41.8782680" lon="-2.7682400">
        <ele>1119.8</ele>
        <time>2022-01-30T11:43:36Z</time>
      </trkpt>
      <trkpt lat="41.8782680" lon="-2.7682400">
        <ele>1119.8</ele>
        <time>2022-01-30T11:43:37Z</time>
      </trkpt>
      <trkpt lat="41.8782680" lon="-2.7682400">
        <ele>1119.8</ele>
        <time>2022-01-30T11:43:38Z</time>
      </trkpt>
      <trkpt lat="41.8782680" lon="-2.7682400">
        <ele>1119.8</ele>
        <time>2022-01-30T11:43:39Z</time>
      </trkpt>
      <trkpt lat="41.8782680" lon="-2.7682400">
        <ele>1119.8</ele>
        <time>2022-01-30T11:43:40Z</time>
      </trkpt>
      <trkpt lat="41.8782680" lon="-2.7682400">
        <ele>1119.8</ele>
        <time>2022-01-30T11:43:41Z</time>
      </trkpt>
      <trkpt lat="41.8782680" lon="-2.7682400">
        <ele>1119.8</ele>
        <time>2022-01-30T11:43:42Z</time>
      </trkpt>
      <trkpt lat="41.8782680" lon="-2.7682400">
        <ele>1119.8</ele>
        <time>2022-01-30T11:43:43Z</time>
      </trkpt>
      <trkpt lat="41.8782750" lon="-2.7682400">
        <ele>1119.8</ele>
        <time>2022-01-30T11:43:44Z</time>
      </trkpt>
      <trkpt lat="41.8782800" lon="-2.7682450">
        <ele>1119.8</ele>
        <time>2022-01-30T11:43:45Z</time>
      </trkpt>
      <trkpt lat="41.8782850" lon="-2.7682470">
        <ele>1119.8</ele>
        <time>2022-01-30T11:43:46Z</time>
      </trkpt>
      <trkpt lat="41.8782920" lon="-2.7682500">
        <ele>1119.8</ele>
        <time>2022-01-30T11:43:47Z</time>
      </trkpt>
      <trkpt lat="41.8783000" lon="-2.7682500">
        <ele>1119.8</ele>
        <time>2022-01-30T11:43:48Z</time>
      </trkpt>
      <trkpt lat="41.8783080" lon="-2.7682500">
        <ele>1119.8</ele>
        <time>2022-01-30T11:43:49Z</time>
      </trkpt>
      <trkpt lat="41.8783080" lon="-2.7682500">
        <ele>1119.8</ele>
        <time>2022-01-30T11:43:50Z</time>
      </trkpt>
      <trkpt lat="41.8783080" lon="-2.7682500">
        <ele>1119.8</ele>
        <time>2022-01-30T11:43:51Z</time>
      </trkpt>
      <trkpt lat="41.8783080" lon="-2.7682500">
        <ele>1119.8</ele>
        <time>2022-01-30T11:43:52Z</time>
      </trkpt>
      <trkpt lat="41.8783080" lon="-2.7682500">
        <ele>1119.8</ele>
        <time>2022-01-30T11:43:53Z</time>
      </trkpt>
      <trkpt lat="41.8783080" lon="-2.7682500">
        <ele>1119.8</ele>
        <time>2022-01-30T11:43:54Z</time>
      </trkpt>
      <trkpt lat="41.8783080" lon="-2.7682500">
        <ele>1119.8</ele>
        <time>2022-01-30T11:43:55Z</time>
      </trkpt>
      <trkpt lat="41.8783200" lon="-2.7682500">
        <ele>1119.8</ele>
        <time>2022-01-30T11:43:56Z</time>
      </trkpt>
      <trkpt lat="41.8783200" lon="-2.7682500">
        <ele>1119.8</ele>
        <time>2022-01-30T11:43:57Z</time>
      </trkpt>
      <trkpt lat="41.8783220" lon="-2.7682500">
        <ele>1119.8</ele>
        <time>2022-01-30T11:43:58Z</time>
      </trkpt>
      <trkpt lat="41.8783230" lon="-2.7682500">
        <ele>1119.8</ele>
        <time>2022-01-30T11:43:59Z</time>
      </trkpt>
      <trkpt lat="41.8783230" lon="-2.7682500">
        <ele>1119.8</ele>
        <time>2022-01-30T11:44:00Z</time>
      </trkpt>
      <trkpt lat="41.8783230" lon="-2.7682500">
        <ele>1119.8</ele>
        <time>2022-01-30T11:44:01Z</time>
      </trkpt>
      <trkpt lat="41.8783250" lon="-2.7682500">
        <ele>1119.8</ele>
        <time>2022-01-30T11:44:02Z</time>
      </trkpt>
      <trkpt lat="41.8783270" lon="-2.7682500">
        <ele>1119.8</ele>
        <time>2022-01-30T11:44:03Z</time>
      </trkpt>
      <trkpt lat="41.8783300" lon="-2.7682500">
        <ele>1119.8</ele>
        <time>2022-01-30T11:44:04Z</time>
      </trkpt>
      <trkpt lat="41.8783320" lon="-2.7682500">
        <ele>1119.8</ele>
        <time>2022-01-30T11:44:05Z</time>
      </trkpt>
      <trkpt lat="41.8783330" lon="-2.7682500">
        <ele>1119.8</ele>
        <time>2022-01-30T11:44:06Z</time>
      </trkpt>
      <trkpt lat="41.8783350" lon="-2.7682500">
        <ele>1119.8</ele>
        <time>2022-01-30T11:44:07Z</time>
      </trkpt>
      <trkpt lat="41.8783370" lon="-2.7682500">
        <ele>1119.8</ele>
        <time>2022-01-30T11:44:08Z</time>
      </trkpt>
      <trkpt lat="41.8783380" lon="-2.7682500">
        <ele>1119.9</ele>
        <time>2022-01-30T11:44:09Z</time>
      </trkpt>
      <trkpt lat="41.8783400" lon="-2.7682500">
        <ele>1119.9</ele>
        <time>2022-01-30T11:44:10Z</time>
      </trkpt>
      <trkpt lat="41.8783420" lon="-2.7682500">
        <ele>1119.9</ele>
        <time>2022-01-30T11:44:11Z</time>
      </trkpt>
      <trkpt lat="41.8783430" lon="-2.7682500">
        <ele>1119.9</ele>
        <time>2022-01-30T11:44:12Z</time>
      </trkpt>
      <trkpt lat="41.8783430" lon="-2.7682500">
        <ele>1119.9</ele>
        <time>2022-01-30T11:44:13Z</time>
      </trkpt>
      <trkpt lat="41.8783480" lon="-2.7682500">
        <ele>1119.9</ele>
        <time>2022-01-30T11:44:14Z</time>
      </trkpt>
      <trkpt lat="41.8783550" lon="-2.7682500">
        <ele>1119.9</ele>
        <time>2022-01-30T11:44:15Z</time>
      </trkpt>
      <trkpt lat="41.8783620" lon="-2.7682500">
        <ele>1119.9</ele>
        <time>2022-01-30T11:44:16Z</time>
      </trkpt>
      <trkpt lat="41.8783630" lon="-2.7682500">
        <ele>1119.9</ele>
        <time>2022-01-30T11:44:17Z</time>
      </trkpt>
      <trkpt lat="41.8783700" lon="-2.7682530">
        <ele>1119.9</ele>
        <time>2022-01-30T11:44:18Z</time>
      </trkpt>
      <trkpt lat="41.8784000" lon="-2.7682620">
        <ele>1120.6</ele>
        <time>2022-01-30T11:44:19Z</time>
      </trkpt>
      <trkpt lat="41.8784300" lon="-2.7682670">
        <ele>1120.6</ele>
        <time>2022-01-30T11:44:20Z</time>
      </trkpt>
      <trkpt lat="41.8784720" lon="-2.7682730">
        <ele>1120.6</ele>
        <time>2022-01-30T11:44:21Z</time>
      </trkpt>
      <trkpt lat="41.8785130" lon="-2.7682730">
        <ele>1121.4</ele>
        <time>2022-01-30T11:44:22Z</time>
      </trkpt>
      <trkpt lat="41.8785550" lon="-2.7682720">
        <ele>1121.4</ele>
        <time>2022-01-30T11:44:23Z</time>
      </trkpt>
      <trkpt lat="41.8785900" lon="-2.7682720">
        <ele>1121.4</ele>
        <time>2022-01-30T11:44:24Z</time>
      </trkpt>
      <trkpt lat="41.8786320" lon="-2.7682700">
        <ele>1121.4</ele>
        <time>2022-01-30T11:44:25Z</time>
      </trkpt>
      <trkpt lat="41.8786780" lon="-2.7682650">
        <ele>1122.0</ele>
        <time>2022-01-30T11:44:26Z</time>
      </trkpt>
      <trkpt lat="41.8787230" lon="-2.7682530">
        <ele>1122.0</ele>
        <time>2022-01-30T11:44:27Z</time>
      </trkpt>
      <trkpt lat="41.8787670" lon="-2.7682380">
        <ele>1122.5</ele>
        <time>2022-01-30T11:44:28Z</time>
      </trkpt>
      <trkpt lat="41.8788070" lon="-2.7682200">
        <ele>1122.5</ele>
        <time>2022-01-30T11:44:29Z</time>
      </trkpt>
      <trkpt lat="41.8788500" lon="-2.7682030">
        <ele>1122.0</ele>
        <time>2022-01-30T11:44:30Z</time>
      </trkpt>
      <trkpt lat="41.8788980" lon="-2.7681870">
        <ele>1122.4</ele>
        <time>2022-01-30T11:44:31Z</time>
      </trkpt>
      <trkpt lat="41.8789350" lon="-2.7681850">
        <ele>1122.4</ele>
        <time>2022-01-30T11:44:32Z</time>
      </trkpt>
      <trkpt lat="41.8789630" lon="-2.7681870">
        <ele>1122.4</ele>
        <time>2022-01-30T11:44:33Z</time>
      </trkpt>
      <trkpt lat="41.8789920" lon="-2.7681930">
        <ele>1122.4</ele>
        <time>2022-01-30T11:44:34Z</time>
      </trkpt>
      <trkpt lat="41.8790270" lon="-2.7682080">
        <ele>1122.9</ele>
        <time>2022-01-30T11:44:35Z</time>
      </trkpt>
      <trkpt lat="41.8790550" lon="-2.7682270">
        <ele>1123.7</ele>
        <time>2022-01-30T11:44:36Z</time>
      </trkpt>
      <trkpt lat="41.8790770" lon="-2.7682420">
        <ele>1123.7</ele>
        <time>2022-01-30T11:44:37Z</time>
      </trkpt>
      <trkpt lat="41.8791080" lon="-2.7682620">
        <ele>1123.7</ele>
        <time>2022-01-30T11:44:38Z</time>
      </trkpt>
      <trkpt lat="41.8791480" lon="-2.7682880">
        <ele>1124.5</ele>
        <time>2022-01-30T11:44:39Z</time>
      </trkpt>
      <trkpt lat="41.8791770" lon="-2.7683050">
        <ele>1124.5</ele>
        <time>2022-01-30T11:44:40Z</time>
      </trkpt>
      <trkpt lat="41.8792120" lon="-2.7683250">
        <ele>1124.5</ele>
        <time>2022-01-30T11:44:41Z</time>
      </trkpt>
      <trkpt lat="41.8792470" lon="-2.7683450">
        <ele>1124.5</ele>
        <time>2022-01-30T11:44:42Z</time>
      </trkpt>
      <trkpt lat="41.8792880" lon="-2.7683530">
        <ele>1125.3</ele>
        <time>2022-01-30T11:44:43Z</time>
      </trkpt>
      <trkpt lat="41.8793270" lon="-2.7683570">
        <ele>1125.3</ele>
        <time>2022-01-30T11:44:44Z</time>
      </trkpt>
      <trkpt lat="41.8793750" lon="-2.7683580">
        <ele>1125.3</ele>
        <time>2022-01-30T11:44:45Z</time>
      </trkpt>
      <trkpt lat="41.8794080" lon="-2.7683580">
        <ele>1125.9</ele>
        <time>2022-01-30T11:44:46Z</time>
      </trkpt>
      <trkpt lat="41.8794480" lon="-2.7683670">
        <ele>1126.0</ele>
        <time>2022-01-30T11:44:47Z</time>
      </trkpt>
      <trkpt lat="41.8794880" lon="-2.7683770">
        <ele>1126.0</ele>
        <time>2022-01-30T11:44:48Z</time>
      </trkpt>
      <trkpt lat="41.8795300" lon="-2.7683920">
        <ele>1126.7</ele>
        <time>2022-01-30T11:44:49Z</time>
      </trkpt>
      <trkpt lat="41.8795670" lon="-2.7684150">
        <ele>1127.2</ele>
        <time>2022-01-30T11:44:50Z</time>
      </trkpt>
      <trkpt lat="41.8796030" lon="-2.7684450">
        <ele>1127.2</ele>
        <time>2022-01-30T11:44:51Z</time>
      </trkpt>
      <trkpt lat="41.8796380" lon="-2.7684600">
        <ele>1127.2</ele>
        <time>2022-01-30T11:44:52Z</time>
      </trkpt>
      <trkpt lat="41.8796680" lon="-2.7684720">
        <ele>1127.8</ele>
        <time>2022-01-30T11:44:53Z</time>
      </trkpt>
      <trkpt lat="41.8797070" lon="-2.7684700">
        <ele>1127.8</ele>
        <time>2022-01-30T11:44:54Z</time>
      </trkpt>
      <trkpt lat="41.8797320" lon="-2.7684600">
        <ele>1127.8</ele>
        <time>2022-01-30T11:44:55Z</time>
      </trkpt>
      <trkpt lat="41.8797620" lon="-2.7684430">
        <ele>1127.8</ele>
        <time>2022-01-30T11:44:56Z</time>
      </trkpt>
      <trkpt lat="41.8797900" lon="-2.7684170">
        <ele>1128.6</ele>
        <time>2022-01-30T11:44:57Z</time>
      </trkpt>
      <trkpt lat="41.8798250" lon="-2.7683970">
        <ele>1128.6</ele>
        <time>2022-01-30T11:44:58Z</time>
      </trkpt>
      <trkpt lat="41.8798580" lon="-2.7683850">
        <ele>1128.6</ele>
        <time>2022-01-30T11:44:59Z</time>
      </trkpt>
      <trkpt lat="41.8798900" lon="-2.7683680">
        <ele>1127.4</ele>
        <time>2022-01-30T11:45:00Z</time>
      </trkpt>
      <trkpt lat="41.8799220" lon="-2.7683570">
        <ele>1128.1</ele>
        <time>2022-01-30T11:45:01Z</time>
      </trkpt>
      <trkpt lat="41.8799550" lon="-2.7683420">
        <ele>1128.1</ele>
        <time>2022-01-30T11:45:02Z</time>
      </trkpt>
      <trkpt lat="41.8799850" lon="-2.7683330">
        <ele>1128.1</ele>
        <time>2022-01-30T11:45:03Z</time>
      </trkpt>
      <trkpt lat="41.8800120" lon="-2.7683200">
        <ele>1128.1</ele>
        <time>2022-01-30T11:45:04Z</time>
      </trkpt>
      <trkpt lat="41.8800300" lon="-2.7683020">
        <ele>1128.1</ele>
        <time>2022-01-30T11:45:05Z</time>
      </trkpt>
      <trkpt lat="41.8800470" lon="-2.7682730">
        <ele>1129.1</ele>
        <time>2022-01-30T11:45:06Z</time>
      </trkpt>
      <trkpt lat="41.8800520" lon="-2.7682400">
        <ele>1129.1</ele>
        <time>2022-01-30T11:45:07Z</time>
      </trkpt>
      <trkpt lat="41.8800470" lon="-2.7682000">
        <ele>1128.4</ele>
        <time>2022-01-30T11:45:08Z</time>
      </trkpt>
      <trkpt lat="41.8800380" lon="-2.7681570">
        <ele>1127.4</ele>
        <time>2022-01-30T11:45:09Z</time>
      </trkpt>
      <trkpt lat="41.8800250" lon="-2.7681080">
        <ele>1127.4</ele>
        <time>2022-01-30T11:45:10Z</time>
      </trkpt>
      <trkpt lat="41.8800020" lon="-2.7680520">
        <ele>1127.4</ele>
        <time>2022-01-30T11:45:11Z</time>
      </trkpt>
      <trkpt lat="41.8799780" lon="-2.7679950">
        <ele>1126.8</ele>
        <time>2022-01-30T11:45:12Z</time>
      </trkpt>
      <trkpt lat="41.8799550" lon="-2.7679420">
        <ele>1126.8</ele>
        <time>2022-01-30T11:45:13Z</time>
      </trkpt>
      <trkpt lat="41.8799320" lon="-2.7678880">
        <ele>1126.8</ele>
        <time>2022-01-30T11:45:14Z</time>
      </trkpt>
      <trkpt lat="41.8799080" lon="-2.7678380">
        <ele>1125.4</ele>
        <time>2022-01-30T11:45:15Z</time>
      </trkpt>
      <trkpt lat="41.8798850" lon="-2.7677870">
        <ele>1125.4</ele>
        <time>2022-01-30T11:45:16Z</time>
      </trkpt>
      <trkpt lat="41.8798600" lon="-2.7677320">
        <ele>1125.4</ele>
        <time>2022-01-30T11:45:17Z</time>
      </trkpt>
      <trkpt lat="41.8798400" lon="-2.7676770">
        <ele>1124.8</ele>
        <time>2022-01-30T11:45:18Z</time>
      </trkpt>
      <trkpt lat="41.8798200" lon="-2.7676150">
        <ele>1124.8</ele>
        <time>2022-01-30T11:45:19Z</time>
      </trkpt>
      <trkpt lat="41.8798080" lon="-2.7675520">
        <ele>1124.8</ele>
        <time>2022-01-30T11:45:20Z</time>
      </trkpt>
      <trkpt lat="41.8797900" lon="-2.7674950">
        <ele>1124.4</ele>
        <time>2022-01-30T11:45:21Z</time>
      </trkpt>
      <trkpt lat="41.8797750" lon="-2.7674430">
        <ele>1123.7</ele>
        <time>2022-01-30T11:45:22Z</time>
      </trkpt>
      <trkpt lat="41.8797730" lon="-2.7673920">
        <ele>1123.7</ele>
        <time>2022-01-30T11:45:23Z</time>
      </trkpt>
      <trkpt lat="41.8797850" lon="-2.7673470">
        <ele>1123.5</ele>
        <time>2022-01-30T11:45:24Z</time>
      </trkpt>
      <trkpt lat="41.8798070" lon="-2.7673050">
        <ele>1124.2</ele>
        <time>2022-01-30T11:45:25Z</time>
      </trkpt>
      <trkpt lat="41.8798330" lon="-2.7672680">
        <ele>1124.2</ele>
        <time>2022-01-30T11:45:26Z</time>
      </trkpt>
      <trkpt lat="41.8798600" lon="-2.7672380">
        <ele>1124.2</ele>
        <time>2022-01-30T11:45:27Z</time>
      </trkpt>
      <trkpt lat="41.8798900" lon="-2.7672080">
        <ele>1124.2</ele>
        <time>2022-01-30T11:45:28Z</time>
      </trkpt>
      <trkpt lat="41.8799170" lon="-2.7671800">
        <ele>1125.4</ele>
        <time>2022-01-30T11:45:29Z</time>
      </trkpt>
      <trkpt lat="41.8799350" lon="-2.7671570">
        <ele>1125.4</ele>
        <time>2022-01-30T11:45:30Z</time>
      </trkpt>
      <trkpt lat="41.8799550" lon="-2.7671370">
        <ele>1125.4</ele>
        <time>2022-01-30T11:45:31Z</time>
      </trkpt>
      <trkpt lat="41.8799720" lon="-2.7671180">
        <ele>1125.4</ele>
        <time>2022-01-30T11:45:32Z</time>
      </trkpt>
      <trkpt lat="41.8799870" lon="-2.7671020">
        <ele>1125.4</ele>
        <time>2022-01-30T11:45:33Z</time>
      </trkpt>
      <trkpt lat="41.8799980" lon="-2.7670800">
        <ele>1125.4</ele>
        <time>2022-01-30T11:45:34Z</time>
      </trkpt>
      <trkpt lat="41.8800150" lon="-2.7670570">
        <ele>1125.4</ele>
        <time>2022-01-30T11:45:35Z</time>
      </trkpt>
      <trkpt lat="41.8800250" lon="-2.7670270">
        <ele>1125.4</ele>
        <time>2022-01-30T11:45:36Z</time>
      </trkpt>
      <trkpt lat="41.8800320" lon="-2.7669950">
        <ele>1125.4</ele>
        <time>2022-01-30T11:45:37Z</time>
      </trkpt>
      <trkpt lat="41.8800420" lon="-2.7669720">
        <ele>1125.4</ele>
        <time>2022-01-30T11:45:38Z</time>
      </trkpt>
      <trkpt lat="41.8800530" lon="-2.7669550">
        <ele>1126.7</ele>
        <time>2022-01-30T11:45:39Z</time>
      </trkpt>
      <trkpt lat="41.8800670" lon="-2.7669400">
        <ele>1126.7</ele>
        <time>2022-01-30T11:45:40Z</time>
      </trkpt>
      <trkpt lat="41.8800800" lon="-2.7669280">
        <ele>1126.7</ele>
        <time>2022-01-30T11:45:41Z</time>
      </trkpt>
      <trkpt lat="41.8800950" lon="-2.7669130">
        <ele>1126.7</ele>
        <time>2022-01-30T11:45:42Z</time>
      </trkpt>
      <trkpt lat="41.8801100" lon="-2.7668970">
        <ele>1126.7</ele>
        <time>2022-01-30T11:45:43Z</time>
      </trkpt>
      <trkpt lat="41.8801370" lon="-2.7668830">
        <ele>1126.7</ele>
        <time>2022-01-30T11:45:44Z</time>
      </trkpt>
      <trkpt lat="41.8801570" lon="-2.7668750">
        <ele>1126.7</ele>
        <time>2022-01-30T11:45:45Z</time>
      </trkpt>
      <trkpt lat="41.8801730" lon="-2.7668680">
        <ele>1127.9</ele>
        <time>2022-01-30T11:45:46Z</time>
      </trkpt>
      <trkpt lat="41.8801880" lon="-2.7668620">
        <ele>1127.9</ele>
        <time>2022-01-30T11:45:47Z</time>
      </trkpt>
      <trkpt lat="41.8802030" lon="-2.7668550">
        <ele>1127.9</ele>
        <time>2022-01-30T11:45:48Z</time>
      </trkpt>
      <trkpt lat="41.8802170" lon="-2.7668450">
        <ele>1127.9</ele>
        <time>2022-01-30T11:45:49Z</time>
      </trkpt>
      <trkpt lat="41.8802350" lon="-2.7668330">
        <ele>1127.8</ele>
        <time>2022-01-30T11:45:50Z</time>
      </trkpt>
      <trkpt lat="41.8802520" lon="-2.7668230">
        <ele>1127.8</ele>
        <time>2022-01-30T11:45:51Z</time>
      </trkpt>
      <trkpt lat="41.8802730" lon="-2.7668120">
        <ele>1127.8</ele>
        <time>2022-01-30T11:45:52Z</time>
      </trkpt>
      <trkpt lat="41.8802950" lon="-2.7667980">
        <ele>1127.8</ele>
        <time>2022-01-30T11:45:53Z</time>
      </trkpt>
      <trkpt lat="41.8803150" lon="-2.7667930">
        <ele>1129.1</ele>
        <time>2022-01-30T11:45:54Z</time>
      </trkpt>
      <trkpt lat="41.8803350" lon="-2.7667870">
        <ele>1129.1</ele>
        <time>2022-01-30T11:45:55Z</time>
      </trkpt>
      <trkpt lat="41.8803470" lon="-2.7667770">
        <ele>1129.1</ele>
        <time>2022-01-30T11:45:56Z</time>
      </trkpt>
      <trkpt lat="41.8803600" lon="-2.7667700">
        <ele>1129.1</ele>
        <time>2022-01-30T11:45:57Z</time>
      </trkpt>
      <trkpt lat="41.8803780" lon="-2.7667620">
        <ele>1129.1</ele>
        <time>2022-01-30T11:45:58Z</time>
      </trkpt>
      <trkpt lat="41.8803920" lon="-2.7667570">
        <ele>1129.1</ele>
        <time>2022-01-30T11:45:59Z</time>
      </trkpt>
      <trkpt lat="41.8804120" lon="-2.7667550">
        <ele>1129.1</ele>
        <time>2022-01-30T11:46:00Z</time>
      </trkpt>
      <trkpt lat="41.8804300" lon="-2.7667500">
        <ele>1130.3</ele>
        <time>2022-01-30T11:46:01Z</time>
      </trkpt>
      <trkpt lat="41.8804470" lon="-2.7667430">
        <ele>1130.3</ele>
        <time>2022-01-30T11:46:02Z</time>
      </trkpt>
      <trkpt lat="41.8804650" lon="-2.7667350">
        <ele>1130.3</ele>
        <time>2022-01-30T11:46:03Z</time>
      </trkpt>
      <trkpt lat="41.8804830" lon="-2.7667320">
        <ele>1130.3</ele>
        <time>2022-01-30T11:46:04Z</time>
      </trkpt>
      <trkpt lat="41.8805050" lon="-2.7667280">
        <ele>1130.3</ele>
        <time>2022-01-30T11:46:05Z</time>
      </trkpt>
      <trkpt lat="41.8805270" lon="-2.7667280">
        <ele>1130.3</ele>
        <time>2022-01-30T11:46:06Z</time>
      </trkpt>
      <trkpt lat="41.8805400" lon="-2.7667280">
        <ele>1130.3</ele>
        <time>2022-01-30T11:46:07Z</time>
      </trkpt>
      <trkpt lat="41.8805530" lon="-2.7667270">
        <ele>1130.3</ele>
        <time>2022-01-30T11:46:08Z</time>
      </trkpt>
      <trkpt lat="41.8805630" lon="-2.7667250">
        <ele>1131.9</ele>
        <time>2022-01-30T11:46:09Z</time>
      </trkpt>
      <trkpt lat="41.8805780" lon="-2.7667220">
        <ele>1131.9</ele>
        <time>2022-01-30T11:46:10Z</time>
      </trkpt>
      <trkpt lat="41.8805900" lon="-2.7667180">
        <ele>1131.9</ele>
        <time>2022-01-30T11:46:11Z</time>
      </trkpt>
      <trkpt lat="41.8806030" lon="-2.7667100">
        <ele>1131.9</ele>
        <time>2022-01-30T11:46:12Z</time>
      </trkpt>
      <trkpt lat="41.8806170" lon="-2.7667000">
        <ele>1131.9</ele>
        <time>2022-01-30T11:46:13Z</time>
      </trkpt>
      <trkpt lat="41.8806270" lon="-2.7666870">
        <ele>1131.9</ele>
        <time>2022-01-30T11:46:14Z</time>
      </trkpt>
      <trkpt lat="41.8806450" lon="-2.7666730">
        <ele>1131.9</ele>
        <time>2022-01-30T11:46:15Z</time>
      </trkpt>
      <trkpt lat="41.8806650" lon="-2.7666630">
        <ele>1132.4</ele>
        <time>2022-01-30T11:46:16Z</time>
      </trkpt>
      <trkpt lat="41.8806820" lon="-2.7666620">
        <ele>1133.9</ele>
        <time>2022-01-30T11:46:17Z</time>
      </trkpt>
      <trkpt lat="41.8806970" lon="-2.7666620">
        <ele>1133.9</ele>
        <time>2022-01-30T11:46:18Z</time>
      </trkpt>
      <trkpt lat="41.8807080" lon="-2.7666580">
        <ele>1133.9</ele>
        <time>2022-01-30T11:46:19Z</time>
      </trkpt>
      <trkpt lat="41.8807230" lon="-2.7666520">
        <ele>1133.9</ele>
        <time>2022-01-30T11:46:20Z</time>
      </trkpt>
      <trkpt lat="41.8807370" lon="-2.7666500">
        <ele>1133.9</ele>
        <time>2022-01-30T11:46:21Z</time>
      </trkpt>
      <trkpt lat="41.8807520" lon="-2.7666500">
        <ele>1133.9</ele>
        <time>2022-01-30T11:46:22Z</time>
      </trkpt>
      <trkpt lat="41.8807680" lon="-2.7666470">
        <ele>1133.9</ele>
        <time>2022-01-30T11:46:23Z</time>
      </trkpt>
      <trkpt lat="41.8807820" lon="-2.7666420">
        <ele>1133.9</ele>
        <time>2022-01-30T11:46:24Z</time>
      </trkpt>
      <trkpt lat="41.8807980" lon="-2.7666350">
        <ele>1133.9</ele>
        <time>2022-01-30T11:46:25Z</time>
      </trkpt>
      <trkpt lat="41.8808180" lon="-2.7666330">
        <ele>1135.7</ele>
        <time>2022-01-30T11:46:26Z</time>
      </trkpt>
      <trkpt lat="41.8808380" lon="-2.7666250">
        <ele>1135.7</ele>
        <time>2022-01-30T11:46:27Z</time>
      </trkpt>
      <trkpt lat="41.8808500" lon="-2.7666130">
        <ele>1135.7</ele>
        <time>2022-01-30T11:46:28Z</time>
      </trkpt>
      <trkpt lat="41.8808670" lon="-2.7666050">
        <ele>1135.7</ele>
        <time>2022-01-30T11:46:29Z</time>
      </trkpt>
      <trkpt lat="41.8808770" lon="-2.7666000">
        <ele>1135.7</ele>
        <time>2022-01-30T11:46:30Z</time>
      </trkpt>
      <trkpt lat="41.8808980" lon="-2.7665930">
        <ele>1135.7</ele>
        <time>2022-01-30T11:46:31Z</time>
      </trkpt>
      <trkpt lat="41.8809170" lon="-2.7665920">
        <ele>1135.7</ele>
        <time>2022-01-30T11:46:32Z</time>
      </trkpt>
      <trkpt lat="41.8809320" lon="-2.7665820">
        <ele>1135.7</ele>
        <time>2022-01-30T11:46:33Z</time>
      </trkpt>
      <trkpt lat="41.8809470" lon="-2.7665770">
        <ele>1137.4</ele>
        <time>2022-01-30T11:46:34Z</time>
      </trkpt>
      <trkpt lat="41.8809620" lon="-2.7665700">
        <ele>1137.4</ele>
        <time>2022-01-30T11:46:35Z</time>
      </trkpt>
      <trkpt lat="41.8809780" lon="-2.7665620">
        <ele>1137.4</ele>
        <time>2022-01-30T11:46:36Z</time>
      </trkpt>
      <trkpt lat="41.8809980" lon="-2.7665500">
        <ele>1137.4</ele>
        <time>2022-01-30T11:46:37Z</time>
      </trkpt>
      <trkpt lat="41.8810100" lon="-2.7665450">
        <ele>1137.4</ele>
        <time>2022-01-30T11:46:38Z</time>
      </trkpt>
      <trkpt lat="41.8810220" lon="-2.7665430">
        <ele>1137.4</ele>
        <time>2022-01-30T11:46:39Z</time>
      </trkpt>
      <trkpt lat="41.8810350" lon="-2.7665430">
        <ele>1137.4</ele>
        <time>2022-01-30T11:46:40Z</time>
      </trkpt>
      <trkpt lat="41.8810450" lon="-2.7665400">
        <ele>1137.4</ele>
        <time>2022-01-30T11:46:41Z</time>
      </trkpt>
      <trkpt lat="41.8810550" lon="-2.7665370">
        <ele>1137.4</ele>
        <time>2022-01-30T11:46:42Z</time>
      </trkpt>
      <trkpt lat="41.8810670" lon="-2.7665330">
        <ele>1139.8</ele>
        <time>2022-01-30T11:46:43Z</time>
      </trkpt>
      <trkpt lat="41.8810850" lon="-2.7665320">
        <ele>1139.8</ele>
        <time>2022-01-30T11:46:44Z</time>
      </trkpt>
      <trkpt lat="41.8811020" lon="-2.7665330">
        <ele>1139.8</ele>
        <time>2022-01-30T11:46:45Z</time>
      </trkpt>
      <trkpt lat="41.8811170" lon="-2.7665370">
        <ele>1139.8</ele>
        <time>2022-01-30T11:46:46Z</time>
      </trkpt>
      <trkpt lat="41.8811370" lon="-2.7665220">
        <ele>1139.8</ele>
        <time>2022-01-30T11:46:47Z</time>
      </trkpt>
      <trkpt lat="41.8811530" lon="-2.7665150">
        <ele>1139.8</ele>
        <time>2022-01-30T11:46:48Z</time>
      </trkpt>
      <trkpt lat="41.8811680" lon="-2.7665180">
        <ele>1139.8</ele>
        <time>2022-01-30T11:46:49Z</time>
      </trkpt>
      <trkpt lat="41.8811830" lon="-2.7665130">
        <ele>1139.8</ele>
        <time>2022-01-30T11:46:50Z</time>
      </trkpt>
      <trkpt lat="41.8812000" lon="-2.7665050">
        <ele>1142.6</ele>
        <time>2022-01-30T11:46:51Z</time>
      </trkpt>
      <trkpt lat="41.8812180" lon="-2.7664950">
        <ele>1142.6</ele>
        <time>2022-01-30T11:46:52Z</time>
      </trkpt>
      <trkpt lat="41.8812370" lon="-2.7664880">
        <ele>1142.5</ele>
        <time>2022-01-30T11:46:53Z</time>
      </trkpt>
      <trkpt lat="41.8812450" lon="-2.7664880">
        <ele>1142.5</ele>
        <time>2022-01-30T11:46:54Z</time>
      </trkpt>
      <trkpt lat="41.8812570" lon="-2.7664950">
        <ele>1142.6</ele>
        <time>2022-01-30T11:46:55Z</time>
      </trkpt>
      <trkpt lat="41.8812650" lon="-2.7665020">
        <ele>1142.6</ele>
        <time>2022-01-30T11:46:56Z</time>
      </trkpt>
      <trkpt lat="41.8812770" lon="-2.7665030">
        <ele>1142.6</ele>
        <time>2022-01-30T11:46:57Z</time>
      </trkpt>
      <trkpt lat="41.8812870" lon="-2.7665050">
        <ele>1142.6</ele>
        <time>2022-01-30T11:46:58Z</time>
      </trkpt>
      <trkpt lat="41.8812980" lon="-2.7665080">
        <ele>1142.6</ele>
        <time>2022-01-30T11:46:59Z</time>
      </trkpt>
      <trkpt lat="41.8813100" lon="-2.7665080">
        <ele>1142.6</ele>
        <time>2022-01-30T11:47:00Z</time>
      </trkpt>
      <trkpt lat="41.8813250" lon="-2.7665080">
        <ele>1145.8</ele>
        <time>2022-01-30T11:47:01Z</time>
      </trkpt>
      <trkpt lat="41.8813400" lon="-2.7665080">
        <ele>1145.8</ele>
        <time>2022-01-30T11:47:02Z</time>
      </trkpt>
      <trkpt lat="41.8813570" lon="-2.7665120">
        <ele>1145.8</ele>
        <time>2022-01-30T11:47:03Z</time>
      </trkpt>
      <trkpt lat="41.8813730" lon="-2.7665100">
        <ele>1145.8</ele>
        <time>2022-01-30T11:47:04Z</time>
      </trkpt>
      <trkpt lat="41.8813870" lon="-2.7665130">
        <ele>1145.8</ele>
        <time>2022-01-30T11:47:05Z</time>
      </trkpt>
      <trkpt lat="41.8814000" lon="-2.7665170">
        <ele>1145.8</ele>
        <time>2022-01-30T11:47:06Z</time>
      </trkpt>
      <trkpt lat="41.8814150" lon="-2.7665180">
        <ele>1145.8</ele>
        <time>2022-01-30T11:47:07Z</time>
      </trkpt>
      <trkpt lat="41.8814300" lon="-2.7665220">
        <ele>1145.8</ele>
        <time>2022-01-30T11:47:08Z</time>
      </trkpt>
      <trkpt lat="41.8814470" lon="-2.7665250">
        <ele>1145.8</ele>
        <time>2022-01-30T11:47:09Z</time>
      </trkpt>
      <trkpt lat="41.8814620" lon="-2.7665320">
        <ele>1149.0</ele>
        <time>2022-01-30T11:47:10Z</time>
      </trkpt>
      <trkpt lat="41.8814770" lon="-2.7665350">
        <ele>1149.0</ele>
        <time>2022-01-30T11:47:11Z</time>
      </trkpt>
      <trkpt lat="41.8814930" lon="-2.7665370">
        <ele>1149.0</ele>
        <time>2022-01-30T11:47:12Z</time>
      </trkpt>
      <trkpt lat="41.8815080" lon="-2.7665370">
        <ele>1149.0</ele>
        <time>2022-01-30T11:47:13Z</time>
      </trkpt>
      <trkpt lat="41.8815230" lon="-2.7665370">
        <ele>1149.0</ele>
        <time>2022-01-30T11:47:14Z</time>
      </trkpt>
      <trkpt lat="41.8815400" lon="-2.7665330">
        <ele>1149.0</ele>
        <time>2022-01-30T11:47:15Z</time>
      </trkpt>
      <trkpt lat="41.8815530" lon="-2.7665300">
        <ele>1149.0</ele>
        <time>2022-01-30T11:47:16Z</time>
      </trkpt>
      <trkpt lat="41.8815670" lon="-2.7665270">
        <ele>1149.0</ele>
        <time>2022-01-30T11:47:17Z</time>
      </trkpt>
      <trkpt lat="41.8815800" lon="-2.7665220">
        <ele>1151.9</ele>
        <time>2022-01-30T11:47:18Z</time>
      </trkpt>
      <trkpt lat="41.8815950" lon="-2.7665170">
        <ele>1151.9</ele>
        <time>2022-01-30T11:47:19Z</time>
      </trkpt>
      <trkpt lat="41.8816080" lon="-2.7665120">
        <ele>1151.9</ele>
        <time>2022-01-30T11:47:20Z</time>
      </trkpt>
      <trkpt lat="41.8816230" lon="-2.7665120">
        <ele>1151.9</ele>
        <time>2022-01-30T11:47:21Z</time>
      </trkpt>
      <trkpt lat="41.8816370" lon="-2.7665080">
        <ele>1151.9</ele>
        <time>2022-01-30T11:47:22Z</time>
      </trkpt>
      <trkpt lat="41.8816520" lon="-2.7665050">
        <ele>1151.9</ele>
        <time>2022-01-30T11:47:23Z</time>
      </trkpt>
      <trkpt lat="41.8816680" lon="-2.7665000">
        <ele>1151.9</ele>
        <time>2022-01-30T11:47:24Z</time>
      </trkpt>
      <trkpt lat="41.8816850" lon="-2.7664950">
        <ele>1151.9</ele>
        <time>2022-01-30T11:47:25Z</time>
      </trkpt>
      <trkpt lat="41.8817000" lon="-2.7664900">
        <ele>1151.4</ele>
        <time>2022-01-30T11:47:26Z</time>
      </trkpt>
      <trkpt lat="41.8817120" lon="-2.7664820">
        <ele>1153.7</ele>
        <time>2022-01-30T11:47:27Z</time>
      </trkpt>
      <trkpt lat="41.8817270" lon="-2.7664750">
        <ele>1153.7</ele>
        <time>2022-01-30T11:47:28Z</time>
      </trkpt>
      <trkpt lat="41.8817400" lon="-2.7664700">
        <ele>1153.7</ele>
        <time>2022-01-30T11:47:29Z</time>
      </trkpt>
      <trkpt lat="41.8817520" lon="-2.7664620">
        <ele>1153.7</ele>
        <time>2022-01-30T11:47:30Z</time>
      </trkpt>
      <trkpt lat="41.8817670" lon="-2.7664530">
        <ele>1153.7</ele>
        <time>2022-01-30T11:47:31Z</time>
      </trkpt>
      <trkpt lat="41.8817820" lon="-2.7664430">
        <ele>1153.7</ele>
        <time>2022-01-30T11:47:32Z</time>
      </trkpt>
      <trkpt lat="41.8817970" lon="-2.7664350">
        <ele>1153.7</ele>
        <time>2022-01-30T11:47:33Z</time>
      </trkpt>
      <trkpt lat="41.8818150" lon="-2.7664270">
        <ele>1153.7</ele>
        <time>2022-01-30T11:47:34Z</time>
      </trkpt>
      <trkpt lat="41.8818320" lon="-2.7664180">
        <ele>1155.1</ele>
        <time>2022-01-30T11:47:35Z</time>
      </trkpt>
      <trkpt lat="41.8818480" lon="-2.7664050">
        <ele>1155.1</ele>
        <time>2022-01-30T11:47:36Z</time>
      </trkpt>
      <trkpt lat="41.8818680" lon="-2.7663930">
        <ele>1155.1</ele>
        <time>2022-01-30T11:47:37Z</time>
      </trkpt>
      <trkpt lat="41.8818870" lon="-2.7663770">
        <ele>1155.1</ele>
        <time>2022-01-30T11:47:38Z</time>
      </trkpt>
      <trkpt lat="41.8819020" lon="-2.7663620">
        <ele>1155.1</ele>
        <time>2022-01-30T11:47:39Z</time>
      </trkpt>
      <trkpt lat="41.8819130" lon="-2.7663470">
        <ele>1155.1</ele>
        <time>2022-01-30T11:47:40Z</time>
      </trkpt>
      <trkpt lat="41.8819250" lon="-2.7663330">
        <ele>1155.1</ele>
        <time>2022-01-30T11:47:41Z</time>
      </trkpt>
      <trkpt lat="41.8819380" lon="-2.7663230">
        <ele>1154.2</ele>
        <time>2022-01-30T11:47:42Z</time>
      </trkpt>
      <trkpt lat="41.8819520" lon="-2.7663170">
        <ele>1154.2</ele>
        <time>2022-01-30T11:47:43Z</time>
      </trkpt>
      <trkpt lat="41.8819650" lon="-2.7663080">
        <ele>1155.5</ele>
        <time>2022-01-30T11:47:44Z</time>
      </trkpt>
      <trkpt lat="41.8819820" lon="-2.7663020">
        <ele>1155.5</ele>
        <time>2022-01-30T11:47:45Z</time>
      </trkpt>
      <trkpt lat="41.8819970" lon="-2.7662970">
        <ele>1155.5</ele>
        <time>2022-01-30T11:47:46Z</time>
      </trkpt>
      <trkpt lat="41.8820120" lon="-2.7662970">
        <ele>1155.5</ele>
        <time>2022-01-30T11:47:47Z</time>
      </trkpt>
      <trkpt lat="41.8820250" lon="-2.7663000">
        <ele>1155.5</ele>
        <time>2022-01-30T11:47:48Z</time>
      </trkpt>
      <trkpt lat="41.8820400" lon="-2.7663000">
        <ele>1155.5</ele>
        <time>2022-01-30T11:47:49Z</time>
      </trkpt>
      <trkpt lat="41.8820550" lon="-2.7662980">
        <ele>1155.5</ele>
        <time>2022-01-30T11:47:50Z</time>
      </trkpt>
      <trkpt lat="41.8820700" lon="-2.7662970">
        <ele>1155.5</ele>
        <time>2022-01-30T11:47:51Z</time>
      </trkpt>
      <trkpt lat="41.8820850" lon="-2.7662930">
        <ele>1155.5</ele>
        <time>2022-01-30T11:47:52Z</time>
      </trkpt>
      <trkpt lat="41.8821000" lon="-2.7662880">
        <ele>1156.8</ele>
        <time>2022-01-30T11:47:53Z</time>
      </trkpt>
      <trkpt lat="41.8821150" lon="-2.7662820">
        <ele>1156.8</ele>
        <time>2022-01-30T11:47:54Z</time>
      </trkpt>
      <trkpt lat="41.8821270" lon="-2.7662750">
        <ele>1156.8</ele>
        <time>2022-01-30T11:47:55Z</time>
      </trkpt>
      <trkpt lat="41.8821400" lon="-2.7662670">
        <ele>1156.8</ele>
        <time>2022-01-30T11:47:56Z</time>
      </trkpt>
      <trkpt lat="41.8821550" lon="-2.7662620">
        <ele>1156.8</ele>
        <time>2022-01-30T11:47:57Z</time>
      </trkpt>
      <trkpt lat="41.8821700" lon="-2.7662630">
        <ele>1156.8</ele>
        <time>2022-01-30T11:47:58Z</time>
      </trkpt>
      <trkpt lat="41.8821850" lon="-2.7662670">
        <ele>1156.8</ele>
        <time>2022-01-30T11:47:59Z</time>
      </trkpt>
      <trkpt lat="41.8822000" lon="-2.7662750">
        <ele>1156.8</ele>
        <time>2022-01-30T11:48:00Z</time>
      </trkpt>
      <trkpt lat="41.8822180" lon="-2.7662850">
        <ele>1158.6</ele>
        <time>2022-01-30T11:48:01Z</time>
      </trkpt>
      <trkpt lat="41.8822350" lon="-2.7662930">
        <ele>1158.6</ele>
        <time>2022-01-30T11:48:02Z</time>
      </trkpt>
      <trkpt lat="41.8822520" lon="-2.7663000">
        <ele>1158.6</ele>
        <time>2022-01-30T11:48:03Z</time>
      </trkpt>
      <trkpt lat="41.8822680" lon="-2.7663020">
        <ele>1158.6</ele>
        <time>2022-01-30T11:48:04Z</time>
      </trkpt>
      <trkpt lat="41.8822850" lon="-2.7662980">
        <ele>1158.6</ele>
        <time>2022-01-30T11:48:05Z</time>
      </trkpt>
      <trkpt lat="41.8823030" lon="-2.7662950">
        <ele>1158.6</ele>
        <time>2022-01-30T11:48:06Z</time>
      </trkpt>
      <trkpt lat="41.8823250" lon="-2.7662930">
        <ele>1158.6</ele>
        <time>2022-01-30T11:48:07Z</time>
      </trkpt>
      <trkpt lat="41.8823500" lon="-2.7662930">
        <ele>1160.0</ele>
        <time>2022-01-30T11:48:08Z</time>
      </trkpt>
      <trkpt lat="41.8823770" lon="-2.7662930">
        <ele>1160.0</ele>
        <time>2022-01-30T11:48:09Z</time>
      </trkpt>
      <trkpt lat="41.8824030" lon="-2.7662880">
        <ele>1160.0</ele>
        <time>2022-01-30T11:48:10Z</time>
      </trkpt>
      <trkpt lat="41.8824270" lon="-2.7662800">
        <ele>1160.0</ele>
        <time>2022-01-30T11:48:11Z</time>
      </trkpt>
      <trkpt lat="41.8824470" lon="-2.7662730">
        <ele>1160.0</ele>
        <time>2022-01-30T11:48:12Z</time>
      </trkpt>
      <trkpt lat="41.8824630" lon="-2.7662670">
        <ele>1160.0</ele>
        <time>2022-01-30T11:48:13Z</time>
      </trkpt>
      <trkpt lat="41.8824800" lon="-2.7662620">
        <ele>1161.2</ele>
        <time>2022-01-30T11:48:14Z</time>
      </trkpt>
      <trkpt lat="41.8824950" lon="-2.7662580">
        <ele>1161.2</ele>
        <time>2022-01-30T11:48:15Z</time>
      </trkpt>
      <trkpt lat="41.8825120" lon="-2.7662530">
        <ele>1161.2</ele>
        <time>2022-01-30T11:48:16Z</time>
      </trkpt>
      <trkpt lat="41.8825300" lon="-2.7662500">
        <ele>1161.2</ele>
        <time>2022-01-30T11:48:17Z</time>
      </trkpt>
      <trkpt lat="41.8825470" lon="-2.7662430">
        <ele>1161.2</ele>
        <time>2022-01-30T11:48:18Z</time>
      </trkpt>
      <trkpt lat="41.8825630" lon="-2.7662370">
        <ele>1161.2</ele>
        <time>2022-01-30T11:48:19Z</time>
      </trkpt>
      <trkpt lat="41.8825780" lon="-2.7662280">
        <ele>1161.2</ele>
        <time>2022-01-30T11:48:20Z</time>
      </trkpt>
      <trkpt lat="41.8825950" lon="-2.7662230">
        <ele>1161.2</ele>
        <time>2022-01-30T11:48:21Z</time>
      </trkpt>
      <trkpt lat="41.8826100" lon="-2.7662230">
        <ele>1161.9</ele>
        <time>2022-01-30T11:48:22Z</time>
      </trkpt>
      <trkpt lat="41.8826230" lon="-2.7662220">
        <ele>1161.9</ele>
        <time>2022-01-30T11:48:23Z</time>
      </trkpt>
      <trkpt lat="41.8826400" lon="-2.7662200">
        <ele>1161.9</ele>
        <time>2022-01-30T11:48:24Z</time>
      </trkpt>
      <trkpt lat="41.8826600" lon="-2.7662200">
        <ele>1161.9</ele>
        <time>2022-01-30T11:48:25Z</time>
      </trkpt>
      <trkpt lat="41.8826770" lon="-2.7662200">
        <ele>1161.9</ele>
        <time>2022-01-30T11:48:26Z</time>
      </trkpt>
      <trkpt lat="41.8826930" lon="-2.7662250">
        <ele>1161.9</ele>
        <time>2022-01-30T11:48:27Z</time>
      </trkpt>
      <trkpt lat="41.8827130" lon="-2.7662270">
        <ele>1161.9</ele>
        <time>2022-01-30T11:48:28Z</time>
      </trkpt>
      <trkpt lat="41.8827380" lon="-2.7662300">
        <ele>1162.6</ele>
        <time>2022-01-30T11:48:29Z</time>
      </trkpt>
      <trkpt lat="41.8827650" lon="-2.7662370">
        <ele>1162.6</ele>
        <time>2022-01-30T11:48:30Z</time>
      </trkpt>
      <trkpt lat="41.8827930" lon="-2.7662430">
        <ele>1162.6</ele>
        <time>2022-01-30T11:48:31Z</time>
      </trkpt>
      <trkpt lat="41.8828230" lon="-2.7662480">
        <ele>1162.6</ele>
        <time>2022-01-30T11:48:32Z</time>
      </trkpt>
      <trkpt lat="41.8828530" lon="-2.7662580">
        <ele>1162.6</ele>
        <time>2022-01-30T11:48:33Z</time>
      </trkpt>
      <trkpt lat="41.8828820" lon="-2.7662670">
        <ele>1163.2</ele>
        <time>2022-01-30T11:48:34Z</time>
      </trkpt>
      <trkpt lat="41.8829100" lon="-2.7662720">
        <ele>1163.2</ele>
        <time>2022-01-30T11:48:35Z</time>
      </trkpt>
      <trkpt lat="41.8829380" lon="-2.7662780">
        <ele>1163.2</ele>
        <time>2022-01-30T11:48:36Z</time>
      </trkpt>
      <trkpt lat="41.8829680" lon="-2.7662820">
        <ele>1163.2</ele>
        <time>2022-01-30T11:48:37Z</time>
      </trkpt>
      <trkpt lat="41.8829980" lon="-2.7662800">
        <ele>1164.1</ele>
        <time>2022-01-30T11:48:38Z</time>
      </trkpt>
      <trkpt lat="41.8830270" lon="-2.7662780">
        <ele>1164.1</ele>
        <time>2022-01-30T11:48:39Z</time>
      </trkpt>
      <trkpt lat="41.8830550" lon="-2.7662720">
        <ele>1164.1</ele>
        <time>2022-01-30T11:48:40Z</time>
      </trkpt>
      <trkpt lat="41.8830800" lon="-2.7662720">
        <ele>1164.1</ele>
        <time>2022-01-30T11:48:41Z</time>
      </trkpt>
      <trkpt lat="41.8831000" lon="-2.7662750">
        <ele>1164.1</ele>
        <time>2022-01-30T11:48:42Z</time>
      </trkpt>
      <trkpt lat="41.8831180" lon="-2.7662750">
        <ele>1165.0</ele>
        <time>2022-01-30T11:48:43Z</time>
      </trkpt>
      <trkpt lat="41.8831320" lon="-2.7662700">
        <ele>1165.0</ele>
        <time>2022-01-30T11:48:44Z</time>
      </trkpt>
      <trkpt lat="41.8831470" lon="-2.7662670">
        <ele>1165.0</ele>
        <time>2022-01-30T11:48:45Z</time>
      </trkpt>
      <trkpt lat="41.8831580" lon="-2.7662600">
        <ele>1165.0</ele>
        <time>2022-01-30T11:48:46Z</time>
      </trkpt>
      <trkpt lat="41.8831770" lon="-2.7662570">
        <ele>1165.0</ele>
        <time>2022-01-30T11:48:47Z</time>
      </trkpt>
      <trkpt lat="41.8831950" lon="-2.7662520">
        <ele>1165.0</ele>
        <time>2022-01-30T11:48:48Z</time>
      </trkpt>
      <trkpt lat="41.8832150" lon="-2.7662480">
        <ele>1165.0</ele>
        <time>2022-01-30T11:48:49Z</time>
      </trkpt>
      <trkpt lat="41.8832380" lon="-2.7662450">
        <ele>1165.6</ele>
        <time>2022-01-30T11:48:50Z</time>
      </trkpt>
      <trkpt lat="41.8832670" lon="-2.7662450">
        <ele>1165.6</ele>
        <time>2022-01-30T11:48:51Z</time>
      </trkpt>
      <trkpt lat="41.8832970" lon="-2.7662500">
        <ele>1165.6</ele>
        <time>2022-01-30T11:48:52Z</time>
      </trkpt>
      <trkpt lat="41.8833230" lon="-2.7662530">
        <ele>1165.6</ele>
        <time>2022-01-30T11:48:53Z</time>
      </trkpt>
      <trkpt lat="41.8833520" lon="-2.7662530">
        <ele>1165.6</ele>
        <time>2022-01-30T11:48:54Z</time>
      </trkpt>
      <trkpt lat="41.8833930" lon="-2.7662530">
        <ele>1166.0</ele>
        <time>2022-01-30T11:48:55Z</time>
      </trkpt>
      <trkpt lat="41.8834230" lon="-2.7662520">
        <ele>1166.0</ele>
        <time>2022-01-30T11:48:56Z</time>
      </trkpt>
      <trkpt lat="41.8834450" lon="-2.7662530">
        <ele>1166.0</ele>
        <time>2022-01-30T11:48:57Z</time>
      </trkpt>
      <trkpt lat="41.8834670" lon="-2.7662530">
        <ele>1166.0</ele>
        <time>2022-01-30T11:48:58Z</time>
      </trkpt>
      <trkpt lat="41.8834830" lon="-2.7662550">
        <ele>1166.0</ele>
        <time>2022-01-30T11:48:59Z</time>
      </trkpt>
      <trkpt lat="41.8834950" lon="-2.7662480">
        <ele>1166.5</ele>
        <time>2022-01-30T11:49:00Z</time>
      </trkpt>
      <trkpt lat="41.8835100" lon="-2.7662430">
        <ele>1166.5</ele>
        <time>2022-01-30T11:49:01Z</time>
      </trkpt>
      <trkpt lat="41.8835230" lon="-2.7662400">
        <ele>1166.5</ele>
        <time>2022-01-30T11:49:02Z</time>
      </trkpt>
      <trkpt lat="41.8835420" lon="-2.7662430">
        <ele>1166.5</ele>
        <time>2022-01-30T11:49:03Z</time>
      </trkpt>
      <trkpt lat="41.8835620" lon="-2.7662470">
        <ele>1166.5</ele>
        <time>2022-01-30T11:49:04Z</time>
      </trkpt>
      <trkpt lat="41.8835780" lon="-2.7662520">
        <ele>1166.5</ele>
        <time>2022-01-30T11:49:05Z</time>
      </trkpt>
      <trkpt lat="41.8835980" lon="-2.7662500">
        <ele>1166.5</ele>
        <time>2022-01-30T11:49:06Z</time>
      </trkpt>
      <trkpt lat="41.8836200" lon="-2.7662470">
        <ele>1166.5</ele>
        <time>2022-01-30T11:49:07Z</time>
      </trkpt>
      <trkpt lat="41.8836450" lon="-2.7662420">
        <ele>1167.1</ele>
        <time>2022-01-30T11:49:08Z</time>
      </trkpt>
      <trkpt lat="41.8836670" lon="-2.7662350">
        <ele>1167.1</ele>
        <time>2022-01-30T11:49:09Z</time>
      </trkpt>
      <trkpt lat="41.8836880" lon="-2.7662330">
        <ele>1167.1</ele>
        <time>2022-01-30T11:49:10Z</time>
      </trkpt>
      <trkpt lat="41.8837080" lon="-2.7662270">
        <ele>1167.1</ele>
        <time>2022-01-30T11:49:11Z</time>
      </trkpt>
      <trkpt lat="41.8837250" lon="-2.7662220">
        <ele>1167.1</ele>
        <time>2022-01-30T11:49:12Z</time>
      </trkpt>
      <trkpt lat="41.8837420" lon="-2.7662200">
        <ele>1167.1</ele>
        <time>2022-01-30T11:49:13Z</time>
      </trkpt>
      <trkpt lat="41.8837580" lon="-2.7662150">
        <ele>1167.3</ele>
        <time>2022-01-30T11:49:14Z</time>
      </trkpt>
      <trkpt lat="41.8837730" lon="-2.7662100">
        <ele>1167.3</ele>
        <time>2022-01-30T11:49:15Z</time>
      </trkpt>
      <trkpt lat="41.8837880" lon="-2.7662030">
        <ele>1167.3</ele>
        <time>2022-01-30T11:49:16Z</time>
      </trkpt>
      <trkpt lat="41.8838070" lon="-2.7661970">
        <ele>1167.3</ele>
        <time>2022-01-30T11:49:17Z</time>
      </trkpt>
      <trkpt lat="41.8838250" lon="-2.7661930">
        <ele>1167.3</ele>
        <time>2022-01-30T11:49:18Z</time>
      </trkpt>
      <trkpt lat="41.8838430" lon="-2.7661900">
        <ele>1167.3</ele>
        <time>2022-01-30T11:49:19Z</time>
      </trkpt>
      <trkpt lat="41.8838650" lon="-2.7661870">
        <ele>1167.3</ele>
        <time>2022-01-30T11:49:20Z</time>
      </trkpt>
      <trkpt lat="41.8838870" lon="-2.7661770">
        <ele>1167.4</ele>
        <time>2022-01-30T11:49:21Z</time>
      </trkpt>
      <trkpt lat="41.8839050" lon="-2.7661670">
        <ele>1167.4</ele>
        <time>2022-01-30T11:49:22Z</time>
      </trkpt>
      <trkpt lat="41.8839230" lon="-2.7661620">
        <ele>1167.4</ele>
        <time>2022-01-30T11:49:23Z</time>
      </trkpt>
      <trkpt lat="41.8839420" lon="-2.7661570">
        <ele>1167.4</ele>
        <time>2022-01-30T11:49:24Z</time>
      </trkpt>
      <trkpt lat="41.8839620" lon="-2.7661530">
        <ele>1167.4</ele>
        <time>2022-01-30T11:49:25Z</time>
      </trkpt>
      <trkpt lat="41.8839800" lon="-2.7661480">
        <ele>1167.1</ele>
        <time>2022-01-30T11:49:26Z</time>
      </trkpt>
      <trkpt lat="41.8839970" lon="-2.7661400">
        <ele>1167.1</ele>
        <time>2022-01-30T11:49:27Z</time>
      </trkpt>
      <trkpt lat="41.8840130" lon="-2.7661300">
        <ele>1167.4</ele>
        <time>2022-01-30T11:49:28Z</time>
      </trkpt>
      <trkpt lat="41.8840250" lon="-2.7661180">
        <ele>1167.4</ele>
        <time>2022-01-30T11:49:29Z</time>
      </trkpt>
      <trkpt lat="41.8840380" lon="-2.7661050">
        <ele>1167.4</ele>
        <time>2022-01-30T11:49:30Z</time>
      </trkpt>
      <trkpt lat="41.8840530" lon="-2.7660950">
        <ele>1167.4</ele>
        <time>2022-01-30T11:49:31Z</time>
      </trkpt>
      <trkpt lat="41.8840700" lon="-2.7660850">
        <ele>1167.4</ele>
        <time>2022-01-30T11:49:32Z</time>
      </trkpt>
      <trkpt lat="41.8840850" lon="-2.7660750">
        <ele>1167.4</ele>
        <time>2022-01-30T11:49:33Z</time>
      </trkpt>
      <trkpt lat="41.8841000" lon="-2.7660670">
        <ele>1167.4</ele>
        <time>2022-01-30T11:49:34Z</time>
      </trkpt>
      <trkpt lat="41.8841130" lon="-2.7660570">
        <ele>1167.4</ele>
        <time>2022-01-30T11:49:35Z</time>
      </trkpt>
      <trkpt lat="41.8841300" lon="-2.7660470">
        <ele>1167.4</ele>
        <time>2022-01-30T11:49:36Z</time>
      </trkpt>
      <trkpt lat="41.8841470" lon="-2.7660380">
        <ele>1168.1</ele>
        <time>2022-01-30T11:49:37Z</time>
      </trkpt>
      <trkpt lat="41.8841650" lon="-2.7660300">
        <ele>1168.1</ele>
        <time>2022-01-30T11:49:38Z</time>
      </trkpt>
      <trkpt lat="41.8841850" lon="-2.7660200">
        <ele>1168.1</ele>
        <time>2022-01-30T11:49:39Z</time>
      </trkpt>
      <trkpt lat="41.8842000" lon="-2.7660100">
        <ele>1168.1</ele>
        <time>2022-01-30T11:49:40Z</time>
      </trkpt>
      <trkpt lat="41.8842170" lon="-2.7659980">
        <ele>1168.1</ele>
        <time>2022-01-30T11:49:41Z</time>
      </trkpt>
      <trkpt lat="41.8842330" lon="-2.7659920">
        <ele>1168.1</ele>
        <time>2022-01-30T11:49:42Z</time>
      </trkpt>
      <trkpt lat="41.8842500" lon="-2.7659820">
        <ele>1168.1</ele>
        <time>2022-01-30T11:49:43Z</time>
      </trkpt>
      <trkpt lat="41.8842670" lon="-2.7659700">
        <ele>1168.7</ele>
        <time>2022-01-30T11:49:44Z</time>
      </trkpt>
      <trkpt lat="41.8842850" lon="-2.7659570">
        <ele>1168.7</ele>
        <time>2022-01-30T11:49:45Z</time>
      </trkpt>
      <trkpt lat="41.8843020" lon="-2.7659420">
        <ele>1168.7</ele>
        <time>2022-01-30T11:49:46Z</time>
      </trkpt>
      <trkpt lat="41.8843170" lon="-2.7659230">
        <ele>1168.7</ele>
        <time>2022-01-30T11:49:47Z</time>
      </trkpt>
      <trkpt lat="41.8843330" lon="-2.7659070">
        <ele>1168.7</ele>
        <time>2022-01-30T11:49:48Z</time>
      </trkpt>
      <trkpt lat="41.8843500" lon="-2.7658920">
        <ele>1168.7</ele>
        <time>2022-01-30T11:49:49Z</time>
      </trkpt>
      <trkpt lat="41.8843620" lon="-2.7658780">
        <ele>1168.7</ele>
        <time>2022-01-30T11:49:50Z</time>
      </trkpt>
      <trkpt lat="41.8843730" lon="-2.7658750">
        <ele>1168.7</ele>
        <time>2022-01-30T11:49:51Z</time>
      </trkpt>
      <trkpt lat="41.8843900" lon="-2.7658670">
        <ele>1169.9</ele>
        <time>2022-01-30T11:49:52Z</time>
      </trkpt>
      <trkpt lat="41.8844030" lon="-2.7658580">
        <ele>1169.9</ele>
        <time>2022-01-30T11:49:53Z</time>
      </trkpt>
      <trkpt lat="41.8844200" lon="-2.7658450">
        <ele>1169.9</ele>
        <time>2022-01-30T11:49:54Z</time>
      </trkpt>
      <trkpt lat="41.8844380" lon="-2.7658280">
        <ele>1169.9</ele>
        <time>2022-01-30T11:49:55Z</time>
      </trkpt>
      <trkpt lat="41.8844570" lon="-2.7658120">
        <ele>1169.9</ele>
        <time>2022-01-30T11:49:56Z</time>
      </trkpt>
      <trkpt lat="41.8844720" lon="-2.7657930">
        <ele>1170.1</ele>
        <time>2022-01-30T11:49:57Z</time>
      </trkpt>
      <trkpt lat="41.8844850" lon="-2.7657750">
        <ele>1170.1</ele>
        <time>2022-01-30T11:49:58Z</time>
      </trkpt>
      <trkpt lat="41.8844980" lon="-2.7657530">
        <ele>1170.1</ele>
        <time>2022-01-30T11:49:59Z</time>
      </trkpt>
      <trkpt lat="41.8845130" lon="-2.7657330">
        <ele>1170.1</ele>
        <time>2022-01-30T11:50:00Z</time>
      </trkpt>
      <trkpt lat="41.8845280" lon="-2.7657150">
        <ele>1171.6</ele>
        <time>2022-01-30T11:50:01Z</time>
      </trkpt>
      <trkpt lat="41.8845470" lon="-2.7656970">
        <ele>1171.6</ele>
        <time>2022-01-30T11:50:02Z</time>
      </trkpt>
      <trkpt lat="41.8845680" lon="-2.7656820">
        <ele>1171.6</ele>
        <time>2022-01-30T11:50:03Z</time>
      </trkpt>
      <trkpt lat="41.8845930" lon="-2.7656720">
        <ele>1171.6</ele>
        <time>2022-01-30T11:50:04Z</time>
      </trkpt>
      <trkpt lat="41.8846150" lon="-2.7656570">
        <ele>1171.6</ele>
        <time>2022-01-30T11:50:05Z</time>
      </trkpt>
      <trkpt lat="41.8846370" lon="-2.7656450">
        <ele>1171.6</ele>
        <time>2022-01-30T11:50:06Z</time>
      </trkpt>
      <trkpt lat="41.8846680" lon="-2.7656220">
        <ele>1173.4</ele>
        <time>2022-01-30T11:50:07Z</time>
      </trkpt>
      <trkpt lat="41.8846930" lon="-2.7656050">
        <ele>1173.4</ele>
        <time>2022-01-30T11:50:08Z</time>
      </trkpt>
      <trkpt lat="41.8847150" lon="-2.7655900">
        <ele>1173.4</ele>
        <time>2022-01-30T11:50:09Z</time>
      </trkpt>
      <trkpt lat="41.8847350" lon="-2.7655800">
        <ele>1173.4</ele>
        <time>2022-01-30T11:50:10Z</time>
      </trkpt>
      <trkpt lat="41.8847530" lon="-2.7655700">
        <ele>1173.4</ele>
        <time>2022-01-30T11:50:11Z</time>
      </trkpt>
      <trkpt lat="41.8847720" lon="-2.7655570">
        <ele>1175.1</ele>
        <time>2022-01-30T11:50:12Z</time>
      </trkpt>
      <trkpt lat="41.8847900" lon="-2.7655430">
        <ele>1175.1</ele>
        <time>2022-01-30T11:50:13Z</time>
      </trkpt>
      <trkpt lat="41.8848070" lon="-2.7655320">
        <ele>1175.1</ele>
        <time>2022-01-30T11:50:14Z</time>
      </trkpt>
      <trkpt lat="41.8848250" lon="-2.7655200">
        <ele>1175.1</ele>
        <time>2022-01-30T11:50:15Z</time>
      </trkpt>
      <trkpt lat="41.8848420" lon="-2.7655100">
        <ele>1175.1</ele>
        <time>2022-01-30T11:50:16Z</time>
      </trkpt>
      <trkpt lat="41.8848600" lon="-2.7654970">
        <ele>1175.1</ele>
        <time>2022-01-30T11:50:17Z</time>
      </trkpt>
      <trkpt lat="41.8848780" lon="-2.7654830">
        <ele>1175.1</ele>
        <time>2022-01-30T11:50:18Z</time>
      </trkpt>
      <trkpt lat="41.8848970" lon="-2.7654680">
        <ele>1175.1</ele>
        <time>2022-01-30T11:50:19Z</time>
      </trkpt>
      <trkpt lat="41.8849130" lon="-2.7654480">
        <ele>1177.1</ele>
        <time>2022-01-30T11:50:20Z</time>
      </trkpt>
      <trkpt lat="41.8849280" lon="-2.7654300">
        <ele>1177.1</ele>
        <time>2022-01-30T11:50:21Z</time>
      </trkpt>
      <trkpt lat="41.8849470" lon="-2.7654120">
        <ele>1177.1</ele>
        <time>2022-01-30T11:50:22Z</time>
      </trkpt>
      <trkpt lat="41.8849600" lon="-2.7653900">
        <ele>1177.1</ele>
        <time>2022-01-30T11:50:23Z</time>
      </trkpt>
      <trkpt lat="41.8849780" lon="-2.7653700">
        <ele>1177.1</ele>
        <time>2022-01-30T11:50:24Z</time>
      </trkpt>
      <trkpt lat="41.8850000" lon="-2.7653530">
        <ele>1177.1</ele>
        <time>2022-01-30T11:50:25Z</time>
      </trkpt>
      <trkpt lat="41.8850230" lon="-2.7653350">
        <ele>1177.1</ele>
        <time>2022-01-30T11:50:26Z</time>
      </trkpt>
      <trkpt lat="41.8850430" lon="-2.7653150">
        <ele>1179.5</ele>
        <time>2022-01-30T11:50:27Z</time>
      </trkpt>
      <trkpt lat="41.8850680" lon="-2.7652950">
        <ele>1179.5</ele>
        <time>2022-01-30T11:50:28Z</time>
      </trkpt>
      <trkpt lat="41.8850830" lon="-2.7652830">
        <ele>1179.7</ele>
        <time>2022-01-30T11:50:29Z</time>
      </trkpt>
      <trkpt lat="41.8850980" lon="-2.7652720">
        <ele>1179.7</ele>
        <time>2022-01-30T11:50:30Z</time>
      </trkpt>
      <trkpt lat="41.8851130" lon="-2.7652600">
        <ele>1179.7</ele>
        <time>2022-01-30T11:50:31Z</time>
      </trkpt>
      <trkpt lat="41.8851300" lon="-2.7652450">
        <ele>1179.7</ele>
        <time>2022-01-30T11:50:32Z</time>
      </trkpt>
      <trkpt lat="41.8851470" lon="-2.7652230">
        <ele>1179.7</ele>
        <time>2022-01-30T11:50:33Z</time>
      </trkpt>
      <trkpt lat="41.8851650" lon="-2.7652030">
        <ele>1181.8</ele>
        <time>2022-01-30T11:50:34Z</time>
      </trkpt>
      <trkpt lat="41.8851830" lon="-2.7651820">
        <ele>1181.8</ele>
        <time>2022-01-30T11:50:35Z</time>
      </trkpt>
      <trkpt lat="41.8852020" lon="-2.7651630">
        <ele>1181.8</ele>
        <time>2022-01-30T11:50:36Z</time>
      </trkpt>
      <trkpt lat="41.8852170" lon="-2.7651430">
        <ele>1181.8</ele>
        <time>2022-01-30T11:50:37Z</time>
      </trkpt>
      <trkpt lat="41.8852300" lon="-2.7651250">
        <ele>1181.8</ele>
        <time>2022-01-30T11:50:38Z</time>
      </trkpt>
      <trkpt lat="41.8852430" lon="-2.7651050">
        <ele>1181.9</ele>
        <time>2022-01-30T11:50:39Z</time>
      </trkpt>
      <trkpt lat="41.8852600" lon="-2.7650870">
        <ele>1181.9</ele>
        <time>2022-01-30T11:50:40Z</time>
      </trkpt>
      <trkpt lat="41.8852770" lon="-2.7650680">
        <ele>1181.9</ele>
        <time>2022-01-30T11:50:41Z</time>
      </trkpt>
      <trkpt lat="41.8852920" lon="-2.7650450">
        <ele>1184.2</ele>
        <time>2022-01-30T11:50:42Z</time>
      </trkpt>
      <trkpt lat="41.8853070" lon="-2.7650220">
        <ele>1184.2</ele>
        <time>2022-01-30T11:50:43Z</time>
      </trkpt>
      <trkpt lat="41.8853250" lon="-2.7650000">
        <ele>1184.2</ele>
        <time>2022-01-30T11:50:44Z</time>
      </trkpt>
      <trkpt lat="41.8853450" lon="-2.7649830">
        <ele>1184.2</ele>
        <time>2022-01-30T11:50:45Z</time>
      </trkpt>
      <trkpt lat="41.8853620" lon="-2.7649580">
        <ele>1184.2</ele>
        <time>2022-01-30T11:50:46Z</time>
      </trkpt>
      <trkpt lat="41.8853780" lon="-2.7649370">
        <ele>1184.1</ele>
        <time>2022-01-30T11:50:47Z</time>
      </trkpt>
      <trkpt lat="41.8853950" lon="-2.7649120">
        <ele>1184.1</ele>
        <time>2022-01-30T11:50:48Z</time>
      </trkpt>
      <trkpt lat="41.8854100" lon="-2.7648920">
        <ele>1185.7</ele>
        <time>2022-01-30T11:50:49Z</time>
      </trkpt>
      <trkpt lat="41.8854280" lon="-2.7648730">
        <ele>1185.7</ele>
        <time>2022-01-30T11:50:50Z</time>
      </trkpt>
      <trkpt lat="41.8854480" lon="-2.7648600">
        <ele>1185.7</ele>
        <time>2022-01-30T11:50:51Z</time>
      </trkpt>
      <trkpt lat="41.8854670" lon="-2.7648450">
        <ele>1185.7</ele>
        <time>2022-01-30T11:50:52Z</time>
      </trkpt>
      <trkpt lat="41.8854870" lon="-2.7648270">
        <ele>1185.7</ele>
        <time>2022-01-30T11:50:53Z</time>
      </trkpt>
      <trkpt lat="41.8855020" lon="-2.7648080">
        <ele>1185.7</ele>
        <time>2022-01-30T11:50:54Z</time>
      </trkpt>
      <trkpt lat="41.8855180" lon="-2.7647930">
        <ele>1185.7</ele>
        <time>2022-01-30T11:50:55Z</time>
      </trkpt>
      <trkpt lat="41.8855320" lon="-2.7647770">
        <ele>1185.3</ele>
        <time>2022-01-30T11:50:56Z</time>
      </trkpt>
      <trkpt lat="41.8855470" lon="-2.7647650">
        <ele>1186.8</ele>
        <time>2022-01-30T11:50:57Z</time>
      </trkpt>
      <trkpt lat="41.8855630" lon="-2.7647550">
        <ele>1186.8</ele>
        <time>2022-01-30T11:50:58Z</time>
      </trkpt>
      <trkpt lat="41.8855820" lon="-2.7647520">
        <ele>1186.8</ele>
        <time>2022-01-30T11:50:59Z</time>
      </trkpt>
      <trkpt lat="41.8856000" lon="-2.7647450">
        <ele>1186.8</ele>
        <time>2022-01-30T11:51:00Z</time>
      </trkpt>
      <trkpt lat="41.8856200" lon="-2.7647380">
        <ele>1186.8</ele>
        <time>2022-01-30T11:51:01Z</time>
      </trkpt>
      <trkpt lat="41.8856400" lon="-2.7647280">
        <ele>1186.8</ele>
        <time>2022-01-30T11:51:02Z</time>
      </trkpt>
      <trkpt lat="41.8856650" lon="-2.7647120">
        <ele>1186.8</ele>
        <time>2022-01-30T11:51:03Z</time>
      </trkpt>
      <trkpt lat="41.8856920" lon="-2.7647050">
        <ele>1188.0</ele>
        <time>2022-01-30T11:51:04Z</time>
      </trkpt>
      <trkpt lat="41.8857200" lon="-2.7646970">
        <ele>1188.0</ele>
        <time>2022-01-30T11:51:05Z</time>
      </trkpt>
      <trkpt lat="41.8857370" lon="-2.7646880">
        <ele>1188.0</ele>
        <time>2022-01-30T11:51:06Z</time>
      </trkpt>
      <trkpt lat="41.8857480" lon="-2.7646780">
        <ele>1188.0</ele>
        <time>2022-01-30T11:51:07Z</time>
      </trkpt>
      <trkpt lat="41.8857650" lon="-2.7646630">
        <ele>1188.0</ele>
        <time>2022-01-30T11:51:08Z</time>
      </trkpt>
      <trkpt lat="41.8857820" lon="-2.7646430">
        <ele>1188.0</ele>
        <time>2022-01-30T11:51:09Z</time>
      </trkpt>
      <trkpt lat="41.8858020" lon="-2.7646300">
        <ele>1189.5</ele>
        <time>2022-01-30T11:51:10Z</time>
      </trkpt>
      <trkpt lat="41.8858150" lon="-2.7646170">
        <ele>1189.5</ele>
        <time>2022-01-30T11:51:11Z</time>
      </trkpt>
      <trkpt lat="41.8858270" lon="-2.7646070">
        <ele>1189.5</ele>
        <time>2022-01-30T11:51:12Z</time>
      </trkpt>
      <trkpt lat="41.8858350" lon="-2.7646000">
        <ele>1189.0</ele>
        <time>2022-01-30T11:51:13Z</time>
      </trkpt>
      <trkpt lat="41.8858470" lon="-2.7645970">
        <ele>1189.0</ele>
        <time>2022-01-30T11:51:14Z</time>
      </trkpt>
      <trkpt lat="41.8858570" lon="-2.7645950">
        <ele>1189.0</ele>
        <time>2022-01-30T11:51:15Z</time>
      </trkpt>
      <trkpt lat="41.8858700" lon="-2.7645980">
        <ele>1189.0</ele>
        <time>2022-01-30T11:51:16Z</time>
      </trkpt>
      <trkpt lat="41.8858830" lon="-2.7646070">
        <ele>1189.5</ele>
        <time>2022-01-30T11:51:17Z</time>
      </trkpt>
      <trkpt lat="41.8859020" lon="-2.7646130">
        <ele>1189.5</ele>
        <time>2022-01-30T11:51:18Z</time>
      </trkpt>
      <trkpt lat="41.8859200" lon="-2.7646120">
        <ele>1189.5</ele>
        <time>2022-01-30T11:51:19Z</time>
      </trkpt>
      <trkpt lat="41.8859400" lon="-2.7646050">
        <ele>1190.5</ele>
        <time>2022-01-30T11:51:20Z</time>
      </trkpt>
      <trkpt lat="41.8859530" lon="-2.7645970">
        <ele>1190.5</ele>
        <time>2022-01-30T11:51:21Z</time>
      </trkpt>
      <trkpt lat="41.8859600" lon="-2.7645920">
        <ele>1190.5</ele>
        <time>2022-01-30T11:51:22Z</time>
      </trkpt>
      <trkpt lat="41.8859720" lon="-2.7645870">
        <ele>1190.5</ele>
        <time>2022-01-30T11:51:23Z</time>
      </trkpt>
      <trkpt lat="41.8859830" lon="-2.7645820">
        <ele>1190.5</ele>
        <time>2022-01-30T11:51:24Z</time>
      </trkpt>
      <trkpt lat="41.8860020" lon="-2.7645780">
        <ele>1190.5</ele>
        <time>2022-01-30T11:51:25Z</time>
      </trkpt>
      <trkpt lat="41.8860220" lon="-2.7645680">
        <ele>1190.5</ele>
        <time>2022-01-30T11:51:26Z</time>
      </trkpt>
      <trkpt lat="41.8860350" lon="-2.7645620">
        <ele>1190.5</ele>
        <time>2022-01-30T11:51:27Z</time>
      </trkpt>
      <trkpt lat="41.8860500" lon="-2.7645530">
        <ele>1192.3</ele>
        <time>2022-01-30T11:51:28Z</time>
      </trkpt>
      <trkpt lat="41.8860650" lon="-2.7645480">
        <ele>1192.3</ele>
        <time>2022-01-30T11:51:29Z</time>
      </trkpt>
      <trkpt lat="41.8860780" lon="-2.7645400">
        <ele>1192.3</ele>
        <time>2022-01-30T11:51:30Z</time>
      </trkpt>
      <trkpt lat="41.8860900" lon="-2.7645300">
        <ele>1192.3</ele>
        <time>2022-01-30T11:51:31Z</time>
      </trkpt>
      <trkpt lat="41.8861030" lon="-2.7645180">
        <ele>1192.3</ele>
        <time>2022-01-30T11:51:32Z</time>
      </trkpt>
      <trkpt lat="41.8861180" lon="-2.7645100">
        <ele>1192.3</ele>
        <time>2022-01-30T11:51:33Z</time>
      </trkpt>
      <trkpt lat="41.8861350" lon="-2.7645020">
        <ele>1192.3</ele>
        <time>2022-01-30T11:51:34Z</time>
      </trkpt>
      <trkpt lat="41.8861520" lon="-2.7644970">
        <ele>1192.3</ele>
        <time>2022-01-30T11:51:35Z</time>
      </trkpt>
      <trkpt lat="41.8861680" lon="-2.7644920">
        <ele>1192.3</ele>
        <time>2022-01-30T11:51:36Z</time>
      </trkpt>
      <trkpt lat="41.8861850" lon="-2.7644830">
        <ele>1194.2</ele>
        <time>2022-01-30T11:51:37Z</time>
      </trkpt>
      <trkpt lat="41.8862000" lon="-2.7644730">
        <ele>1194.2</ele>
        <time>2022-01-30T11:51:38Z</time>
      </trkpt>
      <trkpt lat="41.8862120" lon="-2.7644580">
        <ele>1194.2</ele>
        <time>2022-01-30T11:51:39Z</time>
      </trkpt>
      <trkpt lat="41.8862250" lon="-2.7644380">
        <ele>1194.2</ele>
        <time>2022-01-30T11:51:40Z</time>
      </trkpt>
      <trkpt lat="41.8862400" lon="-2.7644220">
        <ele>1193.8</ele>
        <time>2022-01-30T11:51:41Z</time>
      </trkpt>
      <trkpt lat="41.8862570" lon="-2.7644050">
        <ele>1193.8</ele>
        <time>2022-01-30T11:51:42Z</time>
      </trkpt>
      <trkpt lat="41.8862720" lon="-2.7643920">
        <ele>1193.8</ele>
        <time>2022-01-30T11:51:43Z</time>
      </trkpt>
      <trkpt lat="41.8862830" lon="-2.7643750">
        <ele>1193.8</ele>
        <time>2022-01-30T11:51:44Z</time>
      </trkpt>
      <trkpt lat="41.8862980" lon="-2.7643550">
        <ele>1193.8</ele>
        <time>2022-01-30T11:51:45Z</time>
      </trkpt>
      <trkpt lat="41.8863120" lon="-2.7643350">
        <ele>1195.6</ele>
        <time>2022-01-30T11:51:46Z</time>
      </trkpt>
      <trkpt lat="41.8863230" lon="-2.7643150">
        <ele>1195.6</ele>
        <time>2022-01-30T11:51:47Z</time>
      </trkpt>
      <trkpt lat="41.8863370" lon="-2.7643000">
        <ele>1195.6</ele>
        <time>2022-01-30T11:51:48Z</time>
      </trkpt>
      <trkpt lat="41.8863520" lon="-2.7642850">
        <ele>1195.6</ele>
        <time>2022-01-30T11:51:49Z</time>
      </trkpt>
      <trkpt lat="41.8863680" lon="-2.7642700">
        <ele>1195.6</ele>
        <time>2022-01-30T11:51:50Z</time>
      </trkpt>
      <trkpt lat="41.8863830" lon="-2.7642580">
        <ele>1195.5</ele>
        <time>2022-01-30T11:51:51Z</time>
      </trkpt>
      <trkpt lat="41.8864000" lon="-2.7642450">
        <ele>1195.5</ele>
        <time>2022-01-30T11:51:52Z</time>
      </trkpt>
      <trkpt lat="41.8864170" lon="-2.7642280">
        <ele>1195.5</ele>
        <time>2022-01-30T11:51:53Z</time>
      </trkpt>
      <trkpt lat="41.8864320" lon="-2.7642120">
        <ele>1195.5</ele>
        <time>2022-01-30T11:51:54Z</time>
      </trkpt>
      <trkpt lat="41.8864480" lon="-2.7641870">
        <ele>1197.3</ele>
        <time>2022-01-30T11:51:55Z</time>
      </trkpt>
      <trkpt lat="41.8864670" lon="-2.7641670">
        <ele>1197.3</ele>
        <time>2022-01-30T11:51:56Z</time>
      </trkpt>
      <trkpt lat="41.8864900" lon="-2.7641500">
        <ele>1197.3</ele>
        <time>2022-01-30T11:51:57Z</time>
      </trkpt>
      <trkpt lat="41.8865170" lon="-2.7641370">
        <ele>1197.3</ele>
        <time>2022-01-30T11:51:58Z</time>
      </trkpt>
      <trkpt lat="41.8865400" lon="-2.7641220">
        <ele>1197.3</ele>
        <time>2022-01-30T11:51:59Z</time>
      </trkpt>
      <trkpt lat="41.8865600" lon="-2.7641030">
        <ele>1197.3</ele>
        <time>2022-01-30T11:52:00Z</time>
      </trkpt>
      <trkpt lat="41.8865750" lon="-2.7640880">
        <ele>1198.8</ele>
        <time>2022-01-30T11:52:01Z</time>
      </trkpt>
      <trkpt lat="41.8865880" lon="-2.7640770">
        <ele>1198.8</ele>
        <time>2022-01-30T11:52:02Z</time>
      </trkpt>
      <trkpt lat="41.8866020" lon="-2.7640630">
        <ele>1198.8</ele>
        <time>2022-01-30T11:52:03Z</time>
      </trkpt>
      <trkpt lat="41.8866120" lon="-2.7640470">
        <ele>1198.8</ele>
        <time>2022-01-30T11:52:04Z</time>
      </trkpt>
      <trkpt lat="41.8866220" lon="-2.7640300">
        <ele>1198.8</ele>
        <time>2022-01-30T11:52:05Z</time>
      </trkpt>
      <trkpt lat="41.8866320" lon="-2.7640120">
        <ele>1198.8</ele>
        <time>2022-01-30T11:52:06Z</time>
      </trkpt>
      <trkpt lat="41.8866400" lon="-2.7639930">
        <ele>1198.8</ele>
        <time>2022-01-30T11:52:07Z</time>
      </trkpt>
      <trkpt lat="41.8866480" lon="-2.7639770">
        <ele>1198.8</ele>
        <time>2022-01-30T11:52:08Z</time>
      </trkpt>
      <trkpt lat="41.8866550" lon="-2.7639620">
        <ele>1198.8</ele>
        <time>2022-01-30T11:52:09Z</time>
      </trkpt>
      <trkpt lat="41.8866600" lon="-2.7639500">
        <ele>1198.8</ele>
        <time>2022-01-30T11:52:10Z</time>
      </trkpt>
      <trkpt lat="41.8866700" lon="-2.7639400">
        <ele>1198.8</ele>
        <time>2022-01-30T11:52:11Z</time>
      </trkpt>
      <trkpt lat="41.8866800" lon="-2.7639270">
        <ele>1198.8</ele>
        <time>2022-01-30T11:52:12Z</time>
      </trkpt>
      <trkpt lat="41.8866920" lon="-2.7639170">
        <ele>1200.7</ele>
        <time>2022-01-30T11:52:13Z</time>
      </trkpt>
      <trkpt lat="41.8867050" lon="-2.7639070">
        <ele>1200.7</ele>
        <time>2022-01-30T11:52:14Z</time>
      </trkpt>
      <trkpt lat="41.8867180" lon="-2.7639000">
        <ele>1200.7</ele>
        <time>2022-01-30T11:52:15Z</time>
      </trkpt>
      <trkpt lat="41.8867330" lon="-2.7638980">
        <ele>1200.7</ele>
        <time>2022-01-30T11:52:16Z</time>
      </trkpt>
      <trkpt lat="41.8867480" lon="-2.7638970">
        <ele>1200.7</ele>
        <time>2022-01-30T11:52:17Z</time>
      </trkpt>
      <trkpt lat="41.8867630" lon="-2.7638930">
        <ele>1200.7</ele>
        <time>2022-01-30T11:52:18Z</time>
      </trkpt>
      <trkpt lat="41.8867780" lon="-2.7638850">
        <ele>1200.7</ele>
        <time>2022-01-30T11:52:19Z</time>
      </trkpt>
      <trkpt lat="41.8867950" lon="-2.7638720">
        <ele>1200.7</ele>
        <time>2022-01-30T11:52:20Z</time>
      </trkpt>
      <trkpt lat="41.8868080" lon="-2.7638620">
        <ele>1200.7</ele>
        <time>2022-01-30T11:52:21Z</time>
      </trkpt>
      <trkpt lat="41.8868230" lon="-2.7638470">
        <ele>1202.8</ele>
        <time>2022-01-30T11:52:22Z</time>
      </trkpt>
      <trkpt lat="41.8868380" lon="-2.7638320">
        <ele>1202.8</ele>
        <time>2022-01-30T11:52:23Z</time>
      </trkpt>
      <trkpt lat="41.8868500" lon="-2.7638200">
        <ele>1202.8</ele>
        <time>2022-01-30T11:52:24Z</time>
      </trkpt>
      <trkpt lat="41.8868620" lon="-2.7638050">
        <ele>1202.8</ele>
        <time>2022-01-30T11:52:25Z</time>
      </trkpt>
      <trkpt lat="41.8868720" lon="-2.7637950">
        <ele>1202.8</ele>
        <time>2022-01-30T11:52:26Z</time>
      </trkpt>
      <trkpt lat="41.8868850" lon="-2.7637850">
        <ele>1202.8</ele>
        <time>2022-01-30T11:52:27Z</time>
      </trkpt>
      <trkpt lat="41.8868980" lon="-2.7637750">
        <ele>1202.8</ele>
        <time>2022-01-30T11:52:28Z</time>
      </trkpt>
      <trkpt lat="41.8869150" lon="-2.7637670">
        <ele>1202.8</ele>
        <time>2022-01-30T11:52:29Z</time>
      </trkpt>
      <trkpt lat="41.8869320" lon="-2.7637620">
        <ele>1202.8</ele>
        <time>2022-01-30T11:52:30Z</time>
      </trkpt>
      <trkpt lat="41.8869500" lon="-2.7637570">
        <ele>1205.3</ele>
        <time>2022-01-30T11:52:31Z</time>
      </trkpt>
      <trkpt lat="41.8869670" lon="-2.7637500">
        <ele>1205.3</ele>
        <time>2022-01-30T11:52:32Z</time>
      </trkpt>
      <trkpt lat="41.8869830" lon="-2.7637430">
        <ele>1205.2</ele>
        <time>2022-01-30T11:52:33Z</time>
      </trkpt>
      <trkpt lat="41.8870000" lon="-2.7637380">
        <ele>1205.2</ele>
        <time>2022-01-30T11:52:34Z</time>
      </trkpt>
      <trkpt lat="41.8870150" lon="-2.7637300">
        <ele>1205.2</ele>
        <time>2022-01-30T11:52:35Z</time>
      </trkpt>
      <trkpt lat="41.8870300" lon="-2.7637220">
        <ele>1205.2</ele>
        <time>2022-01-30T11:52:36Z</time>
      </trkpt>
      <trkpt lat="41.8870450" lon="-2.7637130">
        <ele>1205.2</ele>
        <time>2022-01-30T11:52:37Z</time>
      </trkpt>
      <trkpt lat="41.8870580" lon="-2.7637050">
        <ele>1205.2</ele>
        <time>2022-01-30T11:52:38Z</time>
      </trkpt>
      <trkpt lat="41.8870730" lon="-2.7636970">
        <ele>1207.0</ele>
        <time>2022-01-30T11:52:39Z</time>
      </trkpt>
      <trkpt lat="41.8870880" lon="-2.7636900">
        <ele>1207.0</ele>
        <time>2022-01-30T11:52:40Z</time>
      </trkpt>
      <trkpt lat="41.8871050" lon="-2.7636820">
        <ele>1207.0</ele>
        <time>2022-01-30T11:52:41Z</time>
      </trkpt>
      <trkpt lat="41.8871200" lon="-2.7636750">
        <ele>1207.0</ele>
        <time>2022-01-30T11:52:42Z</time>
      </trkpt>
      <trkpt lat="41.8871350" lon="-2.7636670">
        <ele>1207.0</ele>
        <time>2022-01-30T11:52:43Z</time>
      </trkpt>
      <trkpt lat="41.8871500" lon="-2.7636600">
        <ele>1207.0</ele>
        <time>2022-01-30T11:52:44Z</time>
      </trkpt>
      <trkpt lat="41.8871630" lon="-2.7636550">
        <ele>1207.0</ele>
        <time>2022-01-30T11:52:45Z</time>
      </trkpt>
      <trkpt lat="41.8871780" lon="-2.7636520">
        <ele>1207.0</ele>
        <time>2022-01-30T11:52:46Z</time>
      </trkpt>
      <trkpt lat="41.8871930" lon="-2.7636480">
        <ele>1207.0</ele>
        <time>2022-01-30T11:52:47Z</time>
      </trkpt>
      <trkpt lat="41.8872100" lon="-2.7636420">
        <ele>1208.6</ele>
        <time>2022-01-30T11:52:48Z</time>
      </trkpt>
      <trkpt lat="41.8872270" lon="-2.7636300">
        <ele>1208.6</ele>
        <time>2022-01-30T11:52:49Z</time>
      </trkpt>
      <trkpt lat="41.8872420" lon="-2.7636180">
        <ele>1208.6</ele>
        <time>2022-01-30T11:52:50Z</time>
      </trkpt>
      <trkpt lat="41.8872600" lon="-2.7636080">
        <ele>1208.6</ele>
        <time>2022-01-30T11:52:51Z</time>
      </trkpt>
      <trkpt lat="41.8872750" lon="-2.7635970">
        <ele>1208.6</ele>
        <time>2022-01-30T11:52:52Z</time>
      </trkpt>
      <trkpt lat="41.8872900" lon="-2.7635870">
        <ele>1208.6</ele>
        <time>2022-01-30T11:52:53Z</time>
      </trkpt>
      <trkpt lat="41.8873050" lon="-2.7635800">
        <ele>1208.6</ele>
        <time>2022-01-30T11:52:54Z</time>
      </trkpt>
      <trkpt lat="41.8873220" lon="-2.7635750">
        <ele>1208.3</ele>
        <time>2022-01-30T11:52:55Z</time>
      </trkpt>
      <trkpt lat="41.8873400" lon="-2.7635680">
        <ele>1209.6</ele>
        <time>2022-01-30T11:52:56Z</time>
      </trkpt>
      <trkpt lat="41.8873600" lon="-2.7635630">
        <ele>1209.6</ele>
        <time>2022-01-30T11:52:57Z</time>
      </trkpt>
      <trkpt lat="41.8873780" lon="-2.7635580">
        <ele>1209.6</ele>
        <time>2022-01-30T11:52:58Z</time>
      </trkpt>
      <trkpt lat="41.8873980" lon="-2.7635550">
        <ele>1209.6</ele>
        <time>2022-01-30T11:52:59Z</time>
      </trkpt>
      <trkpt lat="41.8874170" lon="-2.7635520">
        <ele>1209.6</ele>
        <time>2022-01-30T11:53:00Z</time>
      </trkpt>
      <trkpt lat="41.8874370" lon="-2.7635480">
        <ele>1209.6</ele>
        <time>2022-01-30T11:53:01Z</time>
      </trkpt>
      <trkpt lat="41.8874550" lon="-2.7635420">
        <ele>1211.3</ele>
        <time>2022-01-30T11:53:02Z</time>
      </trkpt>
      <trkpt lat="41.8874720" lon="-2.7635370">
        <ele>1211.3</ele>
        <time>2022-01-30T11:53:03Z</time>
      </trkpt>
      <trkpt lat="41.8874900" lon="-2.7635320">
        <ele>1211.3</ele>
        <time>2022-01-30T11:53:04Z</time>
      </trkpt>
      <trkpt lat="41.8875080" lon="-2.7635270">
        <ele>1211.3</ele>
        <time>2022-01-30T11:53:05Z</time>
      </trkpt>
      <trkpt lat="41.8875220" lon="-2.7635180">
        <ele>1211.3</ele>
        <time>2022-01-30T11:53:06Z</time>
      </trkpt>
      <trkpt lat="41.8875350" lon="-2.7635080">
        <ele>1211.3</ele>
        <time>2022-01-30T11:53:07Z</time>
      </trkpt>
      <trkpt lat="41.8875500" lon="-2.7634930">
        <ele>1211.3</ele>
        <time>2022-01-30T11:53:08Z</time>
      </trkpt>
      <trkpt lat="41.8875650" lon="-2.7634830">
        <ele>1211.3</ele>
        <time>2022-01-30T11:53:09Z</time>
      </trkpt>
      <trkpt lat="41.8875800" lon="-2.7634800">
        <ele>1211.3</ele>
        <time>2022-01-30T11:53:10Z</time>
      </trkpt>
      <trkpt lat="41.8875930" lon="-2.7634770">
        <ele>1212.9</ele>
        <time>2022-01-30T11:53:11Z</time>
      </trkpt>
      <trkpt lat="41.8876080" lon="-2.7634730">
        <ele>1212.9</ele>
        <time>2022-01-30T11:53:12Z</time>
      </trkpt>
      <trkpt lat="41.8876220" lon="-2.7634680">
        <ele>1212.9</ele>
        <time>2022-01-30T11:53:13Z</time>
      </trkpt>
      <trkpt lat="41.8876370" lon="-2.7634630">
        <ele>1212.9</ele>
        <time>2022-01-30T11:53:14Z</time>
      </trkpt>
      <trkpt lat="41.8876480" lon="-2.7634600">
        <ele>1212.9</ele>
        <time>2022-01-30T11:53:15Z</time>
      </trkpt>
      <trkpt lat="41.8876620" lon="-2.7634550">
        <ele>1212.9</ele>
        <time>2022-01-30T11:53:16Z</time>
      </trkpt>
      <trkpt lat="41.8876770" lon="-2.7634480">
        <ele>1212.9</ele>
        <time>2022-01-30T11:53:17Z</time>
      </trkpt>
      <trkpt lat="41.8876930" lon="-2.7634430">
        <ele>1212.9</ele>
        <time>2022-01-30T11:53:18Z</time>
      </trkpt>
      <trkpt lat="41.8877100" lon="-2.7634380">
        <ele>1212.9</ele>
        <time>2022-01-30T11:53:19Z</time>
      </trkpt>
      <trkpt lat="41.8877270" lon="-2.7634350">
        <ele>1214.6</ele>
        <time>2022-01-30T11:53:20Z</time>
      </trkpt>
      <trkpt lat="41.8877400" lon="-2.7634300">
        <ele>1214.6</ele>
        <time>2022-01-30T11:53:21Z</time>
      </trkpt>
      <trkpt lat="41.8877530" lon="-2.7634250">
        <ele>1214.6</ele>
        <time>2022-01-30T11:53:22Z</time>
      </trkpt>
      <trkpt lat="41.8877680" lon="-2.7634270">
        <ele>1214.6</ele>
        <time>2022-01-30T11:53:23Z</time>
      </trkpt>
      <trkpt lat="41.8877820" lon="-2.7634250">
        <ele>1214.6</ele>
        <time>2022-01-30T11:53:24Z</time>
      </trkpt>
      <trkpt lat="41.8877970" lon="-2.7634200">
        <ele>1214.6</ele>
        <time>2022-01-30T11:53:25Z</time>
      </trkpt>
      <trkpt lat="41.8878120" lon="-2.7634150">
        <ele>1214.6</ele>
        <time>2022-01-30T11:53:26Z</time>
      </trkpt>
      <trkpt lat="41.8878270" lon="-2.7634100">
        <ele>1214.6</ele>
        <time>2022-01-30T11:53:27Z</time>
      </trkpt>
      <trkpt lat="41.8878420" lon="-2.7634070">
        <ele>1216.0</ele>
        <time>2022-01-30T11:53:28Z</time>
      </trkpt>
      <trkpt lat="41.8878570" lon="-2.7634000">
        <ele>1215.7</ele>
        <time>2022-01-30T11:53:29Z</time>
      </trkpt>
      <trkpt lat="41.8878720" lon="-2.7633970">
        <ele>1215.7</ele>
        <time>2022-01-30T11:53:30Z</time>
      </trkpt>
      <trkpt lat="41.8878870" lon="-2.7633880">
        <ele>1215.7</ele>
        <time>2022-01-30T11:53:31Z</time>
      </trkpt>
      <trkpt lat="41.8879000" lon="-2.7633830">
        <ele>1215.7</ele>
        <time>2022-01-30T11:53:32Z</time>
      </trkpt>
      <trkpt lat="41.8879120" lon="-2.7633800">
        <ele>1215.7</ele>
        <time>2022-01-30T11:53:33Z</time>
      </trkpt>
      <trkpt lat="41.8879220" lon="-2.7633750">
        <ele>1215.7</ele>
        <time>2022-01-30T11:53:34Z</time>
      </trkpt>
      <trkpt lat="41.8879320" lon="-2.7633750">
        <ele>1215.7</ele>
        <time>2022-01-30T11:53:35Z</time>
      </trkpt>
      <trkpt lat="41.8879450" lon="-2.7633720">
        <ele>1215.7</ele>
        <time>2022-01-30T11:53:36Z</time>
      </trkpt>
      <trkpt lat="41.8879620" lon="-2.7633630">
        <ele>1215.7</ele>
        <time>2022-01-30T11:53:37Z</time>
      </trkpt>
      <trkpt lat="41.8879800" lon="-2.7633500">
        <ele>1216.7</ele>
        <time>2022-01-30T11:53:38Z</time>
      </trkpt>
      <trkpt lat="41.8879980" lon="-2.7633370">
        <ele>1216.7</ele>
        <time>2022-01-30T11:53:39Z</time>
      </trkpt>
      <trkpt lat="41.8880150" lon="-2.7633270">
        <ele>1216.7</ele>
        <time>2022-01-30T11:53:40Z</time>
      </trkpt>
      <trkpt lat="41.8880320" lon="-2.7633180">
        <ele>1216.7</ele>
        <time>2022-01-30T11:53:41Z</time>
      </trkpt>
      <trkpt lat="41.8880500" lon="-2.7633100">
        <ele>1216.7</ele>
        <time>2022-01-30T11:53:42Z</time>
      </trkpt>
      <trkpt lat="41.8880670" lon="-2.7633050">
        <ele>1216.7</ele>
        <time>2022-01-30T11:53:43Z</time>
      </trkpt>
      <trkpt lat="41.8880820" lon="-2.7632930">
        <ele>1216.7</ele>
        <time>2022-01-30T11:53:44Z</time>
      </trkpt>
      <trkpt lat="41.8880950" lon="-2.7632850">
        <ele>1217.8</ele>
        <time>2022-01-30T11:53:45Z</time>
      </trkpt>
      <trkpt lat="41.8881080" lon="-2.7632780">
        <ele>1217.8</ele>
        <time>2022-01-30T11:53:46Z</time>
      </trkpt>
      <trkpt lat="41.8881230" lon="-2.7632730">
        <ele>1217.8</ele>
        <time>2022-01-30T11:53:47Z</time>
      </trkpt>
      <trkpt lat="41.8881380" lon="-2.7632680">
        <ele>1217.8</ele>
        <time>2022-01-30T11:53:48Z</time>
      </trkpt>
      <trkpt lat="41.8881520" lon="-2.7632680">
        <ele>1217.8</ele>
        <time>2022-01-30T11:53:49Z</time>
      </trkpt>
      <trkpt lat="41.8881650" lon="-2.7632700">
        <ele>1217.8</ele>
        <time>2022-01-30T11:53:50Z</time>
      </trkpt>
      <trkpt lat="41.8881750" lon="-2.7632750">
        <ele>1217.8</ele>
        <time>2022-01-30T11:53:51Z</time>
      </trkpt>
      <trkpt lat="41.8881880" lon="-2.7632870">
        <ele>1217.8</ele>
        <time>2022-01-30T11:53:52Z</time>
      </trkpt>
      <trkpt lat="41.8882020" lon="-2.7633000">
        <ele>1217.8</ele>
        <time>2022-01-30T11:53:53Z</time>
      </trkpt>
      <trkpt lat="41.8882150" lon="-2.7633130">
        <ele>1217.8</ele>
        <time>2022-01-30T11:53:54Z</time>
      </trkpt>
      <trkpt lat="41.8882300" lon="-2.7633250">
        <ele>1219.0</ele>
        <time>2022-01-30T11:53:55Z</time>
      </trkpt>
      <trkpt lat="41.8882430" lon="-2.7633420">
        <ele>1219.0</ele>
        <time>2022-01-30T11:53:56Z</time>
      </trkpt>
      <trkpt lat="41.8882600" lon="-2.7633630">
        <ele>1219.0</ele>
        <time>2022-01-30T11:53:57Z</time>
      </trkpt>
      <trkpt lat="41.8882750" lon="-2.7633880">
        <ele>1219.0</ele>
        <time>2022-01-30T11:53:58Z</time>
      </trkpt>
      <trkpt lat="41.8882920" lon="-2.7634100">
        <ele>1219.6</ele>
        <time>2022-01-30T11:53:59Z</time>
      </trkpt>
      <trkpt lat="41.8883130" lon="-2.7634330">
        <ele>1219.6</ele>
        <time>2022-01-30T11:54:00Z</time>
      </trkpt>
      <trkpt lat="41.8883300" lon="-2.7634500">
        <ele>1219.6</ele>
        <time>2022-01-30T11:54:01Z</time>
      </trkpt>
      <trkpt lat="41.8883430" lon="-2.7634650">
        <ele>1219.6</ele>
        <time>2022-01-30T11:54:02Z</time>
      </trkpt>
      <trkpt lat="41.8883530" lon="-2.7634850">
        <ele>1221.0</ele>
        <time>2022-01-30T11:54:03Z</time>
      </trkpt>
      <trkpt lat="41.8883630" lon="-2.7635080">
        <ele>1221.0</ele>
        <time>2022-01-30T11:54:04Z</time>
      </trkpt>
      <trkpt lat="41.8883770" lon="-2.7635270">
        <ele>1221.0</ele>
        <time>2022-01-30T11:54:05Z</time>
      </trkpt>
      <trkpt lat="41.8883880" lon="-2.7635470">
        <ele>1221.0</ele>
        <time>2022-01-30T11:54:06Z</time>
      </trkpt>
      <trkpt lat="41.8884000" lon="-2.7635670">
        <ele>1221.0</ele>
        <time>2022-01-30T11:54:07Z</time>
      </trkpt>
      <trkpt lat="41.8884120" lon="-2.7635830">
        <ele>1221.7</ele>
        <time>2022-01-30T11:54:08Z</time>
      </trkpt>
      <trkpt lat="41.8884250" lon="-2.7636000">
        <ele>1221.7</ele>
        <time>2022-01-30T11:54:09Z</time>
      </trkpt>
      <trkpt lat="41.8884380" lon="-2.7636180">
        <ele>1221.7</ele>
        <time>2022-01-30T11:54:10Z</time>
      </trkpt>
      <trkpt lat="41.8884500" lon="-2.7636400">
        <ele>1221.7</ele>
        <time>2022-01-30T11:54:11Z</time>
      </trkpt>
      <trkpt lat="41.8884620" lon="-2.7636600">
        <ele>1221.7</ele>
        <time>2022-01-30T11:54:12Z</time>
      </trkpt>
      <trkpt lat="41.8884730" lon="-2.7636820">
        <ele>1221.7</ele>
        <time>2022-01-30T11:54:13Z</time>
      </trkpt>
      <trkpt lat="41.8884850" lon="-2.7637020">
        <ele>1222.7</ele>
        <time>2022-01-30T11:54:14Z</time>
      </trkpt>
      <trkpt lat="41.8884950" lon="-2.7637170">
        <ele>1222.7</ele>
        <time>2022-01-30T11:54:15Z</time>
      </trkpt>
      <trkpt lat="41.8885050" lon="-2.7637280">
        <ele>1222.7</ele>
        <time>2022-01-30T11:54:16Z</time>
      </trkpt>
      <trkpt lat="41.8885170" lon="-2.7637380">
        <ele>1222.7</ele>
        <time>2022-01-30T11:54:17Z</time>
      </trkpt>
      <trkpt lat="41.8885300" lon="-2.7637470">
        <ele>1222.7</ele>
        <time>2022-01-30T11:54:18Z</time>
      </trkpt>
      <trkpt lat="41.8885430" lon="-2.7637530">
        <ele>1223.5</ele>
        <time>2022-01-30T11:54:19Z</time>
      </trkpt>
      <trkpt lat="41.8885600" lon="-2.7637600">
        <ele>1223.5</ele>
        <time>2022-01-30T11:54:20Z</time>
      </trkpt>
      <trkpt lat="41.8885770" lon="-2.7637650">
        <ele>1223.5</ele>
        <time>2022-01-30T11:54:21Z</time>
      </trkpt>
      <trkpt lat="41.8885930" lon="-2.7637700">
        <ele>1223.5</ele>
        <time>2022-01-30T11:54:22Z</time>
      </trkpt>
      <trkpt lat="41.8886120" lon="-2.7637720">
        <ele>1224.4</ele>
        <time>2022-01-30T11:54:23Z</time>
      </trkpt>
      <trkpt lat="41.8886280" lon="-2.7637680">
        <ele>1224.4</ele>
        <time>2022-01-30T11:54:24Z</time>
      </trkpt>
      <trkpt lat="41.8886430" lon="-2.7637630">
        <ele>1224.4</ele>
        <time>2022-01-30T11:54:25Z</time>
      </trkpt>
      <trkpt lat="41.8886570" lon="-2.7637570">
        <ele>1224.4</ele>
        <time>2022-01-30T11:54:26Z</time>
      </trkpt>
      <trkpt lat="41.8886670" lon="-2.7637500">
        <ele>1224.5</ele>
        <time>2022-01-30T11:54:27Z</time>
      </trkpt>
      <trkpt lat="41.8886750" lon="-2.7637420">
        <ele>1224.5</ele>
        <time>2022-01-30T11:54:28Z</time>
      </trkpt>
      <trkpt lat="41.8886830" lon="-2.7637330">
        <ele>1224.6</ele>
        <time>2022-01-30T11:54:29Z</time>
      </trkpt>
      <trkpt lat="41.8886920" lon="-2.7637230">
        <ele>1224.6</ele>
        <time>2022-01-30T11:54:30Z</time>
      </trkpt>
      <trkpt lat="41.8887000" lon="-2.7637130">
        <ele>1224.6</ele>
        <time>2022-01-30T11:54:31Z</time>
      </trkpt>
      <trkpt lat="41.8887120" lon="-2.7637030">
        <ele>1224.7</ele>
        <time>2022-01-30T11:54:32Z</time>
      </trkpt>
      <trkpt lat="41.8887230" lon="-2.7636920">
        <ele>1224.8</ele>
        <time>2022-01-30T11:54:33Z</time>
      </trkpt>
      <trkpt lat="41.8887350" lon="-2.7636770">
        <ele>1224.8</ele>
        <time>2022-01-30T11:54:34Z</time>
      </trkpt>
      <trkpt lat="41.8887470" lon="-2.7636620">
        <ele>1224.9</ele>
        <time>2022-01-30T11:54:35Z</time>
      </trkpt>
      <trkpt lat="41.8887600" lon="-2.7636470">
        <ele>1225.0</ele>
        <time>2022-01-30T11:54:36Z</time>
      </trkpt>
      <trkpt lat="41.8887680" lon="-2.7636320">
        <ele>1225.0</ele>
        <time>2022-01-30T11:54:37Z</time>
      </trkpt>
      <trkpt lat="41.8887800" lon="-2.7636170">
        <ele>1225.1</ele>
        <time>2022-01-30T11:54:38Z</time>
      </trkpt>
      <trkpt lat="41.8887900" lon="-2.7636030">
        <ele>1225.1</ele>
        <time>2022-01-30T11:54:39Z</time>
      </trkpt>
      <trkpt lat="41.8888020" lon="-2.7635850">
        <ele>1225.2</ele>
        <time>2022-01-30T11:54:40Z</time>
      </trkpt>
      <trkpt lat="41.8888130" lon="-2.7635680">
        <ele>1225.3</ele>
        <time>2022-01-30T11:54:41Z</time>
      </trkpt>
      <trkpt lat="41.8888250" lon="-2.7635530">
        <ele>1225.3</ele>
        <time>2022-01-30T11:54:42Z</time>
      </trkpt>
      <trkpt lat="41.8888370" lon="-2.7635380">
        <ele>1225.4</ele>
        <time>2022-01-30T11:54:43Z</time>
      </trkpt>
      <trkpt lat="41.8888480" lon="-2.7635230">
        <ele>1225.5</ele>
        <time>2022-01-30T11:54:44Z</time>
      </trkpt>
      <trkpt lat="41.8888600" lon="-2.7635050">
        <ele>1225.5</ele>
        <time>2022-01-30T11:54:45Z</time>
      </trkpt>
      <trkpt lat="41.8888730" lon="-2.7634880">
        <ele>1225.6</ele>
        <time>2022-01-30T11:54:46Z</time>
      </trkpt>
      <trkpt lat="41.8888850" lon="-2.7634700">
        <ele>1225.7</ele>
        <time>2022-01-30T11:54:47Z</time>
      </trkpt>
      <trkpt lat="41.8888980" lon="-2.7634500">
        <ele>1225.8</ele>
        <time>2022-01-30T11:54:48Z</time>
      </trkpt>
      <trkpt lat="41.8889100" lon="-2.7634300">
        <ele>1225.8</ele>
        <time>2022-01-30T11:54:49Z</time>
      </trkpt>
      <trkpt lat="41.8889220" lon="-2.7634080">
        <ele>1225.9</ele>
        <time>2022-01-30T11:54:50Z</time>
      </trkpt>
      <trkpt lat="41.8889330" lon="-2.7633870">
        <ele>1225.9</ele>
        <time>2022-01-30T11:54:51Z</time>
      </trkpt>
      <trkpt lat="41.8889450" lon="-2.7633650">
        <ele>1226.0</ele>
        <time>2022-01-30T11:54:52Z</time>
      </trkpt>
      <trkpt lat="41.8889600" lon="-2.7633450">
        <ele>1226.0</ele>
        <time>2022-01-30T11:54:53Z</time>
      </trkpt>
      <trkpt lat="41.8889700" lon="-2.7633200">
        <ele>1226.1</ele>
        <time>2022-01-30T11:54:54Z</time>
      </trkpt>
      <trkpt lat="41.8889820" lon="-2.7632980">
        <ele>1226.1</ele>
        <time>2022-01-30T11:54:55Z</time>
      </trkpt>
      <trkpt lat="41.8889970" lon="-2.7632750">
        <ele>1226.1</ele>
        <time>2022-01-30T11:54:56Z</time>
      </trkpt>
      <trkpt lat="41.8890120" lon="-2.7632480">
        <ele>1226.1</ele>
        <time>2022-01-30T11:54:57Z</time>
      </trkpt>
      <trkpt lat="41.8890250" lon="-2.7632200">
        <ele>1226.1</ele>
        <time>2022-01-30T11:54:58Z</time>
      </trkpt>
      <trkpt lat="41.8890400" lon="-2.7631930">
        <ele>1226.2</ele>
        <time>2022-01-30T11:54:59Z</time>
      </trkpt>
      <trkpt lat="41.8890570" lon="-2.7631630">
        <ele>1226.2</ele>
        <time>2022-01-30T11:55:00Z</time>
      </trkpt>
      <trkpt lat="41.8890750" lon="-2.7631350">
        <ele>1226.2</ele>
        <time>2022-01-30T11:55:01Z</time>
      </trkpt>
      <trkpt lat="41.8890920" lon="-2.7631100">
        <ele>1226.2</ele>
        <time>2022-01-30T11:55:02Z</time>
      </trkpt>
      <trkpt lat="41.8891100" lon="-2.7630900">
        <ele>1226.3</ele>
        <time>2022-01-30T11:55:03Z</time>
      </trkpt>
      <trkpt lat="41.8891270" lon="-2.7630680">
        <ele>1226.3</ele>
        <time>2022-01-30T11:55:04Z</time>
      </trkpt>
      <trkpt lat="41.8891420" lon="-2.7630470">
        <ele>1226.3</ele>
        <time>2022-01-30T11:55:05Z</time>
      </trkpt>
      <trkpt lat="41.8891580" lon="-2.7630220">
        <ele>1226.3</ele>
        <time>2022-01-30T11:55:06Z</time>
      </trkpt>
      <trkpt lat="41.8891780" lon="-2.7629980">
        <ele>1226.4</ele>
        <time>2022-01-30T11:55:07Z</time>
      </trkpt>
      <trkpt lat="41.8891980" lon="-2.7629720">
        <ele>1226.4</ele>
        <time>2022-01-30T11:55:08Z</time>
      </trkpt>
      <trkpt lat="41.8892180" lon="-2.7629480">
        <ele>1226.4</ele>
        <time>2022-01-30T11:55:09Z</time>
      </trkpt>
      <trkpt lat="41.8892380" lon="-2.7629220">
        <ele>1226.5</ele>
        <time>2022-01-30T11:55:10Z</time>
      </trkpt>
      <trkpt lat="41.8892620" lon="-2.7628970">
        <ele>1226.5</ele>
        <time>2022-01-30T11:55:11Z</time>
      </trkpt>
      <trkpt lat="41.8892830" lon="-2.7628680">
        <ele>1226.5</ele>
        <time>2022-01-30T11:55:12Z</time>
      </trkpt>
      <trkpt lat="41.8893070" lon="-2.7628420">
        <ele>1226.6</ele>
        <time>2022-01-30T11:55:13Z</time>
      </trkpt>
      <trkpt lat="41.8893280" lon="-2.7628100">
        <ele>1226.6</ele>
        <time>2022-01-30T11:55:14Z</time>
      </trkpt>
      <trkpt lat="41.8893480" lon="-2.7627820">
        <ele>1226.6</ele>
        <time>2022-01-30T11:55:15Z</time>
      </trkpt>
      <trkpt lat="41.8893680" lon="-2.7627520">
        <ele>1226.7</ele>
        <time>2022-01-30T11:55:16Z</time>
      </trkpt>
      <trkpt lat="41.8893900" lon="-2.7627220">
        <ele>1226.7</ele>
        <time>2022-01-30T11:55:17Z</time>
      </trkpt>
      <trkpt lat="41.8894100" lon="-2.7626880">
        <ele>1226.8</ele>
        <time>2022-01-30T11:55:18Z</time>
      </trkpt>
      <trkpt lat="41.8894300" lon="-2.7626570">
        <ele>1226.9</ele>
        <time>2022-01-30T11:55:19Z</time>
      </trkpt>
      <trkpt lat="41.8894480" lon="-2.7626230">
        <ele>1226.9</ele>
        <time>2022-01-30T11:55:20Z</time>
      </trkpt>
      <trkpt lat="41.8894630" lon="-2.7625870">
        <ele>1227.0</ele>
        <time>2022-01-30T11:55:21Z</time>
      </trkpt>
      <trkpt lat="41.8894770" lon="-2.7625470">
        <ele>1227.1</ele>
        <time>2022-01-30T11:55:22Z</time>
      </trkpt>
      <trkpt lat="41.8894870" lon="-2.7625070">
        <ele>1227.1</ele>
        <time>2022-01-30T11:55:23Z</time>
      </trkpt>
      <trkpt lat="41.8894970" lon="-2.7624670">
        <ele>1227.2</ele>
        <time>2022-01-30T11:55:24Z</time>
      </trkpt>
      <trkpt lat="41.8895050" lon="-2.7624230">
        <ele>1227.3</ele>
        <time>2022-01-30T11:55:25Z</time>
      </trkpt>
      <trkpt lat="41.8895120" lon="-2.7623820">
        <ele>1227.3</ele>
        <time>2022-01-30T11:55:26Z</time>
      </trkpt>
      <trkpt lat="41.8895180" lon="-2.7623380">
        <ele>1227.4</ele>
        <time>2022-01-30T11:55:27Z</time>
      </trkpt>
      <trkpt lat="41.8895220" lon="-2.7622930">
        <ele>1227.4</ele>
        <time>2022-01-30T11:55:28Z</time>
      </trkpt>
      <trkpt lat="41.8895230" lon="-2.7622500">
        <ele>1227.5</ele>
        <time>2022-01-30T11:55:29Z</time>
      </trkpt>
      <trkpt lat="41.8895250" lon="-2.7622070">
        <ele>1227.6</ele>
        <time>2022-01-30T11:55:30Z</time>
      </trkpt>
      <trkpt lat="41.8895270" lon="-2.7621650">
        <ele>1227.7</ele>
        <time>2022-01-30T11:55:31Z</time>
      </trkpt>
      <trkpt lat="41.8895270" lon="-2.7621220">
        <ele>1227.9</ele>
        <time>2022-01-30T11:55:32Z</time>
      </trkpt>
      <trkpt lat="41.8895270" lon="-2.7620800">
        <ele>1228.0</ele>
        <time>2022-01-30T11:55:33Z</time>
      </trkpt>
      <trkpt lat="41.8895270" lon="-2.7620370">
        <ele>1228.1</ele>
        <time>2022-01-30T11:55:34Z</time>
      </trkpt>
      <trkpt lat="41.8895270" lon="-2.7619920">
        <ele>1228.2</ele>
        <time>2022-01-30T11:55:35Z</time>
      </trkpt>
      <trkpt lat="41.8895270" lon="-2.7619470">
        <ele>1228.4</ele>
        <time>2022-01-30T11:55:36Z</time>
      </trkpt>
      <trkpt lat="41.8895280" lon="-2.7619030">
        <ele>1228.5</ele>
        <time>2022-01-30T11:55:37Z</time>
      </trkpt>
      <trkpt lat="41.8895300" lon="-2.7618620">
        <ele>1228.6</ele>
        <time>2022-01-30T11:55:38Z</time>
      </trkpt>
      <trkpt lat="41.8895350" lon="-2.7618200">
        <ele>1228.6</ele>
        <time>2022-01-30T11:55:39Z</time>
      </trkpt>
      <trkpt lat="41.8895430" lon="-2.7617780">
        <ele>1228.7</ele>
        <time>2022-01-30T11:55:40Z</time>
      </trkpt>
      <trkpt lat="41.8895530" lon="-2.7617380">
        <ele>1228.8</ele>
        <time>2022-01-30T11:55:41Z</time>
      </trkpt>
      <trkpt lat="41.8895650" lon="-2.7616950">
        <ele>1228.8</ele>
        <time>2022-01-30T11:55:42Z</time>
      </trkpt>
      <trkpt lat="41.8895800" lon="-2.7616530">
        <ele>1228.9</ele>
        <time>2022-01-30T11:55:43Z</time>
      </trkpt>
      <trkpt lat="41.8895950" lon="-2.7616120">
        <ele>1229.0</ele>
        <time>2022-01-30T11:55:44Z</time>
      </trkpt>
      <trkpt lat="41.8896130" lon="-2.7615700">
        <ele>1229.0</ele>
        <time>2022-01-30T11:55:45Z</time>
      </trkpt>
      <trkpt lat="41.8896350" lon="-2.7615320">
        <ele>1229.1</ele>
        <time>2022-01-30T11:55:46Z</time>
      </trkpt>
      <trkpt lat="41.8896580" lon="-2.7614950">
        <ele>1229.2</ele>
        <time>2022-01-30T11:55:47Z</time>
      </trkpt>
      <trkpt lat="41.8896850" lon="-2.7614580">
        <ele>1229.2</ele>
        <time>2022-01-30T11:55:48Z</time>
      </trkpt>
      <trkpt lat="41.8897100" lon="-2.7614270">
        <ele>1229.3</ele>
        <time>2022-01-30T11:55:49Z</time>
      </trkpt>
      <trkpt lat="41.8897350" lon="-2.7613920">
        <ele>1229.3</ele>
        <time>2022-01-30T11:55:50Z</time>
      </trkpt>
      <trkpt lat="41.8897600" lon="-2.7613580">
        <ele>1229.4</ele>
        <time>2022-01-30T11:55:51Z</time>
      </trkpt>
      <trkpt lat="41.8897850" lon="-2.7613270">
        <ele>1229.5</ele>
        <time>2022-01-30T11:55:52Z</time>
      </trkpt>
      <trkpt lat="41.8898100" lon="-2.7612950">
        <ele>1229.5</ele>
        <time>2022-01-30T11:55:53Z</time>
      </trkpt>
      <trkpt lat="41.8898320" lon="-2.7612620">
        <ele>1229.5</ele>
        <time>2022-01-30T11:55:54Z</time>
      </trkpt>
      <trkpt lat="41.8898550" lon="-2.7612250">
        <ele>1229.6</ele>
        <time>2022-01-30T11:55:55Z</time>
      </trkpt>
      <trkpt lat="41.8898770" lon="-2.7611870">
        <ele>1229.6</ele>
        <time>2022-01-30T11:55:56Z</time>
      </trkpt>
      <trkpt lat="41.8898970" lon="-2.7611470">
        <ele>1229.6</ele>
        <time>2022-01-30T11:55:57Z</time>
      </trkpt>
      <trkpt lat="41.8899130" lon="-2.7611050">
        <ele>1229.7</ele>
        <time>2022-01-30T11:55:58Z</time>
      </trkpt>
      <trkpt lat="41.8899280" lon="-2.7610630">
        <ele>1229.7</ele>
        <time>2022-01-30T11:55:59Z</time>
      </trkpt>
      <trkpt lat="41.8899420" lon="-2.7610180">
        <ele>1229.8</ele>
        <time>2022-01-30T11:56:00Z</time>
      </trkpt>
      <trkpt lat="41.8899520" lon="-2.7609720">
        <ele>1229.8</ele>
        <time>2022-01-30T11:56:01Z</time>
      </trkpt>
      <trkpt lat="41.8899630" lon="-2.7609250">
        <ele>1229.9</ele>
        <time>2022-01-30T11:56:02Z</time>
      </trkpt>
      <trkpt lat="41.8899720" lon="-2.7608780">
        <ele>1230.0</ele>
        <time>2022-01-30T11:56:03Z</time>
      </trkpt>
      <trkpt lat="41.8899800" lon="-2.7608330">
        <ele>1230.0</ele>
        <time>2022-01-30T11:56:04Z</time>
      </trkpt>
      <trkpt lat="41.8899830" lon="-2.7607830">
        <ele>1230.1</ele>
        <time>2022-01-30T11:56:05Z</time>
      </trkpt>
      <trkpt lat="41.8899880" lon="-2.7607370">
        <ele>1230.2</ele>
        <time>2022-01-30T11:56:06Z</time>
      </trkpt>
      <trkpt lat="41.8899950" lon="-2.7606920">
        <ele>1230.3</ele>
        <time>2022-01-30T11:56:07Z</time>
      </trkpt>
      <trkpt lat="41.8899980" lon="-2.7606480">
        <ele>1230.4</ele>
        <time>2022-01-30T11:56:08Z</time>
      </trkpt>
      <trkpt lat="41.8900030" lon="-2.7606070">
        <ele>1230.5</ele>
        <time>2022-01-30T11:56:09Z</time>
      </trkpt>
      <trkpt lat="41.8900080" lon="-2.7605630">
        <ele>1230.7</ele>
        <time>2022-01-30T11:56:10Z</time>
      </trkpt>
      <trkpt lat="41.8900120" lon="-2.7605220">
        <ele>1230.9</ele>
        <time>2022-01-30T11:56:11Z</time>
      </trkpt>
      <trkpt lat="41.8900170" lon="-2.7604800">
        <ele>1231.1</ele>
        <time>2022-01-30T11:56:12Z</time>
      </trkpt>
      <trkpt lat="41.8900180" lon="-2.7604370">
        <ele>1231.4</ele>
        <time>2022-01-30T11:56:13Z</time>
      </trkpt>
      <trkpt lat="41.8900230" lon="-2.7603930">
        <ele>1231.6</ele>
        <time>2022-01-30T11:56:14Z</time>
      </trkpt>
      <trkpt lat="41.8900270" lon="-2.7603480">
        <ele>1231.8</ele>
        <time>2022-01-30T11:56:15Z</time>
      </trkpt>
      <trkpt lat="41.8900280" lon="-2.7603070">
        <ele>1232.0</ele>
        <time>2022-01-30T11:56:16Z</time>
      </trkpt>
      <trkpt lat="41.8900300" lon="-2.7602670">
        <ele>1232.2</ele>
        <time>2022-01-30T11:56:17Z</time>
      </trkpt>
      <trkpt lat="41.8900300" lon="-2.7602300">
        <ele>1232.4</ele>
        <time>2022-01-30T11:56:18Z</time>
      </trkpt>
      <trkpt lat="41.8900320" lon="-2.7601900">
        <ele>1232.6</ele>
        <time>2022-01-30T11:56:19Z</time>
      </trkpt>
      <trkpt lat="41.8900320" lon="-2.7601480">
        <ele>1232.8</ele>
        <time>2022-01-30T11:56:20Z</time>
      </trkpt>
      <trkpt lat="41.8900320" lon="-2.7601080">
        <ele>1232.9</ele>
        <time>2022-01-30T11:56:21Z</time>
      </trkpt>
      <trkpt lat="41.8900300" lon="-2.7600650">
        <ele>1233.1</ele>
        <time>2022-01-30T11:56:22Z</time>
      </trkpt>
      <trkpt lat="41.8900300" lon="-2.7600200">
        <ele>1233.3</ele>
        <time>2022-01-30T11:56:23Z</time>
      </trkpt>
      <trkpt lat="41.8900300" lon="-2.7599770">
        <ele>1233.4</ele>
        <time>2022-01-30T11:56:24Z</time>
      </trkpt>
      <trkpt lat="41.8900280" lon="-2.7599330">
        <ele>1233.5</ele>
        <time>2022-01-30T11:56:25Z</time>
      </trkpt>
      <trkpt lat="41.8900280" lon="-2.7598880">
        <ele>1233.7</ele>
        <time>2022-01-30T11:56:26Z</time>
      </trkpt>
      <trkpt lat="41.8900270" lon="-2.7598450">
        <ele>1233.8</ele>
        <time>2022-01-30T11:56:27Z</time>
      </trkpt>
      <trkpt lat="41.8900280" lon="-2.7598000">
        <ele>1233.8</ele>
        <time>2022-01-30T11:56:28Z</time>
      </trkpt>
      <trkpt lat="41.8900270" lon="-2.7597580">
        <ele>1233.9</ele>
        <time>2022-01-30T11:56:29Z</time>
      </trkpt>
      <trkpt lat="41.8900270" lon="-2.7597150">
        <ele>1234.0</ele>
        <time>2022-01-30T11:56:30Z</time>
      </trkpt>
      <trkpt lat="41.8900280" lon="-2.7596730">
        <ele>1234.1</ele>
        <time>2022-01-30T11:56:31Z</time>
      </trkpt>
      <trkpt lat="41.8900320" lon="-2.7596300">
        <ele>1234.1</ele>
        <time>2022-01-30T11:56:32Z</time>
      </trkpt>
      <trkpt lat="41.8900320" lon="-2.7595830">
        <ele>1234.2</ele>
        <time>2022-01-30T11:56:33Z</time>
      </trkpt>
      <trkpt lat="41.8900320" lon="-2.7595370">
        <ele>1234.2</ele>
        <time>2022-01-30T11:56:34Z</time>
      </trkpt>
      <trkpt lat="41.8900370" lon="-2.7594850">
        <ele>1234.2</ele>
        <time>2022-01-30T11:56:35Z</time>
      </trkpt>
      <trkpt lat="41.8900400" lon="-2.7594300">
        <ele>1234.2</ele>
        <time>2022-01-30T11:56:36Z</time>
      </trkpt>
      <trkpt lat="41.8900450" lon="-2.7593770">
        <ele>1234.1</ele>
        <time>2022-01-30T11:56:37Z</time>
      </trkpt>
      <trkpt lat="41.8900520" lon="-2.7593230">
        <ele>1234.1</ele>
        <time>2022-01-30T11:56:38Z</time>
      </trkpt>
      <trkpt lat="41.8900570" lon="-2.7592680">
        <ele>1234.0</ele>
        <time>2022-01-30T11:56:39Z</time>
      </trkpt>
      <trkpt lat="41.8900670" lon="-2.7592130">
        <ele>1234.0</ele>
        <time>2022-01-30T11:56:40Z</time>
      </trkpt>
      <trkpt lat="41.8900750" lon="-2.7591600">
        <ele>1233.9</ele>
        <time>2022-01-30T11:56:41Z</time>
      </trkpt>
      <trkpt lat="41.8900850" lon="-2.7591050">
        <ele>1233.8</ele>
        <time>2022-01-30T11:56:42Z</time>
      </trkpt>
      <trkpt lat="41.8900970" lon="-2.7590520">
        <ele>1233.7</ele>
        <time>2022-01-30T11:56:43Z</time>
      </trkpt>
      <trkpt lat="41.8901120" lon="-2.7590030">
        <ele>1233.6</ele>
        <time>2022-01-30T11:56:44Z</time>
      </trkpt>
      <trkpt lat="41.8901300" lon="-2.7589550">
        <ele>1233.6</ele>
        <time>2022-01-30T11:56:45Z</time>
      </trkpt>
      <trkpt lat="41.8901470" lon="-2.7589030">
        <ele>1233.5</ele>
        <time>2022-01-30T11:56:46Z</time>
      </trkpt>
      <trkpt lat="41.8901650" lon="-2.7588520">
        <ele>1233.4</ele>
        <time>2022-01-30T11:56:47Z</time>
      </trkpt>
      <trkpt lat="41.8901830" lon="-2.7587950">
        <ele>1233.4</ele>
        <time>2022-01-30T11:56:48Z</time>
      </trkpt>
      <trkpt lat="41.8902020" lon="-2.7587420">
        <ele>1233.4</ele>
        <time>2022-01-30T11:56:49Z</time>
      </trkpt>
      <trkpt lat="41.8902220" lon="-2.7586870">
        <ele>1233.3</ele>
        <time>2022-01-30T11:56:50Z</time>
      </trkpt>
      <trkpt lat="41.8902400" lon="-2.7586320">
        <ele>1233.3</ele>
        <time>2022-01-30T11:56:51Z</time>
      </trkpt>
      <trkpt lat="41.8902580" lon="-2.7585730">
        <ele>1233.2</ele>
        <time>2022-01-30T11:56:52Z</time>
      </trkpt>
      <trkpt lat="41.8902750" lon="-2.7585170">
        <ele>1233.2</ele>
        <time>2022-01-30T11:56:53Z</time>
      </trkpt>
      <trkpt lat="41.8902920" lon="-2.7584600">
        <ele>1233.2</ele>
        <time>2022-01-30T11:56:54Z</time>
      </trkpt>
      <trkpt lat="41.8903100" lon="-2.7584050">
        <ele>1233.2</ele>
        <time>2022-01-30T11:56:55Z</time>
      </trkpt>
      <trkpt lat="41.8903250" lon="-2.7583500">
        <ele>1233.2</ele>
        <time>2022-01-30T11:56:56Z</time>
      </trkpt>
      <trkpt lat="41.8903400" lon="-2.7582970">
        <ele>1233.3</ele>
        <time>2022-01-30T11:56:57Z</time>
      </trkpt>
      <trkpt lat="41.8903550" lon="-2.7582420">
        <ele>1233.3</ele>
        <time>2022-01-30T11:56:58Z</time>
      </trkpt>
      <trkpt lat="41.8903680" lon="-2.7581830">
        <ele>1233.4</ele>
        <time>2022-01-30T11:56:59Z</time>
      </trkpt>
      <trkpt lat="41.8903830" lon="-2.7581250">
        <ele>1233.4</ele>
        <time>2022-01-30T11:57:00Z</time>
      </trkpt>
      <trkpt lat="41.8903970" lon="-2.7580670">
        <ele>1233.5</ele>
        <time>2022-01-30T11:57:01Z</time>
      </trkpt>
      <trkpt lat="41.8904100" lon="-2.7580070">
        <ele>1233.6</ele>
        <time>2022-01-30T11:57:02Z</time>
      </trkpt>
      <trkpt lat="41.8904220" lon="-2.7579480">
        <ele>1233.7</ele>
        <time>2022-01-30T11:57:03Z</time>
      </trkpt>
      <trkpt lat="41.8904320" lon="-2.7578920">
        <ele>1233.8</ele>
        <time>2022-01-30T11:57:04Z</time>
      </trkpt>
      <trkpt lat="41.8904430" lon="-2.7578350">
        <ele>1233.9</ele>
        <time>2022-01-30T11:57:05Z</time>
      </trkpt>
      <trkpt lat="41.8904530" lon="-2.7577780">
        <ele>1234.1</ele>
        <time>2022-01-30T11:57:06Z</time>
      </trkpt>
      <trkpt lat="41.8904620" lon="-2.7577250">
        <ele>1234.3</ele>
        <time>2022-01-30T11:57:07Z</time>
      </trkpt>
      <trkpt lat="41.8904700" lon="-2.7576720">
        <ele>1234.5</ele>
        <time>2022-01-30T11:57:08Z</time>
      </trkpt>
      <trkpt lat="41.8904800" lon="-2.7576200">
        <ele>1234.7</ele>
        <time>2022-01-30T11:57:09Z</time>
      </trkpt>
      <trkpt lat="41.8904880" lon="-2.7575730">
        <ele>1234.9</ele>
        <time>2022-01-30T11:57:10Z</time>
      </trkpt>
      <trkpt lat="41.8904950" lon="-2.7575270">
        <ele>1235.1</ele>
        <time>2022-01-30T11:57:11Z</time>
      </trkpt>
      <trkpt lat="41.8904980" lon="-2.7574820">
        <ele>1235.3</ele>
        <time>2022-01-30T11:57:12Z</time>
      </trkpt>
      <trkpt lat="41.8904930" lon="-2.7574350">
        <ele>1235.5</ele>
        <time>2022-01-30T11:57:13Z</time>
      </trkpt>
      <trkpt lat="41.8904730" lon="-2.7573950">
        <ele>1235.7</ele>
        <time>2022-01-30T11:57:14Z</time>
      </trkpt>
      <trkpt lat="41.8904450" lon="-2.7573680">
        <ele>1235.7</ele>
        <time>2022-01-30T11:57:15Z</time>
      </trkpt>
      <trkpt lat="41.8904080" lon="-2.7573520">
        <ele>1235.7</ele>
        <time>2022-01-30T11:57:16Z</time>
      </trkpt>
      <trkpt lat="41.8903680" lon="-2.7573370">
        <ele>1236.2</ele>
        <time>2022-01-30T11:57:17Z</time>
      </trkpt>
      <trkpt lat="41.8903300" lon="-2.7573120">
        <ele>1236.2</ele>
        <time>2022-01-30T11:57:18Z</time>
      </trkpt>
      <trkpt lat="41.8902950" lon="-2.7572830">
        <ele>1236.2</ele>
        <time>2022-01-30T11:57:19Z</time>
      </trkpt>
      <trkpt lat="41.8902620" lon="-2.7572520">
        <ele>1236.7</ele>
        <time>2022-01-30T11:57:20Z</time>
      </trkpt>
      <trkpt lat="41.8902300" lon="-2.7572200">
        <ele>1237.4</ele>
        <time>2022-01-30T11:57:21Z</time>
      </trkpt>
      <trkpt lat="41.8901950" lon="-2.7571920">
        <ele>1237.4</ele>
        <time>2022-01-30T11:57:22Z</time>
      </trkpt>
      <trkpt lat="41.8901580" lon="-2.7571680">
        <ele>1237.4</ele>
        <time>2022-01-30T11:57:23Z</time>
      </trkpt>
      <trkpt lat="41.8901180" lon="-2.7571480">
        <ele>1237.4</ele>
        <time>2022-01-30T11:57:24Z</time>
      </trkpt>
      <trkpt lat="41.8900750" lon="-2.7571320">
        <ele>1237.4</ele>
        <time>2022-01-30T11:57:25Z</time>
      </trkpt>
      <trkpt lat="41.8900300" lon="-2.7571080">
        <ele>1237.4</ele>
        <time>2022-01-30T11:57:26Z</time>
      </trkpt>
      <trkpt lat="41.8899850" lon="-2.7570800">
        <ele>1236.8</ele>
        <time>2022-01-30T11:57:27Z</time>
      </trkpt>
      <trkpt lat="41.8899420" lon="-2.7570480">
        <ele>1236.6</ele>
        <time>2022-01-30T11:57:28Z</time>
      </trkpt>
      <trkpt lat="41.8898980" lon="-2.7570120">
        <ele>1236.6</ele>
        <time>2022-01-30T11:57:29Z</time>
      </trkpt>
      <trkpt lat="41.8898530" lon="-2.7569750">
        <ele>1235.4</ele>
        <time>2022-01-30T11:57:30Z</time>
      </trkpt>
      <trkpt lat="41.8898050" lon="-2.7569370">
        <ele>1235.4</ele>
        <time>2022-01-30T11:57:31Z</time>
      </trkpt>
      <trkpt lat="41.8897530" lon="-2.7569020">
        <ele>1233.8</ele>
        <time>2022-01-30T11:57:32Z</time>
      </trkpt>
      <trkpt lat="41.8897020" lon="-2.7568700">
        <ele>1233.7</ele>
        <time>2022-01-30T11:57:33Z</time>
      </trkpt>
      <trkpt lat="41.8896470" lon="-2.7568400">
        <ele>1233.7</ele>
        <time>2022-01-30T11:57:34Z</time>
      </trkpt>
      <trkpt lat="41.8895900" lon="-2.7568050">
        <ele>1232.6</ele>
        <time>2022-01-30T11:57:35Z</time>
      </trkpt>
      <trkpt lat="41.8895420" lon="-2.7567650">
        <ele>1232.6</ele>
        <time>2022-01-30T11:57:36Z</time>
      </trkpt>
      <trkpt lat="41.8895020" lon="-2.7567080">
        <ele>1232.8</ele>
        <time>2022-01-30T11:57:37Z</time>
      </trkpt>
      <trkpt lat="41.8894730" lon="-2.7566430">
        <ele>1231.7</ele>
        <time>2022-01-30T11:57:38Z</time>
      </trkpt>
      <trkpt lat="41.8894320" lon="-2.7565450">
        <ele>1231.7</ele>
        <time>2022-01-30T11:57:39Z</time>
      </trkpt>
      <trkpt lat="41.8894050" lon="-2.7564600">
        <ele>1231.9</ele>
        <time>2022-01-30T11:57:40Z</time>
      </trkpt>
      <trkpt lat="41.8893680" lon="-2.7563570">
        <ele>1230.1</ele>
        <time>2022-01-30T11:57:41Z</time>
      </trkpt>
      <trkpt lat="41.8893330" lon="-2.7562630">
        <ele>1230.1</ele>
        <time>2022-01-30T11:57:42Z</time>
      </trkpt>
      <trkpt lat="41.8893020" lon="-2.7561600">
        <ele>1230.1</ele>
        <time>2022-01-30T11:57:43Z</time>
      </trkpt>
      <trkpt lat="41.8892720" lon="-2.7560620">
        <ele>1230.1</ele>
        <time>2022-01-30T11:57:44Z</time>
      </trkpt>
      <trkpt lat="41.8892380" lon="-2.7559600">
        <ele>1228.3</ele>
        <time>2022-01-30T11:57:45Z</time>
      </trkpt>
      <trkpt lat="41.8892070" lon="-2.7558520">
        <ele>1228.3</ele>
        <time>2022-01-30T11:57:46Z</time>
      </trkpt>
      <trkpt lat="41.8891770" lon="-2.7557470">
        <ele>1228.6</ele>
        <time>2022-01-30T11:57:47Z</time>
      </trkpt>
      <trkpt lat="41.8891430" lon="-2.7556330">
        <ele>1229.0</ele>
        <time>2022-01-30T11:57:48Z</time>
      </trkpt>
      <trkpt lat="41.8891230" lon="-2.7555150">
        <ele>1229.0</ele>
        <time>2022-01-30T11:57:49Z</time>
      </trkpt>
      <trkpt lat="41.8891030" lon="-2.7554000">
        <ele>1226.8</ele>
        <time>2022-01-30T11:57:50Z</time>
      </trkpt>
      <trkpt lat="41.8890800" lon="-2.7552900">
        <ele>1226.9</ele>
        <time>2022-01-30T11:57:51Z</time>
      </trkpt>
      <trkpt lat="41.8890600" lon="-2.7551730">
        <ele>1226.9</ele>
        <time>2022-01-30T11:57:52Z</time>
      </trkpt>
      <trkpt lat="41.8890480" lon="-2.7550550">
        <ele>1227.1</ele>
        <time>2022-01-30T11:57:53Z</time>
      </trkpt>
      <trkpt lat="41.8890300" lon="-2.7549400">
        <ele>1227.4</ele>
        <time>2022-01-30T11:57:54Z</time>
      </trkpt>
      <trkpt lat="41.8890120" lon="-2.7548120">
        <ele>1227.4</ele>
        <time>2022-01-30T11:57:55Z</time>
      </trkpt>
      <trkpt lat="41.8889980" lon="-2.7546800">
        <ele>1227.4</ele>
        <time>2022-01-30T11:57:56Z</time>
      </trkpt>
      <trkpt lat="41.8889870" lon="-2.7545570">
        <ele>1224.6</ele>
        <time>2022-01-30T11:57:57Z</time>
      </trkpt>
      <trkpt lat="41.8889600" lon="-2.7544400">
        <ele>1224.7</ele>
        <time>2022-01-30T11:57:58Z</time>
      </trkpt>
      <trkpt lat="41.8889270" lon="-2.7543230">
        <ele>1224.7</ele>
        <time>2022-01-30T11:57:59Z</time>
      </trkpt>
      <trkpt lat="41.8888880" lon="-2.7542070">
        <ele>1224.7</ele>
        <time>2022-01-30T11:58:00Z</time>
      </trkpt>
      <trkpt lat="41.8888330" lon="-2.7541030">
        <ele>1221.8</ele>
        <time>2022-01-30T11:58:01Z</time>
      </trkpt>
      <trkpt lat="41.8887900" lon="-2.7540080">
        <ele>1221.8</ele>
        <time>2022-01-30T11:58:02Z</time>
      </trkpt>
      <trkpt lat="41.8887380" lon="-2.7539230">
        <ele>1221.8</ele>
        <time>2022-01-30T11:58:03Z</time>
      </trkpt>
      <trkpt lat="41.8887000" lon="-2.7538480">
        <ele>1218.8</ele>
        <time>2022-01-30T11:58:04Z</time>
      </trkpt>
      <trkpt lat="41.8886730" lon="-2.7537630">
        <ele>1218.8</ele>
        <time>2022-01-30T11:58:05Z</time>
      </trkpt>
      <trkpt lat="41.8886450" lon="-2.7536920">
        <ele>1218.8</ele>
        <time>2022-01-30T11:58:06Z</time>
      </trkpt>
      <trkpt lat="41.8886150" lon="-2.7536170">
        <ele>1218.8</ele>
        <time>2022-01-30T11:58:07Z</time>
      </trkpt>
      <trkpt lat="41.8885870" lon="-2.7535380">
        <ele>1215.4</ele>
        <time>2022-01-30T11:58:08Z</time>
      </trkpt>
      <trkpt lat="41.8885550" lon="-2.7534650">
        <ele>1215.4</ele>
        <time>2022-01-30T11:58:09Z</time>
      </trkpt>
      <trkpt lat="41.8885170" lon="-2.7534020">
        <ele>1215.4</ele>
        <time>2022-01-30T11:58:10Z</time>
      </trkpt>
      <trkpt lat="41.8884750" lon="-2.7533300">
        <ele>1212.7</ele>
        <time>2022-01-30T11:58:11Z</time>
      </trkpt>
      <trkpt lat="41.8884400" lon="-2.7532770">
        <ele>1212.7</ele>
        <time>2022-01-30T11:58:12Z</time>
      </trkpt>
      <trkpt lat="41.8883880" lon="-2.7532120">
        <ele>1212.7</ele>
        <time>2022-01-30T11:58:13Z</time>
      </trkpt>
      <trkpt lat="41.8883550" lon="-2.7531600">
        <ele>1212.7</ele>
        <time>2022-01-30T11:58:14Z</time>
      </trkpt>
      <trkpt lat="41.8883150" lon="-2.7530850">
        <ele>1210.2</ele>
        <time>2022-01-30T11:58:15Z</time>
      </trkpt>
      <trkpt lat="41.8882750" lon="-2.7530080">
        <ele>1210.2</ele>
        <time>2022-01-30T11:58:16Z</time>
      </trkpt>
      <trkpt lat="41.8882370" lon="-2.7529330">
        <ele>1210.7</ele>
        <time>2022-01-30T11:58:17Z</time>
      </trkpt>
      <trkpt lat="41.8882020" lon="-2.7528470">
        <ele>1208.2</ele>
        <time>2022-01-30T11:58:18Z</time>
      </trkpt>
      <trkpt lat="41.8881580" lon="-2.7527630">
        <ele>1208.2</ele>
        <time>2022-01-30T11:58:19Z</time>
      </trkpt>
      <trkpt lat="41.8881070" lon="-2.7526880">
        <ele>1208.7</ele>
        <time>2022-01-30T11:58:20Z</time>
      </trkpt>
      <trkpt lat="41.8880500" lon="-2.7526150">
        <ele>1205.8</ele>
        <time>2022-01-30T11:58:21Z</time>
      </trkpt>
      <trkpt lat="41.8879830" lon="-2.7525380">
        <ele>1206.2</ele>
        <time>2022-01-30T11:58:22Z</time>
      </trkpt>
      <trkpt lat="41.8879200" lon="-2.7524820">
        <ele>1203.6</ele>
        <time>2022-01-30T11:58:23Z</time>
      </trkpt>
      <trkpt lat="41.8878620" lon="-2.7524350">
        <ele>1203.6</ele>
        <time>2022-01-30T11:58:24Z</time>
      </trkpt>
      <trkpt lat="41.8877980" lon="-2.7523980">
        <ele>1201.7</ele>
        <time>2022-01-30T11:58:25Z</time>
      </trkpt>
      <trkpt lat="41.8877300" lon="-2.7523630">
        <ele>1201.7</ele>
        <time>2022-01-30T11:58:26Z</time>
      </trkpt>
      <trkpt lat="41.8876570" lon="-2.7523250">
        <ele>1199.5</ele>
        <time>2022-01-30T11:58:27Z</time>
      </trkpt>
      <trkpt lat="41.8875820" lon="-2.7523050">
        <ele>1197.4</ele>
        <time>2022-01-30T11:58:28Z</time>
      </trkpt>
      <trkpt lat="41.8875050" lon="-2.7522780">
        <ele>1197.4</ele>
        <time>2022-01-30T11:58:29Z</time>
      </trkpt>
      <trkpt lat="41.8874250" lon="-2.7522430">
        <ele>1195.8</ele>
        <time>2022-01-30T11:58:30Z</time>
      </trkpt>
      <trkpt lat="41.8873450" lon="-2.7522130">
        <ele>1195.8</ele>
        <time>2022-01-30T11:58:31Z</time>
      </trkpt>
      <trkpt lat="41.8872670" lon="-2.7521850">
        <ele>1193.6</ele>
        <time>2022-01-30T11:58:32Z</time>
      </trkpt>
      <trkpt lat="41.8871800" lon="-2.7521550">
        <ele>1191.2</ele>
        <time>2022-01-30T11:58:33Z</time>
      </trkpt>
      <trkpt lat="41.8871150" lon="-2.7521430">
        <ele>1191.2</ele>
        <time>2022-01-30T11:58:34Z</time>
      </trkpt>
      <trkpt lat="41.8870420" lon="-2.7521350">
        <ele>1189.3</ele>
        <time>2022-01-30T11:58:35Z</time>
      </trkpt>
      <trkpt lat="41.8869750" lon="-2.7521000">
        <ele>1189.3</ele>
        <time>2022-01-30T11:58:36Z</time>
      </trkpt>
      <trkpt lat="41.8869130" lon="-2.7520920">
        <ele>1187.4</ele>
        <time>2022-01-30T11:58:37Z</time>
      </trkpt>
      <trkpt lat="41.8868570" lon="-2.7520900">
        <ele>1187.4</ele>
        <time>2022-01-30T11:58:38Z</time>
      </trkpt>
      <trkpt lat="41.8868050" lon="-2.7520920">
        <ele>1185.8</ele>
        <time>2022-01-30T11:58:39Z</time>
      </trkpt>
      <trkpt lat="41.8867500" lon="-2.7520750">
        <ele>1186.4</ele>
        <time>2022-01-30T11:58:40Z</time>
      </trkpt>
      <trkpt lat="41.8867170" lon="-2.7520380">
        <ele>1186.4</ele>
        <time>2022-01-30T11:58:41Z</time>
      </trkpt>
      <trkpt lat="41.8866800" lon="-2.7519900">
        <ele>1184.4</ele>
        <time>2022-01-30T11:58:42Z</time>
      </trkpt>
      <trkpt lat="41.8866470" lon="-2.7519270">
        <ele>1184.4</ele>
        <time>2022-01-30T11:58:43Z</time>
      </trkpt>
      <trkpt lat="41.8866180" lon="-2.7518530">
        <ele>1185.1</ele>
        <time>2022-01-30T11:58:44Z</time>
      </trkpt>
      <trkpt lat="41.8865880" lon="-2.7517730">
        <ele>1185.1</ele>
        <time>2022-01-30T11:58:45Z</time>
      </trkpt>
      <trkpt lat="41.8865730" lon="-2.7516630">
        <ele>1185.7</ele>
        <time>2022-01-30T11:58:46Z</time>
      </trkpt>
      <trkpt lat="41.8865420" lon="-2.7515770">
        <ele>1184.2</ele>
        <time>2022-01-30T11:58:47Z</time>
      </trkpt>
      <trkpt lat="41.8864950" lon="-2.7515100">
        <ele>1184.8</ele>
        <time>2022-01-30T11:58:48Z</time>
      </trkpt>
      <trkpt lat="41.8864520" lon="-2.7514580">
        <ele>1184.8</ele>
        <time>2022-01-30T11:58:49Z</time>
      </trkpt>
      <trkpt lat="41.8864080" lon="-2.7514350">
        <ele>1183.4</ele>
        <time>2022-01-30T11:58:50Z</time>
      </trkpt>
      <trkpt lat="41.8863750" lon="-2.7514600">
        <ele>1183.4</ele>
        <time>2022-01-30T11:58:51Z</time>
      </trkpt>
      <trkpt lat="41.8863620" lon="-2.7514850">
        <ele>1183.4</ele>
        <time>2022-01-30T11:58:52Z</time>
      </trkpt>
      <trkpt lat="41.8863450" lon="-2.7515230">
        <ele>1183.4</ele>
        <time>2022-01-30T11:58:53Z</time>
      </trkpt>
      <trkpt lat="41.8863430" lon="-2.7515800">
        <ele>1182.8</ele>
        <time>2022-01-30T11:58:54Z</time>
      </trkpt>
      <trkpt lat="41.8863520" lon="-2.7516330">
        <ele>1182.8</ele>
        <time>2022-01-30T11:58:55Z</time>
      </trkpt>
      <trkpt lat="41.8863680" lon="-2.7517100">
        <ele>1182.8</ele>
        <time>2022-01-30T11:58:56Z</time>
      </trkpt>
      <trkpt lat="41.8863830" lon="-2.7517680">
        <ele>1182.2</ele>
        <time>2022-01-30T11:58:57Z</time>
      </trkpt>
      <trkpt lat="41.8863900" lon="-2.7518280">
        <ele>1182.2</ele>
        <time>2022-01-30T11:58:58Z</time>
      </trkpt>
      <trkpt lat="41.8863920" lon="-2.7519150">
        <ele>1181.5</ele>
        <time>2022-01-30T11:58:59Z</time>
      </trkpt>
      <trkpt lat="41.8863930" lon="-2.7520050">
        <ele>1181.5</ele>
        <time>2022-01-30T11:59:00Z</time>
      </trkpt>
      <trkpt lat="41.8863880" lon="-2.7521000">
        <ele>1181.0</ele>
        <time>2022-01-30T11:59:01Z</time>
      </trkpt>
      <trkpt lat="41.8863700" lon="-2.7522050">
        <ele>1181.0</ele>
        <time>2022-01-30T11:59:02Z</time>
      </trkpt>
      <trkpt lat="41.8863450" lon="-2.7523400">
        <ele>1180.8</ele>
        <time>2022-01-30T11:59:03Z</time>
      </trkpt>
      <trkpt lat="41.8863200" lon="-2.7524780">
        <ele>1180.3</ele>
        <time>2022-01-30T11:59:04Z</time>
      </trkpt>
      <trkpt lat="41.8862900" lon="-2.7526150">
        <ele>1178.6</ele>
        <time>2022-01-30T11:59:05Z</time>
      </trkpt>
      <trkpt lat="41.8862630" lon="-2.7527530">
        <ele>1178.6</ele>
        <time>2022-01-30T11:59:06Z</time>
      </trkpt>
      <trkpt lat="41.8862280" lon="-2.7529180">
        <ele>1178.2</ele>
        <time>2022-01-30T11:59:07Z</time>
      </trkpt>
      <trkpt lat="41.8862180" lon="-2.7530670">
        <ele>1177.8</ele>
        <time>2022-01-30T11:59:08Z</time>
      </trkpt>
      <trkpt lat="41.8861970" lon="-2.7531920">
        <ele>1177.3</ele>
        <time>2022-01-30T11:59:09Z</time>
      </trkpt>
      <trkpt lat="41.8861800" lon="-2.7533170">
        <ele>1176.9</ele>
        <time>2022-01-30T11:59:10Z</time>
      </trkpt>
      <trkpt lat="41.8861750" lon="-2.7534300">
        <ele>1175.4</ele>
        <time>2022-01-30T11:59:11Z</time>
      </trkpt>
      <trkpt lat="41.8861670" lon="-2.7535250">
        <ele>1174.9</ele>
        <time>2022-01-30T11:59:12Z</time>
      </trkpt>
      <trkpt lat="41.8861300" lon="-2.7536320">
        <ele>1174.4</ele>
        <time>2022-01-30T11:59:13Z</time>
      </trkpt>
      <trkpt lat="41.8860850" lon="-2.7537270">
        <ele>1174.4</ele>
        <time>2022-01-30T11:59:14Z</time>
      </trkpt>
      <trkpt lat="41.8860300" lon="-2.7537750">
        <ele>1172.7</ele>
        <time>2022-01-30T11:59:15Z</time>
      </trkpt>
      <trkpt lat="41.8859750" lon="-2.7538300">
        <ele>1172.2</ele>
        <time>2022-01-30T11:59:16Z</time>
      </trkpt>
      <trkpt lat="41.8859200" lon="-2.7538830">
        <ele>1170.5</ele>
        <time>2022-01-30T11:59:17Z</time>
      </trkpt>
      <trkpt lat="41.8858600" lon="-2.7539280">
        <ele>1170.5</ele>
        <time>2022-01-30T11:59:18Z</time>
      </trkpt>
      <trkpt lat="41.8857980" lon="-2.7539680">
        <ele>1169.9</ele>
        <time>2022-01-30T11:59:19Z</time>
      </trkpt>
      <trkpt lat="41.8857370" lon="-2.7540200">
        <ele>1167.9</ele>
        <time>2022-01-30T11:59:20Z</time>
      </trkpt>
      <trkpt lat="41.8856750" lon="-2.7540500">
        <ele>1167.9</ele>
        <time>2022-01-30T11:59:21Z</time>
      </trkpt>
      <trkpt lat="41.8856000" lon="-2.7540730">
        <ele>1166.3</ele>
        <time>2022-01-30T11:59:22Z</time>
      </trkpt>
      <trkpt lat="41.8855430" lon="-2.7540730">
        <ele>1166.3</ele>
        <time>2022-01-30T11:59:23Z</time>
      </trkpt>
      <trkpt lat="41.8854850" lon="-2.7540850">
        <ele>1164.7</ele>
        <time>2022-01-30T11:59:24Z</time>
      </trkpt>
      <trkpt lat="41.8854230" lon="-2.7540850">
        <ele>1164.7</ele>
        <time>2022-01-30T11:59:25Z</time>
      </trkpt>
      <trkpt lat="41.8853730" lon="-2.7540600">
        <ele>1163.5</ele>
        <time>2022-01-30T11:59:26Z</time>
      </trkpt>
      <trkpt lat="41.8853220" lon="-2.7540220">
        <ele>1163.5</ele>
        <time>2022-01-30T11:59:27Z</time>
      </trkpt>
      <trkpt lat="41.8852870" lon="-2.7539570">
        <ele>1163.5</ele>
        <time>2022-01-30T11:59:28Z</time>
      </trkpt>
      <trkpt lat="41.8852420" lon="-2.7538820">
        <ele>1161.8</ele>
        <time>2022-01-30T11:59:29Z</time>
      </trkpt>
      <trkpt lat="41.8852020" lon="-2.7538100">
        <ele>1161.8</ele>
        <time>2022-01-30T11:59:30Z</time>
      </trkpt>
      <trkpt lat="41.8851730" lon="-2.7537320">
        <ele>1161.4</ele>
        <time>2022-01-30T11:59:31Z</time>
      </trkpt>
      <trkpt lat="41.8851450" lon="-2.7536480">
        <ele>1159.6</ele>
        <time>2022-01-30T11:59:32Z</time>
      </trkpt>
      <trkpt lat="41.8851120" lon="-2.7535530">
        <ele>1159.3</ele>
        <time>2022-01-30T11:59:33Z</time>
      </trkpt>
      <trkpt lat="41.8850750" lon="-2.7534670">
        <ele>1159.3</ele>
        <time>2022-01-30T11:59:34Z</time>
      </trkpt>
      <trkpt lat="41.8850250" lon="-2.7534080">
        <ele>1157.2</ele>
        <time>2022-01-30T11:59:35Z</time>
      </trkpt>
      <trkpt lat="41.8849680" lon="-2.7533530">
        <ele>1157.2</ele>
        <time>2022-01-30T11:59:36Z</time>
      </trkpt>
      <trkpt lat="41.8849070" lon="-2.7533180">
        <ele>1157.2</ele>
        <time>2022-01-30T11:59:37Z</time>
      </trkpt>
      <trkpt lat="41.8848430" lon="-2.7533020">
        <ele>1155.8</ele>
        <time>2022-01-30T11:59:38Z</time>
      </trkpt>
      <trkpt lat="41.8847730" lon="-2.7532930">
        <ele>1155.8</ele>
        <time>2022-01-30T11:59:39Z</time>
      </trkpt>
      <trkpt lat="41.8847120" lon="-2.7532850">
        <ele>1154.7</ele>
        <time>2022-01-30T11:59:40Z</time>
      </trkpt>
      <trkpt lat="41.8846370" lon="-2.7532680">
        <ele>1154.0</ele>
        <time>2022-01-30T11:59:41Z</time>
      </trkpt>
      <trkpt lat="41.8845630" lon="-2.7532380">
        <ele>1154.0</ele>
        <time>2022-01-30T11:59:42Z</time>
      </trkpt>
      <trkpt lat="41.8844880" lon="-2.7532220">
        <ele>1153.1</ele>
        <time>2022-01-30T11:59:43Z</time>
      </trkpt>
      <trkpt lat="41.8844270" lon="-2.7532080">
        <ele>1153.1</ele>
        <time>2022-01-30T11:59:44Z</time>
      </trkpt>
      <trkpt lat="41.8843570" lon="-2.7531970">
        <ele>1152.0</ele>
        <time>2022-01-30T11:59:45Z</time>
      </trkpt>
      <trkpt lat="41.8842770" lon="-2.7532050">
        <ele>1152.0</ele>
        <time>2022-01-30T11:59:46Z</time>
      </trkpt>
      <trkpt lat="41.8841950" lon="-2.7532220">
        <ele>1151.1</ele>
        <time>2022-01-30T11:59:47Z</time>
      </trkpt>
      <trkpt lat="41.8841130" lon="-2.7532230">
        <ele>1150.3</ele>
        <time>2022-01-30T11:59:48Z</time>
      </trkpt>
      <trkpt lat="41.8840350" lon="-2.7532520">
        <ele>1150.3</ele>
        <time>2022-01-30T11:59:49Z</time>
      </trkpt>
      <trkpt lat="41.8839430" lon="-2.7532550">
        <ele>1149.8</ele>
        <time>2022-01-30T11:59:50Z</time>
      </trkpt>
      <trkpt lat="41.8838630" lon="-2.7532520">
        <ele>1149.1</ele>
        <time>2022-01-30T11:59:51Z</time>
      </trkpt>
      <trkpt lat="41.8837780" lon="-2.7532570">
        <ele>1149.1</ele>
        <time>2022-01-30T11:59:52Z</time>
      </trkpt>
      <trkpt lat="41.8836850" lon="-2.7532730">
        <ele>1148.4</ele>
        <time>2022-01-30T11:59:53Z</time>
      </trkpt>
      <trkpt lat="41.8836050" lon="-2.7532900">
        <ele>1147.6</ele>
        <time>2022-01-30T11:59:54Z</time>
      </trkpt>
      <trkpt lat="41.8835320" lon="-2.7533170">
        <ele>1147.6</ele>
        <time>2022-01-30T11:59:55Z</time>
      </trkpt>
      <trkpt lat="41.8834500" lon="-2.7533350">
        <ele>1146.9</ele>
        <time>2022-01-30T11:59:56Z</time>
      </trkpt>
      <trkpt lat="41.8833880" lon="-2.7533350">
        <ele>1146.9</ele>
        <time>2022-01-30T11:59:57Z</time>
      </trkpt>
      <trkpt lat="41.8832980" lon="-2.7533420">
        <ele>1146.2</ele>
        <time>2022-01-30T11:59:58Z</time>
      </trkpt>
      <trkpt lat="41.8832250" lon="-2.7533330">
        <ele>1146.0</ele>
        <time>2022-01-30T11:59:59Z</time>
      </trkpt>
      <trkpt lat="41.8831470" lon="-2.7533170">
        <ele>1146.0</ele>
        <time>2022-01-30T12:00:00Z</time>
      </trkpt>
      <trkpt lat="41.8830780" lon="-2.7532830">
        <ele>1146.2</ele>
        <time>2022-01-30T12:00:01Z</time>
      </trkpt>
      <trkpt lat="41.8830080" lon="-2.7532450">
        <ele>1145.3</ele>
        <time>2022-01-30T12:00:02Z</time>
      </trkpt>
      <trkpt lat="41.8829500" lon="-2.7532050">
        <ele>1145.2</ele>
        <time>2022-01-30T12:00:03Z</time>
      </trkpt>
      <trkpt lat="41.8828870" lon="-2.7531650">
        <ele>1145.2</ele>
        <time>2022-01-30T12:00:04Z</time>
      </trkpt>
      <trkpt lat="41.8828170" lon="-2.7531300">
        <ele>1144.9</ele>
        <time>2022-01-30T12:00:05Z</time>
      </trkpt>
      <trkpt lat="41.8827450" lon="-2.7531020">
        <ele>1143.8</ele>
        <time>2022-01-30T12:00:06Z</time>
      </trkpt>
      <trkpt lat="41.8826720" lon="-2.7530870">
        <ele>1143.1</ele>
        <time>2022-01-30T12:00:07Z</time>
      </trkpt>
      <trkpt lat="41.8825970" lon="-2.7530730">
        <ele>1142.2</ele>
        <time>2022-01-30T12:00:08Z</time>
      </trkpt>
      <trkpt lat="41.8825270" lon="-2.7530570">
        <ele>1142.2</ele>
        <time>2022-01-30T12:00:09Z</time>
      </trkpt>
      <trkpt lat="41.8824520" lon="-2.7530270">
        <ele>1140.9</ele>
        <time>2022-01-30T12:00:10Z</time>
      </trkpt>
      <trkpt lat="41.8823750" lon="-2.7529930">
        <ele>1140.9</ele>
        <time>2022-01-30T12:00:11Z</time>
      </trkpt>
      <trkpt lat="41.8823020" lon="-2.7529570">
        <ele>1139.6</ele>
        <time>2022-01-30T12:00:12Z</time>
      </trkpt>
      <trkpt lat="41.8822330" lon="-2.7529080">
        <ele>1138.6</ele>
        <time>2022-01-30T12:00:13Z</time>
      </trkpt>
      <trkpt lat="41.8821650" lon="-2.7528650">
        <ele>1137.1</ele>
        <time>2022-01-30T12:00:14Z</time>
      </trkpt>
      <trkpt lat="41.8820980" lon="-2.7528230">
        <ele>1137.1</ele>
        <time>2022-01-30T12:00:15Z</time>
      </trkpt>
      <trkpt lat="41.8820350" lon="-2.7527700">
        <ele>1136.0</ele>
        <time>2022-01-30T12:00:16Z</time>
      </trkpt>
      <trkpt lat="41.8819720" lon="-2.7527050">
        <ele>1135.4</ele>
        <time>2022-01-30T12:00:17Z</time>
      </trkpt>
      <trkpt lat="41.8819020" lon="-2.7526420">
        <ele>1134.3</ele>
        <time>2022-01-30T12:00:18Z</time>
      </trkpt>
      <trkpt lat="41.8818350" lon="-2.7525770">
        <ele>1134.1</ele>
        <time>2022-01-30T12:00:19Z</time>
      </trkpt>
      <trkpt lat="41.8817670" lon="-2.7525250">
        <ele>1133.2</ele>
        <time>2022-01-30T12:00:20Z</time>
      </trkpt>
      <trkpt lat="41.8817080" lon="-2.7524780">
        <ele>1133.2</ele>
        <time>2022-01-30T12:00:21Z</time>
      </trkpt>
      <trkpt lat="41.8816570" lon="-2.7524320">
        <ele>1132.4</ele>
        <time>2022-01-30T12:00:22Z</time>
      </trkpt>
      <trkpt lat="41.8816080" lon="-2.7523930">
        <ele>1132.5</ele>
        <time>2022-01-30T12:00:23Z</time>
      </trkpt>
      <trkpt lat="41.8815680" lon="-2.7523600">
        <ele>1132.2</ele>
        <time>2022-01-30T12:00:24Z</time>
      </trkpt>
      <trkpt lat="41.8815300" lon="-2.7523320">
        <ele>1132.2</ele>
        <time>2022-01-30T12:00:25Z</time>
      </trkpt>
      <trkpt lat="41.8814930" lon="-2.7523020">
        <ele>1132.2</ele>
        <time>2022-01-30T12:00:26Z</time>
      </trkpt>
      <trkpt lat="41.8814620" lon="-2.7522620">
        <ele>1132.2</ele>
        <time>2022-01-30T12:00:27Z</time>
      </trkpt>
      <trkpt lat="41.8814270" lon="-2.7522230">
        <ele>1132.4</ele>
        <time>2022-01-30T12:00:28Z</time>
      </trkpt>
      <trkpt lat="41.8813820" lon="-2.7522030">
        <ele>1132.4</ele>
        <time>2022-01-30T12:00:29Z</time>
      </trkpt>
      <trkpt lat="41.8813570" lon="-2.7522030">
        <ele>1132.4</ele>
        <time>2022-01-30T12:00:30Z</time>
      </trkpt>
      <trkpt lat="41.8813250" lon="-2.7522000">
        <ele>1132.4</ele>
        <time>2022-01-30T12:00:31Z</time>
      </trkpt>
      <trkpt lat="41.8813030" lon="-2.7521930">
        <ele>1132.3</ele>
        <time>2022-01-30T12:00:32Z</time>
      </trkpt>
      <trkpt lat="41.8812880" lon="-2.7521830">
        <ele>1132.3</ele>
        <time>2022-01-30T12:00:33Z</time>
      </trkpt>
      <trkpt lat="41.8812870" lon="-2.7521630">
        <ele>1132.3</ele>
        <time>2022-01-30T12:00:34Z</time>
      </trkpt>
      <trkpt lat="41.8812870" lon="-2.7521430">
        <ele>1132.3</ele>
        <time>2022-01-30T12:00:35Z</time>
      </trkpt>
      <trkpt lat="41.8812930" lon="-2.7521180">
        <ele>1132.3</ele>
        <time>2022-01-30T12:00:36Z</time>
      </trkpt>
      <trkpt lat="41.8812980" lon="-2.7520980">
        <ele>1132.3</ele>
        <time>2022-01-30T12:00:37Z</time>
      </trkpt>
      <trkpt lat="41.8813080" lon="-2.7520830">
        <ele>1132.3</ele>
        <time>2022-01-30T12:00:38Z</time>
      </trkpt>
      <trkpt lat="41.8813200" lon="-2.7520620">
        <ele>1132.7</ele>
        <time>2022-01-30T12:00:39Z</time>
      </trkpt>
      <trkpt lat="41.8813250" lon="-2.7520420">
        <ele>1132.6</ele>
        <time>2022-01-30T12:00:40Z</time>
      </trkpt>
      <trkpt lat="41.8813320" lon="-2.7520250">
        <ele>1132.6</ele>
        <time>2022-01-30T12:00:41Z</time>
      </trkpt>
      <trkpt lat="41.8813420" lon="-2.7519980">
        <ele>1132.6</ele>
        <time>2022-01-30T12:00:42Z</time>
      </trkpt>
      <trkpt lat="41.8813480" lon="-2.7519750">
        <ele>1132.6</ele>
        <time>2022-01-30T12:00:43Z</time>
      </trkpt>
      <trkpt lat="41.8813530" lon="-2.7519570">
        <ele>1132.6</ele>
        <time>2022-01-30T12:00:44Z</time>
      </trkpt>
      <trkpt lat="41.8813600" lon="-2.7519400">
        <ele>1132.6</ele>
        <time>2022-01-30T12:00:45Z</time>
      </trkpt>
      <trkpt lat="41.8813650" lon="-2.7519230">
        <ele>1132.6</ele>
        <time>2022-01-30T12:00:46Z</time>
      </trkpt>
      <trkpt lat="41.8813700" lon="-2.7519080">
        <ele>1132.6</ele>
        <time>2022-01-30T12:00:47Z</time>
      </trkpt>
      <trkpt lat="41.8813780" lon="-2.7518900">
        <ele>1133.1</ele>
        <time>2022-01-30T12:00:48Z</time>
      </trkpt>
      <trkpt lat="41.8813870" lon="-2.7518620">
        <ele>1133.1</ele>
        <time>2022-01-30T12:00:49Z</time>
      </trkpt>
      <trkpt lat="41.8813850" lon="-2.7518480">
        <ele>1133.1</ele>
        <time>2022-01-30T12:00:50Z</time>
      </trkpt>
      <trkpt lat="41.8813830" lon="-2.7518330">
        <ele>1133.1</ele>
        <time>2022-01-30T12:00:51Z</time>
      </trkpt>
      <trkpt lat="41.8813900" lon="-2.7518170">
        <ele>1133.1</ele>
        <time>2022-01-30T12:00:52Z</time>
      </trkpt>
      <trkpt lat="41.8814050" lon="-2.7517920">
        <ele>1133.1</ele>
        <time>2022-01-30T12:00:53Z</time>
      </trkpt>
      <trkpt lat="41.8814100" lon="-2.7517650">
        <ele>1133.1</ele>
        <time>2022-01-30T12:00:54Z</time>
      </trkpt>
      <trkpt lat="41.8814170" lon="-2.7517420">
        <ele>1133.1</ele>
        <time>2022-01-30T12:00:55Z</time>
      </trkpt>
      <trkpt lat="41.8814250" lon="-2.7517130">
        <ele>1133.9</ele>
        <time>2022-01-30T12:00:56Z</time>
      </trkpt>
      <trkpt lat="41.8814300" lon="-2.7516830">
        <ele>1133.9</ele>
        <time>2022-01-30T12:00:57Z</time>
      </trkpt>
      <trkpt lat="41.8814350" lon="-2.7516600">
        <ele>1133.9</ele>
        <time>2022-01-30T12:00:58Z</time>
      </trkpt>
      <trkpt lat="41.8814400" lon="-2.7516450">
        <ele>1133.9</ele>
        <time>2022-01-30T12:00:59Z</time>
      </trkpt>
      <trkpt lat="41.8814480" lon="-2.7516330">
        <ele>1133.6</ele>
        <time>2022-01-30T12:01:00Z</time>
      </trkpt>
      <trkpt lat="41.8814500" lon="-2.7516180">
        <ele>1133.6</ele>
        <time>2022-01-30T12:01:01Z</time>
      </trkpt>
      <trkpt lat="41.8814530" lon="-2.7516030">
        <ele>1133.6</ele>
        <time>2022-01-30T12:01:02Z</time>
      </trkpt>
      <trkpt lat="41.8814580" lon="-2.7515870">
        <ele>1133.6</ele>
        <time>2022-01-30T12:01:03Z</time>
      </trkpt>
      <trkpt lat="41.8814680" lon="-2.7515580">
        <ele>1134.4</ele>
        <time>2022-01-30T12:01:04Z</time>
      </trkpt>
      <trkpt lat="41.8814770" lon="-2.7515380">
        <ele>1134.4</ele>
        <time>2022-01-30T12:01:05Z</time>
      </trkpt>
      <trkpt lat="41.8814850" lon="-2.7515230">
        <ele>1134.4</ele>
        <time>2022-01-30T12:01:06Z</time>
      </trkpt>
      <trkpt lat="41.8814900" lon="-2.7515050">
        <ele>1134.4</ele>
        <time>2022-01-30T12:01:07Z</time>
      </trkpt>
      <trkpt lat="41.8814970" lon="-2.7514930">
        <ele>1134.4</ele>
        <time>2022-01-30T12:01:08Z</time>
      </trkpt>
      <trkpt lat="41.8815070" lon="-2.7514820">
        <ele>1134.4</ele>
        <time>2022-01-30T12:01:09Z</time>
      </trkpt>
      <trkpt lat="41.8815150" lon="-2.7514700">
        <ele>1134.4</ele>
        <time>2022-01-30T12:01:10Z</time>
      </trkpt>
      <trkpt lat="41.8815270" lon="-2.7514620">
        <ele>1134.4</ele>
        <time>2022-01-30T12:01:11Z</time>
      </trkpt>
      <trkpt lat="41.8815480" lon="-2.7514500">
        <ele>1134.4</ele>
        <time>2022-01-30T12:01:12Z</time>
      </trkpt>
      <trkpt lat="41.8815680" lon="-2.7514370">
        <ele>1134.4</ele>
        <time>2022-01-30T12:01:13Z</time>
      </trkpt>
      <trkpt lat="41.8815780" lon="-2.7514220">
        <ele>1134.5</ele>
        <time>2022-01-30T12:01:14Z</time>
      </trkpt>
      <trkpt lat="41.8815900" lon="-2.7514070">
        <ele>1134.5</ele>
        <time>2022-01-30T12:01:15Z</time>
      </trkpt>
      <trkpt lat="41.8816000" lon="-2.7513930">
        <ele>1134.5</ele>
        <time>2022-01-30T12:01:16Z</time>
      </trkpt>
      <trkpt lat="41.8816100" lon="-2.7513800">
        <ele>1135.6</ele>
        <time>2022-01-30T12:01:17Z</time>
      </trkpt>
      <trkpt lat="41.8816120" lon="-2.7513700">
        <ele>1135.6</ele>
        <time>2022-01-30T12:01:18Z</time>
      </trkpt>
      <trkpt lat="41.8816130" lon="-2.7513570">
        <ele>1135.6</ele>
        <time>2022-01-30T12:01:19Z</time>
      </trkpt>
      <trkpt lat="41.8816120" lon="-2.7513470">
        <ele>1135.6</ele>
        <time>2022-01-30T12:01:20Z</time>
      </trkpt>
      <trkpt lat="41.8816080" lon="-2.7513330">
        <ele>1135.6</ele>
        <time>2022-01-30T12:01:21Z</time>
      </trkpt>
      <trkpt lat="41.8816020" lon="-2.7513130">
        <ele>1135.6</ele>
        <time>2022-01-30T12:01:22Z</time>
      </trkpt>
      <trkpt lat="41.8815980" lon="-2.7512930">
        <ele>1135.6</ele>
        <time>2022-01-30T12:01:23Z</time>
      </trkpt>
      <trkpt lat="41.8815900" lon="-2.7512770">
        <ele>1135.6</ele>
        <time>2022-01-30T12:01:24Z</time>
      </trkpt>
      <trkpt lat="41.8815900" lon="-2.7512600">
        <ele>1135.6</ele>
        <time>2022-01-30T12:01:25Z</time>
      </trkpt>
      <trkpt lat="41.8815930" lon="-2.7512470">
        <ele>1135.6</ele>
        <time>2022-01-30T12:01:26Z</time>
      </trkpt>
      <trkpt lat="41.8815930" lon="-2.7512300">
        <ele>1135.6</ele>
        <time>2022-01-30T12:01:27Z</time>
      </trkpt>
      <trkpt lat="41.8815980" lon="-2.7512150">
        <ele>1136.8</ele>
        <time>2022-01-30T12:01:28Z</time>
      </trkpt>
      <trkpt lat="41.8816070" lon="-2.7511830">
        <ele>1136.8</ele>
        <time>2022-01-30T12:01:29Z</time>
      </trkpt>
      <trkpt lat="41.8816080" lon="-2.7511630">
        <ele>1136.8</ele>
        <time>2022-01-30T12:01:30Z</time>
      </trkpt>
      <trkpt lat="41.8816120" lon="-2.7511480">
        <ele>1136.8</ele>
        <time>2022-01-30T12:01:31Z</time>
      </trkpt>
      <trkpt lat="41.8816150" lon="-2.7511300">
        <ele>1136.8</ele>
        <time>2022-01-30T12:01:32Z</time>
      </trkpt>
      <trkpt lat="41.8816220" lon="-2.7511170">
        <ele>1136.8</ele>
        <time>2022-01-30T12:01:33Z</time>
      </trkpt>
      <trkpt lat="41.8816300" lon="-2.7511050">
        <ele>1136.8</ele>
        <time>2022-01-30T12:01:34Z</time>
      </trkpt>
      <trkpt lat="41.8816400" lon="-2.7510900">
        <ele>1136.8</ele>
        <time>2022-01-30T12:01:35Z</time>
      </trkpt>
      <trkpt lat="41.8816500" lon="-2.7510770">
        <ele>1136.8</ele>
        <time>2022-01-30T12:01:36Z</time>
      </trkpt>
      <trkpt lat="41.8816580" lon="-2.7510580">
        <ele>1136.8</ele>
        <time>2022-01-30T12:01:37Z</time>
      </trkpt>
      <trkpt lat="41.8816680" lon="-2.7510470">
        <ele>1136.8</ele>
        <time>2022-01-30T12:01:38Z</time>
      </trkpt>
      <trkpt lat="41.8816750" lon="-2.7510320">
        <ele>1138.4</ele>
        <time>2022-01-30T12:01:39Z</time>
      </trkpt>
      <trkpt lat="41.8816800" lon="-2.7510130">
        <ele>1138.4</ele>
        <time>2022-01-30T12:01:40Z</time>
      </trkpt>
      <trkpt lat="41.8816870" lon="-2.7509930">
        <ele>1138.4</ele>
        <time>2022-01-30T12:01:41Z</time>
      </trkpt>
      <trkpt lat="41.8816920" lon="-2.7509780">
        <ele>1138.4</ele>
        <time>2022-01-30T12:01:42Z</time>
      </trkpt>
      <trkpt lat="41.8816980" lon="-2.7509650">
        <ele>1138.4</ele>
        <time>2022-01-30T12:01:43Z</time>
      </trkpt>
      <trkpt lat="41.8817050" lon="-2.7509520">
        <ele>1138.9</ele>
        <time>2022-01-30T12:01:44Z</time>
      </trkpt>
      <trkpt lat="41.8817120" lon="-2.7509330">
        <ele>1138.9</ele>
        <time>2022-01-30T12:01:45Z</time>
      </trkpt>
      <trkpt lat="41.8817180" lon="-2.7509150">
        <ele>1138.9</ele>
        <time>2022-01-30T12:01:46Z</time>
      </trkpt>
      <trkpt lat="41.8817230" lon="-2.7508980">
        <ele>1138.9</ele>
        <time>2022-01-30T12:01:47Z</time>
      </trkpt>
      <trkpt lat="41.8817300" lon="-2.7508820">
        <ele>1138.9</ele>
        <time>2022-01-30T12:01:48Z</time>
      </trkpt>
      <trkpt lat="41.8817350" lon="-2.7508670">
        <ele>1140.6</ele>
        <time>2022-01-30T12:01:49Z</time>
      </trkpt>
      <trkpt lat="41.8817400" lon="-2.7508500">
        <ele>1140.6</ele>
        <time>2022-01-30T12:01:50Z</time>
      </trkpt>
      <trkpt lat="41.8817470" lon="-2.7508330">
        <ele>1140.6</ele>
        <time>2022-01-30T12:01:51Z</time>
      </trkpt>
      <trkpt lat="41.8817580" lon="-2.7508220">
        <ele>1140.6</ele>
        <time>2022-01-30T12:01:52Z</time>
      </trkpt>
      <trkpt lat="41.8817700" lon="-2.7508070">
        <ele>1140.6</ele>
        <time>2022-01-30T12:01:53Z</time>
      </trkpt>
      <trkpt lat="41.8817800" lon="-2.7507920">
        <ele>1140.6</ele>
        <time>2022-01-30T12:01:54Z</time>
      </trkpt>
      <trkpt lat="41.8817930" lon="-2.7507730">
        <ele>1140.6</ele>
        <time>2022-01-30T12:01:55Z</time>
      </trkpt>
      <trkpt lat="41.8818020" lon="-2.7507550">
        <ele>1140.6</ele>
        <time>2022-01-30T12:01:56Z</time>
      </trkpt>
      <trkpt lat="41.8818120" lon="-2.7507400">
        <ele>1140.6</ele>
        <time>2022-01-30T12:01:57Z</time>
      </trkpt>
      <trkpt lat="41.8818230" lon="-2.7507250">
        <ele>1140.6</ele>
        <time>2022-01-30T12:01:58Z</time>
      </trkpt>
      <trkpt lat="41.8818300" lon="-2.7507100">
        <ele>1140.6</ele>
        <time>2022-01-30T12:01:59Z</time>
      </trkpt>
      <trkpt lat="41.8818350" lon="-2.7506950">
        <ele>1142.3</ele>
        <time>2022-01-30T12:02:00Z</time>
      </trkpt>
      <trkpt lat="41.8818400" lon="-2.7506750">
        <ele>1142.3</ele>
        <time>2022-01-30T12:02:01Z</time>
      </trkpt>
      <trkpt lat="41.8818480" lon="-2.7506620">
        <ele>1142.3</ele>
        <time>2022-01-30T12:02:02Z</time>
      </trkpt>
      <trkpt lat="41.8818530" lon="-2.7506520">
        <ele>1142.3</ele>
        <time>2022-01-30T12:02:03Z</time>
      </trkpt>
      <trkpt lat="41.8818650" lon="-2.7506420">
        <ele>1142.3</ele>
        <time>2022-01-30T12:02:04Z</time>
      </trkpt>
      <trkpt lat="41.8818780" lon="-2.7506320">
        <ele>1142.3</ele>
        <time>2022-01-30T12:02:05Z</time>
      </trkpt>
      <trkpt lat="41.8818970" lon="-2.7506220">
        <ele>1142.3</ele>
        <time>2022-01-30T12:02:06Z</time>
      </trkpt>
      <trkpt lat="41.8819130" lon="-2.7506080">
        <ele>1142.3</ele>
        <time>2022-01-30T12:02:07Z</time>
      </trkpt>
      <trkpt lat="41.8819320" lon="-2.7505950">
        <ele>1142.3</ele>
        <time>2022-01-30T12:02:08Z</time>
      </trkpt>
      <trkpt lat="41.8819450" lon="-2.7505800">
        <ele>1142.3</ele>
        <time>2022-01-30T12:02:09Z</time>
      </trkpt>
      <trkpt lat="41.8819580" lon="-2.7505580">
        <ele>1142.3</ele>
        <time>2022-01-30T12:02:10Z</time>
      </trkpt>
      <trkpt lat="41.8819700" lon="-2.7505370">
        <ele>1142.6</ele>
        <time>2022-01-30T12:02:11Z</time>
      </trkpt>
      <trkpt lat="41.8819780" lon="-2.7505170">
        <ele>1144.1</ele>
        <time>2022-01-30T12:02:12Z</time>
      </trkpt>
      <trkpt lat="41.8819870" lon="-2.7505000">
        <ele>1144.1</ele>
        <time>2022-01-30T12:02:13Z</time>
      </trkpt>
      <trkpt lat="41.8819920" lon="-2.7504800">
        <ele>1144.1</ele>
        <time>2022-01-30T12:02:14Z</time>
      </trkpt>
      <trkpt lat="41.8819970" lon="-2.7504600">
        <ele>1144.1</ele>
        <time>2022-01-30T12:02:15Z</time>
      </trkpt>
      <trkpt lat="41.8819980" lon="-2.7504450">
        <ele>1144.1</ele>
        <time>2022-01-30T12:02:16Z</time>
      </trkpt>
      <trkpt lat="41.8820000" lon="-2.7504250">
        <ele>1144.1</ele>
        <time>2022-01-30T12:02:17Z</time>
      </trkpt>
      <trkpt lat="41.8820000" lon="-2.7504070">
        <ele>1144.1</ele>
        <time>2022-01-30T12:02:18Z</time>
      </trkpt>
      <trkpt lat="41.8820020" lon="-2.7503850">
        <ele>1144.1</ele>
        <time>2022-01-30T12:02:19Z</time>
      </trkpt>
      <trkpt lat="41.8820020" lon="-2.7503670">
        <ele>1144.1</ele>
        <time>2022-01-30T12:02:20Z</time>
      </trkpt>
      <trkpt lat="41.8820020" lon="-2.7503400">
        <ele>1145.2</ele>
        <time>2022-01-30T12:02:21Z</time>
      </trkpt>
      <trkpt lat="41.8820020" lon="-2.7503170">
        <ele>1145.2</ele>
        <time>2022-01-30T12:02:22Z</time>
      </trkpt>
      <trkpt lat="41.8820030" lon="-2.7502980">
        <ele>1145.2</ele>
        <time>2022-01-30T12:02:23Z</time>
      </trkpt>
      <trkpt lat="41.8820030" lon="-2.7502780">
        <ele>1145.2</ele>
        <time>2022-01-30T12:02:24Z</time>
      </trkpt>
      <trkpt lat="41.8820070" lon="-2.7502570">
        <ele>1145.2</ele>
        <time>2022-01-30T12:02:25Z</time>
      </trkpt>
      <trkpt lat="41.8820080" lon="-2.7502370">
        <ele>1145.2</ele>
        <time>2022-01-30T12:02:26Z</time>
      </trkpt>
      <trkpt lat="41.8820120" lon="-2.7502170">
        <ele>1145.2</ele>
        <time>2022-01-30T12:02:27Z</time>
      </trkpt>
      <trkpt lat="41.8820100" lon="-2.7501920">
        <ele>1145.2</ele>
        <time>2022-01-30T12:02:28Z</time>
      </trkpt>
      <trkpt lat="41.8820120" lon="-2.7501700">
        <ele>1146.1</ele>
        <time>2022-01-30T12:02:29Z</time>
      </trkpt>
      <trkpt lat="41.8820170" lon="-2.7501450">
        <ele>1146.1</ele>
        <time>2022-01-30T12:02:30Z</time>
      </trkpt>
      <trkpt lat="41.8820230" lon="-2.7501250">
        <ele>1146.1</ele>
        <time>2022-01-30T12:02:31Z</time>
      </trkpt>
      <trkpt lat="41.8820330" lon="-2.7501030">
        <ele>1146.1</ele>
        <time>2022-01-30T12:02:32Z</time>
      </trkpt>
      <trkpt lat="41.8820450" lon="-2.7500830">
        <ele>1146.1</ele>
        <time>2022-01-30T12:02:33Z</time>
      </trkpt>
      <trkpt lat="41.8820570" lon="-2.7500630">
        <ele>1146.1</ele>
        <time>2022-01-30T12:02:34Z</time>
      </trkpt>
      <trkpt lat="41.8820700" lon="-2.7500450">
        <ele>1146.1</ele>
        <time>2022-01-30T12:02:35Z</time>
      </trkpt>
      <trkpt lat="41.8820850" lon="-2.7500230">
        <ele>1146.1</ele>
        <time>2022-01-30T12:02:36Z</time>
      </trkpt>
      <trkpt lat="41.8820980" lon="-2.7500020">
        <ele>1147.1</ele>
        <time>2022-01-30T12:02:37Z</time>
      </trkpt>
      <trkpt lat="41.8821120" lon="-2.7499850">
        <ele>1147.0</ele>
        <time>2022-01-30T12:02:38Z</time>
      </trkpt>
      <trkpt lat="41.8821270" lon="-2.7499680">
        <ele>1146.9</ele>
        <time>2022-01-30T12:02:39Z</time>
      </trkpt>
      <trkpt lat="41.8821400" lon="-2.7499600">
        <ele>1146.8</ele>
        <time>2022-01-30T12:02:40Z</time>
      </trkpt>
      <trkpt lat="41.8821530" lon="-2.7499380">
        <ele>1146.7</ele>
        <time>2022-01-30T12:02:41Z</time>
      </trkpt>
      <trkpt lat="41.8821650" lon="-2.7499200">
        <ele>1146.6</ele>
        <time>2022-01-30T12:02:42Z</time>
      </trkpt>
      <trkpt lat="41.8821730" lon="-2.7499080">
        <ele>1146.6</ele>
        <time>2022-01-30T12:02:43Z</time>
      </trkpt>
      <trkpt lat="41.8821850" lon="-2.7498930">
        <ele>1146.5</ele>
        <time>2022-01-30T12:02:44Z</time>
      </trkpt>
      <trkpt lat="41.8821900" lon="-2.7498800">
        <ele>1146.4</ele>
        <time>2022-01-30T12:02:45Z</time>
      </trkpt>
      <trkpt lat="41.8821950" lon="-2.7498670">
        <ele>1146.3</ele>
        <time>2022-01-30T12:02:46Z</time>
      </trkpt>
      <trkpt lat="41.8822000" lon="-2.7498580">
        <ele>1146.2</ele>
        <time>2022-01-30T12:02:47Z</time>
      </trkpt>
      <trkpt lat="41.8822030" lon="-2.7498500">
        <ele>1146.1</ele>
        <time>2022-01-30T12:02:48Z</time>
      </trkpt>
      <trkpt lat="41.8822030" lon="-2.7498400">
        <ele>1146.9</ele>
        <time>2022-01-30T12:02:49Z</time>
      </trkpt>
      <trkpt lat="41.8822070" lon="-2.7498150">
        <ele>1146.8</ele>
        <time>2022-01-30T12:02:50Z</time>
      </trkpt>
      <trkpt lat="41.8822130" lon="-2.7497900">
        <ele>1146.7</ele>
        <time>2022-01-30T12:02:51Z</time>
      </trkpt>
      <trkpt lat="41.8822170" lon="-2.7497620">
        <ele>1146.5</ele>
        <time>2022-01-30T12:02:52Z</time>
      </trkpt>
      <trkpt lat="41.8822320" lon="-2.7497430">
        <ele>1146.5</ele>
        <time>2022-01-30T12:02:53Z</time>
      </trkpt>
      <trkpt lat="41.8822400" lon="-2.7497320">
        <ele>1146.4</ele>
        <time>2022-01-30T12:02:54Z</time>
      </trkpt>
      <trkpt lat="41.8822480" lon="-2.7497200">
        <ele>1146.3</ele>
        <time>2022-01-30T12:02:55Z</time>
      </trkpt>
      <trkpt lat="41.8822580" lon="-2.7497070">
        <ele>1146.2</ele>
        <time>2022-01-30T12:02:56Z</time>
      </trkpt>
      <trkpt lat="41.8822730" lon="-2.7496900">
        <ele>1146.1</ele>
        <time>2022-01-30T12:02:57Z</time>
      </trkpt>
      <trkpt lat="41.8822880" lon="-2.7496700">
        <ele>1147.0</ele>
        <time>2022-01-30T12:02:58Z</time>
      </trkpt>
      <trkpt lat="41.8823000" lon="-2.7496530">
        <ele>1146.9</ele>
        <time>2022-01-30T12:02:59Z</time>
      </trkpt>
      <trkpt lat="41.8823130" lon="-2.7496330">
        <ele>1146.8</ele>
        <time>2022-01-30T12:03:00Z</time>
      </trkpt>
      <trkpt lat="41.8823250" lon="-2.7496150">
        <ele>1146.7</ele>
        <time>2022-01-30T12:03:01Z</time>
      </trkpt>
      <trkpt lat="41.8823480" lon="-2.7496050">
        <ele>1146.8</ele>
        <time>2022-01-30T12:03:02Z</time>
      </trkpt>
      <trkpt lat="41.8823670" lon="-2.7495930">
        <ele>1146.7</ele>
        <time>2022-01-30T12:03:03Z</time>
      </trkpt>
      <trkpt lat="41.8823850" lon="-2.7495800">
        <ele>1146.6</ele>
        <time>2022-01-30T12:03:04Z</time>
      </trkpt>
      <trkpt lat="41.8823970" lon="-2.7495680">
        <ele>1146.5</ele>
        <time>2022-01-30T12:03:05Z</time>
      </trkpt>
      <trkpt lat="41.8824120" lon="-2.7495630">
        <ele>1146.4</ele>
        <time>2022-01-30T12:03:06Z</time>
      </trkpt>
      <trkpt lat="41.8824250" lon="-2.7495580">
        <ele>1146.3</ele>
        <time>2022-01-30T12:03:07Z</time>
      </trkpt>
      <trkpt lat="41.8824400" lon="-2.7495520">
        <ele>1146.3</ele>
        <time>2022-01-30T12:03:08Z</time>
      </trkpt>
      <trkpt lat="41.8824550" lon="-2.7495450">
        <ele>1146.2</ele>
        <time>2022-01-30T12:03:09Z</time>
      </trkpt>
      <trkpt lat="41.8824680" lon="-2.7495420">
        <ele>1146.1</ele>
        <time>2022-01-30T12:03:10Z</time>
      </trkpt>
      <trkpt lat="41.8824800" lon="-2.7495380">
        <ele>1146.6</ele>
        <time>2022-01-30T12:03:11Z</time>
      </trkpt>
      <trkpt lat="41.8824970" lon="-2.7495420">
        <ele>1146.5</ele>
        <time>2022-01-30T12:03:12Z</time>
      </trkpt>
      <trkpt lat="41.8825130" lon="-2.7495480">
        <ele>1146.4</ele>
        <time>2022-01-30T12:03:13Z</time>
      </trkpt>
      <trkpt lat="41.8825330" lon="-2.7495520">
        <ele>1146.3</ele>
        <time>2022-01-30T12:03:14Z</time>
      </trkpt>
      <trkpt lat="41.8825530" lon="-2.7495530">
        <ele>1146.2</ele>
        <time>2022-01-30T12:03:15Z</time>
      </trkpt>
      <trkpt lat="41.8825700" lon="-2.7495580">
        <ele>1146.1</ele>
        <time>2022-01-30T12:03:16Z</time>
      </trkpt>
      <trkpt lat="41.8825920" lon="-2.7495630">
        <ele>1146.0</ele>
        <time>2022-01-30T12:03:17Z</time>
      </trkpt>
      <trkpt lat="41.8826120" lon="-2.7495670">
        <ele>1146.6</ele>
        <time>2022-01-30T12:03:18Z</time>
      </trkpt>
      <trkpt lat="41.8826320" lon="-2.7495650">
        <ele>1146.5</ele>
        <time>2022-01-30T12:03:19Z</time>
      </trkpt>
      <trkpt lat="41.8826480" lon="-2.7495650">
        <ele>1146.5</ele>
        <time>2022-01-30T12:03:20Z</time>
      </trkpt>
      <trkpt lat="41.8826670" lon="-2.7495650">
        <ele>1146.4</ele>
        <time>2022-01-30T12:03:21Z</time>
      </trkpt>
      <trkpt lat="41.8826870" lon="-2.7495720">
        <ele>1146.3</ele>
        <time>2022-01-30T12:03:22Z</time>
      </trkpt>
      <trkpt lat="41.8827070" lon="-2.7495770">
        <ele>1146.2</ele>
        <time>2022-01-30T12:03:23Z</time>
      </trkpt>
      <trkpt lat="41.8827250" lon="-2.7495820">
        <ele>1146.1</ele>
        <time>2022-01-30T12:03:24Z</time>
      </trkpt>
      <trkpt lat="41.8827450" lon="-2.7495870">
        <ele>1146.7</ele>
        <time>2022-01-30T12:03:25Z</time>
      </trkpt>
      <trkpt lat="41.8827630" lon="-2.7495830">
        <ele>1146.7</ele>
        <time>2022-01-30T12:03:26Z</time>
      </trkpt>
      <trkpt lat="41.8827820" lon="-2.7495820">
        <ele>1146.6</ele>
        <time>2022-01-30T12:03:27Z</time>
      </trkpt>
      <trkpt lat="41.8828000" lon="-2.7495730">
        <ele>1146.5</ele>
        <time>2022-01-30T12:03:28Z</time>
      </trkpt>
      <trkpt lat="41.8828180" lon="-2.7495670">
        <ele>1146.4</ele>
        <time>2022-01-30T12:03:29Z</time>
      </trkpt>
      <trkpt lat="41.8828330" lon="-2.7495580">
        <ele>1146.3</ele>
        <time>2022-01-30T12:03:30Z</time>
      </trkpt>
      <trkpt lat="41.8828500" lon="-2.7495480">
        <ele>1146.2</ele>
        <time>2022-01-30T12:03:31Z</time>
      </trkpt>
      <trkpt lat="41.8828670" lon="-2.7495380">
        <ele>1146.8</ele>
        <time>2022-01-30T12:03:32Z</time>
      </trkpt>
      <trkpt lat="41.8828820" lon="-2.7495330">
        <ele>1146.8</ele>
        <time>2022-01-30T12:03:33Z</time>
      </trkpt>
      <trkpt lat="41.8828980" lon="-2.7495280">
        <ele>1146.7</ele>
        <time>2022-01-30T12:03:34Z</time>
      </trkpt>
      <trkpt lat="41.8829150" lon="-2.7495200">
        <ele>1146.6</ele>
        <time>2022-01-30T12:03:35Z</time>
      </trkpt>
      <trkpt lat="41.8829320" lon="-2.7495070">
        <ele>1146.5</ele>
        <time>2022-01-30T12:03:36Z</time>
      </trkpt>
      <trkpt lat="41.8829480" lon="-2.7494950">
        <ele>1147.0</ele>
        <time>2022-01-30T12:03:37Z</time>
      </trkpt>
      <trkpt lat="41.8829630" lon="-2.7494850">
        <ele>1146.9</ele>
        <time>2022-01-30T12:03:38Z</time>
      </trkpt>
      <trkpt lat="41.8829800" lon="-2.7494780">
        <ele>1146.8</ele>
        <time>2022-01-30T12:03:39Z</time>
      </trkpt>
      <trkpt lat="41.8829950" lon="-2.7494670">
        <ele>1147.6</ele>
        <time>2022-01-30T12:03:40Z</time>
      </trkpt>
      <trkpt lat="41.8830130" lon="-2.7494600">
        <ele>1147.5</ele>
        <time>2022-01-30T12:03:41Z</time>
      </trkpt>
      <trkpt lat="41.8830320" lon="-2.7494520">
        <ele>1147.4</ele>
        <time>2022-01-30T12:03:42Z</time>
      </trkpt>
      <trkpt lat="41.8830530" lon="-2.7494450">
        <ele>1147.3</ele>
        <time>2022-01-30T12:03:43Z</time>
      </trkpt>
      <trkpt lat="41.8830750" lon="-2.7494380">
        <ele>1147.2</ele>
        <time>2022-01-30T12:03:44Z</time>
      </trkpt>
      <trkpt lat="41.8830950" lon="-2.7494320">
        <ele>1147.2</ele>
        <time>2022-01-30T12:03:45Z</time>
      </trkpt>
      <trkpt lat="41.8831150" lon="-2.7494280">
        <ele>1148.0</ele>
        <time>2022-01-30T12:03:46Z</time>
      </trkpt>
      <trkpt lat="41.8831300" lon="-2.7494250">
        <ele>1147.9</ele>
        <time>2022-01-30T12:03:47Z</time>
      </trkpt>
      <trkpt lat="41.8831420" lon="-2.7494200">
        <ele>1147.8</ele>
        <time>2022-01-30T12:03:48Z</time>
      </trkpt>
      <trkpt lat="41.8831550" lon="-2.7494220">
        <ele>1147.7</ele>
        <time>2022-01-30T12:03:49Z</time>
      </trkpt>
      <trkpt lat="41.8831720" lon="-2.7494280">
        <ele>1147.6</ele>
        <time>2022-01-30T12:03:50Z</time>
      </trkpt>
      <trkpt lat="41.8831920" lon="-2.7494370">
        <ele>1147.5</ele>
        <time>2022-01-30T12:03:51Z</time>
      </trkpt>
      <trkpt lat="41.8832100" lon="-2.7494450">
        <ele>1147.4</ele>
        <time>2022-01-30T12:03:52Z</time>
      </trkpt>
      <trkpt lat="41.8832270" lon="-2.7494520">
        <ele>1147.3</ele>
        <time>2022-01-30T12:03:53Z</time>
      </trkpt>
      <trkpt lat="41.8832480" lon="-2.7494580">
        <ele>1148.0</ele>
        <time>2022-01-30T12:03:54Z</time>
      </trkpt>
      <trkpt lat="41.8832630" lon="-2.7494580">
        <ele>1147.9</ele>
        <time>2022-01-30T12:03:55Z</time>
      </trkpt>
      <trkpt lat="41.8832820" lon="-2.7494620">
        <ele>1147.8</ele>
        <time>2022-01-30T12:03:56Z</time>
      </trkpt>
      <trkpt lat="41.8832980" lon="-2.7494620">
        <ele>1147.7</ele>
        <time>2022-01-30T12:03:57Z</time>
      </trkpt>
      <trkpt lat="41.8833130" lon="-2.7494650">
        <ele>1147.7</ele>
        <time>2022-01-30T12:03:58Z</time>
      </trkpt>
      <trkpt lat="41.8833300" lon="-2.7494650">
        <ele>1147.6</ele>
        <time>2022-01-30T12:03:59Z</time>
      </trkpt>
      <trkpt lat="41.8833480" lon="-2.7494670">
        <ele>1147.5</ele>
        <time>2022-01-30T12:04:00Z</time>
      </trkpt>
      <trkpt lat="41.8833670" lon="-2.7494720">
        <ele>1148.3</ele>
        <time>2022-01-30T12:04:01Z</time>
      </trkpt>
      <trkpt lat="41.8833830" lon="-2.7494730">
        <ele>1148.2</ele>
        <time>2022-01-30T12:04:02Z</time>
      </trkpt>
      <trkpt lat="41.8834020" lon="-2.7494700">
        <ele>1148.1</ele>
        <time>2022-01-30T12:04:03Z</time>
      </trkpt>
      <trkpt lat="41.8834220" lon="-2.7494630">
        <ele>1148.0</ele>
        <time>2022-01-30T12:04:04Z</time>
      </trkpt>
      <trkpt lat="41.8834420" lon="-2.7494580">
        <ele>1147.9</ele>
        <time>2022-01-30T12:04:05Z</time>
      </trkpt>
      <trkpt lat="41.8834620" lon="-2.7494520">
        <ele>1147.8</ele>
        <time>2022-01-30T12:04:06Z</time>
      </trkpt>
      <trkpt lat="41.8834820" lon="-2.7494420">
        <ele>1147.7</ele>
        <time>2022-01-30T12:04:07Z</time>
      </trkpt>
      <trkpt lat="41.8834950" lon="-2.7494300">
        <ele>1148.6</ele>
        <time>2022-01-30T12:04:08Z</time>
      </trkpt>
      <trkpt lat="41.8835080" lon="-2.7494180">
        <ele>1148.5</ele>
        <time>2022-01-30T12:04:09Z</time>
      </trkpt>
      <trkpt lat="41.8835220" lon="-2.7494050">
        <ele>1148.5</ele>
        <time>2022-01-30T12:04:10Z</time>
      </trkpt>
      <trkpt lat="41.8835380" lon="-2.7493900">
        <ele>1148.4</ele>
        <time>2022-01-30T12:04:11Z</time>
      </trkpt>
      <trkpt lat="41.8835520" lon="-2.7493720">
        <ele>1148.3</ele>
        <time>2022-01-30T12:04:12Z</time>
      </trkpt>
      <trkpt lat="41.8835620" lon="-2.7493570">
        <ele>1148.2</ele>
        <time>2022-01-30T12:04:13Z</time>
      </trkpt>
      <trkpt lat="41.8835700" lon="-2.7493400">
        <ele>1148.1</ele>
        <time>2022-01-30T12:04:14Z</time>
      </trkpt>
      <trkpt lat="41.8835780" lon="-2.7493250">
        <ele>1148.1</ele>
        <time>2022-01-30T12:04:15Z</time>
      </trkpt>
      <trkpt lat="41.8835850" lon="-2.7493120">
        <ele>1148.0</ele>
        <time>2022-01-30T12:04:16Z</time>
      </trkpt>
      <trkpt lat="41.8835950" lon="-2.7492970">
        <ele>1148.0</ele>
        <time>2022-01-30T12:04:17Z</time>
      </trkpt>
      <trkpt lat="41.8836050" lon="-2.7492820">
        <ele>1148.0</ele>
        <time>2022-01-30T12:04:18Z</time>
      </trkpt>
      <trkpt lat="41.8836200" lon="-2.7492680">
        <ele>1148.0</ele>
        <time>2022-01-30T12:04:19Z</time>
      </trkpt>
      <trkpt lat="41.8836330" lon="-2.7492600">
        <ele>1149.0</ele>
        <time>2022-01-30T12:04:20Z</time>
      </trkpt>
      <trkpt lat="41.8836480" lon="-2.7492550">
        <ele>1149.0</ele>
        <time>2022-01-30T12:04:21Z</time>
      </trkpt>
      <trkpt lat="41.8836600" lon="-2.7492550">
        <ele>1149.0</ele>
        <time>2022-01-30T12:04:22Z</time>
      </trkpt>
      <trkpt lat="41.8836750" lon="-2.7492580">
        <ele>1149.0</ele>
        <time>2022-01-30T12:04:23Z</time>
      </trkpt>
      <trkpt lat="41.8836880" lon="-2.7492630">
        <ele>1149.0</ele>
        <time>2022-01-30T12:04:24Z</time>
      </trkpt>
      <trkpt lat="41.8837030" lon="-2.7492630">
        <ele>1149.0</ele>
        <time>2022-01-30T12:04:25Z</time>
      </trkpt>
      <trkpt lat="41.8837200" lon="-2.7492650">
        <ele>1149.0</ele>
        <time>2022-01-30T12:04:26Z</time>
      </trkpt>
      <trkpt lat="41.8837370" lon="-2.7492600">
        <ele>1149.0</ele>
        <time>2022-01-30T12:04:27Z</time>
      </trkpt>
      <trkpt lat="41.8837530" lon="-2.7492500">
        <ele>1149.9</ele>
        <time>2022-01-30T12:04:28Z</time>
      </trkpt>
      <trkpt lat="41.8837670" lon="-2.7492380">
        <ele>1149.9</ele>
        <time>2022-01-30T12:04:29Z</time>
      </trkpt>
      <trkpt lat="41.8837800" lon="-2.7492250">
        <ele>1149.9</ele>
        <time>2022-01-30T12:04:30Z</time>
      </trkpt>
      <trkpt lat="41.8837900" lon="-2.7492120">
        <ele>1149.9</ele>
        <time>2022-01-30T12:04:31Z</time>
      </trkpt>
      <trkpt lat="41.8838020" lon="-2.7491970">
        <ele>1149.9</ele>
        <time>2022-01-30T12:04:32Z</time>
      </trkpt>
      <trkpt lat="41.8838130" lon="-2.7491800">
        <ele>1149.9</ele>
        <time>2022-01-30T12:04:33Z</time>
      </trkpt>
      <trkpt lat="41.8838230" lon="-2.7491620">
        <ele>1149.9</ele>
        <time>2022-01-30T12:04:34Z</time>
      </trkpt>
      <trkpt lat="41.8838320" lon="-2.7491470">
        <ele>1150.2</ele>
        <time>2022-01-30T12:04:35Z</time>
      </trkpt>
      <trkpt lat="41.8838400" lon="-2.7491300">
        <ele>1150.2</ele>
        <time>2022-01-30T12:04:36Z</time>
      </trkpt>
      <trkpt lat="41.8838500" lon="-2.7491130">
        <ele>1150.2</ele>
        <time>2022-01-30T12:04:37Z</time>
      </trkpt>
      <trkpt lat="41.8838620" lon="-2.7491000">
        <ele>1150.2</ele>
        <time>2022-01-30T12:04:38Z</time>
      </trkpt>
      <trkpt lat="41.8838720" lon="-2.7490830">
        <ele>1150.2</ele>
        <time>2022-01-30T12:04:39Z</time>
      </trkpt>
      <trkpt lat="41.8838800" lon="-2.7490700">
        <ele>1151.3</ele>
        <time>2022-01-30T12:04:40Z</time>
      </trkpt>
      <trkpt lat="41.8838870" lon="-2.7490570">
        <ele>1151.3</ele>
        <time>2022-01-30T12:04:41Z</time>
      </trkpt>
      <trkpt lat="41.8838930" lon="-2.7490420">
        <ele>1151.3</ele>
        <time>2022-01-30T12:04:42Z</time>
      </trkpt>
      <trkpt lat="41.8838980" lon="-2.7490270">
        <ele>1151.3</ele>
        <time>2022-01-30T12:04:43Z</time>
      </trkpt>
      <trkpt lat="41.8839050" lon="-2.7490150">
        <ele>1151.3</ele>
        <time>2022-01-30T12:04:44Z</time>
      </trkpt>
      <trkpt lat="41.8839100" lon="-2.7490080">
        <ele>1151.3</ele>
        <time>2022-01-30T12:04:45Z</time>
      </trkpt>
      <trkpt lat="41.8839170" lon="-2.7490000">
        <ele>1151.3</ele>
        <time>2022-01-30T12:04:46Z</time>
      </trkpt>
      <trkpt lat="41.8839250" lon="-2.7489930">
        <ele>1151.3</ele>
        <time>2022-01-30T12:04:47Z</time>
      </trkpt>
      <trkpt lat="41.8839380" lon="-2.7489850">
        <ele>1152.1</ele>
        <time>2022-01-30T12:04:48Z</time>
      </trkpt>
      <trkpt lat="41.8839520" lon="-2.7489780">
        <ele>1152.1</ele>
        <time>2022-01-30T12:04:49Z</time>
      </trkpt>
      <trkpt lat="41.8839620" lon="-2.7489720">
        <ele>1152.1</ele>
        <time>2022-01-30T12:04:50Z</time>
      </trkpt>
      <trkpt lat="41.8839700" lon="-2.7489600">
        <ele>1152.1</ele>
        <time>2022-01-30T12:04:51Z</time>
      </trkpt>
      <trkpt lat="41.8839770" lon="-2.7489480">
        <ele>1152.1</ele>
        <time>2022-01-30T12:04:52Z</time>
      </trkpt>
      <trkpt lat="41.8839820" lon="-2.7489380">
        <ele>1152.1</ele>
        <time>2022-01-30T12:04:53Z</time>
      </trkpt>
      <trkpt lat="41.8839930" lon="-2.7489320">
        <ele>1152.1</ele>
        <time>2022-01-30T12:04:54Z</time>
      </trkpt>
      <trkpt lat="41.8840070" lon="-2.7489220">
        <ele>1153.1</ele>
        <time>2022-01-30T12:04:55Z</time>
      </trkpt>
      <trkpt lat="41.8840180" lon="-2.7489100">
        <ele>1153.1</ele>
        <time>2022-01-30T12:04:56Z</time>
      </trkpt>
      <trkpt lat="41.8840320" lon="-2.7488950">
        <ele>1153.1</ele>
        <time>2022-01-30T12:04:57Z</time>
      </trkpt>
      <trkpt lat="41.8840450" lon="-2.7488800">
        <ele>1153.1</ele>
        <time>2022-01-30T12:04:58Z</time>
      </trkpt>
      <trkpt lat="41.8840570" lon="-2.7488650">
        <ele>1153.1</ele>
        <time>2022-01-30T12:04:59Z</time>
      </trkpt>
      <trkpt lat="41.8840780" lon="-2.7488420">
        <ele>1153.1</ele>
        <time>2022-01-30T12:05:00Z</time>
      </trkpt>
      <trkpt lat="41.8840900" lon="-2.7488200">
        <ele>1153.1</ele>
        <time>2022-01-30T12:05:01Z</time>
      </trkpt>
      <trkpt lat="41.8841070" lon="-2.7488020">
        <ele>1154.1</ele>
        <time>2022-01-30T12:05:02Z</time>
      </trkpt>
      <trkpt lat="41.8841150" lon="-2.7487900">
        <ele>1154.1</ele>
        <time>2022-01-30T12:05:03Z</time>
      </trkpt>
      <trkpt lat="41.8841270" lon="-2.7487700">
        <ele>1154.1</ele>
        <time>2022-01-30T12:05:04Z</time>
      </trkpt>
      <trkpt lat="41.8841380" lon="-2.7487570">
        <ele>1155.1</ele>
        <time>2022-01-30T12:05:05Z</time>
      </trkpt>
      <trkpt lat="41.8841520" lon="-2.7487450">
        <ele>1155.1</ele>
        <time>2022-01-30T12:05:06Z</time>
      </trkpt>
      <trkpt lat="41.8841630" lon="-2.7487270">
        <ele>1155.1</ele>
        <time>2022-01-30T12:05:07Z</time>
      </trkpt>
      <trkpt lat="41.8841730" lon="-2.7487120">
        <ele>1155.1</ele>
        <time>2022-01-30T12:05:08Z</time>
      </trkpt>
      <trkpt lat="41.8841770" lon="-2.7486930">
        <ele>1155.1</ele>
        <time>2022-01-30T12:05:09Z</time>
      </trkpt>
      <trkpt lat="41.8841830" lon="-2.7486820">
        <ele>1155.1</ele>
        <time>2022-01-30T12:05:10Z</time>
      </trkpt>
      <trkpt lat="41.8841930" lon="-2.7486720">
        <ele>1155.1</ele>
        <time>2022-01-30T12:05:11Z</time>
      </trkpt>
      <trkpt lat="41.8842020" lon="-2.7486630">
        <ele>1155.1</ele>
        <time>2022-01-30T12:05:12Z</time>
      </trkpt>
      <trkpt lat="41.8842130" lon="-2.7486550">
        <ele>1155.1</ele>
        <time>2022-01-30T12:05:13Z</time>
      </trkpt>
      <trkpt lat="41.8842270" lon="-2.7486500">
        <ele>1155.1</ele>
        <time>2022-01-30T12:05:14Z</time>
      </trkpt>
      <trkpt lat="41.8842400" lon="-2.7486470">
        <ele>1155.1</ele>
        <time>2022-01-30T12:05:15Z</time>
      </trkpt>
      <trkpt lat="41.8842530" lon="-2.7486400">
        <ele>1155.7</ele>
        <time>2022-01-30T12:05:16Z</time>
      </trkpt>
      <trkpt lat="41.8842700" lon="-2.7486330">
        <ele>1156.5</ele>
        <time>2022-01-30T12:05:17Z</time>
      </trkpt>
      <trkpt lat="41.8842850" lon="-2.7486270">
        <ele>1156.5</ele>
        <time>2022-01-30T12:05:18Z</time>
      </trkpt>
      <trkpt lat="41.8842980" lon="-2.7486200">
        <ele>1156.5</ele>
        <time>2022-01-30T12:05:19Z</time>
      </trkpt>
      <trkpt lat="41.8843130" lon="-2.7486150">
        <ele>1156.5</ele>
        <time>2022-01-30T12:05:20Z</time>
      </trkpt>
      <trkpt lat="41.8843270" lon="-2.7486120">
        <ele>1156.5</ele>
        <time>2022-01-30T12:05:21Z</time>
      </trkpt>
      <trkpt lat="41.8843430" lon="-2.7486000">
        <ele>1156.5</ele>
        <time>2022-01-30T12:05:22Z</time>
      </trkpt>
      <trkpt lat="41.8843630" lon="-2.7485920">
        <ele>1156.5</ele>
        <time>2022-01-30T12:05:23Z</time>
      </trkpt>
      <trkpt lat="41.8843820" lon="-2.7485800">
        <ele>1156.5</ele>
        <time>2022-01-30T12:05:24Z</time>
      </trkpt>
      <trkpt lat="41.8844030" lon="-2.7485800">
        <ele>1157.5</ele>
        <time>2022-01-30T12:05:25Z</time>
      </trkpt>
      <trkpt lat="41.8844170" lon="-2.7485580">
        <ele>1157.5</ele>
        <time>2022-01-30T12:05:26Z</time>
      </trkpt>
      <trkpt lat="41.8844300" lon="-2.7485480">
        <ele>1157.5</ele>
        <time>2022-01-30T12:05:27Z</time>
      </trkpt>
      <trkpt lat="41.8844420" lon="-2.7485350">
        <ele>1157.5</ele>
        <time>2022-01-30T12:05:28Z</time>
      </trkpt>
      <trkpt lat="41.8844530" lon="-2.7485130">
        <ele>1157.5</ele>
        <time>2022-01-30T12:05:29Z</time>
      </trkpt>
      <trkpt lat="41.8844630" lon="-2.7484930">
        <ele>1157.5</ele>
        <time>2022-01-30T12:05:30Z</time>
      </trkpt>
      <trkpt lat="41.8844770" lon="-2.7484750">
        <ele>1157.5</ele>
        <time>2022-01-30T12:05:31Z</time>
      </trkpt>
      <trkpt lat="41.8844900" lon="-2.7484600">
        <ele>1157.2</ele>
        <time>2022-01-30T12:05:32Z</time>
      </trkpt>
      <trkpt lat="41.8845020" lon="-2.7484500">
        <ele>1157.2</ele>
        <time>2022-01-30T12:05:33Z</time>
      </trkpt>
      <trkpt lat="41.8845130" lon="-2.7484420">
        <ele>1157.2</ele>
        <time>2022-01-30T12:05:34Z</time>
      </trkpt>
      <trkpt lat="41.8845250" lon="-2.7484300">
        <ele>1158.1</ele>
        <time>2022-01-30T12:05:35Z</time>
      </trkpt>
      <trkpt lat="41.8845400" lon="-2.7484180">
        <ele>1158.1</ele>
        <time>2022-01-30T12:05:36Z</time>
      </trkpt>
      <trkpt lat="41.8845550" lon="-2.7484050">
        <ele>1158.1</ele>
        <time>2022-01-30T12:05:37Z</time>
      </trkpt>
      <trkpt lat="41.8845680" lon="-2.7483870">
        <ele>1158.1</ele>
        <time>2022-01-30T12:05:38Z</time>
      </trkpt>
      <trkpt lat="41.8845770" lon="-2.7483700">
        <ele>1158.1</ele>
        <time>2022-01-30T12:05:39Z</time>
      </trkpt>
      <trkpt lat="41.8845870" lon="-2.7483530">
        <ele>1158.1</ele>
        <time>2022-01-30T12:05:40Z</time>
      </trkpt>
      <trkpt lat="41.8845930" lon="-2.7483380">
        <ele>1158.1</ele>
        <time>2022-01-30T12:05:41Z</time>
      </trkpt>
      <trkpt lat="41.8846080" lon="-2.7483270">
        <ele>1158.1</ele>
        <time>2022-01-30T12:05:42Z</time>
      </trkpt>
      <trkpt lat="41.8846220" lon="-2.7483150">
        <ele>1158.1</ele>
        <time>2022-01-30T12:05:43Z</time>
      </trkpt>
      <trkpt lat="41.8846320" lon="-2.7483050">
        <ele>1158.1</ele>
        <time>2022-01-30T12:05:44Z</time>
      </trkpt>
      <trkpt lat="41.8846420" lon="-2.7482920">
        <ele>1157.7</ele>
        <time>2022-01-30T12:05:45Z</time>
      </trkpt>
      <trkpt lat="41.8846500" lon="-2.7482850">
        <ele>1158.4</ele>
        <time>2022-01-30T12:05:46Z</time>
      </trkpt>
      <trkpt lat="41.8846630" lon="-2.7482800">
        <ele>1158.4</ele>
        <time>2022-01-30T12:05:47Z</time>
      </trkpt>
      <trkpt lat="41.8846750" lon="-2.7482780">
        <ele>1158.4</ele>
        <time>2022-01-30T12:05:48Z</time>
      </trkpt>
      <trkpt lat="41.8846870" lon="-2.7482770">
        <ele>1158.4</ele>
        <time>2022-01-30T12:05:49Z</time>
      </trkpt>
      <trkpt lat="41.8847000" lon="-2.7482750">
        <ele>1158.4</ele>
        <time>2022-01-30T12:05:50Z</time>
      </trkpt>
      <trkpt lat="41.8847120" lon="-2.7482730">
        <ele>1158.4</ele>
        <time>2022-01-30T12:05:51Z</time>
      </trkpt>
      <trkpt lat="41.8847250" lon="-2.7482680">
        <ele>1158.4</ele>
        <time>2022-01-30T12:05:52Z</time>
      </trkpt>
      <trkpt lat="41.8847370" lon="-2.7482650">
        <ele>1158.4</ele>
        <time>2022-01-30T12:05:53Z</time>
      </trkpt>
      <trkpt lat="41.8847500" lon="-2.7482650">
        <ele>1158.4</ele>
        <time>2022-01-30T12:05:54Z</time>
      </trkpt>
      <trkpt lat="41.8847670" lon="-2.7482700">
        <ele>1158.4</ele>
        <time>2022-01-30T12:05:55Z</time>
      </trkpt>
      <trkpt lat="41.8847830" lon="-2.7482770">
        <ele>1159.4</ele>
        <time>2022-01-30T12:05:56Z</time>
      </trkpt>
      <trkpt lat="41.8848000" lon="-2.7482780">
        <ele>1159.4</ele>
        <time>2022-01-30T12:05:57Z</time>
      </trkpt>
      <trkpt lat="41.8848180" lon="-2.7482780">
        <ele>1159.4</ele>
        <time>2022-01-30T12:05:58Z</time>
      </trkpt>
      <trkpt lat="41.8848350" lon="-2.7482800">
        <ele>1159.4</ele>
        <time>2022-01-30T12:05:59Z</time>
      </trkpt>
      <trkpt lat="41.8848500" lon="-2.7482780">
        <ele>1159.4</ele>
        <time>2022-01-30T12:06:00Z</time>
      </trkpt>
      <trkpt lat="41.8848700" lon="-2.7482780">
        <ele>1159.4</ele>
        <time>2022-01-30T12:06:01Z</time>
      </trkpt>
      <trkpt lat="41.8848900" lon="-2.7482750">
        <ele>1159.4</ele>
        <time>2022-01-30T12:06:02Z</time>
      </trkpt>
      <trkpt lat="41.8849050" lon="-2.7482720">
        <ele>1160.5</ele>
        <time>2022-01-30T12:06:03Z</time>
      </trkpt>
      <trkpt lat="41.8849200" lon="-2.7482680">
        <ele>1160.5</ele>
        <time>2022-01-30T12:06:04Z</time>
      </trkpt>
      <trkpt lat="41.8849300" lon="-2.7482620">
        <ele>1160.5</ele>
        <time>2022-01-30T12:06:05Z</time>
      </trkpt>
      <trkpt lat="41.8849470" lon="-2.7482580">
        <ele>1160.5</ele>
        <time>2022-01-30T12:06:06Z</time>
      </trkpt>
      <trkpt lat="41.8849580" lon="-2.7482570">
        <ele>1160.5</ele>
        <time>2022-01-30T12:06:07Z</time>
      </trkpt>
      <trkpt lat="41.8849770" lon="-2.7482500">
        <ele>1160.5</ele>
        <time>2022-01-30T12:06:08Z</time>
      </trkpt>
      <trkpt lat="41.8849950" lon="-2.7482450">
        <ele>1160.5</ele>
        <time>2022-01-30T12:06:09Z</time>
      </trkpt>
      <trkpt lat="41.8850100" lon="-2.7482370">
        <ele>1160.5</ele>
        <time>2022-01-30T12:06:10Z</time>
      </trkpt>
      <trkpt lat="41.8850270" lon="-2.7482300">
        <ele>1161.7</ele>
        <time>2022-01-30T12:06:11Z</time>
      </trkpt>
      <trkpt lat="41.8850400" lon="-2.7482200">
        <ele>1161.7</ele>
        <time>2022-01-30T12:06:12Z</time>
      </trkpt>
      <trkpt lat="41.8850570" lon="-2.7482030">
        <ele>1161.7</ele>
        <time>2022-01-30T12:06:13Z</time>
      </trkpt>
      <trkpt lat="41.8850730" lon="-2.7481900">
        <ele>1161.7</ele>
        <time>2022-01-30T12:06:14Z</time>
      </trkpt>
      <trkpt lat="41.8850880" lon="-2.7481780">
        <ele>1161.7</ele>
        <time>2022-01-30T12:06:15Z</time>
      </trkpt>
      <trkpt lat="41.8851050" lon="-2.7481680">
        <ele>1161.7</ele>
        <time>2022-01-30T12:06:16Z</time>
      </trkpt>
      <trkpt lat="41.8851200" lon="-2.7481580">
        <ele>1161.7</ele>
        <time>2022-01-30T12:06:17Z</time>
      </trkpt>
      <trkpt lat="41.8851370" lon="-2.7481520">
        <ele>1161.7</ele>
        <time>2022-01-30T12:06:18Z</time>
      </trkpt>
      <trkpt lat="41.8851500" lon="-2.7481400">
        <ele>1161.7</ele>
        <time>2022-01-30T12:06:19Z</time>
      </trkpt>
      <trkpt lat="41.8851650" lon="-2.7481270">
        <ele>1162.8</ele>
        <time>2022-01-30T12:06:20Z</time>
      </trkpt>
      <trkpt lat="41.8851780" lon="-2.7481100">
        <ele>1162.1</ele>
        <time>2022-01-30T12:06:21Z</time>
      </trkpt>
      <trkpt lat="41.8851900" lon="-2.7480930">
        <ele>1162.1</ele>
        <time>2022-01-30T12:06:22Z</time>
      </trkpt>
      <trkpt lat="41.8852030" lon="-2.7480770">
        <ele>1162.1</ele>
        <time>2022-01-30T12:06:23Z</time>
      </trkpt>
      <trkpt lat="41.8852130" lon="-2.7480580">
        <ele>1162.1</ele>
        <time>2022-01-30T12:06:24Z</time>
      </trkpt>
      <trkpt lat="41.8852250" lon="-2.7480420">
        <ele>1162.1</ele>
        <time>2022-01-30T12:06:25Z</time>
      </trkpt>
      <trkpt lat="41.8852370" lon="-2.7480270">
        <ele>1162.1</ele>
        <time>2022-01-30T12:06:26Z</time>
      </trkpt>
      <trkpt lat="41.8852500" lon="-2.7480120">
        <ele>1162.1</ele>
        <time>2022-01-30T12:06:27Z</time>
      </trkpt>
      <trkpt lat="41.8852630" lon="-2.7479980">
        <ele>1162.1</ele>
        <time>2022-01-30T12:06:28Z</time>
      </trkpt>
      <trkpt lat="41.8852770" lon="-2.7479830">
        <ele>1162.1</ele>
        <time>2022-01-30T12:06:29Z</time>
      </trkpt>
      <trkpt lat="41.8852920" lon="-2.7479670">
        <ele>1163.3</ele>
        <time>2022-01-30T12:06:30Z</time>
      </trkpt>
      <trkpt lat="41.8853070" lon="-2.7479550">
        <ele>1163.0</ele>
        <time>2022-01-30T12:06:31Z</time>
      </trkpt>
      <trkpt lat="41.8853180" lon="-2.7479400">
        <ele>1163.0</ele>
        <time>2022-01-30T12:06:32Z</time>
      </trkpt>
      <trkpt lat="41.8853300" lon="-2.7479280">
        <ele>1163.0</ele>
        <time>2022-01-30T12:06:33Z</time>
      </trkpt>
      <trkpt lat="41.8853420" lon="-2.7479180">
        <ele>1163.0</ele>
        <time>2022-01-30T12:06:34Z</time>
      </trkpt>
      <trkpt lat="41.8853550" lon="-2.7479070">
        <ele>1163.0</ele>
        <time>2022-01-30T12:06:35Z</time>
      </trkpt>
      <trkpt lat="41.8853680" lon="-2.7478950">
        <ele>1163.0</ele>
        <time>2022-01-30T12:06:36Z</time>
      </trkpt>
      <trkpt lat="41.8853820" lon="-2.7478830">
        <ele>1163.0</ele>
        <time>2022-01-30T12:06:37Z</time>
      </trkpt>
      <trkpt lat="41.8853950" lon="-2.7478730">
        <ele>1163.0</ele>
        <time>2022-01-30T12:06:38Z</time>
      </trkpt>
      <trkpt lat="41.8854070" lon="-2.7478630">
        <ele>1163.0</ele>
        <time>2022-01-30T12:06:39Z</time>
      </trkpt>
      <trkpt lat="41.8854170" lon="-2.7478480">
        <ele>1164.0</ele>
        <time>2022-01-30T12:06:40Z</time>
      </trkpt>
      <trkpt lat="41.8854280" lon="-2.7478330">
        <ele>1164.0</ele>
        <time>2022-01-30T12:06:41Z</time>
      </trkpt>
      <trkpt lat="41.8854350" lon="-2.7478180">
        <ele>1164.0</ele>
        <time>2022-01-30T12:06:42Z</time>
      </trkpt>
      <trkpt lat="41.8854450" lon="-2.7477950">
        <ele>1164.0</ele>
        <time>2022-01-30T12:06:43Z</time>
      </trkpt>
      <trkpt lat="41.8854530" lon="-2.7477750">
        <ele>1164.3</ele>
        <time>2022-01-30T12:06:44Z</time>
      </trkpt>
      <trkpt lat="41.8854600" lon="-2.7477570">
        <ele>1164.3</ele>
        <time>2022-01-30T12:06:45Z</time>
      </trkpt>
      <trkpt lat="41.8854700" lon="-2.7477400">
        <ele>1164.3</ele>
        <time>2022-01-30T12:06:46Z</time>
      </trkpt>
      <trkpt lat="41.8854850" lon="-2.7477270">
        <ele>1164.3</ele>
        <time>2022-01-30T12:06:47Z</time>
      </trkpt>
      <trkpt lat="41.8855020" lon="-2.7477180">
        <ele>1164.3</ele>
        <time>2022-01-30T12:06:48Z</time>
      </trkpt>
      <trkpt lat="41.8855200" lon="-2.7477080">
        <ele>1164.3</ele>
        <time>2022-01-30T12:06:49Z</time>
      </trkpt>
      <trkpt lat="41.8855370" lon="-2.7477020">
        <ele>1164.3</ele>
        <time>2022-01-30T12:06:50Z</time>
      </trkpt>
      <trkpt lat="41.8855530" lon="-2.7476900">
        <ele>1165.4</ele>
        <time>2022-01-30T12:06:51Z</time>
      </trkpt>
      <trkpt lat="41.8855680" lon="-2.7476780">
        <ele>1165.4</ele>
        <time>2022-01-30T12:06:52Z</time>
      </trkpt>
      <trkpt lat="41.8855820" lon="-2.7476680">
        <ele>1165.4</ele>
        <time>2022-01-30T12:06:53Z</time>
      </trkpt>
      <trkpt lat="41.8855970" lon="-2.7476570">
        <ele>1165.4</ele>
        <time>2022-01-30T12:06:54Z</time>
      </trkpt>
      <trkpt lat="41.8856150" lon="-2.7476450">
        <ele>1165.4</ele>
        <time>2022-01-30T12:06:55Z</time>
      </trkpt>
      <trkpt lat="41.8856280" lon="-2.7476320">
        <ele>1165.4</ele>
        <time>2022-01-30T12:06:56Z</time>
      </trkpt>
      <trkpt lat="41.8856420" lon="-2.7476200">
        <ele>1165.4</ele>
        <time>2022-01-30T12:06:57Z</time>
      </trkpt>
      <trkpt lat="41.8856570" lon="-2.7476070">
        <ele>1165.9</ele>
        <time>2022-01-30T12:06:58Z</time>
      </trkpt>
      <trkpt lat="41.8856720" lon="-2.7475950">
        <ele>1166.8</ele>
        <time>2022-01-30T12:06:59Z</time>
      </trkpt>
      <trkpt lat="41.8856820" lon="-2.7475770">
        <ele>1166.8</ele>
        <time>2022-01-30T12:07:00Z</time>
      </trkpt>
      <trkpt lat="41.8856900" lon="-2.7475550">
        <ele>1166.8</ele>
        <time>2022-01-30T12:07:01Z</time>
      </trkpt>
      <trkpt lat="41.8857000" lon="-2.7475370">
        <ele>1166.8</ele>
        <time>2022-01-30T12:07:02Z</time>
      </trkpt>
      <trkpt lat="41.8857080" lon="-2.7475180">
        <ele>1166.8</ele>
        <time>2022-01-30T12:07:03Z</time>
      </trkpt>
      <trkpt lat="41.8857180" lon="-2.7475050">
        <ele>1166.8</ele>
        <time>2022-01-30T12:07:04Z</time>
      </trkpt>
      <trkpt lat="41.8857280" lon="-2.7474900">
        <ele>1166.8</ele>
        <time>2022-01-30T12:07:05Z</time>
      </trkpt>
      <trkpt lat="41.8857430" lon="-2.7474780">
        <ele>1166.8</ele>
        <time>2022-01-30T12:07:06Z</time>
      </trkpt>
      <trkpt lat="41.8857570" lon="-2.7474700">
        <ele>1166.8</ele>
        <time>2022-01-30T12:07:07Z</time>
      </trkpt>
      <trkpt lat="41.8857680" lon="-2.7474600">
        <ele>1166.8</ele>
        <time>2022-01-30T12:07:08Z</time>
      </trkpt>
      <trkpt lat="41.8857830" lon="-2.7474500">
        <ele>1166.8</ele>
        <time>2022-01-30T12:07:09Z</time>
      </trkpt>
      <trkpt lat="41.8857970" lon="-2.7474420">
        <ele>1167.7</ele>
        <time>2022-01-30T12:07:10Z</time>
      </trkpt>
      <trkpt lat="41.8858100" lon="-2.7474320">
        <ele>1168.4</ele>
        <time>2022-01-30T12:07:11Z</time>
      </trkpt>
      <trkpt lat="41.8858230" lon="-2.7474180">
        <ele>1168.4</ele>
        <time>2022-01-30T12:07:12Z</time>
      </trkpt>
      <trkpt lat="41.8858370" lon="-2.7474020">
        <ele>1168.4</ele>
        <time>2022-01-30T12:07:13Z</time>
      </trkpt>
      <trkpt lat="41.8858480" lon="-2.7473850">
        <ele>1168.4</ele>
        <time>2022-01-30T12:07:14Z</time>
      </trkpt>
      <trkpt lat="41.8858620" lon="-2.7473720">
        <ele>1168.4</ele>
        <time>2022-01-30T12:07:15Z</time>
      </trkpt>
      <trkpt lat="41.8858730" lon="-2.7473550">
        <ele>1168.4</ele>
        <time>2022-01-30T12:07:16Z</time>
      </trkpt>
      <trkpt lat="41.8858870" lon="-2.7473380">
        <ele>1168.4</ele>
        <time>2022-01-30T12:07:17Z</time>
      </trkpt>
      <trkpt lat="41.8859000" lon="-2.7473220">
        <ele>1168.4</ele>
        <time>2022-01-30T12:07:18Z</time>
      </trkpt>
      <trkpt lat="41.8859150" lon="-2.7473000">
        <ele>1168.4</ele>
        <time>2022-01-30T12:07:19Z</time>
      </trkpt>
      <trkpt lat="41.8859320" lon="-2.7472800">
        <ele>1169.3</ele>
        <time>2022-01-30T12:07:20Z</time>
      </trkpt>
      <trkpt lat="41.8859450" lon="-2.7472630">
        <ele>1170.2</ele>
        <time>2022-01-30T12:07:21Z</time>
      </trkpt>
      <trkpt lat="41.8859630" lon="-2.7472420">
        <ele>1170.2</ele>
        <time>2022-01-30T12:07:22Z</time>
      </trkpt>
      <trkpt lat="41.8859820" lon="-2.7472220">
        <ele>1170.2</ele>
        <time>2022-01-30T12:07:23Z</time>
      </trkpt>
      <trkpt lat="41.8859970" lon="-2.7472000">
        <ele>1170.2</ele>
        <time>2022-01-30T12:07:24Z</time>
      </trkpt>
      <trkpt lat="41.8860130" lon="-2.7471820">
        <ele>1170.2</ele>
        <time>2022-01-30T12:07:25Z</time>
      </trkpt>
      <trkpt lat="41.8860250" lon="-2.7471620">
        <ele>1170.2</ele>
        <time>2022-01-30T12:07:26Z</time>
      </trkpt>
      <trkpt lat="41.8860370" lon="-2.7471500">
        <ele>1170.2</ele>
        <time>2022-01-30T12:07:27Z</time>
      </trkpt>
      <trkpt lat="41.8860520" lon="-2.7471370">
        <ele>1171.4</ele>
        <time>2022-01-30T12:07:28Z</time>
      </trkpt>
      <trkpt lat="41.8860650" lon="-2.7471270">
        <ele>1171.4</ele>
        <time>2022-01-30T12:07:29Z</time>
      </trkpt>
      <trkpt lat="41.8860770" lon="-2.7471130">
        <ele>1171.4</ele>
        <time>2022-01-30T12:07:30Z</time>
      </trkpt>
      <trkpt lat="41.8860880" lon="-2.7470970">
        <ele>1172.4</ele>
        <time>2022-01-30T12:07:31Z</time>
      </trkpt>
      <trkpt lat="41.8861020" lon="-2.7470820">
        <ele>1172.4</ele>
        <time>2022-01-30T12:07:32Z</time>
      </trkpt>
      <trkpt lat="41.8861150" lon="-2.7470650">
        <ele>1172.4</ele>
        <time>2022-01-30T12:07:33Z</time>
      </trkpt>
      <trkpt lat="41.8861400" lon="-2.7470420">
        <ele>1172.4</ele>
        <time>2022-01-30T12:07:34Z</time>
      </trkpt>
      <trkpt lat="41.8861650" lon="-2.7470280">
        <ele>1172.4</ele>
        <time>2022-01-30T12:07:35Z</time>
      </trkpt>
      <trkpt lat="41.8861830" lon="-2.7470170">
        <ele>1173.6</ele>
        <time>2022-01-30T12:07:36Z</time>
      </trkpt>
      <trkpt lat="41.8861980" lon="-2.7469950">
        <ele>1173.6</ele>
        <time>2022-01-30T12:07:37Z</time>
      </trkpt>
      <trkpt lat="41.8862100" lon="-2.7469730">
        <ele>1173.6</ele>
        <time>2022-01-30T12:07:38Z</time>
      </trkpt>
      <trkpt lat="41.8862220" lon="-2.7469550">
        <ele>1173.6</ele>
        <time>2022-01-30T12:07:39Z</time>
      </trkpt>
      <trkpt lat="41.8862330" lon="-2.7469400">
        <ele>1173.6</ele>
        <time>2022-01-30T12:07:40Z</time>
      </trkpt>
      <trkpt lat="41.8862450" lon="-2.7469230">
        <ele>1174.6</ele>
        <time>2022-01-30T12:07:41Z</time>
      </trkpt>
      <trkpt lat="41.8862580" lon="-2.7469100">
        <ele>1174.6</ele>
        <time>2022-01-30T12:07:42Z</time>
      </trkpt>
      <trkpt lat="41.8862720" lon="-2.7468950">
        <ele>1174.6</ele>
        <time>2022-01-30T12:07:43Z</time>
      </trkpt>
      <trkpt lat="41.8862830" lon="-2.7468830">
        <ele>1174.6</ele>
        <time>2022-01-30T12:07:44Z</time>
      </trkpt>
      <trkpt lat="41.8862870" lon="-2.7468750">
        <ele>1174.6</ele>
        <time>2022-01-30T12:07:45Z</time>
      </trkpt>
      <trkpt lat="41.8862930" lon="-2.7468620">
        <ele>1174.6</ele>
        <time>2022-01-30T12:07:46Z</time>
      </trkpt>
      <trkpt lat="41.8863020" lon="-2.7468480">
        <ele>1174.6</ele>
        <time>2022-01-30T12:07:47Z</time>
      </trkpt>
      <trkpt lat="41.8863120" lon="-2.7468350">
        <ele>1175.7</ele>
        <time>2022-01-30T12:07:48Z</time>
      </trkpt>
      <trkpt lat="41.8863200" lon="-2.7468220">
        <ele>1175.7</ele>
        <time>2022-01-30T12:07:49Z</time>
      </trkpt>
      <trkpt lat="41.8863280" lon="-2.7468120">
        <ele>1175.7</ele>
        <time>2022-01-30T12:07:50Z</time>
      </trkpt>
      <trkpt lat="41.8863330" lon="-2.7467980">
        <ele>1175.7</ele>
        <time>2022-01-30T12:07:51Z</time>
      </trkpt>
      <trkpt lat="41.8863400" lon="-2.7467820">
        <ele>1175.7</ele>
        <time>2022-01-30T12:07:52Z</time>
      </trkpt>
      <trkpt lat="41.8863570" lon="-2.7467480">
        <ele>1177.0</ele>
        <time>2022-01-30T12:07:53Z</time>
      </trkpt>
      <trkpt lat="41.8863670" lon="-2.7467220">
        <ele>1177.0</ele>
        <time>2022-01-30T12:07:54Z</time>
      </trkpt>
      <trkpt lat="41.8863750" lon="-2.7467020">
        <ele>1177.0</ele>
        <time>2022-01-30T12:07:55Z</time>
      </trkpt>
      <trkpt lat="41.8863830" lon="-2.7466850">
        <ele>1177.0</ele>
        <time>2022-01-30T12:07:56Z</time>
      </trkpt>
      <trkpt lat="41.8863950" lon="-2.7466770">
        <ele>1177.0</ele>
        <time>2022-01-30T12:07:57Z</time>
      </trkpt>
      <trkpt lat="41.8864050" lon="-2.7466600">
        <ele>1177.0</ele>
        <time>2022-01-30T12:07:58Z</time>
      </trkpt>
      <trkpt lat="41.8864150" lon="-2.7466450">
        <ele>1177.0</ele>
        <time>2022-01-30T12:07:59Z</time>
      </trkpt>
      <trkpt lat="41.8864280" lon="-2.7466320">
        <ele>1177.0</ele>
        <time>2022-01-30T12:08:00Z</time>
      </trkpt>
      <trkpt lat="41.8864330" lon="-2.7466170">
        <ele>1178.5</ele>
        <time>2022-01-30T12:08:01Z</time>
      </trkpt>
      <trkpt lat="41.8864420" lon="-2.7466000">
        <ele>1178.5</ele>
        <time>2022-01-30T12:08:02Z</time>
      </trkpt>
      <trkpt lat="41.8864450" lon="-2.7465820">
        <ele>1179.5</ele>
        <time>2022-01-30T12:08:03Z</time>
      </trkpt>
      <trkpt lat="41.8864480" lon="-2.7465630">
        <ele>1179.5</ele>
        <time>2022-01-30T12:08:04Z</time>
      </trkpt>
      <trkpt lat="41.8864570" lon="-2.7465420">
        <ele>1179.5</ele>
        <time>2022-01-30T12:08:05Z</time>
      </trkpt>
      <trkpt lat="41.8864670" lon="-2.7465200">
        <ele>1179.5</ele>
        <time>2022-01-30T12:08:06Z</time>
      </trkpt>
      <trkpt lat="41.8864770" lon="-2.7465000">
        <ele>1179.5</ele>
        <time>2022-01-30T12:08:07Z</time>
      </trkpt>
      <trkpt lat="41.8864880" lon="-2.7464830">
        <ele>1179.5</ele>
        <time>2022-01-30T12:08:08Z</time>
      </trkpt>
      <trkpt lat="41.8864980" lon="-2.7464670">
        <ele>1179.5</ele>
        <time>2022-01-30T12:08:09Z</time>
      </trkpt>
      <trkpt lat="41.8865070" lon="-2.7464530">
        <ele>1179.5</ele>
        <time>2022-01-30T12:08:10Z</time>
      </trkpt>
      <trkpt lat="41.8865180" lon="-2.7464420">
        <ele>1179.5</ele>
        <time>2022-01-30T12:08:11Z</time>
      </trkpt>
      <trkpt lat="41.8865300" lon="-2.7464230">
        <ele>1179.5</ele>
        <time>2022-01-30T12:08:12Z</time>
      </trkpt>
      <trkpt lat="41.8865400" lon="-2.7464020">
        <ele>1180.6</ele>
        <time>2022-01-30T12:08:13Z</time>
      </trkpt>
      <trkpt lat="41.8865500" lon="-2.7463830">
        <ele>1180.6</ele>
        <time>2022-01-30T12:08:14Z</time>
      </trkpt>
      <trkpt lat="41.8865650" lon="-2.7463700">
        <ele>1181.7</ele>
        <time>2022-01-30T12:08:15Z</time>
      </trkpt>
      <trkpt lat="41.8865730" lon="-2.7463500">
        <ele>1181.7</ele>
        <time>2022-01-30T12:08:16Z</time>
      </trkpt>
      <trkpt lat="41.8865880" lon="-2.7463320">
        <ele>1181.7</ele>
        <time>2022-01-30T12:08:17Z</time>
      </trkpt>
      <trkpt lat="41.8865980" lon="-2.7463200">
        <ele>1181.7</ele>
        <time>2022-01-30T12:08:18Z</time>
      </trkpt>
      <trkpt lat="41.8866080" lon="-2.7463080">
        <ele>1181.7</ele>
        <time>2022-01-30T12:08:19Z</time>
      </trkpt>
      <trkpt lat="41.8866180" lon="-2.7462970">
        <ele>1181.7</ele>
        <time>2022-01-30T12:08:20Z</time>
      </trkpt>
      <trkpt lat="41.8866300" lon="-2.7462900">
        <ele>1181.7</ele>
        <time>2022-01-30T12:08:21Z</time>
      </trkpt>
      <trkpt lat="41.8866380" lon="-2.7462880">
        <ele>1181.7</ele>
        <time>2022-01-30T12:08:22Z</time>
      </trkpt>
      <trkpt lat="41.8866480" lon="-2.7462900">
        <ele>1181.7</ele>
        <time>2022-01-30T12:08:23Z</time>
      </trkpt>
      <trkpt lat="41.8866600" lon="-2.7462920">
        <ele>1181.7</ele>
        <time>2022-01-30T12:08:24Z</time>
      </trkpt>
      <trkpt lat="41.8866750" lon="-2.7462930">
        <ele>1181.7</ele>
        <time>2022-01-30T12:08:25Z</time>
      </trkpt>
      <trkpt lat="41.8866870" lon="-2.7462930">
        <ele>1181.7</ele>
        <time>2022-01-30T12:08:26Z</time>
      </trkpt>
      <trkpt lat="41.8867000" lon="-2.7462930">
        <ele>1183.2</ele>
        <time>2022-01-30T12:08:27Z</time>
      </trkpt>
      <trkpt lat="41.8867150" lon="-2.7462950">
        <ele>1183.2</ele>
        <time>2022-01-30T12:08:28Z</time>
      </trkpt>
      <trkpt lat="41.8867350" lon="-2.7462930">
        <ele>1183.2</ele>
        <time>2022-01-30T12:08:29Z</time>
      </trkpt>
      <trkpt lat="41.8867520" lon="-2.7462930">
        <ele>1183.2</ele>
        <time>2022-01-30T12:08:30Z</time>
      </trkpt>
      <trkpt lat="41.8867650" lon="-2.7462920">
        <ele>1183.2</ele>
        <time>2022-01-30T12:08:31Z</time>
      </trkpt>
      <trkpt lat="41.8867770" lon="-2.7462870">
        <ele>1183.2</ele>
        <time>2022-01-30T12:08:32Z</time>
      </trkpt>
      <trkpt lat="41.8867920" lon="-2.7462780">
        <ele>1183.2</ele>
        <time>2022-01-30T12:08:33Z</time>
      </trkpt>
      <trkpt lat="41.8868050" lon="-2.7462680">
        <ele>1183.2</ele>
        <time>2022-01-30T12:08:34Z</time>
      </trkpt>
      <trkpt lat="41.8868200" lon="-2.7462520">
        <ele>1184.7</ele>
        <time>2022-01-30T12:08:35Z</time>
      </trkpt>
      <trkpt lat="41.8868330" lon="-2.7462380">
        <ele>1185.9</ele>
        <time>2022-01-30T12:08:36Z</time>
      </trkpt>
      <trkpt lat="41.8868420" lon="-2.7462280">
        <ele>1185.9</ele>
        <time>2022-01-30T12:08:37Z</time>
      </trkpt>
      <trkpt lat="41.8868530" lon="-2.7462130">
        <ele>1185.9</ele>
        <time>2022-01-30T12:08:38Z</time>
      </trkpt>
      <trkpt lat="41.8868630" lon="-2.7462030">
        <ele>1185.9</ele>
        <time>2022-01-30T12:08:39Z</time>
      </trkpt>
      <trkpt lat="41.8868730" lon="-2.7461920">
        <ele>1185.9</ele>
        <time>2022-01-30T12:08:40Z</time>
      </trkpt>
      <trkpt lat="41.8868850" lon="-2.7461800">
        <ele>1185.9</ele>
        <time>2022-01-30T12:08:41Z</time>
      </trkpt>
      <trkpt lat="41.8869000" lon="-2.7461720">
        <ele>1185.9</ele>
        <time>2022-01-30T12:08:42Z</time>
      </trkpt>
      <trkpt lat="41.8869150" lon="-2.7461670">
        <ele>1185.9</ele>
        <time>2022-01-30T12:08:43Z</time>
      </trkpt>
      <trkpt lat="41.8869300" lon="-2.7461580">
        <ele>1185.9</ele>
        <time>2022-01-30T12:08:44Z</time>
      </trkpt>
      <trkpt lat="41.8869420" lon="-2.7461500">
        <ele>1185.9</ele>
        <time>2022-01-30T12:08:45Z</time>
      </trkpt>
      <trkpt lat="41.8869520" lon="-2.7461400">
        <ele>1187.5</ele>
        <time>2022-01-30T12:08:46Z</time>
      </trkpt>
      <trkpt lat="41.8869600" lon="-2.7461280">
        <ele>1187.5</ele>
        <time>2022-01-30T12:08:47Z</time>
      </trkpt>
      <trkpt lat="41.8869680" lon="-2.7461150">
        <ele>1187.5</ele>
        <time>2022-01-30T12:08:48Z</time>
      </trkpt>
      <trkpt lat="41.8869770" lon="-2.7461030">
        <ele>1187.5</ele>
        <time>2022-01-30T12:08:49Z</time>
      </trkpt>
      <trkpt lat="41.8869850" lon="-2.7460880">
        <ele>1187.5</ele>
        <time>2022-01-30T12:08:50Z</time>
      </trkpt>
      <trkpt lat="41.8869920" lon="-2.7460700">
        <ele>1187.5</ele>
        <time>2022-01-30T12:08:51Z</time>
      </trkpt>
      <trkpt lat="41.8870020" lon="-2.7460500">
        <ele>1188.5</ele>
        <time>2022-01-30T12:08:52Z</time>
      </trkpt>
      <trkpt lat="41.8870170" lon="-2.7460370">
        <ele>1188.5</ele>
        <time>2022-01-30T12:08:53Z</time>
      </trkpt>
      <trkpt lat="41.8870270" lon="-2.7460180">
        <ele>1188.5</ele>
        <time>2022-01-30T12:08:54Z</time>
      </trkpt>
      <trkpt lat="41.8870380" lon="-2.7460030">
        <ele>1188.5</ele>
        <time>2022-01-30T12:08:55Z</time>
      </trkpt>
      <trkpt lat="41.8870480" lon="-2.7459900">
        <ele>1188.5</ele>
        <time>2022-01-30T12:08:56Z</time>
      </trkpt>
      <trkpt lat="41.8870600" lon="-2.7459800">
        <ele>1188.5</ele>
        <time>2022-01-30T12:08:57Z</time>
      </trkpt>
      <trkpt lat="41.8870720" lon="-2.7459750">
        <ele>1189.6</ele>
        <time>2022-01-30T12:08:58Z</time>
      </trkpt>
      <trkpt lat="41.8870850" lon="-2.7459730">
        <ele>1189.6</ele>
        <time>2022-01-30T12:08:59Z</time>
      </trkpt>
      <trkpt lat="41.8871000" lon="-2.7459720">
        <ele>1189.6</ele>
        <time>2022-01-30T12:09:00Z</time>
      </trkpt>
      <trkpt lat="41.8871120" lon="-2.7459700">
        <ele>1189.6</ele>
        <time>2022-01-30T12:09:01Z</time>
      </trkpt>
      <trkpt lat="41.8871270" lon="-2.7459700">
        <ele>1189.6</ele>
        <time>2022-01-30T12:09:02Z</time>
      </trkpt>
      <trkpt lat="41.8871400" lon="-2.7459680">
        <ele>1189.6</ele>
        <time>2022-01-30T12:09:03Z</time>
      </trkpt>
      <trkpt lat="41.8871520" lon="-2.7459650">
        <ele>1189.6</ele>
        <time>2022-01-30T12:09:04Z</time>
      </trkpt>
      <trkpt lat="41.8871630" lon="-2.7459630">
        <ele>1189.6</ele>
        <time>2022-01-30T12:09:05Z</time>
      </trkpt>
      <trkpt lat="41.8871750" lon="-2.7459600">
        <ele>1189.6</ele>
        <time>2022-01-30T12:09:06Z</time>
      </trkpt>
      <trkpt lat="41.8871880" lon="-2.7459530">
        <ele>1189.6</ele>
        <time>2022-01-30T12:09:07Z</time>
      </trkpt>
      <trkpt lat="41.8872020" lon="-2.7459450">
        <ele>1191.1</ele>
        <time>2022-01-30T12:09:08Z</time>
      </trkpt>
      <trkpt lat="41.8872130" lon="-2.7459370">
        <ele>1191.1</ele>
        <time>2022-01-30T12:09:09Z</time>
      </trkpt>
      <trkpt lat="41.8872270" lon="-2.7459280">
        <ele>1191.1</ele>
        <time>2022-01-30T12:09:10Z</time>
      </trkpt>
      <trkpt lat="41.8872380" lon="-2.7459220">
        <ele>1191.1</ele>
        <time>2022-01-30T12:09:11Z</time>
      </trkpt>
      <trkpt lat="41.8872480" lon="-2.7459100">
        <ele>1191.1</ele>
        <time>2022-01-30T12:09:12Z</time>
      </trkpt>
      <trkpt lat="41.8872570" lon="-2.7458970">
        <ele>1191.1</ele>
        <time>2022-01-30T12:09:13Z</time>
      </trkpt>
      <trkpt lat="41.8872620" lon="-2.7458830">
        <ele>1191.8</ele>
        <time>2022-01-30T12:09:14Z</time>
      </trkpt>
      <trkpt lat="41.8872670" lon="-2.7458700">
        <ele>1191.8</ele>
        <time>2022-01-30T12:09:15Z</time>
      </trkpt>
      <trkpt lat="41.8872720" lon="-2.7458570">
        <ele>1191.8</ele>
        <time>2022-01-30T12:09:16Z</time>
      </trkpt>
      <trkpt lat="41.8872780" lon="-2.7458420">
        <ele>1191.8</ele>
        <time>2022-01-30T12:09:17Z</time>
      </trkpt>
      <trkpt lat="41.8872850" lon="-2.7458270">
        <ele>1191.8</ele>
        <time>2022-01-30T12:09:18Z</time>
      </trkpt>
      <trkpt lat="41.8872930" lon="-2.7458170">
        <ele>1191.8</ele>
        <time>2022-01-30T12:09:19Z</time>
      </trkpt>
      <trkpt lat="41.8873050" lon="-2.7458120">
        <ele>1191.8</ele>
        <time>2022-01-30T12:09:20Z</time>
      </trkpt>
      <trkpt lat="41.8873170" lon="-2.7458030">
        <ele>1191.8</ele>
        <time>2022-01-30T12:09:21Z</time>
      </trkpt>
      <trkpt lat="41.8873270" lon="-2.7457970">
        <ele>1193.1</ele>
        <time>2022-01-30T12:09:22Z</time>
      </trkpt>
      <trkpt lat="41.8873370" lon="-2.7457920">
        <ele>1193.1</ele>
        <time>2022-01-30T12:09:23Z</time>
      </trkpt>
      <trkpt lat="41.8873480" lon="-2.7457850">
        <ele>1193.1</ele>
        <time>2022-01-30T12:09:24Z</time>
      </trkpt>
      <trkpt lat="41.8873580" lon="-2.7457770">
        <ele>1193.1</ele>
        <time>2022-01-30T12:09:25Z</time>
      </trkpt>
      <trkpt lat="41.8873700" lon="-2.7457670">
        <ele>1193.1</ele>
        <time>2022-01-30T12:09:26Z</time>
      </trkpt>
      <trkpt lat="41.8873830" lon="-2.7457580">
        <ele>1193.1</ele>
        <time>2022-01-30T12:09:27Z</time>
      </trkpt>
      <trkpt lat="41.8873930" lon="-2.7457480">
        <ele>1193.1</ele>
        <time>2022-01-30T12:09:28Z</time>
      </trkpt>
      <trkpt lat="41.8874030" lon="-2.7457370">
        <ele>1193.1</ele>
        <time>2022-01-30T12:09:29Z</time>
      </trkpt>
      <trkpt lat="41.8874120" lon="-2.7457250">
        <ele>1193.1</ele>
        <time>2022-01-30T12:09:30Z</time>
      </trkpt>
      <trkpt lat="41.8874220" lon="-2.7457100">
        <ele>1193.9</ele>
        <time>2022-01-30T12:09:31Z</time>
      </trkpt>
      <trkpt lat="41.8874300" lon="-2.7456950">
        <ele>1193.9</ele>
        <time>2022-01-30T12:09:32Z</time>
      </trkpt>
      <trkpt lat="41.8874370" lon="-2.7456780">
        <ele>1193.9</ele>
        <time>2022-01-30T12:09:33Z</time>
      </trkpt>
      <trkpt lat="41.8874430" lon="-2.7456630">
        <ele>1193.9</ele>
        <time>2022-01-30T12:09:34Z</time>
      </trkpt>
      <trkpt lat="41.8874520" lon="-2.7456480">
        <ele>1193.9</ele>
        <time>2022-01-30T12:09:35Z</time>
      </trkpt>
      <trkpt lat="41.8874600" lon="-2.7456330">
        <ele>1195.2</ele>
        <time>2022-01-30T12:09:36Z</time>
      </trkpt>
      <trkpt lat="41.8874700" lon="-2.7456200">
        <ele>1195.2</ele>
        <time>2022-01-30T12:09:37Z</time>
      </trkpt>
      <trkpt lat="41.8874800" lon="-2.7456080">
        <ele>1195.2</ele>
        <time>2022-01-30T12:09:38Z</time>
      </trkpt>
      <trkpt lat="41.8874880" lon="-2.7455980">
        <ele>1195.2</ele>
        <time>2022-01-30T12:09:39Z</time>
      </trkpt>
      <trkpt lat="41.8875000" lon="-2.7455870">
        <ele>1195.2</ele>
        <time>2022-01-30T12:09:40Z</time>
      </trkpt>
      <trkpt lat="41.8875080" lon="-2.7455720">
        <ele>1195.2</ele>
        <time>2022-01-30T12:09:41Z</time>
      </trkpt>
      <trkpt lat="41.8875180" lon="-2.7455580">
        <ele>1195.2</ele>
        <time>2022-01-30T12:09:42Z</time>
      </trkpt>
      <trkpt lat="41.8875250" lon="-2.7455450">
        <ele>1196.2</ele>
        <time>2022-01-30T12:09:43Z</time>
      </trkpt>
      <trkpt lat="41.8875320" lon="-2.7455320">
        <ele>1196.2</ele>
        <time>2022-01-30T12:09:44Z</time>
      </trkpt>
      <trkpt lat="41.8875400" lon="-2.7455200">
        <ele>1196.2</ele>
        <time>2022-01-30T12:09:45Z</time>
      </trkpt>
      <trkpt lat="41.8875480" lon="-2.7455070">
        <ele>1196.2</ele>
        <time>2022-01-30T12:09:46Z</time>
      </trkpt>
      <trkpt lat="41.8875570" lon="-2.7454970">
        <ele>1196.2</ele>
        <time>2022-01-30T12:09:47Z</time>
      </trkpt>
      <trkpt lat="41.8875650" lon="-2.7454850">
        <ele>1196.2</ele>
        <time>2022-01-30T12:09:48Z</time>
      </trkpt>
      <trkpt lat="41.8875730" lon="-2.7454730">
        <ele>1196.2</ele>
        <time>2022-01-30T12:09:49Z</time>
      </trkpt>
      <trkpt lat="41.8875780" lon="-2.7454600">
        <ele>1196.2</ele>
        <time>2022-01-30T12:09:50Z</time>
      </trkpt>
      <trkpt lat="41.8875870" lon="-2.7454480">
        <ele>1197.7</ele>
        <time>2022-01-30T12:09:51Z</time>
      </trkpt>
      <trkpt lat="41.8875950" lon="-2.7454320">
        <ele>1197.7</ele>
        <time>2022-01-30T12:09:52Z</time>
      </trkpt>
      <trkpt lat="41.8876000" lon="-2.7454150">
        <ele>1197.7</ele>
        <time>2022-01-30T12:09:53Z</time>
      </trkpt>
      <trkpt lat="41.8876050" lon="-2.7453980">
        <ele>1197.7</ele>
        <time>2022-01-30T12:09:54Z</time>
      </trkpt>
      <trkpt lat="41.8876130" lon="-2.7453850">
        <ele>1197.7</ele>
        <time>2022-01-30T12:09:55Z</time>
      </trkpt>
      <trkpt lat="41.8876220" lon="-2.7453730">
        <ele>1198.9</ele>
        <time>2022-01-30T12:09:56Z</time>
      </trkpt>
      <trkpt lat="41.8876320" lon="-2.7453580">
        <ele>1198.9</ele>
        <time>2022-01-30T12:09:57Z</time>
      </trkpt>
      <trkpt lat="41.8876400" lon="-2.7453450">
        <ele>1198.9</ele>
        <time>2022-01-30T12:09:58Z</time>
      </trkpt>
      <trkpt lat="41.8876480" lon="-2.7453330">
        <ele>1198.9</ele>
        <time>2022-01-30T12:09:59Z</time>
      </trkpt>
      <trkpt lat="41.8876520" lon="-2.7453200">
        <ele>1198.9</ele>
        <time>2022-01-30T12:10:00Z</time>
      </trkpt>
      <trkpt lat="41.8876550" lon="-2.7453050">
        <ele>1198.9</ele>
        <time>2022-01-30T12:10:01Z</time>
      </trkpt>
      <trkpt lat="41.8876580" lon="-2.7452880">
        <ele>1198.9</ele>
        <time>2022-01-30T12:10:02Z</time>
      </trkpt>
      <trkpt lat="41.8876630" lon="-2.7452730">
        <ele>1198.9</ele>
        <time>2022-01-30T12:10:03Z</time>
      </trkpt>
      <trkpt lat="41.8876670" lon="-2.7452570">
        <ele>1198.9</ele>
        <time>2022-01-30T12:10:04Z</time>
      </trkpt>
      <trkpt lat="41.8876720" lon="-2.7452420">
        <ele>1198.9</ele>
        <time>2022-01-30T12:10:05Z</time>
      </trkpt>
      <trkpt lat="41.8876780" lon="-2.7452280">
        <ele>1198.9</ele>
        <time>2022-01-30T12:10:06Z</time>
      </trkpt>
      <trkpt lat="41.8876870" lon="-2.7452150">
        <ele>1198.9</ele>
        <time>2022-01-30T12:10:07Z</time>
      </trkpt>
      <trkpt lat="41.8876950" lon="-2.7452000">
        <ele>1200.2</ele>
        <time>2022-01-30T12:10:08Z</time>
      </trkpt>
      <trkpt lat="41.8877000" lon="-2.7451820">
        <ele>1200.2</ele>
        <time>2022-01-30T12:10:09Z</time>
      </trkpt>
      <trkpt lat="41.8877030" lon="-2.7451630">
        <ele>1200.2</ele>
        <time>2022-01-30T12:10:10Z</time>
      </trkpt>
      <trkpt lat="41.8877050" lon="-2.7451450">
        <ele>1200.2</ele>
        <time>2022-01-30T12:10:11Z</time>
      </trkpt>
      <trkpt lat="41.8877070" lon="-2.7451280">
        <ele>1200.2</ele>
        <time>2022-01-30T12:10:12Z</time>
      </trkpt>
      <trkpt lat="41.8877070" lon="-2.7451080">
        <ele>1200.2</ele>
        <time>2022-01-30T12:10:13Z</time>
      </trkpt>
      <trkpt lat="41.8877100" lon="-2.7450880">
        <ele>1200.2</ele>
        <time>2022-01-30T12:10:14Z</time>
      </trkpt>
      <trkpt lat="41.8877120" lon="-2.7450700">
        <ele>1201.6</ele>
        <time>2022-01-30T12:10:15Z</time>
      </trkpt>
      <trkpt lat="41.8877170" lon="-2.7450530">
        <ele>1201.6</ele>
        <time>2022-01-30T12:10:16Z</time>
      </trkpt>
      <trkpt lat="41.8877220" lon="-2.7450370">
        <ele>1202.9</ele>
        <time>2022-01-30T12:10:17Z</time>
      </trkpt>
      <trkpt lat="41.8877250" lon="-2.7450180">
        <ele>1202.9</ele>
        <time>2022-01-30T12:10:18Z</time>
      </trkpt>
      <trkpt lat="41.8877320" lon="-2.7450000">
        <ele>1202.9</ele>
        <time>2022-01-30T12:10:19Z</time>
      </trkpt>
      <trkpt lat="41.8877380" lon="-2.7449850">
        <ele>1202.9</ele>
        <time>2022-01-30T12:10:20Z</time>
      </trkpt>
      <trkpt lat="41.8877420" lon="-2.7449700">
        <ele>1202.9</ele>
        <time>2022-01-30T12:10:21Z</time>
      </trkpt>
      <trkpt lat="41.8877470" lon="-2.7449570">
        <ele>1202.9</ele>
        <time>2022-01-30T12:10:22Z</time>
      </trkpt>
      <trkpt lat="41.8877500" lon="-2.7449420">
        <ele>1202.9</ele>
        <time>2022-01-30T12:10:23Z</time>
      </trkpt>
      <trkpt lat="41.8877530" lon="-2.7449270">
        <ele>1202.9</ele>
        <time>2022-01-30T12:10:24Z</time>
      </trkpt>
      <trkpt lat="41.8877550" lon="-2.7449080">
        <ele>1202.9</ele>
        <time>2022-01-30T12:10:25Z</time>
      </trkpt>
      <trkpt lat="41.8877550" lon="-2.7448880">
        <ele>1202.9</ele>
        <time>2022-01-30T12:10:26Z</time>
      </trkpt>
      <trkpt lat="41.8877530" lon="-2.7448680">
        <ele>1202.9</ele>
        <time>2022-01-30T12:10:27Z</time>
      </trkpt>
      <trkpt lat="41.8877500" lon="-2.7448500">
        <ele>1204.1</ele>
        <time>2022-01-30T12:10:28Z</time>
      </trkpt>
      <trkpt lat="41.8877480" lon="-2.7448300">
        <ele>1204.1</ele>
        <time>2022-01-30T12:10:29Z</time>
      </trkpt>
      <trkpt lat="41.8877500" lon="-2.7448120">
        <ele>1204.1</ele>
        <time>2022-01-30T12:10:30Z</time>
      </trkpt>
      <trkpt lat="41.8877550" lon="-2.7447980">
        <ele>1204.1</ele>
        <time>2022-01-30T12:10:31Z</time>
      </trkpt>
      <trkpt lat="41.8877620" lon="-2.7447850">
        <ele>1204.1</ele>
        <time>2022-01-30T12:10:32Z</time>
      </trkpt>
      <trkpt lat="41.8877650" lon="-2.7447700">
        <ele>1204.1</ele>
        <time>2022-01-30T12:10:33Z</time>
      </trkpt>
      <trkpt lat="41.8877670" lon="-2.7447550">
        <ele>1204.1</ele>
        <time>2022-01-30T12:10:34Z</time>
      </trkpt>
      <trkpt lat="41.8877730" lon="-2.7447350">
        <ele>1204.1</ele>
        <time>2022-01-30T12:10:35Z</time>
      </trkpt>
      <trkpt lat="41.8877820" lon="-2.7447170">
        <ele>1204.1</ele>
        <time>2022-01-30T12:10:36Z</time>
      </trkpt>
      <trkpt lat="41.8877900" lon="-2.7446950">
        <ele>1204.1</ele>
        <time>2022-01-30T12:10:37Z</time>
      </trkpt>
      <trkpt lat="41.8877980" lon="-2.7446770">
        <ele>1205.6</ele>
        <time>2022-01-30T12:10:38Z</time>
      </trkpt>
      <trkpt lat="41.8878050" lon="-2.7446580">
        <ele>1205.6</ele>
        <time>2022-01-30T12:10:39Z</time>
      </trkpt>
      <trkpt lat="41.8878080" lon="-2.7446420">
        <ele>1205.6</ele>
        <time>2022-01-30T12:10:40Z</time>
      </trkpt>
      <trkpt lat="41.8878100" lon="-2.7446220">
        <ele>1205.6</ele>
        <time>2022-01-30T12:10:41Z</time>
      </trkpt>
      <trkpt lat="41.8878080" lon="-2.7445980">
        <ele>1205.6</ele>
        <time>2022-01-30T12:10:42Z</time>
      </trkpt>
      <trkpt lat="41.8878120" lon="-2.7445770">
        <ele>1205.6</ele>
        <time>2022-01-30T12:10:43Z</time>
      </trkpt>
      <trkpt lat="41.8878120" lon="-2.7445650">
        <ele>1205.6</ele>
        <time>2022-01-30T12:10:44Z</time>
      </trkpt>
      <trkpt lat="41.8878120" lon="-2.7445520">
        <ele>1205.6</ele>
        <time>2022-01-30T12:10:45Z</time>
      </trkpt>
      <trkpt lat="41.8878100" lon="-2.7445380">
        <ele>1205.6</ele>
        <time>2022-01-30T12:10:46Z</time>
      </trkpt>
      <trkpt lat="41.8878120" lon="-2.7445230">
        <ele>1205.6</ele>
        <time>2022-01-30T12:10:47Z</time>
      </trkpt>
      <trkpt lat="41.8878130" lon="-2.7445080">
        <ele>1207.3</ele>
        <time>2022-01-30T12:10:48Z</time>
      </trkpt>
      <trkpt lat="41.8878150" lon="-2.7444970">
        <ele>1207.3</ele>
        <time>2022-01-30T12:10:49Z</time>
      </trkpt>
      <trkpt lat="41.8878170" lon="-2.7444800">
        <ele>1207.3</ele>
        <time>2022-01-30T12:10:50Z</time>
      </trkpt>
      <trkpt lat="41.8878150" lon="-2.7444670">
        <ele>1207.3</ele>
        <time>2022-01-30T12:10:51Z</time>
      </trkpt>
      <trkpt lat="41.8878120" lon="-2.7444530">
        <ele>1207.3</ele>
        <time>2022-01-30T12:10:52Z</time>
      </trkpt>
      <trkpt lat="41.8878080" lon="-2.7444430">
        <ele>1207.3</ele>
        <time>2022-01-30T12:10:53Z</time>
      </trkpt>
      <trkpt lat="41.8878070" lon="-2.7444330">
        <ele>1207.3</ele>
        <time>2022-01-30T12:10:54Z</time>
      </trkpt>
      <trkpt lat="41.8878030" lon="-2.7444230">
        <ele>1207.3</ele>
        <time>2022-01-30T12:10:55Z</time>
      </trkpt>
      <trkpt lat="41.8877970" lon="-2.7444100">
        <ele>1207.3</ele>
        <time>2022-01-30T12:10:56Z</time>
      </trkpt>
      <trkpt lat="41.8877900" lon="-2.7443970">
        <ele>1207.3</ele>
        <time>2022-01-30T12:10:57Z</time>
      </trkpt>
      <trkpt lat="41.8877850" lon="-2.7443800">
        <ele>1207.3</ele>
        <time>2022-01-30T12:10:58Z</time>
      </trkpt>
      <trkpt lat="41.8877850" lon="-2.7443630">
        <ele>1207.3</ele>
        <time>2022-01-30T12:10:59Z</time>
      </trkpt>
      <trkpt lat="41.8877880" lon="-2.7443480">
        <ele>1209.1</ele>
        <time>2022-01-30T12:11:00Z</time>
      </trkpt>
      <trkpt lat="41.8877920" lon="-2.7443320">
        <ele>1209.1</ele>
        <time>2022-01-30T12:11:01Z</time>
      </trkpt>
      <trkpt lat="41.8877950" lon="-2.7443130">
        <ele>1209.1</ele>
        <time>2022-01-30T12:11:02Z</time>
      </trkpt>
      <trkpt lat="41.8878020" lon="-2.7442970">
        <ele>1209.1</ele>
        <time>2022-01-30T12:11:03Z</time>
      </trkpt>
      <trkpt lat="41.8878100" lon="-2.7442830">
        <ele>1209.1</ele>
        <time>2022-01-30T12:11:04Z</time>
      </trkpt>
      <trkpt lat="41.8878180" lon="-2.7442700">
        <ele>1209.1</ele>
        <time>2022-01-30T12:11:05Z</time>
      </trkpt>
      <trkpt lat="41.8878270" lon="-2.7442550">
        <ele>1209.1</ele>
        <time>2022-01-30T12:11:06Z</time>
      </trkpt>
      <trkpt lat="41.8878350" lon="-2.7442420">
        <ele>1209.1</ele>
        <time>2022-01-30T12:11:07Z</time>
      </trkpt>
      <trkpt lat="41.8878420" lon="-2.7442250">
        <ele>1210.0</ele>
        <time>2022-01-30T12:11:08Z</time>
      </trkpt>
      <trkpt lat="41.8878500" lon="-2.7442100">
        <ele>1210.0</ele>
        <time>2022-01-30T12:11:09Z</time>
      </trkpt>
      <trkpt lat="41.8878600" lon="-2.7441970">
        <ele>1210.0</ele>
        <time>2022-01-30T12:11:10Z</time>
      </trkpt>
      <trkpt lat="41.8878730" lon="-2.7441850">
        <ele>1210.0</ele>
        <time>2022-01-30T12:11:11Z</time>
      </trkpt>
      <trkpt lat="41.8878870" lon="-2.7441770">
        <ele>1211.7</ele>
        <time>2022-01-30T12:11:12Z</time>
      </trkpt>
      <trkpt lat="41.8879020" lon="-2.7441700">
        <ele>1211.7</ele>
        <time>2022-01-30T12:11:13Z</time>
      </trkpt>
      <trkpt lat="41.8879150" lon="-2.7441670">
        <ele>1211.7</ele>
        <time>2022-01-30T12:11:14Z</time>
      </trkpt>
      <trkpt lat="41.8879320" lon="-2.7441650">
        <ele>1211.7</ele>
        <time>2022-01-30T12:11:15Z</time>
      </trkpt>
      <trkpt lat="41.8879480" lon="-2.7441670">
        <ele>1211.7</ele>
        <time>2022-01-30T12:11:16Z</time>
      </trkpt>
      <trkpt lat="41.8879620" lon="-2.7441670">
        <ele>1211.7</ele>
        <time>2022-01-30T12:11:17Z</time>
      </trkpt>
      <trkpt lat="41.8879730" lon="-2.7441650">
        <ele>1212.6</ele>
        <time>2022-01-30T12:11:18Z</time>
      </trkpt>
      <trkpt lat="41.8879880" lon="-2.7441620">
        <ele>1212.6</ele>
        <time>2022-01-30T12:11:19Z</time>
      </trkpt>
      <trkpt lat="41.8880170" lon="-2.7441520">
        <ele>1212.6</ele>
        <time>2022-01-30T12:11:20Z</time>
      </trkpt>
      <trkpt lat="41.8880330" lon="-2.7441450">
        <ele>1212.6</ele>
        <time>2022-01-30T12:11:21Z</time>
      </trkpt>
      <trkpt lat="41.8880470" lon="-2.7441420">
        <ele>1212.6</ele>
        <time>2022-01-30T12:11:22Z</time>
      </trkpt>
      <trkpt lat="41.8880630" lon="-2.7441420">
        <ele>1212.6</ele>
        <time>2022-01-30T12:11:23Z</time>
      </trkpt>
      <trkpt lat="41.8880770" lon="-2.7441400">
        <ele>1212.6</ele>
        <time>2022-01-30T12:11:24Z</time>
      </trkpt>
      <trkpt lat="41.8880870" lon="-2.7441330">
        <ele>1212.6</ele>
        <time>2022-01-30T12:11:25Z</time>
      </trkpt>
      <trkpt lat="41.8880980" lon="-2.7441270">
        <ele>1213.4</ele>
        <time>2022-01-30T12:11:26Z</time>
      </trkpt>
      <trkpt lat="41.8881120" lon="-2.7441200">
        <ele>1213.4</ele>
        <time>2022-01-30T12:11:27Z</time>
      </trkpt>
      <trkpt lat="41.8881230" lon="-2.7441130">
        <ele>1213.4</ele>
        <time>2022-01-30T12:11:28Z</time>
      </trkpt>
      <trkpt lat="41.8881320" lon="-2.7441070">
        <ele>1213.4</ele>
        <time>2022-01-30T12:11:29Z</time>
      </trkpt>
      <trkpt lat="41.8881430" lon="-2.7440980">
        <ele>1213.4</ele>
        <time>2022-01-30T12:11:30Z</time>
      </trkpt>
      <trkpt lat="41.8881550" lon="-2.7440930">
        <ele>1213.4</ele>
        <time>2022-01-30T12:11:31Z</time>
      </trkpt>
      <trkpt lat="41.8881700" lon="-2.7440880">
        <ele>1213.4</ele>
        <time>2022-01-30T12:11:32Z</time>
      </trkpt>
      <trkpt lat="41.8881880" lon="-2.7440820">
        <ele>1213.4</ele>
        <time>2022-01-30T12:11:33Z</time>
      </trkpt>
      <trkpt lat="41.8882050" lon="-2.7440750">
        <ele>1213.4</ele>
        <time>2022-01-30T12:11:34Z</time>
      </trkpt>
      <trkpt lat="41.8882230" lon="-2.7440700">
        <ele>1214.0</ele>
        <time>2022-01-30T12:11:35Z</time>
      </trkpt>
      <trkpt lat="41.8882430" lon="-2.7440630">
        <ele>1214.0</ele>
        <time>2022-01-30T12:11:36Z</time>
      </trkpt>
      <trkpt lat="41.8882630" lon="-2.7440600">
        <ele>1214.0</ele>
        <time>2022-01-30T12:11:37Z</time>
      </trkpt>
      <trkpt lat="41.8882820" lon="-2.7440530">
        <ele>1214.0</ele>
        <time>2022-01-30T12:11:38Z</time>
      </trkpt>
      <trkpt lat="41.8883020" lon="-2.7440480">
        <ele>1214.0</ele>
        <time>2022-01-30T12:11:39Z</time>
      </trkpt>
      <trkpt lat="41.8883220" lon="-2.7440450">
        <ele>1214.0</ele>
        <time>2022-01-30T12:11:40Z</time>
      </trkpt>
      <trkpt lat="41.8883430" lon="-2.7440450">
        <ele>1214.0</ele>
        <time>2022-01-30T12:11:41Z</time>
      </trkpt>
      <trkpt lat="41.8883630" lon="-2.7440420">
        <ele>1214.5</ele>
        <time>2022-01-30T12:11:42Z</time>
      </trkpt>
      <trkpt lat="41.8883780" lon="-2.7440370">
        <ele>1214.5</ele>
        <time>2022-01-30T12:11:43Z</time>
      </trkpt>
      <trkpt lat="41.8883930" lon="-2.7440300">
        <ele>1214.5</ele>
        <time>2022-01-30T12:11:44Z</time>
      </trkpt>
      <trkpt lat="41.8884080" lon="-2.7440250">
        <ele>1214.5</ele>
        <time>2022-01-30T12:11:45Z</time>
      </trkpt>
      <trkpt lat="41.8884230" lon="-2.7440180">
        <ele>1214.5</ele>
        <time>2022-01-30T12:11:46Z</time>
      </trkpt>
      <trkpt lat="41.8884370" lon="-2.7440130">
        <ele>1214.5</ele>
        <time>2022-01-30T12:11:47Z</time>
      </trkpt>
      <trkpt lat="41.8884550" lon="-2.7440100">
        <ele>1214.5</ele>
        <time>2022-01-30T12:11:48Z</time>
      </trkpt>
      <trkpt lat="41.8884730" lon="-2.7440050">
        <ele>1215.2</ele>
        <time>2022-01-30T12:11:49Z</time>
      </trkpt>
      <trkpt lat="41.8885000" lon="-2.7439970">
        <ele>1215.5</ele>
        <time>2022-01-30T12:11:50Z</time>
      </trkpt>
      <trkpt lat="41.8885170" lon="-2.7439820">
        <ele>1215.5</ele>
        <time>2022-01-30T12:11:51Z</time>
      </trkpt>
      <trkpt lat="41.8885320" lon="-2.7439770">
        <ele>1215.5</ele>
        <time>2022-01-30T12:11:52Z</time>
      </trkpt>
      <trkpt lat="41.8885470" lon="-2.7439680">
        <ele>1215.5</ele>
        <time>2022-01-30T12:11:53Z</time>
      </trkpt>
      <trkpt lat="41.8885630" lon="-2.7439600">
        <ele>1215.5</ele>
        <time>2022-01-30T12:11:54Z</time>
      </trkpt>
      <trkpt lat="41.8885800" lon="-2.7439480">
        <ele>1215.5</ele>
        <time>2022-01-30T12:11:55Z</time>
      </trkpt>
      <trkpt lat="41.8885920" lon="-2.7439300">
        <ele>1215.5</ele>
        <time>2022-01-30T12:11:56Z</time>
      </trkpt>
      <trkpt lat="41.8886020" lon="-2.7439120">
        <ele>1215.5</ele>
        <time>2022-01-30T12:11:57Z</time>
      </trkpt>
      <trkpt lat="41.8886080" lon="-2.7438920">
        <ele>1215.8</ele>
        <time>2022-01-30T12:11:58Z</time>
      </trkpt>
      <trkpt lat="41.8886120" lon="-2.7438680">
        <ele>1215.8</ele>
        <time>2022-01-30T12:11:59Z</time>
      </trkpt>
      <trkpt lat="41.8886170" lon="-2.7438480">
        <ele>1215.8</ele>
        <time>2022-01-30T12:12:00Z</time>
      </trkpt>
      <trkpt lat="41.8886230" lon="-2.7438280">
        <ele>1216.4</ele>
        <time>2022-01-30T12:12:01Z</time>
      </trkpt>
      <trkpt lat="41.8886300" lon="-2.7438100">
        <ele>1216.4</ele>
        <time>2022-01-30T12:12:02Z</time>
      </trkpt>
      <trkpt lat="41.8886400" lon="-2.7437930">
        <ele>1216.4</ele>
        <time>2022-01-30T12:12:03Z</time>
      </trkpt>
      <trkpt lat="41.8886480" lon="-2.7437750">
        <ele>1216.4</ele>
        <time>2022-01-30T12:12:04Z</time>
      </trkpt>
      <trkpt lat="41.8886570" lon="-2.7437580">
        <ele>1216.4</ele>
        <time>2022-01-30T12:12:05Z</time>
      </trkpt>
      <trkpt lat="41.8886580" lon="-2.7437370">
        <ele>1216.4</ele>
        <time>2022-01-30T12:12:06Z</time>
      </trkpt>
      <trkpt lat="41.8886550" lon="-2.7437120">
        <ele>1216.4</ele>
        <time>2022-01-30T12:12:07Z</time>
      </trkpt>
      <trkpt lat="41.8886430" lon="-2.7436920">
        <ele>1216.4</ele>
        <time>2022-01-30T12:12:08Z</time>
      </trkpt>
      <trkpt lat="41.8886300" lon="-2.7436750">
        <ele>1216.4</ele>
        <time>2022-01-30T12:12:09Z</time>
      </trkpt>
      <trkpt lat="41.8886150" lon="-2.7436630">
        <ele>1216.9</ele>
        <time>2022-01-30T12:12:10Z</time>
      </trkpt>
      <trkpt lat="41.8886000" lon="-2.7436530">
        <ele>1216.8</ele>
        <time>2022-01-30T12:12:11Z</time>
      </trkpt>
      <trkpt lat="41.8885820" lon="-2.7436420">
        <ele>1216.8</ele>
        <time>2022-01-30T12:12:12Z</time>
      </trkpt>
      <trkpt lat="41.8885620" lon="-2.7436320">
        <ele>1216.8</ele>
        <time>2022-01-30T12:12:13Z</time>
      </trkpt>
      <trkpt lat="41.8885380" lon="-2.7436250">
        <ele>1216.8</ele>
        <time>2022-01-30T12:12:14Z</time>
      </trkpt>
      <trkpt lat="41.8885180" lon="-2.7436220">
        <ele>1216.8</ele>
        <time>2022-01-30T12:12:15Z</time>
      </trkpt>
      <trkpt lat="41.8884980" lon="-2.7436180">
        <ele>1216.8</ele>
        <time>2022-01-30T12:12:16Z</time>
      </trkpt>
      <trkpt lat="41.8884780" lon="-2.7436120">
        <ele>1216.8</ele>
        <time>2022-01-30T12:12:17Z</time>
      </trkpt>
      <trkpt lat="41.8884600" lon="-2.7436030">
        <ele>1216.7</ele>
        <time>2022-01-30T12:12:18Z</time>
      </trkpt>
      <trkpt lat="41.8884420" lon="-2.7435920">
        <ele>1216.7</ele>
        <time>2022-01-30T12:12:19Z</time>
      </trkpt>
      <trkpt lat="41.8884230" lon="-2.7435820">
        <ele>1216.7</ele>
        <time>2022-01-30T12:12:20Z</time>
      </trkpt>
      <trkpt lat="41.8884050" lon="-2.7435700">
        <ele>1216.7</ele>
        <time>2022-01-30T12:12:21Z</time>
      </trkpt>
      <trkpt lat="41.8883850" lon="-2.7435550">
        <ele>1216.7</ele>
        <time>2022-01-30T12:12:22Z</time>
      </trkpt>
      <trkpt lat="41.8883630" lon="-2.7435430">
        <ele>1216.7</ele>
        <time>2022-01-30T12:12:23Z</time>
      </trkpt>
      <trkpt lat="41.8883450" lon="-2.7435300">
        <ele>1216.7</ele>
        <time>2022-01-30T12:12:24Z</time>
      </trkpt>
      <trkpt lat="41.8883250" lon="-2.7435180">
        <ele>1216.7</ele>
        <time>2022-01-30T12:12:25Z</time>
      </trkpt>
      <trkpt lat="41.8883070" lon="-2.7435070">
        <ele>1216.7</ele>
        <time>2022-01-30T12:12:26Z</time>
      </trkpt>
      <trkpt lat="41.8882870" lon="-2.7434930">
        <ele>1216.7</ele>
        <time>2022-01-30T12:12:27Z</time>
      </trkpt>
      <trkpt lat="41.8882680" lon="-2.7434770">
        <ele>1217.6</ele>
        <time>2022-01-30T12:12:28Z</time>
      </trkpt>
      <trkpt lat="41.8882500" lon="-2.7434600">
        <ele>1217.6</ele>
        <time>2022-01-30T12:12:29Z</time>
      </trkpt>
      <trkpt lat="41.8882330" lon="-2.7434470">
        <ele>1217.6</ele>
        <time>2022-01-30T12:12:30Z</time>
      </trkpt>
      <trkpt lat="41.8882150" lon="-2.7434330">
        <ele>1217.5</ele>
        <time>2022-01-30T12:12:31Z</time>
      </trkpt>
      <trkpt lat="41.8881970" lon="-2.7434150">
        <ele>1217.5</ele>
        <time>2022-01-30T12:12:32Z</time>
      </trkpt>
      <trkpt lat="41.8881820" lon="-2.7434000">
        <ele>1217.5</ele>
        <time>2022-01-30T12:12:33Z</time>
      </trkpt>
      <trkpt lat="41.8881630" lon="-2.7433820">
        <ele>1217.5</ele>
        <time>2022-01-30T12:12:34Z</time>
      </trkpt>
      <trkpt lat="41.8881420" lon="-2.7433630">
        <ele>1217.5</ele>
        <time>2022-01-30T12:12:35Z</time>
      </trkpt>
      <trkpt lat="41.8881250" lon="-2.7433480">
        <ele>1217.5</ele>
        <time>2022-01-30T12:12:36Z</time>
      </trkpt>
      <trkpt lat="41.8881030" lon="-2.7433330">
        <ele>1217.5</ele>
        <time>2022-01-30T12:12:37Z</time>
      </trkpt>
      <trkpt lat="41.8880850" lon="-2.7433150">
        <ele>1218.3</ele>
        <time>2022-01-30T12:12:38Z</time>
      </trkpt>
      <trkpt lat="41.8880700" lon="-2.7433080">
        <ele>1218.3</ele>
        <time>2022-01-30T12:12:39Z</time>
      </trkpt>
      <trkpt lat="41.8880480" lon="-2.7432920">
        <ele>1218.3</ele>
        <time>2022-01-30T12:12:40Z</time>
      </trkpt>
      <trkpt lat="41.8880300" lon="-2.7432780">
        <ele>1218.3</ele>
        <time>2022-01-30T12:12:41Z</time>
      </trkpt>
      <trkpt lat="41.8880100" lon="-2.7432620">
        <ele>1218.3</ele>
        <time>2022-01-30T12:12:42Z</time>
      </trkpt>
      <trkpt lat="41.8879920" lon="-2.7432480">
        <ele>1218.3</ele>
        <time>2022-01-30T12:12:43Z</time>
      </trkpt>
      <trkpt lat="41.8879720" lon="-2.7432380">
        <ele>1218.3</ele>
        <time>2022-01-30T12:12:44Z</time>
      </trkpt>
      <trkpt lat="41.8879480" lon="-2.7432200">
        <ele>1218.1</ele>
        <time>2022-01-30T12:12:45Z</time>
      </trkpt>
      <trkpt lat="41.8879270" lon="-2.7432050">
        <ele>1218.1</ele>
        <time>2022-01-30T12:12:46Z</time>
      </trkpt>
      <trkpt lat="41.8879000" lon="-2.7431920">
        <ele>1218.1</ele>
        <time>2022-01-30T12:12:47Z</time>
      </trkpt>
      <trkpt lat="41.8878750" lon="-2.7431800">
        <ele>1218.1</ele>
        <time>2022-01-30T12:12:48Z</time>
      </trkpt>
      <trkpt lat="41.8878530" lon="-2.7431620">
        <ele>1218.1</ele>
        <time>2022-01-30T12:12:49Z</time>
      </trkpt>
      <trkpt lat="41.8878330" lon="-2.7431450">
        <ele>1219.7</ele>
        <time>2022-01-30T12:12:50Z</time>
      </trkpt>
      <trkpt lat="41.8878150" lon="-2.7431280">
        <ele>1219.7</ele>
        <time>2022-01-30T12:12:51Z</time>
      </trkpt>
      <trkpt lat="41.8877970" lon="-2.7431120">
        <ele>1219.7</ele>
        <time>2022-01-30T12:12:52Z</time>
      </trkpt>
      <trkpt lat="41.8877850" lon="-2.7430980">
        <ele>1219.7</ele>
        <time>2022-01-30T12:12:53Z</time>
      </trkpt>
      <trkpt lat="41.8877650" lon="-2.7430780">
        <ele>1219.7</ele>
        <time>2022-01-30T12:12:54Z</time>
      </trkpt>
      <trkpt lat="41.8877450" lon="-2.7430600">
        <ele>1219.7</ele>
        <time>2022-01-30T12:12:55Z</time>
      </trkpt>
      <trkpt lat="41.8877270" lon="-2.7430430">
        <ele>1219.7</ele>
        <time>2022-01-30T12:12:56Z</time>
      </trkpt>
      <trkpt lat="41.8877080" lon="-2.7430230">
        <ele>1219.9</ele>
        <time>2022-01-30T12:12:57Z</time>
      </trkpt>
      <trkpt lat="41.8876930" lon="-2.7430050">
        <ele>1219.9</ele>
        <time>2022-01-30T12:12:58Z</time>
      </trkpt>
      <trkpt lat="41.8876720" lon="-2.7429820">
        <ele>1219.9</ele>
        <time>2022-01-30T12:12:59Z</time>
      </trkpt>
      <trkpt lat="41.8876520" lon="-2.7429580">
        <ele>1222.0</ele>
        <time>2022-01-30T12:13:00Z</time>
      </trkpt>
      <trkpt lat="41.8876270" lon="-2.7429300">
        <ele>1222.0</ele>
        <time>2022-01-30T12:13:01Z</time>
      </trkpt>
      <trkpt lat="41.8876080" lon="-2.7429070">
        <ele>1222.0</ele>
        <time>2022-01-30T12:13:02Z</time>
      </trkpt>
      <trkpt lat="41.8875880" lon="-2.7428830">
        <ele>1222.0</ele>
        <time>2022-01-30T12:13:03Z</time>
      </trkpt>
      <trkpt lat="41.8875720" lon="-2.7428650">
        <ele>1222.1</ele>
        <time>2022-01-30T12:13:04Z</time>
      </trkpt>
      <trkpt lat="41.8875500" lon="-2.7428470">
        <ele>1222.1</ele>
        <time>2022-01-30T12:13:05Z</time>
      </trkpt>
      <trkpt lat="41.8875220" lon="-2.7428220">
        <ele>1222.1</ele>
        <time>2022-01-30T12:13:06Z</time>
      </trkpt>
      <trkpt lat="41.8874970" lon="-2.7428020">
        <ele>1224.3</ele>
        <time>2022-01-30T12:13:07Z</time>
      </trkpt>
      <trkpt lat="41.8874730" lon="-2.7427820">
        <ele>1224.3</ele>
        <time>2022-01-30T12:13:08Z</time>
      </trkpt>
      <trkpt lat="41.8874480" lon="-2.7427630">
        <ele>1224.5</ele>
        <time>2022-01-30T12:13:09Z</time>
      </trkpt>
      <trkpt lat="41.8874270" lon="-2.7427550">
        <ele>1224.5</ele>
        <time>2022-01-30T12:13:10Z</time>
      </trkpt>
      <trkpt lat="41.8873970" lon="-2.7427450">
        <ele>1224.5</ele>
        <time>2022-01-30T12:13:11Z</time>
      </trkpt>
      <trkpt lat="41.8873680" lon="-2.7427400">
        <ele>1224.5</ele>
        <time>2022-01-30T12:13:12Z</time>
      </trkpt>
      <trkpt lat="41.8873400" lon="-2.7427330">
        <ele>1224.5</ele>
        <time>2022-01-30T12:13:13Z</time>
      </trkpt>
      <trkpt lat="41.8873180" lon="-2.7427280">
        <ele>1224.6</ele>
        <time>2022-01-30T12:13:14Z</time>
      </trkpt>
      <trkpt lat="41.8872950" lon="-2.7427220">
        <ele>1224.6</ele>
        <time>2022-01-30T12:13:15Z</time>
      </trkpt>
      <trkpt lat="41.8872700" lon="-2.7427150">
        <ele>1224.6</ele>
        <time>2022-01-30T12:13:16Z</time>
      </trkpt>
      <trkpt lat="41.8872380" lon="-2.7427050">
        <ele>1224.6</ele>
        <time>2022-01-30T12:13:17Z</time>
      </trkpt>
      <trkpt lat="41.8872150" lon="-2.7426950">
        <ele>1224.6</ele>
        <time>2022-01-30T12:13:18Z</time>
      </trkpt>
      <trkpt lat="41.8871970" lon="-2.7426780">
        <ele>1224.4</ele>
        <time>2022-01-30T12:13:19Z</time>
      </trkpt>
      <trkpt lat="41.8871830" lon="-2.7426570">
        <ele>1224.4</ele>
        <time>2022-01-30T12:13:20Z</time>
      </trkpt>
      <trkpt lat="41.8871730" lon="-2.7426370">
        <ele>1224.4</ele>
        <time>2022-01-30T12:13:21Z</time>
      </trkpt>
      <trkpt lat="41.8871650" lon="-2.7426120">
        <ele>1226.4</ele>
        <time>2022-01-30T12:13:22Z</time>
      </trkpt>
      <trkpt lat="41.8871580" lon="-2.7425850">
        <ele>1226.4</ele>
        <time>2022-01-30T12:13:23Z</time>
      </trkpt>
      <trkpt lat="41.8871570" lon="-2.7425680">
        <ele>1226.4</ele>
        <time>2022-01-30T12:13:24Z</time>
      </trkpt>
      <trkpt lat="41.8871550" lon="-2.7425380">
        <ele>1226.4</ele>
        <time>2022-01-30T12:13:25Z</time>
      </trkpt>
      <trkpt lat="41.8871530" lon="-2.7425130">
        <ele>1226.4</ele>
        <time>2022-01-30T12:13:26Z</time>
      </trkpt>
      <trkpt lat="41.8871520" lon="-2.7424880">
        <ele>1226.4</ele>
        <time>2022-01-30T12:13:27Z</time>
      </trkpt>
      <trkpt lat="41.8871520" lon="-2.7424600">
        <ele>1228.2</ele>
        <time>2022-01-30T12:13:28Z</time>
      </trkpt>
      <trkpt lat="41.8871500" lon="-2.7424320">
        <ele>1228.2</ele>
        <time>2022-01-30T12:13:29Z</time>
      </trkpt>
      <trkpt lat="41.8871500" lon="-2.7424020">
        <ele>1228.2</ele>
        <time>2022-01-30T12:13:30Z</time>
      </trkpt>
      <trkpt lat="41.8871500" lon="-2.7423720">
        <ele>1228.2</ele>
        <time>2022-01-30T12:13:31Z</time>
      </trkpt>
      <trkpt lat="41.8871500" lon="-2.7423400">
        <ele>1228.2</ele>
        <time>2022-01-30T12:13:32Z</time>
      </trkpt>
      <trkpt lat="41.8871500" lon="-2.7423120">
        <ele>1228.2</ele>
        <time>2022-01-30T12:13:33Z</time>
      </trkpt>
      <trkpt lat="41.8871500" lon="-2.7422870">
        <ele>1229.1</ele>
        <time>2022-01-30T12:13:34Z</time>
      </trkpt>
      <trkpt lat="41.8871480" lon="-2.7422500">
        <ele>1229.1</ele>
        <time>2022-01-30T12:13:35Z</time>
      </trkpt>
      <trkpt lat="41.8871470" lon="-2.7422220">
        <ele>1229.1</ele>
        <time>2022-01-30T12:13:36Z</time>
      </trkpt>
      <trkpt lat="41.8871450" lon="-2.7421950">
        <ele>1229.1</ele>
        <time>2022-01-30T12:13:37Z</time>
      </trkpt>
      <trkpt lat="41.8871450" lon="-2.7421720">
        <ele>1229.1</ele>
        <time>2022-01-30T12:13:38Z</time>
      </trkpt>
      <trkpt lat="41.8871420" lon="-2.7421350">
        <ele>1229.1</ele>
        <time>2022-01-30T12:13:39Z</time>
      </trkpt>
      <trkpt lat="41.8871370" lon="-2.7421030">
        <ele>1229.8</ele>
        <time>2022-01-30T12:13:40Z</time>
      </trkpt>
      <trkpt lat="41.8871320" lon="-2.7420720">
        <ele>1229.8</ele>
        <time>2022-01-30T12:13:41Z</time>
      </trkpt>
      <trkpt lat="41.8871250" lon="-2.7420420">
        <ele>1229.8</ele>
        <time>2022-01-30T12:13:42Z</time>
      </trkpt>
      <trkpt lat="41.8871180" lon="-2.7420080">
        <ele>1229.8</ele>
        <time>2022-01-30T12:13:43Z</time>
      </trkpt>
      <trkpt lat="41.8871150" lon="-2.7419820">
        <ele>1229.8</ele>
        <time>2022-01-30T12:13:44Z</time>
      </trkpt>
      <trkpt lat="41.8871080" lon="-2.7419470">
        <ele>1230.9</ele>
        <time>2022-01-30T12:13:45Z</time>
      </trkpt>
      <trkpt lat="41.8871020" lon="-2.7419170">
        <ele>1230.9</ele>
        <time>2022-01-30T12:13:46Z</time>
      </trkpt>
      <trkpt lat="41.8870950" lon="-2.7418880">
        <ele>1230.9</ele>
        <time>2022-01-30T12:13:47Z</time>
      </trkpt>
      <trkpt lat="41.8870880" lon="-2.7418650">
        <ele>1230.9</ele>
        <time>2022-01-30T12:13:48Z</time>
      </trkpt>
      <trkpt lat="41.8870780" lon="-2.7418270">
        <ele>1230.9</ele>
        <time>2022-01-30T12:13:49Z</time>
      </trkpt>
      <trkpt lat="41.8870680" lon="-2.7417920">
        <ele>1231.0</ele>
        <time>2022-01-30T12:13:50Z</time>
      </trkpt>
      <trkpt lat="41.8870570" lon="-2.7417570">
        <ele>1232.0</ele>
        <time>2022-01-30T12:13:51Z</time>
      </trkpt>
      <trkpt lat="41.8870450" lon="-2.7417250">
        <ele>1232.0</ele>
        <time>2022-01-30T12:13:52Z</time>
      </trkpt>
      <trkpt lat="41.8870330" lon="-2.7416970">
        <ele>1232.0</ele>
        <time>2022-01-30T12:13:53Z</time>
      </trkpt>
      <trkpt lat="41.8870230" lon="-2.7416750">
        <ele>1232.0</ele>
        <time>2022-01-30T12:13:54Z</time>
      </trkpt>
      <trkpt lat="41.8870100" lon="-2.7416430">
        <ele>1232.0</ele>
        <time>2022-01-30T12:13:55Z</time>
      </trkpt>
      <trkpt lat="41.8870000" lon="-2.7416170">
        <ele>1232.0</ele>
        <time>2022-01-30T12:13:56Z</time>
      </trkpt>
      <trkpt lat="41.8869900" lon="-2.7415920">
        <ele>1233.0</ele>
        <time>2022-01-30T12:13:57Z</time>
      </trkpt>
      <trkpt lat="41.8869800" lon="-2.7415680">
        <ele>1233.0</ele>
        <time>2022-01-30T12:13:58Z</time>
      </trkpt>
      <trkpt lat="41.8869680" lon="-2.7415450">
        <ele>1233.0</ele>
        <time>2022-01-30T12:13:59Z</time>
      </trkpt>
      <trkpt lat="41.8869580" lon="-2.7415270">
        <ele>1233.0</ele>
        <time>2022-01-30T12:14:00Z</time>
      </trkpt>
      <trkpt lat="41.8869400" lon="-2.7415000">
        <ele>1233.2</ele>
        <time>2022-01-30T12:14:01Z</time>
      </trkpt>
      <trkpt lat="41.8869230" lon="-2.7414800">
        <ele>1233.2</ele>
        <time>2022-01-30T12:14:02Z</time>
      </trkpt>
      <trkpt lat="41.8869070" lon="-2.7414620">
        <ele>1233.2</ele>
        <time>2022-01-30T12:14:03Z</time>
      </trkpt>
      <trkpt lat="41.8868930" lon="-2.7414470">
        <ele>1233.2</ele>
        <time>2022-01-30T12:14:04Z</time>
      </trkpt>
      <trkpt lat="41.8868750" lon="-2.7414280">
        <ele>1234.1</ele>
        <time>2022-01-30T12:14:05Z</time>
      </trkpt>
      <trkpt lat="41.8868580" lon="-2.7414130">
        <ele>1234.1</ele>
        <time>2022-01-30T12:14:06Z</time>
      </trkpt>
      <trkpt lat="41.8868430" lon="-2.7414030">
        <ele>1234.1</ele>
        <time>2022-01-30T12:14:07Z</time>
      </trkpt>
      <trkpt lat="41.8868280" lon="-2.7413900">
        <ele>1234.1</ele>
        <time>2022-01-30T12:14:08Z</time>
      </trkpt>
      <trkpt lat="41.8868130" lon="-2.7413770">
        <ele>1234.1</ele>
        <time>2022-01-30T12:14:09Z</time>
      </trkpt>
      <trkpt lat="41.8868000" lon="-2.7413620">
        <ele>1234.1</ele>
        <time>2022-01-30T12:14:10Z</time>
      </trkpt>
      <trkpt lat="41.8867870" lon="-2.7413530">
        <ele>1234.1</ele>
        <time>2022-01-30T12:14:11Z</time>
      </trkpt>
      <trkpt lat="41.8867750" lon="-2.7413480">
        <ele>1234.1</ele>
        <time>2022-01-30T12:14:12Z</time>
      </trkpt>
      <trkpt lat="41.8867670" lon="-2.7413450">
        <ele>1234.1</ele>
        <time>2022-01-30T12:14:13Z</time>
      </trkpt>
      <trkpt lat="41.8867530" lon="-2.7413400">
        <ele>1234.1</ele>
        <time>2022-01-30T12:14:14Z</time>
      </trkpt>
      <trkpt lat="41.8867380" lon="-2.7413270">
        <ele>1234.1</ele>
        <time>2022-01-30T12:14:15Z</time>
      </trkpt>
      <trkpt lat="41.8867230" lon="-2.7413130">
        <ele>1234.1</ele>
        <time>2022-01-30T12:14:16Z</time>
      </trkpt>
      <trkpt lat="41.8867030" lon="-2.7412950">
        <ele>1234.1</ele>
        <time>2022-01-30T12:14:17Z</time>
      </trkpt>
      <trkpt lat="41.8866870" lon="-2.7412830">
        <ele>1233.7</ele>
        <time>2022-01-30T12:14:18Z</time>
      </trkpt>
      <trkpt lat="41.8866700" lon="-2.7412700">
        <ele>1233.7</ele>
        <time>2022-01-30T12:14:19Z</time>
      </trkpt>
      <trkpt lat="41.8866530" lon="-2.7412620">
        <ele>1233.7</ele>
        <time>2022-01-30T12:14:20Z</time>
      </trkpt>
      <trkpt lat="41.8866350" lon="-2.7412570">
        <ele>1234.6</ele>
        <time>2022-01-30T12:14:21Z</time>
      </trkpt>
      <trkpt lat="41.8866180" lon="-2.7412520">
        <ele>1234.6</ele>
        <time>2022-01-30T12:14:22Z</time>
      </trkpt>
      <trkpt lat="41.8865970" lon="-2.7412470">
        <ele>1234.6</ele>
        <time>2022-01-30T12:14:23Z</time>
      </trkpt>
      <trkpt lat="41.8865770" lon="-2.7412430">
        <ele>1234.6</ele>
        <time>2022-01-30T12:14:24Z</time>
      </trkpt>
      <trkpt lat="41.8865550" lon="-2.7412420">
        <ele>1234.2</ele>
        <time>2022-01-30T12:14:25Z</time>
      </trkpt>
      <trkpt lat="41.8865330" lon="-2.7412400">
        <ele>1234.2</ele>
        <time>2022-01-30T12:14:26Z</time>
      </trkpt>
      <trkpt lat="41.8865100" lon="-2.7412400">
        <ele>1234.2</ele>
        <time>2022-01-30T12:14:27Z</time>
      </trkpt>
      <trkpt lat="41.8864850" lon="-2.7412430">
        <ele>1234.2</ele>
        <time>2022-01-30T12:14:28Z</time>
      </trkpt>
      <trkpt lat="41.8864580" lon="-2.7412480">
        <ele>1234.2</ele>
        <time>2022-01-30T12:14:29Z</time>
      </trkpt>
      <trkpt lat="41.8864300" lon="-2.7412480">
        <ele>1233.8</ele>
        <time>2022-01-30T12:14:30Z</time>
      </trkpt>
      <trkpt lat="41.8864000" lon="-2.7412480">
        <ele>1233.8</ele>
        <time>2022-01-30T12:14:31Z</time>
      </trkpt>
      <trkpt lat="41.8863700" lon="-2.7412480">
        <ele>1233.8</ele>
        <time>2022-01-30T12:14:32Z</time>
      </trkpt>
      <trkpt lat="41.8863380" lon="-2.7412480">
        <ele>1233.8</ele>
        <time>2022-01-30T12:14:33Z</time>
      </trkpt>
      <trkpt lat="41.8863120" lon="-2.7412480">
        <ele>1233.8</ele>
        <time>2022-01-30T12:14:34Z</time>
      </trkpt>
      <trkpt lat="41.8862720" lon="-2.7412430">
        <ele>1233.2</ele>
        <time>2022-01-30T12:14:35Z</time>
      </trkpt>
      <trkpt lat="41.8862380" lon="-2.7412300">
        <ele>1233.2</ele>
        <time>2022-01-30T12:14:36Z</time>
      </trkpt>
      <trkpt lat="41.8862080" lon="-2.7412150">
        <ele>1233.2</ele>
        <time>2022-01-30T12:14:37Z</time>
      </trkpt>
      <trkpt lat="41.8861830" lon="-2.7412000">
        <ele>1233.2</ele>
        <time>2022-01-30T12:14:38Z</time>
      </trkpt>
      <trkpt lat="41.8861530" lon="-2.7411800">
        <ele>1232.6</ele>
        <time>2022-01-30T12:14:39Z</time>
      </trkpt>
      <trkpt lat="41.8861200" lon="-2.7411530">
        <ele>1232.6</ele>
        <time>2022-01-30T12:14:40Z</time>
      </trkpt>
      <trkpt lat="41.8860930" lon="-2.7411270">
        <ele>1232.6</ele>
        <time>2022-01-30T12:14:41Z</time>
      </trkpt>
      <trkpt lat="41.8860700" lon="-2.7411000">
        <ele>1232.6</ele>
        <time>2022-01-30T12:14:42Z</time>
      </trkpt>
      <trkpt lat="41.8860520" lon="-2.7410770">
        <ele>1233.5</ele>
        <time>2022-01-30T12:14:43Z</time>
      </trkpt>
      <trkpt lat="41.8860330" lon="-2.7410500">
        <ele>1232.9</ele>
        <time>2022-01-30T12:14:44Z</time>
      </trkpt>
      <trkpt lat="41.8860150" lon="-2.7410170">
        <ele>1232.9</ele>
        <time>2022-01-30T12:14:45Z</time>
      </trkpt>
      <trkpt lat="41.8860020" lon="-2.7409900">
        <ele>1232.9</ele>
        <time>2022-01-30T12:14:46Z</time>
      </trkpt>
      <trkpt lat="41.8859880" lon="-2.7409600">
        <ele>1232.9</ele>
        <time>2022-01-30T12:14:47Z</time>
      </trkpt>
      <trkpt lat="41.8859750" lon="-2.7409270">
        <ele>1232.9</ele>
        <time>2022-01-30T12:14:48Z</time>
      </trkpt>
      <trkpt lat="41.8859620" lon="-2.7408950">
        <ele>1233.7</ele>
        <time>2022-01-30T12:14:49Z</time>
      </trkpt>
      <trkpt lat="41.8859480" lon="-2.7408620">
        <ele>1233.7</ele>
        <time>2022-01-30T12:14:50Z</time>
      </trkpt>
      <trkpt lat="41.8859380" lon="-2.7408280">
        <ele>1233.7</ele>
        <time>2022-01-30T12:14:51Z</time>
      </trkpt>
      <trkpt lat="41.8859270" lon="-2.7407950">
        <ele>1233.7</ele>
        <time>2022-01-30T12:14:52Z</time>
      </trkpt>
      <trkpt lat="41.8859150" lon="-2.7407600">
        <ele>1232.9</ele>
        <time>2022-01-30T12:14:53Z</time>
      </trkpt>
      <trkpt lat="41.8859050" lon="-2.7407270">
        <ele>1233.8</ele>
        <time>2022-01-30T12:14:54Z</time>
      </trkpt>
      <trkpt lat="41.8858950" lon="-2.7406970">
        <ele>1233.8</ele>
        <time>2022-01-30T12:14:55Z</time>
      </trkpt>
      <trkpt lat="41.8858870" lon="-2.7406720">
        <ele>1233.8</ele>
        <time>2022-01-30T12:14:56Z</time>
      </trkpt>
      <trkpt lat="41.8858770" lon="-2.7406430">
        <ele>1233.8</ele>
        <time>2022-01-30T12:14:57Z</time>
      </trkpt>
      <trkpt lat="41.8858680" lon="-2.7406220">
        <ele>1233.8</ele>
        <time>2022-01-30T12:14:58Z</time>
      </trkpt>
      <trkpt lat="41.8858580" lon="-2.7405950">
        <ele>1233.8</ele>
        <time>2022-01-30T12:14:59Z</time>
      </trkpt>
      <trkpt lat="41.8858470" lon="-2.7405670">
        <ele>1234.8</ele>
        <time>2022-01-30T12:15:00Z</time>
      </trkpt>
      <trkpt lat="41.8858350" lon="-2.7405400">
        <ele>1234.8</ele>
        <time>2022-01-30T12:15:01Z</time>
      </trkpt>
      <trkpt lat="41.8858270" lon="-2.7405150">
        <ele>1234.8</ele>
        <time>2022-01-30T12:15:02Z</time>
      </trkpt>
      <trkpt lat="41.8858170" lon="-2.7404880">
        <ele>1234.8</ele>
        <time>2022-01-30T12:15:03Z</time>
      </trkpt>
      <trkpt lat="41.8858070" lon="-2.7404650">
        <ele>1234.8</ele>
        <time>2022-01-30T12:15:04Z</time>
      </trkpt>
      <trkpt lat="41.8857970" lon="-2.7404370">
        <ele>1234.8</ele>
        <time>2022-01-30T12:15:05Z</time>
      </trkpt>
      <trkpt lat="41.8857850" lon="-2.7404120">
        <ele>1234.1</ele>
        <time>2022-01-30T12:15:06Z</time>
      </trkpt>
      <trkpt lat="41.8857700" lon="-2.7403880">
        <ele>1235.0</ele>
        <time>2022-01-30T12:15:07Z</time>
      </trkpt>
      <trkpt lat="41.8857530" lon="-2.7403650">
        <ele>1235.0</ele>
        <time>2022-01-30T12:15:08Z</time>
      </trkpt>
      <trkpt lat="41.8857320" lon="-2.7403400">
        <ele>1235.0</ele>
        <time>2022-01-30T12:15:09Z</time>
      </trkpt>
      <trkpt lat="41.8857080" lon="-2.7403170">
        <ele>1235.0</ele>
        <time>2022-01-30T12:15:10Z</time>
      </trkpt>
      <trkpt lat="41.8856830" lon="-2.7402900">
        <ele>1235.0</ele>
        <time>2022-01-30T12:15:11Z</time>
      </trkpt>
      <trkpt lat="41.8856580" lon="-2.7402650">
        <ele>1234.4</ele>
        <time>2022-01-30T12:15:12Z</time>
      </trkpt>
      <trkpt lat="41.8856330" lon="-2.7402380">
        <ele>1234.4</ele>
        <time>2022-01-30T12:15:13Z</time>
      </trkpt>
      <trkpt lat="41.8856080" lon="-2.7402130">
        <ele>1235.5</ele>
        <time>2022-01-30T12:15:14Z</time>
      </trkpt>
      <trkpt lat="41.8855820" lon="-2.7401870">
        <ele>1235.5</ele>
        <time>2022-01-30T12:15:15Z</time>
      </trkpt>
      <trkpt lat="41.8855530" lon="-2.7401600">
        <ele>1235.5</ele>
        <time>2022-01-30T12:15:16Z</time>
      </trkpt>
      <trkpt lat="41.8855230" lon="-2.7401350">
        <ele>1234.9</ele>
        <time>2022-01-30T12:15:17Z</time>
      </trkpt>
      <trkpt lat="41.8854900" lon="-2.7401070">
        <ele>1234.9</ele>
        <time>2022-01-30T12:15:18Z</time>
      </trkpt>
      <trkpt lat="41.8854550" lon="-2.7400780">
        <ele>1234.9</ele>
        <time>2022-01-30T12:15:19Z</time>
      </trkpt>
      <trkpt lat="41.8854180" lon="-2.7400470">
        <ele>1236.1</ele>
        <time>2022-01-30T12:15:20Z</time>
      </trkpt>
      <trkpt lat="41.8853780" lon="-2.7400120">
        <ele>1235.7</ele>
        <time>2022-01-30T12:15:21Z</time>
      </trkpt>
      <trkpt lat="41.8853370" lon="-2.7399750">
        <ele>1235.7</ele>
        <time>2022-01-30T12:15:22Z</time>
      </trkpt>
      <trkpt lat="41.8852950" lon="-2.7399380">
        <ele>1235.7</ele>
        <time>2022-01-30T12:15:23Z</time>
      </trkpt>
      <trkpt lat="41.8852530" lon="-2.7399030">
        <ele>1235.1</ele>
        <time>2022-01-30T12:15:24Z</time>
      </trkpt>
      <trkpt lat="41.8852100" lon="-2.7398620">
        <ele>1236.1</ele>
        <time>2022-01-30T12:15:25Z</time>
      </trkpt>
      <trkpt lat="41.8851720" lon="-2.7398180">
        <ele>1236.1</ele>
        <time>2022-01-30T12:15:26Z</time>
      </trkpt>
      <trkpt lat="41.8851350" lon="-2.7397730">
        <ele>1235.7</ele>
        <time>2022-01-30T12:15:27Z</time>
      </trkpt>
      <trkpt lat="41.8851000" lon="-2.7397300">
        <ele>1235.7</ele>
        <time>2022-01-30T12:15:28Z</time>
      </trkpt>
      <trkpt lat="41.8850600" lon="-2.7396920">
        <ele>1236.7</ele>
        <time>2022-01-30T12:15:29Z</time>
      </trkpt>
      <trkpt lat="41.8850230" lon="-2.7396620">
        <ele>1236.3</ele>
        <time>2022-01-30T12:15:30Z</time>
      </trkpt>
      <trkpt lat="41.8849850" lon="-2.7396380">
        <ele>1236.3</ele>
        <time>2022-01-30T12:15:31Z</time>
      </trkpt>
      <trkpt lat="41.8849470" lon="-2.7396230">
        <ele>1236.3</ele>
        <time>2022-01-30T12:15:32Z</time>
      </trkpt>
      <trkpt lat="41.8849100" lon="-2.7396100">
        <ele>1236.3</ele>
        <time>2022-01-30T12:15:33Z</time>
      </trkpt>
      <trkpt lat="41.8848720" lon="-2.7395970">
        <ele>1236.0</ele>
        <time>2022-01-30T12:15:34Z</time>
      </trkpt>
      <trkpt lat="41.8848350" lon="-2.7395770">
        <ele>1236.0</ele>
        <time>2022-01-30T12:15:35Z</time>
      </trkpt>
      <trkpt lat="41.8847980" lon="-2.7395600">
        <ele>1236.0</ele>
        <time>2022-01-30T12:15:36Z</time>
      </trkpt>
      <trkpt lat="41.8847620" lon="-2.7395420">
        <ele>1236.8</ele>
        <time>2022-01-30T12:15:37Z</time>
      </trkpt>
      <trkpt lat="41.8847220" lon="-2.7395320">
        <ele>1236.8</ele>
        <time>2022-01-30T12:15:38Z</time>
      </trkpt>
      <trkpt lat="41.8846780" lon="-2.7395230">
        <ele>1236.8</ele>
        <time>2022-01-30T12:15:39Z</time>
      </trkpt>
      <trkpt lat="41.8846350" lon="-2.7395130">
        <ele>1236.6</ele>
        <time>2022-01-30T12:15:40Z</time>
      </trkpt>
      <trkpt lat="41.8845920" lon="-2.7394950">
        <ele>1236.6</ele>
        <time>2022-01-30T12:15:41Z</time>
      </trkpt>
      <trkpt lat="41.8845520" lon="-2.7394720">
        <ele>1236.6</ele>
        <time>2022-01-30T12:15:42Z</time>
      </trkpt>
      <trkpt lat="41.8845150" lon="-2.7394430">
        <ele>1236.4</ele>
        <time>2022-01-30T12:15:43Z</time>
      </trkpt>
      <trkpt lat="41.8844750" lon="-2.7394130">
        <ele>1236.4</ele>
        <time>2022-01-30T12:15:44Z</time>
      </trkpt>
      <trkpt lat="41.8844350" lon="-2.7393920">
        <ele>1236.4</ele>
        <time>2022-01-30T12:15:45Z</time>
      </trkpt>
      <trkpt lat="41.8843880" lon="-2.7393720">
        <ele>1237.1</ele>
        <time>2022-01-30T12:15:46Z</time>
      </trkpt>
      <trkpt lat="41.8843380" lon="-2.7393430">
        <ele>1236.8</ele>
        <time>2022-01-30T12:15:47Z</time>
      </trkpt>
      <trkpt lat="41.8842920" lon="-2.7393050">
        <ele>1236.8</ele>
        <time>2022-01-30T12:15:48Z</time>
      </trkpt>
      <trkpt lat="41.8842450" lon="-2.7392630">
        <ele>1236.6</ele>
        <time>2022-01-30T12:15:49Z</time>
      </trkpt>
      <trkpt lat="41.8842000" lon="-2.7392220">
        <ele>1236.6</ele>
        <time>2022-01-30T12:15:50Z</time>
      </trkpt>
      <trkpt lat="41.8841520" lon="-2.7391900">
        <ele>1237.3</ele>
        <time>2022-01-30T12:15:51Z</time>
      </trkpt>
      <trkpt lat="41.8841000" lon="-2.7391680">
        <ele>1237.2</ele>
        <time>2022-01-30T12:15:52Z</time>
      </trkpt>
      <trkpt lat="41.8840430" lon="-2.7391620">
        <ele>1237.2</ele>
        <time>2022-01-30T12:15:53Z</time>
      </trkpt>
      <trkpt lat="41.8839820" lon="-2.7391580">
        <ele>1237.1</ele>
        <time>2022-01-30T12:15:54Z</time>
      </trkpt>
      <trkpt lat="41.8839170" lon="-2.7391520">
        <ele>1237.1</ele>
        <time>2022-01-30T12:15:55Z</time>
      </trkpt>
      <trkpt lat="41.8838530" lon="-2.7391480">
        <ele>1237.0</ele>
        <time>2022-01-30T12:15:56Z</time>
      </trkpt>
      <trkpt lat="41.8837900" lon="-2.7391550">
        <ele>1237.0</ele>
        <time>2022-01-30T12:15:57Z</time>
      </trkpt>
      <trkpt lat="41.8837300" lon="-2.7391730">
        <ele>1236.9</ele>
        <time>2022-01-30T12:15:58Z</time>
      </trkpt>
      <trkpt lat="41.8836720" lon="-2.7391900">
        <ele>1236.9</ele>
        <time>2022-01-30T12:15:59Z</time>
      </trkpt>
      <trkpt lat="41.8836120" lon="-2.7391980">
        <ele>1236.7</ele>
        <time>2022-01-30T12:16:00Z</time>
      </trkpt>
      <trkpt lat="41.8835580" lon="-2.7391900">
        <ele>1236.7</ele>
        <time>2022-01-30T12:16:01Z</time>
      </trkpt>
      <trkpt lat="41.8835080" lon="-2.7391700">
        <ele>1236.7</ele>
        <time>2022-01-30T12:16:02Z</time>
      </trkpt>
      <trkpt lat="41.8834600" lon="-2.7391430">
        <ele>1236.6</ele>
        <time>2022-01-30T12:16:03Z</time>
      </trkpt>
      <trkpt lat="41.8834130" lon="-2.7391130">
        <ele>1236.6</ele>
        <time>2022-01-30T12:16:04Z</time>
      </trkpt>
      <trkpt lat="41.8833680" lon="-2.7390900">
        <ele>1236.6</ele>
        <time>2022-01-30T12:16:05Z</time>
      </trkpt>
      <trkpt lat="41.8833170" lon="-2.7390770">
        <ele>1236.4</ele>
        <time>2022-01-30T12:16:06Z</time>
      </trkpt>
      <trkpt lat="41.8832670" lon="-2.7390670">
        <ele>1236.4</ele>
        <time>2022-01-30T12:16:07Z</time>
      </trkpt>
      <trkpt lat="41.8832220" lon="-2.7390570">
        <ele>1236.2</ele>
        <time>2022-01-30T12:16:08Z</time>
      </trkpt>
      <trkpt lat="41.8831800" lon="-2.7390450">
        <ele>1236.2</ele>
        <time>2022-01-30T12:16:09Z</time>
      </trkpt>
      <trkpt lat="41.8831400" lon="-2.7390370">
        <ele>1236.2</ele>
        <time>2022-01-30T12:16:10Z</time>
      </trkpt>
      <trkpt lat="41.8830970" lon="-2.7390280">
        <ele>1236.2</ele>
        <time>2022-01-30T12:16:11Z</time>
      </trkpt>
      <trkpt lat="41.8830520" lon="-2.7390370">
        <ele>1235.9</ele>
        <time>2022-01-30T12:16:12Z</time>
      </trkpt>
      <trkpt lat="41.8830080" lon="-2.7390580">
        <ele>1235.9</ele>
        <time>2022-01-30T12:16:13Z</time>
      </trkpt>
      <trkpt lat="41.8829720" lon="-2.7390970">
        <ele>1235.7</ele>
        <time>2022-01-30T12:16:14Z</time>
      </trkpt>
      <trkpt lat="41.8829400" lon="-2.7391520">
        <ele>1235.7</ele>
        <time>2022-01-30T12:16:15Z</time>
      </trkpt>
      <trkpt lat="41.8829170" lon="-2.7392150">
        <ele>1235.1</ele>
        <time>2022-01-30T12:16:16Z</time>
      </trkpt>
      <trkpt lat="41.8829000" lon="-2.7392830">
        <ele>1235.1</ele>
        <time>2022-01-30T12:16:17Z</time>
      </trkpt>
      <trkpt lat="41.8828750" lon="-2.7393680">
        <ele>1235.1</ele>
        <time>2022-01-30T12:16:18Z</time>
      </trkpt>
      <trkpt lat="41.8828530" lon="-2.7394250">
        <ele>1234.0</ele>
        <time>2022-01-30T12:16:19Z</time>
      </trkpt>
      <trkpt lat="41.8828170" lon="-2.7394730">
        <ele>1234.0</ele>
        <time>2022-01-30T12:16:20Z</time>
      </trkpt>
      <trkpt lat="41.8827700" lon="-2.7395230">
        <ele>1234.0</ele>
        <time>2022-01-30T12:16:21Z</time>
      </trkpt>
      <trkpt lat="41.8827230" lon="-2.7395830">
        <ele>1232.4</ele>
        <time>2022-01-30T12:16:22Z</time>
      </trkpt>
      <trkpt lat="41.8826750" lon="-2.7396370">
        <ele>1232.4</ele>
        <time>2022-01-30T12:16:23Z</time>
      </trkpt>
      <trkpt lat="41.8826280" lon="-2.7396900">
        <ele>1232.4</ele>
        <time>2022-01-30T12:16:24Z</time>
      </trkpt>
      <trkpt lat="41.8825730" lon="-2.7397480">
        <ele>1230.5</ele>
        <time>2022-01-30T12:16:25Z</time>
      </trkpt>
      <trkpt lat="41.8825180" lon="-2.7397970">
        <ele>1230.5</ele>
        <time>2022-01-30T12:16:26Z</time>
      </trkpt>
      <trkpt lat="41.8824570" lon="-2.7398420">
        <ele>1230.2</ele>
        <time>2022-01-30T12:16:27Z</time>
      </trkpt>
      <trkpt lat="41.8823880" lon="-2.7398850">
        <ele>1230.2</ele>
        <time>2022-01-30T12:16:28Z</time>
      </trkpt>
      <trkpt lat="41.8823200" lon="-2.7399150">
        <ele>1228.7</ele>
        <time>2022-01-30T12:16:29Z</time>
      </trkpt>
      <trkpt lat="41.8822570" lon="-2.7399370">
        <ele>1228.7</ele>
        <time>2022-01-30T12:16:30Z</time>
      </trkpt>
      <trkpt lat="41.8822000" lon="-2.7399570">
        <ele>1228.2</ele>
        <time>2022-01-30T12:16:31Z</time>
      </trkpt>
      <trkpt lat="41.8821370" lon="-2.7399830">
        <ele>1228.2</ele>
        <time>2022-01-30T12:16:32Z</time>
      </trkpt>
      <trkpt lat="41.8820730" lon="-2.7400070">
        <ele>1227.6</ele>
        <time>2022-01-30T12:16:33Z</time>
      </trkpt>
      <trkpt lat="41.8820070" lon="-2.7400180">
        <ele>1227.6</ele>
        <time>2022-01-30T12:16:34Z</time>
      </trkpt>
      <trkpt lat="41.8819380" lon="-2.7400130">
        <ele>1227.0</ele>
        <time>2022-01-30T12:16:35Z</time>
      </trkpt>
      <trkpt lat="41.8818670" lon="-2.7399980">
        <ele>1227.0</ele>
        <time>2022-01-30T12:16:36Z</time>
      </trkpt>
      <trkpt lat="41.8817900" lon="-2.7399800">
        <ele>1226.4</ele>
        <time>2022-01-30T12:16:37Z</time>
      </trkpt>
      <trkpt lat="41.8817150" lon="-2.7399520">
        <ele>1226.4</ele>
        <time>2022-01-30T12:16:38Z</time>
      </trkpt>
      <trkpt lat="41.8816400" lon="-2.7399130">
        <ele>1225.5</ele>
        <time>2022-01-30T12:16:39Z</time>
      </trkpt>
      <trkpt lat="41.8815630" lon="-2.7398720">
        <ele>1225.9</ele>
        <time>2022-01-30T12:16:40Z</time>
      </trkpt>
      <trkpt lat="41.8814900" lon="-2.7398400">
        <ele>1225.9</ele>
        <time>2022-01-30T12:16:41Z</time>
      </trkpt>
      <trkpt lat="41.8814120" lon="-2.7398050">
        <ele>1224.7</ele>
        <time>2022-01-30T12:16:42Z</time>
      </trkpt>
      <trkpt lat="41.8813330" lon="-2.7397830">
        <ele>1224.7</ele>
        <time>2022-01-30T12:16:43Z</time>
      </trkpt>
      <trkpt lat="41.8812550" lon="-2.7397680">
        <ele>1223.4</ele>
        <time>2022-01-30T12:16:44Z</time>
      </trkpt>
      <trkpt lat="41.8811820" lon="-2.7397480">
        <ele>1222.3</ele>
        <time>2022-01-30T12:16:45Z</time>
      </trkpt>
      <trkpt lat="41.8811080" lon="-2.7397330">
        <ele>1222.3</ele>
        <time>2022-01-30T12:16:46Z</time>
      </trkpt>
      <trkpt lat="41.8810430" lon="-2.7397130">
        <ele>1222.3</ele>
        <time>2022-01-30T12:16:47Z</time>
      </trkpt>
      <trkpt lat="41.8809770" lon="-2.7396900">
        <ele>1222.3</ele>
        <time>2022-01-30T12:16:48Z</time>
      </trkpt>
      <trkpt lat="41.8809070" lon="-2.7396650">
        <ele>1221.1</ele>
        <time>2022-01-30T12:16:49Z</time>
      </trkpt>
      <trkpt lat="41.8808470" lon="-2.7396400">
        <ele>1221.1</ele>
        <time>2022-01-30T12:16:50Z</time>
      </trkpt>
      <trkpt lat="41.8807830" lon="-2.7396130">
        <ele>1219.7</ele>
        <time>2022-01-30T12:16:51Z</time>
      </trkpt>
      <trkpt lat="41.8807300" lon="-2.7395820">
        <ele>1219.7</ele>
        <time>2022-01-30T12:16:52Z</time>
      </trkpt>
      <trkpt lat="41.8806830" lon="-2.7395470">
        <ele>1219.7</ele>
        <time>2022-01-30T12:16:53Z</time>
      </trkpt>
      <trkpt lat="41.8806350" lon="-2.7395080">
        <ele>1220.3</ele>
        <time>2022-01-30T12:16:54Z</time>
      </trkpt>
      <trkpt lat="41.8805850" lon="-2.7394730">
        <ele>1220.3</ele>
        <time>2022-01-30T12:16:55Z</time>
      </trkpt>
      <trkpt lat="41.8805400" lon="-2.7394320">
        <ele>1219.3</ele>
        <time>2022-01-30T12:16:56Z</time>
      </trkpt>
      <trkpt lat="41.8804900" lon="-2.7393930">
        <ele>1219.3</ele>
        <time>2022-01-30T12:16:57Z</time>
      </trkpt>
      <trkpt lat="41.8804400" lon="-2.7393600">
        <ele>1220.6</ele>
        <time>2022-01-30T12:16:58Z</time>
      </trkpt>
      <trkpt lat="41.8803880" lon="-2.7393220">
        <ele>1219.5</ele>
        <time>2022-01-30T12:16:59Z</time>
      </trkpt>
      <trkpt lat="41.8803380" lon="-2.7392800">
        <ele>1219.5</ele>
        <time>2022-01-30T12:17:00Z</time>
      </trkpt>
      <trkpt lat="41.8802880" lon="-2.7392280">
        <ele>1218.0</ele>
        <time>2022-01-30T12:17:01Z</time>
      </trkpt>
      <trkpt lat="41.8802350" lon="-2.7391730">
        <ele>1219.3</ele>
        <time>2022-01-30T12:17:02Z</time>
      </trkpt>
      <trkpt lat="41.8801780" lon="-2.7391220">
        <ele>1219.3</ele>
        <time>2022-01-30T12:17:03Z</time>
      </trkpt>
      <trkpt lat="41.8801200" lon="-2.7390700">
        <ele>1218.3</ele>
        <time>2022-01-30T12:17:04Z</time>
      </trkpt>
      <trkpt lat="41.8800580" lon="-2.7390220">
        <ele>1219.6</ele>
        <time>2022-01-30T12:17:05Z</time>
      </trkpt>
      <trkpt lat="41.8799970" lon="-2.7389630">
        <ele>1218.6</ele>
        <time>2022-01-30T12:17:06Z</time>
      </trkpt>
      <trkpt lat="41.8799430" lon="-2.7389070">
        <ele>1218.6</ele>
        <time>2022-01-30T12:17:07Z</time>
      </trkpt>
      <trkpt lat="41.8798920" lon="-2.7388570">
        <ele>1218.7</ele>
        <time>2022-01-30T12:17:08Z</time>
      </trkpt>
      <trkpt lat="41.8798420" lon="-2.7388050">
        <ele>1218.7</ele>
        <time>2022-01-30T12:17:09Z</time>
      </trkpt>
      <trkpt lat="41.8797880" lon="-2.7387500">
        <ele>1218.7</ele>
        <time>2022-01-30T12:17:10Z</time>
      </trkpt>
      <trkpt lat="41.8797320" lon="-2.7386920">
        <ele>1217.3</ele>
        <time>2022-01-30T12:17:11Z</time>
      </trkpt>
      <trkpt lat="41.8796750" lon="-2.7386280">
        <ele>1218.1</ele>
        <time>2022-01-30T12:17:12Z</time>
      </trkpt>
      <trkpt lat="41.8796220" lon="-2.7385680">
        <ele>1216.6</ele>
        <time>2022-01-30T12:17:13Z</time>
      </trkpt>
      <trkpt lat="41.8795680" lon="-2.7385130">
        <ele>1217.3</ele>
        <time>2022-01-30T12:17:14Z</time>
      </trkpt>
      <trkpt lat="41.8795120" lon="-2.7384600">
        <ele>1216.0</ele>
        <time>2022-01-30T12:17:15Z</time>
      </trkpt>
      <trkpt lat="41.8794570" lon="-2.7384030">
        <ele>1216.0</ele>
        <time>2022-01-30T12:17:16Z</time>
      </trkpt>
      <trkpt lat="41.8794050" lon="-2.7383470">
        <ele>1216.0</ele>
        <time>2022-01-30T12:17:17Z</time>
      </trkpt>
      <trkpt lat="41.8793570" lon="-2.7382920">
        <ele>1215.2</ele>
        <time>2022-01-30T12:17:18Z</time>
      </trkpt>
      <trkpt lat="41.8793080" lon="-2.7382380">
        <ele>1215.2</ele>
        <time>2022-01-30T12:17:19Z</time>
      </trkpt>
      <trkpt lat="41.8792600" lon="-2.7381820">
        <ele>1213.9</ele>
        <time>2022-01-30T12:17:20Z</time>
      </trkpt>
      <trkpt lat="41.8792150" lon="-2.7381230">
        <ele>1214.7</ele>
        <time>2022-01-30T12:17:21Z</time>
      </trkpt>
      <trkpt lat="41.8791680" lon="-2.7380680">
        <ele>1214.7</ele>
        <time>2022-01-30T12:17:22Z</time>
      </trkpt>
      <trkpt lat="41.8791220" lon="-2.7380120">
        <ele>1213.1</ele>
        <time>2022-01-30T12:17:23Z</time>
      </trkpt>
      <trkpt lat="41.8790750" lon="-2.7379600">
        <ele>1213.8</ele>
        <time>2022-01-30T12:17:24Z</time>
      </trkpt>
      <trkpt lat="41.8790280" lon="-2.7379050">
        <ele>1213.8</ele>
        <time>2022-01-30T12:17:25Z</time>
      </trkpt>
      <trkpt lat="41.8789820" lon="-2.7378530">
        <ele>1212.3</ele>
        <time>2022-01-30T12:17:26Z</time>
      </trkpt>
      <trkpt lat="41.8789380" lon="-2.7377970">
        <ele>1213.2</ele>
        <time>2022-01-30T12:17:27Z</time>
      </trkpt>
      <trkpt lat="41.8788980" lon="-2.7377370">
        <ele>1213.2</ele>
        <time>2022-01-30T12:17:28Z</time>
      </trkpt>
      <trkpt lat="41.8788580" lon="-2.7376680">
        <ele>1211.5</ele>
        <time>2022-01-30T12:17:29Z</time>
      </trkpt>
      <trkpt lat="41.8788130" lon="-2.7376050">
        <ele>1212.3</ele>
        <time>2022-01-30T12:17:30Z</time>
      </trkpt>
      <trkpt lat="41.8787650" lon="-2.7375430">
        <ele>1212.3</ele>
        <time>2022-01-30T12:17:31Z</time>
      </trkpt>
      <trkpt lat="41.8787130" lon="-2.7374770">
        <ele>1211.2</ele>
        <time>2022-01-30T12:17:32Z</time>
      </trkpt>
      <trkpt lat="41.8786620" lon="-2.7374070">
        <ele>1211.2</ele>
        <time>2022-01-30T12:17:33Z</time>
      </trkpt>
      <trkpt lat="41.8786120" lon="-2.7373330">
        <ele>1209.4</ele>
        <time>2022-01-30T12:17:34Z</time>
      </trkpt>
      <trkpt lat="41.8785650" lon="-2.7372570">
        <ele>1209.9</ele>
        <time>2022-01-30T12:17:35Z</time>
      </trkpt>
      <trkpt lat="41.8785180" lon="-2.7371850">
        <ele>1209.9</ele>
        <time>2022-01-30T12:17:36Z</time>
      </trkpt>
      <trkpt lat="41.8784730" lon="-2.7371170">
        <ele>1208.4</ele>
        <time>2022-01-30T12:17:37Z</time>
      </trkpt>
      <trkpt lat="41.8784270" lon="-2.7370470">
        <ele>1208.4</ele>
        <time>2022-01-30T12:17:38Z</time>
      </trkpt>
      <trkpt lat="41.8783850" lon="-2.7369800">
        <ele>1208.4</ele>
        <time>2022-01-30T12:17:39Z</time>
      </trkpt>
      <trkpt lat="41.8783470" lon="-2.7369150">
        <ele>1206.5</ele>
        <time>2022-01-30T12:17:40Z</time>
      </trkpt>
      <trkpt lat="41.8783150" lon="-2.7368430">
        <ele>1206.5</ele>
        <time>2022-01-30T12:17:41Z</time>
      </trkpt>
      <trkpt lat="41.8782870" lon="-2.7367680">
        <ele>1206.5</ele>
        <time>2022-01-30T12:17:42Z</time>
      </trkpt>
      <trkpt lat="41.8782630" lon="-2.7366950">
        <ele>1206.5</ele>
        <time>2022-01-30T12:17:43Z</time>
      </trkpt>
      <trkpt lat="41.8782500" lon="-2.7366180">
        <ele>1204.2</ele>
        <time>2022-01-30T12:17:44Z</time>
      </trkpt>
      <trkpt lat="41.8782480" lon="-2.7365420">
        <ele>1204.2</ele>
        <time>2022-01-30T12:17:45Z</time>
      </trkpt>
      <trkpt lat="41.8782550" lon="-2.7364820">
        <ele>1206.3</ele>
        <time>2022-01-30T12:17:46Z</time>
      </trkpt>
      <trkpt lat="41.8782700" lon="-2.7364070">
        <ele>1205.9</ele>
        <time>2022-01-30T12:17:47Z</time>
      </trkpt>
      <trkpt lat="41.8782900" lon="-2.7363450">
        <ele>1205.9</ele>
        <time>2022-01-30T12:17:48Z</time>
      </trkpt>
      <trkpt lat="41.8783120" lon="-2.7362880">
        <ele>1205.9</ele>
        <time>2022-01-30T12:17:49Z</time>
      </trkpt>
      <trkpt lat="41.8783320" lon="-2.7362280">
        <ele>1205.3</ele>
        <time>2022-01-30T12:17:50Z</time>
      </trkpt>
      <trkpt lat="41.8783530" lon="-2.7361720">
        <ele>1205.3</ele>
        <time>2022-01-30T12:17:51Z</time>
      </trkpt>
      <trkpt lat="41.8783780" lon="-2.7361170">
        <ele>1205.3</ele>
        <time>2022-01-30T12:17:52Z</time>
      </trkpt>
      <trkpt lat="41.8784050" lon="-2.7360620">
        <ele>1206.7</ele>
        <time>2022-01-30T12:17:53Z</time>
      </trkpt>
      <trkpt lat="41.8784370" lon="-2.7360070">
        <ele>1206.7</ele>
        <time>2022-01-30T12:17:54Z</time>
      </trkpt>
      <trkpt lat="41.8784680" lon="-2.7359500">
        <ele>1206.7</ele>
        <time>2022-01-30T12:17:55Z</time>
      </trkpt>
      <trkpt lat="41.8784980" lon="-2.7358880">
        <ele>1205.7</ele>
        <time>2022-01-30T12:17:56Z</time>
      </trkpt>
      <trkpt lat="41.8785250" lon="-2.7358200">
        <ele>1207.5</ele>
        <time>2022-01-30T12:17:57Z</time>
      </trkpt>
      <trkpt lat="41.8785400" lon="-2.7357430">
        <ele>1206.5</ele>
        <time>2022-01-30T12:17:58Z</time>
      </trkpt>
      <trkpt lat="41.8785450" lon="-2.7356580">
        <ele>1206.5</ele>
        <time>2022-01-30T12:17:59Z</time>
      </trkpt>
      <trkpt lat="41.8785430" lon="-2.7355620">
        <ele>1205.4</ele>
        <time>2022-01-30T12:18:00Z</time>
      </trkpt>
      <trkpt lat="41.8785420" lon="-2.7354520">
        <ele>1205.4</ele>
        <time>2022-01-30T12:18:01Z</time>
      </trkpt>
      <trkpt lat="41.8785420" lon="-2.7353300">
        <ele>1204.3</ele>
        <time>2022-01-30T12:18:02Z</time>
      </trkpt>
      <trkpt lat="41.8785470" lon="-2.7352020">
        <ele>1202.9</ele>
        <time>2022-01-30T12:18:03Z</time>
      </trkpt>
      <trkpt lat="41.8785530" lon="-2.7350720">
        <ele>1201.6</ele>
        <time>2022-01-30T12:18:04Z</time>
      </trkpt>
      <trkpt lat="41.8785600" lon="-2.7349480">
        <ele>1201.6</ele>
        <time>2022-01-30T12:18:05Z</time>
      </trkpt>
      <trkpt lat="41.8785620" lon="-2.7348280">
        <ele>1200.2</ele>
        <time>2022-01-30T12:18:06Z</time>
      </trkpt>
      <trkpt lat="41.8785530" lon="-2.7347080">
        <ele>1198.3</ele>
        <time>2022-01-30T12:18:07Z</time>
      </trkpt>
      <trkpt lat="41.8785350" lon="-2.7345870">
        <ele>1198.3</ele>
        <time>2022-01-30T12:18:08Z</time>
      </trkpt>
      <trkpt lat="41.8785080" lon="-2.7344730">
        <ele>1195.7</ele>
        <time>2022-01-30T12:18:09Z</time>
      </trkpt>
      <trkpt lat="41.8784730" lon="-2.7343700">
        <ele>1194.1</ele>
        <time>2022-01-30T12:18:10Z</time>
      </trkpt>
      <trkpt lat="41.8784380" lon="-2.7342750">
        <ele>1194.1</ele>
        <time>2022-01-30T12:18:11Z</time>
      </trkpt>
      <trkpt lat="41.8784050" lon="-2.7341850">
        <ele>1192.6</ele>
        <time>2022-01-30T12:18:12Z</time>
      </trkpt>
      <trkpt lat="41.8783670" lon="-2.7340920">
        <ele>1191.4</ele>
        <time>2022-01-30T12:18:13Z</time>
      </trkpt>
      <trkpt lat="41.8783270" lon="-2.7339970">
        <ele>1189.7</ele>
        <time>2022-01-30T12:18:14Z</time>
      </trkpt>
      <trkpt lat="41.8782880" lon="-2.7339020">
        <ele>1189.7</ele>
        <time>2022-01-30T12:18:15Z</time>
      </trkpt>
      <trkpt lat="41.8782600" lon="-2.7338020">
        <ele>1187.5</ele>
        <time>2022-01-30T12:18:16Z</time>
      </trkpt>
      <trkpt lat="41.8782430" lon="-2.7337070">
        <ele>1184.1</ele>
        <time>2022-01-30T12:18:17Z</time>
      </trkpt>
      <trkpt lat="41.8782370" lon="-2.7336220">
        <ele>1184.1</ele>
        <time>2022-01-30T12:18:18Z</time>
      </trkpt>
      <trkpt lat="41.8782350" lon="-2.7335520">
        <ele>1184.1</ele>
        <time>2022-01-30T12:18:19Z</time>
      </trkpt>
      <trkpt lat="41.8782330" lon="-2.7334980">
        <ele>1182.2</ele>
        <time>2022-01-30T12:18:20Z</time>
      </trkpt>
      <trkpt lat="41.8782350" lon="-2.7334500">
        <ele>1182.2</ele>
        <time>2022-01-30T12:18:21Z</time>
      </trkpt>
      <trkpt lat="41.8782370" lon="-2.7334100">
        <ele>1182.2</ele>
        <time>2022-01-30T12:18:22Z</time>
      </trkpt>
      <trkpt lat="41.8782350" lon="-2.7333820">
        <ele>1182.2</ele>
        <time>2022-01-30T12:18:23Z</time>
      </trkpt>
      <trkpt lat="41.8782350" lon="-2.7333580">
        <ele>1180.1</ele>
        <time>2022-01-30T12:18:24Z</time>
      </trkpt>
      <trkpt lat="41.8782370" lon="-2.7333370">
        <ele>1180.1</ele>
        <time>2022-01-30T12:18:25Z</time>
      </trkpt>
      <trkpt lat="41.8782370" lon="-2.7333150">
        <ele>1180.1</ele>
        <time>2022-01-30T12:18:26Z</time>
      </trkpt>
      <trkpt lat="41.8782400" lon="-2.7332920">
        <ele>1180.1</ele>
        <time>2022-01-30T12:18:27Z</time>
      </trkpt>
      <trkpt lat="41.8782450" lon="-2.7332680">
        <ele>1180.1</ele>
        <time>2022-01-30T12:18:28Z</time>
      </trkpt>
      <trkpt lat="41.8782520" lon="-2.7332470">
        <ele>1180.1</ele>
        <time>2022-01-30T12:18:29Z</time>
      </trkpt>
      <trkpt lat="41.8782600" lon="-2.7332200">
        <ele>1180.9</ele>
        <time>2022-01-30T12:18:30Z</time>
      </trkpt>
      <trkpt lat="41.8782680" lon="-2.7331830">
        <ele>1178.6</ele>
        <time>2022-01-30T12:18:31Z</time>
      </trkpt>
      <trkpt lat="41.8782770" lon="-2.7331370">
        <ele>1178.6</ele>
        <time>2022-01-30T12:18:32Z</time>
      </trkpt>
      <trkpt lat="41.8782850" lon="-2.7330830">
        <ele>1178.6</ele>
        <time>2022-01-30T12:18:33Z</time>
      </trkpt>
      <trkpt lat="41.8782970" lon="-2.7330220">
        <ele>1178.6</ele>
        <time>2022-01-30T12:18:34Z</time>
      </trkpt>
      <trkpt lat="41.8783120" lon="-2.7329520">
        <ele>1175.8</ele>
        <time>2022-01-30T12:18:35Z</time>
      </trkpt>
      <trkpt lat="41.8783300" lon="-2.7328700">
        <ele>1175.8</ele>
        <time>2022-01-30T12:18:36Z</time>
      </trkpt>
      <trkpt lat="41.8783480" lon="-2.7327780">
        <ele>1173.1</ele>
        <time>2022-01-30T12:18:37Z</time>
      </trkpt>
      <trkpt lat="41.8783670" lon="-2.7326820">
        <ele>1173.1</ele>
        <time>2022-01-30T12:18:38Z</time>
      </trkpt>
      <trkpt lat="41.8783820" lon="-2.7325820">
        <ele>1171.0</ele>
        <time>2022-01-30T12:18:39Z</time>
      </trkpt>
      <trkpt lat="41.8783970" lon="-2.7324800">
        <ele>1167.7</ele>
        <time>2022-01-30T12:18:40Z</time>
      </trkpt>
      <trkpt lat="41.8784130" lon="-2.7323780">
        <ele>1167.7</ele>
        <time>2022-01-30T12:18:41Z</time>
      </trkpt>
      <trkpt lat="41.8784320" lon="-2.7322780">
        <ele>1164.9</ele>
        <time>2022-01-30T12:18:42Z</time>
      </trkpt>
      <trkpt lat="41.8784470" lon="-2.7321780">
        <ele>1164.9</ele>
        <time>2022-01-30T12:18:43Z</time>
      </trkpt>
      <trkpt lat="41.8784520" lon="-2.7320830">
        <ele>1162.2</ele>
        <time>2022-01-30T12:18:44Z</time>
      </trkpt>
      <trkpt lat="41.8784500" lon="-2.7320000">
        <ele>1162.2</ele>
        <time>2022-01-30T12:18:45Z</time>
      </trkpt>
      <trkpt lat="41.8784400" lon="-2.7319270">
        <ele>1159.7</ele>
        <time>2022-01-30T12:18:46Z</time>
      </trkpt>
      <trkpt lat="41.8784230" lon="-2.7318570">
        <ele>1159.7</ele>
        <time>2022-01-30T12:18:47Z</time>
      </trkpt>
      <trkpt lat="41.8784020" lon="-2.7317830">
        <ele>1157.5</ele>
        <time>2022-01-30T12:18:48Z</time>
      </trkpt>
      <trkpt lat="41.8783750" lon="-2.7317100">
        <ele>1156.5</ele>
        <time>2022-01-30T12:18:49Z</time>
      </trkpt>
      <trkpt lat="41.8783450" lon="-2.7316420">
        <ele>1154.0</ele>
        <time>2022-01-30T12:18:50Z</time>
      </trkpt>
      <trkpt lat="41.8783180" lon="-2.7315850">
        <ele>1154.0</ele>
        <time>2022-01-30T12:18:51Z</time>
      </trkpt>
      <trkpt lat="41.8783000" lon="-2.7315480">
        <ele>1154.0</ele>
        <time>2022-01-30T12:18:52Z</time>
      </trkpt>
      <trkpt lat="41.8782870" lon="-2.7315230">
        <ele>1154.0</ele>
        <time>2022-01-30T12:18:53Z</time>
      </trkpt>
      <trkpt lat="41.8782770" lon="-2.7315080">
        <ele>1154.0</ele>
        <time>2022-01-30T12:18:54Z</time>
      </trkpt>
      <trkpt lat="41.8782670" lon="-2.7314980">
        <ele>1154.0</ele>
        <time>2022-01-30T12:18:55Z</time>
      </trkpt>
      <trkpt lat="41.8782580" lon="-2.7314920">
        <ele>1154.0</ele>
        <time>2022-01-30T12:18:56Z</time>
      </trkpt>
      <trkpt lat="41.8782470" lon="-2.7314850">
        <ele>1152.9</ele>
        <time>2022-01-30T12:18:57Z</time>
      </trkpt>
      <trkpt lat="41.8782330" lon="-2.7314780">
        <ele>1152.9</ele>
        <time>2022-01-30T12:18:58Z</time>
      </trkpt>
      <trkpt lat="41.8782150" lon="-2.7314650">
        <ele>1150.6</ele>
        <time>2022-01-30T12:18:59Z</time>
      </trkpt>
      <trkpt lat="41.8781880" lon="-2.7314500">
        <ele>1150.6</ele>
        <time>2022-01-30T12:19:00Z</time>
      </trkpt>
      <trkpt lat="41.8781530" lon="-2.7314420">
        <ele>1150.6</ele>
        <time>2022-01-30T12:19:01Z</time>
      </trkpt>
      <trkpt lat="41.8781070" lon="-2.7314350">
        <ele>1149.7</ele>
        <time>2022-01-30T12:19:02Z</time>
      </trkpt>
      <trkpt lat="41.8780550" lon="-2.7314270">
        <ele>1149.7</ele>
        <time>2022-01-30T12:19:03Z</time>
      </trkpt>
      <trkpt lat="41.8779950" lon="-2.7314150">
        <ele>1148.6</ele>
        <time>2022-01-30T12:19:04Z</time>
      </trkpt>
      <trkpt lat="41.8779280" lon="-2.7314000">
        <ele>1148.6</ele>
        <time>2022-01-30T12:19:05Z</time>
      </trkpt>
      <trkpt lat="41.8778530" lon="-2.7313870">
        <ele>1147.1</ele>
        <time>2022-01-30T12:19:06Z</time>
      </trkpt>
      <trkpt lat="41.8777750" lon="-2.7313770">
        <ele>1147.1</ele>
        <time>2022-01-30T12:19:07Z</time>
      </trkpt>
      <trkpt lat="41.8776950" lon="-2.7313680">
        <ele>1145.4</ele>
        <time>2022-01-30T12:19:08Z</time>
      </trkpt>
      <trkpt lat="41.8776150" lon="-2.7313600">
        <ele>1145.4</ele>
        <time>2022-01-30T12:19:09Z</time>
      </trkpt>
      <trkpt lat="41.8775330" lon="-2.7313570">
        <ele>1143.9</ele>
        <time>2022-01-30T12:19:10Z</time>
      </trkpt>
      <trkpt lat="41.8774500" lon="-2.7313580">
        <ele>1142.5</ele>
        <time>2022-01-30T12:19:11Z</time>
      </trkpt>
      <trkpt lat="41.8773630" lon="-2.7313700">
        <ele>1142.5</ele>
        <time>2022-01-30T12:19:12Z</time>
      </trkpt>
      <trkpt lat="41.8772720" lon="-2.7313880">
        <ele>1141.5</ele>
        <time>2022-01-30T12:19:13Z</time>
      </trkpt>
      <trkpt lat="41.8771850" lon="-2.7314050">
        <ele>1140.5</ele>
        <time>2022-01-30T12:19:14Z</time>
      </trkpt>
      <trkpt lat="41.8771150" lon="-2.7314200">
        <ele>1140.5</ele>
        <time>2022-01-30T12:19:15Z</time>
      </trkpt>
      <trkpt lat="41.8770620" lon="-2.7314330">
        <ele>1139.6</ele>
        <time>2022-01-30T12:19:16Z</time>
      </trkpt>
      <trkpt lat="41.8770200" lon="-2.7314450">
        <ele>1139.6</ele>
        <time>2022-01-30T12:19:17Z</time>
      </trkpt>
      <trkpt lat="41.8769850" lon="-2.7314620">
        <ele>1139.6</ele>
        <time>2022-01-30T12:19:18Z</time>
      </trkpt>
      <trkpt lat="41.8769570" lon="-2.7314800">
        <ele>1139.9</ele>
        <time>2022-01-30T12:19:19Z</time>
      </trkpt>
      <trkpt lat="41.8769300" lon="-2.7314970">
        <ele>1139.9</ele>
        <time>2022-01-30T12:19:20Z</time>
      </trkpt>
      <trkpt lat="41.8769070" lon="-2.7315100">
        <ele>1139.9</ele>
        <time>2022-01-30T12:19:21Z</time>
      </trkpt>
      <trkpt lat="41.8768920" lon="-2.7315270">
        <ele>1139.9</ele>
        <time>2022-01-30T12:19:22Z</time>
      </trkpt>
      <trkpt lat="41.8768800" lon="-2.7315420">
        <ele>1139.9</ele>
        <time>2022-01-30T12:19:23Z</time>
      </trkpt>
      <trkpt lat="41.8768700" lon="-2.7315520">
        <ele>1139.9</ele>
        <time>2022-01-30T12:19:24Z</time>
      </trkpt>
      <trkpt lat="41.8768630" lon="-2.7315600">
        <ele>1139.9</ele>
        <time>2022-01-30T12:19:25Z</time>
      </trkpt>
      <trkpt lat="41.8768550" lon="-2.7315650">
        <ele>1139.9</ele>
        <time>2022-01-30T12:19:26Z</time>
      </trkpt>
      <trkpt lat="41.8768470" lon="-2.7315750">
        <ele>1139.9</ele>
        <time>2022-01-30T12:19:27Z</time>
      </trkpt>
      <trkpt lat="41.8768330" lon="-2.7315900">
        <ele>1138.7</ele>
        <time>2022-01-30T12:19:28Z</time>
      </trkpt>
      <trkpt lat="41.8768170" lon="-2.7316080">
        <ele>1138.7</ele>
        <time>2022-01-30T12:19:29Z</time>
      </trkpt>
      <trkpt lat="41.8767980" lon="-2.7316320">
        <ele>1138.7</ele>
        <time>2022-01-30T12:19:30Z</time>
      </trkpt>
      <trkpt lat="41.8767680" lon="-2.7316600">
        <ele>1140.0</ele>
        <time>2022-01-30T12:19:31Z</time>
      </trkpt>
      <trkpt lat="41.8767350" lon="-2.7316900">
        <ele>1140.0</ele>
        <time>2022-01-30T12:19:32Z</time>
      </trkpt>
      <trkpt lat="41.8767020" lon="-2.7317200">
        <ele>1138.8</ele>
        <time>2022-01-30T12:19:33Z</time>
      </trkpt>
      <trkpt lat="41.8766720" lon="-2.7317480">
        <ele>1138.8</ele>
        <time>2022-01-30T12:19:34Z</time>
      </trkpt>
      <trkpt lat="41.8766380" lon="-2.7317780">
        <ele>1138.8</ele>
        <time>2022-01-30T12:19:35Z</time>
      </trkpt>
      <trkpt lat="41.8766050" lon="-2.7318020">
        <ele>1138.8</ele>
        <time>2022-01-30T12:19:36Z</time>
      </trkpt>
      <trkpt lat="41.8765680" lon="-2.7318150">
        <ele>1137.7</ele>
        <time>2022-01-30T12:19:37Z</time>
      </trkpt>
      <trkpt lat="41.8765420" lon="-2.7318120">
        <ele>1137.7</ele>
        <time>2022-01-30T12:19:38Z</time>
      </trkpt>
      <trkpt lat="41.8765250" lon="-2.7317830">
        <ele>1137.7</ele>
        <time>2022-01-30T12:19:39Z</time>
      </trkpt>
      <trkpt lat="41.8765170" lon="-2.7317470">
        <ele>1137.7</ele>
        <time>2022-01-30T12:19:40Z</time>
      </trkpt>
      <trkpt lat="41.8765130" lon="-2.7317030">
        <ele>1137.7</ele>
        <time>2022-01-30T12:19:41Z</time>
      </trkpt>
      <trkpt lat="41.8765150" lon="-2.7316530">
        <ele>1137.7</ele>
        <time>2022-01-30T12:19:42Z</time>
      </trkpt>
      <trkpt lat="41.8765180" lon="-2.7315980">
        <ele>1136.7</ele>
        <time>2022-01-30T12:19:43Z</time>
      </trkpt>
      <trkpt lat="41.8765270" lon="-2.7315380">
        <ele>1136.7</ele>
        <time>2022-01-30T12:19:44Z</time>
      </trkpt>
      <trkpt lat="41.8765400" lon="-2.7314800">
        <ele>1136.7</ele>
        <time>2022-01-30T12:19:45Z</time>
      </trkpt>
      <trkpt lat="41.8765580" lon="-2.7314200">
        <ele>1135.5</ele>
        <time>2022-01-30T12:19:46Z</time>
      </trkpt>
      <trkpt lat="41.8765800" lon="-2.7313600">
        <ele>1135.5</ele>
        <time>2022-01-30T12:19:47Z</time>
      </trkpt>
      <trkpt lat="41.8766150" lon="-2.7312930">
        <ele>1135.3</ele>
        <time>2022-01-30T12:19:48Z</time>
      </trkpt>
      <trkpt lat="41.8766480" lon="-2.7312270">
        <ele>1135.3</ele>
        <time>2022-01-30T12:19:49Z</time>
      </trkpt>
      <trkpt lat="41.8766750" lon="-2.7311630">
        <ele>1135.3</ele>
        <time>2022-01-30T12:19:50Z</time>
      </trkpt>
      <trkpt lat="41.8767080" lon="-2.7311130">
        <ele>1133.9</ele>
        <time>2022-01-30T12:19:51Z</time>
      </trkpt>
      <trkpt lat="41.8767450" lon="-2.7310630">
        <ele>1134.9</ele>
        <time>2022-01-30T12:19:52Z</time>
      </trkpt>
      <trkpt lat="41.8767800" lon="-2.7310180">
        <ele>1134.9</ele>
        <time>2022-01-30T12:19:53Z</time>
      </trkpt>
      <trkpt lat="41.8768170" lon="-2.7309830">
        <ele>1134.9</ele>
        <time>2022-01-30T12:19:54Z</time>
      </trkpt>
      <trkpt lat="41.8768550" lon="-2.7309550">
        <ele>1134.3</ele>
        <time>2022-01-30T12:19:55Z</time>
      </trkpt>
      <trkpt lat="41.8768970" lon="-2.7309220">
        <ele>1134.3</ele>
        <time>2022-01-30T12:19:56Z</time>
      </trkpt>
      <trkpt lat="41.8769380" lon="-2.7308820">
        <ele>1134.3</ele>
        <time>2022-01-30T12:19:57Z</time>
      </trkpt>
      <trkpt lat="41.8769780" lon="-2.7308380">
        <ele>1134.8</ele>
        <time>2022-01-30T12:19:58Z</time>
      </trkpt>
      <trkpt lat="41.8770130" lon="-2.7307970">
        <ele>1134.8</ele>
        <time>2022-01-30T12:19:59Z</time>
      </trkpt>
      <trkpt lat="41.8770520" lon="-2.7307550">
        <ele>1133.6</ele>
        <time>2022-01-30T12:20:00Z</time>
      </trkpt>
      <trkpt lat="41.8770920" lon="-2.7307150">
        <ele>1133.6</ele>
        <time>2022-01-30T12:20:01Z</time>
      </trkpt>
      <trkpt lat="41.8771380" lon="-2.7306780">
        <ele>1133.8</ele>
        <time>2022-01-30T12:20:02Z</time>
      </trkpt>
      <trkpt lat="41.8771900" lon="-2.7306450">
        <ele>1133.8</ele>
        <time>2022-01-30T12:20:03Z</time>
      </trkpt>
      <trkpt lat="41.8772400" lon="-2.7306170">
        <ele>1132.5</ele>
        <time>2022-01-30T12:20:04Z</time>
      </trkpt>
      <trkpt lat="41.8772920" lon="-2.7305930">
        <ele>1132.5</ele>
        <time>2022-01-30T12:20:05Z</time>
      </trkpt>
      <trkpt lat="41.8773450" lon="-2.7305730">
        <ele>1132.5</ele>
        <time>2022-01-30T12:20:06Z</time>
      </trkpt>
      <trkpt lat="41.8773970" lon="-2.7305570">
        <ele>1132.8</ele>
        <time>2022-01-30T12:20:07Z</time>
      </trkpt>
      <trkpt lat="41.8774400" lon="-2.7305430">
        <ele>1132.8</ele>
        <time>2022-01-30T12:20:08Z</time>
      </trkpt>
      <trkpt lat="41.8774780" lon="-2.7305280">
        <ele>1132.8</ele>
        <time>2022-01-30T12:20:09Z</time>
      </trkpt>
      <trkpt lat="41.8775170" lon="-2.7305150">
        <ele>1133.5</ele>
        <time>2022-01-30T12:20:10Z</time>
      </trkpt>
      <trkpt lat="41.8775470" lon="-2.7304920">
        <ele>1133.5</ele>
        <time>2022-01-30T12:20:11Z</time>
      </trkpt>
      <trkpt lat="41.8775680" lon="-2.7304580">
        <ele>1133.5</ele>
        <time>2022-01-30T12:20:12Z</time>
      </trkpt>
      <trkpt lat="41.8775800" lon="-2.7304080">
        <ele>1131.5</ele>
        <time>2022-01-30T12:20:13Z</time>
      </trkpt>
      <trkpt lat="41.8775800" lon="-2.7303420">
        <ele>1131.5</ele>
        <time>2022-01-30T12:20:14Z</time>
      </trkpt>
      <trkpt lat="41.8775730" lon="-2.7302630">
        <ele>1129.3</ele>
        <time>2022-01-30T12:20:15Z</time>
      </trkpt>
      <trkpt lat="41.8775650" lon="-2.7301820">
        <ele>1129.3</ele>
        <time>2022-01-30T12:20:16Z</time>
      </trkpt>
      <trkpt lat="41.8775530" lon="-2.7301000">
        <ele>1126.9</ele>
        <time>2022-01-30T12:20:17Z</time>
      </trkpt>
      <trkpt lat="41.8775450" lon="-2.7300050">
        <ele>1126.9</ele>
        <time>2022-01-30T12:20:18Z</time>
      </trkpt>
      <trkpt lat="41.8775400" lon="-2.7299220">
        <ele>1123.8</ele>
        <time>2022-01-30T12:20:19Z</time>
      </trkpt>
      <trkpt lat="41.8775370" lon="-2.7298480">
        <ele>1123.8</ele>
        <time>2022-01-30T12:20:20Z</time>
      </trkpt>
      <trkpt lat="41.8775400" lon="-2.7297750">
        <ele>1123.8</ele>
        <time>2022-01-30T12:20:21Z</time>
      </trkpt>
      <trkpt lat="41.8775430" lon="-2.7297080">
        <ele>1120.6</ele>
        <time>2022-01-30T12:20:22Z</time>
      </trkpt>
      <trkpt lat="41.8775480" lon="-2.7296550">
        <ele>1120.6</ele>
        <time>2022-01-30T12:20:23Z</time>
      </trkpt>
      <trkpt lat="41.8775420" lon="-2.7296080">
        <ele>1120.6</ele>
        <time>2022-01-30T12:20:24Z</time>
      </trkpt>
      <trkpt lat="41.8775280" lon="-2.7295600">
        <ele>1117.8</ele>
        <time>2022-01-30T12:20:25Z</time>
      </trkpt>
      <trkpt lat="41.8775080" lon="-2.7295300">
        <ele>1117.6</ele>
        <time>2022-01-30T12:20:26Z</time>
      </trkpt>
      <trkpt lat="41.8774750" lon="-2.7295200">
        <ele>1117.3</ele>
        <time>2022-01-30T12:20:27Z</time>
      </trkpt>
      <trkpt lat="41.8774470" lon="-2.7295150">
        <ele>1117.2</ele>
        <time>2022-01-30T12:20:28Z</time>
      </trkpt>
      <trkpt lat="41.8774130" lon="-2.7295130">
        <ele>1116.9</ele>
        <time>2022-01-30T12:20:29Z</time>
      </trkpt>
      <trkpt lat="41.8773770" lon="-2.7295120">
        <ele>1116.7</ele>
        <time>2022-01-30T12:20:30Z</time>
      </trkpt>
      <trkpt lat="41.8773420" lon="-2.7295130">
        <ele>1116.5</ele>
        <time>2022-01-30T12:20:31Z</time>
      </trkpt>
      <trkpt lat="41.8773050" lon="-2.7295150">
        <ele>1116.3</ele>
        <time>2022-01-30T12:20:32Z</time>
      </trkpt>
      <trkpt lat="41.8772680" lon="-2.7295200">
        <ele>1116.1</ele>
        <time>2022-01-30T12:20:33Z</time>
      </trkpt>
      <trkpt lat="41.8772270" lon="-2.7295250">
        <ele>1115.9</ele>
        <time>2022-01-30T12:20:34Z</time>
      </trkpt>
      <trkpt lat="41.8771850" lon="-2.7295270">
        <ele>1115.7</ele>
        <time>2022-01-30T12:20:35Z</time>
      </trkpt>
      <trkpt lat="41.8771420" lon="-2.7295230">
        <ele>1115.4</ele>
        <time>2022-01-30T12:20:36Z</time>
      </trkpt>
      <trkpt lat="41.8770970" lon="-2.7295220">
        <ele>1115.2</ele>
        <time>2022-01-30T12:20:37Z</time>
      </trkpt>
      <trkpt lat="41.8770480" lon="-2.7295130">
        <ele>1114.9</ele>
        <time>2022-01-30T12:20:38Z</time>
      </trkpt>
      <trkpt lat="41.8770000" lon="-2.7295030">
        <ele>1114.7</ele>
        <time>2022-01-30T12:20:39Z</time>
      </trkpt>
      <trkpt lat="41.8769500" lon="-2.7294880">
        <ele>1114.4</ele>
        <time>2022-01-30T12:20:40Z</time>
      </trkpt>
      <trkpt lat="41.8769030" lon="-2.7294720">
        <ele>1114.2</ele>
        <time>2022-01-30T12:20:41Z</time>
      </trkpt>
      <trkpt lat="41.8768570" lon="-2.7294530">
        <ele>1113.9</ele>
        <time>2022-01-30T12:20:42Z</time>
      </trkpt>
      <trkpt lat="41.8768120" lon="-2.7294300">
        <ele>1113.7</ele>
        <time>2022-01-30T12:20:43Z</time>
      </trkpt>
      <trkpt lat="41.8767720" lon="-2.7294020">
        <ele>1113.4</ele>
        <time>2022-01-30T12:20:44Z</time>
      </trkpt>
      <trkpt lat="41.8767330" lon="-2.7293720">
        <ele>1113.2</ele>
        <time>2022-01-30T12:20:45Z</time>
      </trkpt>
      <trkpt lat="41.8766930" lon="-2.7293300">
        <ele>1112.9</ele>
        <time>2022-01-30T12:20:46Z</time>
      </trkpt>
      <trkpt lat="41.8766580" lon="-2.7292880">
        <ele>1112.6</ele>
        <time>2022-01-30T12:20:47Z</time>
      </trkpt>
      <trkpt lat="41.8766270" lon="-2.7292430">
        <ele>1112.3</ele>
        <time>2022-01-30T12:20:48Z</time>
      </trkpt>
      <trkpt lat="41.8765930" lon="-2.7291900">
        <ele>1111.9</ele>
        <time>2022-01-30T12:20:49Z</time>
      </trkpt>
      <trkpt lat="41.8765620" lon="-2.7291300">
        <ele>1111.5</ele>
        <time>2022-01-30T12:20:50Z</time>
      </trkpt>
      <trkpt lat="41.8765250" lon="-2.7290680">
        <ele>1111.1</ele>
        <time>2022-01-30T12:20:51Z</time>
      </trkpt>
      <trkpt lat="41.8764830" lon="-2.7289950">
        <ele>1110.5</ele>
        <time>2022-01-30T12:20:52Z</time>
      </trkpt>
      <trkpt lat="41.8764430" lon="-2.7289200">
        <ele>1110.0</ele>
        <time>2022-01-30T12:20:53Z</time>
      </trkpt>
      <trkpt lat="41.8764030" lon="-2.7288450">
        <ele>1109.4</ele>
        <time>2022-01-30T12:20:54Z</time>
      </trkpt>
      <trkpt lat="41.8763630" lon="-2.7287680">
        <ele>1108.9</ele>
        <time>2022-01-30T12:20:55Z</time>
      </trkpt>
      <trkpt lat="41.8763220" lon="-2.7286900">
        <ele>1108.5</ele>
        <time>2022-01-30T12:20:56Z</time>
      </trkpt>
      <trkpt lat="41.8762730" lon="-2.7286080">
        <ele>1108.0</ele>
        <time>2022-01-30T12:20:57Z</time>
      </trkpt>
      <trkpt lat="41.8762220" lon="-2.7285250">
        <ele>1107.6</ele>
        <time>2022-01-30T12:20:58Z</time>
      </trkpt>
      <trkpt lat="41.8761620" lon="-2.7284450">
        <ele>1107.2</ele>
        <time>2022-01-30T12:20:59Z</time>
      </trkpt>
      <trkpt lat="41.8760980" lon="-2.7283700">
        <ele>1107.0</ele>
        <time>2022-01-30T12:21:00Z</time>
      </trkpt>
      <trkpt lat="41.8760320" lon="-2.7282980">
        <ele>1106.8</ele>
        <time>2022-01-30T12:21:01Z</time>
      </trkpt>
      <trkpt lat="41.8759700" lon="-2.7282330">
        <ele>1106.7</ele>
        <time>2022-01-30T12:21:02Z</time>
      </trkpt>
      <trkpt lat="41.8759070" lon="-2.7281800">
        <ele>1106.7</ele>
        <time>2022-01-30T12:21:03Z</time>
      </trkpt>
      <trkpt lat="41.8758480" lon="-2.7281320">
        <ele>1106.7</ele>
        <time>2022-01-30T12:21:04Z</time>
      </trkpt>
      <trkpt lat="41.8757980" lon="-2.7280830">
        <ele>1106.7</ele>
        <time>2022-01-30T12:21:05Z</time>
      </trkpt>
      <trkpt lat="41.8757500" lon="-2.7280400">
        <ele>1106.6</ele>
        <time>2022-01-30T12:21:06Z</time>
      </trkpt>
      <trkpt lat="41.8757130" lon="-2.7280000">
        <ele>1106.6</ele>
        <time>2022-01-30T12:21:07Z</time>
      </trkpt>
      <trkpt lat="41.8756920" lon="-2.7279630">
        <ele>1106.6</ele>
        <time>2022-01-30T12:21:08Z</time>
      </trkpt>
      <trkpt lat="41.8756780" lon="-2.7279150">
        <ele>1106.5</ele>
        <time>2022-01-30T12:21:09Z</time>
      </trkpt>
      <trkpt lat="41.8756730" lon="-2.7278350">
        <ele>1104.8</ele>
        <time>2022-01-30T12:21:10Z</time>
      </trkpt>
      <trkpt lat="41.8756730" lon="-2.7277600">
        <ele>1104.8</ele>
        <time>2022-01-30T12:21:11Z</time>
      </trkpt>
      <trkpt lat="41.8756770" lon="-2.7276880">
        <ele>1103.3</ele>
        <time>2022-01-30T12:21:12Z</time>
      </trkpt>
      <trkpt lat="41.8756900" lon="-2.7276280">
        <ele>1103.3</ele>
        <time>2022-01-30T12:21:13Z</time>
      </trkpt>
      <trkpt lat="41.8757050" lon="-2.7275880">
        <ele>1103.4</ele>
        <time>2022-01-30T12:21:14Z</time>
      </trkpt>
      <trkpt lat="41.8757280" lon="-2.7275720">
        <ele>1103.4</ele>
        <time>2022-01-30T12:21:15Z</time>
      </trkpt>
      <trkpt lat="41.8757550" lon="-2.7275630">
        <ele>1103.4</ele>
        <time>2022-01-30T12:21:16Z</time>
      </trkpt>
      <trkpt lat="41.8757830" lon="-2.7275420">
        <ele>1103.4</ele>
        <time>2022-01-30T12:21:17Z</time>
      </trkpt>
      <trkpt lat="41.8758170" lon="-2.7275150">
        <ele>1102.3</ele>
        <time>2022-01-30T12:21:18Z</time>
      </trkpt>
      <trkpt lat="41.8758570" lon="-2.7274970">
        <ele>1102.5</ele>
        <time>2022-01-30T12:21:19Z</time>
      </trkpt>
      <trkpt lat="41.8759030" lon="-2.7274800">
        <ele>1102.5</ele>
        <time>2022-01-30T12:21:20Z</time>
      </trkpt>
      <trkpt lat="41.8759500" lon="-2.7274670">
        <ele>1102.5</ele>
        <time>2022-01-30T12:21:21Z</time>
      </trkpt>
      <trkpt lat="41.8759930" lon="-2.7274620">
        <ele>1102.8</ele>
        <time>2022-01-30T12:21:22Z</time>
      </trkpt>
      <trkpt lat="41.8760380" lon="-2.7274700">
        <ele>1102.8</ele>
        <time>2022-01-30T12:21:23Z</time>
      </trkpt>
      <trkpt lat="41.8760830" lon="-2.7274830">
        <ele>1103.1</ele>
        <time>2022-01-30T12:21:24Z</time>
      </trkpt>
      <trkpt lat="41.8761320" lon="-2.7275030">
        <ele>1103.1</ele>
        <time>2022-01-30T12:21:25Z</time>
      </trkpt>
      <trkpt lat="41.8761820" lon="-2.7275250">
        <ele>1103.1</ele>
        <time>2022-01-30T12:21:26Z</time>
      </trkpt>
      <trkpt lat="41.8762280" lon="-2.7275470">
        <ele>1103.3</ele>
        <time>2022-01-30T12:21:27Z</time>
      </trkpt>
      <trkpt lat="41.8762830" lon="-2.7275800">
        <ele>1103.3</ele>
        <time>2022-01-30T12:21:28Z</time>
      </trkpt>
      <trkpt lat="41.8763330" lon="-2.7276080">
        <ele>1103.3</ele>
        <time>2022-01-30T12:21:29Z</time>
      </trkpt>
      <trkpt lat="41.8763730" lon="-2.7276430">
        <ele>1102.8</ele>
        <time>2022-01-30T12:21:30Z</time>
      </trkpt>
      <trkpt lat="41.8764050" lon="-2.7276820">
        <ele>1102.8</ele>
        <time>2022-01-30T12:21:31Z</time>
      </trkpt>
      <trkpt lat="41.8764350" lon="-2.7277250">
        <ele>1103.4</ele>
        <time>2022-01-30T12:21:32Z</time>
      </trkpt>
      <trkpt lat="41.8764650" lon="-2.7277750">
        <ele>1103.0</ele>
        <time>2022-01-30T12:21:33Z</time>
      </trkpt>
      <trkpt lat="41.8764930" lon="-2.7278330">
        <ele>1103.0</ele>
        <time>2022-01-30T12:21:34Z</time>
      </trkpt>
      <trkpt lat="41.8765280" lon="-2.7278820">
        <ele>1103.7</ele>
        <time>2022-01-30T12:21:35Z</time>
      </trkpt>
      <trkpt lat="41.8765620" lon="-2.7279300">
        <ele>1103.7</ele>
        <time>2022-01-30T12:21:36Z</time>
      </trkpt>
      <trkpt lat="41.8765970" lon="-2.7279750">
        <ele>1103.3</ele>
        <time>2022-01-30T12:21:37Z</time>
      </trkpt>
      <trkpt lat="41.8766330" lon="-2.7280200">
        <ele>1103.3</ele>
        <time>2022-01-30T12:21:38Z</time>
      </trkpt>
      <trkpt lat="41.8766720" lon="-2.7280620">
        <ele>1103.9</ele>
        <time>2022-01-30T12:21:39Z</time>
      </trkpt>
      <trkpt lat="41.8767130" lon="-2.7281050">
        <ele>1103.9</ele>
        <time>2022-01-30T12:21:40Z</time>
      </trkpt>
      <trkpt lat="41.8767520" lon="-2.7281480">
        <ele>1103.9</ele>
        <time>2022-01-30T12:21:41Z</time>
      </trkpt>
      <trkpt lat="41.8767950" lon="-2.7281950">
        <ele>1103.9</ele>
        <time>2022-01-30T12:21:42Z</time>
      </trkpt>
      <trkpt lat="41.8768400" lon="-2.7282380">
        <ele>1105.0</ele>
        <time>2022-01-30T12:21:43Z</time>
      </trkpt>
      <trkpt lat="41.8768870" lon="-2.7282800">
        <ele>1105.5</ele>
        <time>2022-01-30T12:21:44Z</time>
      </trkpt>
      <trkpt lat="41.8769320" lon="-2.7283130">
        <ele>1105.5</ele>
        <time>2022-01-30T12:21:45Z</time>
      </trkpt>
      <trkpt lat="41.8769770" lon="-2.7283400">
        <ele>1106.3</ele>
        <time>2022-01-30T12:21:46Z</time>
      </trkpt>
      <trkpt lat="41.8770280" lon="-2.7283670">
        <ele>1106.3</ele>
        <time>2022-01-30T12:21:47Z</time>
      </trkpt>
      <trkpt lat="41.8770800" lon="-2.7283870">
        <ele>1107.9</ele>
        <time>2022-01-30T12:21:48Z</time>
      </trkpt>
      <trkpt lat="41.8771270" lon="-2.7284120">
        <ele>1108.7</ele>
        <time>2022-01-30T12:21:49Z</time>
      </trkpt>
      <trkpt lat="41.8771750" lon="-2.7284250">
        <ele>1108.7</ele>
        <time>2022-01-30T12:21:50Z</time>
      </trkpt>
      <trkpt lat="41.8772170" lon="-2.7284270">
        <ele>1108.7</ele>
        <time>2022-01-30T12:21:51Z</time>
      </trkpt>
      <trkpt lat="41.8772530" lon="-2.7284170">
        <ele>1109.4</ele>
        <time>2022-01-30T12:21:52Z</time>
      </trkpt>
      <trkpt lat="41.8772920" lon="-2.7284070">
        <ele>1109.4</ele>
        <time>2022-01-30T12:21:53Z</time>
      </trkpt>
      <trkpt lat="41.8773300" lon="-2.7283880">
        <ele>1109.4</ele>
        <time>2022-01-30T12:21:54Z</time>
      </trkpt>
      <trkpt lat="41.8773680" lon="-2.7283620">
        <ele>1108.4</ele>
        <time>2022-01-30T12:21:55Z</time>
      </trkpt>
      <trkpt lat="41.8774100" lon="-2.7283180">
        <ele>1108.4</ele>
        <time>2022-01-30T12:21:56Z</time>
      </trkpt>
      <trkpt lat="41.8774520" lon="-2.7282770">
        <ele>1108.5</ele>
        <time>2022-01-30T12:21:57Z</time>
      </trkpt>
      <trkpt lat="41.8774920" lon="-2.7282400">
        <ele>1109.4</ele>
        <time>2022-01-30T12:21:58Z</time>
      </trkpt>
      <trkpt lat="41.8775300" lon="-2.7282220">
        <ele>1109.4</ele>
        <time>2022-01-30T12:21:59Z</time>
      </trkpt>
      <trkpt lat="41.8775730" lon="-2.7282030">
        <ele>1108.3</ele>
        <time>2022-01-30T12:22:00Z</time>
      </trkpt>
      <trkpt lat="41.8776100" lon="-2.7281850">
        <ele>1108.3</ele>
        <time>2022-01-30T12:22:01Z</time>
      </trkpt>
      <trkpt lat="41.8776470" lon="-2.7281670">
        <ele>1109.1</ele>
        <time>2022-01-30T12:22:02Z</time>
      </trkpt>
      <trkpt lat="41.8776730" lon="-2.7281550">
        <ele>1109.1</ele>
        <time>2022-01-30T12:22:03Z</time>
      </trkpt>
      <trkpt lat="41.8777120" lon="-2.7281500">
        <ele>1109.1</ele>
        <time>2022-01-30T12:22:04Z</time>
      </trkpt>
      <trkpt lat="41.8777500" lon="-2.7281520">
        <ele>1109.7</ele>
        <time>2022-01-30T12:22:05Z</time>
      </trkpt>
      <trkpt lat="41.8777770" lon="-2.7281530">
        <ele>1109.7</ele>
        <time>2022-01-30T12:22:06Z</time>
      </trkpt>
      <trkpt lat="41.8778070" lon="-2.7281530">
        <ele>1109.8</ele>
        <time>2022-01-30T12:22:07Z</time>
      </trkpt>
      <trkpt lat="41.8778350" lon="-2.7281520">
        <ele>1109.8</ele>
        <time>2022-01-30T12:22:08Z</time>
      </trkpt>
      <trkpt lat="41.8778620" lon="-2.7281480">
        <ele>1109.8</ele>
        <time>2022-01-30T12:22:09Z</time>
      </trkpt>
      <trkpt lat="41.8778930" lon="-2.7281420">
        <ele>1110.1</ele>
        <time>2022-01-30T12:22:10Z</time>
      </trkpt>
      <trkpt lat="41.8779320" lon="-2.7281330">
        <ele>1110.2</ele>
        <time>2022-01-30T12:22:11Z</time>
      </trkpt>
      <trkpt lat="41.8779670" lon="-2.7281230">
        <ele>1110.2</ele>
        <time>2022-01-30T12:22:12Z</time>
      </trkpt>
      <trkpt lat="41.8780050" lon="-2.7281170">
        <ele>1110.3</ele>
        <time>2022-01-30T12:22:13Z</time>
      </trkpt>
      <trkpt lat="41.8780450" lon="-2.7281120">
        <ele>1110.3</ele>
        <time>2022-01-30T12:22:14Z</time>
      </trkpt>
      <trkpt lat="41.8780820" lon="-2.7281000">
        <ele>1110.4</ele>
        <time>2022-01-30T12:22:15Z</time>
      </trkpt>
      <trkpt lat="41.8781170" lon="-2.7280830">
        <ele>1110.4</ele>
        <time>2022-01-30T12:22:16Z</time>
      </trkpt>
      <trkpt lat="41.8781500" lon="-2.7280620">
        <ele>1110.5</ele>
        <time>2022-01-30T12:22:17Z</time>
      </trkpt>
      <trkpt lat="41.8781800" lon="-2.7280470">
        <ele>1110.6</ele>
        <time>2022-01-30T12:22:18Z</time>
      </trkpt>
      <trkpt lat="41.8782120" lon="-2.7280370">
        <ele>1108.4</ele>
        <time>2022-01-30T12:22:19Z</time>
      </trkpt>
      <trkpt lat="41.8782470" lon="-2.7280280">
        <ele>1108.4</ele>
        <time>2022-01-30T12:22:20Z</time>
      </trkpt>
      <trkpt lat="41.8782720" lon="-2.7280220">
        <ele>1108.2</ele>
        <time>2022-01-30T12:22:21Z</time>
      </trkpt>
      <trkpt lat="41.8782930" lon="-2.7280220">
        <ele>1108.3</ele>
        <time>2022-01-30T12:22:22Z</time>
      </trkpt>
      <trkpt lat="41.8783220" lon="-2.7280320">
        <ele>1108.3</ele>
        <time>2022-01-30T12:22:23Z</time>
      </trkpt>
      <trkpt lat="41.8783450" lon="-2.7280450">
        <ele>1110.8</ele>
        <time>2022-01-30T12:22:24Z</time>
      </trkpt>
      <trkpt lat="41.8783700" lon="-2.7280580">
        <ele>1110.9</ele>
        <time>2022-01-30T12:22:25Z</time>
      </trkpt>
      <trkpt lat="41.8784000" lon="-2.7280670">
        <ele>1111.0</ele>
        <time>2022-01-30T12:22:26Z</time>
      </trkpt>
      <trkpt lat="41.8784320" lon="-2.7280630">
        <ele>1111.1</ele>
        <time>2022-01-30T12:22:27Z</time>
      </trkpt>
      <trkpt lat="41.8784620" lon="-2.7280450">
        <ele>1111.1</ele>
        <time>2022-01-30T12:22:28Z</time>
      </trkpt>
      <trkpt lat="41.8784930" lon="-2.7280100">
        <ele>1108.0</ele>
        <time>2022-01-30T12:22:29Z</time>
      </trkpt>
      <trkpt lat="41.8785280" lon="-2.7279620">
        <ele>1107.4</ele>
        <time>2022-01-30T12:22:30Z</time>
      </trkpt>
      <trkpt lat="41.8785520" lon="-2.7279000">
        <ele>1107.4</ele>
        <time>2022-01-30T12:22:31Z</time>
      </trkpt>
      <trkpt lat="41.8785600" lon="-2.7278380">
        <ele>1104.2</ele>
        <time>2022-01-30T12:22:32Z</time>
      </trkpt>
      <trkpt lat="41.8785580" lon="-2.7277700">
        <ele>1104.2</ele>
        <time>2022-01-30T12:22:33Z</time>
      </trkpt>
      <trkpt lat="41.8785520" lon="-2.7276980">
        <ele>1100.5</ele>
        <time>2022-01-30T12:22:34Z</time>
      </trkpt>
      <trkpt lat="41.8785520" lon="-2.7276500">
        <ele>1100.6</ele>
        <time>2022-01-30T12:22:35Z</time>
      </trkpt>
      <trkpt lat="41.8785670" lon="-2.7275970">
        <ele>1100.6</ele>
        <time>2022-01-30T12:22:36Z</time>
      </trkpt>
      <trkpt lat="41.8785850" lon="-2.7275750">
        <ele>1100.7</ele>
        <time>2022-01-30T12:22:37Z</time>
      </trkpt>
      <trkpt lat="41.8786050" lon="-2.7275730">
        <ele>1100.7</ele>
        <time>2022-01-30T12:22:38Z</time>
      </trkpt>
      <trkpt lat="41.8786220" lon="-2.7275880">
        <ele>1100.7</ele>
        <time>2022-01-30T12:22:39Z</time>
      </trkpt>
      <trkpt lat="41.8786380" lon="-2.7276130">
        <ele>1099.0</ele>
        <time>2022-01-30T12:22:40Z</time>
      </trkpt>
      <trkpt lat="41.8786570" lon="-2.7276400">
        <ele>1099.0</ele>
        <time>2022-01-30T12:22:41Z</time>
      </trkpt>
      <trkpt lat="41.8786730" lon="-2.7276650">
        <ele>1099.1</ele>
        <time>2022-01-30T12:22:42Z</time>
      </trkpt>
      <trkpt lat="41.8786880" lon="-2.7276850">
        <ele>1099.2</ele>
        <time>2022-01-30T12:22:43Z</time>
      </trkpt>
      <trkpt lat="41.8787030" lon="-2.7277070">
        <ele>1103.3</ele>
        <time>2022-01-30T12:22:44Z</time>
      </trkpt>
      <trkpt lat="41.8787100" lon="-2.7277250">
        <ele>1103.3</ele>
        <time>2022-01-30T12:22:45Z</time>
      </trkpt>
      <trkpt lat="41.8787220" lon="-2.7277320">
        <ele>1103.3</ele>
        <time>2022-01-30T12:22:46Z</time>
      </trkpt>
      <trkpt lat="41.8787380" lon="-2.7277420">
        <ele>1103.4</ele>
        <time>2022-01-30T12:22:47Z</time>
      </trkpt>
      <trkpt lat="41.8787600" lon="-2.7277480">
        <ele>1103.5</ele>
        <time>2022-01-30T12:22:48Z</time>
      </trkpt>
      <trkpt lat="41.8787830" lon="-2.7277520">
        <ele>1102.3</ele>
        <time>2022-01-30T12:22:49Z</time>
      </trkpt>
      <trkpt lat="41.8788120" lon="-2.7277580">
        <ele>1102.4</ele>
        <time>2022-01-30T12:22:50Z</time>
      </trkpt>
      <trkpt lat="41.8788420" lon="-2.7277670">
        <ele>1102.4</ele>
        <time>2022-01-30T12:22:51Z</time>
      </trkpt>
      <trkpt lat="41.8788730" lon="-2.7277870">
        <ele>1102.5</ele>
        <time>2022-01-30T12:22:52Z</time>
      </trkpt>
      <trkpt lat="41.8789070" lon="-2.7278020">
        <ele>1101.4</ele>
        <time>2022-01-30T12:22:53Z</time>
      </trkpt>
      <trkpt lat="41.8789500" lon="-2.7278070">
        <ele>1101.5</ele>
        <time>2022-01-30T12:22:54Z</time>
      </trkpt>
      <trkpt lat="41.8789900" lon="-2.7278120">
        <ele>1101.6</ele>
        <time>2022-01-30T12:22:55Z</time>
      </trkpt>
      <trkpt lat="41.8790280" lon="-2.7278150">
        <ele>1100.8</ele>
        <time>2022-01-30T12:22:56Z</time>
      </trkpt>
      <trkpt lat="41.8790670" lon="-2.7278130">
        <ele>1100.9</ele>
        <time>2022-01-30T12:22:57Z</time>
      </trkpt>
      <trkpt lat="41.8791000" lon="-2.7278130">
        <ele>1101.0</ele>
        <time>2022-01-30T12:22:58Z</time>
      </trkpt>
      <trkpt lat="41.8791370" lon="-2.7278080">
        <ele>1101.0</ele>
        <time>2022-01-30T12:22:59Z</time>
      </trkpt>
      <trkpt lat="41.8791700" lon="-2.7277980">
        <ele>1100.0</ele>
        <time>2022-01-30T12:23:00Z</time>
      </trkpt>
      <trkpt lat="41.8792030" lon="-2.7277950">
        <ele>1100.1</ele>
        <time>2022-01-30T12:23:01Z</time>
      </trkpt>
      <trkpt lat="41.8792320" lon="-2.7277980">
        <ele>1100.2</ele>
        <time>2022-01-30T12:23:02Z</time>
      </trkpt>
      <trkpt lat="41.8792580" lon="-2.7278000">
        <ele>1100.2</ele>
        <time>2022-01-30T12:23:03Z</time>
      </trkpt>
      <trkpt lat="41.8792970" lon="-2.7277980">
        <ele>1099.2</ele>
        <time>2022-01-30T12:23:04Z</time>
      </trkpt>
      <trkpt lat="41.8793250" lon="-2.7277950">
        <ele>1099.3</ele>
        <time>2022-01-30T12:23:05Z</time>
      </trkpt>
      <trkpt lat="41.8793470" lon="-2.7277950">
        <ele>1099.4</ele>
        <time>2022-01-30T12:23:06Z</time>
      </trkpt>
      <trkpt lat="41.8793700" lon="-2.7277950">
        <ele>1099.4</ele>
        <time>2022-01-30T12:23:07Z</time>
      </trkpt>
      <trkpt lat="41.8793930" lon="-2.7278000">
        <ele>1099.5</ele>
        <time>2022-01-30T12:23:08Z</time>
      </trkpt>
      <trkpt lat="41.8794120" lon="-2.7278050">
        <ele>1098.1</ele>
        <time>2022-01-30T12:23:09Z</time>
      </trkpt>
      <trkpt lat="41.8794220" lon="-2.7278080">
        <ele>1098.1</ele>
        <time>2022-01-30T12:23:10Z</time>
      </trkpt>
      <trkpt lat="41.8794270" lon="-2.7278100">
        <ele>1098.1</ele>
        <time>2022-01-30T12:23:11Z</time>
      </trkpt>
      <trkpt lat="41.8794280" lon="-2.7278120">
        <ele>1098.3</ele>
        <time>2022-01-30T12:23:12Z</time>
      </trkpt>
      <trkpt lat="41.8794270" lon="-2.7278120">
        <ele>1098.3</ele>
        <time>2022-01-30T12:23:13Z</time>
      </trkpt>
      <trkpt lat="41.8794230" lon="-2.7278100">
        <ele>1098.3</ele>
        <time>2022-01-30T12:23:14Z</time>
      </trkpt>
      <trkpt lat="41.8794220" lon="-2.7278070">
        <ele>1098.5</ele>
        <time>2022-01-30T12:23:15Z</time>
      </trkpt>
      <trkpt lat="41.8794200" lon="-2.7278000">
        <ele>1098.5</ele>
        <time>2022-01-30T12:23:16Z</time>
      </trkpt>
      <trkpt lat="41.8794250" lon="-2.7278000">
        <ele>1098.5</ele>
        <time>2022-01-30T12:23:17Z</time>
      </trkpt>
      <trkpt lat="41.8794300" lon="-2.7278100">
        <ele>1098.7</ele>
        <time>2022-01-30T12:23:18Z</time>
      </trkpt>
      <trkpt lat="41.8794370" lon="-2.7278020">
        <ele>1098.7</ele>
        <time>2022-01-30T12:23:19Z</time>
      </trkpt>
      <trkpt lat="41.8794420" lon="-2.7278070">
        <ele>1098.8</ele>
        <time>2022-01-30T12:23:20Z</time>
      </trkpt>
      <trkpt lat="41.8794470" lon="-2.7278150">
        <ele>1098.9</ele>
        <time>2022-01-30T12:23:21Z</time>
      </trkpt>
      <trkpt lat="41.8794480" lon="-2.7278180">
        <ele>1098.9</ele>
        <time>2022-01-30T12:23:22Z</time>
      </trkpt>
      <trkpt lat="41.8794550" lon="-2.7278180">
        <ele>1099.0</ele>
        <time>2022-01-30T12:23:23Z</time>
      </trkpt>
      <trkpt lat="41.8794550" lon="-2.7278150">
        <ele>1099.1</ele>
        <time>2022-01-30T12:23:24Z</time>
      </trkpt>
      <trkpt lat="41.8794550" lon="-2.7278120">
        <ele>1099.1</ele>
        <time>2022-01-30T12:23:25Z</time>
      </trkpt>
      <trkpt lat="41.8794580" lon="-2.7278080">
        <ele>1099.2</ele>
        <time>2022-01-30T12:23:26Z</time>
      </trkpt>
      <trkpt lat="41.8794580" lon="-2.7278080">
        <ele>1099.3</ele>
        <time>2022-01-30T12:23:27Z</time>
      </trkpt>
      <trkpt lat="41.8794620" lon="-2.7278080">
        <ele>1099.4</ele>
        <time>2022-01-30T12:23:28Z</time>
      </trkpt>
      <trkpt lat="41.8794670" lon="-2.7278050">
        <ele>1099.4</ele>
        <time>2022-01-30T12:23:29Z</time>
      </trkpt>
      <trkpt lat="41.8794670" lon="-2.7277980">
        <ele>1099.6</ele>
        <time>2022-01-30T12:23:30Z</time>
      </trkpt>
      <trkpt lat="41.8794670" lon="-2.7277930">
        <ele>1099.6</ele>
        <time>2022-01-30T12:23:31Z</time>
      </trkpt>
      <trkpt lat="41.8794730" lon="-2.7277900">
        <ele>1099.7</ele>
        <time>2022-01-30T12:23:32Z</time>
      </trkpt>
      <trkpt lat="41.8794800" lon="-2.7277920">
        <ele>1099.8</ele>
        <time>2022-01-30T12:23:33Z</time>
      </trkpt>
      <trkpt lat="41.8794920" lon="-2.7277920">
        <ele>1099.8</ele>
        <time>2022-01-30T12:23:34Z</time>
      </trkpt>
      <trkpt lat="41.8795030" lon="-2.7277920">
        <ele>1099.8</ele>
        <time>2022-01-30T12:23:35Z</time>
      </trkpt>
      <trkpt lat="41.8795180" lon="-2.7277880">
        <ele>1099.9</ele>
        <time>2022-01-30T12:23:36Z</time>
      </trkpt>
      <trkpt lat="41.8795380" lon="-2.7277870">
        <ele>1098.2</ele>
        <time>2022-01-30T12:23:37Z</time>
      </trkpt>
      <trkpt lat="41.8795570" lon="-2.7277870">
        <ele>1098.2</ele>
        <time>2022-01-30T12:23:38Z</time>
      </trkpt>
      <trkpt lat="41.8795720" lon="-2.7277880">
        <ele>1098.2</ele>
        <time>2022-01-30T12:23:39Z</time>
      </trkpt>
      <trkpt lat="41.8795950" lon="-2.7277920">
        <ele>1098.3</ele>
        <time>2022-01-30T12:23:40Z</time>
      </trkpt>
      <trkpt lat="41.8796150" lon="-2.7277970">
        <ele>1098.3</ele>
        <time>2022-01-30T12:23:41Z</time>
      </trkpt>
      <trkpt lat="41.8796350" lon="-2.7278050">
        <ele>1098.3</ele>
        <time>2022-01-30T12:23:42Z</time>
      </trkpt>
      <trkpt lat="41.8796520" lon="-2.7278130">
        <ele>1098.3</ele>
        <time>2022-01-30T12:23:43Z</time>
      </trkpt>
      <trkpt lat="41.8796800" lon="-2.7278250">
        <ele>1096.3</ele>
        <time>2022-01-30T12:23:44Z</time>
      </trkpt>
      <trkpt lat="41.8797030" lon="-2.7278350">
        <ele>1096.4</ele>
        <time>2022-01-30T12:23:45Z</time>
      </trkpt>
      <trkpt lat="41.8797250" lon="-2.7278420">
        <ele>1096.4</ele>
        <time>2022-01-30T12:23:46Z</time>
      </trkpt>
      <trkpt lat="41.8797450" lon="-2.7278530">
        <ele>1096.4</ele>
        <time>2022-01-30T12:23:47Z</time>
      </trkpt>
      <trkpt lat="41.8797680" lon="-2.7278650">
        <ele>1096.5</ele>
        <time>2022-01-30T12:23:48Z</time>
      </trkpt>
      <trkpt lat="41.8797870" lon="-2.7278730">
        <ele>1098.8</ele>
        <time>2022-01-30T12:23:49Z</time>
      </trkpt>
      <trkpt lat="41.8798130" lon="-2.7278920">
        <ele>1098.9</ele>
        <time>2022-01-30T12:23:50Z</time>
      </trkpt>
      <trkpt lat="41.8798380" lon="-2.7279030">
        <ele>1098.9</ele>
        <time>2022-01-30T12:23:51Z</time>
      </trkpt>
      <trkpt lat="41.8798620" lon="-2.7279170">
        <ele>1098.9</ele>
        <time>2022-01-30T12:23:52Z</time>
      </trkpt>
      <trkpt lat="41.8798830" lon="-2.7279270">
        <ele>1099.0</ele>
        <time>2022-01-30T12:23:53Z</time>
      </trkpt>
      <trkpt lat="41.8799030" lon="-2.7279380">
        <ele>1099.0</ele>
        <time>2022-01-30T12:23:54Z</time>
      </trkpt>
      <trkpt lat="41.8799220" lon="-2.7279480">
        <ele>1095.9</ele>
        <time>2022-01-30T12:23:55Z</time>
      </trkpt>
      <trkpt lat="41.8799370" lon="-2.7279580">
        <ele>1096.0</ele>
        <time>2022-01-30T12:23:56Z</time>
      </trkpt>
      <trkpt lat="41.8799530" lon="-2.7279700">
        <ele>1096.0</ele>
        <time>2022-01-30T12:23:57Z</time>
      </trkpt>
      <trkpt lat="41.8799700" lon="-2.7279830">
        <ele>1096.0</ele>
        <time>2022-01-30T12:23:58Z</time>
      </trkpt>
      <trkpt lat="41.8799870" lon="-2.7279950">
        <ele>1096.0</ele>
        <time>2022-01-30T12:23:59Z</time>
      </trkpt>
      <trkpt lat="41.8800050" lon="-2.7280100">
        <ele>1096.1</ele>
        <time>2022-01-30T12:24:00Z</time>
      </trkpt>
      <trkpt lat="41.8800220" lon="-2.7280250">
        <ele>1096.1</ele>
        <time>2022-01-30T12:24:01Z</time>
      </trkpt>
      <trkpt lat="41.8800400" lon="-2.7280350">
        <ele>1096.1</ele>
        <time>2022-01-30T12:24:02Z</time>
      </trkpt>
      <trkpt lat="41.8800570" lon="-2.7280430">
        <ele>1096.6</ele>
        <time>2022-01-30T12:24:03Z</time>
      </trkpt>
      <trkpt lat="41.8800830" lon="-2.7280520">
        <ele>1096.6</ele>
        <time>2022-01-30T12:24:04Z</time>
      </trkpt>
      <trkpt lat="41.8801020" lon="-2.7280570">
        <ele>1096.7</ele>
        <time>2022-01-30T12:24:05Z</time>
      </trkpt>
      <trkpt lat="41.8801320" lon="-2.7280620">
        <ele>1096.7</ele>
        <time>2022-01-30T12:24:06Z</time>
      </trkpt>
      <trkpt lat="41.8801520" lon="-2.7280670">
        <ele>1096.7</ele>
        <time>2022-01-30T12:24:07Z</time>
      </trkpt>
      <trkpt lat="41.8801750" lon="-2.7280770">
        <ele>1093.5</ele>
        <time>2022-01-30T12:24:08Z</time>
      </trkpt>
      <trkpt lat="41.8801970" lon="-2.7280850">
        <ele>1093.5</ele>
        <time>2022-01-30T12:24:09Z</time>
      </trkpt>
      <trkpt lat="41.8802220" lon="-2.7280920">
        <ele>1093.6</ele>
        <time>2022-01-30T12:24:10Z</time>
      </trkpt>
      <trkpt lat="41.8802530" lon="-2.7280980">
        <ele>1093.6</ele>
        <time>2022-01-30T12:24:11Z</time>
      </trkpt>
      <trkpt lat="41.8802820" lon="-2.7281030">
        <ele>1093.6</ele>
        <time>2022-01-30T12:24:12Z</time>
      </trkpt>
      <trkpt lat="41.8803130" lon="-2.7281080">
        <ele>1091.0</ele>
        <time>2022-01-30T12:24:13Z</time>
      </trkpt>
      <trkpt lat="41.8803450" lon="-2.7281170">
        <ele>1091.0</ele>
        <time>2022-01-30T12:24:14Z</time>
      </trkpt>
      <trkpt lat="41.8803730" lon="-2.7281270">
        <ele>1091.1</ele>
        <time>2022-01-30T12:24:15Z</time>
      </trkpt>
      <trkpt lat="41.8804020" lon="-2.7281380">
        <ele>1091.1</ele>
        <time>2022-01-30T12:24:16Z</time>
      </trkpt>
      <trkpt lat="41.8804270" lon="-2.7281500">
        <ele>1089.6</ele>
        <time>2022-01-30T12:24:17Z</time>
      </trkpt>
      <trkpt lat="41.8804500" lon="-2.7281650">
        <ele>1089.6</ele>
        <time>2022-01-30T12:24:18Z</time>
      </trkpt>
      <trkpt lat="41.8804730" lon="-2.7281800">
        <ele>1089.6</ele>
        <time>2022-01-30T12:24:19Z</time>
      </trkpt>
      <trkpt lat="41.8804980" lon="-2.7281950">
        <ele>1089.7</ele>
        <time>2022-01-30T12:24:20Z</time>
      </trkpt>
      <trkpt lat="41.8805250" lon="-2.7282100">
        <ele>1089.7</ele>
        <time>2022-01-30T12:24:21Z</time>
      </trkpt>
      <trkpt lat="41.8805470" lon="-2.7282230">
        <ele>1093.0</ele>
        <time>2022-01-30T12:24:22Z</time>
      </trkpt>
      <trkpt lat="41.8805670" lon="-2.7282330">
        <ele>1091.1</ele>
        <time>2022-01-30T12:24:23Z</time>
      </trkpt>
      <trkpt lat="41.8805830" lon="-2.7282420">
        <ele>1091.1</ele>
        <time>2022-01-30T12:24:24Z</time>
      </trkpt>
      <trkpt lat="41.8806070" lon="-2.7282550">
        <ele>1091.2</ele>
        <time>2022-01-30T12:24:25Z</time>
      </trkpt>
      <trkpt lat="41.8806300" lon="-2.7282720">
        <ele>1091.2</ele>
        <time>2022-01-30T12:24:26Z</time>
      </trkpt>
      <trkpt lat="41.8806520" lon="-2.7282830">
        <ele>1091.2</ele>
        <time>2022-01-30T12:24:27Z</time>
      </trkpt>
      <trkpt lat="41.8806730" lon="-2.7282970">
        <ele>1091.3</ele>
        <time>2022-01-30T12:24:28Z</time>
      </trkpt>
      <trkpt lat="41.8806970" lon="-2.7283100">
        <ele>1090.1</ele>
        <time>2022-01-30T12:24:29Z</time>
      </trkpt>
      <trkpt lat="41.8807230" lon="-2.7283280">
        <ele>1090.1</ele>
        <time>2022-01-30T12:24:30Z</time>
      </trkpt>
      <trkpt lat="41.8807500" lon="-2.7283500">
        <ele>1090.1</ele>
        <time>2022-01-30T12:24:31Z</time>
      </trkpt>
      <trkpt lat="41.8807780" lon="-2.7283700">
        <ele>1090.2</ele>
        <time>2022-01-30T12:24:32Z</time>
      </trkpt>
      <trkpt lat="41.8808070" lon="-2.7283920">
        <ele>1093.0</ele>
        <time>2022-01-30T12:24:33Z</time>
      </trkpt>
      <trkpt lat="41.8808350" lon="-2.7284120">
        <ele>1091.7</ele>
        <time>2022-01-30T12:24:34Z</time>
      </trkpt>
      <trkpt lat="41.8808650" lon="-2.7284300">
        <ele>1091.7</ele>
        <time>2022-01-30T12:24:35Z</time>
      </trkpt>
      <trkpt lat="41.8808930" lon="-2.7284470">
        <ele>1091.8</ele>
        <time>2022-01-30T12:24:36Z</time>
      </trkpt>
      <trkpt lat="41.8809200" lon="-2.7284630">
        <ele>1091.8</ele>
        <time>2022-01-30T12:24:37Z</time>
      </trkpt>
      <trkpt lat="41.8809470" lon="-2.7284780">
        <ele>1090.9</ele>
        <time>2022-01-30T12:24:38Z</time>
      </trkpt>
      <trkpt lat="41.8809680" lon="-2.7284920">
        <ele>1091.0</ele>
        <time>2022-01-30T12:24:39Z</time>
      </trkpt>
      <trkpt lat="41.8810000" lon="-2.7285100">
        <ele>1091.0</ele>
        <time>2022-01-30T12:24:40Z</time>
      </trkpt>
      <trkpt lat="41.8810300" lon="-2.7285280">
        <ele>1091.0</ele>
        <time>2022-01-30T12:24:41Z</time>
      </trkpt>
      <trkpt lat="41.8810600" lon="-2.7285500">
        <ele>1091.1</ele>
        <time>2022-01-30T12:24:42Z</time>
      </trkpt>
      <trkpt lat="41.8810830" lon="-2.7285700">
        <ele>1093.3</ele>
        <time>2022-01-30T12:24:43Z</time>
      </trkpt>
      <trkpt lat="41.8811050" lon="-2.7285880">
        <ele>1093.3</ele>
        <time>2022-01-30T12:24:44Z</time>
      </trkpt>
      <trkpt lat="41.8811330" lon="-2.7286130">
        <ele>1093.3</ele>
        <time>2022-01-30T12:24:45Z</time>
      </trkpt>
      <trkpt lat="41.8811520" lon="-2.7286350">
        <ele>1093.4</ele>
        <time>2022-01-30T12:24:46Z</time>
      </trkpt>
      <trkpt lat="41.8811650" lon="-2.7286530">
        <ele>1093.4</ele>
        <time>2022-01-30T12:24:47Z</time>
      </trkpt>
      <trkpt lat="41.8811800" lon="-2.7286730">
        <ele>1093.4</ele>
        <time>2022-01-30T12:24:48Z</time>
      </trkpt>
      <trkpt lat="41.8811950" lon="-2.7286950">
        <ele>1093.1</ele>
        <time>2022-01-30T12:24:49Z</time>
      </trkpt>
      <trkpt lat="41.8812100" lon="-2.7287170">
        <ele>1093.1</ele>
        <time>2022-01-30T12:24:50Z</time>
      </trkpt>
      <trkpt lat="41.8812350" lon="-2.7287380">
        <ele>1095.9</ele>
        <time>2022-01-30T12:24:51Z</time>
      </trkpt>
      <trkpt lat="41.8812600" lon="-2.7287550">
        <ele>1095.9</ele>
        <time>2022-01-30T12:24:52Z</time>
      </trkpt>
      <trkpt lat="41.8812850" lon="-2.7287750">
        <ele>1095.9</ele>
        <time>2022-01-30T12:24:53Z</time>
      </trkpt>
      <trkpt lat="41.8813050" lon="-2.7287920">
        <ele>1096.0</ele>
        <time>2022-01-30T12:24:54Z</time>
      </trkpt>
      <trkpt lat="41.8813350" lon="-2.7288200">
        <ele>1095.2</ele>
        <time>2022-01-30T12:24:55Z</time>
      </trkpt>
      <trkpt lat="41.8813570" lon="-2.7288430">
        <ele>1095.3</ele>
        <time>2022-01-30T12:24:56Z</time>
      </trkpt>
      <trkpt lat="41.8813830" lon="-2.7288570">
        <ele>1095.3</ele>
        <time>2022-01-30T12:24:57Z</time>
      </trkpt>
      <trkpt lat="41.8814100" lon="-2.7288730">
        <ele>1095.3</ele>
        <time>2022-01-30T12:24:58Z</time>
      </trkpt>
      <trkpt lat="41.8814370" lon="-2.7288980">
        <ele>1095.4</ele>
        <time>2022-01-30T12:24:59Z</time>
      </trkpt>
      <trkpt lat="41.8814670" lon="-2.7289270">
        <ele>1096.6</ele>
        <time>2022-01-30T12:25:00Z</time>
      </trkpt>
      <trkpt lat="41.8814950" lon="-2.7289570">
        <ele>1096.6</ele>
        <time>2022-01-30T12:25:01Z</time>
      </trkpt>
      <trkpt lat="41.8815230" lon="-2.7289900">
        <ele>1096.6</ele>
        <time>2022-01-30T12:25:02Z</time>
      </trkpt>
      <trkpt lat="41.8815480" lon="-2.7290250">
        <ele>1096.7</ele>
        <time>2022-01-30T12:25:03Z</time>
      </trkpt>
      <trkpt lat="41.8815700" lon="-2.7290570">
        <ele>1096.7</ele>
        <time>2022-01-30T12:25:04Z</time>
      </trkpt>
      <trkpt lat="41.8815900" lon="-2.7290880">
        <ele>1097.2</ele>
        <time>2022-01-30T12:25:05Z</time>
      </trkpt>
      <trkpt lat="41.8816070" lon="-2.7291150">
        <ele>1097.2</ele>
        <time>2022-01-30T12:25:06Z</time>
      </trkpt>
      <trkpt lat="41.8816230" lon="-2.7291380">
        <ele>1097.3</ele>
        <time>2022-01-30T12:25:07Z</time>
      </trkpt>
      <trkpt lat="41.8816450" lon="-2.7291600">
        <ele>1097.3</ele>
        <time>2022-01-30T12:25:08Z</time>
      </trkpt>
      <trkpt lat="41.8816650" lon="-2.7291750">
        <ele>1097.3</ele>
        <time>2022-01-30T12:25:09Z</time>
      </trkpt>
      <trkpt lat="41.8816930" lon="-2.7291900">
        <ele>1097.4</ele>
        <time>2022-01-30T12:25:10Z</time>
      </trkpt>
      <trkpt lat="41.8817220" lon="-2.7292030">
        <ele>1096.4</ele>
        <time>2022-01-30T12:25:11Z</time>
      </trkpt>
      <trkpt lat="41.8817500" lon="-2.7292220">
        <ele>1096.5</ele>
        <time>2022-01-30T12:25:12Z</time>
      </trkpt>
      <trkpt lat="41.8817700" lon="-2.7292430">
        <ele>1096.5</ele>
        <time>2022-01-30T12:25:13Z</time>
      </trkpt>
      <trkpt lat="41.8817950" lon="-2.7292720">
        <ele>1097.4</ele>
        <time>2022-01-30T12:25:14Z</time>
      </trkpt>
      <trkpt lat="41.8818150" lon="-2.7292980">
        <ele>1097.4</ele>
        <time>2022-01-30T12:25:15Z</time>
      </trkpt>
      <trkpt lat="41.8818380" lon="-2.7293230">
        <ele>1096.1</ele>
        <time>2022-01-30T12:25:16Z</time>
      </trkpt>
      <trkpt lat="41.8818580" lon="-2.7293500">
        <ele>1096.1</ele>
        <time>2022-01-30T12:25:17Z</time>
      </trkpt>
      <trkpt lat="41.8818800" lon="-2.7293750">
        <ele>1096.2</ele>
        <time>2022-01-30T12:25:18Z</time>
      </trkpt>
      <trkpt lat="41.8819020" lon="-2.7293980">
        <ele>1096.2</ele>
        <time>2022-01-30T12:25:19Z</time>
      </trkpt>
      <trkpt lat="41.8819180" lon="-2.7294250">
        <ele>1097.4</ele>
        <time>2022-01-30T12:25:20Z</time>
      </trkpt>
      <trkpt lat="41.8819330" lon="-2.7294530">
        <ele>1097.4</ele>
        <time>2022-01-30T12:25:21Z</time>
      </trkpt>
      <trkpt lat="41.8819470" lon="-2.7294780">
        <ele>1097.4</ele>
        <time>2022-01-30T12:25:22Z</time>
      </trkpt>
      <trkpt lat="41.8819570" lon="-2.7294980">
        <ele>1097.5</ele>
        <time>2022-01-30T12:25:23Z</time>
      </trkpt>
      <trkpt lat="41.8819750" lon="-2.7295300">
        <ele>1096.0</ele>
        <time>2022-01-30T12:25:24Z</time>
      </trkpt>
      <trkpt lat="41.8819920" lon="-2.7295580">
        <ele>1096.0</ele>
        <time>2022-01-30T12:25:25Z</time>
      </trkpt>
      <trkpt lat="41.8820030" lon="-2.7295850">
        <ele>1096.1</ele>
        <time>2022-01-30T12:25:26Z</time>
      </trkpt>
      <trkpt lat="41.8820100" lon="-2.7296100">
        <ele>1097.3</ele>
        <time>2022-01-30T12:25:27Z</time>
      </trkpt>
      <trkpt lat="41.8820180" lon="-2.7296280">
        <ele>1097.3</ele>
        <time>2022-01-30T12:25:28Z</time>
      </trkpt>
      <trkpt lat="41.8820270" lon="-2.7296420">
        <ele>1097.4</ele>
        <time>2022-01-30T12:25:29Z</time>
      </trkpt>
      <trkpt lat="41.8820430" lon="-2.7296550">
        <ele>1097.4</ele>
        <time>2022-01-30T12:25:30Z</time>
      </trkpt>
      <trkpt lat="41.8820570" lon="-2.7296650">
        <ele>1097.4</ele>
        <time>2022-01-30T12:25:31Z</time>
      </trkpt>
      <trkpt lat="41.8820670" lon="-2.7296720">
        <ele>1097.5</ele>
        <time>2022-01-30T12:25:32Z</time>
      </trkpt>
      <trkpt lat="41.8820730" lon="-2.7296800">
        <ele>1097.5</ele>
        <time>2022-01-30T12:25:33Z</time>
      </trkpt>
      <trkpt lat="41.8820800" lon="-2.7296830">
        <ele>1097.5</ele>
        <time>2022-01-30T12:25:34Z</time>
      </trkpt>
      <trkpt lat="41.8820850" lon="-2.7296870">
        <ele>1097.6</ele>
        <time>2022-01-30T12:25:35Z</time>
      </trkpt>
      <trkpt lat="41.8820870" lon="-2.7296880">
        <ele>1096.1</ele>
        <time>2022-01-30T12:25:36Z</time>
      </trkpt>
      <trkpt lat="41.8820900" lon="-2.7296880">
        <ele>1096.2</ele>
        <time>2022-01-30T12:25:37Z</time>
      </trkpt>
      <trkpt lat="41.8820920" lon="-2.7296880">
        <ele>1096.2</ele>
        <time>2022-01-30T12:25:38Z</time>
      </trkpt>
      <trkpt lat="41.8820930" lon="-2.7296920">
        <ele>1096.2</ele>
        <time>2022-01-30T12:25:39Z</time>
      </trkpt>
      <trkpt lat="41.8820950" lon="-2.7296950">
        <ele>1096.2</ele>
        <time>2022-01-30T12:25:40Z</time>
      </trkpt>
      <trkpt lat="41.8820980" lon="-2.7296980">
        <ele>1096.3</ele>
        <time>2022-01-30T12:25:41Z</time>
      </trkpt>
      <trkpt lat="41.8820970" lon="-2.7297020">
        <ele>1096.3</ele>
        <time>2022-01-30T12:25:42Z</time>
      </trkpt>
      <trkpt lat="41.8820900" lon="-2.7297050">
        <ele>1096.3</ele>
        <time>2022-01-30T12:25:43Z</time>
      </trkpt>
      <trkpt lat="41.8820880" lon="-2.7297080">
        <ele>1096.4</ele>
        <time>2022-01-30T12:25:44Z</time>
      </trkpt>
      <trkpt lat="41.8820900" lon="-2.7297130">
        <ele>1096.4</ele>
        <time>2022-01-30T12:25:45Z</time>
      </trkpt>
      <trkpt lat="41.8820900" lon="-2.7297150">
        <ele>1096.4</ele>
        <time>2022-01-30T12:25:46Z</time>
      </trkpt>
      <trkpt lat="41.8820900" lon="-2.7297150">
        <ele>1096.5</ele>
        <time>2022-01-30T12:25:47Z</time>
      </trkpt>
      <trkpt lat="41.8820900" lon="-2.7297150">
        <ele>1096.5</ele>
        <time>2022-01-30T12:25:48Z</time>
      </trkpt>
      <trkpt lat="41.8820900" lon="-2.7297150">
        <ele>1096.5</ele>
        <time>2022-01-30T12:25:49Z</time>
      </trkpt>
      <trkpt lat="41.8820900" lon="-2.7297150">
        <ele>1096.6</ele>
        <time>2022-01-30T12:25:50Z</time>
      </trkpt>
      <trkpt lat="41.8820900" lon="-2.7297150">
        <ele>1096.6</ele>
        <time>2022-01-30T12:25:51Z</time>
      </trkpt>
      <trkpt lat="41.8820900" lon="-2.7297150">
        <ele>1096.6</ele>
        <time>2022-01-30T12:25:52Z</time>
      </trkpt>
      <trkpt lat="41.8820900" lon="-2.7297150">
        <ele>1096.7</ele>
        <time>2022-01-30T12:25:53Z</time>
      </trkpt>
      <trkpt lat="41.8820900" lon="-2.7297150">
        <ele>1096.7</ele>
        <time>2022-01-30T12:25:54Z</time>
      </trkpt>
      <trkpt lat="41.8820900" lon="-2.7297150">
        <ele>1096.7</ele>
        <time>2022-01-30T12:25:55Z</time>
      </trkpt>
      <trkpt lat="41.8820900" lon="-2.7297150">
        <ele>1096.8</ele>
        <time>2022-01-30T12:25:56Z</time>
      </trkpt>
      <trkpt lat="41.8820920" lon="-2.7297150">
        <ele>1096.8</ele>
        <time>2022-01-30T12:25:57Z</time>
      </trkpt>
      <trkpt lat="41.8820950" lon="-2.7297220">
        <ele>1096.8</ele>
        <time>2022-01-30T12:25:58Z</time>
      </trkpt>
      <trkpt lat="41.8821000" lon="-2.7297480">
        <ele>1096.9</ele>
        <time>2022-01-30T12:25:59Z</time>
      </trkpt>
      <trkpt lat="41.8821070" lon="-2.7297670">
        <ele>1098.5</ele>
        <time>2022-01-30T12:26:00Z</time>
      </trkpt>
      <trkpt lat="41.8821100" lon="-2.7297870">
        <ele>1098.5</ele>
        <time>2022-01-30T12:26:01Z</time>
      </trkpt>
      <trkpt lat="41.8821120" lon="-2.7297970">
        <ele>1098.6</ele>
        <time>2022-01-30T12:26:02Z</time>
      </trkpt>
      <trkpt lat="41.8821130" lon="-2.7298070">
        <ele>1098.6</ele>
        <time>2022-01-30T12:26:03Z</time>
      </trkpt>
      <trkpt lat="41.8821120" lon="-2.7298150">
        <ele>1098.7</ele>
        <time>2022-01-30T12:26:04Z</time>
      </trkpt>
      <trkpt lat="41.8821330" lon="-2.7298120">
        <ele>1098.8</ele>
        <time>2022-01-30T12:26:05Z</time>
      </trkpt>
      <trkpt lat="41.8821420" lon="-2.7298150">
        <ele>1098.9</ele>
        <time>2022-01-30T12:26:06Z</time>
      </trkpt>
      <trkpt lat="41.8821430" lon="-2.7298250">
        <ele>1099.0</ele>
        <time>2022-01-30T12:26:07Z</time>
      </trkpt>
      <trkpt lat="41.8821430" lon="-2.7298280">
        <ele>1099.0</ele>
        <time>2022-01-30T12:26:08Z</time>
      </trkpt>
      <trkpt lat="41.8821430" lon="-2.7298350">
        <ele>1099.1</ele>
        <time>2022-01-30T12:26:09Z</time>
      </trkpt>
      <trkpt lat="41.8821380" lon="-2.7298420">
        <ele>1099.1</ele>
        <time>2022-01-30T12:26:10Z</time>
      </trkpt>
      <trkpt lat="41.8821270" lon="-2.7298470">
        <ele>1099.2</ele>
        <time>2022-01-30T12:26:11Z</time>
      </trkpt>
      <trkpt lat="41.8821150" lon="-2.7298480">
        <ele>1099.4</ele>
        <time>2022-01-30T12:26:12Z</time>
      </trkpt>
      <trkpt lat="41.8821030" lon="-2.7298470">
        <ele>1099.5</ele>
        <time>2022-01-30T12:26:13Z</time>
      </trkpt>
      <trkpt lat="41.8820880" lon="-2.7298420">
        <ele>1099.6</ele>
        <time>2022-01-30T12:26:14Z</time>
      </trkpt>
      <trkpt lat="41.8820650" lon="-2.7298380">
        <ele>1099.8</ele>
        <time>2022-01-30T12:26:15Z</time>
      </trkpt>
      <trkpt lat="41.8820370" lon="-2.7298270">
        <ele>1100.1</ele>
        <time>2022-01-30T12:26:16Z</time>
      </trkpt>
      <trkpt lat="41.8820170" lon="-2.7298150">
        <ele>1100.3</ele>
        <time>2022-01-30T12:26:17Z</time>
      </trkpt>
      <trkpt lat="41.8819980" lon="-2.7298080">
        <ele>1100.5</ele>
        <time>2022-01-30T12:26:18Z</time>
      </trkpt>
      <trkpt lat="41.8819800" lon="-2.7298000">
        <ele>1100.7</ele>
        <time>2022-01-30T12:26:19Z</time>
      </trkpt>
      <trkpt lat="41.8819580" lon="-2.7297900">
        <ele>1101.0</ele>
        <time>2022-01-30T12:26:20Z</time>
      </trkpt>
      <trkpt lat="41.8819400" lon="-2.7297830">
        <ele>1101.2</ele>
        <time>2022-01-30T12:26:21Z</time>
      </trkpt>
      <trkpt lat="41.8819250" lon="-2.7297780">
        <ele>1101.3</ele>
        <time>2022-01-30T12:26:22Z</time>
      </trkpt>
      <trkpt lat="41.8819030" lon="-2.7297730">
        <ele>1101.6</ele>
        <time>2022-01-30T12:26:23Z</time>
      </trkpt>
      <trkpt lat="41.8818820" lon="-2.7297680">
        <ele>1101.8</ele>
        <time>2022-01-30T12:26:24Z</time>
      </trkpt>
      <trkpt lat="41.8818580" lon="-2.7297630">
        <ele>1102.1</ele>
        <time>2022-01-30T12:26:25Z</time>
      </trkpt>
      <trkpt lat="41.8818320" lon="-2.7297600">
        <ele>1102.3</ele>
        <time>2022-01-30T12:26:26Z</time>
      </trkpt>
      <trkpt lat="41.8818120" lon="-2.7297570">
        <ele>1102.6</ele>
        <time>2022-01-30T12:26:27Z</time>
      </trkpt>
      <trkpt lat="41.8817900" lon="-2.7297520">
        <ele>1102.8</ele>
        <time>2022-01-30T12:26:28Z</time>
      </trkpt>
      <trkpt lat="41.8817670" lon="-2.7297480">
        <ele>1103.0</ele>
        <time>2022-01-30T12:26:29Z</time>
      </trkpt>
      <trkpt lat="41.8817430" lon="-2.7297400">
        <ele>1103.3</ele>
        <time>2022-01-30T12:26:30Z</time>
      </trkpt>
      <trkpt lat="41.8817180" lon="-2.7297280">
        <ele>1103.6</ele>
        <time>2022-01-30T12:26:31Z</time>
      </trkpt>
      <trkpt lat="41.8817020" lon="-2.7297250">
        <ele>1103.8</ele>
        <time>2022-01-30T12:26:32Z</time>
      </trkpt>
      <trkpt lat="41.8816820" lon="-2.7297180">
        <ele>1104.0</ele>
        <time>2022-01-30T12:26:33Z</time>
      </trkpt>
      <trkpt lat="41.8816630" lon="-2.7297120">
        <ele>1104.2</ele>
        <time>2022-01-30T12:26:34Z</time>
      </trkpt>
      <trkpt lat="41.8816430" lon="-2.7297120">
        <ele>1104.4</ele>
        <time>2022-01-30T12:26:35Z</time>
      </trkpt>
      <trkpt lat="41.8816170" lon="-2.7297080">
        <ele>1104.7</ele>
        <time>2022-01-30T12:26:36Z</time>
      </trkpt>
      <trkpt lat="41.8816000" lon="-2.7297050">
        <ele>1104.9</ele>
        <time>2022-01-30T12:26:37Z</time>
      </trkpt>
      <trkpt lat="41.8815800" lon="-2.7297030">
        <ele>1105.1</ele>
        <time>2022-01-30T12:26:38Z</time>
      </trkpt>
      <trkpt lat="41.8815620" lon="-2.7297000">
        <ele>1105.3</ele>
        <time>2022-01-30T12:26:39Z</time>
      </trkpt>
      <trkpt lat="41.8815420" lon="-2.7296950">
        <ele>1105.5</ele>
        <time>2022-01-30T12:26:40Z</time>
      </trkpt>
      <trkpt lat="41.8815250" lon="-2.7296900">
        <ele>1105.7</ele>
        <time>2022-01-30T12:26:41Z</time>
      </trkpt>
      <trkpt lat="41.8815100" lon="-2.7296870">
        <ele>1105.8</ele>
        <time>2022-01-30T12:26:42Z</time>
      </trkpt>
      <trkpt lat="41.8814950" lon="-2.7296820">
        <ele>1106.0</ele>
        <time>2022-01-30T12:26:43Z</time>
      </trkpt>
      <trkpt lat="41.8814820" lon="-2.7296770">
        <ele>1106.1</ele>
        <time>2022-01-30T12:26:44Z</time>
      </trkpt>
      <trkpt lat="41.8814700" lon="-2.7296700">
        <ele>1106.3</ele>
        <time>2022-01-30T12:26:45Z</time>
      </trkpt>
      <trkpt lat="41.8814570" lon="-2.7296600">
        <ele>1106.4</ele>
        <time>2022-01-30T12:26:46Z</time>
      </trkpt>
      <trkpt lat="41.8814450" lon="-2.7296520">
        <ele>1106.5</ele>
        <time>2022-01-30T12:26:47Z</time>
      </trkpt>
      <trkpt lat="41.8814300" lon="-2.7296430">
        <ele>1106.7</ele>
        <time>2022-01-30T12:26:48Z</time>
      </trkpt>
      <trkpt lat="41.8814220" lon="-2.7296380">
        <ele>1106.8</ele>
        <time>2022-01-30T12:26:49Z</time>
      </trkpt>
      <trkpt lat="41.8814130" lon="-2.7296400">
        <ele>1106.9</ele>
        <time>2022-01-30T12:26:50Z</time>
      </trkpt>
      <trkpt lat="41.8814070" lon="-2.7296370">
        <ele>1107.0</ele>
        <time>2022-01-30T12:26:51Z</time>
      </trkpt>
      <trkpt lat="41.8813980" lon="-2.7296320">
        <ele>1107.1</ele>
        <time>2022-01-30T12:26:52Z</time>
      </trkpt>
      <trkpt lat="41.8813850" lon="-2.7296250">
        <ele>1107.1</ele>
        <time>2022-01-30T12:26:53Z</time>
      </trkpt>
      <trkpt lat="41.8813680" lon="-2.7296220">
        <ele>1107.1</ele>
        <time>2022-01-30T12:26:54Z</time>
      </trkpt>
      <trkpt lat="41.8813550" lon="-2.7296230">
        <ele>1107.1</ele>
        <time>2022-01-30T12:26:55Z</time>
      </trkpt>
      <trkpt lat="41.8813380" lon="-2.7296330">
        <ele>1107.2</ele>
        <time>2022-01-30T12:26:56Z</time>
      </trkpt>
      <trkpt lat="41.8813330" lon="-2.7296480">
        <ele>1107.2</ele>
        <time>2022-01-30T12:26:57Z</time>
      </trkpt>
      <trkpt lat="41.8813380" lon="-2.7296700">
        <ele>1107.2</ele>
        <time>2022-01-30T12:26:58Z</time>
      </trkpt>
      <trkpt lat="41.8813500" lon="-2.7296930">
        <ele>1107.2</ele>
        <time>2022-01-30T12:26:59Z</time>
      </trkpt>
      <trkpt lat="41.8813630" lon="-2.7297220">
        <ele>1107.3</ele>
        <time>2022-01-30T12:27:00Z</time>
      </trkpt>
      <trkpt lat="41.8813730" lon="-2.7297450">
        <ele>1107.0</ele>
        <time>2022-01-30T12:27:01Z</time>
      </trkpt>
      <trkpt lat="41.8813850" lon="-2.7297680">
        <ele>1106.9</ele>
        <time>2022-01-30T12:27:02Z</time>
      </trkpt>
      <trkpt lat="41.8813980" lon="-2.7297900">
        <ele>1106.7</ele>
        <time>2022-01-30T12:27:03Z</time>
      </trkpt>
      <trkpt lat="41.8814150" lon="-2.7298170">
        <ele>1106.4</ele>
        <time>2022-01-30T12:27:04Z</time>
      </trkpt>
      <trkpt lat="41.8814300" lon="-2.7298450">
        <ele>1106.1</ele>
        <time>2022-01-30T12:27:05Z</time>
      </trkpt>
      <trkpt lat="41.8814470" lon="-2.7298700">
        <ele>1105.8</ele>
        <time>2022-01-30T12:27:06Z</time>
      </trkpt>
      <trkpt lat="41.8814630" lon="-2.7298970">
        <ele>1105.5</ele>
        <time>2022-01-30T12:27:07Z</time>
      </trkpt>
      <trkpt lat="41.8814750" lon="-2.7299230">
        <ele>1105.2</ele>
        <time>2022-01-30T12:27:08Z</time>
      </trkpt>
      <trkpt lat="41.8814920" lon="-2.7299480">
        <ele>1104.9</ele>
        <time>2022-01-30T12:27:09Z</time>
      </trkpt>
      <trkpt lat="41.8815050" lon="-2.7299730">
        <ele>1104.7</ele>
        <time>2022-01-30T12:27:10Z</time>
      </trkpt>
      <trkpt lat="41.8815180" lon="-2.7299970">
        <ele>1104.4</ele>
        <time>2022-01-30T12:27:11Z</time>
      </trkpt>
      <trkpt lat="41.8815300" lon="-2.7300170">
        <ele>1104.2</ele>
        <time>2022-01-30T12:27:12Z</time>
      </trkpt>
      <trkpt lat="41.8815400" lon="-2.7300330">
        <ele>1104.0</ele>
        <time>2022-01-30T12:27:13Z</time>
      </trkpt>
      <trkpt lat="41.8815500" lon="-2.7300500">
        <ele>1103.8</ele>
        <time>2022-01-30T12:27:14Z</time>
      </trkpt>
      <trkpt lat="41.8815620" lon="-2.7300700">
        <ele>1103.6</ele>
        <time>2022-01-30T12:27:15Z</time>
      </trkpt>
      <trkpt lat="41.8815730" lon="-2.7300930">
        <ele>1103.3</ele>
        <time>2022-01-30T12:27:16Z</time>
      </trkpt>
      <trkpt lat="41.8815880" lon="-2.7301180">
        <ele>1103.0</ele>
        <time>2022-01-30T12:27:17Z</time>
      </trkpt>
      <trkpt lat="41.8816030" lon="-2.7301430">
        <ele>1102.8</ele>
        <time>2022-01-30T12:27:18Z</time>
      </trkpt>
      <trkpt lat="41.8816170" lon="-2.7301670">
        <ele>1102.5</ele>
        <time>2022-01-30T12:27:19Z</time>
      </trkpt>
      <trkpt lat="41.8816300" lon="-2.7301920">
        <ele>1102.2</ele>
        <time>2022-01-30T12:27:20Z</time>
      </trkpt>
      <trkpt lat="41.8816480" lon="-2.7302180">
        <ele>1101.9</ele>
        <time>2022-01-30T12:27:21Z</time>
      </trkpt>
      <trkpt lat="41.8816670" lon="-2.7302380">
        <ele>1101.6</ele>
        <time>2022-01-30T12:27:22Z</time>
      </trkpt>
      <trkpt lat="41.8816830" lon="-2.7302580">
        <ele>1101.3</ele>
        <time>2022-01-30T12:27:23Z</time>
      </trkpt>
      <trkpt lat="41.8817120" lon="-2.7302830">
        <ele>1100.9</ele>
        <time>2022-01-30T12:27:24Z</time>
      </trkpt>
      <trkpt lat="41.8817400" lon="-2.7303070">
        <ele>1100.5</ele>
        <time>2022-01-30T12:27:25Z</time>
      </trkpt>
      <trkpt lat="41.8817720" lon="-2.7303370">
        <ele>1100.1</ele>
        <time>2022-01-30T12:27:26Z</time>
      </trkpt>
      <trkpt lat="41.8817970" lon="-2.7303680">
        <ele>1099.7</ele>
        <time>2022-01-30T12:27:27Z</time>
      </trkpt>
      <trkpt lat="41.8818200" lon="-2.7303980">
        <ele>1099.4</ele>
        <time>2022-01-30T12:27:28Z</time>
      </trkpt>
      <trkpt lat="41.8818420" lon="-2.7304300">
        <ele>1099.0</ele>
        <time>2022-01-30T12:27:29Z</time>
      </trkpt>
      <trkpt lat="41.8818650" lon="-2.7304580">
        <ele>1098.7</ele>
        <time>2022-01-30T12:27:30Z</time>
      </trkpt>
      <trkpt lat="41.8818880" lon="-2.7304820">
        <ele>1098.4</ele>
        <time>2022-01-30T12:27:31Z</time>
      </trkpt>
      <trkpt lat="41.8819080" lon="-2.7305030">
        <ele>1098.2</ele>
        <time>2022-01-30T12:27:32Z</time>
      </trkpt>
      <trkpt lat="41.8819300" lon="-2.7305230">
        <ele>1097.9</ele>
        <time>2022-01-30T12:27:33Z</time>
      </trkpt>
      <trkpt lat="41.8819520" lon="-2.7305400">
        <ele>1097.7</ele>
        <time>2022-01-30T12:27:34Z</time>
      </trkpt>
      <trkpt lat="41.8819720" lon="-2.7305570">
        <ele>1097.5</ele>
        <time>2022-01-30T12:27:35Z</time>
      </trkpt>
      <trkpt lat="41.8819980" lon="-2.7305680">
        <ele>1097.2</ele>
        <time>2022-01-30T12:27:36Z</time>
      </trkpt>
      <trkpt lat="41.8820300" lon="-2.7305830">
        <ele>1096.9</ele>
        <time>2022-01-30T12:27:37Z</time>
      </trkpt>
      <trkpt lat="41.8820600" lon="-2.7306020">
        <ele>1096.7</ele>
        <time>2022-01-30T12:27:38Z</time>
      </trkpt>
      <trkpt lat="41.8820870" lon="-2.7306250">
        <ele>1096.4</ele>
        <time>2022-01-30T12:27:39Z</time>
      </trkpt>
      <trkpt lat="41.8821130" lon="-2.7306470">
        <ele>1096.2</ele>
        <time>2022-01-30T12:27:40Z</time>
      </trkpt>
      <trkpt lat="41.8821430" lon="-2.7306630">
        <ele>1095.9</ele>
        <time>2022-01-30T12:27:41Z</time>
      </trkpt>
      <trkpt lat="41.8821650" lon="-2.7306700">
        <ele>1095.7</ele>
        <time>2022-01-30T12:27:42Z</time>
      </trkpt>
      <trkpt lat="41.8821920" lon="-2.7306820">
        <ele>1095.5</ele>
        <time>2022-01-30T12:27:43Z</time>
      </trkpt>
      <trkpt lat="41.8822120" lon="-2.7306950">
        <ele>1095.4</ele>
        <time>2022-01-30T12:27:44Z</time>
      </trkpt>
      <trkpt lat="41.8822350" lon="-2.7307070">
        <ele>1095.3</ele>
        <time>2022-01-30T12:27:45Z</time>
      </trkpt>
      <trkpt lat="41.8822520" lon="-2.7307180">
        <ele>1095.2</ele>
        <time>2022-01-30T12:27:46Z</time>
      </trkpt>
      <trkpt lat="41.8822750" lon="-2.7307320">
        <ele>1095.0</ele>
        <time>2022-01-30T12:27:47Z</time>
      </trkpt>
      <trkpt lat="41.8822880" lon="-2.7307400">
        <ele>1094.9</ele>
        <time>2022-01-30T12:27:48Z</time>
      </trkpt>
      <trkpt lat="41.8823050" lon="-2.7307530">
        <ele>1094.8</ele>
        <time>2022-01-30T12:27:49Z</time>
      </trkpt>
      <trkpt lat="41.8823230" lon="-2.7307670">
        <ele>1094.7</ele>
        <time>2022-01-30T12:27:50Z</time>
      </trkpt>
      <trkpt lat="41.8823420" lon="-2.7307820">
        <ele>1094.6</ele>
        <time>2022-01-30T12:27:51Z</time>
      </trkpt>
      <trkpt lat="41.8823580" lon="-2.7307970">
        <ele>1094.5</ele>
        <time>2022-01-30T12:27:52Z</time>
      </trkpt>
      <trkpt lat="41.8823730" lon="-2.7308130">
        <ele>1094.5</ele>
        <time>2022-01-30T12:27:53Z</time>
      </trkpt>
      <trkpt lat="41.8823880" lon="-2.7308300">
        <ele>1094.4</ele>
        <time>2022-01-30T12:27:54Z</time>
      </trkpt>
      <trkpt lat="41.8824020" lon="-2.7308470">
        <ele>1094.3</ele>
        <time>2022-01-30T12:27:55Z</time>
      </trkpt>
      <trkpt lat="41.8824150" lon="-2.7308620">
        <ele>1094.2</ele>
        <time>2022-01-30T12:27:56Z</time>
      </trkpt>
      <trkpt lat="41.8824270" lon="-2.7308770">
        <ele>1094.2</ele>
        <time>2022-01-30T12:27:57Z</time>
      </trkpt>
      <trkpt lat="41.8824420" lon="-2.7308900">
        <ele>1094.1</ele>
        <time>2022-01-30T12:27:58Z</time>
      </trkpt>
      <trkpt lat="41.8824530" lon="-2.7309020">
        <ele>1094.1</ele>
        <time>2022-01-30T12:27:59Z</time>
      </trkpt>
      <trkpt lat="41.8824650" lon="-2.7309130">
        <ele>1094.0</ele>
        <time>2022-01-30T12:28:00Z</time>
      </trkpt>
      <trkpt lat="41.8824800" lon="-2.7309270">
        <ele>1093.9</ele>
        <time>2022-01-30T12:28:01Z</time>
      </trkpt>
      <trkpt lat="41.8824920" lon="-2.7309430">
        <ele>1093.9</ele>
        <time>2022-01-30T12:28:02Z</time>
      </trkpt>
      <trkpt lat="41.8825030" lon="-2.7309600">
        <ele>1093.8</ele>
        <time>2022-01-30T12:28:03Z</time>
      </trkpt>
      <trkpt lat="41.8825170" lon="-2.7309750">
        <ele>1093.8</ele>
        <time>2022-01-30T12:28:04Z</time>
      </trkpt>
      <trkpt lat="41.8825300" lon="-2.7309880">
        <ele>1093.7</ele>
        <time>2022-01-30T12:28:05Z</time>
      </trkpt>
      <trkpt lat="41.8825430" lon="-2.7310020">
        <ele>1093.7</ele>
        <time>2022-01-30T12:28:06Z</time>
      </trkpt>
      <trkpt lat="41.8825580" lon="-2.7310130">
        <ele>1093.7</ele>
        <time>2022-01-30T12:28:07Z</time>
      </trkpt>
      <trkpt lat="41.8825720" lon="-2.7310250">
        <ele>1093.6</ele>
        <time>2022-01-30T12:28:08Z</time>
      </trkpt>
      <trkpt lat="41.8825820" lon="-2.7310300">
        <ele>1093.6</ele>
        <time>2022-01-30T12:28:09Z</time>
      </trkpt>
      <trkpt lat="41.8825950" lon="-2.7310330">
        <ele>1093.6</ele>
        <time>2022-01-30T12:28:10Z</time>
      </trkpt>
      <trkpt lat="41.8826100" lon="-2.7310420">
        <ele>1093.5</ele>
        <time>2022-01-30T12:28:11Z</time>
      </trkpt>
      <trkpt lat="41.8826300" lon="-2.7310520">
        <ele>1093.5</ele>
        <time>2022-01-30T12:28:12Z</time>
      </trkpt>
      <trkpt lat="41.8826450" lon="-2.7310550">
        <ele>1093.5</ele>
        <time>2022-01-30T12:28:13Z</time>
      </trkpt>
      <trkpt lat="41.8826600" lon="-2.7310620">
        <ele>1093.4</ele>
        <time>2022-01-30T12:28:14Z</time>
      </trkpt>
      <trkpt lat="41.8826770" lon="-2.7310680">
        <ele>1093.4</ele>
        <time>2022-01-30T12:28:15Z</time>
      </trkpt>
      <trkpt lat="41.8826900" lon="-2.7310750">
        <ele>1093.4</ele>
        <time>2022-01-30T12:28:16Z</time>
      </trkpt>
      <trkpt lat="41.8827020" lon="-2.7310770">
        <ele>1093.4</ele>
        <time>2022-01-30T12:28:17Z</time>
      </trkpt>
      <trkpt lat="41.8827150" lon="-2.7310730">
        <ele>1093.3</ele>
        <time>2022-01-30T12:28:18Z</time>
      </trkpt>
      <trkpt lat="41.8827350" lon="-2.7310680">
        <ele>1093.3</ele>
        <time>2022-01-30T12:28:19Z</time>
      </trkpt>
      <trkpt lat="41.8827520" lon="-2.7310670">
        <ele>1093.3</ele>
        <time>2022-01-30T12:28:20Z</time>
      </trkpt>
      <trkpt lat="41.8827700" lon="-2.7310750">
        <ele>1093.2</ele>
        <time>2022-01-30T12:28:21Z</time>
      </trkpt>
      <trkpt lat="41.8827850" lon="-2.7310800">
        <ele>1093.2</ele>
        <time>2022-01-30T12:28:22Z</time>
      </trkpt>
      <trkpt lat="41.8828080" lon="-2.7310880">
        <ele>1093.2</ele>
        <time>2022-01-30T12:28:23Z</time>
      </trkpt>
      <trkpt lat="41.8828270" lon="-2.7311020">
        <ele>1093.1</ele>
        <time>2022-01-30T12:28:24Z</time>
      </trkpt>
      <trkpt lat="41.8828400" lon="-2.7311080">
        <ele>1093.1</ele>
        <time>2022-01-30T12:28:25Z</time>
      </trkpt>
      <trkpt lat="41.8828520" lon="-2.7311070">
        <ele>1093.1</ele>
        <time>2022-01-30T12:28:26Z</time>
      </trkpt>
      <trkpt lat="41.8828650" lon="-2.7311080">
        <ele>1093.1</ele>
        <time>2022-01-30T12:28:27Z</time>
      </trkpt>
      <trkpt lat="41.8828730" lon="-2.7311100">
        <ele>1093.1</ele>
        <time>2022-01-30T12:28:28Z</time>
      </trkpt>
      <trkpt lat="41.8828800" lon="-2.7311220">
        <ele>1093.1</ele>
        <time>2022-01-30T12:28:29Z</time>
      </trkpt>
      <trkpt lat="41.8828850" lon="-2.7311330">
        <ele>1093.0</ele>
        <time>2022-01-30T12:28:30Z</time>
      </trkpt>
      <trkpt lat="41.8829020" lon="-2.7311520">
        <ele>1093.0</ele>
        <time>2022-01-30T12:28:31Z</time>
      </trkpt>
      <trkpt lat="41.8829150" lon="-2.7311630">
        <ele>1093.0</ele>
        <time>2022-01-30T12:28:32Z</time>
      </trkpt>
      <trkpt lat="41.8829320" lon="-2.7311800">
        <ele>1093.0</ele>
        <time>2022-01-30T12:28:33Z</time>
      </trkpt>
      <trkpt lat="41.8829520" lon="-2.7311980">
        <ele>1092.9</ele>
        <time>2022-01-30T12:28:34Z</time>
      </trkpt>
      <trkpt lat="41.8829650" lon="-2.7312120">
        <ele>1092.9</ele>
        <time>2022-01-30T12:28:35Z</time>
      </trkpt>
      <trkpt lat="41.8829800" lon="-2.7312280">
        <ele>1092.9</ele>
        <time>2022-01-30T12:28:36Z</time>
      </trkpt>
      <trkpt lat="41.8829920" lon="-2.7312370">
        <ele>1092.8</ele>
        <time>2022-01-30T12:28:37Z</time>
      </trkpt>
      <trkpt lat="41.8830070" lon="-2.7312500">
        <ele>1092.8</ele>
        <time>2022-01-30T12:28:38Z</time>
      </trkpt>
      <trkpt lat="41.8830270" lon="-2.7312680">
        <ele>1092.7</ele>
        <time>2022-01-30T12:28:39Z</time>
      </trkpt>
      <trkpt lat="41.8830430" lon="-2.7312880">
        <ele>1092.7</ele>
        <time>2022-01-30T12:28:40Z</time>
      </trkpt>
      <trkpt lat="41.8830550" lon="-2.7313030">
        <ele>1092.7</ele>
        <time>2022-01-30T12:28:41Z</time>
      </trkpt>
      <trkpt lat="41.8830670" lon="-2.7313120">
        <ele>1092.6</ele>
        <time>2022-01-30T12:28:42Z</time>
      </trkpt>
      <trkpt lat="41.8830850" lon="-2.7313250">
        <ele>1092.6</ele>
        <time>2022-01-30T12:28:43Z</time>
      </trkpt>
      <trkpt lat="41.8831030" lon="-2.7313300">
        <ele>1092.6</ele>
        <time>2022-01-30T12:28:44Z</time>
      </trkpt>
      <trkpt lat="41.8831220" lon="-2.7313400">
        <ele>1092.5</ele>
        <time>2022-01-30T12:28:45Z</time>
      </trkpt>
      <trkpt lat="41.8831430" lon="-2.7313480">
        <ele>1092.5</ele>
        <time>2022-01-30T12:28:46Z</time>
      </trkpt>
      <trkpt lat="41.8831670" lon="-2.7313630">
        <ele>1092.4</ele>
        <time>2022-01-30T12:28:47Z</time>
      </trkpt>
      <trkpt lat="41.8831870" lon="-2.7313770">
        <ele>1092.4</ele>
        <time>2022-01-30T12:28:48Z</time>
      </trkpt>
      <trkpt lat="41.8832130" lon="-2.7313920">
        <ele>1092.3</ele>
        <time>2022-01-30T12:28:49Z</time>
      </trkpt>
      <trkpt lat="41.8832420" lon="-2.7314050">
        <ele>1092.3</ele>
        <time>2022-01-30T12:28:50Z</time>
      </trkpt>
      <trkpt lat="41.8832730" lon="-2.7314200">
        <ele>1092.2</ele>
        <time>2022-01-30T12:28:51Z</time>
      </trkpt>
      <trkpt lat="41.8833080" lon="-2.7314350">
        <ele>1092.1</ele>
        <time>2022-01-30T12:28:52Z</time>
      </trkpt>
      <trkpt lat="41.8833430" lon="-2.7314600">
        <ele>1092.0</ele>
        <time>2022-01-30T12:28:53Z</time>
      </trkpt>
      <trkpt lat="41.8833750" lon="-2.7314830">
        <ele>1091.9</ele>
        <time>2022-01-30T12:28:54Z</time>
      </trkpt>
      <trkpt lat="41.8834050" lon="-2.7315030">
        <ele>1091.8</ele>
        <time>2022-01-30T12:28:55Z</time>
      </trkpt>
      <trkpt lat="41.8834350" lon="-2.7315220">
        <ele>1091.7</ele>
        <time>2022-01-30T12:28:56Z</time>
      </trkpt>
      <trkpt lat="41.8834650" lon="-2.7315400">
        <ele>1091.6</ele>
        <time>2022-01-30T12:28:57Z</time>
      </trkpt>
      <trkpt lat="41.8834870" lon="-2.7315600">
        <ele>1091.6</ele>
        <time>2022-01-30T12:28:58Z</time>
      </trkpt>
      <trkpt lat="41.8835080" lon="-2.7315770">
        <ele>1091.5</ele>
        <time>2022-01-30T12:28:59Z</time>
      </trkpt>
      <trkpt lat="41.8835300" lon="-2.7315880">
        <ele>1091.5</ele>
        <time>2022-01-30T12:29:00Z</time>
      </trkpt>
      <trkpt lat="41.8835520" lon="-2.7315970">
        <ele>1091.4</ele>
        <time>2022-01-30T12:29:01Z</time>
      </trkpt>
      <trkpt lat="41.8835780" lon="-2.7316050">
        <ele>1091.4</ele>
        <time>2022-01-30T12:29:02Z</time>
      </trkpt>
      <trkpt lat="41.8836080" lon="-2.7316130">
        <ele>1091.3</ele>
        <time>2022-01-30T12:29:03Z</time>
      </trkpt>
      <trkpt lat="41.8836450" lon="-2.7316250">
        <ele>1091.3</ele>
        <time>2022-01-30T12:29:04Z</time>
      </trkpt>
      <trkpt lat="41.8836670" lon="-2.7316350">
        <ele>1091.3</ele>
        <time>2022-01-30T12:29:05Z</time>
      </trkpt>
      <trkpt lat="41.8836870" lon="-2.7316520">
        <ele>1091.2</ele>
        <time>2022-01-30T12:29:06Z</time>
      </trkpt>
      <trkpt lat="41.8837120" lon="-2.7316720">
        <ele>1091.2</ele>
        <time>2022-01-30T12:29:07Z</time>
      </trkpt>
      <trkpt lat="41.8837300" lon="-2.7316880">
        <ele>1091.2</ele>
        <time>2022-01-30T12:29:08Z</time>
      </trkpt>
      <trkpt lat="41.8837470" lon="-2.7317030">
        <ele>1091.2</ele>
        <time>2022-01-30T12:29:09Z</time>
      </trkpt>
      <trkpt lat="41.8837580" lon="-2.7317150">
        <ele>1091.2</ele>
        <time>2022-01-30T12:29:10Z</time>
      </trkpt>
      <trkpt lat="41.8837720" lon="-2.7317200">
        <ele>1091.2</ele>
        <time>2022-01-30T12:29:11Z</time>
      </trkpt>
      <trkpt lat="41.8837900" lon="-2.7317270">
        <ele>1091.1</ele>
        <time>2022-01-30T12:29:12Z</time>
      </trkpt>
      <trkpt lat="41.8838050" lon="-2.7317300">
        <ele>1091.1</ele>
        <time>2022-01-30T12:29:13Z</time>
      </trkpt>
      <trkpt lat="41.8838230" lon="-2.7317370">
        <ele>1091.1</ele>
        <time>2022-01-30T12:29:14Z</time>
      </trkpt>
      <trkpt lat="41.8838380" lon="-2.7317470">
        <ele>1091.1</ele>
        <time>2022-01-30T12:29:15Z</time>
      </trkpt>
      <trkpt lat="41.8838520" lon="-2.7317570">
        <ele>1091.1</ele>
        <time>2022-01-30T12:29:16Z</time>
      </trkpt>
      <trkpt lat="41.8838620" lon="-2.7317720">
        <ele>1091.2</ele>
        <time>2022-01-30T12:29:17Z</time>
      </trkpt>
      <trkpt lat="41.8838770" lon="-2.7317820">
        <ele>1091.2</ele>
        <time>2022-01-30T12:29:18Z</time>
      </trkpt>
      <trkpt lat="41.8838950" lon="-2.7317950">
        <ele>1091.2</ele>
        <time>2022-01-30T12:29:19Z</time>
      </trkpt>
      <trkpt lat="41.8839180" lon="-2.7318000">
        <ele>1091.2</ele>
        <time>2022-01-30T12:29:20Z</time>
      </trkpt>
      <trkpt lat="41.8839370" lon="-2.7318070">
        <ele>1091.2</ele>
        <time>2022-01-30T12:29:21Z</time>
      </trkpt>
      <trkpt lat="41.8839520" lon="-2.7318180">
        <ele>1091.2</ele>
        <time>2022-01-30T12:29:22Z</time>
      </trkpt>
      <trkpt lat="41.8839650" lon="-2.7318250">
        <ele>1091.2</ele>
        <time>2022-01-30T12:29:23Z</time>
      </trkpt>
      <trkpt lat="41.8839820" lon="-2.7318350">
        <ele>1091.2</ele>
        <time>2022-01-30T12:29:24Z</time>
      </trkpt>
      <trkpt lat="41.8840020" lon="-2.7318480">
        <ele>1091.2</ele>
        <time>2022-01-30T12:29:25Z</time>
      </trkpt>
      <trkpt lat="41.8840220" lon="-2.7318580">
        <ele>1091.2</ele>
        <time>2022-01-30T12:29:26Z</time>
      </trkpt>
      <trkpt lat="41.8840380" lon="-2.7318650">
        <ele>1091.3</ele>
        <time>2022-01-30T12:29:27Z</time>
      </trkpt>
      <trkpt lat="41.8840500" lon="-2.7318750">
        <ele>1091.3</ele>
        <time>2022-01-30T12:29:28Z</time>
      </trkpt>
      <trkpt lat="41.8840700" lon="-2.7318850">
        <ele>1091.3</ele>
        <time>2022-01-30T12:29:29Z</time>
      </trkpt>
      <trkpt lat="41.8840880" lon="-2.7318930">
        <ele>1091.3</ele>
        <time>2022-01-30T12:29:30Z</time>
      </trkpt>
      <trkpt lat="41.8841050" lon="-2.7318970">
        <ele>1091.3</ele>
        <time>2022-01-30T12:29:31Z</time>
      </trkpt>
      <trkpt lat="41.8841200" lon="-2.7319030">
        <ele>1091.3</ele>
        <time>2022-01-30T12:29:32Z</time>
      </trkpt>
      <trkpt lat="41.8841320" lon="-2.7319070">
        <ele>1091.3</ele>
        <time>2022-01-30T12:29:33Z</time>
      </trkpt>
      <trkpt lat="41.8841450" lon="-2.7319150">
        <ele>1091.3</ele>
        <time>2022-01-30T12:29:34Z</time>
      </trkpt>
      <trkpt lat="41.8841570" lon="-2.7319220">
        <ele>1091.3</ele>
        <time>2022-01-30T12:29:35Z</time>
      </trkpt>
      <trkpt lat="41.8841720" lon="-2.7319320">
        <ele>1091.4</ele>
        <time>2022-01-30T12:29:36Z</time>
      </trkpt>
      <trkpt lat="41.8841930" lon="-2.7319430">
        <ele>1091.4</ele>
        <time>2022-01-30T12:29:37Z</time>
      </trkpt>
      <trkpt lat="41.8842100" lon="-2.7319520">
        <ele>1091.4</ele>
        <time>2022-01-30T12:29:38Z</time>
      </trkpt>
      <trkpt lat="41.8842380" lon="-2.7319630">
        <ele>1091.4</ele>
        <time>2022-01-30T12:29:39Z</time>
      </trkpt>
      <trkpt lat="41.8842650" lon="-2.7319630">
        <ele>1091.4</ele>
        <time>2022-01-30T12:29:40Z</time>
      </trkpt>
      <trkpt lat="41.8842900" lon="-2.7319530">
        <ele>1091.4</ele>
        <time>2022-01-30T12:29:41Z</time>
      </trkpt>
      <trkpt lat="41.8843230" lon="-2.7319450">
        <ele>1091.4</ele>
        <time>2022-01-30T12:29:42Z</time>
      </trkpt>
      <trkpt lat="41.8843630" lon="-2.7319430">
        <ele>1091.4</ele>
        <time>2022-01-30T12:29:43Z</time>
      </trkpt>
      <trkpt lat="41.8844020" lon="-2.7319480">
        <ele>1091.4</ele>
        <time>2022-01-30T12:29:44Z</time>
      </trkpt>
      <trkpt lat="41.8844420" lon="-2.7319550">
        <ele>1091.5</ele>
        <time>2022-01-30T12:29:45Z</time>
      </trkpt>
      <trkpt lat="41.8844870" lon="-2.7319670">
        <ele>1091.5</ele>
        <time>2022-01-30T12:29:46Z</time>
      </trkpt>
      <trkpt lat="41.8845200" lon="-2.7319730">
        <ele>1091.5</ele>
        <time>2022-01-30T12:29:47Z</time>
      </trkpt>
      <trkpt lat="41.8845680" lon="-2.7319880">
        <ele>1091.5</ele>
        <time>2022-01-30T12:29:48Z</time>
      </trkpt>
      <trkpt lat="41.8846130" lon="-2.7320000">
        <ele>1091.5</ele>
        <time>2022-01-30T12:29:49Z</time>
      </trkpt>
      <trkpt lat="41.8846570" lon="-2.7320150">
        <ele>1091.5</ele>
        <time>2022-01-30T12:29:50Z</time>
      </trkpt>
      <trkpt lat="41.8847000" lon="-2.7320350">
        <ele>1091.5</ele>
        <time>2022-01-30T12:29:51Z</time>
      </trkpt>
      <trkpt lat="41.8847400" lon="-2.7320500">
        <ele>1091.5</ele>
        <time>2022-01-30T12:29:52Z</time>
      </trkpt>
      <trkpt lat="41.8847850" lon="-2.7320620">
        <ele>1091.5</ele>
        <time>2022-01-30T12:29:53Z</time>
      </trkpt>
      <trkpt lat="41.8848230" lon="-2.7320770">
        <ele>1091.5</ele>
        <time>2022-01-30T12:29:54Z</time>
      </trkpt>
      <trkpt lat="41.8848650" lon="-2.7320900">
        <ele>1091.6</ele>
        <time>2022-01-30T12:29:55Z</time>
      </trkpt>
      <trkpt lat="41.8848980" lon="-2.7320930">
        <ele>1091.6</ele>
        <time>2022-01-30T12:29:56Z</time>
      </trkpt>
      <trkpt lat="41.8849380" lon="-2.7320930">
        <ele>1091.6</ele>
        <time>2022-01-30T12:29:57Z</time>
      </trkpt>
      <trkpt lat="41.8849870" lon="-2.7320920">
        <ele>1091.7</ele>
        <time>2022-01-30T12:29:58Z</time>
      </trkpt>
      <trkpt lat="41.8850230" lon="-2.7320850">
        <ele>1091.7</ele>
        <time>2022-01-30T12:29:59Z</time>
      </trkpt>
      <trkpt lat="41.8850630" lon="-2.7320780">
        <ele>1091.7</ele>
        <time>2022-01-30T12:30:00Z</time>
      </trkpt>
      <trkpt lat="41.8851020" lon="-2.7320780">
        <ele>1091.8</ele>
        <time>2022-01-30T12:30:01Z</time>
      </trkpt>
      <trkpt lat="41.8851330" lon="-2.7320830">
        <ele>1091.8</ele>
        <time>2022-01-30T12:30:02Z</time>
      </trkpt>
      <trkpt lat="41.8851750" lon="-2.7320900">
        <ele>1091.9</ele>
        <time>2022-01-30T12:30:03Z</time>
      </trkpt>
      <trkpt lat="41.8852070" lon="-2.7321000">
        <ele>1091.9</ele>
        <time>2022-01-30T12:30:04Z</time>
      </trkpt>
      <trkpt lat="41.8852300" lon="-2.7321100">
        <ele>1091.9</ele>
        <time>2022-01-30T12:30:05Z</time>
      </trkpt>
      <trkpt lat="41.8852580" lon="-2.7321220">
        <ele>1091.9</ele>
        <time>2022-01-30T12:30:06Z</time>
      </trkpt>
      <trkpt lat="41.8852870" lon="-2.7321350">
        <ele>1092.0</ele>
        <time>2022-01-30T12:30:07Z</time>
      </trkpt>
      <trkpt lat="41.8853200" lon="-2.7321450">
        <ele>1092.0</ele>
        <time>2022-01-30T12:30:08Z</time>
      </trkpt>
      <trkpt lat="41.8853500" lon="-2.7321500">
        <ele>1092.0</ele>
        <time>2022-01-30T12:30:09Z</time>
      </trkpt>
      <trkpt lat="41.8853780" lon="-2.7321580">
        <ele>1092.0</ele>
        <time>2022-01-30T12:30:10Z</time>
      </trkpt>
      <trkpt lat="41.8854070" lon="-2.7321630">
        <ele>1092.0</ele>
        <time>2022-01-30T12:30:11Z</time>
      </trkpt>
      <trkpt lat="41.8854370" lon="-2.7321700">
        <ele>1092.0</ele>
        <time>2022-01-30T12:30:12Z</time>
      </trkpt>
      <trkpt lat="41.8854620" lon="-2.7321820">
        <ele>1092.0</ele>
        <time>2022-01-30T12:30:13Z</time>
      </trkpt>
      <trkpt lat="41.8854880" lon="-2.7321900">
        <ele>1092.0</ele>
        <time>2022-01-30T12:30:14Z</time>
      </trkpt>
      <trkpt lat="41.8855120" lon="-2.7321980">
        <ele>1092.0</ele>
        <time>2022-01-30T12:30:15Z</time>
      </trkpt>
      <trkpt lat="41.8855320" lon="-2.7322080">
        <ele>1092.0</ele>
        <time>2022-01-30T12:30:16Z</time>
      </trkpt>
      <trkpt lat="41.8855630" lon="-2.7322230">
        <ele>1092.0</ele>
        <time>2022-01-30T12:30:17Z</time>
      </trkpt>
      <trkpt lat="41.8855880" lon="-2.7322350">
        <ele>1091.9</ele>
        <time>2022-01-30T12:30:18Z</time>
      </trkpt>
      <trkpt lat="41.8856120" lon="-2.7322500">
        <ele>1091.9</ele>
        <time>2022-01-30T12:30:19Z</time>
      </trkpt>
      <trkpt lat="41.8856330" lon="-2.7322650">
        <ele>1091.9</ele>
        <time>2022-01-30T12:30:20Z</time>
      </trkpt>
      <trkpt lat="41.8856530" lon="-2.7322800">
        <ele>1091.9</ele>
        <time>2022-01-30T12:30:21Z</time>
      </trkpt>
      <trkpt lat="41.8856720" lon="-2.7322980">
        <ele>1091.9</ele>
        <time>2022-01-30T12:30:22Z</time>
      </trkpt>
      <trkpt lat="41.8856920" lon="-2.7323120">
        <ele>1091.8</ele>
        <time>2022-01-30T12:30:23Z</time>
      </trkpt>
      <trkpt lat="41.8857130" lon="-2.7323250">
        <ele>1091.8</ele>
        <time>2022-01-30T12:30:24Z</time>
      </trkpt>
      <trkpt lat="41.8857300" lon="-2.7323350">
        <ele>1091.8</ele>
        <time>2022-01-30T12:30:25Z</time>
      </trkpt>
      <trkpt lat="41.8857480" lon="-2.7323420">
        <ele>1091.8</ele>
        <time>2022-01-30T12:30:26Z</time>
      </trkpt>
      <trkpt lat="41.8857680" lon="-2.7323530">
        <ele>1091.8</ele>
        <time>2022-01-30T12:30:27Z</time>
      </trkpt>
      <trkpt lat="41.8857920" lon="-2.7323680">
        <ele>1091.7</ele>
        <time>2022-01-30T12:30:28Z</time>
      </trkpt>
      <trkpt lat="41.8858080" lon="-2.7323800">
        <ele>1091.7</ele>
        <time>2022-01-30T12:30:29Z</time>
      </trkpt>
      <trkpt lat="41.8858280" lon="-2.7323930">
        <ele>1091.7</ele>
        <time>2022-01-30T12:30:30Z</time>
      </trkpt>
      <trkpt lat="41.8858500" lon="-2.7324080">
        <ele>1091.7</ele>
        <time>2022-01-30T12:30:31Z</time>
      </trkpt>
      <trkpt lat="41.8858680" lon="-2.7324230">
        <ele>1091.7</ele>
        <time>2022-01-30T12:30:32Z</time>
      </trkpt>
      <trkpt lat="41.8858850" lon="-2.7324400">
        <ele>1091.7</ele>
        <time>2022-01-30T12:30:33Z</time>
      </trkpt>
      <trkpt lat="41.8858980" lon="-2.7324550">
        <ele>1091.7</ele>
        <time>2022-01-30T12:30:34Z</time>
      </trkpt>
      <trkpt lat="41.8859130" lon="-2.7324730">
        <ele>1091.8</ele>
        <time>2022-01-30T12:30:35Z</time>
      </trkpt>
      <trkpt lat="41.8859320" lon="-2.7324950">
        <ele>1091.8</ele>
        <time>2022-01-30T12:30:36Z</time>
      </trkpt>
      <trkpt lat="41.8859480" lon="-2.7325130">
        <ele>1091.8</ele>
        <time>2022-01-30T12:30:37Z</time>
      </trkpt>
      <trkpt lat="41.8859670" lon="-2.7325320">
        <ele>1091.8</ele>
        <time>2022-01-30T12:30:38Z</time>
      </trkpt>
      <trkpt lat="41.8859820" lon="-2.7325480">
        <ele>1091.8</ele>
        <time>2022-01-30T12:30:39Z</time>
      </trkpt>
      <trkpt lat="41.8860000" lon="-2.7325680">
        <ele>1091.9</ele>
        <time>2022-01-30T12:30:40Z</time>
      </trkpt>
      <trkpt lat="41.8860230" lon="-2.7325880">
        <ele>1091.9</ele>
        <time>2022-01-30T12:30:41Z</time>
      </trkpt>
      <trkpt lat="41.8860420" lon="-2.7326050">
        <ele>1092.0</ele>
        <time>2022-01-30T12:30:42Z</time>
      </trkpt>
      <trkpt lat="41.8860580" lon="-2.7326220">
        <ele>1092.0</ele>
        <time>2022-01-30T12:30:43Z</time>
      </trkpt>
      <trkpt lat="41.8860700" lon="-2.7326350">
        <ele>1092.0</ele>
        <time>2022-01-30T12:30:44Z</time>
      </trkpt>
      <trkpt lat="41.8860850" lon="-2.7326530">
        <ele>1092.1</ele>
        <time>2022-01-30T12:30:45Z</time>
      </trkpt>
      <trkpt lat="41.8860970" lon="-2.7326670">
        <ele>1092.1</ele>
        <time>2022-01-30T12:30:46Z</time>
      </trkpt>
      <trkpt lat="41.8861200" lon="-2.7326830">
        <ele>1092.2</ele>
        <time>2022-01-30T12:30:47Z</time>
      </trkpt>
      <trkpt lat="41.8861370" lon="-2.7326900">
        <ele>1092.3</ele>
        <time>2022-01-30T12:30:48Z</time>
      </trkpt>
      <trkpt lat="41.8861620" lon="-2.7327050">
        <ele>1092.4</ele>
        <time>2022-01-30T12:30:49Z</time>
      </trkpt>
      <trkpt lat="41.8861820" lon="-2.7327200">
        <ele>1092.4</ele>
        <time>2022-01-30T12:30:50Z</time>
      </trkpt>
      <trkpt lat="41.8862100" lon="-2.7327380">
        <ele>1092.6</ele>
        <time>2022-01-30T12:30:51Z</time>
      </trkpt>
      <trkpt lat="41.8862350" lon="-2.7327550">
        <ele>1092.7</ele>
        <time>2022-01-30T12:30:52Z</time>
      </trkpt>
      <trkpt lat="41.8862550" lon="-2.7327670">
        <ele>1092.8</ele>
        <time>2022-01-30T12:30:53Z</time>
      </trkpt>
      <trkpt lat="41.8862800" lon="-2.7327780">
        <ele>1092.9</ele>
        <time>2022-01-30T12:30:54Z</time>
      </trkpt>
      <trkpt lat="41.8863080" lon="-2.7327920">
        <ele>1093.1</ele>
        <time>2022-01-30T12:30:55Z</time>
      </trkpt>
      <trkpt lat="41.8863370" lon="-2.7328050">
        <ele>1093.3</ele>
        <time>2022-01-30T12:30:56Z</time>
      </trkpt>
      <trkpt lat="41.8863650" lon="-2.7328220">
        <ele>1093.5</ele>
        <time>2022-01-30T12:30:57Z</time>
      </trkpt>
      <trkpt lat="41.8863880" lon="-2.7328370">
        <ele>1093.6</ele>
        <time>2022-01-30T12:30:58Z</time>
      </trkpt>
      <trkpt lat="41.8864180" lon="-2.7328550">
        <ele>1093.8</ele>
        <time>2022-01-30T12:30:59Z</time>
      </trkpt>
      <trkpt lat="41.8864480" lon="-2.7328730">
        <ele>1094.0</ele>
        <time>2022-01-30T12:31:00Z</time>
      </trkpt>
      <trkpt lat="41.8864720" lon="-2.7328850">
        <ele>1094.2</ele>
        <time>2022-01-30T12:31:01Z</time>
      </trkpt>
      <trkpt lat="41.8864970" lon="-2.7329000">
        <ele>1094.4</ele>
        <time>2022-01-30T12:31:02Z</time>
      </trkpt>
      <trkpt lat="41.8865150" lon="-2.7329120">
        <ele>1094.6</ele>
        <time>2022-01-30T12:31:03Z</time>
      </trkpt>
      <trkpt lat="41.8865350" lon="-2.7329230">
        <ele>1094.7</ele>
        <time>2022-01-30T12:31:04Z</time>
      </trkpt>
      <trkpt lat="41.8865580" lon="-2.7329380">
        <ele>1094.9</ele>
        <time>2022-01-30T12:31:05Z</time>
      </trkpt>
      <trkpt lat="41.8865820" lon="-2.7329570">
        <ele>1095.1</ele>
        <time>2022-01-30T12:31:06Z</time>
      </trkpt>
      <trkpt lat="41.8866070" lon="-2.7329770">
        <ele>1095.3</ele>
        <time>2022-01-30T12:31:07Z</time>
      </trkpt>
      <trkpt lat="41.8866300" lon="-2.7329930">
        <ele>1095.5</ele>
        <time>2022-01-30T12:31:08Z</time>
      </trkpt>
      <trkpt lat="41.8866600" lon="-2.7330170">
        <ele>1095.7</ele>
        <time>2022-01-30T12:31:09Z</time>
      </trkpt>
      <trkpt lat="41.8866880" lon="-2.7330400">
        <ele>1095.9</ele>
        <time>2022-01-30T12:31:10Z</time>
      </trkpt>
      <trkpt lat="41.8867280" lon="-2.7330700">
        <ele>1096.2</ele>
        <time>2022-01-30T12:31:11Z</time>
      </trkpt>
      <trkpt lat="41.8867580" lon="-2.7330930">
        <ele>1096.4</ele>
        <time>2022-01-30T12:31:12Z</time>
      </trkpt>
      <trkpt lat="41.8867820" lon="-2.7331050">
        <ele>1096.6</ele>
        <time>2022-01-30T12:31:13Z</time>
      </trkpt>
      <trkpt lat="41.8868050" lon="-2.7331300">
        <ele>1096.7</ele>
        <time>2022-01-30T12:31:14Z</time>
      </trkpt>
      <trkpt lat="41.8868270" lon="-2.7331530">
        <ele>1096.9</ele>
        <time>2022-01-30T12:31:15Z</time>
      </trkpt>
      <trkpt lat="41.8868500" lon="-2.7331820">
        <ele>1097.1</ele>
        <time>2022-01-30T12:31:16Z</time>
      </trkpt>
      <trkpt lat="41.8868700" lon="-2.7332130">
        <ele>1097.3</ele>
        <time>2022-01-30T12:31:17Z</time>
      </trkpt>
      <trkpt lat="41.8868850" lon="-2.7332330">
        <ele>1097.4</ele>
        <time>2022-01-30T12:31:18Z</time>
      </trkpt>
      <trkpt lat="41.8869080" lon="-2.7332570">
        <ele>1097.6</ele>
        <time>2022-01-30T12:31:19Z</time>
      </trkpt>
      <trkpt lat="41.8869300" lon="-2.7332770">
        <ele>1097.7</ele>
        <time>2022-01-30T12:31:20Z</time>
      </trkpt>
      <trkpt lat="41.8869550" lon="-2.7333050">
        <ele>1097.9</ele>
        <time>2022-01-30T12:31:21Z</time>
      </trkpt>
      <trkpt lat="41.8869720" lon="-2.7333250">
        <ele>1097.9</ele>
        <time>2022-01-30T12:31:22Z</time>
      </trkpt>
      <trkpt lat="41.8869850" lon="-2.7333400">
        <ele>1098.0</ele>
        <time>2022-01-30T12:31:23Z</time>
      </trkpt>
      <trkpt lat="41.8870020" lon="-2.7333600">
        <ele>1098.1</ele>
        <time>2022-01-30T12:31:24Z</time>
      </trkpt>
      <trkpt lat="41.8870180" lon="-2.7333800">
        <ele>1098.1</ele>
        <time>2022-01-30T12:31:25Z</time>
      </trkpt>
      <trkpt lat="41.8870370" lon="-2.7334050">
        <ele>1098.2</ele>
        <time>2022-01-30T12:31:26Z</time>
      </trkpt>
      <trkpt lat="41.8870530" lon="-2.7334230">
        <ele>1098.3</ele>
        <time>2022-01-30T12:31:27Z</time>
      </trkpt>
      <trkpt lat="41.8870630" lon="-2.7334400">
        <ele>1098.3</ele>
        <time>2022-01-30T12:31:28Z</time>
      </trkpt>
      <trkpt lat="41.8870780" lon="-2.7334580">
        <ele>1098.3</ele>
        <time>2022-01-30T12:31:29Z</time>
      </trkpt>
      <trkpt lat="41.8870950" lon="-2.7334780">
        <ele>1098.4</ele>
        <time>2022-01-30T12:31:30Z</time>
      </trkpt>
      <trkpt lat="41.8871070" lon="-2.7334920">
        <ele>1098.4</ele>
        <time>2022-01-30T12:31:31Z</time>
      </trkpt>
      <trkpt lat="41.8871220" lon="-2.7335050">
        <ele>1098.4</ele>
        <time>2022-01-30T12:31:32Z</time>
      </trkpt>
      <trkpt lat="41.8871420" lon="-2.7335200">
        <ele>1098.4</ele>
        <time>2022-01-30T12:31:33Z</time>
      </trkpt>
      <trkpt lat="41.8871570" lon="-2.7335300">
        <ele>1098.4</ele>
        <time>2022-01-30T12:31:34Z</time>
      </trkpt>
      <trkpt lat="41.8871830" lon="-2.7335470">
        <ele>1098.4</ele>
        <time>2022-01-30T12:31:35Z</time>
      </trkpt>
      <trkpt lat="41.8872050" lon="-2.7335570">
        <ele>1098.4</ele>
        <time>2022-01-30T12:31:36Z</time>
      </trkpt>
      <trkpt lat="41.8872250" lon="-2.7335630">
        <ele>1098.4</ele>
        <time>2022-01-30T12:31:37Z</time>
      </trkpt>
      <trkpt lat="41.8872520" lon="-2.7335750">
        <ele>1098.4</ele>
        <time>2022-01-30T12:31:38Z</time>
      </trkpt>
      <trkpt lat="41.8872850" lon="-2.7335880">
        <ele>1098.4</ele>
        <time>2022-01-30T12:31:39Z</time>
      </trkpt>
      <trkpt lat="41.8873200" lon="-2.7336080">
        <ele>1098.4</ele>
        <time>2022-01-30T12:31:40Z</time>
      </trkpt>
      <trkpt lat="41.8873580" lon="-2.7336320">
        <ele>1098.4</ele>
        <time>2022-01-30T12:31:41Z</time>
      </trkpt>
      <trkpt lat="41.8873720" lon="-2.7336500">
        <ele>1098.4</ele>
        <time>2022-01-30T12:31:42Z</time>
      </trkpt>
      <trkpt lat="41.8874130" lon="-2.7336630">
        <ele>1098.4</ele>
        <time>2022-01-30T12:31:43Z</time>
      </trkpt>
      <trkpt lat="41.8874470" lon="-2.7336730">
        <ele>1098.4</ele>
        <time>2022-01-30T12:31:44Z</time>
      </trkpt>
      <trkpt lat="41.8874950" lon="-2.7336880">
        <ele>1098.4</ele>
        <time>2022-01-30T12:31:45Z</time>
      </trkpt>
      <trkpt lat="41.8875380" lon="-2.7337080">
        <ele>1098.4</ele>
        <time>2022-01-30T12:31:46Z</time>
      </trkpt>
      <trkpt lat="41.8875730" lon="-2.7337230">
        <ele>1098.4</ele>
        <time>2022-01-30T12:31:47Z</time>
      </trkpt>
      <trkpt lat="41.8876170" lon="-2.7337400">
        <ele>1098.5</ele>
        <time>2022-01-30T12:31:48Z</time>
      </trkpt>
      <trkpt lat="41.8876620" lon="-2.7337600">
        <ele>1098.6</ele>
        <time>2022-01-30T12:31:49Z</time>
      </trkpt>
      <trkpt lat="41.8876920" lon="-2.7337780">
        <ele>1098.6</ele>
        <time>2022-01-30T12:31:50Z</time>
      </trkpt>
      <trkpt lat="41.8877400" lon="-2.7338070">
        <ele>1098.7</ele>
        <time>2022-01-30T12:31:51Z</time>
      </trkpt>
      <trkpt lat="41.8877730" lon="-2.7338230">
        <ele>1098.8</ele>
        <time>2022-01-30T12:31:52Z</time>
      </trkpt>
      <trkpt lat="41.8878100" lon="-2.7338400">
        <ele>1098.9</ele>
        <time>2022-01-30T12:31:53Z</time>
      </trkpt>
      <trkpt lat="41.8878480" lon="-2.7338520">
        <ele>1099.0</ele>
        <time>2022-01-30T12:31:54Z</time>
      </trkpt>
      <trkpt lat="41.8878820" lon="-2.7338650">
        <ele>1099.1</ele>
        <time>2022-01-30T12:31:55Z</time>
      </trkpt>
      <trkpt lat="41.8879120" lon="-2.7338770">
        <ele>1099.1</ele>
        <time>2022-01-30T12:31:56Z</time>
      </trkpt>
      <trkpt lat="41.8879370" lon="-2.7338850">
        <ele>1099.2</ele>
        <time>2022-01-30T12:31:57Z</time>
      </trkpt>
      <trkpt lat="41.8879670" lon="-2.7338930">
        <ele>1099.3</ele>
        <time>2022-01-30T12:31:58Z</time>
      </trkpt>
      <trkpt lat="41.8879970" lon="-2.7339050">
        <ele>1099.4</ele>
        <time>2022-01-30T12:31:59Z</time>
      </trkpt>
      <trkpt lat="41.8880350" lon="-2.7339170">
        <ele>1099.5</ele>
        <time>2022-01-30T12:32:00Z</time>
      </trkpt>
      <trkpt lat="41.8880580" lon="-2.7339250">
        <ele>1099.6</ele>
        <time>2022-01-30T12:32:01Z</time>
      </trkpt>
      <trkpt lat="41.8880900" lon="-2.7339330">
        <ele>1099.8</ele>
        <time>2022-01-30T12:32:02Z</time>
      </trkpt>
      <trkpt lat="41.8881200" lon="-2.7339430">
        <ele>1099.9</ele>
        <time>2022-01-30T12:32:03Z</time>
      </trkpt>
      <trkpt lat="41.8881500" lon="-2.7339580">
        <ele>1100.0</ele>
        <time>2022-01-30T12:32:04Z</time>
      </trkpt>
      <trkpt lat="41.8881850" lon="-2.7339820">
        <ele>1100.2</ele>
        <time>2022-01-30T12:32:05Z</time>
      </trkpt>
      <trkpt lat="41.8882080" lon="-2.7339970">
        <ele>1100.3</ele>
        <time>2022-01-30T12:32:06Z</time>
      </trkpt>
      <trkpt lat="41.8882350" lon="-2.7340180">
        <ele>1100.5</ele>
        <time>2022-01-30T12:32:07Z</time>
      </trkpt>
      <trkpt lat="41.8882600" lon="-2.7340380">
        <ele>1100.6</ele>
        <time>2022-01-30T12:32:08Z</time>
      </trkpt>
      <trkpt lat="41.8882870" lon="-2.7340600">
        <ele>1100.8</ele>
        <time>2022-01-30T12:32:09Z</time>
      </trkpt>
      <trkpt lat="41.8883180" lon="-2.7340850">
        <ele>1101.0</ele>
        <time>2022-01-30T12:32:10Z</time>
      </trkpt>
      <trkpt lat="41.8883380" lon="-2.7341000">
        <ele>1101.1</ele>
        <time>2022-01-30T12:32:11Z</time>
      </trkpt>
      <trkpt lat="41.8883620" lon="-2.7341200">
        <ele>1101.3</ele>
        <time>2022-01-30T12:32:12Z</time>
      </trkpt>
      <trkpt lat="41.8883830" lon="-2.7341420">
        <ele>1101.4</ele>
        <time>2022-01-30T12:32:13Z</time>
      </trkpt>
      <trkpt lat="41.8884100" lon="-2.7341630">
        <ele>1101.6</ele>
        <time>2022-01-30T12:32:14Z</time>
      </trkpt>
      <trkpt lat="41.8884300" lon="-2.7341780">
        <ele>1101.8</ele>
        <time>2022-01-30T12:32:15Z</time>
      </trkpt>
      <trkpt lat="41.8884480" lon="-2.7341950">
        <ele>1102.0</ele>
        <time>2022-01-30T12:32:16Z</time>
      </trkpt>
      <trkpt lat="41.8884680" lon="-2.7342120">
        <ele>1102.2</ele>
        <time>2022-01-30T12:32:17Z</time>
      </trkpt>
      <trkpt lat="41.8884900" lon="-2.7342330">
        <ele>1102.4</ele>
        <time>2022-01-30T12:32:18Z</time>
      </trkpt>
      <trkpt lat="41.8885100" lon="-2.7342480">
        <ele>1102.5</ele>
        <time>2022-01-30T12:32:19Z</time>
      </trkpt>
      <trkpt lat="41.8885280" lon="-2.7342600">
        <ele>1102.7</ele>
        <time>2022-01-30T12:32:20Z</time>
      </trkpt>
      <trkpt lat="41.8885550" lon="-2.7342700">
        <ele>1103.0</ele>
        <time>2022-01-30T12:32:21Z</time>
      </trkpt>
      <trkpt lat="41.8885780" lon="-2.7342850">
        <ele>1103.2</ele>
        <time>2022-01-30T12:32:22Z</time>
      </trkpt>
      <trkpt lat="41.8886050" lon="-2.7342970">
        <ele>1103.4</ele>
        <time>2022-01-30T12:32:23Z</time>
      </trkpt>
      <trkpt lat="41.8886330" lon="-2.7343120">
        <ele>1103.7</ele>
        <time>2022-01-30T12:32:24Z</time>
      </trkpt>
      <trkpt lat="41.8886600" lon="-2.7343230">
        <ele>1104.0</ele>
        <time>2022-01-30T12:32:25Z</time>
      </trkpt>
      <trkpt lat="41.8886850" lon="-2.7343350">
        <ele>1104.2</ele>
        <time>2022-01-30T12:32:26Z</time>
      </trkpt>
      <trkpt lat="41.8887100" lon="-2.7343430">
        <ele>1104.4</ele>
        <time>2022-01-30T12:32:27Z</time>
      </trkpt>
      <trkpt lat="41.8887300" lon="-2.7343520">
        <ele>1104.6</ele>
        <time>2022-01-30T12:32:28Z</time>
      </trkpt>
      <trkpt lat="41.8887550" lon="-2.7343650">
        <ele>1104.8</ele>
        <time>2022-01-30T12:32:29Z</time>
      </trkpt>
      <trkpt lat="41.8887700" lon="-2.7343730">
        <ele>1104.9</ele>
        <time>2022-01-30T12:32:30Z</time>
      </trkpt>
      <trkpt lat="41.8887870" lon="-2.7343880">
        <ele>1105.1</ele>
        <time>2022-01-30T12:32:31Z</time>
      </trkpt>
      <trkpt lat="41.8888050" lon="-2.7344050">
        <ele>1105.3</ele>
        <time>2022-01-30T12:32:32Z</time>
      </trkpt>
      <trkpt lat="41.8888270" lon="-2.7344180">
        <ele>1105.4</ele>
        <time>2022-01-30T12:32:33Z</time>
      </trkpt>
      <trkpt lat="41.8888470" lon="-2.7344300">
        <ele>1105.6</ele>
        <time>2022-01-30T12:32:34Z</time>
      </trkpt>
      <trkpt lat="41.8888670" lon="-2.7344400">
        <ele>1105.7</ele>
        <time>2022-01-30T12:32:35Z</time>
      </trkpt>
      <trkpt lat="41.8888830" lon="-2.7344480">
        <ele>1105.8</ele>
        <time>2022-01-30T12:32:36Z</time>
      </trkpt>
      <trkpt lat="41.8889050" lon="-2.7344650">
        <ele>1105.9</ele>
        <time>2022-01-30T12:32:37Z</time>
      </trkpt>
      <trkpt lat="41.8889270" lon="-2.7344870">
        <ele>1106.1</ele>
        <time>2022-01-30T12:32:38Z</time>
      </trkpt>
      <trkpt lat="41.8889400" lon="-2.7345000">
        <ele>1106.2</ele>
        <time>2022-01-30T12:32:39Z</time>
      </trkpt>
      <trkpt lat="41.8889620" lon="-2.7345220">
        <ele>1106.3</ele>
        <time>2022-01-30T12:32:40Z</time>
      </trkpt>
      <trkpt lat="41.8889830" lon="-2.7345400">
        <ele>1106.4</ele>
        <time>2022-01-30T12:32:41Z</time>
      </trkpt>
      <trkpt lat="41.8890070" lon="-2.7345570">
        <ele>1106.6</ele>
        <time>2022-01-30T12:32:42Z</time>
      </trkpt>
      <trkpt lat="41.8890270" lon="-2.7345670">
        <ele>1106.7</ele>
        <time>2022-01-30T12:32:43Z</time>
      </trkpt>
      <trkpt lat="41.8890500" lon="-2.7345670">
        <ele>1106.8</ele>
        <time>2022-01-30T12:32:44Z</time>
      </trkpt>
      <trkpt lat="41.8890780" lon="-2.7345770">
        <ele>1107.0</ele>
        <time>2022-01-30T12:32:45Z</time>
      </trkpt>
      <trkpt lat="41.8891050" lon="-2.7345900">
        <ele>1107.1</ele>
        <time>2022-01-30T12:32:46Z</time>
      </trkpt>
      <trkpt lat="41.8891300" lon="-2.7346030">
        <ele>1107.2</ele>
        <time>2022-01-30T12:32:47Z</time>
      </trkpt>
      <trkpt lat="41.8891550" lon="-2.7346230">
        <ele>1107.3</ele>
        <time>2022-01-30T12:32:48Z</time>
      </trkpt>
      <trkpt lat="41.8891700" lon="-2.7346400">
        <ele>1107.4</ele>
        <time>2022-01-30T12:32:49Z</time>
      </trkpt>
      <trkpt lat="41.8891970" lon="-2.7346550">
        <ele>1107.5</ele>
        <time>2022-01-30T12:32:50Z</time>
      </trkpt>
      <trkpt lat="41.8892180" lon="-2.7346680">
        <ele>1107.6</ele>
        <time>2022-01-30T12:32:51Z</time>
      </trkpt>
      <trkpt lat="41.8892430" lon="-2.7346870">
        <ele>1107.8</ele>
        <time>2022-01-30T12:32:52Z</time>
      </trkpt>
      <trkpt lat="41.8892650" lon="-2.7347050">
        <ele>1107.9</ele>
        <time>2022-01-30T12:32:53Z</time>
      </trkpt>
      <trkpt lat="41.8892820" lon="-2.7347180">
        <ele>1107.9</ele>
        <time>2022-01-30T12:32:54Z</time>
      </trkpt>
      <trkpt lat="41.8893030" lon="-2.7347380">
        <ele>1108.0</ele>
        <time>2022-01-30T12:32:55Z</time>
      </trkpt>
      <trkpt lat="41.8893270" lon="-2.7347630">
        <ele>1108.2</ele>
        <time>2022-01-30T12:32:56Z</time>
      </trkpt>
      <trkpt lat="41.8893420" lon="-2.7347800">
        <ele>1108.3</ele>
        <time>2022-01-30T12:32:57Z</time>
      </trkpt>
      <trkpt lat="41.8893630" lon="-2.7348030">
        <ele>1108.4</ele>
        <time>2022-01-30T12:32:58Z</time>
      </trkpt>
      <trkpt lat="41.8893780" lon="-2.7348200">
        <ele>1108.4</ele>
        <time>2022-01-30T12:32:59Z</time>
      </trkpt>
      <trkpt lat="41.8893980" lon="-2.7348420">
        <ele>1108.6</ele>
        <time>2022-01-30T12:33:00Z</time>
      </trkpt>
      <trkpt lat="41.8894230" lon="-2.7348670">
        <ele>1108.7</ele>
        <time>2022-01-30T12:33:01Z</time>
      </trkpt>
      <trkpt lat="41.8894450" lon="-2.7348850">
        <ele>1108.8</ele>
        <time>2022-01-30T12:33:02Z</time>
      </trkpt>
      <trkpt lat="41.8894630" lon="-2.7348980">
        <ele>1108.9</ele>
        <time>2022-01-30T12:33:03Z</time>
      </trkpt>
      <trkpt lat="41.8894850" lon="-2.7349180">
        <ele>1109.0</ele>
        <time>2022-01-30T12:33:04Z</time>
      </trkpt>
      <trkpt lat="41.8895070" lon="-2.7349400">
        <ele>1109.1</ele>
        <time>2022-01-30T12:33:05Z</time>
      </trkpt>
      <trkpt lat="41.8895280" lon="-2.7349600">
        <ele>1109.2</ele>
        <time>2022-01-30T12:33:06Z</time>
      </trkpt>
      <trkpt lat="41.8895520" lon="-2.7349770">
        <ele>1109.3</ele>
        <time>2022-01-30T12:33:07Z</time>
      </trkpt>
      <trkpt lat="41.8895750" lon="-2.7349970">
        <ele>1109.4</ele>
        <time>2022-01-30T12:33:08Z</time>
      </trkpt>
      <trkpt lat="41.8896000" lon="-2.7350180">
        <ele>1109.6</ele>
        <time>2022-01-30T12:33:09Z</time>
      </trkpt>
      <trkpt lat="41.8896280" lon="-2.7350380">
        <ele>1109.7</ele>
        <time>2022-01-30T12:33:10Z</time>
      </trkpt>
      <trkpt lat="41.8896630" lon="-2.7350580">
        <ele>1109.8</ele>
        <time>2022-01-30T12:33:11Z</time>
      </trkpt>
      <trkpt lat="41.8896920" lon="-2.7350800">
        <ele>1109.9</ele>
        <time>2022-01-30T12:33:12Z</time>
      </trkpt>
      <trkpt lat="41.8897130" lon="-2.7350920">
        <ele>1110.0</ele>
        <time>2022-01-30T12:33:13Z</time>
      </trkpt>
      <trkpt lat="41.8897400" lon="-2.7351120">
        <ele>1110.1</ele>
        <time>2022-01-30T12:33:14Z</time>
      </trkpt>
      <trkpt lat="41.8897680" lon="-2.7351320">
        <ele>1110.1</ele>
        <time>2022-01-30T12:33:15Z</time>
      </trkpt>
      <trkpt lat="41.8898020" lon="-2.7351620">
        <ele>1110.2</ele>
        <time>2022-01-30T12:33:16Z</time>
      </trkpt>
      <trkpt lat="41.8898300" lon="-2.7351850">
        <ele>1110.3</ele>
        <time>2022-01-30T12:33:17Z</time>
      </trkpt>
      <trkpt lat="41.8898600" lon="-2.7352000">
        <ele>1110.4</ele>
        <time>2022-01-30T12:33:18Z</time>
      </trkpt>
      <trkpt lat="41.8898930" lon="-2.7352220">
        <ele>1110.4</ele>
        <time>2022-01-30T12:33:19Z</time>
      </trkpt>
      <trkpt lat="41.8899300" lon="-2.7352420">
        <ele>1110.5</ele>
        <time>2022-01-30T12:33:20Z</time>
      </trkpt>
      <trkpt lat="41.8899750" lon="-2.7352680">
        <ele>1110.5</ele>
        <time>2022-01-30T12:33:21Z</time>
      </trkpt>
      <trkpt lat="41.8900100" lon="-2.7352950">
        <ele>1110.6</ele>
        <time>2022-01-30T12:33:22Z</time>
      </trkpt>
      <trkpt lat="41.8900400" lon="-2.7353270">
        <ele>1110.6</ele>
        <time>2022-01-30T12:33:23Z</time>
      </trkpt>
      <trkpt lat="41.8900720" lon="-2.7353530">
        <ele>1110.7</ele>
        <time>2022-01-30T12:33:24Z</time>
      </trkpt>
      <trkpt lat="41.8901080" lon="-2.7353780">
        <ele>1110.7</ele>
        <time>2022-01-30T12:33:25Z</time>
      </trkpt>
      <trkpt lat="41.8901450" lon="-2.7354020">
        <ele>1110.7</ele>
        <time>2022-01-30T12:33:26Z</time>
      </trkpt>
      <trkpt lat="41.8901800" lon="-2.7354280">
        <ele>1110.7</ele>
        <time>2022-01-30T12:33:27Z</time>
      </trkpt>
      <trkpt lat="41.8902180" lon="-2.7354600">
        <ele>1110.7</ele>
        <time>2022-01-30T12:33:28Z</time>
      </trkpt>
      <trkpt lat="41.8902520" lon="-2.7354900">
        <ele>1110.7</ele>
        <time>2022-01-30T12:33:29Z</time>
      </trkpt>
      <trkpt lat="41.8902830" lon="-2.7355180">
        <ele>1110.7</ele>
        <time>2022-01-30T12:33:30Z</time>
      </trkpt>
      <trkpt lat="41.8903230" lon="-2.7355550">
        <ele>1110.7</ele>
        <time>2022-01-30T12:33:31Z</time>
      </trkpt>
      <trkpt lat="41.8903480" lon="-2.7355820">
        <ele>1110.7</ele>
        <time>2022-01-30T12:33:32Z</time>
      </trkpt>
      <trkpt lat="41.8903780" lon="-2.7356130">
        <ele>1110.6</ele>
        <time>2022-01-30T12:33:33Z</time>
      </trkpt>
      <trkpt lat="41.8904170" lon="-2.7356520">
        <ele>1110.6</ele>
        <time>2022-01-30T12:33:34Z</time>
      </trkpt>
      <trkpt lat="41.8904370" lon="-2.7356820">
        <ele>1110.6</ele>
        <time>2022-01-30T12:33:35Z</time>
      </trkpt>
      <trkpt lat="41.8904670" lon="-2.7357230">
        <ele>1110.5</ele>
        <time>2022-01-30T12:33:36Z</time>
      </trkpt>
      <trkpt lat="41.8904820" lon="-2.7357520">
        <ele>1110.5</ele>
        <time>2022-01-30T12:33:37Z</time>
      </trkpt>
      <trkpt lat="41.8904980" lon="-2.7357850">
        <ele>1110.5</ele>
        <time>2022-01-30T12:33:38Z</time>
      </trkpt>
      <trkpt lat="41.8905200" lon="-2.7358220">
        <ele>1110.5</ele>
        <time>2022-01-30T12:33:39Z</time>
      </trkpt>
      <trkpt lat="41.8905430" lon="-2.7358550">
        <ele>1110.4</ele>
        <time>2022-01-30T12:33:40Z</time>
      </trkpt>
      <trkpt lat="41.8905700" lon="-2.7358900">
        <ele>1110.4</ele>
        <time>2022-01-30T12:33:41Z</time>
      </trkpt>
      <trkpt lat="41.8905900" lon="-2.7359230">
        <ele>1110.4</ele>
        <time>2022-01-30T12:33:42Z</time>
      </trkpt>
      <trkpt lat="41.8906070" lon="-2.7359630">
        <ele>1110.4</ele>
        <time>2022-01-30T12:33:43Z</time>
      </trkpt>
      <trkpt lat="41.8906280" lon="-2.7359950">
        <ele>1110.4</ele>
        <time>2022-01-30T12:33:44Z</time>
      </trkpt>
      <trkpt lat="41.8906530" lon="-2.7360300">
        <ele>1110.4</ele>
        <time>2022-01-30T12:33:45Z</time>
      </trkpt>
      <trkpt lat="41.8906820" lon="-2.7360680">
        <ele>1110.3</ele>
        <time>2022-01-30T12:33:46Z</time>
      </trkpt>
      <trkpt lat="41.8907100" lon="-2.7361080">
        <ele>1110.3</ele>
        <time>2022-01-30T12:33:47Z</time>
      </trkpt>
      <trkpt lat="41.8907430" lon="-2.7361380">
        <ele>1110.3</ele>
        <time>2022-01-30T12:33:48Z</time>
      </trkpt>
      <trkpt lat="41.8907920" lon="-2.7361770">
        <ele>1110.2</ele>
        <time>2022-01-30T12:33:49Z</time>
      </trkpt>
      <trkpt lat="41.8908380" lon="-2.7362070">
        <ele>1110.2</ele>
        <time>2022-01-30T12:33:50Z</time>
      </trkpt>
      <trkpt lat="41.8908750" lon="-2.7362470">
        <ele>1110.1</ele>
        <time>2022-01-30T12:33:51Z</time>
      </trkpt>
      <trkpt lat="41.8909100" lon="-2.7362830">
        <ele>1110.1</ele>
        <time>2022-01-30T12:33:52Z</time>
      </trkpt>
      <trkpt lat="41.8909420" lon="-2.7363150">
        <ele>1110.0</ele>
        <time>2022-01-30T12:33:53Z</time>
      </trkpt>
      <trkpt lat="41.8909750" lon="-2.7363480">
        <ele>1109.9</ele>
        <time>2022-01-30T12:33:54Z</time>
      </trkpt>
      <trkpt lat="41.8910070" lon="-2.7363820">
        <ele>1109.8</ele>
        <time>2022-01-30T12:33:55Z</time>
      </trkpt>
      <trkpt lat="41.8910430" lon="-2.7364150">
        <ele>1109.7</ele>
        <time>2022-01-30T12:33:56Z</time>
      </trkpt>
      <trkpt lat="41.8910770" lon="-2.7364500">
        <ele>1109.6</ele>
        <time>2022-01-30T12:33:57Z</time>
      </trkpt>
      <trkpt lat="41.8911080" lon="-2.7364830">
        <ele>1109.5</ele>
        <time>2022-01-30T12:33:58Z</time>
      </trkpt>
      <trkpt lat="41.8911380" lon="-2.7365170">
        <ele>1109.3</ele>
        <time>2022-01-30T12:33:59Z</time>
      </trkpt>
      <trkpt lat="41.8911670" lon="-2.7365550">
        <ele>1109.2</ele>
        <time>2022-01-30T12:34:00Z</time>
      </trkpt>
      <trkpt lat="41.8911880" lon="-2.7365950">
        <ele>1109.1</ele>
        <time>2022-01-30T12:34:01Z</time>
      </trkpt>
      <trkpt lat="41.8912070" lon="-2.7366380">
        <ele>1108.9</ele>
        <time>2022-01-30T12:34:02Z</time>
      </trkpt>
      <trkpt lat="41.8912250" lon="-2.7366730">
        <ele>1108.8</ele>
        <time>2022-01-30T12:34:03Z</time>
      </trkpt>
      <trkpt lat="41.8912570" lon="-2.7367050">
        <ele>1108.6</ele>
        <time>2022-01-30T12:34:04Z</time>
      </trkpt>
      <trkpt lat="41.8912900" lon="-2.7367300">
        <ele>1108.4</ele>
        <time>2022-01-30T12:34:05Z</time>
      </trkpt>
      <trkpt lat="41.8913220" lon="-2.7367530">
        <ele>1108.3</ele>
        <time>2022-01-30T12:34:06Z</time>
      </trkpt>
      <trkpt lat="41.8913500" lon="-2.7367700">
        <ele>1108.1</ele>
        <time>2022-01-30T12:34:07Z</time>
      </trkpt>
      <trkpt lat="41.8913800" lon="-2.7367980">
        <ele>1108.0</ele>
        <time>2022-01-30T12:34:08Z</time>
      </trkpt>
      <trkpt lat="41.8914000" lon="-2.7368130">
        <ele>1107.9</ele>
        <time>2022-01-30T12:34:09Z</time>
      </trkpt>
      <trkpt lat="41.8914280" lon="-2.7368300">
        <ele>1107.7</ele>
        <time>2022-01-30T12:34:10Z</time>
      </trkpt>
      <trkpt lat="41.8914550" lon="-2.7368370">
        <ele>1107.6</ele>
        <time>2022-01-30T12:34:11Z</time>
      </trkpt>
      <trkpt lat="41.8914830" lon="-2.7368550">
        <ele>1107.4</ele>
        <time>2022-01-30T12:34:12Z</time>
      </trkpt>
      <trkpt lat="41.8915250" lon="-2.7368720">
        <ele>1107.2</ele>
        <time>2022-01-30T12:34:13Z</time>
      </trkpt>
      <trkpt lat="41.8915730" lon="-2.7369000">
        <ele>1107.0</ele>
        <time>2022-01-30T12:34:14Z</time>
      </trkpt>
      <trkpt lat="41.8916180" lon="-2.7369350">
        <ele>1106.7</ele>
        <time>2022-01-30T12:34:15Z</time>
      </trkpt>
      <trkpt lat="41.8916580" lon="-2.7369670">
        <ele>1106.5</ele>
        <time>2022-01-30T12:34:16Z</time>
      </trkpt>
      <trkpt lat="41.8917050" lon="-2.7370030">
        <ele>1106.2</ele>
        <time>2022-01-30T12:34:17Z</time>
      </trkpt>
      <trkpt lat="41.8917520" lon="-2.7370230">
        <ele>1106.0</ele>
        <time>2022-01-30T12:34:18Z</time>
      </trkpt>
      <trkpt lat="41.8917920" lon="-2.7370380">
        <ele>1105.8</ele>
        <time>2022-01-30T12:34:19Z</time>
      </trkpt>
      <trkpt lat="41.8918280" lon="-2.7370450">
        <ele>1105.6</ele>
        <time>2022-01-30T12:34:20Z</time>
      </trkpt>
      <trkpt lat="41.8918650" lon="-2.7370400">
        <ele>1105.4</ele>
        <time>2022-01-30T12:34:21Z</time>
      </trkpt>
      <trkpt lat="41.8919180" lon="-2.7370270">
        <ele>1105.2</ele>
        <time>2022-01-30T12:34:22Z</time>
      </trkpt>
      <trkpt lat="41.8919750" lon="-2.7370070">
        <ele>1104.9</ele>
        <time>2022-01-30T12:34:23Z</time>
      </trkpt>
      <trkpt lat="41.8920050" lon="-2.7369880">
        <ele>1104.8</ele>
        <time>2022-01-30T12:34:24Z</time>
      </trkpt>
      <trkpt lat="41.8920470" lon="-2.7369970">
        <ele>1104.6</ele>
        <time>2022-01-30T12:34:25Z</time>
      </trkpt>
      <trkpt lat="41.8920770" lon="-2.7370220">
        <ele>1104.5</ele>
        <time>2022-01-30T12:34:26Z</time>
      </trkpt>
      <trkpt lat="41.8921070" lon="-2.7370450">
        <ele>1104.3</ele>
        <time>2022-01-30T12:34:27Z</time>
      </trkpt>
      <trkpt lat="41.8921420" lon="-2.7370730">
        <ele>1104.4</ele>
        <time>2022-01-30T12:34:28Z</time>
      </trkpt>
      <trkpt lat="41.8921720" lon="-2.7370980">
        <ele>1104.5</ele>
        <time>2022-01-30T12:34:29Z</time>
      </trkpt>
      <trkpt lat="41.8921920" lon="-2.7371250">
        <ele>1102.3</ele>
        <time>2022-01-30T12:34:30Z</time>
      </trkpt>
      <trkpt lat="41.8922100" lon="-2.7371570">
        <ele>1105.6</ele>
        <time>2022-01-30T12:34:31Z</time>
      </trkpt>
      <trkpt lat="41.8922280" lon="-2.7371950">
        <ele>1105.7</ele>
        <time>2022-01-30T12:34:32Z</time>
      </trkpt>
      <trkpt lat="41.8922520" lon="-2.7372350">
        <ele>1105.8</ele>
        <time>2022-01-30T12:34:33Z</time>
      </trkpt>
      <trkpt lat="41.8922730" lon="-2.7372700">
        <ele>1105.8</ele>
        <time>2022-01-30T12:34:34Z</time>
      </trkpt>
      <trkpt lat="41.8922950" lon="-2.7372980">
        <ele>1105.9</ele>
        <time>2022-01-30T12:34:35Z</time>
      </trkpt>
      <trkpt lat="41.8923230" lon="-2.7373230">
        <ele>1106.9</ele>
        <time>2022-01-30T12:34:36Z</time>
      </trkpt>
      <trkpt lat="41.8923500" lon="-2.7373500">
        <ele>1107.0</ele>
        <time>2022-01-30T12:34:37Z</time>
      </trkpt>
      <trkpt lat="41.8923800" lon="-2.7373730">
        <ele>1107.0</ele>
        <time>2022-01-30T12:34:38Z</time>
      </trkpt>
      <trkpt lat="41.8924020" lon="-2.7373970">
        <ele>1107.1</ele>
        <time>2022-01-30T12:34:39Z</time>
      </trkpt>
      <trkpt lat="41.8924200" lon="-2.7374220">
        <ele>1107.2</ele>
        <time>2022-01-30T12:34:40Z</time>
      </trkpt>
      <trkpt lat="41.8924300" lon="-2.7374400">
        <ele>1107.2</ele>
        <time>2022-01-30T12:34:41Z</time>
      </trkpt>
      <trkpt lat="41.8924450" lon="-2.7374580">
        <ele>1105.4</ele>
        <time>2022-01-30T12:34:42Z</time>
      </trkpt>
      <trkpt lat="41.8924800" lon="-2.7374830">
        <ele>1105.4</ele>
        <time>2022-01-30T12:34:43Z</time>
      </trkpt>
      <trkpt lat="41.8925120" lon="-2.7374900">
        <ele>1108.4</ele>
        <time>2022-01-30T12:34:44Z</time>
      </trkpt>
      <trkpt lat="41.8925430" lon="-2.7375150">
        <ele>1108.5</ele>
        <time>2022-01-30T12:34:45Z</time>
      </trkpt>
      <trkpt lat="41.8925650" lon="-2.7375280">
        <ele>1108.6</ele>
        <time>2022-01-30T12:34:46Z</time>
      </trkpt>
      <trkpt lat="41.8925950" lon="-2.7375480">
        <ele>1106.9</ele>
        <time>2022-01-30T12:34:47Z</time>
      </trkpt>
      <trkpt lat="41.8926170" lon="-2.7375680">
        <ele>1107.0</ele>
        <time>2022-01-30T12:34:48Z</time>
      </trkpt>
      <trkpt lat="41.8926380" lon="-2.7375900">
        <ele>1107.1</ele>
        <time>2022-01-30T12:34:49Z</time>
      </trkpt>
      <trkpt lat="41.8926600" lon="-2.7376080">
        <ele>1107.1</ele>
        <time>2022-01-30T12:34:50Z</time>
      </trkpt>
      <trkpt lat="41.8926880" lon="-2.7376250">
        <ele>1107.2</ele>
        <time>2022-01-30T12:34:51Z</time>
      </trkpt>
      <trkpt lat="41.8927200" lon="-2.7376450">
        <ele>1105.4</ele>
        <time>2022-01-30T12:34:52Z</time>
      </trkpt>
      <trkpt lat="41.8927480" lon="-2.7376620">
        <ele>1107.9</ele>
        <time>2022-01-30T12:34:53Z</time>
      </trkpt>
      <trkpt lat="41.8927770" lon="-2.7376800">
        <ele>1108.0</ele>
        <time>2022-01-30T12:34:54Z</time>
      </trkpt>
      <trkpt lat="41.8928070" lon="-2.7377020">
        <ele>1108.0</ele>
        <time>2022-01-30T12:34:55Z</time>
      </trkpt>
      <trkpt lat="41.8928380" lon="-2.7377270">
        <ele>1106.0</ele>
        <time>2022-01-30T12:34:56Z</time>
      </trkpt>
      <trkpt lat="41.8928720" lon="-2.7377470">
        <ele>1106.1</ele>
        <time>2022-01-30T12:34:57Z</time>
      </trkpt>
      <trkpt lat="41.8929020" lon="-2.7377670">
        <ele>1106.2</ele>
        <time>2022-01-30T12:34:58Z</time>
      </trkpt>
      <trkpt lat="41.8929430" lon="-2.7377870">
        <ele>1106.2</ele>
        <time>2022-01-30T12:34:59Z</time>
      </trkpt>
      <trkpt lat="41.8929800" lon="-2.7378130">
        <ele>1104.8</ele>
        <time>2022-01-30T12:35:00Z</time>
      </trkpt>
      <trkpt lat="41.8930150" lon="-2.7378450">
        <ele>1107.1</ele>
        <time>2022-01-30T12:35:01Z</time>
      </trkpt>
      <trkpt lat="41.8930470" lon="-2.7378800">
        <ele>1107.2</ele>
        <time>2022-01-30T12:35:02Z</time>
      </trkpt>
      <trkpt lat="41.8930750" lon="-2.7379070">
        <ele>1107.2</ele>
        <time>2022-01-30T12:35:03Z</time>
      </trkpt>
      <trkpt lat="41.8930930" lon="-2.7379380">
        <ele>1106.0</ele>
        <time>2022-01-30T12:35:04Z</time>
      </trkpt>
      <trkpt lat="41.8931130" lon="-2.7379700">
        <ele>1106.1</ele>
        <time>2022-01-30T12:35:05Z</time>
      </trkpt>
      <trkpt lat="41.8931280" lon="-2.7380000">
        <ele>1107.7</ele>
        <time>2022-01-30T12:35:06Z</time>
      </trkpt>
      <trkpt lat="41.8931370" lon="-2.7380230">
        <ele>1107.7</ele>
        <time>2022-01-30T12:35:07Z</time>
      </trkpt>
      <trkpt lat="41.8931520" lon="-2.7380500">
        <ele>1107.8</ele>
        <time>2022-01-30T12:35:08Z</time>
      </trkpt>
      <trkpt lat="41.8931750" lon="-2.7380930">
        <ele>1107.9</ele>
        <time>2022-01-30T12:35:09Z</time>
      </trkpt>
      <trkpt lat="41.8932000" lon="-2.7381320">
        <ele>1107.9</ele>
        <time>2022-01-30T12:35:10Z</time>
      </trkpt>
      <trkpt lat="41.8932170" lon="-2.7381550">
        <ele>1106.9</ele>
        <time>2022-01-30T12:35:11Z</time>
      </trkpt>
      <trkpt lat="41.8932320" lon="-2.7381820">
        <ele>1107.9</ele>
        <time>2022-01-30T12:35:12Z</time>
      </trkpt>
      <trkpt lat="41.8932570" lon="-2.7382250">
        <ele>1107.9</ele>
        <time>2022-01-30T12:35:13Z</time>
      </trkpt>
      <trkpt lat="41.8932820" lon="-2.7382650">
        <ele>1108.0</ele>
        <time>2022-01-30T12:35:14Z</time>
      </trkpt>
      <trkpt lat="41.8933000" lon="-2.7383030">
        <ele>1108.1</ele>
        <time>2022-01-30T12:35:15Z</time>
      </trkpt>
      <trkpt lat="41.8933120" lon="-2.7383300">
        <ele>1108.1</ele>
        <time>2022-01-30T12:35:16Z</time>
      </trkpt>
      <trkpt lat="41.8933230" lon="-2.7383550">
        <ele>1109.4</ele>
        <time>2022-01-30T12:35:17Z</time>
      </trkpt>
      <trkpt lat="41.8933400" lon="-2.7383820">
        <ele>1108.1</ele>
        <time>2022-01-30T12:35:18Z</time>
      </trkpt>
      <trkpt lat="41.8933570" lon="-2.7384070">
        <ele>1108.2</ele>
        <time>2022-01-30T12:35:19Z</time>
      </trkpt>
      <trkpt lat="41.8933770" lon="-2.7384330">
        <ele>1108.2</ele>
        <time>2022-01-30T12:35:20Z</time>
      </trkpt>
      <trkpt lat="41.8934030" lon="-2.7384630">
        <ele>1108.3</ele>
        <time>2022-01-30T12:35:21Z</time>
      </trkpt>
      <trkpt lat="41.8934270" lon="-2.7384870">
        <ele>1108.4</ele>
        <time>2022-01-30T12:35:22Z</time>
      </trkpt>
      <trkpt lat="41.8934450" lon="-2.7385170">
        <ele>1109.8</ele>
        <time>2022-01-30T12:35:23Z</time>
      </trkpt>
      <trkpt lat="41.8934630" lon="-2.7385480">
        <ele>1108.6</ele>
        <time>2022-01-30T12:35:24Z</time>
      </trkpt>
      <trkpt lat="41.8934820" lon="-2.7385780">
        <ele>1108.7</ele>
        <time>2022-01-30T12:35:25Z</time>
      </trkpt>
      <trkpt lat="41.8934980" lon="-2.7386100">
        <ele>1108.8</ele>
        <time>2022-01-30T12:35:26Z</time>
      </trkpt>
      <trkpt lat="41.8935200" lon="-2.7386470">
        <ele>1108.8</ele>
        <time>2022-01-30T12:35:27Z</time>
      </trkpt>
      <trkpt lat="41.8935380" lon="-2.7386830">
        <ele>1108.9</ele>
        <time>2022-01-30T12:35:28Z</time>
      </trkpt>
      <trkpt lat="41.8935550" lon="-2.7387220">
        <ele>1110.3</ele>
        <time>2022-01-30T12:35:29Z</time>
      </trkpt>
      <trkpt lat="41.8935730" lon="-2.7387620">
        <ele>1110.3</ele>
        <time>2022-01-30T12:35:30Z</time>
      </trkpt>
      <trkpt lat="41.8935900" lon="-2.7387980">
        <ele>1108.8</ele>
        <time>2022-01-30T12:35:31Z</time>
      </trkpt>
      <trkpt lat="41.8936080" lon="-2.7388320">
        <ele>1108.8</ele>
        <time>2022-01-30T12:35:32Z</time>
      </trkpt>
      <trkpt lat="41.8936270" lon="-2.7388700">
        <ele>1109.9</ele>
        <time>2022-01-30T12:35:33Z</time>
      </trkpt>
      <trkpt lat="41.8936480" lon="-2.7388970">
        <ele>1110.0</ele>
        <time>2022-01-30T12:35:34Z</time>
      </trkpt>
      <trkpt lat="41.8936720" lon="-2.7389250">
        <ele>1110.0</ele>
        <time>2022-01-30T12:35:35Z</time>
      </trkpt>
      <trkpt lat="41.8936920" lon="-2.7389580">
        <ele>1110.1</ele>
        <time>2022-01-30T12:35:36Z</time>
      </trkpt>
      <trkpt lat="41.8937120" lon="-2.7389970">
        <ele>1110.2</ele>
        <time>2022-01-30T12:35:37Z</time>
      </trkpt>
      <trkpt lat="41.8937350" lon="-2.7390300">
        <ele>1109.2</ele>
        <time>2022-01-30T12:35:38Z</time>
      </trkpt>
      <trkpt lat="41.8937600" lon="-2.7390670">
        <ele>1109.3</ele>
        <time>2022-01-30T12:35:39Z</time>
      </trkpt>
      <trkpt lat="41.8937800" lon="-2.7391000">
        <ele>1109.4</ele>
        <time>2022-01-30T12:35:40Z</time>
      </trkpt>
      <trkpt lat="41.8938120" lon="-2.7391500">
        <ele>1109.4</ele>
        <time>2022-01-30T12:35:41Z</time>
      </trkpt>
      <trkpt lat="41.8938350" lon="-2.7391970">
        <ele>1109.5</ele>
        <time>2022-01-30T12:35:42Z</time>
      </trkpt>
      <trkpt lat="41.8938530" lon="-2.7392350">
        <ele>1108.1</ele>
        <time>2022-01-30T12:35:43Z</time>
      </trkpt>
      <trkpt lat="41.8938750" lon="-2.7392680">
        <ele>1108.2</ele>
        <time>2022-01-30T12:35:44Z</time>
      </trkpt>
      <trkpt lat="41.8938930" lon="-2.7393080">
        <ele>1108.3</ele>
        <time>2022-01-30T12:35:45Z</time>
      </trkpt>
      <trkpt lat="41.8939080" lon="-2.7393420">
        <ele>1108.3</ele>
        <time>2022-01-30T12:35:46Z</time>
      </trkpt>
      <trkpt lat="41.8939230" lon="-2.7393850">
        <ele>1108.8</ele>
        <time>2022-01-30T12:35:47Z</time>
      </trkpt>
      <trkpt lat="41.8939430" lon="-2.7394220">
        <ele>1108.9</ele>
        <time>2022-01-30T12:35:48Z</time>
      </trkpt>
      <trkpt lat="41.8939650" lon="-2.7394650">
        <ele>1108.9</ele>
        <time>2022-01-30T12:35:49Z</time>
      </trkpt>
      <trkpt lat="41.8939800" lon="-2.7395020">
        <ele>1107.5</ele>
        <time>2022-01-30T12:35:50Z</time>
      </trkpt>
      <trkpt lat="41.8939920" lon="-2.7395380">
        <ele>1107.6</ele>
        <time>2022-01-30T12:35:51Z</time>
      </trkpt>
      <trkpt lat="41.8940000" lon="-2.7395780">
        <ele>1107.8</ele>
        <time>2022-01-30T12:35:52Z</time>
      </trkpt>
      <trkpt lat="41.8940120" lon="-2.7396150">
        <ele>1107.9</ele>
        <time>2022-01-30T12:35:53Z</time>
      </trkpt>
      <trkpt lat="41.8940180" lon="-2.7396530">
        <ele>1108.0</ele>
        <time>2022-01-30T12:35:54Z</time>
      </trkpt>
      <trkpt lat="41.8940280" lon="-2.7396880">
        <ele>1108.1</ele>
        <time>2022-01-30T12:35:55Z</time>
      </trkpt>
      <trkpt lat="41.8940350" lon="-2.7397230">
        <ele>1108.1</ele>
        <time>2022-01-30T12:35:56Z</time>
      </trkpt>
      <trkpt lat="41.8940420" lon="-2.7397580">
        <ele>1108.2</ele>
        <time>2022-01-30T12:35:57Z</time>
      </trkpt>
      <trkpt lat="41.8940530" lon="-2.7398080">
        <ele>1108.2</ele>
        <time>2022-01-30T12:35:58Z</time>
      </trkpt>
      <trkpt lat="41.8940520" lon="-2.7398380">
        <ele>1108.3</ele>
        <time>2022-01-30T12:35:59Z</time>
      </trkpt>
      <trkpt lat="41.8940550" lon="-2.7398750">
        <ele>1108.4</ele>
        <time>2022-01-30T12:36:00Z</time>
      </trkpt>
      <trkpt lat="41.8940670" lon="-2.7399120">
        <ele>1108.5</ele>
        <time>2022-01-30T12:36:01Z</time>
      </trkpt>
      <trkpt lat="41.8940700" lon="-2.7399400">
        <ele>1108.5</ele>
        <time>2022-01-30T12:36:02Z</time>
      </trkpt>
      <trkpt lat="41.8940800" lon="-2.7399650">
        <ele>1108.6</ele>
        <time>2022-01-30T12:36:03Z</time>
      </trkpt>
      <trkpt lat="41.8940930" lon="-2.7400000">
        <ele>1108.7</ele>
        <time>2022-01-30T12:36:04Z</time>
      </trkpt>
      <trkpt lat="41.8941030" lon="-2.7400330">
        <ele>1106.9</ele>
        <time>2022-01-30T12:36:05Z</time>
      </trkpt>
      <trkpt lat="41.8941150" lon="-2.7400700">
        <ele>1107.3</ele>
        <time>2022-01-30T12:36:06Z</time>
      </trkpt>
      <trkpt lat="41.8941220" lon="-2.7401000">
        <ele>1107.4</ele>
        <time>2022-01-30T12:36:07Z</time>
      </trkpt>
      <trkpt lat="41.8941300" lon="-2.7401300">
        <ele>1107.4</ele>
        <time>2022-01-30T12:36:08Z</time>
      </trkpt>
      <trkpt lat="41.8941450" lon="-2.7401500">
        <ele>1107.5</ele>
        <time>2022-01-30T12:36:09Z</time>
      </trkpt>
      <trkpt lat="41.8941650" lon="-2.7401750">
        <ele>1107.6</ele>
        <time>2022-01-30T12:36:10Z</time>
      </trkpt>
      <trkpt lat="41.8941820" lon="-2.7402050">
        <ele>1107.6</ele>
        <time>2022-01-30T12:36:11Z</time>
      </trkpt>
      <trkpt lat="41.8941970" lon="-2.7402330">
        <ele>1108.2</ele>
        <time>2022-01-30T12:36:12Z</time>
      </trkpt>
      <trkpt lat="41.8942120" lon="-2.7402670">
        <ele>1108.2</ele>
        <time>2022-01-30T12:36:13Z</time>
      </trkpt>
      <trkpt lat="41.8942320" lon="-2.7403050">
        <ele>1106.8</ele>
        <time>2022-01-30T12:36:14Z</time>
      </trkpt>
      <trkpt lat="41.8942530" lon="-2.7403420">
        <ele>1106.9</ele>
        <time>2022-01-30T12:36:15Z</time>
      </trkpt>
      <trkpt lat="41.8942730" lon="-2.7403820">
        <ele>1106.9</ele>
        <time>2022-01-30T12:36:16Z</time>
      </trkpt>
      <trkpt lat="41.8942830" lon="-2.7404230">
        <ele>1107.4</ele>
        <time>2022-01-30T12:36:17Z</time>
      </trkpt>
      <trkpt lat="41.8942900" lon="-2.7404630">
        <ele>1107.5</ele>
        <time>2022-01-30T12:36:18Z</time>
      </trkpt>
      <trkpt lat="41.8942950" lon="-2.7405020">
        <ele>1107.6</ele>
        <time>2022-01-30T12:36:19Z</time>
      </trkpt>
      <trkpt lat="41.8942950" lon="-2.7405370">
        <ele>1107.6</ele>
        <time>2022-01-30T12:36:20Z</time>
      </trkpt>
      <trkpt lat="41.8942930" lon="-2.7405630">
        <ele>1107.7</ele>
        <time>2022-01-30T12:36:21Z</time>
      </trkpt>
      <trkpt lat="41.8942920" lon="-2.7405980">
        <ele>1108.3</ele>
        <time>2022-01-30T12:36:22Z</time>
      </trkpt>
      <trkpt lat="41.8942900" lon="-2.7406300">
        <ele>1108.4</ele>
        <time>2022-01-30T12:36:23Z</time>
      </trkpt>
      <trkpt lat="41.8942870" lon="-2.7406650">
        <ele>1108.4</ele>
        <time>2022-01-30T12:36:24Z</time>
      </trkpt>
      <trkpt lat="41.8942900" lon="-2.7407050">
        <ele>1108.5</ele>
        <time>2022-01-30T12:36:25Z</time>
      </trkpt>
      <trkpt lat="41.8942980" lon="-2.7407430">
        <ele>1108.6</ele>
        <time>2022-01-30T12:36:26Z</time>
      </trkpt>
      <trkpt lat="41.8943070" lon="-2.7407780">
        <ele>1109.4</ele>
        <time>2022-01-30T12:36:27Z</time>
      </trkpt>
      <trkpt lat="41.8943200" lon="-2.7408180">
        <ele>1109.4</ele>
        <time>2022-01-30T12:36:28Z</time>
      </trkpt>
      <trkpt lat="41.8943370" lon="-2.7408530">
        <ele>1109.5</ele>
        <time>2022-01-30T12:36:29Z</time>
      </trkpt>
      <trkpt lat="41.8943570" lon="-2.7408870">
        <ele>1108.6</ele>
        <time>2022-01-30T12:36:30Z</time>
      </trkpt>
      <trkpt lat="41.8943750" lon="-2.7409250">
        <ele>1109.8</ele>
        <time>2022-01-30T12:36:31Z</time>
      </trkpt>
      <trkpt lat="41.8943950" lon="-2.7409530">
        <ele>1109.9</ele>
        <time>2022-01-30T12:36:32Z</time>
      </trkpt>
      <trkpt lat="41.8944100" lon="-2.7409850">
        <ele>1109.9</ele>
        <time>2022-01-30T12:36:33Z</time>
      </trkpt>
      <trkpt lat="41.8944330" lon="-2.7410130">
        <ele>1110.0</ele>
        <time>2022-01-30T12:36:34Z</time>
      </trkpt>
      <trkpt lat="41.8944580" lon="-2.7410430">
        <ele>1110.1</ele>
        <time>2022-01-30T12:36:35Z</time>
      </trkpt>
      <trkpt lat="41.8944820" lon="-2.7410630">
        <ele>1110.2</ele>
        <time>2022-01-30T12:36:36Z</time>
      </trkpt>
      <trkpt lat="41.8945080" lon="-2.7410950">
        <ele>1111.2</ele>
        <time>2022-01-30T12:36:37Z</time>
      </trkpt>
      <trkpt lat="41.8945300" lon="-2.7411220">
        <ele>1111.2</ele>
        <time>2022-01-30T12:36:38Z</time>
      </trkpt>
      <trkpt lat="41.8945570" lon="-2.7411480">
        <ele>1111.3</ele>
        <time>2022-01-30T12:36:39Z</time>
      </trkpt>
      <trkpt lat="41.8945830" lon="-2.7411750">
        <ele>1111.4</ele>
        <time>2022-01-30T12:36:40Z</time>
      </trkpt>
      <trkpt lat="41.8946080" lon="-2.7412030">
        <ele>1111.4</ele>
        <time>2022-01-30T12:36:41Z</time>
      </trkpt>
      <trkpt lat="41.8946270" lon="-2.7412250">
        <ele>1111.0</ele>
        <time>2022-01-30T12:36:42Z</time>
      </trkpt>
      <trkpt lat="41.8946380" lon="-2.7412420">
        <ele>1111.1</ele>
        <time>2022-01-30T12:36:43Z</time>
      </trkpt>
      <trkpt lat="41.8946500" lon="-2.7412620">
        <ele>1112.7</ele>
        <time>2022-01-30T12:36:44Z</time>
      </trkpt>
      <trkpt lat="41.8946630" lon="-2.7412830">
        <ele>1112.8</ele>
        <time>2022-01-30T12:36:45Z</time>
      </trkpt>
      <trkpt lat="41.8946730" lon="-2.7413020">
        <ele>1112.9</ele>
        <time>2022-01-30T12:36:46Z</time>
      </trkpt>
      <trkpt lat="41.8946850" lon="-2.7413220">
        <ele>1112.9</ele>
        <time>2022-01-30T12:36:47Z</time>
      </trkpt>
      <trkpt lat="41.8946980" lon="-2.7413430">
        <ele>1113.0</ele>
        <time>2022-01-30T12:36:48Z</time>
      </trkpt>
      <trkpt lat="41.8947170" lon="-2.7413620">
        <ele>1113.1</ele>
        <time>2022-01-30T12:36:49Z</time>
      </trkpt>
      <trkpt lat="41.8947350" lon="-2.7413770">
        <ele>1113.1</ele>
        <time>2022-01-30T12:36:50Z</time>
      </trkpt>
      <trkpt lat="41.8947580" lon="-2.7413930">
        <ele>1112.4</ele>
        <time>2022-01-30T12:36:51Z</time>
      </trkpt>
      <trkpt lat="41.8947800" lon="-2.7414120">
        <ele>1112.4</ele>
        <time>2022-01-30T12:36:52Z</time>
      </trkpt>
      <trkpt lat="41.8948020" lon="-2.7414250">
        <ele>1112.5</ele>
        <time>2022-01-30T12:36:53Z</time>
      </trkpt>
      <trkpt lat="41.8948270" lon="-2.7414380">
        <ele>1114.5</ele>
        <time>2022-01-30T12:36:54Z</time>
      </trkpt>
      <trkpt lat="41.8948520" lon="-2.7414500">
        <ele>1114.5</ele>
        <time>2022-01-30T12:36:55Z</time>
      </trkpt>
      <trkpt lat="41.8948800" lon="-2.7414620">
        <ele>1114.0</ele>
        <time>2022-01-30T12:36:56Z</time>
      </trkpt>
      <trkpt lat="41.8949050" lon="-2.7414750">
        <ele>1114.1</ele>
        <time>2022-01-30T12:36:57Z</time>
      </trkpt>
      <trkpt lat="41.8949320" lon="-2.7414870">
        <ele>1114.1</ele>
        <time>2022-01-30T12:36:58Z</time>
      </trkpt>
      <trkpt lat="41.8949530" lon="-2.7414950">
        <ele>1114.2</ele>
        <time>2022-01-30T12:36:59Z</time>
      </trkpt>
      <trkpt lat="41.8949720" lon="-2.7415120">
        <ele>1114.3</ele>
        <time>2022-01-30T12:37:00Z</time>
      </trkpt>
      <trkpt lat="41.8949930" lon="-2.7415300">
        <ele>1114.3</ele>
        <time>2022-01-30T12:37:01Z</time>
      </trkpt>
      <trkpt lat="41.8950100" lon="-2.7415430">
        <ele>1113.8</ele>
        <time>2022-01-30T12:37:02Z</time>
      </trkpt>
      <trkpt lat="41.8950230" lon="-2.7415620">
        <ele>1113.9</ele>
        <time>2022-01-30T12:37:03Z</time>
      </trkpt>
      <trkpt lat="41.8950430" lon="-2.7415780">
        <ele>1114.0</ele>
        <time>2022-01-30T12:37:04Z</time>
      </trkpt>
      <trkpt lat="41.8950570" lon="-2.7416020">
        <ele>1114.1</ele>
        <time>2022-01-30T12:37:05Z</time>
      </trkpt>
      <trkpt lat="41.8950720" lon="-2.7416150">
        <ele>1116.3</ele>
        <time>2022-01-30T12:37:06Z</time>
      </trkpt>
      <trkpt lat="41.8950900" lon="-2.7416280">
        <ele>1116.4</ele>
        <time>2022-01-30T12:37:07Z</time>
      </trkpt>
      <trkpt lat="41.8951100" lon="-2.7416380">
        <ele>1116.4</ele>
        <time>2022-01-30T12:37:08Z</time>
      </trkpt>
      <trkpt lat="41.8951320" lon="-2.7416520">
        <ele>1115.9</ele>
        <time>2022-01-30T12:37:09Z</time>
      </trkpt>
      <trkpt lat="41.8951530" lon="-2.7416650">
        <ele>1116.0</ele>
        <time>2022-01-30T12:37:10Z</time>
      </trkpt>
      <trkpt lat="41.8951730" lon="-2.7416820">
        <ele>1116.1</ele>
        <time>2022-01-30T12:37:11Z</time>
      </trkpt>
      <trkpt lat="41.8951930" lon="-2.7417000">
        <ele>1116.1</ele>
        <time>2022-01-30T12:37:12Z</time>
      </trkpt>
      <trkpt lat="41.8952100" lon="-2.7417200">
        <ele>1116.2</ele>
        <time>2022-01-30T12:37:13Z</time>
      </trkpt>
      <trkpt lat="41.8952300" lon="-2.7417400">
        <ele>1116.3</ele>
        <time>2022-01-30T12:37:14Z</time>
      </trkpt>
      <trkpt lat="41.8952500" lon="-2.7417580">
        <ele>1115.5</ele>
        <time>2022-01-30T12:37:15Z</time>
      </trkpt>
      <trkpt lat="41.8952700" lon="-2.7417730">
        <ele>1115.6</ele>
        <time>2022-01-30T12:37:16Z</time>
      </trkpt>
      <trkpt lat="41.8952930" lon="-2.7417870">
        <ele>1117.8</ele>
        <time>2022-01-30T12:37:17Z</time>
      </trkpt>
      <trkpt lat="41.8953180" lon="-2.7417950">
        <ele>1117.8</ele>
        <time>2022-01-30T12:37:18Z</time>
      </trkpt>
      <trkpt lat="41.8953470" lon="-2.7418000">
        <ele>1117.9</ele>
        <time>2022-01-30T12:37:19Z</time>
      </trkpt>
      <trkpt lat="41.8953780" lon="-2.7418020">
        <ele>1117.2</ele>
        <time>2022-01-30T12:37:20Z</time>
      </trkpt>
      <trkpt lat="41.8954100" lon="-2.7418020">
        <ele>1117.3</ele>
        <time>2022-01-30T12:37:21Z</time>
      </trkpt>
      <trkpt lat="41.8954520" lon="-2.7418070">
        <ele>1117.3</ele>
        <time>2022-01-30T12:37:22Z</time>
      </trkpt>
      <trkpt lat="41.8954920" lon="-2.7418130">
        <ele>1117.4</ele>
        <time>2022-01-30T12:37:23Z</time>
      </trkpt>
      <trkpt lat="41.8955300" lon="-2.7418230">
        <ele>1116.5</ele>
        <time>2022-01-30T12:37:24Z</time>
      </trkpt>
      <trkpt lat="41.8955700" lon="-2.7418370">
        <ele>1116.6</ele>
        <time>2022-01-30T12:37:25Z</time>
      </trkpt>
      <trkpt lat="41.8956050" lon="-2.7418530">
        <ele>1116.7</ele>
        <time>2022-01-30T12:37:26Z</time>
      </trkpt>
      <trkpt lat="41.8956330" lon="-2.7418750">
        <ele>1115.7</ele>
        <time>2022-01-30T12:37:27Z</time>
      </trkpt>
      <trkpt lat="41.8956680" lon="-2.7419100">
        <ele>1115.8</ele>
        <time>2022-01-30T12:37:28Z</time>
      </trkpt>
      <trkpt lat="41.8956930" lon="-2.7419480">
        <ele>1117.9</ele>
        <time>2022-01-30T12:37:29Z</time>
      </trkpt>
      <trkpt lat="41.8957200" lon="-2.7419800">
        <ele>1117.9</ele>
        <time>2022-01-30T12:37:30Z</time>
      </trkpt>
      <trkpt lat="41.8957450" lon="-2.7420150">
        <ele>1118.0</ele>
        <time>2022-01-30T12:37:31Z</time>
      </trkpt>
      <trkpt lat="41.8957770" lon="-2.7420530">
        <ele>1117.0</ele>
        <time>2022-01-30T12:37:32Z</time>
      </trkpt>
      <trkpt lat="41.8958050" lon="-2.7420880">
        <ele>1117.0</ele>
        <time>2022-01-30T12:37:33Z</time>
      </trkpt>
      <trkpt lat="41.8958370" lon="-2.7421250">
        <ele>1119.0</ele>
        <time>2022-01-30T12:37:34Z</time>
      </trkpt>
      <trkpt lat="41.8958720" lon="-2.7421650">
        <ele>1119.0</ele>
        <time>2022-01-30T12:37:35Z</time>
      </trkpt>
      <trkpt lat="41.8959020" lon="-2.7422150">
        <ele>1118.0</ele>
        <time>2022-01-30T12:37:36Z</time>
      </trkpt>
      <trkpt lat="41.8959420" lon="-2.7422670">
        <ele>1118.0</ele>
        <time>2022-01-30T12:37:37Z</time>
      </trkpt>
      <trkpt lat="41.8959820" lon="-2.7423170">
        <ele>1119.7</ele>
        <time>2022-01-30T12:37:38Z</time>
      </trkpt>
      <trkpt lat="41.8960070" lon="-2.7423580">
        <ele>1119.8</ele>
        <time>2022-01-30T12:37:39Z</time>
      </trkpt>
      <trkpt lat="41.8960270" lon="-2.7424030">
        <ele>1118.4</ele>
        <time>2022-01-30T12:37:40Z</time>
      </trkpt>
      <trkpt lat="41.8960480" lon="-2.7424550">
        <ele>1118.5</ele>
        <time>2022-01-30T12:37:41Z</time>
      </trkpt>
      <trkpt lat="41.8960730" lon="-2.7425230">
        <ele>1119.7</ele>
        <time>2022-01-30T12:37:42Z</time>
      </trkpt>
      <trkpt lat="41.8960930" lon="-2.7425850">
        <ele>1119.7</ele>
        <time>2022-01-30T12:37:43Z</time>
      </trkpt>
      <trkpt lat="41.8961050" lon="-2.7426280">
        <ele>1119.8</ele>
        <time>2022-01-30T12:37:44Z</time>
      </trkpt>
      <trkpt lat="41.8961170" lon="-2.7426670">
        <ele>1120.8</ele>
        <time>2022-01-30T12:37:45Z</time>
      </trkpt>
      <trkpt lat="41.8961270" lon="-2.7427070">
        <ele>1120.9</ele>
        <time>2022-01-30T12:37:46Z</time>
      </trkpt>
      <trkpt lat="41.8961370" lon="-2.7427480">
        <ele>1120.9</ele>
        <time>2022-01-30T12:37:47Z</time>
      </trkpt>
      <trkpt lat="41.8961530" lon="-2.7427900">
        <ele>1118.7</ele>
        <time>2022-01-30T12:37:48Z</time>
      </trkpt>
      <trkpt lat="41.8961680" lon="-2.7428250">
        <ele>1119.8</ele>
        <time>2022-01-30T12:37:49Z</time>
      </trkpt>
      <trkpt lat="41.8961870" lon="-2.7428630">
        <ele>1119.8</ele>
        <time>2022-01-30T12:37:50Z</time>
      </trkpt>
      <trkpt lat="41.8962020" lon="-2.7428980">
        <ele>1119.9</ele>
        <time>2022-01-30T12:37:51Z</time>
      </trkpt>
      <trkpt lat="41.8962200" lon="-2.7429350">
        <ele>1120.0</ele>
        <time>2022-01-30T12:37:52Z</time>
      </trkpt>
      <trkpt lat="41.8962380" lon="-2.7429650">
        <ele>1120.1</ele>
        <time>2022-01-30T12:37:53Z</time>
      </trkpt>
      <trkpt lat="41.8962580" lon="-2.7429930">
        <ele>1121.1</ele>
        <time>2022-01-30T12:37:54Z</time>
      </trkpt>
      <trkpt lat="41.8962750" lon="-2.7430170">
        <ele>1118.8</ele>
        <time>2022-01-30T12:37:55Z</time>
      </trkpt>
      <trkpt lat="41.8962950" lon="-2.7430430">
        <ele>1118.8</ele>
        <time>2022-01-30T12:37:56Z</time>
      </trkpt>
      <trkpt lat="41.8963200" lon="-2.7430750">
        <ele>1118.9</ele>
        <time>2022-01-30T12:37:57Z</time>
      </trkpt>
      <trkpt lat="41.8963530" lon="-2.7431200">
        <ele>1119.0</ele>
        <time>2022-01-30T12:37:58Z</time>
      </trkpt>
      <trkpt lat="41.8963780" lon="-2.7431480">
        <ele>1119.0</ele>
        <time>2022-01-30T12:37:59Z</time>
      </trkpt>
      <trkpt lat="41.8964050" lon="-2.7431770">
        <ele>1117.4</ele>
        <time>2022-01-30T12:38:00Z</time>
      </trkpt>
      <trkpt lat="41.8964330" lon="-2.7432050">
        <ele>1117.5</ele>
        <time>2022-01-30T12:38:01Z</time>
      </trkpt>
      <trkpt lat="41.8964620" lon="-2.7432300">
        <ele>1117.6</ele>
        <time>2022-01-30T12:38:02Z</time>
      </trkpt>
      <trkpt lat="41.8964920" lon="-2.7432550">
        <ele>1117.6</ele>
        <time>2022-01-30T12:38:03Z</time>
      </trkpt>
      <trkpt lat="41.8965220" lon="-2.7432820">
        <ele>1117.7</ele>
        <time>2022-01-30T12:38:04Z</time>
      </trkpt>
      <trkpt lat="41.8965520" lon="-2.7433120">
        <ele>1115.8</ele>
        <time>2022-01-30T12:38:05Z</time>
      </trkpt>
      <trkpt lat="41.8965820" lon="-2.7433400">
        <ele>1116.9</ele>
        <time>2022-01-30T12:38:06Z</time>
      </trkpt>
      <trkpt lat="41.8966100" lon="-2.7433670">
        <ele>1117.0</ele>
        <time>2022-01-30T12:38:07Z</time>
      </trkpt>
      <trkpt lat="41.8966350" lon="-2.7434000">
        <ele>1117.0</ele>
        <time>2022-01-30T12:38:08Z</time>
      </trkpt>
      <trkpt lat="41.8966580" lon="-2.7434350">
        <ele>1115.2</ele>
        <time>2022-01-30T12:38:09Z</time>
      </trkpt>
      <trkpt lat="41.8966730" lon="-2.7434630">
        <ele>1115.3</ele>
        <time>2022-01-30T12:38:10Z</time>
      </trkpt>
      <trkpt lat="41.8966850" lon="-2.7434920">
        <ele>1115.3</ele>
        <time>2022-01-30T12:38:11Z</time>
      </trkpt>
      <trkpt lat="41.8967000" lon="-2.7435220">
        <ele>1116.3</ele>
        <time>2022-01-30T12:38:12Z</time>
      </trkpt>
      <trkpt lat="41.8967230" lon="-2.7435380">
        <ele>1116.4</ele>
        <time>2022-01-30T12:38:13Z</time>
      </trkpt>
      <trkpt lat="41.8967470" lon="-2.7435520">
        <ele>1116.5</ele>
        <time>2022-01-30T12:38:14Z</time>
      </trkpt>
      <trkpt lat="41.8967770" lon="-2.7435620">
        <ele>1116.6</ele>
        <time>2022-01-30T12:38:15Z</time>
      </trkpt>
      <trkpt lat="41.8968070" lon="-2.7435770">
        <ele>1115.2</ele>
        <time>2022-01-30T12:38:16Z</time>
      </trkpt>
      <trkpt lat="41.8968350" lon="-2.7436000">
        <ele>1115.3</ele>
        <time>2022-01-30T12:38:17Z</time>
      </trkpt>
      <trkpt lat="41.8968670" lon="-2.7436430">
        <ele>1115.4</ele>
        <time>2022-01-30T12:38:18Z</time>
      </trkpt>
      <trkpt lat="41.8968900" lon="-2.7436800">
        <ele>1116.4</ele>
        <time>2022-01-30T12:38:19Z</time>
      </trkpt>
      <trkpt lat="41.8969050" lon="-2.7437120">
        <ele>1116.5</ele>
        <time>2022-01-30T12:38:20Z</time>
      </trkpt>
      <trkpt lat="41.8969250" lon="-2.7437470">
        <ele>1115.1</ele>
        <time>2022-01-30T12:38:21Z</time>
      </trkpt>
      <trkpt lat="41.8969450" lon="-2.7437830">
        <ele>1115.1</ele>
        <time>2022-01-30T12:38:22Z</time>
      </trkpt>
      <trkpt lat="41.8969700" lon="-2.7438070">
        <ele>1115.2</ele>
        <time>2022-01-30T12:38:23Z</time>
      </trkpt>
      <trkpt lat="41.8969950" lon="-2.7438180">
        <ele>1115.3</ele>
        <time>2022-01-30T12:38:24Z</time>
      </trkpt>
      <trkpt lat="41.8970220" lon="-2.7438300">
        <ele>1115.4</ele>
        <time>2022-01-30T12:38:25Z</time>
      </trkpt>
      <trkpt lat="41.8970480" lon="-2.7438250">
        <ele>1114.3</ele>
        <time>2022-01-30T12:38:26Z</time>
      </trkpt>
      <trkpt lat="41.8970780" lon="-2.7438170">
        <ele>1114.3</ele>
        <time>2022-01-30T12:38:27Z</time>
      </trkpt>
      <trkpt lat="41.8971130" lon="-2.7438230">
        <ele>1114.4</ele>
        <time>2022-01-30T12:38:28Z</time>
      </trkpt>
      <trkpt lat="41.8971380" lon="-2.7438270">
        <ele>1114.5</ele>
        <time>2022-01-30T12:38:29Z</time>
      </trkpt>
      <trkpt lat="41.8971630" lon="-2.7438280">
        <ele>1114.5</ele>
        <time>2022-01-30T12:38:30Z</time>
      </trkpt>
      <trkpt lat="41.8971850" lon="-2.7438330">
        <ele>1113.5</ele>
        <time>2022-01-30T12:38:31Z</time>
      </trkpt>
      <trkpt lat="41.8972050" lon="-2.7438450">
        <ele>1114.1</ele>
        <time>2022-01-30T12:38:32Z</time>
      </trkpt>
      <trkpt lat="41.8972180" lon="-2.7438670">
        <ele>1114.2</ele>
        <time>2022-01-30T12:38:33Z</time>
      </trkpt>
      <trkpt lat="41.8972250" lon="-2.7438880">
        <ele>1114.2</ele>
        <time>2022-01-30T12:38:34Z</time>
      </trkpt>
      <trkpt lat="41.8972270" lon="-2.7439100">
        <ele>1114.4</ele>
        <time>2022-01-30T12:38:35Z</time>
      </trkpt>
      <trkpt lat="41.8972180" lon="-2.7439420">
        <ele>1114.6</ele>
        <time>2022-01-30T12:38:36Z</time>
      </trkpt>
      <trkpt lat="41.8972120" lon="-2.7439750">
        <ele>1114.9</ele>
        <time>2022-01-30T12:38:37Z</time>
      </trkpt>
      <trkpt lat="41.8972080" lon="-2.7440030">
        <ele>1115.1</ele>
        <time>2022-01-30T12:38:38Z</time>
      </trkpt>
      <trkpt lat="41.8972080" lon="-2.7440270">
        <ele>1115.2</ele>
        <time>2022-01-30T12:38:39Z</time>
      </trkpt>
      <trkpt lat="41.8972070" lon="-2.7440500">
        <ele>1115.4</ele>
        <time>2022-01-30T12:38:40Z</time>
      </trkpt>
      <trkpt lat="41.8972050" lon="-2.7440730">
        <ele>1115.6</ele>
        <time>2022-01-30T12:38:41Z</time>
      </trkpt>
      <trkpt lat="41.8972020" lon="-2.7440950">
        <ele>1115.7</ele>
        <time>2022-01-30T12:38:42Z</time>
      </trkpt>
      <trkpt lat="41.8972020" lon="-2.7441220">
        <ele>1115.9</ele>
        <time>2022-01-30T12:38:43Z</time>
      </trkpt>
      <trkpt lat="41.8972020" lon="-2.7441470">
        <ele>1116.1</ele>
        <time>2022-01-30T12:38:44Z</time>
      </trkpt>
      <trkpt lat="41.8972000" lon="-2.7441730">
        <ele>1116.3</ele>
        <time>2022-01-30T12:38:45Z</time>
      </trkpt>
      <trkpt lat="41.8971980" lon="-2.7441950">
        <ele>1116.4</ele>
        <time>2022-01-30T12:38:46Z</time>
      </trkpt>
      <trkpt lat="41.8971930" lon="-2.7442170">
        <ele>1116.6</ele>
        <time>2022-01-30T12:38:47Z</time>
      </trkpt>
      <trkpt lat="41.8971950" lon="-2.7442380">
        <ele>1116.7</ele>
        <time>2022-01-30T12:38:48Z</time>
      </trkpt>
      <trkpt lat="41.8971930" lon="-2.7442620">
        <ele>1116.9</ele>
        <time>2022-01-30T12:38:49Z</time>
      </trkpt>
      <trkpt lat="41.8971900" lon="-2.7442880">
        <ele>1117.1</ele>
        <time>2022-01-30T12:38:50Z</time>
      </trkpt>
      <trkpt lat="41.8971900" lon="-2.7443100">
        <ele>1117.2</ele>
        <time>2022-01-30T12:38:51Z</time>
      </trkpt>
      <trkpt lat="41.8971870" lon="-2.7443270">
        <ele>1117.4</ele>
        <time>2022-01-30T12:38:52Z</time>
      </trkpt>
      <trkpt lat="41.8971800" lon="-2.7443420">
        <ele>1117.5</ele>
        <time>2022-01-30T12:38:53Z</time>
      </trkpt>
      <trkpt lat="41.8971770" lon="-2.7443620">
        <ele>1117.6</ele>
        <time>2022-01-30T12:38:54Z</time>
      </trkpt>
      <trkpt lat="41.8971720" lon="-2.7443800">
        <ele>1117.8</ele>
        <time>2022-01-30T12:38:55Z</time>
      </trkpt>
      <trkpt lat="41.8971680" lon="-2.7444000">
        <ele>1117.9</ele>
        <time>2022-01-30T12:38:56Z</time>
      </trkpt>
      <trkpt lat="41.8971700" lon="-2.7444230">
        <ele>1118.1</ele>
        <time>2022-01-30T12:38:57Z</time>
      </trkpt>
      <trkpt lat="41.8971670" lon="-2.7444470">
        <ele>1118.3</ele>
        <time>2022-01-30T12:38:58Z</time>
      </trkpt>
      <trkpt lat="41.8971630" lon="-2.7444770">
        <ele>1118.5</ele>
        <time>2022-01-30T12:38:59Z</time>
      </trkpt>
      <trkpt lat="41.8971580" lon="-2.7445030">
        <ele>1118.7</ele>
        <time>2022-01-30T12:39:00Z</time>
      </trkpt>
      <trkpt lat="41.8971530" lon="-2.7445300">
        <ele>1118.9</ele>
        <time>2022-01-30T12:39:01Z</time>
      </trkpt>
      <trkpt lat="41.8971520" lon="-2.7445570">
        <ele>1119.0</ele>
        <time>2022-01-30T12:39:02Z</time>
      </trkpt>
      <trkpt lat="41.8971530" lon="-2.7445820">
        <ele>1119.2</ele>
        <time>2022-01-30T12:39:03Z</time>
      </trkpt>
      <trkpt lat="41.8971500" lon="-2.7446080">
        <ele>1119.4</ele>
        <time>2022-01-30T12:39:04Z</time>
      </trkpt>
      <trkpt lat="41.8971470" lon="-2.7446320">
        <ele>1119.6</ele>
        <time>2022-01-30T12:39:05Z</time>
      </trkpt>
      <trkpt lat="41.8971430" lon="-2.7446580">
        <ele>1119.8</ele>
        <time>2022-01-30T12:39:06Z</time>
      </trkpt>
      <trkpt lat="41.8971400" lon="-2.7446850">
        <ele>1120.0</ele>
        <time>2022-01-30T12:39:07Z</time>
      </trkpt>
      <trkpt lat="41.8971350" lon="-2.7447100">
        <ele>1120.1</ele>
        <time>2022-01-30T12:39:08Z</time>
      </trkpt>
      <trkpt lat="41.8971300" lon="-2.7447350">
        <ele>1120.3</ele>
        <time>2022-01-30T12:39:09Z</time>
      </trkpt>
      <trkpt lat="41.8971270" lon="-2.7447620">
        <ele>1120.5</ele>
        <time>2022-01-30T12:39:10Z</time>
      </trkpt>
      <trkpt lat="41.8971250" lon="-2.7447900">
        <ele>1120.7</ele>
        <time>2022-01-30T12:39:11Z</time>
      </trkpt>
      <trkpt lat="41.8971230" lon="-2.7448200">
        <ele>1120.9</ele>
        <time>2022-01-30T12:39:12Z</time>
      </trkpt>
      <trkpt lat="41.8971180" lon="-2.7448500">
        <ele>1121.1</ele>
        <time>2022-01-30T12:39:13Z</time>
      </trkpt>
      <trkpt lat="41.8971170" lon="-2.7448770">
        <ele>1121.3</ele>
        <time>2022-01-30T12:39:14Z</time>
      </trkpt>
      <trkpt lat="41.8971120" lon="-2.7449020">
        <ele>1121.5</ele>
        <time>2022-01-30T12:39:15Z</time>
      </trkpt>
      <trkpt lat="41.8971100" lon="-2.7449250">
        <ele>1121.7</ele>
        <time>2022-01-30T12:39:16Z</time>
      </trkpt>
      <trkpt lat="41.8971080" lon="-2.7449570">
        <ele>1121.9</ele>
        <time>2022-01-30T12:39:17Z</time>
      </trkpt>
      <trkpt lat="41.8971050" lon="-2.7449900">
        <ele>1122.1</ele>
        <time>2022-01-30T12:39:18Z</time>
      </trkpt>
      <trkpt lat="41.8971030" lon="-2.7450220">
        <ele>1122.3</ele>
        <time>2022-01-30T12:39:19Z</time>
      </trkpt>
      <trkpt lat="41.8971020" lon="-2.7450500">
        <ele>1122.5</ele>
        <time>2022-01-30T12:39:20Z</time>
      </trkpt>
      <trkpt lat="41.8970970" lon="-2.7450820">
        <ele>1122.7</ele>
        <time>2022-01-30T12:39:21Z</time>
      </trkpt>
      <trkpt lat="41.8970930" lon="-2.7451150">
        <ele>1122.9</ele>
        <time>2022-01-30T12:39:22Z</time>
      </trkpt>
      <trkpt lat="41.8970900" lon="-2.7451450">
        <ele>1123.1</ele>
        <time>2022-01-30T12:39:23Z</time>
      </trkpt>
      <trkpt lat="41.8970880" lon="-2.7451780">
        <ele>1123.4</ele>
        <time>2022-01-30T12:39:24Z</time>
      </trkpt>
      <trkpt lat="41.8970870" lon="-2.7452070">
        <ele>1123.5</ele>
        <time>2022-01-30T12:39:25Z</time>
      </trkpt>
      <trkpt lat="41.8970830" lon="-2.7452380">
        <ele>1123.7</ele>
        <time>2022-01-30T12:39:26Z</time>
      </trkpt>
      <trkpt lat="41.8970820" lon="-2.7452680">
        <ele>1123.9</ele>
        <time>2022-01-30T12:39:27Z</time>
      </trkpt>
      <trkpt lat="41.8970820" lon="-2.7452970">
        <ele>1124.1</ele>
        <time>2022-01-30T12:39:28Z</time>
      </trkpt>
      <trkpt lat="41.8970820" lon="-2.7453220">
        <ele>1124.2</ele>
        <time>2022-01-30T12:39:29Z</time>
      </trkpt>
      <trkpt lat="41.8970800" lon="-2.7453520">
        <ele>1124.4</ele>
        <time>2022-01-30T12:39:30Z</time>
      </trkpt>
      <trkpt lat="41.8970770" lon="-2.7453870">
        <ele>1124.6</ele>
        <time>2022-01-30T12:39:31Z</time>
      </trkpt>
      <trkpt lat="41.8970730" lon="-2.7454200">
        <ele>1124.8</ele>
        <time>2022-01-30T12:39:32Z</time>
      </trkpt>
      <trkpt lat="41.8970720" lon="-2.7454500">
        <ele>1125.0</ele>
        <time>2022-01-30T12:39:33Z</time>
      </trkpt>
      <trkpt lat="41.8970720" lon="-2.7454820">
        <ele>1125.2</ele>
        <time>2022-01-30T12:39:34Z</time>
      </trkpt>
      <trkpt lat="41.8970730" lon="-2.7455130">
        <ele>1125.3</ele>
        <time>2022-01-30T12:39:35Z</time>
      </trkpt>
      <trkpt lat="41.8970730" lon="-2.7455470">
        <ele>1125.5</ele>
        <time>2022-01-30T12:39:36Z</time>
      </trkpt>
      <trkpt lat="41.8970750" lon="-2.7455800">
        <ele>1125.7</ele>
        <time>2022-01-30T12:39:37Z</time>
      </trkpt>
      <trkpt lat="41.8970730" lon="-2.7456100">
        <ele>1125.9</ele>
        <time>2022-01-30T12:39:38Z</time>
      </trkpt>
      <trkpt lat="41.8970730" lon="-2.7456370">
        <ele>1126.1</ele>
        <time>2022-01-30T12:39:39Z</time>
      </trkpt>
      <trkpt lat="41.8970770" lon="-2.7456620">
        <ele>1126.2</ele>
        <time>2022-01-30T12:39:40Z</time>
      </trkpt>
      <trkpt lat="41.8970800" lon="-2.7456850">
        <ele>1126.4</ele>
        <time>2022-01-30T12:39:41Z</time>
      </trkpt>
      <trkpt lat="41.8970820" lon="-2.7457120">
        <ele>1126.5</ele>
        <time>2022-01-30T12:39:42Z</time>
      </trkpt>
      <trkpt lat="41.8970830" lon="-2.7457400">
        <ele>1126.7</ele>
        <time>2022-01-30T12:39:43Z</time>
      </trkpt>
      <trkpt lat="41.8970850" lon="-2.7457680">
        <ele>1126.8</ele>
        <time>2022-01-30T12:39:44Z</time>
      </trkpt>
      <trkpt lat="41.8970880" lon="-2.7458000">
        <ele>1127.0</ele>
        <time>2022-01-30T12:39:45Z</time>
      </trkpt>
      <trkpt lat="41.8970950" lon="-2.7458330">
        <ele>1127.2</ele>
        <time>2022-01-30T12:39:46Z</time>
      </trkpt>
      <trkpt lat="41.8971000" lon="-2.7458600">
        <ele>1127.4</ele>
        <time>2022-01-30T12:39:47Z</time>
      </trkpt>
      <trkpt lat="41.8971070" lon="-2.7458900">
        <ele>1127.6</ele>
        <time>2022-01-30T12:39:48Z</time>
      </trkpt>
      <trkpt lat="41.8971150" lon="-2.7459220">
        <ele>1127.8</ele>
        <time>2022-01-30T12:39:49Z</time>
      </trkpt>
      <trkpt lat="41.8971230" lon="-2.7459520">
        <ele>1127.9</ele>
        <time>2022-01-30T12:39:50Z</time>
      </trkpt>
      <trkpt lat="41.8971280" lon="-2.7459850">
        <ele>1128.1</ele>
        <time>2022-01-30T12:39:51Z</time>
      </trkpt>
      <trkpt lat="41.8971350" lon="-2.7460180">
        <ele>1128.2</ele>
        <time>2022-01-30T12:39:52Z</time>
      </trkpt>
      <trkpt lat="41.8971430" lon="-2.7460500">
        <ele>1128.4</ele>
        <time>2022-01-30T12:39:53Z</time>
      </trkpt>
      <trkpt lat="41.8971520" lon="-2.7460830">
        <ele>1128.5</ele>
        <time>2022-01-30T12:39:54Z</time>
      </trkpt>
      <trkpt lat="41.8971620" lon="-2.7461180">
        <ele>1128.7</ele>
        <time>2022-01-30T12:39:55Z</time>
      </trkpt>
      <trkpt lat="41.8971720" lon="-2.7461570">
        <ele>1128.8</ele>
        <time>2022-01-30T12:39:56Z</time>
      </trkpt>
      <trkpt lat="41.8971800" lon="-2.7461950">
        <ele>1128.9</ele>
        <time>2022-01-30T12:39:57Z</time>
      </trkpt>
      <trkpt lat="41.8971900" lon="-2.7462300">
        <ele>1129.0</ele>
        <time>2022-01-30T12:39:58Z</time>
      </trkpt>
      <trkpt lat="41.8972000" lon="-2.7462670">
        <ele>1129.1</ele>
        <time>2022-01-30T12:39:59Z</time>
      </trkpt>
      <trkpt lat="41.8972100" lon="-2.7463020">
        <ele>1129.2</ele>
        <time>2022-01-30T12:40:00Z</time>
      </trkpt>
      <trkpt lat="41.8972230" lon="-2.7463370">
        <ele>1129.3</ele>
        <time>2022-01-30T12:40:01Z</time>
      </trkpt>
      <trkpt lat="41.8972330" lon="-2.7463730">
        <ele>1129.4</ele>
        <time>2022-01-30T12:40:02Z</time>
      </trkpt>
      <trkpt lat="41.8972430" lon="-2.7464100">
        <ele>1129.5</ele>
        <time>2022-01-30T12:40:03Z</time>
      </trkpt>
      <trkpt lat="41.8972550" lon="-2.7464470">
        <ele>1129.6</ele>
        <time>2022-01-30T12:40:04Z</time>
      </trkpt>
      <trkpt lat="41.8972630" lon="-2.7464850">
        <ele>1129.7</ele>
        <time>2022-01-30T12:40:05Z</time>
      </trkpt>
      <trkpt lat="41.8972730" lon="-2.7465250">
        <ele>1129.8</ele>
        <time>2022-01-30T12:40:06Z</time>
      </trkpt>
      <trkpt lat="41.8972800" lon="-2.7465550">
        <ele>1129.8</ele>
        <time>2022-01-30T12:40:07Z</time>
      </trkpt>
      <trkpt lat="41.8972970" lon="-2.7466020">
        <ele>1129.9</ele>
        <time>2022-01-30T12:40:08Z</time>
      </trkpt>
      <trkpt lat="41.8973100" lon="-2.7466420">
        <ele>1130.0</ele>
        <time>2022-01-30T12:40:09Z</time>
      </trkpt>
      <trkpt lat="41.8973220" lon="-2.7466750">
        <ele>1130.0</ele>
        <time>2022-01-30T12:40:10Z</time>
      </trkpt>
      <trkpt lat="41.8973350" lon="-2.7467180">
        <ele>1130.1</ele>
        <time>2022-01-30T12:40:11Z</time>
      </trkpt>
      <trkpt lat="41.8973480" lon="-2.7467620">
        <ele>1130.1</ele>
        <time>2022-01-30T12:40:12Z</time>
      </trkpt>
      <trkpt lat="41.8973620" lon="-2.7468030">
        <ele>1130.1</ele>
        <time>2022-01-30T12:40:13Z</time>
      </trkpt>
      <trkpt lat="41.8973780" lon="-2.7468450">
        <ele>1130.2</ele>
        <time>2022-01-30T12:40:14Z</time>
      </trkpt>
      <trkpt lat="41.8973950" lon="-2.7468850">
        <ele>1130.3</ele>
        <time>2022-01-30T12:40:15Z</time>
      </trkpt>
      <trkpt lat="41.8974100" lon="-2.7469280">
        <ele>1130.3</ele>
        <time>2022-01-30T12:40:16Z</time>
      </trkpt>
      <trkpt lat="41.8974220" lon="-2.7469720">
        <ele>1130.4</ele>
        <time>2022-01-30T12:40:17Z</time>
      </trkpt>
      <trkpt lat="41.8974400" lon="-2.7470220">
        <ele>1130.4</ele>
        <time>2022-01-30T12:40:18Z</time>
      </trkpt>
      <trkpt lat="41.8974530" lon="-2.7470680">
        <ele>1130.5</ele>
        <time>2022-01-30T12:40:19Z</time>
      </trkpt>
      <trkpt lat="41.8974670" lon="-2.7471130">
        <ele>1130.5</ele>
        <time>2022-01-30T12:40:20Z</time>
      </trkpt>
      <trkpt lat="41.8974800" lon="-2.7471550">
        <ele>1130.6</ele>
        <time>2022-01-30T12:40:21Z</time>
      </trkpt>
      <trkpt lat="41.8974930" lon="-2.7472000">
        <ele>1130.6</ele>
        <time>2022-01-30T12:40:22Z</time>
      </trkpt>
      <trkpt lat="41.8975080" lon="-2.7472450">
        <ele>1130.6</ele>
        <time>2022-01-30T12:40:23Z</time>
      </trkpt>
      <trkpt lat="41.8975180" lon="-2.7472880">
        <ele>1130.6</ele>
        <time>2022-01-30T12:40:24Z</time>
      </trkpt>
      <trkpt lat="41.8975280" lon="-2.7473350">
        <ele>1130.6</ele>
        <time>2022-01-30T12:40:25Z</time>
      </trkpt>
      <trkpt lat="41.8975380" lon="-2.7473830">
        <ele>1130.7</ele>
        <time>2022-01-30T12:40:26Z</time>
      </trkpt>
      <trkpt lat="41.8975470" lon="-2.7474350">
        <ele>1130.7</ele>
        <time>2022-01-30T12:40:27Z</time>
      </trkpt>
      <trkpt lat="41.8975570" lon="-2.7474870">
        <ele>1130.8</ele>
        <time>2022-01-30T12:40:28Z</time>
      </trkpt>
      <trkpt lat="41.8975650" lon="-2.7475430">
        <ele>1130.8</ele>
        <time>2022-01-30T12:40:29Z</time>
      </trkpt>
      <trkpt lat="41.8975680" lon="-2.7475980">
        <ele>1130.9</ele>
        <time>2022-01-30T12:40:30Z</time>
      </trkpt>
      <trkpt lat="41.8975700" lon="-2.7476550">
        <ele>1131.0</ele>
        <time>2022-01-30T12:40:31Z</time>
      </trkpt>
      <trkpt lat="41.8975730" lon="-2.7477120">
        <ele>1131.1</ele>
        <time>2022-01-30T12:40:32Z</time>
      </trkpt>
      <trkpt lat="41.8975780" lon="-2.7477680">
        <ele>1131.2</ele>
        <time>2022-01-30T12:40:33Z</time>
      </trkpt>
      <trkpt lat="41.8975800" lon="-2.7478250">
        <ele>1131.3</ele>
        <time>2022-01-30T12:40:34Z</time>
      </trkpt>
      <trkpt lat="41.8975830" lon="-2.7478770">
        <ele>1131.4</ele>
        <time>2022-01-30T12:40:35Z</time>
      </trkpt>
      <trkpt lat="41.8975820" lon="-2.7479280">
        <ele>1131.5</ele>
        <time>2022-01-30T12:40:36Z</time>
      </trkpt>
      <trkpt lat="41.8975780" lon="-2.7479820">
        <ele>1131.6</ele>
        <time>2022-01-30T12:40:37Z</time>
      </trkpt>
      <trkpt lat="41.8975730" lon="-2.7480350">
        <ele>1131.7</ele>
        <time>2022-01-30T12:40:38Z</time>
      </trkpt>
      <trkpt lat="41.8975670" lon="-2.7480880">
        <ele>1131.8</ele>
        <time>2022-01-30T12:40:39Z</time>
      </trkpt>
      <trkpt lat="41.8975630" lon="-2.7481400">
        <ele>1131.9</ele>
        <time>2022-01-30T12:40:40Z</time>
      </trkpt>
      <trkpt lat="41.8975570" lon="-2.7481920">
        <ele>1132.0</ele>
        <time>2022-01-30T12:40:41Z</time>
      </trkpt>
      <trkpt lat="41.8975500" lon="-2.7482450">
        <ele>1132.1</ele>
        <time>2022-01-30T12:40:42Z</time>
      </trkpt>
      <trkpt lat="41.8975420" lon="-2.7482980">
        <ele>1132.2</ele>
        <time>2022-01-30T12:40:43Z</time>
      </trkpt>
      <trkpt lat="41.8975280" lon="-2.7483480">
        <ele>1132.3</ele>
        <time>2022-01-30T12:40:44Z</time>
      </trkpt>
      <trkpt lat="41.8975180" lon="-2.7483980">
        <ele>1132.4</ele>
        <time>2022-01-30T12:40:45Z</time>
      </trkpt>
      <trkpt lat="41.8975130" lon="-2.7484530">
        <ele>1132.5</ele>
        <time>2022-01-30T12:40:46Z</time>
      </trkpt>
      <trkpt lat="41.8975080" lon="-2.7485100">
        <ele>1132.5</ele>
        <time>2022-01-30T12:40:47Z</time>
      </trkpt>
      <trkpt lat="41.8974980" lon="-2.7485720">
        <ele>1132.6</ele>
        <time>2022-01-30T12:40:48Z</time>
      </trkpt>
      <trkpt lat="41.8974970" lon="-2.7486250">
        <ele>1132.7</ele>
        <time>2022-01-30T12:40:49Z</time>
      </trkpt>
      <trkpt lat="41.8974880" lon="-2.7486770">
        <ele>1132.7</ele>
        <time>2022-01-30T12:40:50Z</time>
      </trkpt>
      <trkpt lat="41.8974780" lon="-2.7487280">
        <ele>1132.7</ele>
        <time>2022-01-30T12:40:51Z</time>
      </trkpt>
      <trkpt lat="41.8974650" lon="-2.7487700">
        <ele>1132.8</ele>
        <time>2022-01-30T12:40:52Z</time>
      </trkpt>
      <trkpt lat="41.8974500" lon="-2.7488180">
        <ele>1132.8</ele>
        <time>2022-01-30T12:40:53Z</time>
      </trkpt>
      <trkpt lat="41.8974350" lon="-2.7488670">
        <ele>1132.9</ele>
        <time>2022-01-30T12:40:54Z</time>
      </trkpt>
      <trkpt lat="41.8974220" lon="-2.7489180">
        <ele>1132.9</ele>
        <time>2022-01-30T12:40:55Z</time>
      </trkpt>
      <trkpt lat="41.8974100" lon="-2.7489700">
        <ele>1132.9</ele>
        <time>2022-01-30T12:40:56Z</time>
      </trkpt>
      <trkpt lat="41.8974000" lon="-2.7490250">
        <ele>1133.0</ele>
        <time>2022-01-30T12:40:57Z</time>
      </trkpt>
      <trkpt lat="41.8973880" lon="-2.7490800">
        <ele>1133.0</ele>
        <time>2022-01-30T12:40:58Z</time>
      </trkpt>
      <trkpt lat="41.8973800" lon="-2.7491370">
        <ele>1133.1</ele>
        <time>2022-01-30T12:40:59Z</time>
      </trkpt>
      <trkpt lat="41.8973720" lon="-2.7491970">
        <ele>1133.2</ele>
        <time>2022-01-30T12:41:00Z</time>
      </trkpt>
      <trkpt lat="41.8973630" lon="-2.7492500">
        <ele>1133.2</ele>
        <time>2022-01-30T12:41:01Z</time>
      </trkpt>
      <trkpt lat="41.8973620" lon="-2.7493100">
        <ele>1133.3</ele>
        <time>2022-01-30T12:41:02Z</time>
      </trkpt>
      <trkpt lat="41.8973570" lon="-2.7493730">
        <ele>1133.4</ele>
        <time>2022-01-30T12:41:03Z</time>
      </trkpt>
      <trkpt lat="41.8973570" lon="-2.7494450">
        <ele>1133.6</ele>
        <time>2022-01-30T12:41:04Z</time>
      </trkpt>
      <trkpt lat="41.8973550" lon="-2.7495220">
        <ele>1133.8</ele>
        <time>2022-01-30T12:41:05Z</time>
      </trkpt>
      <trkpt lat="41.8973530" lon="-2.7495880">
        <ele>1133.9</ele>
        <time>2022-01-30T12:41:06Z</time>
      </trkpt>
      <trkpt lat="41.8973530" lon="-2.7496470">
        <ele>1134.0</ele>
        <time>2022-01-30T12:41:07Z</time>
      </trkpt>
      <trkpt lat="41.8973500" lon="-2.7497070">
        <ele>1134.1</ele>
        <time>2022-01-30T12:41:08Z</time>
      </trkpt>
      <trkpt lat="41.8973500" lon="-2.7497750">
        <ele>1134.3</ele>
        <time>2022-01-30T12:41:09Z</time>
      </trkpt>
      <trkpt lat="41.8973580" lon="-2.7498430">
        <ele>1134.4</ele>
        <time>2022-01-30T12:41:10Z</time>
      </trkpt>
      <trkpt lat="41.8973650" lon="-2.7499080">
        <ele>1134.6</ele>
        <time>2022-01-30T12:41:11Z</time>
      </trkpt>
      <trkpt lat="41.8973730" lon="-2.7499720">
        <ele>1134.8</ele>
        <time>2022-01-30T12:41:12Z</time>
      </trkpt>
      <trkpt lat="41.8973850" lon="-2.7500300">
        <ele>1135.0</ele>
        <time>2022-01-30T12:41:13Z</time>
      </trkpt>
      <trkpt lat="41.8973970" lon="-2.7500880">
        <ele>1135.2</ele>
        <time>2022-01-30T12:41:14Z</time>
      </trkpt>
      <trkpt lat="41.8974080" lon="-2.7501420">
        <ele>1135.4</ele>
        <time>2022-01-30T12:41:15Z</time>
      </trkpt>
      <trkpt lat="41.8974200" lon="-2.7501950">
        <ele>1135.6</ele>
        <time>2022-01-30T12:41:16Z</time>
      </trkpt>
      <trkpt lat="41.8974330" lon="-2.7502500">
        <ele>1135.9</ele>
        <time>2022-01-30T12:41:17Z</time>
      </trkpt>
      <trkpt lat="41.8974530" lon="-2.7503020">
        <ele>1136.1</ele>
        <time>2022-01-30T12:41:18Z</time>
      </trkpt>
      <trkpt lat="41.8974700" lon="-2.7503550">
        <ele>1136.3</ele>
        <time>2022-01-30T12:41:19Z</time>
      </trkpt>
      <trkpt lat="41.8974900" lon="-2.7504100">
        <ele>1136.6</ele>
        <time>2022-01-30T12:41:20Z</time>
      </trkpt>
      <trkpt lat="41.8975050" lon="-2.7504620">
        <ele>1136.8</ele>
        <time>2022-01-30T12:41:21Z</time>
      </trkpt>
      <trkpt lat="41.8975230" lon="-2.7505180">
        <ele>1137.0</ele>
        <time>2022-01-30T12:41:22Z</time>
      </trkpt>
      <trkpt lat="41.8975370" lon="-2.7505670">
        <ele>1137.2</ele>
        <time>2022-01-30T12:41:23Z</time>
      </trkpt>
      <trkpt lat="41.8975480" lon="-2.7506120">
        <ele>1137.3</ele>
        <time>2022-01-30T12:41:24Z</time>
      </trkpt>
      <trkpt lat="41.8975600" lon="-2.7506570">
        <ele>1137.5</ele>
        <time>2022-01-30T12:41:25Z</time>
      </trkpt>
      <trkpt lat="41.8975720" lon="-2.7507080">
        <ele>1137.7</ele>
        <time>2022-01-30T12:41:26Z</time>
      </trkpt>
      <trkpt lat="41.8975900" lon="-2.7507580">
        <ele>1137.9</ele>
        <time>2022-01-30T12:41:27Z</time>
      </trkpt>
      <trkpt lat="41.8976120" lon="-2.7508070">
        <ele>1138.1</ele>
        <time>2022-01-30T12:41:28Z</time>
      </trkpt>
      <trkpt lat="41.8976280" lon="-2.7508670">
        <ele>1138.3</ele>
        <time>2022-01-30T12:41:29Z</time>
      </trkpt>
      <trkpt lat="41.8976370" lon="-2.7509080">
        <ele>1138.4</ele>
        <time>2022-01-30T12:41:30Z</time>
      </trkpt>
      <trkpt lat="41.8976500" lon="-2.7509600">
        <ele>1138.5</ele>
        <time>2022-01-30T12:41:31Z</time>
      </trkpt>
      <trkpt lat="41.8976650" lon="-2.7510080">
        <ele>1138.7</ele>
        <time>2022-01-30T12:41:32Z</time>
      </trkpt>
      <trkpt lat="41.8976650" lon="-2.7510530">
        <ele>1138.8</ele>
        <time>2022-01-30T12:41:33Z</time>
      </trkpt>
      <trkpt lat="41.8976730" lon="-2.7510950">
        <ele>1138.9</ele>
        <time>2022-01-30T12:41:34Z</time>
      </trkpt>
      <trkpt lat="41.8976830" lon="-2.7511370">
        <ele>1139.0</ele>
        <time>2022-01-30T12:41:35Z</time>
      </trkpt>
      <trkpt lat="41.8976930" lon="-2.7511780">
        <ele>1139.1</ele>
        <time>2022-01-30T12:41:36Z</time>
      </trkpt>
      <trkpt lat="41.8976980" lon="-2.7512180">
        <ele>1139.2</ele>
        <time>2022-01-30T12:41:37Z</time>
      </trkpt>
      <trkpt lat="41.8977080" lon="-2.7512570">
        <ele>1139.3</ele>
        <time>2022-01-30T12:41:38Z</time>
      </trkpt>
      <trkpt lat="41.8977150" lon="-2.7512970">
        <ele>1139.3</ele>
        <time>2022-01-30T12:41:39Z</time>
      </trkpt>
      <trkpt lat="41.8977230" lon="-2.7513380">
        <ele>1139.4</ele>
        <time>2022-01-30T12:41:40Z</time>
      </trkpt>
      <trkpt lat="41.8977330" lon="-2.7513780">
        <ele>1139.5</ele>
        <time>2022-01-30T12:41:41Z</time>
      </trkpt>
      <trkpt lat="41.8977400" lon="-2.7514170">
        <ele>1139.6</ele>
        <time>2022-01-30T12:41:42Z</time>
      </trkpt>
      <trkpt lat="41.8977500" lon="-2.7514570">
        <ele>1139.7</ele>
        <time>2022-01-30T12:41:43Z</time>
      </trkpt>
      <trkpt lat="41.8977570" lon="-2.7514930">
        <ele>1139.7</ele>
        <time>2022-01-30T12:41:44Z</time>
      </trkpt>
      <trkpt lat="41.8977670" lon="-2.7515300">
        <ele>1139.8</ele>
        <time>2022-01-30T12:41:45Z</time>
      </trkpt>
      <trkpt lat="41.8977770" lon="-2.7515700">
        <ele>1139.9</ele>
        <time>2022-01-30T12:41:46Z</time>
      </trkpt>
      <trkpt lat="41.8977850" lon="-2.7516100">
        <ele>1140.0</ele>
        <time>2022-01-30T12:41:47Z</time>
      </trkpt>
      <trkpt lat="41.8977930" lon="-2.7516500">
        <ele>1140.0</ele>
        <time>2022-01-30T12:41:48Z</time>
      </trkpt>
      <trkpt lat="41.8978050" lon="-2.7516950">
        <ele>1140.1</ele>
        <time>2022-01-30T12:41:49Z</time>
      </trkpt>
      <trkpt lat="41.8978130" lon="-2.7517400">
        <ele>1140.2</ele>
        <time>2022-01-30T12:41:50Z</time>
      </trkpt>
      <trkpt lat="41.8978270" lon="-2.7517830">
        <ele>1140.3</ele>
        <time>2022-01-30T12:41:51Z</time>
      </trkpt>
      <trkpt lat="41.8978400" lon="-2.7518250">
        <ele>1140.3</ele>
        <time>2022-01-30T12:41:52Z</time>
      </trkpt>
      <trkpt lat="41.8978500" lon="-2.7518700">
        <ele>1140.4</ele>
        <time>2022-01-30T12:41:53Z</time>
      </trkpt>
      <trkpt lat="41.8978600" lon="-2.7519130">
        <ele>1140.4</ele>
        <time>2022-01-30T12:41:54Z</time>
      </trkpt>
      <trkpt lat="41.8978670" lon="-2.7519520">
        <ele>1140.5</ele>
        <time>2022-01-30T12:41:55Z</time>
      </trkpt>
      <trkpt lat="41.8978720" lon="-2.7519870">
        <ele>1140.5</ele>
        <time>2022-01-30T12:41:56Z</time>
      </trkpt>
      <trkpt lat="41.8978820" lon="-2.7520250">
        <ele>1140.6</ele>
        <time>2022-01-30T12:41:57Z</time>
      </trkpt>
      <trkpt lat="41.8978900" lon="-2.7520650">
        <ele>1140.6</ele>
        <time>2022-01-30T12:41:58Z</time>
      </trkpt>
      <trkpt lat="41.8978950" lon="-2.7521000">
        <ele>1140.6</ele>
        <time>2022-01-30T12:41:59Z</time>
      </trkpt>
      <trkpt lat="41.8979030" lon="-2.7521520">
        <ele>1140.7</ele>
        <time>2022-01-30T12:42:00Z</time>
      </trkpt>
      <trkpt lat="41.8979100" lon="-2.7521950">
        <ele>1140.7</ele>
        <time>2022-01-30T12:42:01Z</time>
      </trkpt>
      <trkpt lat="41.8979130" lon="-2.7522350">
        <ele>1140.8</ele>
        <time>2022-01-30T12:42:02Z</time>
      </trkpt>
      <trkpt lat="41.8979180" lon="-2.7522770">
        <ele>1140.8</ele>
        <time>2022-01-30T12:42:03Z</time>
      </trkpt>
      <trkpt lat="41.8979220" lon="-2.7523200">
        <ele>1140.8</ele>
        <time>2022-01-30T12:42:04Z</time>
      </trkpt>
      <trkpt lat="41.8979280" lon="-2.7523650">
        <ele>1140.9</ele>
        <time>2022-01-30T12:42:05Z</time>
      </trkpt>
      <trkpt lat="41.8979270" lon="-2.7524100">
        <ele>1140.9</ele>
        <time>2022-01-30T12:42:06Z</time>
      </trkpt>
      <trkpt lat="41.8979270" lon="-2.7524570">
        <ele>1140.9</ele>
        <time>2022-01-30T12:42:07Z</time>
      </trkpt>
      <trkpt lat="41.8979250" lon="-2.7525020">
        <ele>1140.9</ele>
        <time>2022-01-30T12:42:08Z</time>
      </trkpt>
      <trkpt lat="41.8979170" lon="-2.7525450">
        <ele>1141.0</ele>
        <time>2022-01-30T12:42:09Z</time>
      </trkpt>
      <trkpt lat="41.8979100" lon="-2.7525920">
        <ele>1141.0</ele>
        <time>2022-01-30T12:42:10Z</time>
      </trkpt>
      <trkpt lat="41.8979030" lon="-2.7526400">
        <ele>1141.0</ele>
        <time>2022-01-30T12:42:11Z</time>
      </trkpt>
      <trkpt lat="41.8978930" lon="-2.7526870">
        <ele>1141.0</ele>
        <time>2022-01-30T12:42:12Z</time>
      </trkpt>
      <trkpt lat="41.8978830" lon="-2.7527370">
        <ele>1141.1</ele>
        <time>2022-01-30T12:42:13Z</time>
      </trkpt>
      <trkpt lat="41.8978720" lon="-2.7527870">
        <ele>1141.1</ele>
        <time>2022-01-30T12:42:14Z</time>
      </trkpt>
      <trkpt lat="41.8978620" lon="-2.7528320">
        <ele>1141.1</ele>
        <time>2022-01-30T12:42:15Z</time>
      </trkpt>
      <trkpt lat="41.8978450" lon="-2.7528780">
        <ele>1141.1</ele>
        <time>2022-01-30T12:42:16Z</time>
      </trkpt>
      <trkpt lat="41.8978280" lon="-2.7529170">
        <ele>1141.1</ele>
        <time>2022-01-30T12:42:17Z</time>
      </trkpt>
      <trkpt lat="41.8978170" lon="-2.7529670">
        <ele>1141.1</ele>
        <time>2022-01-30T12:42:18Z</time>
      </trkpt>
      <trkpt lat="41.8978100" lon="-2.7530080">
        <ele>1141.1</ele>
        <time>2022-01-30T12:42:19Z</time>
      </trkpt>
      <trkpt lat="41.8977980" lon="-2.7530580">
        <ele>1141.0</ele>
        <time>2022-01-30T12:42:20Z</time>
      </trkpt>
      <trkpt lat="41.8977870" lon="-2.7531080">
        <ele>1141.0</ele>
        <time>2022-01-30T12:42:21Z</time>
      </trkpt>
      <trkpt lat="41.8977750" lon="-2.7531630">
        <ele>1140.9</ele>
        <time>2022-01-30T12:42:22Z</time>
      </trkpt>
      <trkpt lat="41.8977650" lon="-2.7532170">
        <ele>1140.8</ele>
        <time>2022-01-30T12:42:23Z</time>
      </trkpt>
      <trkpt lat="41.8977530" lon="-2.7532680">
        <ele>1140.6</ele>
        <time>2022-01-30T12:42:24Z</time>
      </trkpt>
      <trkpt lat="41.8977450" lon="-2.7533220">
        <ele>1140.4</ele>
        <time>2022-01-30T12:42:25Z</time>
      </trkpt>
      <trkpt lat="41.8977330" lon="-2.7533720">
        <ele>1140.3</ele>
        <time>2022-01-30T12:42:26Z</time>
      </trkpt>
      <trkpt lat="41.8977220" lon="-2.7534230">
        <ele>1140.1</ele>
        <time>2022-01-30T12:42:27Z</time>
      </trkpt>
      <trkpt lat="41.8977070" lon="-2.7534770">
        <ele>1139.8</ele>
        <time>2022-01-30T12:42:28Z</time>
      </trkpt>
      <trkpt lat="41.8976920" lon="-2.7535280">
        <ele>1139.6</ele>
        <time>2022-01-30T12:42:29Z</time>
      </trkpt>
      <trkpt lat="41.8976750" lon="-2.7535800">
        <ele>1139.3</ele>
        <time>2022-01-30T12:42:30Z</time>
      </trkpt>
      <trkpt lat="41.8976580" lon="-2.7536300">
        <ele>1139.0</ele>
        <time>2022-01-30T12:42:31Z</time>
      </trkpt>
      <trkpt lat="41.8976400" lon="-2.7536830">
        <ele>1138.7</ele>
        <time>2022-01-30T12:42:32Z</time>
      </trkpt>
      <trkpt lat="41.8976220" lon="-2.7537330">
        <ele>1138.3</ele>
        <time>2022-01-30T12:42:33Z</time>
      </trkpt>
      <trkpt lat="41.8976070" lon="-2.7537830">
        <ele>1138.0</ele>
        <time>2022-01-30T12:42:34Z</time>
      </trkpt>
      <trkpt lat="41.8975900" lon="-2.7538270">
        <ele>1137.7</ele>
        <time>2022-01-30T12:42:35Z</time>
      </trkpt>
      <trkpt lat="41.8975780" lon="-2.7538670">
        <ele>1137.4</ele>
        <time>2022-01-30T12:42:36Z</time>
      </trkpt>
      <trkpt lat="41.8975750" lon="-2.7539020">
        <ele>1137.2</ele>
        <time>2022-01-30T12:42:37Z</time>
      </trkpt>
      <trkpt lat="41.8975750" lon="-2.7539330">
        <ele>1137.0</ele>
        <time>2022-01-30T12:42:38Z</time>
      </trkpt>
      <trkpt lat="41.8975830" lon="-2.7539650">
        <ele>1136.8</ele>
        <time>2022-01-30T12:42:39Z</time>
      </trkpt>
      <trkpt lat="41.8975870" lon="-2.7539920">
        <ele>1136.6</ele>
        <time>2022-01-30T12:42:40Z</time>
      </trkpt>
      <trkpt lat="41.8975880" lon="-2.7540270">
        <ele>1136.4</ele>
        <time>2022-01-30T12:42:41Z</time>
      </trkpt>
      <trkpt lat="41.8975900" lon="-2.7540630">
        <ele>1136.1</ele>
        <time>2022-01-30T12:42:42Z</time>
      </trkpt>
      <trkpt lat="41.8975880" lon="-2.7541030">
        <ele>1135.8</ele>
        <time>2022-01-30T12:42:43Z</time>
      </trkpt>
      <trkpt lat="41.8975780" lon="-2.7541420">
        <ele>1135.5</ele>
        <time>2022-01-30T12:42:44Z</time>
      </trkpt>
      <trkpt lat="41.8975680" lon="-2.7541800">
        <ele>1135.2</ele>
        <time>2022-01-30T12:42:45Z</time>
      </trkpt>
      <trkpt lat="41.8975570" lon="-2.7542170">
        <ele>1134.9</ele>
        <time>2022-01-30T12:42:46Z</time>
      </trkpt>
      <trkpt lat="41.8975470" lon="-2.7542580">
        <ele>1134.6</ele>
        <time>2022-01-30T12:42:47Z</time>
      </trkpt>
      <trkpt lat="41.8975320" lon="-2.7543020">
        <ele>1134.2</ele>
        <time>2022-01-30T12:42:48Z</time>
      </trkpt>
      <trkpt lat="41.8975130" lon="-2.7543420">
        <ele>1133.8</ele>
        <time>2022-01-30T12:42:49Z</time>
      </trkpt>
      <trkpt lat="41.8974970" lon="-2.7543880">
        <ele>1133.5</ele>
        <time>2022-01-30T12:42:50Z</time>
      </trkpt>
      <trkpt lat="41.8974730" lon="-2.7544330">
        <ele>1133.1</ele>
        <time>2022-01-30T12:42:51Z</time>
      </trkpt>
      <trkpt lat="41.8974520" lon="-2.7544820">
        <ele>1132.7</ele>
        <time>2022-01-30T12:42:52Z</time>
      </trkpt>
      <trkpt lat="41.8974300" lon="-2.7545270">
        <ele>1132.3</ele>
        <time>2022-01-30T12:42:53Z</time>
      </trkpt>
      <trkpt lat="41.8974130" lon="-2.7545830">
        <ele>1131.9</ele>
        <time>2022-01-30T12:42:54Z</time>
      </trkpt>
      <trkpt lat="41.8973980" lon="-2.7546400">
        <ele>1131.4</ele>
        <time>2022-01-30T12:42:55Z</time>
      </trkpt>
      <trkpt lat="41.8973820" lon="-2.7546930">
        <ele>1131.0</ele>
        <time>2022-01-30T12:42:56Z</time>
      </trkpt>
      <trkpt lat="41.8973680" lon="-2.7547730">
        <ele>1130.4</ele>
        <time>2022-01-30T12:42:57Z</time>
      </trkpt>
      <trkpt lat="41.8973450" lon="-2.7548430">
        <ele>1129.8</ele>
        <time>2022-01-30T12:42:58Z</time>
      </trkpt>
      <trkpt lat="41.8973180" lon="-2.7549070">
        <ele>1129.3</ele>
        <time>2022-01-30T12:42:59Z</time>
      </trkpt>
      <trkpt lat="41.8972900" lon="-2.7549700">
        <ele>1128.7</ele>
        <time>2022-01-30T12:43:00Z</time>
      </trkpt>
      <trkpt lat="41.8972650" lon="-2.7550250">
        <ele>1128.3</ele>
        <time>2022-01-30T12:43:01Z</time>
      </trkpt>
      <trkpt lat="41.8972380" lon="-2.7550750">
        <ele>1127.9</ele>
        <time>2022-01-30T12:43:02Z</time>
      </trkpt>
      <trkpt lat="41.8972150" lon="-2.7551200">
        <ele>1127.5</ele>
        <time>2022-01-30T12:43:03Z</time>
      </trkpt>
      <trkpt lat="41.8971950" lon="-2.7551700">
        <ele>1127.2</ele>
        <time>2022-01-30T12:43:04Z</time>
      </trkpt>
      <trkpt lat="41.8971780" lon="-2.7552150">
        <ele>1126.8</ele>
        <time>2022-01-30T12:43:05Z</time>
      </trkpt>
      <trkpt lat="41.8971700" lon="-2.7552620">
        <ele>1126.5</ele>
        <time>2022-01-30T12:43:06Z</time>
      </trkpt>
      <trkpt lat="41.8971730" lon="-2.7553050">
        <ele>1126.3</ele>
        <time>2022-01-30T12:43:07Z</time>
      </trkpt>
      <trkpt lat="41.8971920" lon="-2.7553480">
        <ele>1126.0</ele>
        <time>2022-01-30T12:43:08Z</time>
      </trkpt>
      <trkpt lat="41.8972020" lon="-2.7553800">
        <ele>1125.7</ele>
        <time>2022-01-30T12:43:09Z</time>
      </trkpt>
      <trkpt lat="41.8972300" lon="-2.7554170">
        <ele>1125.4</ele>
        <time>2022-01-30T12:43:10Z</time>
      </trkpt>
      <trkpt lat="41.8972520" lon="-2.7554600">
        <ele>1125.1</ele>
        <time>2022-01-30T12:43:11Z</time>
      </trkpt>
      <trkpt lat="41.8972680" lon="-2.7555000">
        <ele>1124.8</ele>
        <time>2022-01-30T12:43:12Z</time>
      </trkpt>
      <trkpt lat="41.8972680" lon="-2.7555320">
        <ele>1124.6</ele>
        <time>2022-01-30T12:43:13Z</time>
      </trkpt>
      <trkpt lat="41.8972680" lon="-2.7555580">
        <ele>1124.4</ele>
        <time>2022-01-30T12:43:14Z</time>
      </trkpt>
      <trkpt lat="41.8972700" lon="-2.7555820">
        <ele>1124.3</ele>
        <time>2022-01-30T12:43:15Z</time>
      </trkpt>
      <trkpt lat="41.8972680" lon="-2.7556030">
        <ele>1124.1</ele>
        <time>2022-01-30T12:43:16Z</time>
      </trkpt>
      <trkpt lat="41.8972730" lon="-2.7556320">
        <ele>1123.9</ele>
        <time>2022-01-30T12:43:17Z</time>
      </trkpt>
      <trkpt lat="41.8972850" lon="-2.7556630">
        <ele>1123.7</ele>
        <time>2022-01-30T12:43:18Z</time>
      </trkpt>
      <trkpt lat="41.8972930" lon="-2.7556880">
        <ele>1123.5</ele>
        <time>2022-01-30T12:43:19Z</time>
      </trkpt>
      <trkpt lat="41.8973020" lon="-2.7557130">
        <ele>1123.3</ele>
        <time>2022-01-30T12:43:20Z</time>
      </trkpt>
      <trkpt lat="41.8973070" lon="-2.7557330">
        <ele>1123.2</ele>
        <time>2022-01-30T12:43:21Z</time>
      </trkpt>
      <trkpt lat="41.8973080" lon="-2.7557550">
        <ele>1123.0</ele>
        <time>2022-01-30T12:43:22Z</time>
      </trkpt>
      <trkpt lat="41.8973130" lon="-2.7557750">
        <ele>1122.9</ele>
        <time>2022-01-30T12:43:23Z</time>
      </trkpt>
      <trkpt lat="41.8973300" lon="-2.7557980">
        <ele>1122.6</ele>
        <time>2022-01-30T12:43:24Z</time>
      </trkpt>
      <trkpt lat="41.8973530" lon="-2.7558230">
        <ele>1122.3</ele>
        <time>2022-01-30T12:43:25Z</time>
      </trkpt>
      <trkpt lat="41.8973750" lon="-2.7558550">
        <ele>1122.0</ele>
        <time>2022-01-30T12:43:26Z</time>
      </trkpt>
      <trkpt lat="41.8973900" lon="-2.7558870">
        <ele>1121.7</ele>
        <time>2022-01-30T12:43:27Z</time>
      </trkpt>
      <trkpt lat="41.8974020" lon="-2.7559170">
        <ele>1121.5</ele>
        <time>2022-01-30T12:43:28Z</time>
      </trkpt>
      <trkpt lat="41.8974200" lon="-2.7559550">
        <ele>1121.2</ele>
        <time>2022-01-30T12:43:29Z</time>
      </trkpt>
      <trkpt lat="41.8974400" lon="-2.7559880">
        <ele>1120.9</ele>
        <time>2022-01-30T12:43:30Z</time>
      </trkpt>
      <trkpt lat="41.8974630" lon="-2.7560150">
        <ele>1120.6</ele>
        <time>2022-01-30T12:43:31Z</time>
      </trkpt>
      <trkpt lat="41.8974920" lon="-2.7560400">
        <ele>1120.3</ele>
        <time>2022-01-30T12:43:32Z</time>
      </trkpt>
      <trkpt lat="41.8975170" lon="-2.7560730">
        <ele>1120.0</ele>
        <time>2022-01-30T12:43:33Z</time>
      </trkpt>
      <trkpt lat="41.8975580" lon="-2.7561100">
        <ele>1119.6</ele>
        <time>2022-01-30T12:43:34Z</time>
      </trkpt>
      <trkpt lat="41.8976000" lon="-2.7561500">
        <ele>1119.1</ele>
        <time>2022-01-30T12:43:35Z</time>
      </trkpt>
      <trkpt lat="41.8976380" lon="-2.7561750">
        <ele>1118.8</ele>
        <time>2022-01-30T12:43:36Z</time>
      </trkpt>
      <trkpt lat="41.8976720" lon="-2.7561930">
        <ele>1118.4</ele>
        <time>2022-01-30T12:43:37Z</time>
      </trkpt>
      <trkpt lat="41.8977050" lon="-2.7562120">
        <ele>1118.1</ele>
        <time>2022-01-30T12:43:38Z</time>
      </trkpt>
      <trkpt lat="41.8977370" lon="-2.7562330">
        <ele>1117.8</ele>
        <time>2022-01-30T12:43:39Z</time>
      </trkpt>
      <trkpt lat="41.8977700" lon="-2.7562600">
        <ele>1117.5</ele>
        <time>2022-01-30T12:43:40Z</time>
      </trkpt>
      <trkpt lat="41.8978080" lon="-2.7562880">
        <ele>1117.1</ele>
        <time>2022-01-30T12:43:41Z</time>
      </trkpt>
      <trkpt lat="41.8978450" lon="-2.7563150">
        <ele>1116.8</ele>
        <time>2022-01-30T12:43:42Z</time>
      </trkpt>
      <trkpt lat="41.8978830" lon="-2.7563400">
        <ele>1116.4</ele>
        <time>2022-01-30T12:43:43Z</time>
      </trkpt>
      <trkpt lat="41.8979270" lon="-2.7563680">
        <ele>1116.0</ele>
        <time>2022-01-30T12:43:44Z</time>
      </trkpt>
      <trkpt lat="41.8979700" lon="-2.7563920">
        <ele>1115.6</ele>
        <time>2022-01-30T12:43:45Z</time>
      </trkpt>
      <trkpt lat="41.8980120" lon="-2.7564200">
        <ele>1115.2</ele>
        <time>2022-01-30T12:43:46Z</time>
      </trkpt>
      <trkpt lat="41.8980600" lon="-2.7564550">
        <ele>1114.7</ele>
        <time>2022-01-30T12:43:47Z</time>
      </trkpt>
      <trkpt lat="41.8981170" lon="-2.7564970">
        <ele>1114.1</ele>
        <time>2022-01-30T12:43:48Z</time>
      </trkpt>
      <trkpt lat="41.8981770" lon="-2.7565570">
        <ele>1113.5</ele>
        <time>2022-01-30T12:43:49Z</time>
      </trkpt>
      <trkpt lat="41.8982280" lon="-2.7566070">
        <ele>1112.9</ele>
        <time>2022-01-30T12:43:50Z</time>
      </trkpt>
      <trkpt lat="41.8982770" lon="-2.7566620">
        <ele>1112.3</ele>
        <time>2022-01-30T12:43:51Z</time>
      </trkpt>
      <trkpt lat="41.8983250" lon="-2.7567030">
        <ele>1111.8</ele>
        <time>2022-01-30T12:43:52Z</time>
      </trkpt>
      <trkpt lat="41.8983820" lon="-2.7567500">
        <ele>1111.1</ele>
        <time>2022-01-30T12:43:53Z</time>
      </trkpt>
      <trkpt lat="41.8984230" lon="-2.7567980">
        <ele>1110.6</ele>
        <time>2022-01-30T12:43:54Z</time>
      </trkpt>
      <trkpt lat="41.8984570" lon="-2.7568600">
        <ele>1110.0</ele>
        <time>2022-01-30T12:43:55Z</time>
      </trkpt>
      <trkpt lat="41.8984870" lon="-2.7569230">
        <ele>1109.5</ele>
        <time>2022-01-30T12:43:56Z</time>
      </trkpt>
      <trkpt lat="41.8985350" lon="-2.7569830">
        <ele>1108.9</ele>
        <time>2022-01-30T12:43:57Z</time>
      </trkpt>
      <trkpt lat="41.8985680" lon="-2.7570620">
        <ele>1108.2</ele>
        <time>2022-01-30T12:43:58Z</time>
      </trkpt>
      <trkpt lat="41.8985950" lon="-2.7571530">
        <ele>1107.4</ele>
        <time>2022-01-30T12:43:59Z</time>
      </trkpt>
      <trkpt lat="41.8986230" lon="-2.7572380">
        <ele>1106.7</ele>
        <time>2022-01-30T12:44:00Z</time>
      </trkpt>
      <trkpt lat="41.8986530" lon="-2.7573180">
        <ele>1106.0</ele>
        <time>2022-01-30T12:44:01Z</time>
      </trkpt>
      <trkpt lat="41.8986950" lon="-2.7574080">
        <ele>1105.1</ele>
        <time>2022-01-30T12:44:02Z</time>
      </trkpt>
      <trkpt lat="41.8987330" lon="-2.7575020">
        <ele>1104.3</ele>
        <time>2022-01-30T12:44:03Z</time>
      </trkpt>
      <trkpt lat="41.8987600" lon="-2.7575920">
        <ele>1103.6</ele>
        <time>2022-01-30T12:44:04Z</time>
      </trkpt>
      <trkpt lat="41.8987850" lon="-2.7576820">
        <ele>1102.9</ele>
        <time>2022-01-30T12:44:05Z</time>
      </trkpt>
      <trkpt lat="41.8988170" lon="-2.7577670">
        <ele>1102.2</ele>
        <time>2022-01-30T12:44:06Z</time>
      </trkpt>
      <trkpt lat="41.8988350" lon="-2.7578630">
        <ele>1101.5</ele>
        <time>2022-01-30T12:44:07Z</time>
      </trkpt>
      <trkpt lat="41.8988480" lon="-2.7579570">
        <ele>1100.8</ele>
        <time>2022-01-30T12:44:08Z</time>
      </trkpt>
      <trkpt lat="41.8988780" lon="-2.7580420">
        <ele>1100.1</ele>
        <time>2022-01-30T12:44:09Z</time>
      </trkpt>
      <trkpt lat="41.8989050" lon="-2.7581270">
        <ele>1099.5</ele>
        <time>2022-01-30T12:44:10Z</time>
      </trkpt>
      <trkpt lat="41.8989300" lon="-2.7582220">
        <ele>1098.8</ele>
        <time>2022-01-30T12:44:11Z</time>
      </trkpt>
      <trkpt lat="41.8989530" lon="-2.7583220">
        <ele>1098.1</ele>
        <time>2022-01-30T12:44:12Z</time>
      </trkpt>
      <trkpt lat="41.8989730" lon="-2.7584320">
        <ele>1097.4</ele>
        <time>2022-01-30T12:44:13Z</time>
      </trkpt>
      <trkpt lat="41.8989800" lon="-2.7585420">
        <ele>1096.7</ele>
        <time>2022-01-30T12:44:14Z</time>
      </trkpt>
      <trkpt lat="41.8989830" lon="-2.7586480">
        <ele>1096.1</ele>
        <time>2022-01-30T12:44:15Z</time>
      </trkpt>
      <trkpt lat="41.8989850" lon="-2.7587530">
        <ele>1095.4</ele>
        <time>2022-01-30T12:44:16Z</time>
      </trkpt>
      <trkpt lat="41.8989820" lon="-2.7588500">
        <ele>1094.8</ele>
        <time>2022-01-30T12:44:17Z</time>
      </trkpt>
      <trkpt lat="41.8989750" lon="-2.7589500">
        <ele>1094.2</ele>
        <time>2022-01-30T12:44:18Z</time>
      </trkpt>
      <trkpt lat="41.8989600" lon="-2.7590500">
        <ele>1093.5</ele>
        <time>2022-01-30T12:44:19Z</time>
      </trkpt>
      <trkpt lat="41.8989520" lon="-2.7591300">
        <ele>1093.1</ele>
        <time>2022-01-30T12:44:20Z</time>
      </trkpt>
      <trkpt lat="41.8989480" lon="-2.7592100">
        <ele>1092.6</ele>
        <time>2022-01-30T12:44:21Z</time>
      </trkpt>
      <trkpt lat="41.8989470" lon="-2.7592830">
        <ele>1092.2</ele>
        <time>2022-01-30T12:44:22Z</time>
      </trkpt>
      <trkpt lat="41.8989470" lon="-2.7593550">
        <ele>1091.8</ele>
        <time>2022-01-30T12:44:23Z</time>
      </trkpt>
      <trkpt lat="41.8989500" lon="-2.7594300">
        <ele>1091.4</ele>
        <time>2022-01-30T12:44:24Z</time>
      </trkpt>
      <trkpt lat="41.8989600" lon="-2.7595030">
        <ele>1090.9</ele>
        <time>2022-01-30T12:44:25Z</time>
      </trkpt>
      <trkpt lat="41.8989870" lon="-2.7595530">
        <ele>1090.6</ele>
        <time>2022-01-30T12:44:26Z</time>
      </trkpt>
      <trkpt lat="41.8990030" lon="-2.7596220">
        <ele>1090.2</ele>
        <time>2022-01-30T12:44:27Z</time>
      </trkpt>
      <trkpt lat="41.8990080" lon="-2.7596770">
        <ele>1089.9</ele>
        <time>2022-01-30T12:44:28Z</time>
      </trkpt>
      <trkpt lat="41.8990130" lon="-2.7597180">
        <ele>1089.9</ele>
        <time>2022-01-30T12:44:29Z</time>
      </trkpt>
      <trkpt lat="41.8990180" lon="-2.7597700">
        <ele>1090.0</ele>
        <time>2022-01-30T12:44:30Z</time>
      </trkpt>
      <trkpt lat="41.8990120" lon="-2.7598430">
        <ele>1090.2</ele>
        <time>2022-01-30T12:44:31Z</time>
      </trkpt>
      <trkpt lat="41.8990020" lon="-2.7599050">
        <ele>1090.3</ele>
        <time>2022-01-30T12:44:32Z</time>
      </trkpt>
      <trkpt lat="41.8989820" lon="-2.7599600">
        <ele>1090.4</ele>
        <time>2022-01-30T12:44:33Z</time>
      </trkpt>
      <trkpt lat="41.8989530" lon="-2.7600080">
        <ele>1090.6</ele>
        <time>2022-01-30T12:44:34Z</time>
      </trkpt>
      <trkpt lat="41.8989230" lon="-2.7600500">
        <ele>1090.7</ele>
        <time>2022-01-30T12:44:35Z</time>
      </trkpt>
      <trkpt lat="41.8988900" lon="-2.7600880">
        <ele>1090.9</ele>
        <time>2022-01-30T12:44:36Z</time>
      </trkpt>
      <trkpt lat="41.8988570" lon="-2.7601220">
        <ele>1091.1</ele>
        <time>2022-01-30T12:44:37Z</time>
      </trkpt>
      <trkpt lat="41.8988270" lon="-2.7601520">
        <ele>1091.2</ele>
        <time>2022-01-30T12:44:38Z</time>
      </trkpt>
      <trkpt lat="41.8987980" lon="-2.7601800">
        <ele>1091.4</ele>
        <time>2022-01-30T12:44:39Z</time>
      </trkpt>
      <trkpt lat="41.8987650" lon="-2.7602050">
        <ele>1091.6</ele>
        <time>2022-01-30T12:44:40Z</time>
      </trkpt>
      <trkpt lat="41.8987320" lon="-2.7602330">
        <ele>1091.8</ele>
        <time>2022-01-30T12:44:41Z</time>
      </trkpt>
      <trkpt lat="41.8987020" lon="-2.7602670">
        <ele>1092.0</ele>
        <time>2022-01-30T12:44:42Z</time>
      </trkpt>
      <trkpt lat="41.8986750" lon="-2.7602880">
        <ele>1092.1</ele>
        <time>2022-01-30T12:44:43Z</time>
      </trkpt>
      <trkpt lat="41.8986500" lon="-2.7603150">
        <ele>1092.3</ele>
        <time>2022-01-30T12:44:44Z</time>
      </trkpt>
      <trkpt lat="41.8986250" lon="-2.7603420">
        <ele>1092.4</ele>
        <time>2022-01-30T12:44:45Z</time>
      </trkpt>
      <trkpt lat="41.8985970" lon="-2.7603680">
        <ele>1092.6</ele>
        <time>2022-01-30T12:44:46Z</time>
      </trkpt>
      <trkpt lat="41.8985720" lon="-2.7603900">
        <ele>1092.8</ele>
        <time>2022-01-30T12:44:47Z</time>
      </trkpt>
      <trkpt lat="41.8985480" lon="-2.7604120">
        <ele>1093.0</ele>
        <time>2022-01-30T12:44:48Z</time>
      </trkpt>
      <trkpt lat="41.8985230" lon="-2.7604430">
        <ele>1093.2</ele>
        <time>2022-01-30T12:44:49Z</time>
      </trkpt>
      <trkpt lat="41.8984970" lon="-2.7604680">
        <ele>1093.4</ele>
        <time>2022-01-30T12:44:50Z</time>
      </trkpt>
      <trkpt lat="41.8984720" lon="-2.7604920">
        <ele>1093.6</ele>
        <time>2022-01-30T12:44:51Z</time>
      </trkpt>
      <trkpt lat="41.8984480" lon="-2.7605150">
        <ele>1093.8</ele>
        <time>2022-01-30T12:44:52Z</time>
      </trkpt>
      <trkpt lat="41.8984270" lon="-2.7605450">
        <ele>1094.0</ele>
        <time>2022-01-30T12:44:53Z</time>
      </trkpt>
      <trkpt lat="41.8984030" lon="-2.7605720">
        <ele>1094.3</ele>
        <time>2022-01-30T12:44:54Z</time>
      </trkpt>
      <trkpt lat="41.8983770" lon="-2.7605970">
        <ele>1094.5</ele>
        <time>2022-01-30T12:44:55Z</time>
      </trkpt>
      <trkpt lat="41.8983530" lon="-2.7606180">
        <ele>1094.8</ele>
        <time>2022-01-30T12:44:56Z</time>
      </trkpt>
      <trkpt lat="41.8983320" lon="-2.7606420">
        <ele>1095.0</ele>
        <time>2022-01-30T12:44:57Z</time>
      </trkpt>
      <trkpt lat="41.8983120" lon="-2.7606650">
        <ele>1095.3</ele>
        <time>2022-01-30T12:44:58Z</time>
      </trkpt>
      <trkpt lat="41.8982880" lon="-2.7606920">
        <ele>1095.6</ele>
        <time>2022-01-30T12:44:59Z</time>
      </trkpt>
      <trkpt lat="41.8982630" lon="-2.7607130">
        <ele>1095.8</ele>
        <time>2022-01-30T12:45:00Z</time>
      </trkpt>
      <trkpt lat="41.8982350" lon="-2.7607350">
        <ele>1096.2</ele>
        <time>2022-01-30T12:45:01Z</time>
      </trkpt>
      <trkpt lat="41.8982080" lon="-2.7607550">
        <ele>1096.5</ele>
        <time>2022-01-30T12:45:02Z</time>
      </trkpt>
      <trkpt lat="41.8981850" lon="-2.7607730">
        <ele>1096.7</ele>
        <time>2022-01-30T12:45:03Z</time>
      </trkpt>
      <trkpt lat="41.8981630" lon="-2.7607920">
        <ele>1097.0</ele>
        <time>2022-01-30T12:45:04Z</time>
      </trkpt>
      <trkpt lat="41.8981470" lon="-2.7608150">
        <ele>1097.3</ele>
        <time>2022-01-30T12:45:05Z</time>
      </trkpt>
      <trkpt lat="41.8981280" lon="-2.7608430">
        <ele>1097.6</ele>
        <time>2022-01-30T12:45:06Z</time>
      </trkpt>
      <trkpt lat="41.8981170" lon="-2.7608780">
        <ele>1097.9</ele>
        <time>2022-01-30T12:45:07Z</time>
      </trkpt>
      <trkpt lat="41.8981150" lon="-2.7609230">
        <ele>1098.3</ele>
        <time>2022-01-30T12:45:08Z</time>
      </trkpt>
      <trkpt lat="41.8981220" lon="-2.7609720">
        <ele>1098.7</ele>
        <time>2022-01-30T12:45:09Z</time>
      </trkpt>
      <trkpt lat="41.8981320" lon="-2.7610300">
        <ele>1099.2</ele>
        <time>2022-01-30T12:45:10Z</time>
      </trkpt>
      <trkpt lat="41.8981330" lon="-2.7610800">
        <ele>1099.6</ele>
        <time>2022-01-30T12:45:11Z</time>
      </trkpt>
      <trkpt lat="41.8981370" lon="-2.7611270">
        <ele>1100.0</ele>
        <time>2022-01-30T12:45:12Z</time>
      </trkpt>
      <trkpt lat="41.8981400" lon="-2.7611720">
        <ele>1100.3</ele>
        <time>2022-01-30T12:45:13Z</time>
      </trkpt>
      <trkpt lat="41.8981370" lon="-2.7612220">
        <ele>1100.7</ele>
        <time>2022-01-30T12:45:14Z</time>
      </trkpt>
      <trkpt lat="41.8981180" lon="-2.7612680">
        <ele>1102.2</ele>
        <time>2022-01-30T12:45:15Z</time>
      </trkpt>
      <trkpt lat="41.8980980" lon="-2.7613180">
        <ele>1102.4</ele>
        <time>2022-01-30T12:45:16Z</time>
      </trkpt>
      <trkpt lat="41.8980750" lon="-2.7613630">
        <ele>1102.5</ele>
        <time>2022-01-30T12:45:17Z</time>
      </trkpt>
      <trkpt lat="41.8980630" lon="-2.7614120">
        <ele>1102.6</ele>
        <time>2022-01-30T12:45:18Z</time>
      </trkpt>
      <trkpt lat="41.8980550" lon="-2.7614620">
        <ele>1102.6</ele>
        <time>2022-01-30T12:45:19Z</time>
      </trkpt>
      <trkpt lat="41.8980470" lon="-2.7615030">
        <ele>1102.7</ele>
        <time>2022-01-30T12:45:20Z</time>
      </trkpt>
      <trkpt lat="41.8980370" lon="-2.7615520">
        <ele>1102.7</ele>
        <time>2022-01-30T12:45:21Z</time>
      </trkpt>
      <trkpt lat="41.8980220" lon="-2.7615950">
        <ele>1102.7</ele>
        <time>2022-01-30T12:45:22Z</time>
      </trkpt>
      <trkpt lat="41.8980020" lon="-2.7616380">
        <ele>1102.7</ele>
        <time>2022-01-30T12:45:23Z</time>
      </trkpt>
      <trkpt lat="41.8979820" lon="-2.7616670">
        <ele>1102.7</ele>
        <time>2022-01-30T12:45:24Z</time>
      </trkpt>
      <trkpt lat="41.8979670" lon="-2.7616900">
        <ele>1102.7</ele>
        <time>2022-01-30T12:45:25Z</time>
      </trkpt>
      <trkpt lat="41.8979520" lon="-2.7617300">
        <ele>1102.7</ele>
        <time>2022-01-30T12:45:26Z</time>
      </trkpt>
      <trkpt lat="41.8979420" lon="-2.7617680">
        <ele>1102.6</ele>
        <time>2022-01-30T12:45:27Z</time>
      </trkpt>
      <trkpt lat="41.8979350" lon="-2.7618080">
        <ele>1102.6</ele>
        <time>2022-01-30T12:45:28Z</time>
      </trkpt>
      <trkpt lat="41.8979320" lon="-2.7618580">
        <ele>1102.5</ele>
        <time>2022-01-30T12:45:29Z</time>
      </trkpt>
      <trkpt lat="41.8979270" lon="-2.7619200">
        <ele>1102.3</ele>
        <time>2022-01-30T12:45:30Z</time>
      </trkpt>
      <trkpt lat="41.8979150" lon="-2.7619830">
        <ele>1102.1</ele>
        <time>2022-01-30T12:45:31Z</time>
      </trkpt>
      <trkpt lat="41.8978920" lon="-2.7620650">
        <ele>1101.8</ele>
        <time>2022-01-30T12:45:32Z</time>
      </trkpt>
      <trkpt lat="41.8978720" lon="-2.7621430">
        <ele>1101.5</ele>
        <time>2022-01-30T12:45:33Z</time>
      </trkpt>
      <trkpt lat="41.8978480" lon="-2.7622220">
        <ele>1101.2</ele>
        <time>2022-01-30T12:45:34Z</time>
      </trkpt>
      <trkpt lat="41.8978250" lon="-2.7622950">
        <ele>1101.0</ele>
        <time>2022-01-30T12:45:35Z</time>
      </trkpt>
      <trkpt lat="41.8978050" lon="-2.7623700">
        <ele>1100.7</ele>
        <time>2022-01-30T12:45:36Z</time>
      </trkpt>
      <trkpt lat="41.8977830" lon="-2.7624470">
        <ele>1100.4</ele>
        <time>2022-01-30T12:45:37Z</time>
      </trkpt>
      <trkpt lat="41.8977620" lon="-2.7625270">
        <ele>1100.1</ele>
        <time>2022-01-30T12:45:38Z</time>
      </trkpt>
      <trkpt lat="41.8977420" lon="-2.7625970">
        <ele>1099.8</ele>
        <time>2022-01-30T12:45:39Z</time>
      </trkpt>
      <trkpt lat="41.8977170" lon="-2.7626780">
        <ele>1099.5</ele>
        <time>2022-01-30T12:45:40Z</time>
      </trkpt>
      <trkpt lat="41.8976880" lon="-2.7627530">
        <ele>1099.2</ele>
        <time>2022-01-30T12:45:41Z</time>
      </trkpt>
      <trkpt lat="41.8976700" lon="-2.7628230">
        <ele>1098.9</ele>
        <time>2022-01-30T12:45:42Z</time>
      </trkpt>
      <trkpt lat="41.8976570" lon="-2.7628950">
        <ele>1098.6</ele>
        <time>2022-01-30T12:45:43Z</time>
      </trkpt>
      <trkpt lat="41.8976520" lon="-2.7629670">
        <ele>1098.2</ele>
        <time>2022-01-30T12:45:44Z</time>
      </trkpt>
      <trkpt lat="41.8976450" lon="-2.7630380">
        <ele>1097.9</ele>
        <time>2022-01-30T12:45:45Z</time>
      </trkpt>
      <trkpt lat="41.8976380" lon="-2.7631350">
        <ele>1097.5</ele>
        <time>2022-01-30T12:45:46Z</time>
      </trkpt>
      <trkpt lat="41.8976320" lon="-2.7632230">
        <ele>1097.0</ele>
        <time>2022-01-30T12:45:47Z</time>
      </trkpt>
      <trkpt lat="41.8976180" lon="-2.7633080">
        <ele>1096.6</ele>
        <time>2022-01-30T12:45:48Z</time>
      </trkpt>
      <trkpt lat="41.8976070" lon="-2.7633970">
        <ele>1096.2</ele>
        <time>2022-01-30T12:45:49Z</time>
      </trkpt>
      <trkpt lat="41.8975830" lon="-2.7634800">
        <ele>1095.8</ele>
        <time>2022-01-30T12:45:50Z</time>
      </trkpt>
      <trkpt lat="41.8975620" lon="-2.7635630">
        <ele>1095.5</ele>
        <time>2022-01-30T12:45:51Z</time>
      </trkpt>
      <trkpt lat="41.8975470" lon="-2.7636500">
        <ele>1095.1</ele>
        <time>2022-01-30T12:45:52Z</time>
      </trkpt>
      <trkpt lat="41.8975350" lon="-2.7637330">
        <ele>1094.9</ele>
        <time>2022-01-30T12:45:53Z</time>
      </trkpt>
      <trkpt lat="41.8975270" lon="-2.7638200">
        <ele>1094.6</ele>
        <time>2022-01-30T12:45:54Z</time>
      </trkpt>
      <trkpt lat="41.8975180" lon="-2.7639070">
        <ele>1094.4</ele>
        <time>2022-01-30T12:45:55Z</time>
      </trkpt>
      <trkpt lat="41.8975020" lon="-2.7639820">
        <ele>1094.2</ele>
        <time>2022-01-30T12:45:56Z</time>
      </trkpt>
      <trkpt lat="41.8974820" lon="-2.7640550">
        <ele>1094.0</ele>
        <time>2022-01-30T12:45:57Z</time>
      </trkpt>
      <trkpt lat="41.8974580" lon="-2.7641250">
        <ele>1093.8</ele>
        <time>2022-01-30T12:45:58Z</time>
      </trkpt>
      <trkpt lat="41.8974330" lon="-2.7641920">
        <ele>1093.5</ele>
        <time>2022-01-30T12:45:59Z</time>
      </trkpt>
      <trkpt lat="41.8974030" lon="-2.7642580">
        <ele>1093.3</ele>
        <time>2022-01-30T12:46:00Z</time>
      </trkpt>
      <trkpt lat="41.8973680" lon="-2.7643200">
        <ele>1093.1</ele>
        <time>2022-01-30T12:46:01Z</time>
      </trkpt>
      <trkpt lat="41.8973370" lon="-2.7643850">
        <ele>1092.8</ele>
        <time>2022-01-30T12:46:02Z</time>
      </trkpt>
      <trkpt lat="41.8973020" lon="-2.7644450">
        <ele>1092.6</ele>
        <time>2022-01-30T12:46:03Z</time>
      </trkpt>
      <trkpt lat="41.8972680" lon="-2.7645030">
        <ele>1092.3</ele>
        <time>2022-01-30T12:46:04Z</time>
      </trkpt>
      <trkpt lat="41.8972370" lon="-2.7645650">
        <ele>1092.0</ele>
        <time>2022-01-30T12:46:05Z</time>
      </trkpt>
      <trkpt lat="41.8972080" lon="-2.7646280">
        <ele>1091.8</ele>
        <time>2022-01-30T12:46:06Z</time>
      </trkpt>
      <trkpt lat="41.8971870" lon="-2.7646920">
        <ele>1091.5</ele>
        <time>2022-01-30T12:46:07Z</time>
      </trkpt>
      <trkpt lat="41.8971620" lon="-2.7647550">
        <ele>1091.2</ele>
        <time>2022-01-30T12:46:08Z</time>
      </trkpt>
      <trkpt lat="41.8971320" lon="-2.7648100">
        <ele>1091.0</ele>
        <time>2022-01-30T12:46:09Z</time>
      </trkpt>
      <trkpt lat="41.8970930" lon="-2.7648570">
        <ele>1090.8</ele>
        <time>2022-01-30T12:46:10Z</time>
      </trkpt>
      <trkpt lat="41.8970480" lon="-2.7648980">
        <ele>1090.5</ele>
        <time>2022-01-30T12:46:11Z</time>
      </trkpt>
      <trkpt lat="41.8969980" lon="-2.7649380">
        <ele>1090.3</ele>
        <time>2022-01-30T12:46:12Z</time>
      </trkpt>
      <trkpt lat="41.8969450" lon="-2.7649770">
        <ele>1090.2</ele>
        <time>2022-01-30T12:46:13Z</time>
      </trkpt>
      <trkpt lat="41.8968950" lon="-2.7650120">
        <ele>1090.1</ele>
        <time>2022-01-30T12:46:14Z</time>
      </trkpt>
      <trkpt lat="41.8968520" lon="-2.7650470">
        <ele>1090.0</ele>
        <time>2022-01-30T12:46:15Z</time>
      </trkpt>
      <trkpt lat="41.8968150" lon="-2.7650750">
        <ele>1090.0</ele>
        <time>2022-01-30T12:46:16Z</time>
      </trkpt>
      <trkpt lat="41.8967770" lon="-2.7651030">
        <ele>1090.0</ele>
        <time>2022-01-30T12:46:17Z</time>
      </trkpt>
      <trkpt lat="41.8967470" lon="-2.7651320">
        <ele>1090.0</ele>
        <time>2022-01-30T12:46:18Z</time>
      </trkpt>
      <trkpt lat="41.8967200" lon="-2.7651670">
        <ele>1090.0</ele>
        <time>2022-01-30T12:46:19Z</time>
      </trkpt>
      <trkpt lat="41.8967120" lon="-2.7652080">
        <ele>1090.1</ele>
        <time>2022-01-30T12:46:20Z</time>
      </trkpt>
      <trkpt lat="41.8967170" lon="-2.7652430">
        <ele>1090.1</ele>
        <time>2022-01-30T12:46:21Z</time>
      </trkpt>
      <trkpt lat="41.8967200" lon="-2.7652800">
        <ele>1090.1</ele>
        <time>2022-01-30T12:46:22Z</time>
      </trkpt>
      <trkpt lat="41.8967280" lon="-2.7653130">
        <ele>1090.2</ele>
        <time>2022-01-30T12:46:23Z</time>
      </trkpt>
      <trkpt lat="41.8967380" lon="-2.7653520">
        <ele>1090.2</ele>
        <time>2022-01-30T12:46:24Z</time>
      </trkpt>
      <trkpt lat="41.8967500" lon="-2.7653870">
        <ele>1090.2</ele>
        <time>2022-01-30T12:46:25Z</time>
      </trkpt>
      <trkpt lat="41.8967550" lon="-2.7654250">
        <ele>1090.3</ele>
        <time>2022-01-30T12:46:26Z</time>
      </trkpt>
      <trkpt lat="41.8967530" lon="-2.7654670">
        <ele>1090.3</ele>
        <time>2022-01-30T12:46:27Z</time>
      </trkpt>
      <trkpt lat="41.8967420" lon="-2.7655380">
        <ele>1090.4</ele>
        <time>2022-01-30T12:46:28Z</time>
      </trkpt>
      <trkpt lat="41.8967200" lon="-2.7656150">
        <ele>1090.4</ele>
        <time>2022-01-30T12:46:29Z</time>
      </trkpt>
      <trkpt lat="41.8966930" lon="-2.7656830">
        <ele>1090.5</ele>
        <time>2022-01-30T12:46:30Z</time>
      </trkpt>
      <trkpt lat="41.8966720" lon="-2.7657380">
        <ele>1090.5</ele>
        <time>2022-01-30T12:46:31Z</time>
      </trkpt>
      <trkpt lat="41.8966450" lon="-2.7657880">
        <ele>1090.5</ele>
        <time>2022-01-30T12:46:32Z</time>
      </trkpt>
      <trkpt lat="41.8966080" lon="-2.7658250">
        <ele>1090.5</ele>
        <time>2022-01-30T12:46:33Z</time>
      </trkpt>
      <trkpt lat="41.8965820" lon="-2.7658630">
        <ele>1090.5</ele>
        <time>2022-01-30T12:46:34Z</time>
      </trkpt>
      <trkpt lat="41.8965500" lon="-2.7659000">
        <ele>1090.5</ele>
        <time>2022-01-30T12:46:35Z</time>
      </trkpt>
      <trkpt lat="41.8965170" lon="-2.7659370">
        <ele>1090.5</ele>
        <time>2022-01-30T12:46:36Z</time>
      </trkpt>
      <trkpt lat="41.8964870" lon="-2.7659670">
        <ele>1090.4</ele>
        <time>2022-01-30T12:46:37Z</time>
      </trkpt>
      <trkpt lat="41.8964620" lon="-2.7659980">
        <ele>1090.4</ele>
        <time>2022-01-30T12:46:38Z</time>
      </trkpt>
      <trkpt lat="41.8964330" lon="-2.7660320">
        <ele>1090.4</ele>
        <time>2022-01-30T12:46:39Z</time>
      </trkpt>
      <trkpt lat="41.8964050" lon="-2.7660670">
        <ele>1090.3</ele>
        <time>2022-01-30T12:46:40Z</time>
      </trkpt>
      <trkpt lat="41.8963750" lon="-2.7661070">
        <ele>1090.3</ele>
        <time>2022-01-30T12:46:41Z</time>
      </trkpt>
      <trkpt lat="41.8963520" lon="-2.7661500">
        <ele>1090.2</ele>
        <time>2022-01-30T12:46:42Z</time>
      </trkpt>
      <trkpt lat="41.8963250" lon="-2.7661920">
        <ele>1090.2</ele>
        <time>2022-01-30T12:46:43Z</time>
      </trkpt>
      <trkpt lat="41.8963020" lon="-2.7662350">
        <ele>1090.1</ele>
        <time>2022-01-30T12:46:44Z</time>
      </trkpt>
      <trkpt lat="41.8962820" lon="-2.7662850">
        <ele>1090.0</ele>
        <time>2022-01-30T12:46:45Z</time>
      </trkpt>
      <trkpt lat="41.8962620" lon="-2.7663350">
        <ele>1089.9</ele>
        <time>2022-01-30T12:46:46Z</time>
      </trkpt>
      <trkpt lat="41.8962380" lon="-2.7663880">
        <ele>1089.8</ele>
        <time>2022-01-30T12:46:47Z</time>
      </trkpt>
      <trkpt lat="41.8962130" lon="-2.7664380">
        <ele>1089.7</ele>
        <time>2022-01-30T12:46:48Z</time>
      </trkpt>
      <trkpt lat="41.8961880" lon="-2.7664830">
        <ele>1089.7</ele>
        <time>2022-01-30T12:46:49Z</time>
      </trkpt>
      <trkpt lat="41.8961620" lon="-2.7665300">
        <ele>1089.6</ele>
        <time>2022-01-30T12:46:50Z</time>
      </trkpt>
      <trkpt lat="41.8961370" lon="-2.7665800">
        <ele>1089.5</ele>
        <time>2022-01-30T12:46:51Z</time>
      </trkpt>
      <trkpt lat="41.8961070" lon="-2.7666320">
        <ele>1089.5</ele>
        <time>2022-01-30T12:46:52Z</time>
      </trkpt>
      <trkpt lat="41.8960800" lon="-2.7666820">
        <ele>1089.4</ele>
        <time>2022-01-30T12:46:53Z</time>
      </trkpt>
      <trkpt lat="41.8960520" lon="-2.7667270">
        <ele>1089.4</ele>
        <time>2022-01-30T12:46:54Z</time>
      </trkpt>
      <trkpt lat="41.8960180" lon="-2.7667630">
        <ele>1089.4</ele>
        <time>2022-01-30T12:46:55Z</time>
      </trkpt>
      <trkpt lat="41.8959870" lon="-2.7668050">
        <ele>1089.4</ele>
        <time>2022-01-30T12:46:56Z</time>
      </trkpt>
      <trkpt lat="41.8959550" lon="-2.7668430">
        <ele>1089.3</ele>
        <time>2022-01-30T12:46:57Z</time>
      </trkpt>
      <trkpt lat="41.8959250" lon="-2.7668900">
        <ele>1089.2</ele>
        <time>2022-01-30T12:46:58Z</time>
      </trkpt>
      <trkpt lat="41.8958980" lon="-2.7669370">
        <ele>1089.2</ele>
        <time>2022-01-30T12:46:59Z</time>
      </trkpt>
      <trkpt lat="41.8958730" lon="-2.7669830">
        <ele>1089.1</ele>
        <time>2022-01-30T12:47:00Z</time>
      </trkpt>
      <trkpt lat="41.8958420" lon="-2.7670300">
        <ele>1089.0</ele>
        <time>2022-01-30T12:47:01Z</time>
      </trkpt>
      <trkpt lat="41.8958080" lon="-2.7670700">
        <ele>1089.0</ele>
        <time>2022-01-30T12:47:02Z</time>
      </trkpt>
      <trkpt lat="41.8957680" lon="-2.7671080">
        <ele>1088.9</ele>
        <time>2022-01-30T12:47:03Z</time>
      </trkpt>
      <trkpt lat="41.8957270" lon="-2.7671370">
        <ele>1089.0</ele>
        <time>2022-01-30T12:47:04Z</time>
      </trkpt>
      <trkpt lat="41.8956920" lon="-2.7671550">
        <ele>1089.0</ele>
        <time>2022-01-30T12:47:05Z</time>
      </trkpt>
      <trkpt lat="41.8956530" lon="-2.7671670">
        <ele>1089.0</ele>
        <time>2022-01-30T12:47:06Z</time>
      </trkpt>
      <trkpt lat="41.8956220" lon="-2.7671850">
        <ele>1089.1</ele>
        <time>2022-01-30T12:47:07Z</time>
      </trkpt>
      <trkpt lat="41.8955970" lon="-2.7672020">
        <ele>1089.1</ele>
        <time>2022-01-30T12:47:08Z</time>
      </trkpt>
      <trkpt lat="41.8955780" lon="-2.7672150">
        <ele>1089.1</ele>
        <time>2022-01-30T12:47:09Z</time>
      </trkpt>
      <trkpt lat="41.8955670" lon="-2.7672270">
        <ele>1089.1</ele>
        <time>2022-01-30T12:47:10Z</time>
      </trkpt>
      <trkpt lat="41.8955580" lon="-2.7672280">
        <ele>1089.1</ele>
        <time>2022-01-30T12:47:11Z</time>
      </trkpt>
      <trkpt lat="41.8955580" lon="-2.7672280">
        <ele>1089.1</ele>
        <time>2022-01-30T12:47:12Z</time>
      </trkpt>
      <trkpt lat="41.8955530" lon="-2.7672280">
        <ele>1089.1</ele>
        <time>2022-01-30T12:47:13Z</time>
      </trkpt>
      <trkpt lat="41.8955480" lon="-2.7672320">
        <ele>1089.1</ele>
        <time>2022-01-30T12:47:14Z</time>
      </trkpt>
      <trkpt lat="41.8955470" lon="-2.7672330">
        <ele>1089.1</ele>
        <time>2022-01-30T12:47:15Z</time>
      </trkpt>
      <trkpt lat="41.8955420" lon="-2.7672420">
        <ele>1089.1</ele>
        <time>2022-01-30T12:47:16Z</time>
      </trkpt>
      <trkpt lat="41.8955320" lon="-2.7672520">
        <ele>1089.1</ele>
        <time>2022-01-30T12:47:17Z</time>
      </trkpt>
      <trkpt lat="41.8955200" lon="-2.7672720">
        <ele>1089.1</ele>
        <time>2022-01-30T12:47:18Z</time>
      </trkpt>
      <trkpt lat="41.8955150" lon="-2.7673020">
        <ele>1089.2</ele>
        <time>2022-01-30T12:47:19Z</time>
      </trkpt>
      <trkpt lat="41.8955100" lon="-2.7673400">
        <ele>1089.2</ele>
        <time>2022-01-30T12:47:20Z</time>
      </trkpt>
      <trkpt lat="41.8955030" lon="-2.7673730">
        <ele>1089.2</ele>
        <time>2022-01-30T12:47:21Z</time>
      </trkpt>
      <trkpt lat="41.8955000" lon="-2.7673900">
        <ele>1089.2</ele>
        <time>2022-01-30T12:47:22Z</time>
      </trkpt>
      <trkpt lat="41.8954980" lon="-2.7674000">
        <ele>1089.2</ele>
        <time>2022-01-30T12:47:23Z</time>
      </trkpt>
      <trkpt lat="41.8955020" lon="-2.7674050">
        <ele>1089.2</ele>
        <time>2022-01-30T12:47:24Z</time>
      </trkpt>
      <trkpt lat="41.8955080" lon="-2.7674070">
        <ele>1089.3</ele>
        <time>2022-01-30T12:47:25Z</time>
      </trkpt>
      <trkpt lat="41.8955100" lon="-2.7674130">
        <ele>1089.3</ele>
        <time>2022-01-30T12:47:26Z</time>
      </trkpt>
      <trkpt lat="41.8955120" lon="-2.7674270">
        <ele>1089.3</ele>
        <time>2022-01-30T12:47:27Z</time>
      </trkpt>
      <trkpt lat="41.8955150" lon="-2.7674380">
        <ele>1089.3</ele>
        <time>2022-01-30T12:47:28Z</time>
      </trkpt>
      <trkpt lat="41.8955180" lon="-2.7674520">
        <ele>1089.3</ele>
        <time>2022-01-30T12:47:29Z</time>
      </trkpt>
      <trkpt lat="41.8955270" lon="-2.7674670">
        <ele>1089.4</ele>
        <time>2022-01-30T12:47:30Z</time>
      </trkpt>
      <trkpt lat="41.8955350" lon="-2.7674750">
        <ele>1089.4</ele>
        <time>2022-01-30T12:47:31Z</time>
      </trkpt>
      <trkpt lat="41.8955430" lon="-2.7674900">
        <ele>1089.4</ele>
        <time>2022-01-30T12:47:32Z</time>
      </trkpt>
      <trkpt lat="41.8955520" lon="-2.7675070">
        <ele>1089.5</ele>
        <time>2022-01-30T12:47:33Z</time>
      </trkpt>
      <trkpt lat="41.8955580" lon="-2.7675220">
        <ele>1089.5</ele>
        <time>2022-01-30T12:47:34Z</time>
      </trkpt>
      <trkpt lat="41.8955680" lon="-2.7675320">
        <ele>1089.5</ele>
        <time>2022-01-30T12:47:35Z</time>
      </trkpt>
      <trkpt lat="41.8955820" lon="-2.7675420">
        <ele>1089.5</ele>
        <time>2022-01-30T12:47:36Z</time>
      </trkpt>
      <trkpt lat="41.8955950" lon="-2.7675570">
        <ele>1089.6</ele>
        <time>2022-01-30T12:47:37Z</time>
      </trkpt>
      <trkpt lat="41.8955950" lon="-2.7675570">
        <ele>1089.6</ele>
        <time>2022-01-30T12:47:38Z</time>
      </trkpt>
      <trkpt lat="41.8956170" lon="-2.7675880">
        <ele>1089.6</ele>
        <time>2022-01-30T12:47:39Z</time>
      </trkpt>
      <trkpt lat="41.8956250" lon="-2.7676070">
        <ele>1089.6</ele>
        <time>2022-01-30T12:47:40Z</time>
      </trkpt>
      <trkpt lat="41.8956250" lon="-2.7676250">
        <ele>1089.7</ele>
        <time>2022-01-30T12:47:41Z</time>
      </trkpt>
      <trkpt lat="41.8956250" lon="-2.7676430">
        <ele>1089.7</ele>
        <time>2022-01-30T12:47:42Z</time>
      </trkpt>
      <trkpt lat="41.8956320" lon="-2.7676650">
        <ele>1089.7</ele>
        <time>2022-01-30T12:47:43Z</time>
      </trkpt>
      <trkpt lat="41.8956400" lon="-2.7676900">
        <ele>1089.7</ele>
        <time>2022-01-30T12:47:44Z</time>
      </trkpt>
      <trkpt lat="41.8956530" lon="-2.7677150">
        <ele>1089.7</ele>
        <time>2022-01-30T12:47:45Z</time>
      </trkpt>
      <trkpt lat="41.8956700" lon="-2.7677470">
        <ele>1089.6</ele>
        <time>2022-01-30T12:47:46Z</time>
      </trkpt>
      <trkpt lat="41.8956920" lon="-2.7677950">
        <ele>1089.6</ele>
        <time>2022-01-30T12:47:47Z</time>
      </trkpt>
      <trkpt lat="41.8957050" lon="-2.7678470">
        <ele>1089.6</ele>
        <time>2022-01-30T12:47:48Z</time>
      </trkpt>
      <trkpt lat="41.8957170" lon="-2.7679050">
        <ele>1089.6</ele>
        <time>2022-01-30T12:47:49Z</time>
      </trkpt>
      <trkpt lat="41.8957180" lon="-2.7679520">
        <ele>1089.6</ele>
        <time>2022-01-30T12:47:50Z</time>
      </trkpt>
      <trkpt lat="41.8957220" lon="-2.7679970">
        <ele>1089.5</ele>
        <time>2022-01-30T12:47:51Z</time>
      </trkpt>
      <trkpt lat="41.8957170" lon="-2.7680420">
        <ele>1089.5</ele>
        <time>2022-01-30T12:47:52Z</time>
      </trkpt>
      <trkpt lat="41.8957200" lon="-2.7680920">
        <ele>1089.5</ele>
        <time>2022-01-30T12:47:53Z</time>
      </trkpt>
      <trkpt lat="41.8957270" lon="-2.7681370">
        <ele>1089.5</ele>
        <time>2022-01-30T12:47:54Z</time>
      </trkpt>
      <trkpt lat="41.8957370" lon="-2.7681850">
        <ele>1089.5</ele>
        <time>2022-01-30T12:47:55Z</time>
      </trkpt>
      <trkpt lat="41.8957500" lon="-2.7682420">
        <ele>1089.4</ele>
        <time>2022-01-30T12:47:56Z</time>
      </trkpt>
      <trkpt lat="41.8957550" lon="-2.7683070">
        <ele>1089.4</ele>
        <time>2022-01-30T12:47:57Z</time>
      </trkpt>
      <trkpt lat="41.8957500" lon="-2.7683720">
        <ele>1089.3</ele>
        <time>2022-01-30T12:47:58Z</time>
      </trkpt>
      <trkpt lat="41.8957430" lon="-2.7684300">
        <ele>1089.3</ele>
        <time>2022-01-30T12:47:59Z</time>
      </trkpt>
      <trkpt lat="41.8957370" lon="-2.7684880">
        <ele>1089.2</ele>
        <time>2022-01-30T12:48:00Z</time>
      </trkpt>
      <trkpt lat="41.8957300" lon="-2.7685450">
        <ele>1089.2</ele>
        <time>2022-01-30T12:48:01Z</time>
      </trkpt>
      <trkpt lat="41.8957200" lon="-2.7685970">
        <ele>1089.1</ele>
        <time>2022-01-30T12:48:02Z</time>
      </trkpt>
      <trkpt lat="41.8957070" lon="-2.7686480">
        <ele>1089.1</ele>
        <time>2022-01-30T12:48:03Z</time>
      </trkpt>
      <trkpt lat="41.8956900" lon="-2.7686970">
        <ele>1089.1</ele>
        <time>2022-01-30T12:48:04Z</time>
      </trkpt>
      <trkpt lat="41.8956770" lon="-2.7687380">
        <ele>1089.2</ele>
        <time>2022-01-30T12:48:05Z</time>
      </trkpt>
      <trkpt lat="41.8956670" lon="-2.7687820">
        <ele>1089.2</ele>
        <time>2022-01-30T12:48:06Z</time>
      </trkpt>
      <trkpt lat="41.8956580" lon="-2.7688230">
        <ele>1089.2</ele>
        <time>2022-01-30T12:48:07Z</time>
      </trkpt>
      <trkpt lat="41.8956500" lon="-2.7688650">
        <ele>1089.2</ele>
        <time>2022-01-30T12:48:08Z</time>
      </trkpt>
      <trkpt lat="41.8956430" lon="-2.7689070">
        <ele>1089.2</ele>
        <time>2022-01-30T12:48:09Z</time>
      </trkpt>
      <trkpt lat="41.8956370" lon="-2.7689480">
        <ele>1089.3</ele>
        <time>2022-01-30T12:48:10Z</time>
      </trkpt>
      <trkpt lat="41.8956270" lon="-2.7689830">
        <ele>1089.3</ele>
        <time>2022-01-30T12:48:11Z</time>
      </trkpt>
      <trkpt lat="41.8956120" lon="-2.7690130">
        <ele>1089.3</ele>
        <time>2022-01-30T12:48:12Z</time>
      </trkpt>
      <trkpt lat="41.8956020" lon="-2.7690400">
        <ele>1089.3</ele>
        <time>2022-01-30T12:48:13Z</time>
      </trkpt>
      <trkpt lat="41.8955950" lon="-2.7690680">
        <ele>1089.3</ele>
        <time>2022-01-30T12:48:14Z</time>
      </trkpt>
      <trkpt lat="41.8955830" lon="-2.7690900">
        <ele>1089.3</ele>
        <time>2022-01-30T12:48:15Z</time>
      </trkpt>
      <trkpt lat="41.8955720" lon="-2.7691070">
        <ele>1089.3</ele>
        <time>2022-01-30T12:48:16Z</time>
      </trkpt>
      <trkpt lat="41.8955630" lon="-2.7691300">
        <ele>1089.3</ele>
        <time>2022-01-30T12:48:17Z</time>
      </trkpt>
      <trkpt lat="41.8955850" lon="-2.7691420">
        <ele>1089.3</ele>
        <time>2022-01-30T12:48:18Z</time>
      </trkpt>
      <trkpt lat="41.8956000" lon="-2.7691280">
        <ele>1089.3</ele>
        <time>2022-01-30T12:48:19Z</time>
      </trkpt>
      <trkpt lat="41.8956100" lon="-2.7691500">
        <ele>1089.3</ele>
        <time>2022-01-30T12:48:20Z</time>
      </trkpt>
      <trkpt lat="41.8956130" lon="-2.7691530">
        <ele>1089.3</ele>
        <time>2022-01-30T12:48:21Z</time>
      </trkpt>
      <trkpt lat="41.8956150" lon="-2.7691480">
        <ele>1089.3</ele>
        <time>2022-01-30T12:48:22Z</time>
      </trkpt>
      <trkpt lat="41.8956130" lon="-2.7691470">
        <ele>1089.3</ele>
        <time>2022-01-30T12:48:23Z</time>
      </trkpt>
      <trkpt lat="41.8956130" lon="-2.7691550">
        <ele>1089.3</ele>
        <time>2022-01-30T12:48:24Z</time>
      </trkpt>
      <trkpt lat="41.8956120" lon="-2.7691770">
        <ele>1089.3</ele>
        <time>2022-01-30T12:48:25Z</time>
      </trkpt>
      <trkpt lat="41.8956100" lon="-2.7692030">
        <ele>1089.3</ele>
        <time>2022-01-30T12:48:26Z</time>
      </trkpt>
      <trkpt lat="41.8956070" lon="-2.7692270">
        <ele>1089.3</ele>
        <time>2022-01-30T12:48:27Z</time>
      </trkpt>
      <trkpt lat="41.8956000" lon="-2.7692500">
        <ele>1089.3</ele>
        <time>2022-01-30T12:48:28Z</time>
      </trkpt>
      <trkpt lat="41.8955920" lon="-2.7692750">
        <ele>1089.4</ele>
        <time>2022-01-30T12:48:29Z</time>
      </trkpt>
      <trkpt lat="41.8955880" lon="-2.7693080">
        <ele>1089.4</ele>
        <time>2022-01-30T12:48:30Z</time>
      </trkpt>
      <trkpt lat="41.8955800" lon="-2.7693430">
        <ele>1089.5</ele>
        <time>2022-01-30T12:48:31Z</time>
      </trkpt>
      <trkpt lat="41.8955730" lon="-2.7693800">
        <ele>1089.5</ele>
        <time>2022-01-30T12:48:32Z</time>
      </trkpt>
      <trkpt lat="41.8955780" lon="-2.7694250">
        <ele>1089.6</ele>
        <time>2022-01-30T12:48:33Z</time>
      </trkpt>
      <trkpt lat="41.8955800" lon="-2.7694720">
        <ele>1089.7</ele>
        <time>2022-01-30T12:48:34Z</time>
      </trkpt>
      <trkpt lat="41.8955800" lon="-2.7695130">
        <ele>1089.8</ele>
        <time>2022-01-30T12:48:35Z</time>
      </trkpt>
      <trkpt lat="41.8955680" lon="-2.7695570">
        <ele>1089.9</ele>
        <time>2022-01-30T12:48:36Z</time>
      </trkpt>
      <trkpt lat="41.8955500" lon="-2.7696100">
        <ele>1090.0</ele>
        <time>2022-01-30T12:48:37Z</time>
      </trkpt>
      <trkpt lat="41.8955300" lon="-2.7696600">
        <ele>1090.2</ele>
        <time>2022-01-30T12:48:38Z</time>
      </trkpt>
      <trkpt lat="41.8955120" lon="-2.7697150">
        <ele>1090.4</ele>
        <time>2022-01-30T12:48:39Z</time>
      </trkpt>
      <trkpt lat="41.8954900" lon="-2.7697670">
        <ele>1090.6</ele>
        <time>2022-01-30T12:48:40Z</time>
      </trkpt>
      <trkpt lat="41.8954670" lon="-2.7698180">
        <ele>1090.8</ele>
        <time>2022-01-30T12:48:41Z</time>
      </trkpt>
      <trkpt lat="41.8954550" lon="-2.7698630">
        <ele>1090.9</ele>
        <time>2022-01-30T12:48:42Z</time>
      </trkpt>
      <trkpt lat="41.8954480" lon="-2.7699050">
        <ele>1091.1</ele>
        <time>2022-01-30T12:48:43Z</time>
      </trkpt>
      <trkpt lat="41.8954370" lon="-2.7699430">
        <ele>1091.2</ele>
        <time>2022-01-30T12:48:44Z</time>
      </trkpt>
      <trkpt lat="41.8954250" lon="-2.7699780">
        <ele>1091.3</ele>
        <time>2022-01-30T12:48:45Z</time>
      </trkpt>
      <trkpt lat="41.8954180" lon="-2.7700100">
        <ele>1091.3</ele>
        <time>2022-01-30T12:48:46Z</time>
      </trkpt>
      <trkpt lat="41.8954100" lon="-2.7700430">
        <ele>1091.4</ele>
        <time>2022-01-30T12:48:47Z</time>
      </trkpt>
      <trkpt lat="41.8954150" lon="-2.7701030">
        <ele>1091.4</ele>
        <time>2022-01-30T12:48:48Z</time>
      </trkpt>
      <trkpt lat="41.8954130" lon="-2.7701500">
        <ele>1091.4</ele>
        <time>2022-01-30T12:48:49Z</time>
      </trkpt>
      <trkpt lat="41.8954170" lon="-2.7701950">
        <ele>1091.4</ele>
        <time>2022-01-30T12:48:50Z</time>
      </trkpt>
      <trkpt lat="41.8954220" lon="-2.7702500">
        <ele>1091.3</ele>
        <time>2022-01-30T12:48:51Z</time>
      </trkpt>
      <trkpt lat="41.8954200" lon="-2.7703050">
        <ele>1091.2</ele>
        <time>2022-01-30T12:48:52Z</time>
      </trkpt>
      <trkpt lat="41.8954150" lon="-2.7703670">
        <ele>1091.1</ele>
        <time>2022-01-30T12:48:53Z</time>
      </trkpt>
      <trkpt lat="41.8954020" lon="-2.7704300">
        <ele>1091.1</ele>
        <time>2022-01-30T12:48:54Z</time>
      </trkpt>
      <trkpt lat="41.8953680" lon="-2.7704900">
        <ele>1091.0</ele>
        <time>2022-01-30T12:48:55Z</time>
      </trkpt>
      <trkpt lat="41.8953420" lon="-2.7705500">
        <ele>1091.0</ele>
        <time>2022-01-30T12:48:56Z</time>
      </trkpt>
      <trkpt lat="41.8953220" lon="-2.7706150">
        <ele>1090.9</ele>
        <time>2022-01-30T12:48:57Z</time>
      </trkpt>
      <trkpt lat="41.8953000" lon="-2.7706780">
        <ele>1091.0</ele>
        <time>2022-01-30T12:48:58Z</time>
      </trkpt>
      <trkpt lat="41.8952770" lon="-2.7707470">
        <ele>1091.1</ele>
        <time>2022-01-30T12:48:59Z</time>
      </trkpt>
      <trkpt lat="41.8952620" lon="-2.7708130">
        <ele>1091.2</ele>
        <time>2022-01-30T12:49:00Z</time>
      </trkpt>
      <trkpt lat="41.8952400" lon="-2.7708680">
        <ele>1091.3</ele>
        <time>2022-01-30T12:49:01Z</time>
      </trkpt>
      <trkpt lat="41.8952170" lon="-2.7709230">
        <ele>1091.4</ele>
        <time>2022-01-30T12:49:02Z</time>
      </trkpt>
      <trkpt lat="41.8951930" lon="-2.7709730">
        <ele>1091.5</ele>
        <time>2022-01-30T12:49:03Z</time>
      </trkpt>
      <trkpt lat="41.8951770" lon="-2.7710200">
        <ele>1091.5</ele>
        <time>2022-01-30T12:49:04Z</time>
      </trkpt>
      <trkpt lat="41.8951670" lon="-2.7710620">
        <ele>1091.5</ele>
        <time>2022-01-30T12:49:05Z</time>
      </trkpt>
      <trkpt lat="41.8951630" lon="-2.7710970">
        <ele>1091.5</ele>
        <time>2022-01-30T12:49:06Z</time>
      </trkpt>
      <trkpt lat="41.8951500" lon="-2.7711230">
        <ele>1091.5</ele>
        <time>2022-01-30T12:49:07Z</time>
      </trkpt>
      <trkpt lat="41.8951320" lon="-2.7711430">
        <ele>1091.4</ele>
        <time>2022-01-30T12:49:08Z</time>
      </trkpt>
      <trkpt lat="41.8951080" lon="-2.7711670">
        <ele>1091.4</ele>
        <time>2022-01-30T12:49:09Z</time>
      </trkpt>
      <trkpt lat="41.8950800" lon="-2.7712020">
        <ele>1091.4</ele>
        <time>2022-01-30T12:49:10Z</time>
      </trkpt>
      <trkpt lat="41.8950550" lon="-2.7712420">
        <ele>1091.3</ele>
        <time>2022-01-30T12:49:11Z</time>
      </trkpt>
      <trkpt lat="41.8950370" lon="-2.7712880">
        <ele>1091.3</ele>
        <time>2022-01-30T12:49:12Z</time>
      </trkpt>
      <trkpt lat="41.8950220" lon="-2.7713370">
        <ele>1091.2</ele>
        <time>2022-01-30T12:49:13Z</time>
      </trkpt>
      <trkpt lat="41.8950070" lon="-2.7713830">
        <ele>1091.2</ele>
        <time>2022-01-30T12:49:14Z</time>
      </trkpt>
      <trkpt lat="41.8949920" lon="-2.7714300">
        <ele>1091.1</ele>
        <time>2022-01-30T12:49:15Z</time>
      </trkpt>
      <trkpt lat="41.8949680" lon="-2.7714800">
        <ele>1091.0</ele>
        <time>2022-01-30T12:49:16Z</time>
      </trkpt>
      <trkpt lat="41.8949480" lon="-2.7715300">
        <ele>1090.9</ele>
        <time>2022-01-30T12:49:17Z</time>
      </trkpt>
      <trkpt lat="41.8949320" lon="-2.7715720">
        <ele>1090.8</ele>
        <time>2022-01-30T12:49:18Z</time>
      </trkpt>
      <trkpt lat="41.8949100" lon="-2.7716130">
        <ele>1090.7</ele>
        <time>2022-01-30T12:49:19Z</time>
      </trkpt>
      <trkpt lat="41.8948930" lon="-2.7716550">
        <ele>1090.6</ele>
        <time>2022-01-30T12:49:20Z</time>
      </trkpt>
      <trkpt lat="41.8948770" lon="-2.7716970">
        <ele>1090.5</ele>
        <time>2022-01-30T12:49:21Z</time>
      </trkpt>
      <trkpt lat="41.8948630" lon="-2.7717380">
        <ele>1090.5</ele>
        <time>2022-01-30T12:49:22Z</time>
      </trkpt>
      <trkpt lat="41.8948500" lon="-2.7717870">
        <ele>1090.4</ele>
        <time>2022-01-30T12:49:23Z</time>
      </trkpt>
      <trkpt lat="41.8948400" lon="-2.7718400">
        <ele>1090.3</ele>
        <time>2022-01-30T12:49:24Z</time>
      </trkpt>
      <trkpt lat="41.8948280" lon="-2.7718980">
        <ele>1090.2</ele>
        <time>2022-01-30T12:49:25Z</time>
      </trkpt>
      <trkpt lat="41.8948170" lon="-2.7719570">
        <ele>1090.2</ele>
        <time>2022-01-30T12:49:26Z</time>
      </trkpt>
      <trkpt lat="41.8948080" lon="-2.7720000">
        <ele>1090.3</ele>
        <time>2022-01-30T12:49:27Z</time>
      </trkpt>
      <trkpt lat="41.8948030" lon="-2.7720400">
        <ele>1090.3</ele>
        <time>2022-01-30T12:49:28Z</time>
      </trkpt>
      <trkpt lat="41.8947950" lon="-2.7720800">
        <ele>1090.4</ele>
        <time>2022-01-30T12:49:29Z</time>
      </trkpt>
      <trkpt lat="41.8947850" lon="-2.7721200">
        <ele>1090.5</ele>
        <time>2022-01-30T12:49:30Z</time>
      </trkpt>
      <trkpt lat="41.8947780" lon="-2.7721580">
        <ele>1090.6</ele>
        <time>2022-01-30T12:49:31Z</time>
      </trkpt>
      <trkpt lat="41.8947650" lon="-2.7722000">
        <ele>1090.7</ele>
        <time>2022-01-30T12:49:32Z</time>
      </trkpt>
      <trkpt lat="41.8947580" lon="-2.7722270">
        <ele>1090.8</ele>
        <time>2022-01-30T12:49:33Z</time>
      </trkpt>
      <trkpt lat="41.8947430" lon="-2.7722620">
        <ele>1090.9</ele>
        <time>2022-01-30T12:49:34Z</time>
      </trkpt>
      <trkpt lat="41.8947270" lon="-2.7723030">
        <ele>1091.0</ele>
        <time>2022-01-30T12:49:35Z</time>
      </trkpt>
      <trkpt lat="41.8947100" lon="-2.7723520">
        <ele>1091.1</ele>
        <time>2022-01-30T12:49:36Z</time>
      </trkpt>
      <trkpt lat="41.8947000" lon="-2.7724020">
        <ele>1091.1</ele>
        <time>2022-01-30T12:49:37Z</time>
      </trkpt>
      <trkpt lat="41.8946880" lon="-2.7724550">
        <ele>1091.2</ele>
        <time>2022-01-30T12:49:38Z</time>
      </trkpt>
      <trkpt lat="41.8946800" lon="-2.7725080">
        <ele>1091.3</ele>
        <time>2022-01-30T12:49:39Z</time>
      </trkpt>
      <trkpt lat="41.8946700" lon="-2.7725520">
        <ele>1091.3</ele>
        <time>2022-01-30T12:49:40Z</time>
      </trkpt>
      <trkpt lat="41.8946620" lon="-2.7725980">
        <ele>1091.3</ele>
        <time>2022-01-30T12:49:41Z</time>
      </trkpt>
      <trkpt lat="41.8946520" lon="-2.7726420">
        <ele>1091.3</ele>
        <time>2022-01-30T12:49:42Z</time>
      </trkpt>
      <trkpt lat="41.8946400" lon="-2.7726880">
        <ele>1091.3</ele>
        <time>2022-01-30T12:49:43Z</time>
      </trkpt>
      <trkpt lat="41.8946350" lon="-2.7727300">
        <ele>1091.3</ele>
        <time>2022-01-30T12:49:44Z</time>
      </trkpt>
      <trkpt lat="41.8946320" lon="-2.7727700">
        <ele>1091.3</ele>
        <time>2022-01-30T12:49:45Z</time>
      </trkpt>
      <trkpt lat="41.8946300" lon="-2.7728070">
        <ele>1091.3</ele>
        <time>2022-01-30T12:49:46Z</time>
      </trkpt>
      <trkpt lat="41.8946280" lon="-2.7728470">
        <ele>1091.3</ele>
        <time>2022-01-30T12:49:47Z</time>
      </trkpt>
      <trkpt lat="41.8946250" lon="-2.7728870">
        <ele>1091.2</ele>
        <time>2022-01-30T12:49:48Z</time>
      </trkpt>
      <trkpt lat="41.8946170" lon="-2.7729270">
        <ele>1091.2</ele>
        <time>2022-01-30T12:49:49Z</time>
      </trkpt>
      <trkpt lat="41.8946070" lon="-2.7729670">
        <ele>1091.1</ele>
        <time>2022-01-30T12:49:50Z</time>
      </trkpt>
      <trkpt lat="41.8945950" lon="-2.7730120">
        <ele>1091.0</ele>
        <time>2022-01-30T12:49:51Z</time>
      </trkpt>
      <trkpt lat="41.8945750" lon="-2.7730580">
        <ele>1091.0</ele>
        <time>2022-01-30T12:49:52Z</time>
      </trkpt>
      <trkpt lat="41.8945570" lon="-2.7731080">
        <ele>1090.9</ele>
        <time>2022-01-30T12:49:53Z</time>
      </trkpt>
      <trkpt lat="41.8945430" lon="-2.7731600">
        <ele>1090.8</ele>
        <time>2022-01-30T12:49:54Z</time>
      </trkpt>
      <trkpt lat="41.8945370" lon="-2.7732150">
        <ele>1090.7</ele>
        <time>2022-01-30T12:49:55Z</time>
      </trkpt>
      <trkpt lat="41.8945280" lon="-2.7732730">
        <ele>1090.6</ele>
        <time>2022-01-30T12:49:56Z</time>
      </trkpt>
      <trkpt lat="41.8945220" lon="-2.7733320">
        <ele>1090.5</ele>
        <time>2022-01-30T12:49:57Z</time>
      </trkpt>
      <trkpt lat="41.8945070" lon="-2.7733880">
        <ele>1090.4</ele>
        <time>2022-01-30T12:49:58Z</time>
      </trkpt>
      <trkpt lat="41.8944930" lon="-2.7734420">
        <ele>1090.3</ele>
        <time>2022-01-30T12:49:59Z</time>
      </trkpt>
      <trkpt lat="41.8944770" lon="-2.7734950">
        <ele>1090.2</ele>
        <time>2022-01-30T12:50:00Z</time>
      </trkpt>
      <trkpt lat="41.8944620" lon="-2.7735420">
        <ele>1090.0</ele>
        <time>2022-01-30T12:50:01Z</time>
      </trkpt>
      <trkpt lat="41.8944500" lon="-2.7735880">
        <ele>1089.9</ele>
        <time>2022-01-30T12:50:02Z</time>
      </trkpt>
      <trkpt lat="41.8944380" lon="-2.7736400">
        <ele>1089.8</ele>
        <time>2022-01-30T12:50:03Z</time>
      </trkpt>
      <trkpt lat="41.8944350" lon="-2.7737030">
        <ele>1089.6</ele>
        <time>2022-01-30T12:50:04Z</time>
      </trkpt>
      <trkpt lat="41.8944300" lon="-2.7737720">
        <ele>1089.5</ele>
        <time>2022-01-30T12:50:05Z</time>
      </trkpt>
      <trkpt lat="41.8944250" lon="-2.7738320">
        <ele>1089.4</ele>
        <time>2022-01-30T12:50:06Z</time>
      </trkpt>
      <trkpt lat="41.8944170" lon="-2.7738970">
        <ele>1089.2</ele>
        <time>2022-01-30T12:50:07Z</time>
      </trkpt>
      <trkpt lat="41.8944030" lon="-2.7739620">
        <ele>1089.1</ele>
        <time>2022-01-30T12:50:08Z</time>
      </trkpt>
      <trkpt lat="41.8943870" lon="-2.7740230">
        <ele>1089.0</ele>
        <time>2022-01-30T12:50:09Z</time>
      </trkpt>
      <trkpt lat="41.8943820" lon="-2.7740730">
        <ele>1088.9</ele>
        <time>2022-01-30T12:50:10Z</time>
      </trkpt>
      <trkpt lat="41.8943780" lon="-2.7741220">
        <ele>1088.9</ele>
        <time>2022-01-30T12:50:11Z</time>
      </trkpt>
      <trkpt lat="41.8943730" lon="-2.7741650">
        <ele>1088.8</ele>
        <time>2022-01-30T12:50:12Z</time>
      </trkpt>
      <trkpt lat="41.8943650" lon="-2.7742070">
        <ele>1088.8</ele>
        <time>2022-01-30T12:50:13Z</time>
      </trkpt>
      <trkpt lat="41.8943470" lon="-2.7742300">
        <ele>1088.8</ele>
        <time>2022-01-30T12:50:14Z</time>
      </trkpt>
      <trkpt lat="41.8943380" lon="-2.7742550">
        <ele>1088.7</ele>
        <time>2022-01-30T12:50:15Z</time>
      </trkpt>
      <trkpt lat="41.8943250" lon="-2.7742800">
        <ele>1088.7</ele>
        <time>2022-01-30T12:50:16Z</time>
      </trkpt>
      <trkpt lat="41.8943130" lon="-2.7743120">
        <ele>1088.7</ele>
        <time>2022-01-30T12:50:17Z</time>
      </trkpt>
      <trkpt lat="41.8942980" lon="-2.7743500">
        <ele>1088.6</ele>
        <time>2022-01-30T12:50:18Z</time>
      </trkpt>
      <trkpt lat="41.8942870" lon="-2.7743800">
        <ele>1088.6</ele>
        <time>2022-01-30T12:50:19Z</time>
      </trkpt>
      <trkpt lat="41.8942770" lon="-2.7744120">
        <ele>1088.6</ele>
        <time>2022-01-30T12:50:20Z</time>
      </trkpt>
      <trkpt lat="41.8942700" lon="-2.7744450">
        <ele>1088.5</ele>
        <time>2022-01-30T12:50:21Z</time>
      </trkpt>
      <trkpt lat="41.8942670" lon="-2.7744750">
        <ele>1088.5</ele>
        <time>2022-01-30T12:50:22Z</time>
      </trkpt>
      <trkpt lat="41.8942630" lon="-2.7744900">
        <ele>1088.5</ele>
        <time>2022-01-30T12:50:23Z</time>
      </trkpt>
      <trkpt lat="41.8942570" lon="-2.7744970">
        <ele>1088.5</ele>
        <time>2022-01-30T12:50:24Z</time>
      </trkpt>
      <trkpt lat="41.8942570" lon="-2.7744920">
        <ele>1088.5</ele>
        <time>2022-01-30T12:50:25Z</time>
      </trkpt>
      <trkpt lat="41.8942550" lon="-2.7744880">
        <ele>1088.5</ele>
        <time>2022-01-30T12:50:26Z</time>
      </trkpt>
      <trkpt lat="41.8942520" lon="-2.7744870">
        <ele>1088.5</ele>
        <time>2022-01-30T12:50:27Z</time>
      </trkpt>
      <trkpt lat="41.8942570" lon="-2.7744900">
        <ele>1088.4</ele>
        <time>2022-01-30T12:50:28Z</time>
      </trkpt>
      <trkpt lat="41.8942620" lon="-2.7744930">
        <ele>1088.4</ele>
        <time>2022-01-30T12:50:29Z</time>
      </trkpt>
      <trkpt lat="41.8942620" lon="-2.7744980">
        <ele>1088.4</ele>
        <time>2022-01-30T12:50:30Z</time>
      </trkpt>
      <trkpt lat="41.8942630" lon="-2.7745100">
        <ele>1088.4</ele>
        <time>2022-01-30T12:50:31Z</time>
      </trkpt>
      <trkpt lat="41.8942600" lon="-2.7745150">
        <ele>1088.4</ele>
        <time>2022-01-30T12:50:32Z</time>
      </trkpt>
      <trkpt lat="41.8942600" lon="-2.7745180">
        <ele>1088.4</ele>
        <time>2022-01-30T12:50:33Z</time>
      </trkpt>
      <trkpt lat="41.8942570" lon="-2.7745200">
        <ele>1088.4</ele>
        <time>2022-01-30T12:50:34Z</time>
      </trkpt>
      <trkpt lat="41.8942520" lon="-2.7745200">
        <ele>1088.4</ele>
        <time>2022-01-30T12:50:35Z</time>
      </trkpt>
      <trkpt lat="41.8942530" lon="-2.7745350">
        <ele>1088.4</ele>
        <time>2022-01-30T12:50:36Z</time>
      </trkpt>
      <trkpt lat="41.8942550" lon="-2.7745400">
        <ele>1088.4</ele>
        <time>2022-01-30T12:50:37Z</time>
      </trkpt>
      <trkpt lat="41.8942580" lon="-2.7745470">
        <ele>1088.3</ele>
        <time>2022-01-30T12:50:38Z</time>
      </trkpt>
      <trkpt lat="41.8942600" lon="-2.7745550">
        <ele>1088.3</ele>
        <time>2022-01-30T12:50:39Z</time>
      </trkpt>
      <trkpt lat="41.8942600" lon="-2.7745550">
        <ele>1088.3</ele>
        <time>2022-01-30T12:50:40Z</time>
      </trkpt>
      <trkpt lat="41.8942600" lon="-2.7745550">
        <ele>1088.3</ele>
        <time>2022-01-30T12:50:41Z</time>
      </trkpt>
      <trkpt lat="41.8942600" lon="-2.7745550">
        <ele>1088.3</ele>
        <time>2022-01-30T12:50:42Z</time>
      </trkpt>
      <trkpt lat="41.8942600" lon="-2.7745550">
        <ele>1088.3</ele>
        <time>2022-01-30T12:50:43Z</time>
      </trkpt>
      <trkpt lat="41.8942600" lon="-2.7745550">
        <ele>1088.3</ele>
        <time>2022-01-30T12:50:44Z</time>
      </trkpt>
      <trkpt lat="41.8942600" lon="-2.7745550">
        <ele>1088.3</ele>
        <time>2022-01-30T12:50:45Z</time>
      </trkpt>
      <trkpt lat="41.8942600" lon="-2.7745550">
        <ele>1088.3</ele>
        <time>2022-01-30T12:50:46Z</time>
      </trkpt>
      <trkpt lat="41.8942600" lon="-2.7745550">
        <ele>1088.3</ele>
        <time>2022-01-30T12:50:47Z</time>
      </trkpt>
      <trkpt lat="41.8942600" lon="-2.7745550">
        <ele>1088.3</ele>
        <time>2022-01-30T12:50:48Z</time>
      </trkpt>
      <trkpt lat="41.8942600" lon="-2.7745550">
        <ele>1088.3</ele>
        <time>2022-01-30T12:50:49Z</time>
      </trkpt>
      <trkpt lat="41.8942600" lon="-2.7745550">
        <ele>1088.3</ele>
        <time>2022-01-30T12:50:50Z</time>
      </trkpt>
      <trkpt lat="41.8942600" lon="-2.7745550">
        <ele>1088.3</ele>
        <time>2022-01-30T12:50:51Z</time>
      </trkpt>
      <trkpt lat="41.8942600" lon="-2.7745550">
        <ele>1088.3</ele>
        <time>2022-01-30T12:50:52Z</time>
      </trkpt>
      <trkpt lat="41.8942600" lon="-2.7745530">
        <ele>1088.3</ele>
        <time>2022-01-30T12:50:53Z</time>
      </trkpt>
      <trkpt lat="41.8942600" lon="-2.7745530">
        <ele>1088.3</ele>
        <time>2022-01-30T12:50:54Z</time>
      </trkpt>
      <trkpt lat="41.8942580" lon="-2.7745520">
        <ele>1088.3</ele>
        <time>2022-01-30T12:50:55Z</time>
      </trkpt>
      <trkpt lat="41.8942580" lon="-2.7745520">
        <ele>1088.3</ele>
        <time>2022-01-30T12:50:56Z</time>
      </trkpt>
      <trkpt lat="41.8942580" lon="-2.7745520">
        <ele>1088.3</ele>
        <time>2022-01-30T12:50:57Z</time>
      </trkpt>
      <trkpt lat="41.8942570" lon="-2.7745520">
        <ele>1088.3</ele>
        <time>2022-01-30T12:50:58Z</time>
      </trkpt>
      <trkpt lat="41.8942550" lon="-2.7745500">
        <ele>1088.3</ele>
        <time>2022-01-30T12:50:59Z</time>
      </trkpt>
      <trkpt lat="41.8942550" lon="-2.7745480">
        <ele>1088.3</ele>
        <time>2022-01-30T12:51:00Z</time>
      </trkpt>
      <trkpt lat="41.8942530" lon="-2.7745500">
        <ele>1088.3</ele>
        <time>2022-01-30T12:51:01Z</time>
      </trkpt>
      <trkpt lat="41.8942530" lon="-2.7745500">
        <ele>1088.3</ele>
        <time>2022-01-30T12:51:02Z</time>
      </trkpt>
      <trkpt lat="41.8942520" lon="-2.7745520">
        <ele>1088.3</ele>
        <time>2022-01-30T12:51:03Z</time>
      </trkpt>
      <trkpt lat="41.8942480" lon="-2.7745520">
        <ele>1088.3</ele>
        <time>2022-01-30T12:51:04Z</time>
      </trkpt>
      <trkpt lat="41.8942380" lon="-2.7745520">
        <ele>1088.3</ele>
        <time>2022-01-30T12:51:05Z</time>
      </trkpt>
      <trkpt lat="41.8942380" lon="-2.7745530">
        <ele>1088.3</ele>
        <time>2022-01-30T12:51:06Z</time>
      </trkpt>
      <trkpt lat="41.8942370" lon="-2.7745530">
        <ele>1088.3</ele>
        <time>2022-01-30T12:51:07Z</time>
      </trkpt>
      <trkpt lat="41.8942370" lon="-2.7745530">
        <ele>1088.3</ele>
        <time>2022-01-30T12:51:08Z</time>
      </trkpt>
      <trkpt lat="41.8942350" lon="-2.7745550">
        <ele>1088.3</ele>
        <time>2022-01-30T12:51:09Z</time>
      </trkpt>
      <trkpt lat="41.8942330" lon="-2.7745550">
        <ele>1088.3</ele>
        <time>2022-01-30T12:51:10Z</time>
      </trkpt>
      <trkpt lat="41.8942330" lon="-2.7745550">
        <ele>1088.3</ele>
        <time>2022-01-30T12:51:11Z</time>
      </trkpt>
      <trkpt lat="41.8942330" lon="-2.7745550">
        <ele>1088.3</ele>
        <time>2022-01-30T12:51:12Z</time>
      </trkpt>
      <trkpt lat="41.8942330" lon="-2.7745550">
        <ele>1088.3</ele>
        <time>2022-01-30T12:51:13Z</time>
      </trkpt>
      <trkpt lat="41.8942330" lon="-2.7745550">
        <ele>1088.3</ele>
        <time>2022-01-30T12:51:14Z</time>
      </trkpt>
      <trkpt lat="41.8942330" lon="-2.7745550">
        <ele>1088.3</ele>
        <time>2022-01-30T12:51:15Z</time>
      </trkpt>
      <trkpt lat="41.8942330" lon="-2.7745550">
        <ele>1088.3</ele>
        <time>2022-01-30T12:51:16Z</time>
      </trkpt>
      <trkpt lat="41.8942330" lon="-2.7745570">
        <ele>1088.3</ele>
        <time>2022-01-30T12:51:17Z</time>
      </trkpt>
      <trkpt lat="41.8942350" lon="-2.7745630">
        <ele>1088.3</ele>
        <time>2022-01-30T12:51:18Z</time>
      </trkpt>
      <trkpt lat="41.8942370" lon="-2.7745700">
        <ele>1088.2</ele>
        <time>2022-01-30T12:51:19Z</time>
      </trkpt>
      <trkpt lat="41.8942370" lon="-2.7745730">
        <ele>1088.2</ele>
        <time>2022-01-30T12:51:20Z</time>
      </trkpt>
      <trkpt lat="41.8942380" lon="-2.7745800">
        <ele>1088.2</ele>
        <time>2022-01-30T12:51:21Z</time>
      </trkpt>
      <trkpt lat="41.8942400" lon="-2.7745880">
        <ele>1088.2</ele>
        <time>2022-01-30T12:51:22Z</time>
      </trkpt>
      <trkpt lat="41.8942380" lon="-2.7745900">
        <ele>1088.2</ele>
        <time>2022-01-30T12:51:23Z</time>
      </trkpt>
      <trkpt lat="41.8942420" lon="-2.7745900">
        <ele>1088.2</ele>
        <time>2022-01-30T12:51:24Z</time>
      </trkpt>
      <trkpt lat="41.8942430" lon="-2.7745980">
        <ele>1088.2</ele>
        <time>2022-01-30T12:51:25Z</time>
      </trkpt>
      <trkpt lat="41.8942470" lon="-2.7746100">
        <ele>1088.2</ele>
        <time>2022-01-30T12:51:26Z</time>
      </trkpt>
      <trkpt lat="41.8942500" lon="-2.7746230">
        <ele>1088.2</ele>
        <time>2022-01-30T12:51:27Z</time>
      </trkpt>
      <trkpt lat="41.8942550" lon="-2.7746270">
        <ele>1088.2</ele>
        <time>2022-01-30T12:51:28Z</time>
      </trkpt>
      <trkpt lat="41.8942620" lon="-2.7746280">
        <ele>1088.1</ele>
        <time>2022-01-30T12:51:29Z</time>
      </trkpt>
      <trkpt lat="41.8942800" lon="-2.7746400">
        <ele>1088.1</ele>
        <time>2022-01-30T12:51:30Z</time>
      </trkpt>
      <trkpt lat="41.8942880" lon="-2.7746500">
        <ele>1088.1</ele>
        <time>2022-01-30T12:51:31Z</time>
      </trkpt>
      <trkpt lat="41.8942950" lon="-2.7746620">
        <ele>1088.1</ele>
        <time>2022-01-30T12:51:32Z</time>
      </trkpt>
      <trkpt lat="41.8943000" lon="-2.7746780">
        <ele>1088.1</ele>
        <time>2022-01-30T12:51:33Z</time>
      </trkpt>
      <trkpt lat="41.8943050" lon="-2.7746970">
        <ele>1088.1</ele>
        <time>2022-01-30T12:51:34Z</time>
      </trkpt>
      <trkpt lat="41.8943100" lon="-2.7747130">
        <ele>1088.0</ele>
        <time>2022-01-30T12:51:35Z</time>
      </trkpt>
      <trkpt lat="41.8943170" lon="-2.7747270">
        <ele>1088.0</ele>
        <time>2022-01-30T12:51:36Z</time>
      </trkpt>
      <trkpt lat="41.8943220" lon="-2.7747430">
        <ele>1088.0</ele>
        <time>2022-01-30T12:51:37Z</time>
      </trkpt>
      <trkpt lat="41.8943230" lon="-2.7747580">
        <ele>1088.0</ele>
        <time>2022-01-30T12:51:38Z</time>
      </trkpt>
      <trkpt lat="41.8943220" lon="-2.7747770">
        <ele>1088.0</ele>
        <time>2022-01-30T12:51:39Z</time>
      </trkpt>
      <trkpt lat="41.8943150" lon="-2.7747980">
        <ele>1088.0</ele>
        <time>2022-01-30T12:51:40Z</time>
      </trkpt>
      <trkpt lat="41.8943050" lon="-2.7748250">
        <ele>1088.0</ele>
        <time>2022-01-30T12:51:41Z</time>
      </trkpt>
      <trkpt lat="41.8942930" lon="-2.7748570">
        <ele>1088.0</ele>
        <time>2022-01-30T12:51:42Z</time>
      </trkpt>
      <trkpt lat="41.8942850" lon="-2.7748930">
        <ele>1088.0</ele>
        <time>2022-01-30T12:51:43Z</time>
      </trkpt>
      <trkpt lat="41.8942770" lon="-2.7749300">
        <ele>1088.0</ele>
        <time>2022-01-30T12:51:44Z</time>
      </trkpt>
      <trkpt lat="41.8942720" lon="-2.7749630">
        <ele>1088.0</ele>
        <time>2022-01-30T12:51:45Z</time>
      </trkpt>
      <trkpt lat="41.8942650" lon="-2.7750000">
        <ele>1087.9</ele>
        <time>2022-01-30T12:51:46Z</time>
      </trkpt>
      <trkpt lat="41.8942580" lon="-2.7750380">
        <ele>1087.9</ele>
        <time>2022-01-30T12:51:47Z</time>
      </trkpt>
      <trkpt lat="41.8942520" lon="-2.7750730">
        <ele>1087.9</ele>
        <time>2022-01-30T12:51:48Z</time>
      </trkpt>
      <trkpt lat="41.8942420" lon="-2.7751130">
        <ele>1087.9</ele>
        <time>2022-01-30T12:51:49Z</time>
      </trkpt>
      <trkpt lat="41.8942270" lon="-2.7751500">
        <ele>1087.9</ele>
        <time>2022-01-30T12:51:50Z</time>
      </trkpt>
      <trkpt lat="41.8942120" lon="-2.7751870">
        <ele>1087.8</ele>
        <time>2022-01-30T12:51:51Z</time>
      </trkpt>
      <trkpt lat="41.8941970" lon="-2.7752320">
        <ele>1087.8</ele>
        <time>2022-01-30T12:51:52Z</time>
      </trkpt>
      <trkpt lat="41.8941800" lon="-2.7752780">
        <ele>1087.9</ele>
        <time>2022-01-30T12:51:53Z</time>
      </trkpt>
      <trkpt lat="41.8941620" lon="-2.7753220">
        <ele>1087.9</ele>
        <time>2022-01-30T12:51:54Z</time>
      </trkpt>
      <trkpt lat="41.8941420" lon="-2.7753620">
        <ele>1088.0</ele>
        <time>2022-01-30T12:51:55Z</time>
      </trkpt>
      <trkpt lat="41.8941180" lon="-2.7753970">
        <ele>1088.0</ele>
        <time>2022-01-30T12:51:56Z</time>
      </trkpt>
      <trkpt lat="41.8940950" lon="-2.7754330">
        <ele>1088.1</ele>
        <time>2022-01-30T12:51:57Z</time>
      </trkpt>
      <trkpt lat="41.8940800" lon="-2.7754750">
        <ele>1088.2</ele>
        <time>2022-01-30T12:51:58Z</time>
      </trkpt>
      <trkpt lat="41.8940680" lon="-2.7755220">
        <ele>1088.3</ele>
        <time>2022-01-30T12:51:59Z</time>
      </trkpt>
      <trkpt lat="41.8940520" lon="-2.7755670">
        <ele>1088.4</ele>
        <time>2022-01-30T12:52:00Z</time>
      </trkpt>
      <trkpt lat="41.8940370" lon="-2.7756130">
        <ele>1088.6</ele>
        <time>2022-01-30T12:52:01Z</time>
      </trkpt>
      <trkpt lat="41.8940200" lon="-2.7756580">
        <ele>1088.8</ele>
        <time>2022-01-30T12:52:02Z</time>
      </trkpt>
      <trkpt lat="41.8940020" lon="-2.7756930">
        <ele>1088.9</ele>
        <time>2022-01-30T12:52:03Z</time>
      </trkpt>
      <trkpt lat="41.8939800" lon="-2.7757320">
        <ele>1089.1</ele>
        <time>2022-01-30T12:52:04Z</time>
      </trkpt>
      <trkpt lat="41.8939580" lon="-2.7757680">
        <ele>1089.3</ele>
        <time>2022-01-30T12:52:05Z</time>
      </trkpt>
      <trkpt lat="41.8939350" lon="-2.7758030">
        <ele>1089.5</ele>
        <time>2022-01-30T12:52:06Z</time>
      </trkpt>
      <trkpt lat="41.8939150" lon="-2.7758330">
        <ele>1089.6</ele>
        <time>2022-01-30T12:52:07Z</time>
      </trkpt>
      <trkpt lat="41.8938970" lon="-2.7758620">
        <ele>1089.8</ele>
        <time>2022-01-30T12:52:08Z</time>
      </trkpt>
      <trkpt lat="41.8938850" lon="-2.7758900">
        <ele>1089.9</ele>
        <time>2022-01-30T12:52:09Z</time>
      </trkpt>
      <trkpt lat="41.8938850" lon="-2.7759150">
        <ele>1090.1</ele>
        <time>2022-01-30T12:52:10Z</time>
      </trkpt>
      <trkpt lat="41.8938950" lon="-2.7759400">
        <ele>1090.4</ele>
        <time>2022-01-30T12:52:11Z</time>
      </trkpt>
      <trkpt lat="41.8939150" lon="-2.7759630">
        <ele>1090.6</ele>
        <time>2022-01-30T12:52:12Z</time>
      </trkpt>
      <trkpt lat="41.8939380" lon="-2.7759780">
        <ele>1090.9</ele>
        <time>2022-01-30T12:52:13Z</time>
      </trkpt>
      <trkpt lat="41.8939650" lon="-2.7759920">
        <ele>1091.2</ele>
        <time>2022-01-30T12:52:14Z</time>
      </trkpt>
      <trkpt lat="41.8940000" lon="-2.7760200">
        <ele>1091.6</ele>
        <time>2022-01-30T12:52:15Z</time>
      </trkpt>
      <trkpt lat="41.8940250" lon="-2.7760470">
        <ele>1091.9</ele>
        <time>2022-01-30T12:52:16Z</time>
      </trkpt>
      <trkpt lat="41.8940580" lon="-2.7760680">
        <ele>1092.1</ele>
        <time>2022-01-30T12:52:17Z</time>
      </trkpt>
      <trkpt lat="41.8940920" lon="-2.7760880">
        <ele>1092.3</ele>
        <time>2022-01-30T12:52:18Z</time>
      </trkpt>
      <trkpt lat="41.8941130" lon="-2.7760980">
        <ele>1092.5</ele>
        <time>2022-01-30T12:52:19Z</time>
      </trkpt>
      <trkpt lat="41.8941400" lon="-2.7761170">
        <ele>1092.6</ele>
        <time>2022-01-30T12:52:20Z</time>
      </trkpt>
      <trkpt lat="41.8941670" lon="-2.7761300">
        <ele>1092.7</ele>
        <time>2022-01-30T12:52:21Z</time>
      </trkpt>
      <trkpt lat="41.8941930" lon="-2.7761470">
        <ele>1092.9</ele>
        <time>2022-01-30T12:52:22Z</time>
      </trkpt>
      <trkpt lat="41.8942170" lon="-2.7761600">
        <ele>1093.0</ele>
        <time>2022-01-30T12:52:23Z</time>
      </trkpt>
      <trkpt lat="41.8942470" lon="-2.7761780">
        <ele>1093.1</ele>
        <time>2022-01-30T12:52:24Z</time>
      </trkpt>
      <trkpt lat="41.8942650" lon="-2.7761930">
        <ele>1093.2</ele>
        <time>2022-01-30T12:52:25Z</time>
      </trkpt>
      <trkpt lat="41.8942920" lon="-2.7762130">
        <ele>1093.3</ele>
        <time>2022-01-30T12:52:26Z</time>
      </trkpt>
      <trkpt lat="41.8943230" lon="-2.7762330">
        <ele>1093.4</ele>
        <time>2022-01-30T12:52:27Z</time>
      </trkpt>
      <trkpt lat="41.8943520" lon="-2.7762500">
        <ele>1093.5</ele>
        <time>2022-01-30T12:52:28Z</time>
      </trkpt>
      <trkpt lat="41.8943830" lon="-2.7762770">
        <ele>1093.7</ele>
        <time>2022-01-30T12:52:29Z</time>
      </trkpt>
      <trkpt lat="41.8944150" lon="-2.7763000">
        <ele>1093.8</ele>
        <time>2022-01-30T12:52:30Z</time>
      </trkpt>
      <trkpt lat="41.8944470" lon="-2.7763230">
        <ele>1094.0</ele>
        <time>2022-01-30T12:52:31Z</time>
      </trkpt>
      <trkpt lat="41.8944770" lon="-2.7763450">
        <ele>1093.9</ele>
        <time>2022-01-30T12:52:32Z</time>
      </trkpt>
      <trkpt lat="41.8945020" lon="-2.7763620">
        <ele>1093.9</ele>
        <time>2022-01-30T12:52:33Z</time>
      </trkpt>
      <trkpt lat="41.8945230" lon="-2.7763700">
        <ele>1093.8</ele>
        <time>2022-01-30T12:52:34Z</time>
      </trkpt>
      <trkpt lat="41.8945420" lon="-2.7763720">
        <ele>1092.8</ele>
        <time>2022-01-30T12:52:35Z</time>
      </trkpt>
      <trkpt lat="41.8945580" lon="-2.7763620">
        <ele>1092.8</ele>
        <time>2022-01-30T12:52:36Z</time>
      </trkpt>
      <trkpt lat="41.8945720" lon="-2.7763320">
        <ele>1092.7</ele>
        <time>2022-01-30T12:52:37Z</time>
      </trkpt>
      <trkpt lat="41.8945920" lon="-2.7763050">
        <ele>1092.7</ele>
        <time>2022-01-30T12:52:38Z</time>
      </trkpt>
      <trkpt lat="41.8946080" lon="-2.7762630">
        <ele>1092.6</ele>
        <time>2022-01-30T12:52:39Z</time>
      </trkpt>
      <trkpt lat="41.8946230" lon="-2.7762080">
        <ele>1092.6</ele>
        <time>2022-01-30T12:52:40Z</time>
      </trkpt>
      <trkpt lat="41.8946380" lon="-2.7761500">
        <ele>1092.5</ele>
        <time>2022-01-30T12:52:41Z</time>
      </trkpt>
      <trkpt lat="41.8946520" lon="-2.7760900">
        <ele>1092.5</ele>
        <time>2022-01-30T12:52:42Z</time>
      </trkpt>
      <trkpt lat="41.8946670" lon="-2.7760130">
        <ele>1092.5</ele>
        <time>2022-01-30T12:52:43Z</time>
      </trkpt>
      <trkpt lat="41.8946770" lon="-2.7759630">
        <ele>1092.5</ele>
        <time>2022-01-30T12:52:44Z</time>
      </trkpt>
      <trkpt lat="41.8946900" lon="-2.7758930">
        <ele>1092.5</ele>
        <time>2022-01-30T12:52:45Z</time>
      </trkpt>
      <trkpt lat="41.8946980" lon="-2.7758470">
        <ele>1092.5</ele>
        <time>2022-01-30T12:52:46Z</time>
      </trkpt>
      <trkpt lat="41.8947150" lon="-2.7757830">
        <ele>1092.6</ele>
        <time>2022-01-30T12:52:47Z</time>
      </trkpt>
      <trkpt lat="41.8947280" lon="-2.7757350">
        <ele>1092.6</ele>
        <time>2022-01-30T12:52:48Z</time>
      </trkpt>
      <trkpt lat="41.8947470" lon="-2.7756750">
        <ele>1092.7</ele>
        <time>2022-01-30T12:52:49Z</time>
      </trkpt>
      <trkpt lat="41.8947670" lon="-2.7756180">
        <ele>1092.7</ele>
        <time>2022-01-30T12:52:50Z</time>
      </trkpt>
      <trkpt lat="41.8947850" lon="-2.7755570">
        <ele>1092.8</ele>
        <time>2022-01-30T12:52:51Z</time>
      </trkpt>
      <trkpt lat="41.8948050" lon="-2.7754970">
        <ele>1092.8</ele>
        <time>2022-01-30T12:52:52Z</time>
      </trkpt>
      <trkpt lat="41.8948250" lon="-2.7754400">
        <ele>1092.9</ele>
        <time>2022-01-30T12:52:53Z</time>
      </trkpt>
      <trkpt lat="41.8948430" lon="-2.7753820">
        <ele>1092.9</ele>
        <time>2022-01-30T12:52:54Z</time>
      </trkpt>
      <trkpt lat="41.8948620" lon="-2.7753220">
        <ele>1092.9</ele>
        <time>2022-01-30T12:52:55Z</time>
      </trkpt>
      <trkpt lat="41.8948780" lon="-2.7752620">
        <ele>1092.9</ele>
        <time>2022-01-30T12:52:56Z</time>
      </trkpt>
      <trkpt lat="41.8948950" lon="-2.7751980">
        <ele>1092.9</ele>
        <time>2022-01-30T12:52:57Z</time>
      </trkpt>
      <trkpt lat="41.8949120" lon="-2.7751370">
        <ele>1092.9</ele>
        <time>2022-01-30T12:52:58Z</time>
      </trkpt>
      <trkpt lat="41.8949300" lon="-2.7750820">
        <ele>1092.9</ele>
        <time>2022-01-30T12:52:59Z</time>
      </trkpt>
      <trkpt lat="41.8949530" lon="-2.7750280">
        <ele>1092.9</ele>
        <time>2022-01-30T12:53:00Z</time>
      </trkpt>
      <trkpt lat="41.8949730" lon="-2.7749770">
        <ele>1092.8</ele>
        <time>2022-01-30T12:53:01Z</time>
      </trkpt>
      <trkpt lat="41.8949920" lon="-2.7749270">
        <ele>1092.8</ele>
        <time>2022-01-30T12:53:02Z</time>
      </trkpt>
      <trkpt lat="41.8950070" lon="-2.7748870">
        <ele>1092.7</ele>
        <time>2022-01-30T12:53:03Z</time>
      </trkpt>
      <trkpt lat="41.8950180" lon="-2.7748600">
        <ele>1092.6</ele>
        <time>2022-01-30T12:53:04Z</time>
      </trkpt>
      <trkpt lat="41.8950220" lon="-2.7748430">
        <ele>1092.6</ele>
        <time>2022-01-30T12:53:05Z</time>
      </trkpt>
      <trkpt lat="41.8950200" lon="-2.7748350">
        <ele>1092.6</ele>
        <time>2022-01-30T12:53:06Z</time>
      </trkpt>
      <trkpt lat="41.8950220" lon="-2.7748280">
        <ele>1092.6</ele>
        <time>2022-01-30T12:53:07Z</time>
      </trkpt>
      <trkpt lat="41.8950230" lon="-2.7748230">
        <ele>1092.6</ele>
        <time>2022-01-30T12:53:08Z</time>
      </trkpt>
      <trkpt lat="41.8950280" lon="-2.7748130">
        <ele>1092.6</ele>
        <time>2022-01-30T12:53:09Z</time>
      </trkpt>
      <trkpt lat="41.8950320" lon="-2.7748100">
        <ele>1092.6</ele>
        <time>2022-01-30T12:53:10Z</time>
      </trkpt>
      <trkpt lat="41.8950350" lon="-2.7748030">
        <ele>1092.5</ele>
        <time>2022-01-30T12:53:11Z</time>
      </trkpt>
      <trkpt lat="41.8950330" lon="-2.7747920">
        <ele>1092.5</ele>
        <time>2022-01-30T12:53:12Z</time>
      </trkpt>
      <trkpt lat="41.8950330" lon="-2.7747780">
        <ele>1092.5</ele>
        <time>2022-01-30T12:53:13Z</time>
      </trkpt>
      <trkpt lat="41.8950370" lon="-2.7747700">
        <ele>1092.5</ele>
        <time>2022-01-30T12:53:14Z</time>
      </trkpt>
      <trkpt lat="41.8950430" lon="-2.7747680">
        <ele>1092.5</ele>
        <time>2022-01-30T12:53:15Z</time>
      </trkpt>
      <trkpt lat="41.8950480" lon="-2.7747720">
        <ele>1092.4</ele>
        <time>2022-01-30T12:53:16Z</time>
      </trkpt>
      <trkpt lat="41.8950530" lon="-2.7747780">
        <ele>1092.4</ele>
        <time>2022-01-30T12:53:17Z</time>
      </trkpt>
      <trkpt lat="41.8950550" lon="-2.7747800">
        <ele>1092.4</ele>
        <time>2022-01-30T12:53:18Z</time>
      </trkpt>
      <trkpt lat="41.8950630" lon="-2.7748020">
        <ele>1092.4</ele>
        <time>2022-01-30T12:53:19Z</time>
      </trkpt>
      <trkpt lat="41.8950550" lon="-2.7747770">
        <ele>1092.3</ele>
        <time>2022-01-30T12:53:20Z</time>
      </trkpt>
      <trkpt lat="41.8950480" lon="-2.7747530">
        <ele>1092.3</ele>
        <time>2022-01-30T12:53:21Z</time>
      </trkpt>
      <trkpt lat="41.8950430" lon="-2.7747430">
        <ele>1092.2</ele>
        <time>2022-01-30T12:53:22Z</time>
      </trkpt>
      <trkpt lat="41.8950450" lon="-2.7747400">
        <ele>1092.2</ele>
        <time>2022-01-30T12:53:23Z</time>
      </trkpt>
      <trkpt lat="41.8950500" lon="-2.7747320">
        <ele>1092.2</ele>
        <time>2022-01-30T12:53:24Z</time>
      </trkpt>
      <trkpt lat="41.8950550" lon="-2.7747180">
        <ele>1092.2</ele>
        <time>2022-01-30T12:53:25Z</time>
      </trkpt>
      <trkpt lat="41.8950600" lon="-2.7747030">
        <ele>1092.1</ele>
        <time>2022-01-30T12:53:26Z</time>
      </trkpt>
      <trkpt lat="41.8950650" lon="-2.7746850">
        <ele>1092.1</ele>
        <time>2022-01-30T12:53:27Z</time>
      </trkpt>
      <trkpt lat="41.8950750" lon="-2.7746600">
        <ele>1092.1</ele>
        <time>2022-01-30T12:53:28Z</time>
      </trkpt>
      <trkpt lat="41.8950830" lon="-2.7746380">
        <ele>1092.0</ele>
        <time>2022-01-30T12:53:29Z</time>
      </trkpt>
      <trkpt lat="41.8950920" lon="-2.7746230">
        <ele>1092.0</ele>
        <time>2022-01-30T12:53:30Z</time>
      </trkpt>
      <trkpt lat="41.8951080" lon="-2.7745950">
        <ele>1091.9</ele>
        <time>2022-01-30T12:53:31Z</time>
      </trkpt>
      <trkpt lat="41.8951220" lon="-2.7745730">
        <ele>1091.8</ele>
        <time>2022-01-30T12:53:32Z</time>
      </trkpt>
      <trkpt lat="41.8951430" lon="-2.7745430">
        <ele>1091.7</ele>
        <time>2022-01-30T12:53:33Z</time>
      </trkpt>
      <trkpt lat="41.8951580" lon="-2.7745230">
        <ele>1091.7</ele>
        <time>2022-01-30T12:53:34Z</time>
      </trkpt>
      <trkpt lat="41.8951730" lon="-2.7744920">
        <ele>1091.6</ele>
        <time>2022-01-30T12:53:35Z</time>
      </trkpt>
      <trkpt lat="41.8951870" lon="-2.7744570">
        <ele>1091.5</ele>
        <time>2022-01-30T12:53:36Z</time>
      </trkpt>
      <trkpt lat="41.8952070" lon="-2.7744220">
        <ele>1091.4</ele>
        <time>2022-01-30T12:53:37Z</time>
      </trkpt>
      <trkpt lat="41.8952270" lon="-2.7743870">
        <ele>1091.4</ele>
        <time>2022-01-30T12:53:38Z</time>
      </trkpt>
      <trkpt lat="41.8952470" lon="-2.7743530">
        <ele>1091.3</ele>
        <time>2022-01-30T12:53:39Z</time>
      </trkpt>
      <trkpt lat="41.8952670" lon="-2.7743170">
        <ele>1091.2</ele>
        <time>2022-01-30T12:53:40Z</time>
      </trkpt>
      <trkpt lat="41.8952920" lon="-2.7742770">
        <ele>1091.0</ele>
        <time>2022-01-30T12:53:41Z</time>
      </trkpt>
      <trkpt lat="41.8953130" lon="-2.7742400">
        <ele>1090.9</ele>
        <time>2022-01-30T12:53:42Z</time>
      </trkpt>
      <trkpt lat="41.8953370" lon="-2.7742030">
        <ele>1090.8</ele>
        <time>2022-01-30T12:53:43Z</time>
      </trkpt>
      <trkpt lat="41.8953630" lon="-2.7741630">
        <ele>1090.7</ele>
        <time>2022-01-30T12:53:44Z</time>
      </trkpt>
      <trkpt lat="41.8953900" lon="-2.7741230">
        <ele>1090.6</ele>
        <time>2022-01-30T12:53:45Z</time>
      </trkpt>
      <trkpt lat="41.8954180" lon="-2.7740870">
        <ele>1090.4</ele>
        <time>2022-01-30T12:53:46Z</time>
      </trkpt>
      <trkpt lat="41.8954470" lon="-2.7740480">
        <ele>1090.3</ele>
        <time>2022-01-30T12:53:47Z</time>
      </trkpt>
      <trkpt lat="41.8954750" lon="-2.7740030">
        <ele>1090.1</ele>
        <time>2022-01-30T12:53:48Z</time>
      </trkpt>
      <trkpt lat="41.8955050" lon="-2.7739580">
        <ele>1089.9</ele>
        <time>2022-01-30T12:53:49Z</time>
      </trkpt>
      <trkpt lat="41.8955330" lon="-2.7739150">
        <ele>1089.8</ele>
        <time>2022-01-30T12:53:50Z</time>
      </trkpt>
      <trkpt lat="41.8955620" lon="-2.7738700">
        <ele>1089.6</ele>
        <time>2022-01-30T12:53:51Z</time>
      </trkpt>
      <trkpt lat="41.8955970" lon="-2.7738130">
        <ele>1089.4</ele>
        <time>2022-01-30T12:53:52Z</time>
      </trkpt>
      <trkpt lat="41.8956200" lon="-2.7737780">
        <ele>1089.3</ele>
        <time>2022-01-30T12:53:53Z</time>
      </trkpt>
      <trkpt lat="41.8956500" lon="-2.7737300">
        <ele>1089.2</ele>
        <time>2022-01-30T12:53:54Z</time>
      </trkpt>
      <trkpt lat="41.8956830" lon="-2.7736850">
        <ele>1089.0</ele>
        <time>2022-01-30T12:53:55Z</time>
      </trkpt>
      <trkpt lat="41.8957180" lon="-2.7736430">
        <ele>1088.9</ele>
        <time>2022-01-30T12:53:56Z</time>
      </trkpt>
      <trkpt lat="41.8957520" lon="-2.7735950">
        <ele>1088.8</ele>
        <time>2022-01-30T12:53:57Z</time>
      </trkpt>
      <trkpt lat="41.8957850" lon="-2.7735480">
        <ele>1088.6</ele>
        <time>2022-01-30T12:53:58Z</time>
      </trkpt>
      <trkpt lat="41.8958180" lon="-2.7734980">
        <ele>1088.5</ele>
        <time>2022-01-30T12:53:59Z</time>
      </trkpt>
      <trkpt lat="41.8958550" lon="-2.7734430">
        <ele>1088.4</ele>
        <time>2022-01-30T12:54:00Z</time>
      </trkpt>
      <trkpt lat="41.8958750" lon="-2.7734050">
        <ele>1088.4</ele>
        <time>2022-01-30T12:54:01Z</time>
      </trkpt>
      <trkpt lat="41.8959030" lon="-2.7733600">
        <ele>1088.3</ele>
        <time>2022-01-30T12:54:02Z</time>
      </trkpt>
      <trkpt lat="41.8959300" lon="-2.7733200">
        <ele>1088.2</ele>
        <time>2022-01-30T12:54:03Z</time>
      </trkpt>
      <trkpt lat="41.8959500" lon="-2.7732780">
        <ele>1088.2</ele>
        <time>2022-01-30T12:54:04Z</time>
      </trkpt>
      <trkpt lat="41.8959600" lon="-2.7732350">
        <ele>1088.1</ele>
        <time>2022-01-30T12:54:05Z</time>
      </trkpt>
      <trkpt lat="41.8959570" lon="-2.7732000">
        <ele>1088.1</ele>
        <time>2022-01-30T12:54:06Z</time>
      </trkpt>
      <trkpt lat="41.8959420" lon="-2.7731570">
        <ele>1088.0</ele>
        <time>2022-01-30T12:54:07Z</time>
      </trkpt>
      <trkpt lat="41.8959300" lon="-2.7731080">
        <ele>1088.0</ele>
        <time>2022-01-30T12:54:08Z</time>
      </trkpt>
      <trkpt lat="41.8959320" lon="-2.7730530">
        <ele>1087.9</ele>
        <time>2022-01-30T12:54:09Z</time>
      </trkpt>
      <trkpt lat="41.8959450" lon="-2.7729950">
        <ele>1087.9</ele>
        <time>2022-01-30T12:54:10Z</time>
      </trkpt>
      <trkpt lat="41.8959670" lon="-2.7729350">
        <ele>1087.8</ele>
        <time>2022-01-30T12:54:11Z</time>
      </trkpt>
      <trkpt lat="41.8959930" lon="-2.7728730">
        <ele>1087.8</ele>
        <time>2022-01-30T12:54:12Z</time>
      </trkpt>
      <trkpt lat="41.8960220" lon="-2.7728120">
        <ele>1087.7</ele>
        <time>2022-01-30T12:54:13Z</time>
      </trkpt>
      <trkpt lat="41.8960480" lon="-2.7727500">
        <ele>1087.7</ele>
        <time>2022-01-30T12:54:14Z</time>
      </trkpt>
      <trkpt lat="41.8960750" lon="-2.7726870">
        <ele>1087.7</ele>
        <time>2022-01-30T12:54:15Z</time>
      </trkpt>
      <trkpt lat="41.8960970" lon="-2.7726220">
        <ele>1087.8</ele>
        <time>2022-01-30T12:54:16Z</time>
      </trkpt>
      <trkpt lat="41.8961200" lon="-2.7725630">
        <ele>1087.8</ele>
        <time>2022-01-30T12:54:17Z</time>
      </trkpt>
      <trkpt lat="41.8961430" lon="-2.7725080">
        <ele>1087.9</ele>
        <time>2022-01-30T12:54:18Z</time>
      </trkpt>
      <trkpt lat="41.8961670" lon="-2.7724550">
        <ele>1088.0</ele>
        <time>2022-01-30T12:54:19Z</time>
      </trkpt>
      <trkpt lat="41.8961880" lon="-2.7724070">
        <ele>1088.1</ele>
        <time>2022-01-30T12:54:20Z</time>
      </trkpt>
      <trkpt lat="41.8962080" lon="-2.7723550">
        <ele>1088.2</ele>
        <time>2022-01-30T12:54:21Z</time>
      </trkpt>
      <trkpt lat="41.8962250" lon="-2.7723050">
        <ele>1088.3</ele>
        <time>2022-01-30T12:54:22Z</time>
      </trkpt>
      <trkpt lat="41.8962370" lon="-2.7722550">
        <ele>1088.3</ele>
        <time>2022-01-30T12:54:23Z</time>
      </trkpt>
      <trkpt lat="41.8962450" lon="-2.7722050">
        <ele>1088.3</ele>
        <time>2022-01-30T12:54:24Z</time>
      </trkpt>
      <trkpt lat="41.8962550" lon="-2.7721570">
        <ele>1087.6</ele>
        <time>2022-01-30T12:54:25Z</time>
      </trkpt>
      <trkpt lat="41.8962650" lon="-2.7721070">
        <ele>1087.6</ele>
        <time>2022-01-30T12:54:26Z</time>
      </trkpt>
      <trkpt lat="41.8962720" lon="-2.7720600">
        <ele>1088.6</ele>
        <time>2022-01-30T12:54:27Z</time>
      </trkpt>
      <trkpt lat="41.8962800" lon="-2.7720120">
        <ele>1088.6</ele>
        <time>2022-01-30T12:54:28Z</time>
      </trkpt>
      <trkpt lat="41.8962850" lon="-2.7719670">
        <ele>1087.6</ele>
        <time>2022-01-30T12:54:29Z</time>
      </trkpt>
      <trkpt lat="41.8962920" lon="-2.7719180">
        <ele>1087.6</ele>
        <time>2022-01-30T12:54:30Z</time>
      </trkpt>
      <trkpt lat="41.8963000" lon="-2.7718700">
        <ele>1087.6</ele>
        <time>2022-01-30T12:54:31Z</time>
      </trkpt>
      <trkpt lat="41.8963080" lon="-2.7718200">
        <ele>1087.6</ele>
        <time>2022-01-30T12:54:32Z</time>
      </trkpt>
      <trkpt lat="41.8963180" lon="-2.7717700">
        <ele>1086.6</ele>
        <time>2022-01-30T12:54:33Z</time>
      </trkpt>
      <trkpt lat="41.8963300" lon="-2.7717220">
        <ele>1086.6</ele>
        <time>2022-01-30T12:54:34Z</time>
      </trkpt>
      <trkpt lat="41.8963380" lon="-2.7716730">
        <ele>1086.6</ele>
        <time>2022-01-30T12:54:35Z</time>
      </trkpt>
      <trkpt lat="41.8963380" lon="-2.7716320">
        <ele>1085.4</ele>
        <time>2022-01-30T12:54:36Z</time>
      </trkpt>
      <trkpt lat="41.8963320" lon="-2.7715970">
        <ele>1085.4</ele>
        <time>2022-01-30T12:54:37Z</time>
      </trkpt>
      <trkpt lat="41.8963180" lon="-2.7715650">
        <ele>1085.4</ele>
        <time>2022-01-30T12:54:38Z</time>
      </trkpt>
      <trkpt lat="41.8963050" lon="-2.7715380">
        <ele>1085.4</ele>
        <time>2022-01-30T12:54:39Z</time>
      </trkpt>
      <trkpt lat="41.8962950" lon="-2.7715100">
        <ele>1085.4</ele>
        <time>2022-01-30T12:54:40Z</time>
      </trkpt>
      <trkpt lat="41.8962920" lon="-2.7714850">
        <ele>1085.4</ele>
        <time>2022-01-30T12:54:41Z</time>
      </trkpt>
      <trkpt lat="41.8962930" lon="-2.7714580">
        <ele>1084.4</ele>
        <time>2022-01-30T12:54:42Z</time>
      </trkpt>
      <trkpt lat="41.8963000" lon="-2.7714280">
        <ele>1084.4</ele>
        <time>2022-01-30T12:54:43Z</time>
      </trkpt>
      <trkpt lat="41.8963120" lon="-2.7713830">
        <ele>1084.4</ele>
        <time>2022-01-30T12:54:44Z</time>
      </trkpt>
      <trkpt lat="41.8963270" lon="-2.7713350">
        <ele>1084.4</ele>
        <time>2022-01-30T12:54:45Z</time>
      </trkpt>
      <trkpt lat="41.8963430" lon="-2.7712920">
        <ele>1083.6</ele>
        <time>2022-01-30T12:54:46Z</time>
      </trkpt>
      <trkpt lat="41.8963630" lon="-2.7712530">
        <ele>1083.6</ele>
        <time>2022-01-30T12:54:47Z</time>
      </trkpt>
      <trkpt lat="41.8963870" lon="-2.7712170">
        <ele>1083.6</ele>
        <time>2022-01-30T12:54:48Z</time>
      </trkpt>
      <trkpt lat="41.8964120" lon="-2.7711920">
        <ele>1084.6</ele>
        <time>2022-01-30T12:54:49Z</time>
      </trkpt>
      <trkpt lat="41.8964370" lon="-2.7711720">
        <ele>1084.6</ele>
        <time>2022-01-30T12:54:50Z</time>
      </trkpt>
      <trkpt lat="41.8964620" lon="-2.7711520">
        <ele>1084.6</ele>
        <time>2022-01-30T12:54:51Z</time>
      </trkpt>
      <trkpt lat="41.8964870" lon="-2.7711320">
        <ele>1084.6</ele>
        <time>2022-01-30T12:54:52Z</time>
      </trkpt>
      <trkpt lat="41.8965130" lon="-2.7711150">
        <ele>1084.1</ele>
        <time>2022-01-30T12:54:53Z</time>
      </trkpt>
      <trkpt lat="41.8965430" lon="-2.7711000">
        <ele>1085.2</ele>
        <time>2022-01-30T12:54:54Z</time>
      </trkpt>
      <trkpt lat="41.8965720" lon="-2.7710880">
        <ele>1085.2</ele>
        <time>2022-01-30T12:54:55Z</time>
      </trkpt>
      <trkpt lat="41.8966000" lon="-2.7710750">
        <ele>1085.2</ele>
        <time>2022-01-30T12:54:56Z</time>
      </trkpt>
      <trkpt lat="41.8966270" lon="-2.7710580">
        <ele>1085.2</ele>
        <time>2022-01-30T12:54:57Z</time>
      </trkpt>
      <trkpt lat="41.8966520" lon="-2.7710400">
        <ele>1085.2</ele>
        <time>2022-01-30T12:54:58Z</time>
      </trkpt>
      <trkpt lat="41.8966730" lon="-2.7710200">
        <ele>1086.5</ele>
        <time>2022-01-30T12:54:59Z</time>
      </trkpt>
      <trkpt lat="41.8966930" lon="-2.7709920">
        <ele>1086.5</ele>
        <time>2022-01-30T12:55:00Z</time>
      </trkpt>
      <trkpt lat="41.8967130" lon="-2.7709580">
        <ele>1086.5</ele>
        <time>2022-01-30T12:55:01Z</time>
      </trkpt>
      <trkpt lat="41.8967330" lon="-2.7709250">
        <ele>1086.1</ele>
        <time>2022-01-30T12:55:02Z</time>
      </trkpt>
      <trkpt lat="41.8967580" lon="-2.7708850">
        <ele>1086.1</ele>
        <time>2022-01-30T12:55:03Z</time>
      </trkpt>
      <trkpt lat="41.8967870" lon="-2.7708480">
        <ele>1087.0</ele>
        <time>2022-01-30T12:55:04Z</time>
      </trkpt>
      <trkpt lat="41.8968130" lon="-2.7708120">
        <ele>1087.0</ele>
        <time>2022-01-30T12:55:05Z</time>
      </trkpt>
      <trkpt lat="41.8968470" lon="-2.7707850">
        <ele>1086.6</ele>
        <time>2022-01-30T12:55:06Z</time>
      </trkpt>
      <trkpt lat="41.8968780" lon="-2.7707580">
        <ele>1086.6</ele>
        <time>2022-01-30T12:55:07Z</time>
      </trkpt>
      <trkpt lat="41.8969120" lon="-2.7707280">
        <ele>1087.5</ele>
        <time>2022-01-30T12:55:08Z</time>
      </trkpt>
      <trkpt lat="41.8969470" lon="-2.7706980">
        <ele>1087.5</ele>
        <time>2022-01-30T12:55:09Z</time>
      </trkpt>
      <trkpt lat="41.8969820" lon="-2.7706720">
        <ele>1087.5</ele>
        <time>2022-01-30T12:55:10Z</time>
      </trkpt>
      <trkpt lat="41.8970170" lon="-2.7706430">
        <ele>1087.5</ele>
        <time>2022-01-30T12:55:11Z</time>
      </trkpt>
      <trkpt lat="41.8970480" lon="-2.7706050">
        <ele>1088.6</ele>
        <time>2022-01-30T12:55:12Z</time>
      </trkpt>
      <trkpt lat="41.8970770" lon="-2.7705670">
        <ele>1088.6</ele>
        <time>2022-01-30T12:55:13Z</time>
      </trkpt>
      <trkpt lat="41.8971050" lon="-2.7705270">
        <ele>1088.6</ele>
        <time>2022-01-30T12:55:14Z</time>
      </trkpt>
      <trkpt lat="41.8971330" lon="-2.7704850">
        <ele>1088.6</ele>
        <time>2022-01-30T12:55:15Z</time>
      </trkpt>
      <trkpt lat="41.8971600" lon="-2.7704400">
        <ele>1089.0</ele>
        <time>2022-01-30T12:55:16Z</time>
      </trkpt>
      <trkpt lat="41.8971870" lon="-2.7703930">
        <ele>1090.1</ele>
        <time>2022-01-30T12:55:17Z</time>
      </trkpt>
      <trkpt lat="41.8972130" lon="-2.7703470">
        <ele>1090.1</ele>
        <time>2022-01-30T12:55:18Z</time>
      </trkpt>
      <trkpt lat="41.8972370" lon="-2.7703020">
        <ele>1090.1</ele>
        <time>2022-01-30T12:55:19Z</time>
      </trkpt>
      <trkpt lat="41.8972570" lon="-2.7702530">
        <ele>1089.8</ele>
        <time>2022-01-30T12:55:20Z</time>
      </trkpt>
      <trkpt lat="41.8972750" lon="-2.7702080">
        <ele>1089.8</ele>
        <time>2022-01-30T12:55:21Z</time>
      </trkpt>
      <trkpt lat="41.8972970" lon="-2.7701620">
        <ele>1090.6</ele>
        <time>2022-01-30T12:55:22Z</time>
      </trkpt>
      <trkpt lat="41.8973200" lon="-2.7701150">
        <ele>1090.6</ele>
        <time>2022-01-30T12:55:23Z</time>
      </trkpt>
      <trkpt lat="41.8973470" lon="-2.7700700">
        <ele>1089.5</ele>
        <time>2022-01-30T12:55:24Z</time>
      </trkpt>
      <trkpt lat="41.8973720" lon="-2.7700270">
        <ele>1089.5</ele>
        <time>2022-01-30T12:55:25Z</time>
      </trkpt>
      <trkpt lat="41.8974000" lon="-2.7699870">
        <ele>1089.5</ele>
        <time>2022-01-30T12:55:26Z</time>
      </trkpt>
      <trkpt lat="41.8974300" lon="-2.7699470">
        <ele>1090.2</ele>
        <time>2022-01-30T12:55:27Z</time>
      </trkpt>
      <trkpt lat="41.8974600" lon="-2.7699080">
        <ele>1088.5</ele>
        <time>2022-01-30T12:55:28Z</time>
      </trkpt>
      <trkpt lat="41.8974600" lon="-2.7699080">
        <ele>1088.5</ele>
        <time>2022-01-30T12:55:29Z</time>
      </trkpt>
      <trkpt lat="41.8975200" lon="-2.7698430">
        <ele>1088.5</ele>
        <time>2022-01-30T12:55:30Z</time>
      </trkpt>
      <trkpt lat="41.8975500" lon="-2.7698170">
        <ele>1089.5</ele>
        <time>2022-01-30T12:55:31Z</time>
      </trkpt>
      <trkpt lat="41.8975780" lon="-2.7697970">
        <ele>1089.5</ele>
        <time>2022-01-30T12:55:32Z</time>
      </trkpt>
      <trkpt lat="41.8976100" lon="-2.7697830">
        <ele>1089.5</ele>
        <time>2022-01-30T12:55:33Z</time>
      </trkpt>
      <trkpt lat="41.8976450" lon="-2.7697720">
        <ele>1089.5</ele>
        <time>2022-01-30T12:55:34Z</time>
      </trkpt>
      <trkpt lat="41.8976780" lon="-2.7697620">
        <ele>1090.4</ele>
        <time>2022-01-30T12:55:35Z</time>
      </trkpt>
      <trkpt lat="41.8977120" lon="-2.7697530">
        <ele>1088.3</ele>
        <time>2022-01-30T12:55:36Z</time>
      </trkpt>
      <trkpt lat="41.8977470" lon="-2.7697480">
        <ele>1088.3</ele>
        <time>2022-01-30T12:55:37Z</time>
      </trkpt>
      <trkpt lat="41.8977820" lon="-2.7697470">
        <ele>1088.3</ele>
        <time>2022-01-30T12:55:38Z</time>
      </trkpt>
      <trkpt lat="41.8978150" lon="-2.7697450">
        <ele>1089.1</ele>
        <time>2022-01-30T12:55:39Z</time>
      </trkpt>
      <trkpt lat="41.8978500" lon="-2.7697380">
        <ele>1089.1</ele>
        <time>2022-01-30T12:55:40Z</time>
      </trkpt>
      <trkpt lat="41.8978880" lon="-2.7697280">
        <ele>1089.1</ele>
        <time>2022-01-30T12:55:41Z</time>
      </trkpt>
      <trkpt lat="41.8979280" lon="-2.7697170">
        <ele>1089.1</ele>
        <time>2022-01-30T12:55:42Z</time>
      </trkpt>
      <trkpt lat="41.8979720" lon="-2.7697020">
        <ele>1089.9</ele>
        <time>2022-01-30T12:55:43Z</time>
      </trkpt>
      <trkpt lat="41.8980130" lon="-2.7696870">
        <ele>1089.9</ele>
        <time>2022-01-30T12:55:44Z</time>
      </trkpt>
      <trkpt lat="41.8980570" lon="-2.7696670">
        <ele>1089.9</ele>
        <time>2022-01-30T12:55:45Z</time>
      </trkpt>
      <trkpt lat="41.8981020" lon="-2.7696420">
        <ele>1091.0</ele>
        <time>2022-01-30T12:55:46Z</time>
      </trkpt>
      <trkpt lat="41.8981480" lon="-2.7696170">
        <ele>1091.0</ele>
        <time>2022-01-30T12:55:47Z</time>
      </trkpt>
      <trkpt lat="41.8981950" lon="-2.7695970">
        <ele>1092.1</ele>
        <time>2022-01-30T12:55:48Z</time>
      </trkpt>
      <trkpt lat="41.8982420" lon="-2.7695770">
        <ele>1089.4</ele>
        <time>2022-01-30T12:55:49Z</time>
      </trkpt>
      <trkpt lat="41.8982850" lon="-2.7695530">
        <ele>1089.4</ele>
        <time>2022-01-30T12:55:50Z</time>
      </trkpt>
      <trkpt lat="41.8983270" lon="-2.7695250">
        <ele>1090.4</ele>
        <time>2022-01-30T12:55:51Z</time>
      </trkpt>
      <trkpt lat="41.8983630" lon="-2.7694930">
        <ele>1090.4</ele>
        <time>2022-01-30T12:55:52Z</time>
      </trkpt>
      <trkpt lat="41.8984000" lon="-2.7694670">
        <ele>1090.4</ele>
        <time>2022-01-30T12:55:53Z</time>
      </trkpt>
      <trkpt lat="41.8984350" lon="-2.7694420">
        <ele>1090.4</ele>
        <time>2022-01-30T12:55:54Z</time>
      </trkpt>
      <trkpt lat="41.8984720" lon="-2.7694180">
        <ele>1091.6</ele>
        <time>2022-01-30T12:55:55Z</time>
      </trkpt>
      <trkpt lat="41.8985080" lon="-2.7693950">
        <ele>1088.5</ele>
        <time>2022-01-30T12:55:56Z</time>
      </trkpt>
      <trkpt lat="41.8985470" lon="-2.7693720">
        <ele>1088.5</ele>
        <time>2022-01-30T12:55:57Z</time>
      </trkpt>
      <trkpt lat="41.8985830" lon="-2.7693450">
        <ele>1090.0</ele>
        <time>2022-01-30T12:55:58Z</time>
      </trkpt>
      <trkpt lat="41.8986200" lon="-2.7693180">
        <ele>1090.0</ele>
        <time>2022-01-30T12:55:59Z</time>
      </trkpt>
      <trkpt lat="41.8986580" lon="-2.7692900">
        <ele>1090.0</ele>
        <time>2022-01-30T12:56:00Z</time>
      </trkpt>
      <trkpt lat="41.8986970" lon="-2.7692580">
        <ele>1090.0</ele>
        <time>2022-01-30T12:56:01Z</time>
      </trkpt>
      <trkpt lat="41.8987330" lon="-2.7692270">
        <ele>1088.9</ele>
        <time>2022-01-30T12:56:02Z</time>
      </trkpt>
      <trkpt lat="41.8987680" lon="-2.7691930">
        <ele>1088.9</ele>
        <time>2022-01-30T12:56:03Z</time>
      </trkpt>
      <trkpt lat="41.8988070" lon="-2.7691600">
        <ele>1088.9</ele>
        <time>2022-01-30T12:56:04Z</time>
      </trkpt>
      <trkpt lat="41.8988470" lon="-2.7691270">
        <ele>1090.2</ele>
        <time>2022-01-30T12:56:05Z</time>
      </trkpt>
      <trkpt lat="41.8988880" lon="-2.7690930">
        <ele>1090.2</ele>
        <time>2022-01-30T12:56:06Z</time>
      </trkpt>
      <trkpt lat="41.8989230" lon="-2.7690650">
        <ele>1087.9</ele>
        <time>2022-01-30T12:56:07Z</time>
      </trkpt>
      <trkpt lat="41.8989530" lon="-2.7690350">
        <ele>1087.9</ele>
        <time>2022-01-30T12:56:08Z</time>
      </trkpt>
      <trkpt lat="41.8989780" lon="-2.7690080">
        <ele>1089.1</ele>
        <time>2022-01-30T12:56:09Z</time>
      </trkpt>
      <trkpt lat="41.8989980" lon="-2.7689830">
        <ele>1089.1</ele>
        <time>2022-01-30T12:56:10Z</time>
      </trkpt>
      <trkpt lat="41.8990130" lon="-2.7689620">
        <ele>1089.1</ele>
        <time>2022-01-30T12:56:11Z</time>
      </trkpt>
      <trkpt lat="41.8990230" lon="-2.7689420">
        <ele>1089.1</ele>
        <time>2022-01-30T12:56:12Z</time>
      </trkpt>
      <trkpt lat="41.8990320" lon="-2.7689200">
        <ele>1089.1</ele>
        <time>2022-01-30T12:56:13Z</time>
      </trkpt>
      <trkpt lat="41.8990400" lon="-2.7688970">
        <ele>1087.0</ele>
        <time>2022-01-30T12:56:14Z</time>
      </trkpt>
      <trkpt lat="41.8990500" lon="-2.7688700">
        <ele>1087.0</ele>
        <time>2022-01-30T12:56:15Z</time>
      </trkpt>
      <trkpt lat="41.8990620" lon="-2.7688450">
        <ele>1087.0</ele>
        <time>2022-01-30T12:56:16Z</time>
      </trkpt>
      <trkpt lat="41.8990720" lon="-2.7688100">
        <ele>1087.0</ele>
        <time>2022-01-30T12:56:17Z</time>
      </trkpt>
      <trkpt lat="41.8990800" lon="-2.7687700">
        <ele>1087.0</ele>
        <time>2022-01-30T12:56:18Z</time>
      </trkpt>
      <trkpt lat="41.8990870" lon="-2.7687300">
        <ele>1088.4</ele>
        <time>2022-01-30T12:56:19Z</time>
      </trkpt>
      <trkpt lat="41.8990930" lon="-2.7686930">
        <ele>1086.8</ele>
        <time>2022-01-30T12:56:20Z</time>
      </trkpt>
      <trkpt lat="41.8991000" lon="-2.7686550">
        <ele>1086.8</ele>
        <time>2022-01-30T12:56:21Z</time>
      </trkpt>
      <trkpt lat="41.8991070" lon="-2.7686170">
        <ele>1086.8</ele>
        <time>2022-01-30T12:56:22Z</time>
      </trkpt>
      <trkpt lat="41.8991150" lon="-2.7685750">
        <ele>1086.8</ele>
        <time>2022-01-30T12:56:23Z</time>
      </trkpt>
      <trkpt lat="41.8991230" lon="-2.7685350">
        <ele>1085.6</ele>
        <time>2022-01-30T12:56:24Z</time>
      </trkpt>
      <trkpt lat="41.8991320" lon="-2.7684900">
        <ele>1085.6</ele>
        <time>2022-01-30T12:56:25Z</time>
      </trkpt>
      <trkpt lat="41.8991400" lon="-2.7684470">
        <ele>1085.6</ele>
        <time>2022-01-30T12:56:26Z</time>
      </trkpt>
      <trkpt lat="41.8991520" lon="-2.7684080">
        <ele>1085.6</ele>
        <time>2022-01-30T12:56:27Z</time>
      </trkpt>
      <trkpt lat="41.8991650" lon="-2.7683720">
        <ele>1084.7</ele>
        <time>2022-01-30T12:56:28Z</time>
      </trkpt>
      <trkpt lat="41.8991800" lon="-2.7683370">
        <ele>1084.7</ele>
        <time>2022-01-30T12:56:29Z</time>
      </trkpt>
      <trkpt lat="41.8991970" lon="-2.7683070">
        <ele>1084.7</ele>
        <time>2022-01-30T12:56:30Z</time>
      </trkpt>
      <trkpt lat="41.8992180" lon="-2.7682820">
        <ele>1086.5</ele>
        <time>2022-01-30T12:56:31Z</time>
      </trkpt>
      <trkpt lat="41.8992420" lon="-2.7682620">
        <ele>1086.5</ele>
        <time>2022-01-30T12:56:32Z</time>
      </trkpt>
      <trkpt lat="41.8992670" lon="-2.7682470">
        <ele>1086.5</ele>
        <time>2022-01-30T12:56:33Z</time>
      </trkpt>
      <trkpt lat="41.8992900" lon="-2.7682300">
        <ele>1086.5</ele>
        <time>2022-01-30T12:56:34Z</time>
      </trkpt>
      <trkpt lat="41.8993150" lon="-2.7682170">
        <ele>1086.5</ele>
        <time>2022-01-30T12:56:35Z</time>
      </trkpt>
      <trkpt lat="41.8993420" lon="-2.7682030">
        <ele>1087.4</ele>
        <time>2022-01-30T12:56:36Z</time>
      </trkpt>
      <trkpt lat="41.8993680" lon="-2.7681900">
        <ele>1087.4</ele>
        <time>2022-01-30T12:56:37Z</time>
      </trkpt>
      <trkpt lat="41.8994000" lon="-2.7681820">
        <ele>1087.4</ele>
        <time>2022-01-30T12:56:38Z</time>
      </trkpt>
      <trkpt lat="41.8994320" lon="-2.7681730">
        <ele>1087.4</ele>
        <time>2022-01-30T12:56:39Z</time>
      </trkpt>
      <trkpt lat="41.8994650" lon="-2.7681700">
        <ele>1087.4</ele>
        <time>2022-01-30T12:56:40Z</time>
      </trkpt>
      <trkpt lat="41.8995030" lon="-2.7681700">
        <ele>1088.9</ele>
        <time>2022-01-30T12:56:41Z</time>
      </trkpt>
      <trkpt lat="41.8995350" lon="-2.7681730">
        <ele>1088.9</ele>
        <time>2022-01-30T12:56:42Z</time>
      </trkpt>
      <trkpt lat="41.8995670" lon="-2.7681780">
        <ele>1088.9</ele>
        <time>2022-01-30T12:56:43Z</time>
      </trkpt>
      <trkpt lat="41.8995950" lon="-2.7681820">
        <ele>1090.2</ele>
        <time>2022-01-30T12:56:44Z</time>
      </trkpt>
      <trkpt lat="41.8996250" lon="-2.7681800">
        <ele>1090.2</ele>
        <time>2022-01-30T12:56:45Z</time>
      </trkpt>
      <trkpt lat="41.8996520" lon="-2.7681680">
        <ele>1090.2</ele>
        <time>2022-01-30T12:56:46Z</time>
      </trkpt>
      <trkpt lat="41.8996800" lon="-2.7681500">
        <ele>1090.2</ele>
        <time>2022-01-30T12:56:47Z</time>
      </trkpt>
      <trkpt lat="41.8997080" lon="-2.7681300">
        <ele>1090.2</ele>
        <time>2022-01-30T12:56:48Z</time>
      </trkpt>
      <trkpt lat="41.8997400" lon="-2.7681070">
        <ele>1091.9</ele>
        <time>2022-01-30T12:56:49Z</time>
      </trkpt>
      <trkpt lat="41.8997720" lon="-2.7680850">
        <ele>1091.9</ele>
        <time>2022-01-30T12:56:50Z</time>
      </trkpt>
      <trkpt lat="41.8998000" lon="-2.7680630">
        <ele>1091.9</ele>
        <time>2022-01-30T12:56:51Z</time>
      </trkpt>
      <trkpt lat="41.8998280" lon="-2.7680450">
        <ele>1091.9</ele>
        <time>2022-01-30T12:56:52Z</time>
      </trkpt>
      <trkpt lat="41.8998580" lon="-2.7680280">
        <ele>1092.3</ele>
        <time>2022-01-30T12:56:53Z</time>
      </trkpt>
      <trkpt lat="41.8998820" lon="-2.7680070">
        <ele>1092.3</ele>
        <time>2022-01-30T12:56:54Z</time>
      </trkpt>
      <trkpt lat="41.8998970" lon="-2.7679750">
        <ele>1092.3</ele>
        <time>2022-01-30T12:56:55Z</time>
      </trkpt>
      <trkpt lat="41.8999050" lon="-2.7679370">
        <ele>1092.3</ele>
        <time>2022-01-30T12:56:56Z</time>
      </trkpt>
      <trkpt lat="41.8999100" lon="-2.7678950">
        <ele>1092.3</ele>
        <time>2022-01-30T12:56:57Z</time>
      </trkpt>
      <trkpt lat="41.8999130" lon="-2.7678500">
        <ele>1091.6</ele>
        <time>2022-01-30T12:56:58Z</time>
      </trkpt>
      <trkpt lat="41.8999150" lon="-2.7678020">
        <ele>1091.6</ele>
        <time>2022-01-30T12:56:59Z</time>
      </trkpt>
      <trkpt lat="41.8999180" lon="-2.7677530">
        <ele>1091.6</ele>
        <time>2022-01-30T12:57:00Z</time>
      </trkpt>
      <trkpt lat="41.8999230" lon="-2.7677050">
        <ele>1091.6</ele>
        <time>2022-01-30T12:57:01Z</time>
      </trkpt>
      <trkpt lat="41.8999300" lon="-2.7676600">
        <ele>1090.9</ele>
        <time>2022-01-30T12:57:02Z</time>
      </trkpt>
      <trkpt lat="41.8999350" lon="-2.7676170">
        <ele>1090.9</ele>
        <time>2022-01-30T12:57:03Z</time>
      </trkpt>
      <trkpt lat="41.8999400" lon="-2.7675730">
        <ele>1090.9</ele>
        <time>2022-01-30T12:57:04Z</time>
      </trkpt>
      <trkpt lat="41.8999470" lon="-2.7675270">
        <ele>1090.9</ele>
        <time>2022-01-30T12:57:05Z</time>
      </trkpt>
      <trkpt lat="41.8999480" lon="-2.7674770">
        <ele>1089.9</ele>
        <time>2022-01-30T12:57:06Z</time>
      </trkpt>
      <trkpt lat="41.8999520" lon="-2.7674270">
        <ele>1089.9</ele>
        <time>2022-01-30T12:57:07Z</time>
      </trkpt>
      <trkpt lat="41.8999580" lon="-2.7673780">
        <ele>1089.9</ele>
        <time>2022-01-30T12:57:08Z</time>
      </trkpt>
      <trkpt lat="41.8999680" lon="-2.7673350">
        <ele>1088.9</ele>
        <time>2022-01-30T12:57:09Z</time>
      </trkpt>
      <trkpt lat="41.8999820" lon="-2.7672930">
        <ele>1090.2</ele>
        <time>2022-01-30T12:57:10Z</time>
      </trkpt>
      <trkpt lat="41.8999930" lon="-2.7672480">
        <ele>1090.2</ele>
        <time>2022-01-30T12:57:11Z</time>
      </trkpt>
      <trkpt lat="41.9000070" lon="-2.7672020">
        <ele>1090.2</ele>
        <time>2022-01-30T12:57:12Z</time>
      </trkpt>
      <trkpt lat="41.9000200" lon="-2.7671520">
        <ele>1089.2</ele>
        <time>2022-01-30T12:57:13Z</time>
      </trkpt>
      <trkpt lat="41.9000380" lon="-2.7671050">
        <ele>1089.2</ele>
        <time>2022-01-30T12:57:14Z</time>
      </trkpt>
      <trkpt lat="41.9000570" lon="-2.7670570">
        <ele>1089.2</ele>
        <time>2022-01-30T12:57:15Z</time>
      </trkpt>
      <trkpt lat="41.9000800" lon="-2.7670100">
        <ele>1089.2</ele>
        <time>2022-01-30T12:57:16Z</time>
      </trkpt>
      <trkpt lat="41.9001030" lon="-2.7669650">
        <ele>1088.1</ele>
        <time>2022-01-30T12:57:17Z</time>
      </trkpt>
      <trkpt lat="41.9001320" lon="-2.7669270">
        <ele>1089.1</ele>
        <time>2022-01-30T12:57:18Z</time>
      </trkpt>
      <trkpt lat="41.9001620" lon="-2.7668900">
        <ele>1089.1</ele>
        <time>2022-01-30T12:57:19Z</time>
      </trkpt>
      <trkpt lat="41.9001900" lon="-2.7668570">
        <ele>1089.1</ele>
        <time>2022-01-30T12:57:20Z</time>
      </trkpt>
      <trkpt lat="41.9002220" lon="-2.7668250">
        <ele>1087.7</ele>
        <time>2022-01-30T12:57:21Z</time>
      </trkpt>
      <trkpt lat="41.9002520" lon="-2.7667900">
        <ele>1088.5</ele>
        <time>2022-01-30T12:57:22Z</time>
      </trkpt>
      <trkpt lat="41.9002830" lon="-2.7667580">
        <ele>1088.5</ele>
        <time>2022-01-30T12:57:23Z</time>
      </trkpt>
      <trkpt lat="41.9003130" lon="-2.7667220">
        <ele>1088.5</ele>
        <time>2022-01-30T12:57:24Z</time>
      </trkpt>
      <trkpt lat="41.9003550" lon="-2.7666780">
        <ele>1088.5</ele>
        <time>2022-01-30T12:57:25Z</time>
      </trkpt>
      <trkpt lat="41.9003850" lon="-2.7666480">
        <ele>1086.9</ele>
        <time>2022-01-30T12:57:26Z</time>
      </trkpt>
      <trkpt lat="41.9004220" lon="-2.7666100">
        <ele>1086.9</ele>
        <time>2022-01-30T12:57:27Z</time>
      </trkpt>
      <trkpt lat="41.9004580" lon="-2.7665680">
        <ele>1086.9</ele>
        <time>2022-01-30T12:57:28Z</time>
      </trkpt>
      <trkpt lat="41.9004980" lon="-2.7665280">
        <ele>1087.4</ele>
        <time>2022-01-30T12:57:29Z</time>
      </trkpt>
      <trkpt lat="41.9005400" lon="-2.7664930">
        <ele>1085.2</ele>
        <time>2022-01-30T12:57:30Z</time>
      </trkpt>
      <trkpt lat="41.9005820" lon="-2.7664600">
        <ele>1085.2</ele>
        <time>2022-01-30T12:57:31Z</time>
      </trkpt>
      <trkpt lat="41.9006270" lon="-2.7664350">
        <ele>1085.8</ele>
        <time>2022-01-30T12:57:32Z</time>
      </trkpt>
      <trkpt lat="41.9006720" lon="-2.7664170">
        <ele>1085.8</ele>
        <time>2022-01-30T12:57:33Z</time>
      </trkpt>
      <trkpt lat="41.9007170" lon="-2.7664030">
        <ele>1085.8</ele>
        <time>2022-01-30T12:57:34Z</time>
      </trkpt>
      <trkpt lat="41.9007620" lon="-2.7663930">
        <ele>1086.3</ele>
        <time>2022-01-30T12:57:35Z</time>
      </trkpt>
      <trkpt lat="41.9008050" lon="-2.7663780">
        <ele>1086.3</ele>
        <time>2022-01-30T12:57:36Z</time>
      </trkpt>
      <trkpt lat="41.9008500" lon="-2.7663650">
        <ele>1086.3</ele>
        <time>2022-01-30T12:57:37Z</time>
      </trkpt>
      <trkpt lat="41.9008950" lon="-2.7663470">
        <ele>1086.8</ele>
        <time>2022-01-30T12:57:38Z</time>
      </trkpt>
      <trkpt lat="41.9009420" lon="-2.7663270">
        <ele>1086.8</ele>
        <time>2022-01-30T12:57:39Z</time>
      </trkpt>
      <trkpt lat="41.9009870" lon="-2.7662980">
        <ele>1085.1</ele>
        <time>2022-01-30T12:57:40Z</time>
      </trkpt>
      <trkpt lat="41.9010300" lon="-2.7662580">
        <ele>1085.8</ele>
        <time>2022-01-30T12:57:41Z</time>
      </trkpt>
      <trkpt lat="41.9010720" lon="-2.7662120">
        <ele>1085.8</ele>
        <time>2022-01-30T12:57:42Z</time>
      </trkpt>
      <trkpt lat="41.9011170" lon="-2.7661500">
        <ele>1084.7</ele>
        <time>2022-01-30T12:57:43Z</time>
      </trkpt>
      <trkpt lat="41.9011450" lon="-2.7661100">
        <ele>1085.6</ele>
        <time>2022-01-30T12:57:44Z</time>
      </trkpt>
      <trkpt lat="41.9011800" lon="-2.7660680">
        <ele>1085.6</ele>
        <time>2022-01-30T12:57:45Z</time>
      </trkpt>
      <trkpt lat="41.9012150" lon="-2.7660350">
        <ele>1085.6</ele>
        <time>2022-01-30T12:57:46Z</time>
      </trkpt>
      <trkpt lat="41.9012420" lon="-2.7659980">
        <ele>1085.6</ele>
        <time>2022-01-30T12:57:47Z</time>
      </trkpt>
      <trkpt lat="41.9012620" lon="-2.7659620">
        <ele>1085.8</ele>
        <time>2022-01-30T12:57:48Z</time>
      </trkpt>
      <trkpt lat="41.9012780" lon="-2.7659320">
        <ele>1085.8</ele>
        <time>2022-01-30T12:57:49Z</time>
      </trkpt>
      <trkpt lat="41.9012920" lon="-2.7659020">
        <ele>1085.8</ele>
        <time>2022-01-30T12:57:50Z</time>
      </trkpt>
      <trkpt lat="41.9013050" lon="-2.7658750">
        <ele>1085.8</ele>
        <time>2022-01-30T12:57:51Z</time>
      </trkpt>
      <trkpt lat="41.9013170" lon="-2.7658520">
        <ele>1085.8</ele>
        <time>2022-01-30T12:57:52Z</time>
      </trkpt>
      <trkpt lat="41.9013300" lon="-2.7658280">
        <ele>1085.8</ele>
        <time>2022-01-30T12:57:53Z</time>
      </trkpt>
      <trkpt lat="41.9013450" lon="-2.7658020">
        <ele>1085.1</ele>
        <time>2022-01-30T12:57:54Z</time>
      </trkpt>
      <trkpt lat="41.9013630" lon="-2.7657700">
        <ele>1085.1</ele>
        <time>2022-01-30T12:57:55Z</time>
      </trkpt>
      <trkpt lat="41.9013830" lon="-2.7657300">
        <ele>1086.5</ele>
        <time>2022-01-30T12:57:56Z</time>
      </trkpt>
      <trkpt lat="41.9014030" lon="-2.7656850">
        <ele>1086.5</ele>
        <time>2022-01-30T12:57:57Z</time>
      </trkpt>
      <trkpt lat="41.9014200" lon="-2.7656380">
        <ele>1086.5</ele>
        <time>2022-01-30T12:57:58Z</time>
      </trkpt>
      <trkpt lat="41.9014370" lon="-2.7655900">
        <ele>1085.8</ele>
        <time>2022-01-30T12:57:59Z</time>
      </trkpt>
      <trkpt lat="41.9014570" lon="-2.7655450">
        <ele>1085.8</ele>
        <time>2022-01-30T12:58:00Z</time>
      </trkpt>
      <trkpt lat="41.9014820" lon="-2.7655000">
        <ele>1085.8</ele>
        <time>2022-01-30T12:58:01Z</time>
      </trkpt>
      <trkpt lat="41.9015070" lon="-2.7654570">
        <ele>1085.0</ele>
        <time>2022-01-30T12:58:02Z</time>
      </trkpt>
      <trkpt lat="41.9015330" lon="-2.7654120">
        <ele>1085.9</ele>
        <time>2022-01-30T12:58:03Z</time>
      </trkpt>
      <trkpt lat="41.9015600" lon="-2.7653700">
        <ele>1085.9</ele>
        <time>2022-01-30T12:58:04Z</time>
      </trkpt>
      <trkpt lat="41.9015900" lon="-2.7653280">
        <ele>1085.9</ele>
        <time>2022-01-30T12:58:05Z</time>
      </trkpt>
      <trkpt lat="41.9016150" lon="-2.7652830">
        <ele>1084.6</ele>
        <time>2022-01-30T12:58:06Z</time>
      </trkpt>
      <trkpt lat="41.9016400" lon="-2.7652370">
        <ele>1085.2</ele>
        <time>2022-01-30T12:58:07Z</time>
      </trkpt>
      <trkpt lat="41.9016600" lon="-2.7651900">
        <ele>1085.2</ele>
        <time>2022-01-30T12:58:08Z</time>
      </trkpt>
      <trkpt lat="41.9016830" lon="-2.7651430">
        <ele>1085.2</ele>
        <time>2022-01-30T12:58:09Z</time>
      </trkpt>
      <trkpt lat="41.9017070" lon="-2.7650980">
        <ele>1083.9</ele>
        <time>2022-01-30T12:58:10Z</time>
      </trkpt>
      <trkpt lat="41.9017330" lon="-2.7650530">
        <ele>1083.9</ele>
        <time>2022-01-30T12:58:11Z</time>
      </trkpt>
      <trkpt lat="41.9017600" lon="-2.7650100">
        <ele>1083.9</ele>
        <time>2022-01-30T12:58:12Z</time>
      </trkpt>
      <trkpt lat="41.9017870" lon="-2.7649670">
        <ele>1084.3</ele>
        <time>2022-01-30T12:58:13Z</time>
      </trkpt>
      <trkpt lat="41.9018130" lon="-2.7649250">
        <ele>1083.3</ele>
        <time>2022-01-30T12:58:14Z</time>
      </trkpt>
      <trkpt lat="41.9018370" lon="-2.7648780">
        <ele>1083.3</ele>
        <time>2022-01-30T12:58:15Z</time>
      </trkpt>
      <trkpt lat="41.9018530" lon="-2.7648230">
        <ele>1083.3</ele>
        <time>2022-01-30T12:58:16Z</time>
      </trkpt>
      <trkpt lat="41.9018680" lon="-2.7647680">
        <ele>1082.7</ele>
        <time>2022-01-30T12:58:17Z</time>
      </trkpt>
      <trkpt lat="41.9018830" lon="-2.7647120">
        <ele>1082.7</ele>
        <time>2022-01-30T12:58:18Z</time>
      </trkpt>
      <trkpt lat="41.9019000" lon="-2.7646550">
        <ele>1083.0</ele>
        <time>2022-01-30T12:58:19Z</time>
      </trkpt>
      <trkpt lat="41.9019180" lon="-2.7646030">
        <ele>1082.8</ele>
        <time>2022-01-30T12:58:20Z</time>
      </trkpt>
      <trkpt lat="41.9019420" lon="-2.7645530">
        <ele>1082.8</ele>
        <time>2022-01-30T12:58:21Z</time>
      </trkpt>
      <trkpt lat="41.9019650" lon="-2.7645070">
        <ele>1082.8</ele>
        <time>2022-01-30T12:58:22Z</time>
      </trkpt>
      <trkpt lat="41.9019930" lon="-2.7644600">
        <ele>1082.8</ele>
        <time>2022-01-30T12:58:23Z</time>
      </trkpt>
      <trkpt lat="41.9020220" lon="-2.7644150">
        <ele>1083.1</ele>
        <time>2022-01-30T12:58:24Z</time>
      </trkpt>
      <trkpt lat="41.9020530" lon="-2.7643700">
        <ele>1083.1</ele>
        <time>2022-01-30T12:58:25Z</time>
      </trkpt>
      <trkpt lat="41.9020850" lon="-2.7643230">
        <ele>1083.1</ele>
        <time>2022-01-30T12:58:26Z</time>
      </trkpt>
      <trkpt lat="41.9021150" lon="-2.7642780">
        <ele>1083.1</ele>
        <time>2022-01-30T12:58:27Z</time>
      </trkpt>
      <trkpt lat="41.9021450" lon="-2.7642320">
        <ele>1083.2</ele>
        <time>2022-01-30T12:58:28Z</time>
      </trkpt>
      <trkpt lat="41.9021750" lon="-2.7641870">
        <ele>1083.6</ele>
        <time>2022-01-30T12:58:29Z</time>
      </trkpt>
      <trkpt lat="41.9022050" lon="-2.7641400">
        <ele>1083.6</ele>
        <time>2022-01-30T12:58:30Z</time>
      </trkpt>
      <trkpt lat="41.9022330" lon="-2.7640950">
        <ele>1083.6</ele>
        <time>2022-01-30T12:58:31Z</time>
      </trkpt>
      <trkpt lat="41.9022620" lon="-2.7640500">
        <ele>1083.7</ele>
        <time>2022-01-30T12:58:32Z</time>
      </trkpt>
      <trkpt lat="41.9022880" lon="-2.7640080">
        <ele>1084.1</ele>
        <time>2022-01-30T12:58:33Z</time>
      </trkpt>
      <trkpt lat="41.9023150" lon="-2.7639680">
        <ele>1084.1</ele>
        <time>2022-01-30T12:58:34Z</time>
      </trkpt>
      <trkpt lat="41.9023380" lon="-2.7639300">
        <ele>1084.1</ele>
        <time>2022-01-30T12:58:35Z</time>
      </trkpt>
      <trkpt lat="41.9023600" lon="-2.7638920">
        <ele>1084.3</ele>
        <time>2022-01-30T12:58:36Z</time>
      </trkpt>
      <trkpt lat="41.9023820" lon="-2.7638570">
        <ele>1084.3</ele>
        <time>2022-01-30T12:58:37Z</time>
      </trkpt>
      <trkpt lat="41.9024000" lon="-2.7638220">
        <ele>1084.3</ele>
        <time>2022-01-30T12:58:38Z</time>
      </trkpt>
      <trkpt lat="41.9024250" lon="-2.7637850">
        <ele>1084.6</ele>
        <time>2022-01-30T12:58:39Z</time>
      </trkpt>
      <trkpt lat="41.9024530" lon="-2.7637500">
        <ele>1084.6</ele>
        <time>2022-01-30T12:58:40Z</time>
      </trkpt>
      <trkpt lat="41.9024800" lon="-2.7637120">
        <ele>1084.8</ele>
        <time>2022-01-30T12:58:41Z</time>
      </trkpt>
      <trkpt lat="41.9025120" lon="-2.7636750">
        <ele>1084.8</ele>
        <time>2022-01-30T12:58:42Z</time>
      </trkpt>
      <trkpt lat="41.9025430" lon="-2.7636370">
        <ele>1085.1</ele>
        <time>2022-01-30T12:58:43Z</time>
      </trkpt>
      <trkpt lat="41.9025720" lon="-2.7636020">
        <ele>1085.1</ele>
        <time>2022-01-30T12:58:44Z</time>
      </trkpt>
      <trkpt lat="41.9025980" lon="-2.7635650">
        <ele>1085.4</ele>
        <time>2022-01-30T12:58:45Z</time>
      </trkpt>
      <trkpt lat="41.9026220" lon="-2.7635330">
        <ele>1085.4</ele>
        <time>2022-01-30T12:58:46Z</time>
      </trkpt>
      <trkpt lat="41.9026420" lon="-2.7635070">
        <ele>1085.4</ele>
        <time>2022-01-30T12:58:47Z</time>
      </trkpt>
      <trkpt lat="41.9026620" lon="-2.7634800">
        <ele>1085.6</ele>
        <time>2022-01-30T12:58:48Z</time>
      </trkpt>
      <trkpt lat="41.9026800" lon="-2.7634530">
        <ele>1085.6</ele>
        <time>2022-01-30T12:58:49Z</time>
      </trkpt>
      <trkpt lat="41.9026970" lon="-2.7634230">
        <ele>1085.6</ele>
        <time>2022-01-30T12:58:50Z</time>
      </trkpt>
      <trkpt lat="41.9027150" lon="-2.7633930">
        <ele>1085.9</ele>
        <time>2022-01-30T12:58:51Z</time>
      </trkpt>
      <trkpt lat="41.9027330" lon="-2.7633630">
        <ele>1085.9</ele>
        <time>2022-01-30T12:58:52Z</time>
      </trkpt>
      <trkpt lat="41.9027530" lon="-2.7633320">
        <ele>1085.9</ele>
        <time>2022-01-30T12:58:53Z</time>
      </trkpt>
      <trkpt lat="41.9027750" lon="-2.7633030">
        <ele>1085.9</ele>
        <time>2022-01-30T12:58:54Z</time>
      </trkpt>
      <trkpt lat="41.9028000" lon="-2.7632730">
        <ele>1086.2</ele>
        <time>2022-01-30T12:58:55Z</time>
      </trkpt>
      <trkpt lat="41.9028250" lon="-2.7632470">
        <ele>1086.2</ele>
        <time>2022-01-30T12:58:56Z</time>
      </trkpt>
      <trkpt lat="41.9028520" lon="-2.7632230">
        <ele>1086.2</ele>
        <time>2022-01-30T12:58:57Z</time>
      </trkpt>
      <trkpt lat="41.9028800" lon="-2.7632030">
        <ele>1086.2</ele>
        <time>2022-01-30T12:58:58Z</time>
      </trkpt>
      <trkpt lat="41.9029050" lon="-2.7631870">
        <ele>1086.2</ele>
        <time>2022-01-30T12:58:59Z</time>
      </trkpt>
      <trkpt lat="41.9029300" lon="-2.7631700">
        <ele>1086.4</ele>
        <time>2022-01-30T12:59:00Z</time>
      </trkpt>
      <trkpt lat="41.9029530" lon="-2.7631520">
        <ele>1086.4</ele>
        <time>2022-01-30T12:59:01Z</time>
      </trkpt>
      <trkpt lat="41.9029750" lon="-2.7631320">
        <ele>1086.4</ele>
        <time>2022-01-30T12:59:02Z</time>
      </trkpt>
      <trkpt lat="41.9029930" lon="-2.7631130">
        <ele>1086.4</ele>
        <time>2022-01-30T12:59:03Z</time>
      </trkpt>
      <trkpt lat="41.9030100" lon="-2.7630950">
        <ele>1086.4</ele>
        <time>2022-01-30T12:59:04Z</time>
      </trkpt>
      <trkpt lat="41.9030230" lon="-2.7630780">
        <ele>1086.4</ele>
        <time>2022-01-30T12:59:05Z</time>
      </trkpt>
      <trkpt lat="41.9030320" lon="-2.7630680">
        <ele>1086.4</ele>
        <time>2022-01-30T12:59:06Z</time>
      </trkpt>
      <trkpt lat="41.9030350" lon="-2.7630650">
        <ele>1086.4</ele>
        <time>2022-01-30T12:59:07Z</time>
      </trkpt>
      <trkpt lat="41.9030370" lon="-2.7630630">
        <ele>1086.4</ele>
        <time>2022-01-30T12:59:08Z</time>
      </trkpt>
      <trkpt lat="41.9030350" lon="-2.7630630">
        <ele>1086.4</ele>
        <time>2022-01-30T12:59:09Z</time>
      </trkpt>
      <trkpt lat="41.9030330" lon="-2.7630630">
        <ele>1086.4</ele>
        <time>2022-01-30T12:59:10Z</time>
      </trkpt>
      <trkpt lat="41.9030330" lon="-2.7630580">
        <ele>1086.2</ele>
        <time>2022-01-30T12:59:11Z</time>
      </trkpt>
      <trkpt lat="41.9030330" lon="-2.7630580">
        <ele>1086.2</ele>
        <time>2022-01-30T12:59:12Z</time>
      </trkpt>
      <trkpt lat="41.9030320" lon="-2.7630600">
        <ele>1086.2</ele>
        <time>2022-01-30T12:59:13Z</time>
      </trkpt>
      <trkpt lat="41.9030330" lon="-2.7630630">
        <ele>1086.4</ele>
        <time>2022-01-30T12:59:14Z</time>
      </trkpt>
      <trkpt lat="41.9030330" lon="-2.7630670">
        <ele>1086.4</ele>
        <time>2022-01-30T12:59:15Z</time>
      </trkpt>
      <trkpt lat="41.9030300" lon="-2.7630720">
        <ele>1086.4</ele>
        <time>2022-01-30T12:59:16Z</time>
      </trkpt>
      <trkpt lat="41.9030270" lon="-2.7630730">
        <ele>1086.4</ele>
        <time>2022-01-30T12:59:17Z</time>
      </trkpt>
      <trkpt lat="41.9030230" lon="-2.7630750">
        <ele>1086.4</ele>
        <time>2022-01-30T12:59:18Z</time>
      </trkpt>
      <trkpt lat="41.9030230" lon="-2.7630750">
        <ele>1086.4</ele>
        <time>2022-01-30T12:59:19Z</time>
      </trkpt>
      <trkpt lat="41.9030230" lon="-2.7630750">
        <ele>1086.4</ele>
        <time>2022-01-30T12:59:20Z</time>
      </trkpt>
      <trkpt lat="41.9030230" lon="-2.7630750">
        <ele>1086.4</ele>
        <time>2022-01-30T12:59:21Z</time>
      </trkpt>
      <trkpt lat="41.9030230" lon="-2.7630750">
        <ele>1086.4</ele>
        <time>2022-01-30T12:59:22Z</time>
      </trkpt>
      <trkpt lat="41.9030230" lon="-2.7630750">
        <ele>1086.4</ele>
        <time>2022-01-30T12:59:23Z</time>
      </trkpt>
      <trkpt lat="41.9030230" lon="-2.7630750">
        <ele>1086.4</ele>
        <time>2022-01-30T12:59:24Z</time>
      </trkpt>
      <trkpt lat="41.9030230" lon="-2.7630750">
        <ele>1086.4</ele>
        <time>2022-01-30T12:59:25Z</time>
      </trkpt>
      <trkpt lat="41.9030270" lon="-2.7630750">
        <ele>1086.4</ele>
        <time>2022-01-30T12:59:26Z</time>
      </trkpt>
      <trkpt lat="41.9030270" lon="-2.7630750">
        <ele>1086.4</ele>
        <time>2022-01-30T12:59:27Z</time>
      </trkpt>
      <trkpt lat="41.9030280" lon="-2.7630750">
        <ele>1086.4</ele>
        <time>2022-01-30T12:59:28Z</time>
      </trkpt>
      <trkpt lat="41.9030300" lon="-2.7630750">
        <ele>1086.4</ele>
        <time>2022-01-30T12:59:29Z</time>
      </trkpt>
      <trkpt lat="41.9030320" lon="-2.7630750">
        <ele>1086.4</ele>
        <time>2022-01-30T12:59:30Z</time>
      </trkpt>
      <trkpt lat="41.9030320" lon="-2.7630750">
        <ele>1086.4</ele>
        <time>2022-01-30T12:59:31Z</time>
      </trkpt>
      <trkpt lat="41.9030320" lon="-2.7630750">
        <ele>1086.4</ele>
        <time>2022-01-30T12:59:32Z</time>
      </trkpt>
      <trkpt lat="41.9030330" lon="-2.7630750">
        <ele>1086.4</ele>
        <time>2022-01-30T12:59:33Z</time>
      </trkpt>
      <trkpt lat="41.9030330" lon="-2.7630780">
        <ele>1086.4</ele>
        <time>2022-01-30T12:59:34Z</time>
      </trkpt>
      <trkpt lat="41.9030330" lon="-2.7630780">
        <ele>1086.4</ele>
        <time>2022-01-30T12:59:35Z</time>
      </trkpt>
      <trkpt lat="41.9030330" lon="-2.7630800">
        <ele>1086.4</ele>
        <time>2022-01-30T12:59:36Z</time>
      </trkpt>
      <trkpt lat="41.9030330" lon="-2.7630800">
        <ele>1086.4</ele>
        <time>2022-01-30T12:59:37Z</time>
      </trkpt>
      <trkpt lat="41.9030330" lon="-2.7630820">
        <ele>1086.4</ele>
        <time>2022-01-30T12:59:38Z</time>
      </trkpt>
      <trkpt lat="41.9030350" lon="-2.7630830">
        <ele>1086.4</ele>
        <time>2022-01-30T12:59:39Z</time>
      </trkpt>
      <trkpt lat="41.9030350" lon="-2.7630870">
        <ele>1086.4</ele>
        <time>2022-01-30T12:59:40Z</time>
      </trkpt>
      <trkpt lat="41.9030370" lon="-2.7630870">
        <ele>1086.4</ele>
        <time>2022-01-30T12:59:41Z</time>
      </trkpt>
      <trkpt lat="41.9030430" lon="-2.7630870">
        <ele>1086.4</ele>
        <time>2022-01-30T12:59:42Z</time>
      </trkpt>
      <trkpt lat="41.9030480" lon="-2.7630870">
        <ele>1086.7</ele>
        <time>2022-01-30T12:59:43Z</time>
      </trkpt>
      <trkpt lat="41.9030500" lon="-2.7630870">
        <ele>1086.7</ele>
        <time>2022-01-30T12:59:44Z</time>
      </trkpt>
      <trkpt lat="41.9030500" lon="-2.7630870">
        <ele>1086.7</ele>
        <time>2022-01-30T12:59:45Z</time>
      </trkpt>
      <trkpt lat="41.9030500" lon="-2.7630880">
        <ele>1086.7</ele>
        <time>2022-01-30T12:59:46Z</time>
      </trkpt>
      <trkpt lat="41.9030500" lon="-2.7630880">
        <ele>1086.7</ele>
        <time>2022-01-30T12:59:47Z</time>
      </trkpt>
      <trkpt lat="41.9030500" lon="-2.7630900">
        <ele>1086.7</ele>
        <time>2022-01-30T12:59:48Z</time>
      </trkpt>
      <trkpt lat="41.9030500" lon="-2.7630900">
        <ele>1086.7</ele>
        <time>2022-01-30T12:59:49Z</time>
      </trkpt>
      <trkpt lat="41.9030500" lon="-2.7630900">
        <ele>1086.7</ele>
        <time>2022-01-30T12:59:50Z</time>
      </trkpt>
      <trkpt lat="41.9030500" lon="-2.7630900">
        <ele>1086.7</ele>
        <time>2022-01-30T12:59:51Z</time>
      </trkpt>
      <trkpt lat="41.9030500" lon="-2.7630900">
        <ele>1086.7</ele>
        <time>2022-01-30T12:59:52Z</time>
      </trkpt>
      <trkpt lat="41.9030500" lon="-2.7630900">
        <ele>1086.7</ele>
        <time>2022-01-30T12:59:53Z</time>
      </trkpt>
      <trkpt lat="41.9030500" lon="-2.7630900">
        <ele>1086.7</ele>
        <time>2022-01-30T12:59:54Z</time>
      </trkpt>
      <trkpt lat="41.9030500" lon="-2.7630900">
        <ele>1086.7</ele>
        <time>2022-01-30T12:59:55Z</time>
      </trkpt>
      <trkpt lat="41.9030500" lon="-2.7630900">
        <ele>1086.7</ele>
        <time>2022-01-30T12:59:56Z</time>
      </trkpt>
      <trkpt lat="41.9030500" lon="-2.7630900">
        <ele>1086.7</ele>
        <time>2022-01-30T12:59:57Z</time>
      </trkpt>
      <trkpt lat="41.9030480" lon="-2.7630900">
        <ele>1086.7</ele>
        <time>2022-01-30T12:59:58Z</time>
      </trkpt>
      <trkpt lat="41.9030470" lon="-2.7630900">
        <ele>1086.7</ele>
        <time>2022-01-30T12:59:59Z</time>
      </trkpt>
      <trkpt lat="41.9030450" lon="-2.7630900">
        <ele>1086.7</ele>
        <time>2022-01-30T13:00:00Z</time>
      </trkpt>
      <trkpt lat="41.9030450" lon="-2.7630900">
        <ele>1086.7</ele>
        <time>2022-01-30T13:00:01Z</time>
      </trkpt>
      <trkpt lat="41.9030450" lon="-2.7630900">
        <ele>1086.7</ele>
        <time>2022-01-30T13:00:02Z</time>
      </trkpt>
      <trkpt lat="41.9030450" lon="-2.7630900">
        <ele>1086.7</ele>
        <time>2022-01-30T13:00:03Z</time>
      </trkpt>
      <trkpt lat="41.9030450" lon="-2.7630900">
        <ele>1086.7</ele>
        <time>2022-01-30T13:00:04Z</time>
      </trkpt>
      <trkpt lat="41.9030450" lon="-2.7630900">
        <ele>1086.7</ele>
        <time>2022-01-30T13:00:05Z</time>
      </trkpt>
      <trkpt lat="41.9030450" lon="-2.7630900">
        <ele>1086.7</ele>
        <time>2022-01-30T13:00:06Z</time>
      </trkpt>
      <trkpt lat="41.9030450" lon="-2.7630900">
        <ele>1086.7</ele>
        <time>2022-01-30T13:00:07Z</time>
      </trkpt>
      <trkpt lat="41.9030450" lon="-2.7630900">
        <ele>1086.7</ele>
        <time>2022-01-30T13:00:08Z</time>
      </trkpt>
      <trkpt lat="41.9030450" lon="-2.7630900">
        <ele>1086.7</ele>
        <time>2022-01-30T13:00:09Z</time>
      </trkpt>
      <trkpt lat="41.9030430" lon="-2.7630900">
        <ele>1086.4</ele>
        <time>2022-01-30T13:00:10Z</time>
      </trkpt>
      <trkpt lat="41.9030420" lon="-2.7630900">
        <ele>1086.4</ele>
        <time>2022-01-30T13:00:11Z</time>
      </trkpt>
      <trkpt lat="41.9030420" lon="-2.7630900">
        <ele>1086.4</ele>
        <time>2022-01-30T13:00:12Z</time>
      </trkpt>
      <trkpt lat="41.9030400" lon="-2.7630900">
        <ele>1086.4</ele>
        <time>2022-01-30T13:00:13Z</time>
      </trkpt>
      <trkpt lat="41.9030400" lon="-2.7630900">
        <ele>1086.4</ele>
        <time>2022-01-30T13:00:14Z</time>
      </trkpt>
      <trkpt lat="41.9030380" lon="-2.7630900">
        <ele>1086.4</ele>
        <time>2022-01-30T13:00:15Z</time>
      </trkpt>
      <trkpt lat="41.9030380" lon="-2.7630900">
        <ele>1086.4</ele>
        <time>2022-01-30T13:00:16Z</time>
      </trkpt>
      <trkpt lat="41.9030380" lon="-2.7630900">
        <ele>1086.4</ele>
        <time>2022-01-30T13:00:17Z</time>
      </trkpt>
      <trkpt lat="41.9030380" lon="-2.7630900">
        <ele>1086.4</ele>
        <time>2022-01-30T13:00:18Z</time>
      </trkpt>
      <trkpt lat="41.9030380" lon="-2.7630900">
        <ele>1086.4</ele>
        <time>2022-01-30T13:00:19Z</time>
      </trkpt>
      <trkpt lat="41.9030380" lon="-2.7630880">
        <ele>1086.4</ele>
        <time>2022-01-30T13:00:20Z</time>
      </trkpt>
      <trkpt lat="41.9030380" lon="-2.7630880">
        <ele>1086.4</ele>
        <time>2022-01-30T13:00:21Z</time>
      </trkpt>
      <trkpt lat="41.9030380" lon="-2.7630870">
        <ele>1086.4</ele>
        <time>2022-01-30T13:00:22Z</time>
      </trkpt>
      <trkpt lat="41.9030380" lon="-2.7630850">
        <ele>1086.4</ele>
        <time>2022-01-30T13:00:23Z</time>
      </trkpt>
      <trkpt lat="41.9030380" lon="-2.7630800">
        <ele>1086.4</ele>
        <time>2022-01-30T13:00:24Z</time>
      </trkpt>
      <trkpt lat="41.9030380" lon="-2.7630780">
        <ele>1086.4</ele>
        <time>2022-01-30T13:00:25Z</time>
      </trkpt>
      <trkpt lat="41.9030350" lon="-2.7630770">
        <ele>1086.4</ele>
        <time>2022-01-30T13:00:26Z</time>
      </trkpt>
      <trkpt lat="41.9030320" lon="-2.7630770">
        <ele>1086.4</ele>
        <time>2022-01-30T13:00:31Z</time>
      </trkpt>
    </trkseg>
  </trk>
</gpx>
